<?xml version="1.0" encoding="UTF-8" standalone="no" ?>
<gpx xmlns="http://www.topografix.com/GPX/1/1" xmlns:xsi="http://www.w3.org/2001/XMLSchema-instance" xsi:schemaLocation="http://www.topografix.com/GPX/1/1 http://www.topografix.com/GPX/1/1/gpx.xsd" version="1.1" creator="VisuGPX - https://www.visugpx.com">
  <metadata>
    <name>Rando VTT Bonnac la Côte 2022</name>
    <desc><![CDATA[top rando,très physique!]]></desc>
  </metadata>
  <trk>
    <name><![CDATA[Rando VTT Bonnac la Côte 2022_1]]></name>
    <trkseg>
      <trkpt lat="45.94503" lon="1.28226">
        <ele>421</ele>
        <time>2022-06-12T06:10:53Z</time>
      </trkpt>
      <trkpt lat="45.94507" lon="1.28228">
        <ele>421</ele>
        <time>2022-06-12T06:11:00Z</time>
      </trkpt>
      <trkpt lat="45.94507" lon="1.28226">
        <ele>421</ele>
        <time>2022-06-12T06:11:01Z</time>
      </trkpt>
      <trkpt lat="45.94507" lon="1.28223">
        <ele>421</ele>
        <time>2022-06-12T06:11:03Z</time>
      </trkpt>
      <trkpt lat="45.94506" lon="1.28219">
        <ele>421.2</ele>
        <time>2022-06-12T06:11:06Z</time>
      </trkpt>
      <trkpt lat="45.94505" lon="1.28217">
        <ele>421.2</ele>
        <time>2022-06-12T06:11:08Z</time>
      </trkpt>
      <trkpt lat="45.94507" lon="1.28211">
        <ele>421.4</ele>
        <time>2022-06-12T06:11:11Z</time>
      </trkpt>
      <trkpt lat="45.94508" lon="1.2821">
        <ele>421.6</ele>
        <time>2022-06-12T06:11:12Z</time>
      </trkpt>
      <trkpt lat="45.94515" lon="1.28204">
        <ele>421.8</ele>
        <time>2022-06-12T06:11:17Z</time>
      </trkpt>
      <trkpt lat="45.94516" lon="1.28203">
        <ele>422</ele>
        <time>2022-06-12T06:11:18Z</time>
      </trkpt>
      <trkpt lat="45.94518" lon="1.28201">
        <ele>422.2</ele>
        <time>2022-06-12T06:11:20Z</time>
      </trkpt>
      <trkpt lat="45.94518" lon="1.28193">
        <ele>422.6</ele>
        <time>2022-06-12T06:11:23Z</time>
      </trkpt>
      <trkpt lat="45.9451" lon="1.28173">
        <ele>422.8</ele>
        <time>2022-06-12T06:11:28Z</time>
      </trkpt>
      <trkpt lat="45.94501" lon="1.28154">
        <ele>422.4</ele>
        <time>2022-06-12T06:11:32Z</time>
      </trkpt>
      <trkpt lat="45.94495" lon="1.28142">
        <ele>421.8</ele>
        <time>2022-06-12T06:11:34Z</time>
      </trkpt>
      <trkpt lat="45.94482" lon="1.28116">
        <ele>421</ele>
        <time>2022-06-12T06:11:37Z</time>
      </trkpt>
      <trkpt lat="45.94477" lon="1.28107">
        <ele>420</ele>
        <time>2022-06-12T06:11:38Z</time>
      </trkpt>
      <trkpt lat="45.94473" lon="1.28098">
        <ele>419.4</ele>
        <time>2022-06-12T06:11:39Z</time>
      </trkpt>
      <trkpt lat="45.94468" lon="1.28088">
        <ele>418.2</ele>
        <time>2022-06-12T06:11:40Z</time>
      </trkpt>
      <trkpt lat="45.94463" lon="1.28078">
        <ele>417.2</ele>
        <time>2022-06-12T06:11:41Z</time>
      </trkpt>
      <trkpt lat="45.94452" lon="1.28058">
        <ele>416</ele>
        <time>2022-06-12T06:11:43Z</time>
      </trkpt>
      <trkpt lat="45.94446" lon="1.28047">
        <ele>415</ele>
        <time>2022-06-12T06:11:44Z</time>
      </trkpt>
      <trkpt lat="45.9444" lon="1.28036">
        <ele>414.4</ele>
        <time>2022-06-12T06:11:45Z</time>
      </trkpt>
      <trkpt lat="45.94424" lon="1.28007">
        <ele>413.4</ele>
        <time>2022-06-12T06:11:48Z</time>
      </trkpt>
      <trkpt lat="45.9442" lon="1.27999">
        <ele>413</ele>
        <time>2022-06-12T06:11:49Z</time>
      </trkpt>
      <trkpt lat="45.94417" lon="1.27983">
        <ele>412</ele>
        <time>2022-06-12T06:11:51Z</time>
      </trkpt>
      <trkpt lat="45.94421" lon="1.27971">
        <ele>411.4</ele>
        <time>2022-06-12T06:11:53Z</time>
      </trkpt>
      <trkpt lat="45.94427" lon="1.27963">
        <ele>411.2</ele>
        <time>2022-06-12T06:11:55Z</time>
      </trkpt>
      <trkpt lat="45.94434" lon="1.27955">
        <ele>411.2</ele>
        <time>2022-06-12T06:11:57Z</time>
      </trkpt>
      <trkpt lat="45.94437" lon="1.27951">
        <ele>411</ele>
        <time>2022-06-12T06:11:58Z</time>
      </trkpt>
      <trkpt lat="45.94446" lon="1.27939">
        <ele>411.2</ele>
        <time>2022-06-12T06:12:01Z</time>
      </trkpt>
      <trkpt lat="45.94453" lon="1.27932">
        <ele>411.4</ele>
        <time>2022-06-12T06:12:03Z</time>
      </trkpt>
      <trkpt lat="45.94468" lon="1.2792">
        <ele>412</ele>
        <time>2022-06-12T06:12:07Z</time>
      </trkpt>
      <trkpt lat="45.94485" lon="1.27908">
        <ele>413.2</ele>
        <time>2022-06-12T06:12:12Z</time>
      </trkpt>
      <trkpt lat="45.94494" lon="1.27901">
        <ele>413.8</ele>
        <time>2022-06-12T06:12:15Z</time>
      </trkpt>
      <trkpt lat="45.94499" lon="1.27896">
        <ele>414.4</ele>
        <time>2022-06-12T06:12:17Z</time>
      </trkpt>
      <trkpt lat="45.94509" lon="1.27887">
        <ele>415.8</ele>
        <time>2022-06-12T06:12:21Z</time>
      </trkpt>
      <trkpt lat="45.94513" lon="1.27883">
        <ele>416.6</ele>
        <time>2022-06-12T06:12:23Z</time>
      </trkpt>
      <trkpt lat="45.94516" lon="1.27881">
        <ele>416.8</ele>
        <time>2022-06-12T06:12:24Z</time>
      </trkpt>
      <trkpt lat="45.94521" lon="1.27877">
        <ele>417.4</ele>
        <time>2022-06-12T06:12:26Z</time>
      </trkpt>
      <trkpt lat="45.94525" lon="1.27874">
        <ele>418</ele>
        <time>2022-06-12T06:12:28Z</time>
      </trkpt>
      <trkpt lat="45.9453" lon="1.27871">
        <ele>418.4</ele>
        <time>2022-06-12T06:12:30Z</time>
      </trkpt>
      <trkpt lat="45.94555" lon="1.27856">
        <ele>419</ele>
        <time>2022-06-12T06:12:37Z</time>
      </trkpt>
      <trkpt lat="45.94583" lon="1.27837">
        <ele>419.2</ele>
        <time>2022-06-12T06:12:44Z</time>
      </trkpt>
      <trkpt lat="45.94617" lon="1.27825">
        <ele>419.2</ele>
        <time>2022-06-12T06:12:51Z</time>
      </trkpt>
      <trkpt lat="45.94635" lon="1.27819">
        <ele>419</ele>
        <time>2022-06-12T06:12:55Z</time>
      </trkpt>
      <trkpt lat="45.94652" lon="1.27814">
        <ele>419</ele>
        <time>2022-06-12T06:12:58Z</time>
      </trkpt>
      <trkpt lat="45.94684" lon="1.27801">
        <ele>419.2</ele>
        <time>2022-06-12T06:13:05Z</time>
      </trkpt>
      <trkpt lat="45.947" lon="1.27792">
        <ele>420.4</ele>
        <time>2022-06-12T06:13:11Z</time>
      </trkpt>
      <trkpt lat="45.94708" lon="1.27789">
        <ele>421.4</ele>
        <time>2022-06-12T06:13:15Z</time>
      </trkpt>
      <trkpt lat="45.94714" lon="1.27786">
        <ele>422.4</ele>
        <time>2022-06-12T06:13:18Z</time>
      </trkpt>
      <trkpt lat="45.94721" lon="1.27783">
        <ele>423.4</ele>
        <time>2022-06-12T06:13:22Z</time>
      </trkpt>
      <trkpt lat="45.94726" lon="1.2778">
        <ele>424.6</ele>
        <time>2022-06-12T06:13:25Z</time>
      </trkpt>
      <trkpt lat="45.94729" lon="1.27779">
        <ele>425</ele>
        <time>2022-06-12T06:13:27Z</time>
      </trkpt>
      <trkpt lat="45.94732" lon="1.27777">
        <ele>425.8</ele>
        <time>2022-06-12T06:13:29Z</time>
      </trkpt>
      <trkpt lat="45.94738" lon="1.27774">
        <ele>426.8</ele>
        <time>2022-06-12T06:13:33Z</time>
      </trkpt>
      <trkpt lat="45.94741" lon="1.27772">
        <ele>427.2</ele>
        <time>2022-06-12T06:13:35Z</time>
      </trkpt>
      <trkpt lat="45.94744" lon="1.27771">
        <ele>428</ele>
        <time>2022-06-12T06:13:37Z</time>
      </trkpt>
      <trkpt lat="45.94747" lon="1.2777">
        <ele>429</ele>
        <time>2022-06-12T06:13:40Z</time>
      </trkpt>
      <trkpt lat="45.94749" lon="1.27769">
        <ele>429.2</ele>
        <time>2022-06-12T06:13:41Z</time>
      </trkpt>
      <trkpt lat="45.94753" lon="1.27767">
        <ele>430.2</ele>
        <time>2022-06-12T06:13:45Z</time>
      </trkpt>
      <trkpt lat="45.94757" lon="1.27765">
        <ele>431</ele>
        <time>2022-06-12T06:13:48Z</time>
      </trkpt>
      <trkpt lat="45.94758" lon="1.27764">
        <ele>431.4</ele>
        <time>2022-06-12T06:13:49Z</time>
      </trkpt>
      <trkpt lat="45.94762" lon="1.2776">
        <ele>432.4</ele>
        <time>2022-06-12T06:13:53Z</time>
      </trkpt>
      <trkpt lat="45.94763" lon="1.27756">
        <ele>433</ele>
        <time>2022-06-12T06:13:56Z</time>
      </trkpt>
      <trkpt lat="45.94764" lon="1.27753">
        <ele>433.4</ele>
        <time>2022-06-12T06:13:58Z</time>
      </trkpt>
      <trkpt lat="45.94765" lon="1.27746">
        <ele>434.4</ele>
        <time>2022-06-12T06:14:02Z</time>
      </trkpt>
      <trkpt lat="45.94766" lon="1.27744">
        <ele>435</ele>
        <time>2022-06-12T06:14:04Z</time>
      </trkpt>
      <trkpt lat="45.9477" lon="1.27733">
        <ele>435.4</ele>
        <time>2022-06-12T06:14:10Z</time>
      </trkpt>
      <trkpt lat="45.94772" lon="1.27732">
        <ele>435.6</ele>
        <time>2022-06-12T06:14:11Z</time>
      </trkpt>
      <trkpt lat="45.94782" lon="1.2772">
        <ele>436.4</ele>
        <time>2022-06-12T06:14:18Z</time>
      </trkpt>
      <trkpt lat="45.94784" lon="1.27717">
        <ele>436.8</ele>
        <time>2022-06-12T06:14:20Z</time>
      </trkpt>
      <trkpt lat="45.94789" lon="1.27711">
        <ele>437.6</ele>
        <time>2022-06-12T06:14:26Z</time>
      </trkpt>
      <trkpt lat="45.94792" lon="1.27708">
        <ele>437.8</ele>
        <time>2022-06-12T06:14:29Z</time>
      </trkpt>
      <trkpt lat="45.94796" lon="1.27703">
        <ele>438.8</ele>
        <time>2022-06-12T06:14:33Z</time>
      </trkpt>
      <trkpt lat="45.94798" lon="1.27701">
        <ele>439.2</ele>
        <time>2022-06-12T06:14:35Z</time>
      </trkpt>
      <trkpt lat="45.94804" lon="1.27694">
        <ele>440.2</ele>
        <time>2022-06-12T06:14:40Z</time>
      </trkpt>
      <trkpt lat="45.94805" lon="1.27693">
        <ele>440.4</ele>
        <time>2022-06-12T06:14:41Z</time>
      </trkpt>
      <trkpt lat="45.9481" lon="1.2769">
        <ele>441.6</ele>
        <time>2022-06-12T06:14:45Z</time>
      </trkpt>
      <trkpt lat="45.94813" lon="1.27688">
        <ele>442</ele>
        <time>2022-06-12T06:14:47Z</time>
      </trkpt>
      <trkpt lat="45.94818" lon="1.27685">
        <ele>442.6</ele>
        <time>2022-06-12T06:14:51Z</time>
      </trkpt>
      <trkpt lat="45.94822" lon="1.27681">
        <ele>443.4</ele>
        <time>2022-06-12T06:14:54Z</time>
      </trkpt>
      <trkpt lat="45.94824" lon="1.27679">
        <ele>443.6</ele>
        <time>2022-06-12T06:14:56Z</time>
      </trkpt>
      <trkpt lat="45.94832" lon="1.27673">
        <ele>444.2</ele>
        <time>2022-06-12T06:15:01Z</time>
      </trkpt>
      <trkpt lat="45.94838" lon="1.27667">
        <ele>444.8</ele>
        <time>2022-06-12T06:15:05Z</time>
      </trkpt>
      <trkpt lat="45.94846" lon="1.2766">
        <ele>445.2</ele>
        <time>2022-06-12T06:15:09Z</time>
      </trkpt>
      <trkpt lat="45.94857" lon="1.27645">
        <ele>445</ele>
        <time>2022-06-12T06:15:14Z</time>
      </trkpt>
      <trkpt lat="45.94872" lon="1.27623">
        <ele>444.8</ele>
        <time>2022-06-12T06:15:21Z</time>
      </trkpt>
      <trkpt lat="45.94887" lon="1.27603">
        <ele>445.4</ele>
        <time>2022-06-12T06:15:28Z</time>
      </trkpt>
      <trkpt lat="45.94889" lon="1.27601">
        <ele>445.4</ele>
        <time>2022-06-12T06:15:29Z</time>
      </trkpt>
      <trkpt lat="45.94893" lon="1.27594">
        <ele>445.8</ele>
        <time>2022-06-12T06:15:31Z</time>
      </trkpt>
      <trkpt lat="45.94901" lon="1.2758">
        <ele>446.2</ele>
        <time>2022-06-12T06:15:35Z</time>
      </trkpt>
      <trkpt lat="45.94909" lon="1.27567">
        <ele>446.8</ele>
        <time>2022-06-12T06:15:39Z</time>
      </trkpt>
      <trkpt lat="45.94913" lon="1.2756">
        <ele>447.4</ele>
        <time>2022-06-12T06:15:41Z</time>
      </trkpt>
      <trkpt lat="45.94924" lon="1.27536">
        <ele>448</ele>
        <time>2022-06-12T06:15:48Z</time>
      </trkpt>
      <trkpt lat="45.94936" lon="1.27515">
        <ele>448.8</ele>
        <time>2022-06-12T06:15:55Z</time>
      </trkpt>
      <trkpt lat="45.94937" lon="1.27512">
        <ele>449.2</ele>
        <time>2022-06-12T06:15:56Z</time>
      </trkpt>
      <trkpt lat="45.94939" lon="1.27494">
        <ele>450.2</ele>
        <time>2022-06-12T06:16:01Z</time>
      </trkpt>
      <trkpt lat="45.94938" lon="1.27489">
        <ele>450.4</ele>
        <time>2022-06-12T06:16:02Z</time>
      </trkpt>
      <trkpt lat="45.94932" lon="1.27462">
        <ele>450.2</ele>
        <time>2022-06-12T06:16:08Z</time>
      </trkpt>
      <trkpt lat="45.94925" lon="1.27423">
        <ele>451</ele>
        <time>2022-06-12T06:16:17Z</time>
      </trkpt>
      <trkpt lat="45.94924" lon="1.27412">
        <ele>451.2</ele>
        <time>2022-06-12T06:16:20Z</time>
      </trkpt>
      <trkpt lat="45.94921" lon="1.27403">
        <ele>451.4</ele>
        <time>2022-06-12T06:16:22Z</time>
      </trkpt>
      <trkpt lat="45.94906" lon="1.2738">
        <ele>451.6</ele>
        <time>2022-06-12T06:16:27Z</time>
      </trkpt>
      <trkpt lat="45.94885" lon="1.27349">
        <ele>450.2</ele>
        <time>2022-06-12T06:16:33Z</time>
      </trkpt>
      <trkpt lat="45.94869" lon="1.27327">
        <ele>449</ele>
        <time>2022-06-12T06:16:37Z</time>
      </trkpt>
      <trkpt lat="45.94856" lon="1.27312">
        <ele>448.2</ele>
        <time>2022-06-12T06:16:40Z</time>
      </trkpt>
      <trkpt lat="45.94842" lon="1.27295">
        <ele>448</ele>
        <time>2022-06-12T06:16:44Z</time>
      </trkpt>
      <trkpt lat="45.94838" lon="1.2729">
        <ele>448</ele>
        <time>2022-06-12T06:16:45Z</time>
      </trkpt>
      <trkpt lat="45.9483" lon="1.27279">
        <ele>448</ele>
        <time>2022-06-12T06:16:48Z</time>
      </trkpt>
      <trkpt lat="45.94827" lon="1.27271">
        <ele>447.8</ele>
        <time>2022-06-12T06:16:50Z</time>
      </trkpt>
      <trkpt lat="45.94826" lon="1.27267">
        <ele>447.8</ele>
        <time>2022-06-12T06:16:51Z</time>
      </trkpt>
      <trkpt lat="45.94823" lon="1.27259">
        <ele>447.8</ele>
        <time>2022-06-12T06:16:53Z</time>
      </trkpt>
      <trkpt lat="45.9482" lon="1.27251">
        <ele>448.2</ele>
        <time>2022-06-12T06:16:55Z</time>
      </trkpt>
      <trkpt lat="45.94812" lon="1.2723">
        <ele>448.8</ele>
        <time>2022-06-12T06:17:00Z</time>
      </trkpt>
      <trkpt lat="45.94811" lon="1.27225">
        <ele>448.6</ele>
        <time>2022-06-12T06:17:01Z</time>
      </trkpt>
      <trkpt lat="45.94809" lon="1.27215">
        <ele>448.4</ele>
        <time>2022-06-12T06:17:03Z</time>
      </trkpt>
      <trkpt lat="45.94805" lon="1.27201">
        <ele>448</ele>
        <time>2022-06-12T06:17:05Z</time>
      </trkpt>
      <trkpt lat="45.948" lon="1.27195">
        <ele>447.6</ele>
        <time>2022-06-12T06:17:06Z</time>
      </trkpt>
      <trkpt lat="45.94795" lon="1.27191">
        <ele>446.8</ele>
        <time>2022-06-12T06:17:07Z</time>
      </trkpt>
      <trkpt lat="45.94782" lon="1.27182">
        <ele>446</ele>
        <time>2022-06-12T06:17:09Z</time>
      </trkpt>
      <trkpt lat="45.94776" lon="1.27177">
        <ele>445.4</ele>
        <time>2022-06-12T06:17:10Z</time>
      </trkpt>
      <trkpt lat="45.9477" lon="1.27172">
        <ele>445.2</ele>
        <time>2022-06-12T06:17:11Z</time>
      </trkpt>
      <trkpt lat="45.94757" lon="1.27159">
        <ele>444.4</ele>
        <time>2022-06-12T06:17:13Z</time>
      </trkpt>
      <trkpt lat="45.9475" lon="1.27152">
        <ele>443.8</ele>
        <time>2022-06-12T06:17:14Z</time>
      </trkpt>
      <trkpt lat="45.94737" lon="1.27142">
        <ele>443.2</ele>
        <time>2022-06-12T06:17:16Z</time>
      </trkpt>
      <trkpt lat="45.94737" lon="1.27142">
        <ele>442.8</ele>
        <time>2022-06-12T06:17:17Z</time>
      </trkpt>
      <trkpt lat="45.94709" lon="1.27122">
        <ele>442.4</ele>
        <time>2022-06-12T06:17:20Z</time>
      </trkpt>
      <trkpt lat="45.94703" lon="1.27119">
        <ele>442.2</ele>
        <time>2022-06-12T06:17:21Z</time>
      </trkpt>
      <trkpt lat="45.94685" lon="1.27108">
        <ele>442</ele>
        <time>2022-06-12T06:17:24Z</time>
      </trkpt>
      <trkpt lat="45.94674" lon="1.27098">
        <ele>441.8</ele>
        <time>2022-06-12T06:17:26Z</time>
      </trkpt>
      <trkpt lat="45.94668" lon="1.27087">
        <ele>441.8</ele>
        <time>2022-06-12T06:17:28Z</time>
      </trkpt>
      <trkpt lat="45.94666" lon="1.27082">
        <ele>441.8</ele>
        <time>2022-06-12T06:17:29Z</time>
      </trkpt>
      <trkpt lat="45.94667" lon="1.27077">
        <ele>442</ele>
        <time>2022-06-12T06:17:30Z</time>
      </trkpt>
      <trkpt lat="45.9467" lon="1.27067">
        <ele>442.6</ele>
        <time>2022-06-12T06:17:33Z</time>
      </trkpt>
      <trkpt lat="45.94673" lon="1.27056">
        <ele>443.2</ele>
        <time>2022-06-12T06:17:36Z</time>
      </trkpt>
      <trkpt lat="45.94673" lon="1.27052">
        <ele>443.4</ele>
        <time>2022-06-12T06:17:37Z</time>
      </trkpt>
      <trkpt lat="45.94671" lon="1.27044">
        <ele>444.2</ele>
        <time>2022-06-12T06:17:39Z</time>
      </trkpt>
      <trkpt lat="45.9467" lon="1.27041">
        <ele>444.4</ele>
        <time>2022-06-12T06:17:40Z</time>
      </trkpt>
      <trkpt lat="45.94661" lon="1.27033">
        <ele>445.6</ele>
        <time>2022-06-12T06:17:43Z</time>
      </trkpt>
      <trkpt lat="45.94657" lon="1.27029">
        <ele>445.8</ele>
        <time>2022-06-12T06:17:44Z</time>
      </trkpt>
      <trkpt lat="45.94651" lon="1.2702">
        <ele>445.8</ele>
        <time>2022-06-12T06:17:46Z</time>
      </trkpt>
      <trkpt lat="45.94644" lon="1.27008">
        <ele>446</ele>
        <time>2022-06-12T06:17:49Z</time>
      </trkpt>
      <trkpt lat="45.9464" lon="1.27">
        <ele>445.8</ele>
        <time>2022-06-12T06:17:51Z</time>
      </trkpt>
      <trkpt lat="45.94627" lon="1.26982">
        <ele>444.8</ele>
        <time>2022-06-12T06:17:55Z</time>
      </trkpt>
      <trkpt lat="45.94615" lon="1.26967">
        <ele>444.4</ele>
        <time>2022-06-12T06:17:58Z</time>
      </trkpt>
      <trkpt lat="45.94606" lon="1.26955">
        <ele>443.4</ele>
        <time>2022-06-12T06:18:00Z</time>
      </trkpt>
      <trkpt lat="45.94601" lon="1.26949">
        <ele>442.4</ele>
        <time>2022-06-12T06:18:01Z</time>
      </trkpt>
      <trkpt lat="45.94596" lon="1.26944">
        <ele>441.8</ele>
        <time>2022-06-12T06:18:02Z</time>
      </trkpt>
      <trkpt lat="45.94584" lon="1.26935">
        <ele>440.4</ele>
        <time>2022-06-12T06:18:04Z</time>
      </trkpt>
      <trkpt lat="45.94573" lon="1.26926">
        <ele>439</ele>
        <time>2022-06-12T06:18:06Z</time>
      </trkpt>
      <trkpt lat="45.94568" lon="1.26919">
        <ele>438.6</ele>
        <time>2022-06-12T06:18:07Z</time>
      </trkpt>
      <trkpt lat="45.94559" lon="1.26905">
        <ele>438</ele>
        <time>2022-06-12T06:18:09Z</time>
      </trkpt>
      <trkpt lat="45.94557" lon="1.26898">
        <ele>436.8</ele>
        <time>2022-06-12T06:18:10Z</time>
      </trkpt>
      <trkpt lat="45.94555" lon="1.2689">
        <ele>436</ele>
        <time>2022-06-12T06:18:11Z</time>
      </trkpt>
      <trkpt lat="45.94552" lon="1.26884">
        <ele>435.4</ele>
        <time>2022-06-12T06:18:12Z</time>
      </trkpt>
      <trkpt lat="45.9455" lon="1.26876">
        <ele>434.4</ele>
        <time>2022-06-12T06:18:13Z</time>
      </trkpt>
      <trkpt lat="45.94549" lon="1.2687">
        <ele>433.8</ele>
        <time>2022-06-12T06:18:14Z</time>
      </trkpt>
      <trkpt lat="45.94544" lon="1.26857">
        <ele>433</ele>
        <time>2022-06-12T06:18:16Z</time>
      </trkpt>
      <trkpt lat="45.9454" lon="1.26843">
        <ele>432.6</ele>
        <time>2022-06-12T06:18:18Z</time>
      </trkpt>
      <trkpt lat="45.94538" lon="1.26837">
        <ele>432.6</ele>
        <time>2022-06-12T06:18:19Z</time>
      </trkpt>
      <trkpt lat="45.94533" lon="1.26816">
        <ele>432.4</ele>
        <time>2022-06-12T06:18:22Z</time>
      </trkpt>
      <trkpt lat="45.94529" lon="1.26801">
        <ele>432.2</ele>
        <time>2022-06-12T06:18:24Z</time>
      </trkpt>
      <trkpt lat="45.94524" lon="1.26787">
        <ele>432.2</ele>
        <time>2022-06-12T06:18:26Z</time>
      </trkpt>
      <trkpt lat="45.94516" lon="1.2676">
        <ele>432.2</ele>
        <time>2022-06-12T06:18:29Z</time>
      </trkpt>
      <trkpt lat="45.94509" lon="1.26739">
        <ele>434</ele>
        <time>2022-06-12T06:18:32Z</time>
      </trkpt>
      <trkpt lat="45.94504" lon="1.2672">
        <ele>434.6</ele>
        <time>2022-06-12T06:18:35Z</time>
      </trkpt>
      <trkpt lat="45.94501" lon="1.26705">
        <ele>435.2</ele>
        <time>2022-06-12T06:18:38Z</time>
      </trkpt>
      <trkpt lat="45.94498" lon="1.26687">
        <ele>436</ele>
        <time>2022-06-12T06:18:41Z</time>
      </trkpt>
      <trkpt lat="45.94497" lon="1.26683">
        <ele>436.6</ele>
        <time>2022-06-12T06:18:42Z</time>
      </trkpt>
      <trkpt lat="45.94496" lon="1.26674">
        <ele>437.8</ele>
        <time>2022-06-12T06:18:44Z</time>
      </trkpt>
      <trkpt lat="45.94493" lon="1.26659">
        <ele>438.4</ele>
        <time>2022-06-12T06:18:47Z</time>
      </trkpt>
      <trkpt lat="45.94489" lon="1.26644">
        <ele>438.8</ele>
        <time>2022-06-12T06:18:50Z</time>
      </trkpt>
      <trkpt lat="45.94485" lon="1.26627">
        <ele>439.2</ele>
        <time>2022-06-12T06:18:54Z</time>
      </trkpt>
      <trkpt lat="45.94475" lon="1.26591">
        <ele>439.8</ele>
        <time>2022-06-12T06:19:01Z</time>
      </trkpt>
      <trkpt lat="45.94473" lon="1.26586">
        <ele>439.8</ele>
        <time>2022-06-12T06:19:02Z</time>
      </trkpt>
      <trkpt lat="45.94466" lon="1.26553">
        <ele>439</ele>
        <time>2022-06-12T06:19:09Z</time>
      </trkpt>
      <trkpt lat="45.9446" lon="1.26531">
        <ele>438.8</ele>
        <time>2022-06-12T06:19:14Z</time>
      </trkpt>
      <trkpt lat="45.94459" lon="1.26519">
        <ele>438.8</ele>
        <time>2022-06-12T06:19:16Z</time>
      </trkpt>
      <trkpt lat="45.94457" lon="1.26508">
        <ele>439</ele>
        <time>2022-06-12T06:19:18Z</time>
      </trkpt>
      <trkpt lat="45.94456" lon="1.26503">
        <ele>439.2</ele>
        <time>2022-06-12T06:19:19Z</time>
      </trkpt>
      <trkpt lat="45.94456" lon="1.26498">
        <ele>439.2</ele>
        <time>2022-06-12T06:19:20Z</time>
      </trkpt>
      <trkpt lat="45.94454" lon="1.26478">
        <ele>439.4</ele>
        <time>2022-06-12T06:19:24Z</time>
      </trkpt>
      <trkpt lat="45.94451" lon="1.26458">
        <ele>440.8</ele>
        <time>2022-06-12T06:19:29Z</time>
      </trkpt>
      <trkpt lat="45.9445" lon="1.26455">
        <ele>441</ele>
        <time>2022-06-12T06:19:30Z</time>
      </trkpt>
      <trkpt lat="45.94446" lon="1.26422">
        <ele>442</ele>
        <time>2022-06-12T06:19:36Z</time>
      </trkpt>
      <trkpt lat="45.94443" lon="1.26395">
        <ele>442</ele>
        <time>2022-06-12T06:19:41Z</time>
      </trkpt>
      <trkpt lat="45.94441" lon="1.26375">
        <ele>441.4</ele>
        <time>2022-06-12T06:19:45Z</time>
      </trkpt>
      <trkpt lat="45.9444" lon="1.26371">
        <ele>440.8</ele>
        <time>2022-06-12T06:19:46Z</time>
      </trkpt>
      <trkpt lat="45.94438" lon="1.26367">
        <ele>440</ele>
        <time>2022-06-12T06:19:47Z</time>
      </trkpt>
      <trkpt lat="45.94436" lon="1.26363">
        <ele>439.2</ele>
        <time>2022-06-12T06:19:48Z</time>
      </trkpt>
      <trkpt lat="45.94432" lon="1.26358">
        <ele>438.8</ele>
        <time>2022-06-12T06:19:49Z</time>
      </trkpt>
      <trkpt lat="45.94423" lon="1.26349">
        <ele>438</ele>
        <time>2022-06-12T06:19:51Z</time>
      </trkpt>
      <trkpt lat="45.94402" lon="1.26331">
        <ele>437</ele>
        <time>2022-06-12T06:19:55Z</time>
      </trkpt>
      <trkpt lat="45.94398" lon="1.26326">
        <ele>436.8</ele>
        <time>2022-06-12T06:19:56Z</time>
      </trkpt>
      <trkpt lat="45.94379" lon="1.26301">
        <ele>436</ele>
        <time>2022-06-12T06:20:01Z</time>
      </trkpt>
      <trkpt lat="45.94377" lon="1.26295">
        <ele>436.2</ele>
        <time>2022-06-12T06:20:02Z</time>
      </trkpt>
      <trkpt lat="45.94373" lon="1.26285">
        <ele>436.2</ele>
        <time>2022-06-12T06:20:04Z</time>
      </trkpt>
      <trkpt lat="45.94372" lon="1.26279">
        <ele>436.2</ele>
        <time>2022-06-12T06:20:05Z</time>
      </trkpt>
      <trkpt lat="45.9437" lon="1.26273">
        <ele>436.4</ele>
        <time>2022-06-12T06:20:06Z</time>
      </trkpt>
      <trkpt lat="45.94368" lon="1.26261">
        <ele>436.4</ele>
        <time>2022-06-12T06:20:08Z</time>
      </trkpt>
      <trkpt lat="45.94367" lon="1.26255">
        <ele>436.4</ele>
        <time>2022-06-12T06:20:09Z</time>
      </trkpt>
      <trkpt lat="45.94365" lon="1.2625">
        <ele>436.2</ele>
        <time>2022-06-12T06:20:10Z</time>
      </trkpt>
      <trkpt lat="45.94363" lon="1.26243">
        <ele>435.8</ele>
        <time>2022-06-12T06:20:11Z</time>
      </trkpt>
      <trkpt lat="45.94363" lon="1.26237">
        <ele>435.4</ele>
        <time>2022-06-12T06:20:12Z</time>
      </trkpt>
      <trkpt lat="45.9436" lon="1.26216">
        <ele>434.8</ele>
        <time>2022-06-12T06:20:15Z</time>
      </trkpt>
      <trkpt lat="45.94358" lon="1.2621">
        <ele>434.4</ele>
        <time>2022-06-12T06:20:16Z</time>
      </trkpt>
      <trkpt lat="45.94354" lon="1.26195">
        <ele>433.6</ele>
        <time>2022-06-12T06:20:18Z</time>
      </trkpt>
      <trkpt lat="45.94351" lon="1.2618">
        <ele>433.4</ele>
        <time>2022-06-12T06:20:20Z</time>
      </trkpt>
      <trkpt lat="45.94345" lon="1.26154">
        <ele>432.6</ele>
        <time>2022-06-12T06:20:24Z</time>
      </trkpt>
      <trkpt lat="45.94344" lon="1.26149">
        <ele>432.6</ele>
        <time>2022-06-12T06:20:25Z</time>
      </trkpt>
      <trkpt lat="45.94342" lon="1.26145">
        <ele>432.4</ele>
        <time>2022-06-12T06:20:26Z</time>
      </trkpt>
      <trkpt lat="45.9434" lon="1.26136">
        <ele>432</ele>
        <time>2022-06-12T06:20:28Z</time>
      </trkpt>
      <trkpt lat="45.94342" lon="1.26123">
        <ele>431.4</ele>
        <time>2022-06-12T06:20:30Z</time>
      </trkpt>
      <trkpt lat="45.94343" lon="1.26119">
        <ele>431</ele>
        <time>2022-06-12T06:20:31Z</time>
      </trkpt>
      <trkpt lat="45.94351" lon="1.26082">
        <ele>431</ele>
        <time>2022-06-12T06:20:34Z</time>
      </trkpt>
      <trkpt lat="45.94353" lon="1.26074">
        <ele>431</ele>
        <time>2022-06-12T06:20:35Z</time>
      </trkpt>
      <trkpt lat="45.94358" lon="1.26034">
        <ele>431</ele>
        <time>2022-06-12T06:20:39Z</time>
      </trkpt>
      <trkpt lat="45.94357" lon="1.26021">
        <ele>431</ele>
        <time>2022-06-12T06:20:41Z</time>
      </trkpt>
      <trkpt lat="45.94356" lon="1.26012">
        <ele>431</ele>
        <time>2022-06-12T06:20:43Z</time>
      </trkpt>
      <trkpt lat="45.94354" lon="1.2601">
        <ele>431</ele>
        <time>2022-06-12T06:20:44Z</time>
      </trkpt>
      <trkpt lat="45.94351" lon="1.26007">
        <ele>431.4</ele>
        <time>2022-06-12T06:20:45Z</time>
      </trkpt>
      <trkpt lat="45.94343" lon="1.26003">
        <ele>432</ele>
        <time>2022-06-12T06:20:49Z</time>
      </trkpt>
      <trkpt lat="45.94341" lon="1.26003">
        <ele>432.6</ele>
        <time>2022-06-12T06:20:50Z</time>
      </trkpt>
      <trkpt lat="45.94331" lon="1.26002">
        <ele>433.2</ele>
        <time>2022-06-12T06:20:54Z</time>
      </trkpt>
      <trkpt lat="45.94324" lon="1.26001">
        <ele>433.8</ele>
        <time>2022-06-12T06:20:57Z</time>
      </trkpt>
      <trkpt lat="45.94317" lon="1.26">
        <ele>435.4</ele>
        <time>2022-06-12T06:21:01Z</time>
      </trkpt>
      <trkpt lat="45.94312" lon="1.25999">
        <ele>436.8</ele>
        <time>2022-06-12T06:21:04Z</time>
      </trkpt>
      <trkpt lat="45.94311" lon="1.25998">
        <ele>437</ele>
        <time>2022-06-12T06:21:05Z</time>
      </trkpt>
      <trkpt lat="45.94307" lon="1.25996">
        <ele>437.8</ele>
        <time>2022-06-12T06:21:08Z</time>
      </trkpt>
      <trkpt lat="45.943" lon="1.25995">
        <ele>439</ele>
        <time>2022-06-12T06:21:13Z</time>
      </trkpt>
      <trkpt lat="45.94296" lon="1.25994">
        <ele>439.8</ele>
        <time>2022-06-12T06:21:16Z</time>
      </trkpt>
      <trkpt lat="45.94294" lon="1.25994">
        <ele>440</ele>
        <time>2022-06-12T06:21:18Z</time>
      </trkpt>
      <trkpt lat="45.94292" lon="1.25994">
        <ele>440.4</ele>
        <time>2022-06-12T06:21:19Z</time>
      </trkpt>
      <trkpt lat="45.94287" lon="1.25996">
        <ele>441.4</ele>
        <time>2022-06-12T06:21:23Z</time>
      </trkpt>
      <trkpt lat="45.9428" lon="1.25997">
        <ele>442.6</ele>
        <time>2022-06-12T06:21:28Z</time>
      </trkpt>
      <trkpt lat="45.94276" lon="1.25998">
        <ele>443.2</ele>
        <time>2022-06-12T06:21:31Z</time>
      </trkpt>
      <trkpt lat="45.94273" lon="1.25998">
        <ele>443.8</ele>
        <time>2022-06-12T06:21:33Z</time>
      </trkpt>
      <trkpt lat="45.94266" lon="1.25999">
        <ele>445</ele>
        <time>2022-06-12T06:21:37Z</time>
      </trkpt>
      <trkpt lat="45.94261" lon="1.26">
        <ele>445.6</ele>
        <time>2022-06-12T06:21:40Z</time>
      </trkpt>
      <trkpt lat="45.9426" lon="1.25999">
        <ele>446.2</ele>
        <time>2022-06-12T06:21:41Z</time>
      </trkpt>
      <trkpt lat="45.94257" lon="1.25996">
        <ele>447.2</ele>
        <time>2022-06-12T06:21:45Z</time>
      </trkpt>
      <trkpt lat="45.94252" lon="1.25994">
        <ele>448.6</ele>
        <time>2022-06-12T06:21:49Z</time>
      </trkpt>
      <trkpt lat="45.94251" lon="1.25994">
        <ele>448.8</ele>
        <time>2022-06-12T06:21:50Z</time>
      </trkpt>
      <trkpt lat="45.94244" lon="1.25993">
        <ele>449.8</ele>
        <time>2022-06-12T06:21:56Z</time>
      </trkpt>
      <trkpt lat="45.94238" lon="1.25993">
        <ele>450.8</ele>
        <time>2022-06-12T06:22:01Z</time>
      </trkpt>
      <trkpt lat="45.94236" lon="1.25994">
        <ele>451</ele>
        <time>2022-06-12T06:22:03Z</time>
      </trkpt>
      <trkpt lat="45.94231" lon="1.25992">
        <ele>452</ele>
        <time>2022-06-12T06:22:07Z</time>
      </trkpt>
      <trkpt lat="45.94225" lon="1.2599">
        <ele>453</ele>
        <time>2022-06-12T06:22:13Z</time>
      </trkpt>
      <trkpt lat="45.94221" lon="1.25989">
        <ele>454.2</ele>
        <time>2022-06-12T06:22:16Z</time>
      </trkpt>
      <trkpt lat="45.9422" lon="1.25989">
        <ele>454.4</ele>
        <time>2022-06-12T06:22:17Z</time>
      </trkpt>
      <trkpt lat="45.94215" lon="1.2599">
        <ele>455.2</ele>
        <time>2022-06-12T06:22:21Z</time>
      </trkpt>
      <trkpt lat="45.9421" lon="1.25995">
        <ele>456.4</ele>
        <time>2022-06-12T06:22:27Z</time>
      </trkpt>
      <trkpt lat="45.94208" lon="1.25996">
        <ele>456.6</ele>
        <time>2022-06-12T06:22:29Z</time>
      </trkpt>
      <trkpt lat="45.94207" lon="1.26">
        <ele>457.2</ele>
        <time>2022-06-12T06:22:33Z</time>
      </trkpt>
      <trkpt lat="45.94207" lon="1.26">
        <ele>457.4</ele>
        <time>2022-06-12T06:22:34Z</time>
      </trkpt>
      <trkpt lat="45.94204" lon="1.26004">
        <ele>457.8</ele>
        <time>2022-06-12T06:22:37Z</time>
      </trkpt>
      <trkpt lat="45.94203" lon="1.26006">
        <ele>458.4</ele>
        <time>2022-06-12T06:22:39Z</time>
      </trkpt>
      <trkpt lat="45.94202" lon="1.26007">
        <ele>458.6</ele>
        <time>2022-06-12T06:22:40Z</time>
      </trkpt>
      <trkpt lat="45.942" lon="1.26009">
        <ele>459.6</ele>
        <time>2022-06-12T06:22:44Z</time>
      </trkpt>
      <trkpt lat="45.94195" lon="1.26011">
        <ele>460.8</ele>
        <time>2022-06-12T06:22:50Z</time>
      </trkpt>
      <trkpt lat="45.94194" lon="1.26011">
        <ele>461</ele>
        <time>2022-06-12T06:22:51Z</time>
      </trkpt>
      <trkpt lat="45.94192" lon="1.26012">
        <ele>461.8</ele>
        <time>2022-06-12T06:22:55Z</time>
      </trkpt>
      <trkpt lat="45.94191" lon="1.26012">
        <ele>461.8</ele>
        <time>2022-06-12T06:22:56Z</time>
      </trkpt>
      <trkpt lat="45.94188" lon="1.26012">
        <ele>462</ele>
        <time>2022-06-12T06:22:59Z</time>
      </trkpt>
      <trkpt lat="45.94189" lon="1.26012">
        <ele>462.4</ele>
        <time>2022-06-12T06:23:03Z</time>
      </trkpt>
      <trkpt lat="45.94186" lon="1.26011">
        <ele>462.6</ele>
        <time>2022-06-12T06:23:08Z</time>
      </trkpt>
      <trkpt lat="45.94186" lon="1.26011">
        <ele>462.8</ele>
        <time>2022-06-12T06:23:09Z</time>
      </trkpt>
      <trkpt lat="45.94184" lon="1.26009">
        <ele>462.8</ele>
        <time>2022-06-12T06:23:11Z</time>
      </trkpt>
      <trkpt lat="45.94181" lon="1.26005">
        <ele>463.2</ele>
        <time>2022-06-12T06:23:14Z</time>
      </trkpt>
      <trkpt lat="45.94179" lon="1.25999">
        <ele>464</ele>
        <time>2022-06-12T06:23:18Z</time>
      </trkpt>
      <trkpt lat="45.94178" lon="1.25989">
        <ele>464.6</ele>
        <time>2022-06-12T06:23:24Z</time>
      </trkpt>
      <trkpt lat="45.9418" lon="1.25981">
        <ele>465</ele>
        <time>2022-06-12T06:23:28Z</time>
      </trkpt>
      <trkpt lat="45.94179" lon="1.25969">
        <ele>465.6</ele>
        <time>2022-06-12T06:23:32Z</time>
      </trkpt>
      <trkpt lat="45.94176" lon="1.25961">
        <ele>466</ele>
        <time>2022-06-12T06:23:35Z</time>
      </trkpt>
      <trkpt lat="45.94171" lon="1.2595">
        <ele>466.6</ele>
        <time>2022-06-12T06:23:38Z</time>
      </trkpt>
      <trkpt lat="45.94165" lon="1.25943">
        <ele>467</ele>
        <time>2022-06-12T06:23:41Z</time>
      </trkpt>
      <trkpt lat="45.94156" lon="1.25938">
        <ele>467.4</ele>
        <time>2022-06-12T06:23:45Z</time>
      </trkpt>
      <trkpt lat="45.94144" lon="1.25935">
        <ele>468</ele>
        <time>2022-06-12T06:23:51Z</time>
      </trkpt>
      <trkpt lat="45.9414" lon="1.2593">
        <ele>468.2</ele>
        <time>2022-06-12T06:23:54Z</time>
      </trkpt>
      <trkpt lat="45.94138" lon="1.25923">
        <ele>468.6</ele>
        <time>2022-06-12T06:23:57Z</time>
      </trkpt>
      <trkpt lat="45.94137" lon="1.25921">
        <ele>468.6</ele>
        <time>2022-06-12T06:23:58Z</time>
      </trkpt>
      <trkpt lat="45.9413" lon="1.25911">
        <ele>468.6</ele>
        <time>2022-06-12T06:24:02Z</time>
      </trkpt>
      <trkpt lat="45.94115" lon="1.25894">
        <ele>469</ele>
        <time>2022-06-12T06:24:08Z</time>
      </trkpt>
      <trkpt lat="45.94088" lon="1.25868">
        <ele>468.4</ele>
        <time>2022-06-12T06:24:15Z</time>
      </trkpt>
      <trkpt lat="45.94058" lon="1.2584">
        <ele>467.2</ele>
        <time>2022-06-12T06:24:21Z</time>
      </trkpt>
      <trkpt lat="45.94053" lon="1.25833">
        <ele>467</ele>
        <time>2022-06-12T06:24:22Z</time>
      </trkpt>
      <trkpt lat="45.94041" lon="1.25812">
        <ele>465.6</ele>
        <time>2022-06-12T06:24:25Z</time>
      </trkpt>
      <trkpt lat="45.94036" lon="1.25805">
        <ele>465.2</ele>
        <time>2022-06-12T06:24:26Z</time>
      </trkpt>
      <trkpt lat="45.94023" lon="1.25786">
        <ele>464.2</ele>
        <time>2022-06-12T06:24:29Z</time>
      </trkpt>
      <trkpt lat="45.94014" lon="1.25775">
        <ele>463.8</ele>
        <time>2022-06-12T06:24:31Z</time>
      </trkpt>
      <trkpt lat="45.93992" lon="1.25747">
        <ele>463.2</ele>
        <time>2022-06-12T06:24:36Z</time>
      </trkpt>
      <trkpt lat="45.93988" lon="1.25741">
        <ele>463.2</ele>
        <time>2022-06-12T06:24:37Z</time>
      </trkpt>
      <trkpt lat="45.93957" lon="1.2571">
        <ele>463.8</ele>
        <time>2022-06-12T06:24:44Z</time>
      </trkpt>
      <trkpt lat="45.93922" lon="1.25677">
        <ele>463</ele>
        <time>2022-06-12T06:24:51Z</time>
      </trkpt>
      <trkpt lat="45.93912" lon="1.25665">
        <ele>461.8</ele>
        <time>2022-06-12T06:24:53Z</time>
      </trkpt>
      <trkpt lat="45.93902" lon="1.25654">
        <ele>460</ele>
        <time>2022-06-12T06:24:55Z</time>
      </trkpt>
      <trkpt lat="45.93896" lon="1.25649">
        <ele>459.2</ele>
        <time>2022-06-12T06:24:56Z</time>
      </trkpt>
      <trkpt lat="45.93891" lon="1.25644">
        <ele>458.6</ele>
        <time>2022-06-12T06:24:57Z</time>
      </trkpt>
      <trkpt lat="45.93879" lon="1.25632">
        <ele>457.4</ele>
        <time>2022-06-12T06:24:59Z</time>
      </trkpt>
      <trkpt lat="45.93873" lon="1.25625">
        <ele>456.8</ele>
        <time>2022-06-12T06:25:00Z</time>
      </trkpt>
      <trkpt lat="45.93868" lon="1.25618">
        <ele>456.4</ele>
        <time>2022-06-12T06:25:01Z</time>
      </trkpt>
      <trkpt lat="45.93862" lon="1.2561">
        <ele>455.4</ele>
        <time>2022-06-12T06:25:02Z</time>
      </trkpt>
      <trkpt lat="45.9385" lon="1.25597">
        <ele>454.2</ele>
        <time>2022-06-12T06:25:04Z</time>
      </trkpt>
      <trkpt lat="45.93838" lon="1.25583">
        <ele>453</ele>
        <time>2022-06-12T06:25:06Z</time>
      </trkpt>
      <trkpt lat="45.9383" lon="1.25574">
        <ele>452.6</ele>
        <time>2022-06-12T06:25:08Z</time>
      </trkpt>
      <trkpt lat="45.93826" lon="1.25571">
        <ele>452.4</ele>
        <time>2022-06-12T06:25:09Z</time>
      </trkpt>
      <trkpt lat="45.93803" lon="1.25553">
        <ele>451.8</ele>
        <time>2022-06-12T06:25:14Z</time>
      </trkpt>
      <trkpt lat="45.93798" lon="1.25549">
        <ele>451.4</ele>
        <time>2022-06-12T06:25:15Z</time>
      </trkpt>
      <trkpt lat="45.93788" lon="1.25542">
        <ele>450.6</ele>
        <time>2022-06-12T06:25:17Z</time>
      </trkpt>
      <trkpt lat="45.93777" lon="1.25535">
        <ele>449.2</ele>
        <time>2022-06-12T06:25:19Z</time>
      </trkpt>
      <trkpt lat="45.93771" lon="1.25528">
        <ele>448.4</ele>
        <time>2022-06-12T06:25:20Z</time>
      </trkpt>
      <trkpt lat="45.93766" lon="1.25522">
        <ele>447.8</ele>
        <time>2022-06-12T06:25:21Z</time>
      </trkpt>
      <trkpt lat="45.93754" lon="1.25508">
        <ele>446.2</ele>
        <time>2022-06-12T06:25:23Z</time>
      </trkpt>
      <trkpt lat="45.93746" lon="1.2549">
        <ele>444</ele>
        <time>2022-06-12T06:25:25Z</time>
      </trkpt>
      <trkpt lat="45.93739" lon="1.25476">
        <ele>442.6</ele>
        <time>2022-06-12T06:25:27Z</time>
      </trkpt>
      <trkpt lat="45.93735" lon="1.25468">
        <ele>441.4</ele>
        <time>2022-06-12T06:25:28Z</time>
      </trkpt>
      <trkpt lat="45.93731" lon="1.2546">
        <ele>440.8</ele>
        <time>2022-06-12T06:25:29Z</time>
      </trkpt>
      <trkpt lat="45.93727" lon="1.25451">
        <ele>440</ele>
        <time>2022-06-12T06:25:30Z</time>
      </trkpt>
      <trkpt lat="45.9372" lon="1.25434">
        <ele>439.2</ele>
        <time>2022-06-12T06:25:32Z</time>
      </trkpt>
      <trkpt lat="45.93717" lon="1.25426">
        <ele>437.8</ele>
        <time>2022-06-12T06:25:33Z</time>
      </trkpt>
      <trkpt lat="45.93713" lon="1.25411">
        <ele>437.2</ele>
        <time>2022-06-12T06:25:35Z</time>
      </trkpt>
      <trkpt lat="45.93712" lon="1.25403">
        <ele>436.8</ele>
        <time>2022-06-12T06:25:36Z</time>
      </trkpt>
      <trkpt lat="45.93709" lon="1.25386">
        <ele>435</ele>
        <time>2022-06-12T06:25:38Z</time>
      </trkpt>
      <trkpt lat="45.93707" lon="1.25376">
        <ele>433.6</ele>
        <time>2022-06-12T06:25:39Z</time>
      </trkpt>
      <trkpt lat="45.93706" lon="1.25367">
        <ele>432.8</ele>
        <time>2022-06-12T06:25:40Z</time>
      </trkpt>
      <trkpt lat="45.93705" lon="1.25357">
        <ele>431.8</ele>
        <time>2022-06-12T06:25:41Z</time>
      </trkpt>
      <trkpt lat="45.93701" lon="1.25338">
        <ele>430.6</ele>
        <time>2022-06-12T06:25:43Z</time>
      </trkpt>
      <trkpt lat="45.93699" lon="1.25315">
        <ele>428</ele>
        <time>2022-06-12T06:25:45Z</time>
      </trkpt>
      <trkpt lat="45.93697" lon="1.25302">
        <ele>426.8</ele>
        <time>2022-06-12T06:25:46Z</time>
      </trkpt>
      <trkpt lat="45.93693" lon="1.2528">
        <ele>425.2</ele>
        <time>2022-06-12T06:25:48Z</time>
      </trkpt>
      <trkpt lat="45.93689" lon="1.25263">
        <ele>423.6</ele>
        <time>2022-06-12T06:25:50Z</time>
      </trkpt>
      <trkpt lat="45.93684" lon="1.25247">
        <ele>422.4</ele>
        <time>2022-06-12T06:25:52Z</time>
      </trkpt>
      <trkpt lat="45.9368" lon="1.25235">
        <ele>421.2</ele>
        <time>2022-06-12T06:25:54Z</time>
      </trkpt>
      <trkpt lat="45.93677" lon="1.25226">
        <ele>420</ele>
        <time>2022-06-12T06:25:56Z</time>
      </trkpt>
      <trkpt lat="45.93674" lon="1.25221">
        <ele>419</ele>
        <time>2022-06-12T06:25:58Z</time>
      </trkpt>
      <trkpt lat="45.93672" lon="1.25219">
        <ele>418.8</ele>
        <time>2022-06-12T06:25:59Z</time>
      </trkpt>
      <trkpt lat="45.9367" lon="1.25219">
        <ele>418.6</ele>
        <time>2022-06-12T06:26:00Z</time>
      </trkpt>
      <trkpt lat="45.93668" lon="1.25223">
        <ele>418.2</ele>
        <time>2022-06-12T06:26:02Z</time>
      </trkpt>
      <trkpt lat="45.93676" lon="1.25228">
        <ele>418.2</ele>
        <time>2022-06-12T06:26:06Z</time>
      </trkpt>
      <trkpt lat="45.93682" lon="1.25235">
        <ele>418.8</ele>
        <time>2022-06-12T06:26:09Z</time>
      </trkpt>
      <trkpt lat="45.93683" lon="1.25243">
        <ele>419.6</ele>
        <time>2022-06-12T06:26:11Z</time>
      </trkpt>
      <trkpt lat="45.93684" lon="1.25252">
        <ele>420.2</ele>
        <time>2022-06-12T06:26:13Z</time>
      </trkpt>
      <trkpt lat="45.9369" lon="1.25267">
        <ele>421.4</ele>
        <time>2022-06-12T06:26:17Z</time>
      </trkpt>
      <trkpt lat="45.93691" lon="1.25271">
        <ele>421.6</ele>
        <time>2022-06-12T06:26:18Z</time>
      </trkpt>
      <trkpt lat="45.93696" lon="1.25286">
        <ele>422.6</ele>
        <time>2022-06-12T06:26:22Z</time>
      </trkpt>
      <trkpt lat="45.93699" lon="1.253">
        <ele>423.2</ele>
        <time>2022-06-12T06:26:26Z</time>
      </trkpt>
      <trkpt lat="45.937" lon="1.25306">
        <ele>424</ele>
        <time>2022-06-12T06:26:28Z</time>
      </trkpt>
      <trkpt lat="45.937" lon="1.25315">
        <ele>425.2</ele>
        <time>2022-06-12T06:26:32Z</time>
      </trkpt>
      <trkpt lat="45.937" lon="1.25317">
        <ele>425.4</ele>
        <time>2022-06-12T06:26:33Z</time>
      </trkpt>
      <trkpt lat="45.93701" lon="1.2532">
        <ele>425.8</ele>
        <time>2022-06-12T06:26:35Z</time>
      </trkpt>
      <trkpt lat="45.93704" lon="1.25325">
        <ele>426.6</ele>
        <time>2022-06-12T06:26:38Z</time>
      </trkpt>
      <trkpt lat="45.93704" lon="1.25327">
        <ele>426.8</ele>
        <time>2022-06-12T06:26:39Z</time>
      </trkpt>
      <trkpt lat="45.93705" lon="1.25333">
        <ele>427.6</ele>
        <time>2022-06-12T06:26:42Z</time>
      </trkpt>
      <trkpt lat="45.93706" lon="1.25339">
        <ele>428.4</ele>
        <time>2022-06-12T06:26:45Z</time>
      </trkpt>
      <trkpt lat="45.93707" lon="1.25343">
        <ele>428.8</ele>
        <time>2022-06-12T06:26:47Z</time>
      </trkpt>
      <trkpt lat="45.93709" lon="1.25354">
        <ele>430</ele>
        <time>2022-06-12T06:26:52Z</time>
      </trkpt>
      <trkpt lat="45.93712" lon="1.25365">
        <ele>431</ele>
        <time>2022-06-12T06:26:57Z</time>
      </trkpt>
      <trkpt lat="45.93713" lon="1.25376">
        <ele>432</ele>
        <time>2022-06-12T06:27:01Z</time>
      </trkpt>
      <trkpt lat="45.93713" lon="1.25379">
        <ele>432.4</ele>
        <time>2022-06-12T06:27:02Z</time>
      </trkpt>
      <trkpt lat="45.93713" lon="1.25387">
        <ele>433.2</ele>
        <time>2022-06-12T06:27:05Z</time>
      </trkpt>
      <trkpt lat="45.93712" lon="1.2539">
        <ele>433.4</ele>
        <time>2022-06-12T06:27:06Z</time>
      </trkpt>
      <trkpt lat="45.93713" lon="1.25397">
        <ele>433.8</ele>
        <time>2022-06-12T06:27:08Z</time>
      </trkpt>
      <trkpt lat="45.93716" lon="1.25412">
        <ele>434.6</ele>
        <time>2022-06-12T06:27:14Z</time>
      </trkpt>
      <trkpt lat="45.93718" lon="1.25419">
        <ele>435</ele>
        <time>2022-06-12T06:27:17Z</time>
      </trkpt>
      <trkpt lat="45.93724" lon="1.25431">
        <ele>435.6</ele>
        <time>2022-06-12T06:27:22Z</time>
      </trkpt>
      <trkpt lat="45.93727" lon="1.25437">
        <ele>436.4</ele>
        <time>2022-06-12T06:27:25Z</time>
      </trkpt>
      <trkpt lat="45.93728" lon="1.25441">
        <ele>436.8</ele>
        <time>2022-06-12T06:27:27Z</time>
      </trkpt>
      <trkpt lat="45.93731" lon="1.25449">
        <ele>437.4</ele>
        <time>2022-06-12T06:27:31Z</time>
      </trkpt>
      <trkpt lat="45.93732" lon="1.25451">
        <ele>437.8</ele>
        <time>2022-06-12T06:27:32Z</time>
      </trkpt>
      <trkpt lat="45.93738" lon="1.25455">
        <ele>439</ele>
        <time>2022-06-12T06:27:36Z</time>
      </trkpt>
      <trkpt lat="45.93739" lon="1.25455">
        <ele>439.2</ele>
        <time>2022-06-12T06:27:37Z</time>
      </trkpt>
      <trkpt lat="45.93744" lon="1.25459">
        <ele>440.4</ele>
        <time>2022-06-12T06:27:41Z</time>
      </trkpt>
      <trkpt lat="45.93746" lon="1.25461">
        <ele>440.8</ele>
        <time>2022-06-12T06:27:43Z</time>
      </trkpt>
      <trkpt lat="45.93747" lon="1.25462">
        <ele>441.2</ele>
        <time>2022-06-12T06:27:44Z</time>
      </trkpt>
      <trkpt lat="45.9375" lon="1.25465">
        <ele>441.4</ele>
        <time>2022-06-12T06:27:47Z</time>
      </trkpt>
      <trkpt lat="45.93754" lon="1.2547">
        <ele>442.2</ele>
        <time>2022-06-12T06:27:51Z</time>
      </trkpt>
      <trkpt lat="45.93755" lon="1.25472">
        <ele>442.4</ele>
        <time>2022-06-12T06:27:52Z</time>
      </trkpt>
      <trkpt lat="45.93761" lon="1.25479">
        <ele>443.4</ele>
        <time>2022-06-12T06:27:58Z</time>
      </trkpt>
      <trkpt lat="45.93763" lon="1.25481">
        <ele>443.6</ele>
        <time>2022-06-12T06:28:00Z</time>
      </trkpt>
      <trkpt lat="45.93768" lon="1.25487">
        <ele>444.6</ele>
        <time>2022-06-12T06:28:05Z</time>
      </trkpt>
      <trkpt lat="45.9377" lon="1.25488">
        <ele>445</ele>
        <time>2022-06-12T06:28:06Z</time>
      </trkpt>
      <trkpt lat="45.93775" lon="1.25493">
        <ele>446</ele>
        <time>2022-06-12T06:28:12Z</time>
      </trkpt>
      <trkpt lat="45.93776" lon="1.25494">
        <ele>446.2</ele>
        <time>2022-06-12T06:28:13Z</time>
      </trkpt>
      <trkpt lat="45.9378" lon="1.25496">
        <ele>447</ele>
        <time>2022-06-12T06:28:16Z</time>
      </trkpt>
      <trkpt lat="45.93786" lon="1.255">
        <ele>447.8</ele>
        <time>2022-06-12T06:28:21Z</time>
      </trkpt>
      <trkpt lat="45.9379" lon="1.25502">
        <ele>448.4</ele>
        <time>2022-06-12T06:28:24Z</time>
      </trkpt>
      <trkpt lat="45.93793" lon="1.25506">
        <ele>449.4</ele>
        <time>2022-06-12T06:28:28Z</time>
      </trkpt>
      <trkpt lat="45.93794" lon="1.25506">
        <ele>449.4</ele>
        <time>2022-06-12T06:28:29Z</time>
      </trkpt>
      <trkpt lat="45.93802" lon="1.25513">
        <ele>450.8</ele>
        <time>2022-06-12T06:28:36Z</time>
      </trkpt>
      <trkpt lat="45.93813" lon="1.25519">
        <ele>451.2</ele>
        <time>2022-06-12T06:28:42Z</time>
      </trkpt>
      <trkpt lat="45.93821" lon="1.25533">
        <ele>451.4</ele>
        <time>2022-06-12T06:28:47Z</time>
      </trkpt>
      <trkpt lat="45.93827" lon="1.25542">
        <ele>451.2</ele>
        <time>2022-06-12T06:28:50Z</time>
      </trkpt>
      <trkpt lat="45.93831" lon="1.25549">
        <ele>451</ele>
        <time>2022-06-12T06:28:52Z</time>
      </trkpt>
      <trkpt lat="45.93845" lon="1.25569">
        <ele>451</ele>
        <time>2022-06-12T06:28:58Z</time>
      </trkpt>
      <trkpt lat="45.93858" lon="1.25585">
        <ele>452.2</ele>
        <time>2022-06-12T06:29:03Z</time>
      </trkpt>
      <trkpt lat="45.93861" lon="1.25588">
        <ele>452.6</ele>
        <time>2022-06-12T06:29:05Z</time>
      </trkpt>
      <trkpt lat="45.93864" lon="1.25592">
        <ele>453.4</ele>
        <time>2022-06-12T06:29:07Z</time>
      </trkpt>
      <trkpt lat="45.93875" lon="1.25603">
        <ele>454.8</ele>
        <time>2022-06-12T06:29:12Z</time>
      </trkpt>
      <trkpt lat="45.93878" lon="1.25605">
        <ele>455</ele>
        <time>2022-06-12T06:29:13Z</time>
      </trkpt>
      <trkpt lat="45.93887" lon="1.25613">
        <ele>455.8</ele>
        <time>2022-06-12T06:29:17Z</time>
      </trkpt>
      <trkpt lat="45.93891" lon="1.25616">
        <ele>456.4</ele>
        <time>2022-06-12T06:29:19Z</time>
      </trkpt>
      <trkpt lat="45.93897" lon="1.25621">
        <ele>457</ele>
        <time>2022-06-12T06:29:22Z</time>
      </trkpt>
      <trkpt lat="45.93905" lon="1.25629">
        <ele>457.8</ele>
        <time>2022-06-12T06:29:26Z</time>
      </trkpt>
      <trkpt lat="45.93908" lon="1.25633">
        <ele>458.4</ele>
        <time>2022-06-12T06:29:28Z</time>
      </trkpt>
      <trkpt lat="45.93918" lon="1.25643">
        <ele>459.6</ele>
        <time>2022-06-12T06:29:33Z</time>
      </trkpt>
      <trkpt lat="45.93925" lon="1.25652">
        <ele>460.6</ele>
        <time>2022-06-12T06:29:37Z</time>
      </trkpt>
      <trkpt lat="45.93932" lon="1.25661">
        <ele>461.8</ele>
        <time>2022-06-12T06:29:42Z</time>
      </trkpt>
      <trkpt lat="45.93939" lon="1.25668">
        <ele>462.2</ele>
        <time>2022-06-12T06:29:46Z</time>
      </trkpt>
      <trkpt lat="45.93956" lon="1.25687">
        <ele>462.4</ele>
        <time>2022-06-12T06:29:54Z</time>
      </trkpt>
      <trkpt lat="45.93964" lon="1.25697">
        <ele>462.8</ele>
        <time>2022-06-12T06:29:58Z</time>
      </trkpt>
      <trkpt lat="45.93969" lon="1.25703">
        <ele>462.8</ele>
        <time>2022-06-12T06:30:00Z</time>
      </trkpt>
      <trkpt lat="45.93977" lon="1.25712">
        <ele>462.6</ele>
        <time>2022-06-12T06:30:03Z</time>
      </trkpt>
      <trkpt lat="45.93985" lon="1.25722">
        <ele>462.4</ele>
        <time>2022-06-12T06:30:06Z</time>
      </trkpt>
      <trkpt lat="45.9399" lon="1.25728">
        <ele>462.4</ele>
        <time>2022-06-12T06:30:08Z</time>
      </trkpt>
      <trkpt lat="45.93997" lon="1.25738">
        <ele>462.6</ele>
        <time>2022-06-12T06:30:11Z</time>
      </trkpt>
      <trkpt lat="45.94" lon="1.25741">
        <ele>462.6</ele>
        <time>2022-06-12T06:30:12Z</time>
      </trkpt>
      <trkpt lat="45.94006" lon="1.25747">
        <ele>462.6</ele>
        <time>2022-06-12T06:30:14Z</time>
      </trkpt>
      <trkpt lat="45.94015" lon="1.25758">
        <ele>462.8</ele>
        <time>2022-06-12T06:30:17Z</time>
      </trkpt>
      <trkpt lat="45.94028" lon="1.25774">
        <ele>463.8</ele>
        <time>2022-06-12T06:30:22Z</time>
      </trkpt>
      <trkpt lat="45.94031" lon="1.25778">
        <ele>463.8</ele>
        <time>2022-06-12T06:30:23Z</time>
      </trkpt>
      <trkpt lat="45.94048" lon="1.25797">
        <ele>464.4</ele>
        <time>2022-06-12T06:30:28Z</time>
      </trkpt>
      <trkpt lat="45.94057" lon="1.25804">
        <ele>465</ele>
        <time>2022-06-12T06:30:30Z</time>
      </trkpt>
      <trkpt lat="45.94067" lon="1.25812">
        <ele>466</ele>
        <time>2022-06-12T06:30:33Z</time>
      </trkpt>
      <trkpt lat="45.94069" lon="1.25815">
        <ele>466.2</ele>
        <time>2022-06-12T06:30:34Z</time>
      </trkpt>
      <trkpt lat="45.94084" lon="1.25832">
        <ele>466.6</ele>
        <time>2022-06-12T06:30:40Z</time>
      </trkpt>
      <trkpt lat="45.94089" lon="1.25842">
        <ele>467.2</ele>
        <time>2022-06-12T06:30:43Z</time>
      </trkpt>
      <trkpt lat="45.94095" lon="1.25851">
        <ele>467.8</ele>
        <time>2022-06-12T06:30:46Z</time>
      </trkpt>
      <trkpt lat="45.94109" lon="1.25874">
        <ele>468.2</ele>
        <time>2022-06-12T06:30:52Z</time>
      </trkpt>
      <trkpt lat="45.94113" lon="1.25882">
        <ele>468.4</ele>
        <time>2022-06-12T06:30:54Z</time>
      </trkpt>
      <trkpt lat="45.94118" lon="1.25894">
        <ele>468.4</ele>
        <time>2022-06-12T06:30:57Z</time>
      </trkpt>
      <trkpt lat="45.94125" lon="1.2591">
        <ele>467.8</ele>
        <time>2022-06-12T06:31:03Z</time>
      </trkpt>
      <trkpt lat="45.94125" lon="1.25916">
        <ele>468</ele>
        <time>2022-06-12T06:31:06Z</time>
      </trkpt>
      <trkpt lat="45.94124" lon="1.25924">
        <ele>468</ele>
        <time>2022-06-12T06:31:09Z</time>
      </trkpt>
      <trkpt lat="45.94121" lon="1.25932">
        <ele>467.4</ele>
        <time>2022-06-12T06:31:12Z</time>
      </trkpt>
      <trkpt lat="45.9412" lon="1.25937">
        <ele>466.6</ele>
        <time>2022-06-12T06:31:14Z</time>
      </trkpt>
      <trkpt lat="45.94121" lon="1.2594">
        <ele>466.4</ele>
        <time>2022-06-12T06:31:15Z</time>
      </trkpt>
      <trkpt lat="45.94121" lon="1.25943">
        <ele>466.2</ele>
        <time>2022-06-12T06:31:16Z</time>
      </trkpt>
      <trkpt lat="45.9412" lon="1.2595">
        <ele>465.4</ele>
        <time>2022-06-12T06:31:19Z</time>
      </trkpt>
      <trkpt lat="45.94119" lon="1.25952">
        <ele>465</ele>
        <time>2022-06-12T06:31:20Z</time>
      </trkpt>
      <trkpt lat="45.94119" lon="1.25956">
        <ele>464.4</ele>
        <time>2022-06-12T06:31:23Z</time>
      </trkpt>
      <trkpt lat="45.9412" lon="1.25957">
        <ele>464</ele>
        <time>2022-06-12T06:31:24Z</time>
      </trkpt>
      <trkpt lat="45.9412" lon="1.2596">
        <ele>463.8</ele>
        <time>2022-06-12T06:31:25Z</time>
      </trkpt>
      <trkpt lat="45.94122" lon="1.25972">
        <ele>463</ele>
        <time>2022-06-12T06:31:29Z</time>
      </trkpt>
      <trkpt lat="45.94123" lon="1.25977">
        <ele>462.4</ele>
        <time>2022-06-12T06:31:31Z</time>
      </trkpt>
      <trkpt lat="45.94125" lon="1.25981">
        <ele>461.8</ele>
        <time>2022-06-12T06:31:33Z</time>
      </trkpt>
      <trkpt lat="45.94127" lon="1.25988">
        <ele>460.4</ele>
        <time>2022-06-12T06:31:36Z</time>
      </trkpt>
      <trkpt lat="45.94128" lon="1.2599">
        <ele>459.8</ele>
        <time>2022-06-12T06:31:37Z</time>
      </trkpt>
      <trkpt lat="45.94129" lon="1.25993">
        <ele>459</ele>
        <time>2022-06-12T06:31:38Z</time>
      </trkpt>
      <trkpt lat="45.9413" lon="1.25999">
        <ele>457.8</ele>
        <time>2022-06-12T06:31:40Z</time>
      </trkpt>
      <trkpt lat="45.94135" lon="1.26007">
        <ele>457.2</ele>
        <time>2022-06-12T06:31:43Z</time>
      </trkpt>
      <trkpt lat="45.94137" lon="1.26012">
        <ele>456.6</ele>
        <time>2022-06-12T06:31:45Z</time>
      </trkpt>
      <trkpt lat="45.94139" lon="1.26019">
        <ele>455.6</ele>
        <time>2022-06-12T06:31:47Z</time>
      </trkpt>
      <trkpt lat="45.9414" lon="1.26023">
        <ele>455.2</ele>
        <time>2022-06-12T06:31:48Z</time>
      </trkpt>
      <trkpt lat="45.94143" lon="1.26033">
        <ele>453.8</ele>
        <time>2022-06-12T06:31:51Z</time>
      </trkpt>
      <trkpt lat="45.94143" lon="1.26038">
        <ele>452.6</ele>
        <time>2022-06-12T06:31:53Z</time>
      </trkpt>
      <trkpt lat="45.94143" lon="1.26042">
        <ele>451.8</ele>
        <time>2022-06-12T06:31:54Z</time>
      </trkpt>
      <trkpt lat="45.94142" lon="1.26045">
        <ele>451.2</ele>
        <time>2022-06-12T06:31:55Z</time>
      </trkpt>
      <trkpt lat="45.94141" lon="1.26048">
        <ele>450.4</ele>
        <time>2022-06-12T06:31:56Z</time>
      </trkpt>
      <trkpt lat="45.94139" lon="1.26048">
        <ele>449.6</ele>
        <time>2022-06-12T06:31:57Z</time>
      </trkpt>
      <trkpt lat="45.94137" lon="1.26052">
        <ele>447.2</ele>
        <time>2022-06-12T06:31:59Z</time>
      </trkpt>
      <trkpt lat="45.94136" lon="1.26054">
        <ele>446.4</ele>
        <time>2022-06-12T06:32:00Z</time>
      </trkpt>
      <trkpt lat="45.94135" lon="1.26056">
        <ele>445.8</ele>
        <time>2022-06-12T06:32:01Z</time>
      </trkpt>
      <trkpt lat="45.94133" lon="1.26061">
        <ele>444.4</ele>
        <time>2022-06-12T06:32:03Z</time>
      </trkpt>
      <trkpt lat="45.94132" lon="1.26063">
        <ele>444</ele>
        <time>2022-06-12T06:32:04Z</time>
      </trkpt>
      <trkpt lat="45.94129" lon="1.26066">
        <ele>443.2</ele>
        <time>2022-06-12T06:32:06Z</time>
      </trkpt>
      <trkpt lat="45.94127" lon="1.26066">
        <ele>442</ele>
        <time>2022-06-12T06:32:08Z</time>
      </trkpt>
      <trkpt lat="45.94123" lon="1.26069">
        <ele>440.6</ele>
        <time>2022-06-12T06:32:11Z</time>
      </trkpt>
      <trkpt lat="45.9412" lon="1.26071">
        <ele>439.2</ele>
        <time>2022-06-12T06:32:13Z</time>
      </trkpt>
      <trkpt lat="45.94118" lon="1.26072">
        <ele>438</ele>
        <time>2022-06-12T06:32:14Z</time>
      </trkpt>
      <trkpt lat="45.94117" lon="1.26073">
        <ele>437.2</ele>
        <time>2022-06-12T06:32:15Z</time>
      </trkpt>
      <trkpt lat="45.94114" lon="1.26075">
        <ele>436.6</ele>
        <time>2022-06-12T06:32:16Z</time>
      </trkpt>
      <trkpt lat="45.9411" lon="1.26078">
        <ele>435.2</ele>
        <time>2022-06-12T06:32:18Z</time>
      </trkpt>
      <trkpt lat="45.94106" lon="1.26079">
        <ele>434</ele>
        <time>2022-06-12T06:32:20Z</time>
      </trkpt>
      <trkpt lat="45.94104" lon="1.26079">
        <ele>433.4</ele>
        <time>2022-06-12T06:32:21Z</time>
      </trkpt>
      <trkpt lat="45.94102" lon="1.26079">
        <ele>433</ele>
        <time>2022-06-12T06:32:22Z</time>
      </trkpt>
      <trkpt lat="45.94101" lon="1.2608">
        <ele>431.8</ele>
        <time>2022-06-12T06:32:24Z</time>
      </trkpt>
      <trkpt lat="45.94098" lon="1.26082">
        <ele>430.4</ele>
        <time>2022-06-12T06:32:26Z</time>
      </trkpt>
      <trkpt lat="45.94097" lon="1.26082">
        <ele>429.6</ele>
        <time>2022-06-12T06:32:27Z</time>
      </trkpt>
      <trkpt lat="45.94095" lon="1.26082">
        <ele>428.6</ele>
        <time>2022-06-12T06:32:28Z</time>
      </trkpt>
      <trkpt lat="45.94094" lon="1.26083">
        <ele>427.8</ele>
        <time>2022-06-12T06:32:29Z</time>
      </trkpt>
      <trkpt lat="45.94094" lon="1.26083">
        <ele>427.2</ele>
        <time>2022-06-12T06:32:30Z</time>
      </trkpt>
      <trkpt lat="45.94091" lon="1.26089">
        <ele>425.8</ele>
        <time>2022-06-12T06:32:34Z</time>
      </trkpt>
      <trkpt lat="45.9409" lon="1.26091">
        <ele>425.2</ele>
        <time>2022-06-12T06:32:35Z</time>
      </trkpt>
      <trkpt lat="45.94087" lon="1.26096">
        <ele>424.4</ele>
        <time>2022-06-12T06:32:36Z</time>
      </trkpt>
      <trkpt lat="45.94086" lon="1.26102">
        <ele>423.2</ele>
        <time>2022-06-12T06:32:38Z</time>
      </trkpt>
      <trkpt lat="45.94086" lon="1.26105">
        <ele>423</ele>
        <time>2022-06-12T06:32:39Z</time>
      </trkpt>
      <trkpt lat="45.94094" lon="1.26121">
        <ele>423</ele>
        <time>2022-06-12T06:32:45Z</time>
      </trkpt>
      <trkpt lat="45.94102" lon="1.26144">
        <ele>423.4</ele>
        <time>2022-06-12T06:32:51Z</time>
      </trkpt>
      <trkpt lat="45.9411" lon="1.26165">
        <ele>423.4</ele>
        <time>2022-06-12T06:32:56Z</time>
      </trkpt>
      <trkpt lat="45.94112" lon="1.26169">
        <ele>423.6</ele>
        <time>2022-06-12T06:32:57Z</time>
      </trkpt>
      <trkpt lat="45.94114" lon="1.26173">
        <ele>423.8</ele>
        <time>2022-06-12T06:32:58Z</time>
      </trkpt>
      <trkpt lat="45.94118" lon="1.26181">
        <ele>423.8</ele>
        <time>2022-06-12T06:33:00Z</time>
      </trkpt>
      <trkpt lat="45.94123" lon="1.26189">
        <ele>424</ele>
        <time>2022-06-12T06:33:02Z</time>
      </trkpt>
      <trkpt lat="45.94127" lon="1.262">
        <ele>424.4</ele>
        <time>2022-06-12T06:33:05Z</time>
      </trkpt>
      <trkpt lat="45.9413" lon="1.26209">
        <ele>424.4</ele>
        <time>2022-06-12T06:33:08Z</time>
      </trkpt>
      <trkpt lat="45.9413" lon="1.26237">
        <ele>425.4</ele>
        <time>2022-06-12T06:33:14Z</time>
      </trkpt>
      <trkpt lat="45.94133" lon="1.26252">
        <ele>425.8</ele>
        <time>2022-06-12T06:33:17Z</time>
      </trkpt>
      <trkpt lat="45.94135" lon="1.26259">
        <ele>426.6</ele>
        <time>2022-06-12T06:33:19Z</time>
      </trkpt>
      <trkpt lat="45.94137" lon="1.26272">
        <ele>427.2</ele>
        <time>2022-06-12T06:33:22Z</time>
      </trkpt>
      <trkpt lat="45.94141" lon="1.26289">
        <ele>427.6</ele>
        <time>2022-06-12T06:33:27Z</time>
      </trkpt>
      <trkpt lat="45.94144" lon="1.2631">
        <ele>427.8</ele>
        <time>2022-06-12T06:33:33Z</time>
      </trkpt>
      <trkpt lat="45.94145" lon="1.26313">
        <ele>428</ele>
        <time>2022-06-12T06:33:34Z</time>
      </trkpt>
      <trkpt lat="45.94149" lon="1.2632">
        <ele>428.6</ele>
        <time>2022-06-12T06:33:37Z</time>
      </trkpt>
      <trkpt lat="45.94153" lon="1.26328">
        <ele>429.6</ele>
        <time>2022-06-12T06:33:40Z</time>
      </trkpt>
      <trkpt lat="45.94154" lon="1.2633">
        <ele>429.8</ele>
        <time>2022-06-12T06:33:41Z</time>
      </trkpt>
      <trkpt lat="45.94162" lon="1.26351">
        <ele>430.8</ele>
        <time>2022-06-12T06:33:48Z</time>
      </trkpt>
      <trkpt lat="45.94171" lon="1.26364">
        <ele>430.6</ele>
        <time>2022-06-12T06:33:54Z</time>
      </trkpt>
      <trkpt lat="45.94172" lon="1.26366">
        <ele>430.8</ele>
        <time>2022-06-12T06:33:59Z</time>
      </trkpt>
      <trkpt lat="45.94174" lon="1.2637">
        <ele>430.6</ele>
        <time>2022-06-12T06:34:11Z</time>
      </trkpt>
      <trkpt lat="45.94184" lon="1.26377">
        <ele>431.2</ele>
        <time>2022-06-12T06:34:17Z</time>
      </trkpt>
      <trkpt lat="45.94186" lon="1.26377">
        <ele>431.4</ele>
        <time>2022-06-12T06:34:19Z</time>
      </trkpt>
      <trkpt lat="45.94185" lon="1.26377">
        <ele>431.4</ele>
        <time>2022-06-12T06:34:21Z</time>
      </trkpt>
      <trkpt lat="45.94181" lon="1.26374">
        <ele>431.4</ele>
        <time>2022-06-12T06:34:28Z</time>
      </trkpt>
      <trkpt lat="45.94174" lon="1.26367">
        <ele>431.2</ele>
        <time>2022-06-12T06:34:33Z</time>
      </trkpt>
      <trkpt lat="45.94173" lon="1.26365">
        <ele>430.8</ele>
        <time>2022-06-12T06:34:37Z</time>
      </trkpt>
      <trkpt lat="45.94173" lon="1.26364">
        <ele>430.8</ele>
        <time>2022-06-12T06:34:38Z</time>
      </trkpt>
      <trkpt lat="45.94175" lon="1.2636">
        <ele>431</ele>
        <time>2022-06-12T06:34:42Z</time>
      </trkpt>
      <trkpt lat="45.94177" lon="1.26359">
        <ele>431.2</ele>
        <time>2022-06-12T06:34:44Z</time>
      </trkpt>
      <trkpt lat="45.94177" lon="1.26359">
        <ele>431.8</ele>
        <time>2022-06-12T06:34:47Z</time>
      </trkpt>
      <trkpt lat="45.94178" lon="1.26359">
        <ele>431.8</ele>
        <time>2022-06-12T06:34:48Z</time>
      </trkpt>
      <trkpt lat="45.94178" lon="1.26359">
        <ele>432.2</ele>
        <time>2022-06-12T06:34:50Z</time>
      </trkpt>
      <trkpt lat="45.94184" lon="1.26361">
        <ele>432.6</ele>
        <time>2022-06-12T06:34:56Z</time>
      </trkpt>
      <trkpt lat="45.94188" lon="1.26361">
        <ele>433</ele>
        <time>2022-06-12T06:34:58Z</time>
      </trkpt>
      <trkpt lat="45.94194" lon="1.26361">
        <ele>433.4</ele>
        <time>2022-06-12T06:35:01Z</time>
      </trkpt>
      <trkpt lat="45.94199" lon="1.26361">
        <ele>434.2</ele>
        <time>2022-06-12T06:35:04Z</time>
      </trkpt>
      <trkpt lat="45.94204" lon="1.26362">
        <ele>435.4</ele>
        <time>2022-06-12T06:35:07Z</time>
      </trkpt>
      <trkpt lat="45.94209" lon="1.26363">
        <ele>435.6</ele>
        <time>2022-06-12T06:35:10Z</time>
      </trkpt>
      <trkpt lat="45.94217" lon="1.26363">
        <ele>436</ele>
        <time>2022-06-12T06:35:15Z</time>
      </trkpt>
      <trkpt lat="45.94221" lon="1.26363">
        <ele>436.4</ele>
        <time>2022-06-12T06:35:17Z</time>
      </trkpt>
      <trkpt lat="45.94233" lon="1.26366">
        <ele>436.2</ele>
        <time>2022-06-12T06:35:23Z</time>
      </trkpt>
      <trkpt lat="45.94245" lon="1.2637">
        <ele>435.8</ele>
        <time>2022-06-12T06:35:28Z</time>
      </trkpt>
      <trkpt lat="45.94246" lon="1.2637">
        <ele>435.8</ele>
        <time>2022-06-12T06:35:29Z</time>
      </trkpt>
      <trkpt lat="45.94247" lon="1.26371">
        <ele>435.8</ele>
        <time>2022-06-12T06:35:31Z</time>
      </trkpt>
      <trkpt lat="45.94246" lon="1.2637">
        <ele>435.6</ele>
        <time>2022-06-12T06:35:34Z</time>
      </trkpt>
      <trkpt lat="45.94243" lon="1.26368">
        <ele>435</ele>
        <time>2022-06-12T06:35:43Z</time>
      </trkpt>
      <trkpt lat="45.94244" lon="1.26367">
        <ele>434.8</ele>
        <time>2022-06-12T06:36:00Z</time>
      </trkpt>
      <trkpt lat="45.94254" lon="1.2637">
        <ele>435.6</ele>
        <time>2022-06-12T06:36:07Z</time>
      </trkpt>
      <trkpt lat="45.94274" lon="1.26379">
        <ele>434.8</ele>
        <time>2022-06-12T06:36:13Z</time>
      </trkpt>
      <trkpt lat="45.94279" lon="1.26381">
        <ele>434.4</ele>
        <time>2022-06-12T06:36:15Z</time>
      </trkpt>
      <trkpt lat="45.94289" lon="1.26385">
        <ele>433.8</ele>
        <time>2022-06-12T06:36:18Z</time>
      </trkpt>
      <trkpt lat="45.94296" lon="1.26389">
        <ele>432.6</ele>
        <time>2022-06-12T06:36:20Z</time>
      </trkpt>
      <trkpt lat="45.94299" lon="1.26391">
        <ele>432.2</ele>
        <time>2022-06-12T06:36:21Z</time>
      </trkpt>
      <trkpt lat="45.94303" lon="1.26392">
        <ele>431.4</ele>
        <time>2022-06-12T06:36:22Z</time>
      </trkpt>
      <trkpt lat="45.94306" lon="1.26392">
        <ele>431</ele>
        <time>2022-06-12T06:36:23Z</time>
      </trkpt>
      <trkpt lat="45.94313" lon="1.26389">
        <ele>430.4</ele>
        <time>2022-06-12T06:36:25Z</time>
      </trkpt>
      <trkpt lat="45.94317" lon="1.26388">
        <ele>430.2</ele>
        <time>2022-06-12T06:36:26Z</time>
      </trkpt>
      <trkpt lat="45.94321" lon="1.26389">
        <ele>429.6</ele>
        <time>2022-06-12T06:36:27Z</time>
      </trkpt>
      <trkpt lat="45.94324" lon="1.2639">
        <ele>429.2</ele>
        <time>2022-06-12T06:36:28Z</time>
      </trkpt>
      <trkpt lat="45.94331" lon="1.26394">
        <ele>428</ele>
        <time>2022-06-12T06:36:30Z</time>
      </trkpt>
      <trkpt lat="45.94332" lon="1.26396">
        <ele>427.2</ele>
        <time>2022-06-12T06:36:31Z</time>
      </trkpt>
      <trkpt lat="45.94333" lon="1.26397">
        <ele>426.4</ele>
        <time>2022-06-12T06:36:32Z</time>
      </trkpt>
      <trkpt lat="45.94333" lon="1.26398">
        <ele>425.6</ele>
        <time>2022-06-12T06:36:35Z</time>
      </trkpt>
      <trkpt lat="45.94333" lon="1.26398">
        <ele>425.2</ele>
        <time>2022-06-12T06:36:36Z</time>
      </trkpt>
      <trkpt lat="45.94326" lon="1.26402">
        <ele>424.6</ele>
        <time>2022-06-12T06:36:40Z</time>
      </trkpt>
      <trkpt lat="45.94323" lon="1.26403">
        <ele>424.4</ele>
        <time>2022-06-12T06:36:41Z</time>
      </trkpt>
      <trkpt lat="45.94319" lon="1.26405">
        <ele>424</ele>
        <time>2022-06-12T06:36:42Z</time>
      </trkpt>
      <trkpt lat="45.94317" lon="1.26407">
        <ele>423.4</ele>
        <time>2022-06-12T06:36:43Z</time>
      </trkpt>
      <trkpt lat="45.94316" lon="1.26412">
        <ele>423</ele>
        <time>2022-06-12T06:36:44Z</time>
      </trkpt>
      <trkpt lat="45.94316" lon="1.26418">
        <ele>422.6</ele>
        <time>2022-06-12T06:36:45Z</time>
      </trkpt>
      <trkpt lat="45.94316" lon="1.26418">
        <ele>421.4</ele>
        <time>2022-06-12T06:36:46Z</time>
      </trkpt>
      <trkpt lat="45.9432" lon="1.2644">
        <ele>420.4</ele>
        <time>2022-06-12T06:36:49Z</time>
      </trkpt>
      <trkpt lat="45.9432" lon="1.26444">
        <ele>420</ele>
        <time>2022-06-12T06:36:50Z</time>
      </trkpt>
      <trkpt lat="45.94322" lon="1.26451">
        <ele>418.6</ele>
        <time>2022-06-12T06:36:52Z</time>
      </trkpt>
      <trkpt lat="45.94321" lon="1.26453">
        <ele>418</ele>
        <time>2022-06-12T06:36:53Z</time>
      </trkpt>
      <trkpt lat="45.94321" lon="1.26454">
        <ele>417.6</ele>
        <time>2022-06-12T06:36:54Z</time>
      </trkpt>
      <trkpt lat="45.94316" lon="1.26453">
        <ele>417.8</ele>
        <time>2022-06-12T06:37:00Z</time>
      </trkpt>
      <trkpt lat="45.94314" lon="1.26446">
        <ele>418.6</ele>
        <time>2022-06-12T06:37:05Z</time>
      </trkpt>
      <trkpt lat="45.94311" lon="1.26442">
        <ele>419.6</ele>
        <time>2022-06-12T06:37:10Z</time>
      </trkpt>
      <trkpt lat="45.94313" lon="1.2645">
        <ele>420</ele>
        <time>2022-06-12T06:37:16Z</time>
      </trkpt>
      <trkpt lat="45.94316" lon="1.26463">
        <ele>418.6</ele>
        <time>2022-06-12T06:37:19Z</time>
      </trkpt>
      <trkpt lat="45.94318" lon="1.26468">
        <ele>418.2</ele>
        <time>2022-06-12T06:37:20Z</time>
      </trkpt>
      <trkpt lat="45.9432" lon="1.26473">
        <ele>417.4</ele>
        <time>2022-06-12T06:37:21Z</time>
      </trkpt>
      <trkpt lat="45.94324" lon="1.26483">
        <ele>416.6</ele>
        <time>2022-06-12T06:37:23Z</time>
      </trkpt>
      <trkpt lat="45.94326" lon="1.26488">
        <ele>416.2</ele>
        <time>2022-06-12T06:37:24Z</time>
      </trkpt>
      <trkpt lat="45.9433" lon="1.26498">
        <ele>415.4</ele>
        <time>2022-06-12T06:37:26Z</time>
      </trkpt>
      <trkpt lat="45.94332" lon="1.26504">
        <ele>415.2</ele>
        <time>2022-06-12T06:37:27Z</time>
      </trkpt>
      <trkpt lat="45.94338" lon="1.26525">
        <ele>414.6</ele>
        <time>2022-06-12T06:37:31Z</time>
      </trkpt>
      <trkpt lat="45.94339" lon="1.26532">
        <ele>414.6</ele>
        <time>2022-06-12T06:37:32Z</time>
      </trkpt>
      <trkpt lat="45.94342" lon="1.26547">
        <ele>413.2</ele>
        <time>2022-06-12T06:37:34Z</time>
      </trkpt>
      <trkpt lat="45.94344" lon="1.26567">
        <ele>411.8</ele>
        <time>2022-06-12T06:37:36Z</time>
      </trkpt>
      <trkpt lat="45.94347" lon="1.26584">
        <ele>410</ele>
        <time>2022-06-12T06:37:38Z</time>
      </trkpt>
      <trkpt lat="45.94344" lon="1.26607">
        <ele>408.8</ele>
        <time>2022-06-12T06:37:40Z</time>
      </trkpt>
      <trkpt lat="45.94343" lon="1.26641">
        <ele>408</ele>
        <time>2022-06-12T06:37:43Z</time>
      </trkpt>
      <trkpt lat="45.94345" lon="1.26651">
        <ele>407.8</ele>
        <time>2022-06-12T06:37:44Z</time>
      </trkpt>
      <trkpt lat="45.94346" lon="1.2667">
        <ele>407.8</ele>
        <time>2022-06-12T06:37:46Z</time>
      </trkpt>
      <trkpt lat="45.94347" lon="1.26685">
        <ele>407.6</ele>
        <time>2022-06-12T06:37:48Z</time>
      </trkpt>
      <trkpt lat="45.94355" lon="1.26724">
        <ele>407.8</ele>
        <time>2022-06-12T06:37:54Z</time>
      </trkpt>
      <trkpt lat="45.9436" lon="1.26756">
        <ele>408.6</ele>
        <time>2022-06-12T06:38:00Z</time>
      </trkpt>
      <trkpt lat="45.94361" lon="1.26766">
        <ele>409.2</ele>
        <time>2022-06-12T06:38:02Z</time>
      </trkpt>
      <trkpt lat="45.94366" lon="1.26788">
        <ele>409.6</ele>
        <time>2022-06-12T06:38:06Z</time>
      </trkpt>
      <trkpt lat="45.94365" lon="1.26814">
        <ele>409.2</ele>
        <time>2022-06-12T06:38:11Z</time>
      </trkpt>
      <trkpt lat="45.94364" lon="1.26819">
        <ele>409.2</ele>
        <time>2022-06-12T06:38:12Z</time>
      </trkpt>
      <trkpt lat="45.94366" lon="1.26837">
        <ele>408.4</ele>
        <time>2022-06-12T06:38:17Z</time>
      </trkpt>
      <trkpt lat="45.94367" lon="1.26842">
        <ele>408.4</ele>
        <time>2022-06-12T06:38:18Z</time>
      </trkpt>
      <trkpt lat="45.94365" lon="1.26847">
        <ele>408.4</ele>
        <time>2022-06-12T06:38:19Z</time>
      </trkpt>
      <trkpt lat="45.94357" lon="1.26853">
        <ele>408.4</ele>
        <time>2022-06-12T06:38:21Z</time>
      </trkpt>
      <trkpt lat="45.94351" lon="1.26855">
        <ele>408.2</ele>
        <time>2022-06-12T06:38:22Z</time>
      </trkpt>
      <trkpt lat="45.94346" lon="1.26857">
        <ele>407.8</ele>
        <time>2022-06-12T06:38:23Z</time>
      </trkpt>
      <trkpt lat="45.94332" lon="1.26868">
        <ele>406.6</ele>
        <time>2022-06-12T06:38:26Z</time>
      </trkpt>
      <trkpt lat="45.94319" lon="1.2688">
        <ele>405.8</ele>
        <time>2022-06-12T06:38:29Z</time>
      </trkpt>
      <trkpt lat="45.94315" lon="1.26889">
        <ele>405.4</ele>
        <time>2022-06-12T06:38:31Z</time>
      </trkpt>
      <trkpt lat="45.94311" lon="1.26903">
        <ele>404.8</ele>
        <time>2022-06-12T06:38:34Z</time>
      </trkpt>
      <trkpt lat="45.9431" lon="1.26909">
        <ele>404.6</ele>
        <time>2022-06-12T06:38:35Z</time>
      </trkpt>
      <trkpt lat="45.94308" lon="1.26915">
        <ele>404.4</ele>
        <time>2022-06-12T06:38:36Z</time>
      </trkpt>
      <trkpt lat="45.94306" lon="1.26921">
        <ele>404.4</ele>
        <time>2022-06-12T06:38:37Z</time>
      </trkpt>
      <trkpt lat="45.94301" lon="1.26933">
        <ele>404</ele>
        <time>2022-06-12T06:38:39Z</time>
      </trkpt>
      <trkpt lat="45.94295" lon="1.26943">
        <ele>403.6</ele>
        <time>2022-06-12T06:38:41Z</time>
      </trkpt>
      <trkpt lat="45.94292" lon="1.26948">
        <ele>403.2</ele>
        <time>2022-06-12T06:38:42Z</time>
      </trkpt>
      <trkpt lat="45.94288" lon="1.26958">
        <ele>403.2</ele>
        <time>2022-06-12T06:38:44Z</time>
      </trkpt>
      <trkpt lat="45.94286" lon="1.2697">
        <ele>403</ele>
        <time>2022-06-12T06:38:46Z</time>
      </trkpt>
      <trkpt lat="45.94284" lon="1.27002">
        <ele>402.4</ele>
        <time>2022-06-12T06:38:50Z</time>
      </trkpt>
      <trkpt lat="45.94284" lon="1.27032">
        <ele>402</ele>
        <time>2022-06-12T06:38:53Z</time>
      </trkpt>
      <trkpt lat="45.94285" lon="1.27063">
        <ele>401.2</ele>
        <time>2022-06-12T06:38:56Z</time>
      </trkpt>
      <trkpt lat="45.94285" lon="1.27075">
        <ele>401</ele>
        <time>2022-06-12T06:38:57Z</time>
      </trkpt>
      <trkpt lat="45.9429" lon="1.27121">
        <ele>399.8</ele>
        <time>2022-06-12T06:39:01Z</time>
      </trkpt>
      <trkpt lat="45.9429" lon="1.27132">
        <ele>399.6</ele>
        <time>2022-06-12T06:39:02Z</time>
      </trkpt>
      <trkpt lat="45.94292" lon="1.27178">
        <ele>399.2</ele>
        <time>2022-06-12T06:39:07Z</time>
      </trkpt>
      <trkpt lat="45.94291" lon="1.27187">
        <ele>399</ele>
        <time>2022-06-12T06:39:08Z</time>
      </trkpt>
      <trkpt lat="45.94287" lon="1.27225">
        <ele>399.4</ele>
        <time>2022-06-12T06:39:13Z</time>
      </trkpt>
      <trkpt lat="45.94285" lon="1.27236">
        <ele>399.6</ele>
        <time>2022-06-12T06:39:15Z</time>
      </trkpt>
      <trkpt lat="45.9428" lon="1.27252">
        <ele>400</ele>
        <time>2022-06-12T06:39:18Z</time>
      </trkpt>
      <trkpt lat="45.9427" lon="1.27285">
        <ele>400.6</ele>
        <time>2022-06-12T06:39:24Z</time>
      </trkpt>
      <trkpt lat="45.94268" lon="1.27289">
        <ele>400.8</ele>
        <time>2022-06-12T06:39:25Z</time>
      </trkpt>
      <trkpt lat="45.94267" lon="1.27294">
        <ele>401</ele>
        <time>2022-06-12T06:39:26Z</time>
      </trkpt>
      <trkpt lat="45.94261" lon="1.27325">
        <ele>401.6</ele>
        <time>2022-06-12T06:39:31Z</time>
      </trkpt>
      <trkpt lat="45.94257" lon="1.27337">
        <ele>402.2</ele>
        <time>2022-06-12T06:39:33Z</time>
      </trkpt>
      <trkpt lat="45.94258" lon="1.27349">
        <ele>402.8</ele>
        <time>2022-06-12T06:39:36Z</time>
      </trkpt>
      <trkpt lat="45.94258" lon="1.27361">
        <ele>403.4</ele>
        <time>2022-06-12T06:39:39Z</time>
      </trkpt>
      <trkpt lat="45.9426" lon="1.27378">
        <ele>404</ele>
        <time>2022-06-12T06:39:43Z</time>
      </trkpt>
      <trkpt lat="45.9426" lon="1.27387">
        <ele>404.4</ele>
        <time>2022-06-12T06:39:45Z</time>
      </trkpt>
      <trkpt lat="45.94263" lon="1.27403">
        <ele>405.2</ele>
        <time>2022-06-12T06:39:49Z</time>
      </trkpt>
      <trkpt lat="45.94264" lon="1.27404">
        <ele>405.4</ele>
        <time>2022-06-12T06:39:50Z</time>
      </trkpt>
      <trkpt lat="45.94265" lon="1.27405">
        <ele>405.6</ele>
        <time>2022-06-12T06:39:51Z</time>
      </trkpt>
      <trkpt lat="45.94269" lon="1.27403">
        <ele>406</ele>
        <time>2022-06-12T06:39:53Z</time>
      </trkpt>
      <trkpt lat="45.94273" lon="1.27401">
        <ele>406.6</ele>
        <time>2022-06-12T06:39:55Z</time>
      </trkpt>
      <trkpt lat="45.94283" lon="1.27401">
        <ele>407.4</ele>
        <time>2022-06-12T06:40:00Z</time>
      </trkpt>
      <trkpt lat="45.94287" lon="1.274">
        <ele>407.6</ele>
        <time>2022-06-12T06:40:02Z</time>
      </trkpt>
      <trkpt lat="45.94293" lon="1.27398">
        <ele>408.6</ele>
        <time>2022-06-12T06:40:07Z</time>
      </trkpt>
      <trkpt lat="45.94295" lon="1.27398">
        <ele>408.8</ele>
        <time>2022-06-12T06:40:08Z</time>
      </trkpt>
      <trkpt lat="45.94305" lon="1.27394">
        <ele>409.6</ele>
        <time>2022-06-12T06:40:14Z</time>
      </trkpt>
      <trkpt lat="45.94307" lon="1.27394">
        <ele>409.8</ele>
        <time>2022-06-12T06:40:15Z</time>
      </trkpt>
      <trkpt lat="45.94311" lon="1.27393">
        <ele>410.6</ele>
        <time>2022-06-12T06:40:18Z</time>
      </trkpt>
      <trkpt lat="45.94316" lon="1.27392">
        <ele>411.4</ele>
        <time>2022-06-12T06:40:22Z</time>
      </trkpt>
      <trkpt lat="45.94319" lon="1.27392">
        <ele>411.8</ele>
        <time>2022-06-12T06:40:24Z</time>
      </trkpt>
      <trkpt lat="45.94329" lon="1.27388">
        <ele>412.8</ele>
        <time>2022-06-12T06:40:29Z</time>
      </trkpt>
      <trkpt lat="45.94332" lon="1.27386">
        <ele>412.8</ele>
        <time>2022-06-12T06:40:30Z</time>
      </trkpt>
      <trkpt lat="45.94351" lon="1.27374">
        <ele>413</ele>
        <time>2022-06-12T06:40:36Z</time>
      </trkpt>
      <trkpt lat="45.9437" lon="1.27358">
        <ele>413</ele>
        <time>2022-06-12T06:40:43Z</time>
      </trkpt>
      <trkpt lat="45.94381" lon="1.27351">
        <ele>414</ele>
        <time>2022-06-12T06:40:48Z</time>
      </trkpt>
      <trkpt lat="45.94387" lon="1.27346">
        <ele>414.6</ele>
        <time>2022-06-12T06:40:51Z</time>
      </trkpt>
      <trkpt lat="45.94395" lon="1.2734">
        <ele>415.2</ele>
        <time>2022-06-12T06:40:56Z</time>
      </trkpt>
      <trkpt lat="45.944" lon="1.27337">
        <ele>416</ele>
        <time>2022-06-12T06:40:59Z</time>
      </trkpt>
      <trkpt lat="45.94401" lon="1.27337">
        <ele>416.2</ele>
        <time>2022-06-12T06:41:00Z</time>
      </trkpt>
      <trkpt lat="45.94408" lon="1.27336">
        <ele>417.2</ele>
        <time>2022-06-12T06:41:05Z</time>
      </trkpt>
      <trkpt lat="45.94409" lon="1.27336">
        <ele>417.4</ele>
        <time>2022-06-12T06:41:06Z</time>
      </trkpt>
      <trkpt lat="45.94411" lon="1.27334">
        <ele>417.6</ele>
        <time>2022-06-12T06:41:07Z</time>
      </trkpt>
      <trkpt lat="45.94411" lon="1.2733">
        <ele>418</ele>
        <time>2022-06-12T06:41:09Z</time>
      </trkpt>
      <trkpt lat="45.94408" lon="1.27322">
        <ele>418.6</ele>
        <time>2022-06-12T06:41:13Z</time>
      </trkpt>
      <trkpt lat="45.94407" lon="1.27318">
        <ele>419</ele>
        <time>2022-06-12T06:41:15Z</time>
      </trkpt>
      <trkpt lat="45.94406" lon="1.27316">
        <ele>419</ele>
        <time>2022-06-12T06:41:16Z</time>
      </trkpt>
      <trkpt lat="45.94403" lon="1.27304">
        <ele>419.8</ele>
        <time>2022-06-12T06:41:21Z</time>
      </trkpt>
      <trkpt lat="45.94402" lon="1.27295">
        <ele>420.8</ele>
        <time>2022-06-12T06:41:25Z</time>
      </trkpt>
      <trkpt lat="45.94401" lon="1.27284">
        <ele>421.8</ele>
        <time>2022-06-12T06:41:30Z</time>
      </trkpt>
      <trkpt lat="45.94401" lon="1.27277">
        <ele>422.4</ele>
        <time>2022-06-12T06:41:33Z</time>
      </trkpt>
      <trkpt lat="45.94402" lon="1.27273">
        <ele>422.8</ele>
        <time>2022-06-12T06:41:35Z</time>
      </trkpt>
      <trkpt lat="45.94403" lon="1.27267">
        <ele>423.8</ele>
        <time>2022-06-12T06:41:38Z</time>
      </trkpt>
      <trkpt lat="45.94406" lon="1.2726">
        <ele>424.8</ele>
        <time>2022-06-12T06:41:42Z</time>
      </trkpt>
      <trkpt lat="45.94408" lon="1.27258">
        <ele>425</ele>
        <time>2022-06-12T06:41:43Z</time>
      </trkpt>
      <trkpt lat="45.94415" lon="1.27251">
        <ele>426</ele>
        <time>2022-06-12T06:41:49Z</time>
      </trkpt>
      <trkpt lat="45.94417" lon="1.27249">
        <ele>426.2</ele>
        <time>2022-06-12T06:41:51Z</time>
      </trkpt>
      <trkpt lat="45.9442" lon="1.27245">
        <ele>427.2</ele>
        <time>2022-06-12T06:41:54Z</time>
      </trkpt>
      <trkpt lat="45.94425" lon="1.27241">
        <ele>428</ele>
        <time>2022-06-12T06:41:58Z</time>
      </trkpt>
      <trkpt lat="45.94426" lon="1.27239">
        <ele>428.2</ele>
        <time>2022-06-12T06:41:59Z</time>
      </trkpt>
      <trkpt lat="45.94431" lon="1.27232">
        <ele>429.4</ele>
        <time>2022-06-12T06:42:04Z</time>
      </trkpt>
      <trkpt lat="45.94433" lon="1.27229">
        <ele>430</ele>
        <time>2022-06-12T06:42:06Z</time>
      </trkpt>
      <trkpt lat="45.94437" lon="1.27222">
        <ele>430.4</ele>
        <time>2022-06-12T06:42:10Z</time>
      </trkpt>
      <trkpt lat="45.9444" lon="1.27217">
        <ele>430.8</ele>
        <time>2022-06-12T06:42:13Z</time>
      </trkpt>
      <trkpt lat="45.94444" lon="1.27211">
        <ele>431.6</ele>
        <time>2022-06-12T06:42:17Z</time>
      </trkpt>
      <trkpt lat="45.94448" lon="1.27204">
        <ele>432.2</ele>
        <time>2022-06-12T06:42:21Z</time>
      </trkpt>
      <trkpt lat="45.94448" lon="1.27204">
        <ele>432.8</ele>
        <time>2022-06-12T06:42:22Z</time>
      </trkpt>
      <trkpt lat="45.94454" lon="1.27191">
        <ele>433.8</ele>
        <time>2022-06-12T06:42:28Z</time>
      </trkpt>
      <trkpt lat="45.94457" lon="1.27182">
        <ele>434.2</ele>
        <time>2022-06-12T06:42:32Z</time>
      </trkpt>
      <trkpt lat="45.94459" lon="1.27175">
        <ele>434.8</ele>
        <time>2022-06-12T06:42:35Z</time>
      </trkpt>
      <trkpt lat="45.94463" lon="1.27164">
        <ele>435.4</ele>
        <time>2022-06-12T06:42:40Z</time>
      </trkpt>
      <trkpt lat="45.94464" lon="1.27157">
        <ele>435.8</ele>
        <time>2022-06-12T06:42:43Z</time>
      </trkpt>
      <trkpt lat="45.94466" lon="1.27146">
        <ele>436.6</ele>
        <time>2022-06-12T06:42:48Z</time>
      </trkpt>
      <trkpt lat="45.94468" lon="1.2714">
        <ele>437</ele>
        <time>2022-06-12T06:42:51Z</time>
      </trkpt>
      <trkpt lat="45.9447" lon="1.27132">
        <ele>437.6</ele>
        <time>2022-06-12T06:42:56Z</time>
      </trkpt>
      <trkpt lat="45.94471" lon="1.27128">
        <ele>438.4</ele>
        <time>2022-06-12T06:42:58Z</time>
      </trkpt>
      <trkpt lat="45.94475" lon="1.27119">
        <ele>439.4</ele>
        <time>2022-06-12T06:43:04Z</time>
      </trkpt>
      <trkpt lat="45.94476" lon="1.27115">
        <ele>439.8</ele>
        <time>2022-06-12T06:43:06Z</time>
      </trkpt>
      <trkpt lat="45.94478" lon="1.27109">
        <ele>440.8</ele>
        <time>2022-06-12T06:43:09Z</time>
      </trkpt>
      <trkpt lat="45.94483" lon="1.27098">
        <ele>441.6</ele>
        <time>2022-06-12T06:43:15Z</time>
      </trkpt>
      <trkpt lat="45.94484" lon="1.27094">
        <ele>441.8</ele>
        <time>2022-06-12T06:43:17Z</time>
      </trkpt>
      <trkpt lat="45.94487" lon="1.27087">
        <ele>443</ele>
        <time>2022-06-12T06:43:21Z</time>
      </trkpt>
      <trkpt lat="45.94489" lon="1.27082">
        <ele>443.4</ele>
        <time>2022-06-12T06:43:24Z</time>
      </trkpt>
      <trkpt lat="45.9449" lon="1.27075">
        <ele>444</ele>
        <time>2022-06-12T06:43:28Z</time>
      </trkpt>
      <trkpt lat="45.94492" lon="1.27066">
        <ele>444.6</ele>
        <time>2022-06-12T06:43:32Z</time>
      </trkpt>
      <trkpt lat="45.94502" lon="1.27037">
        <ele>444.8</ele>
        <time>2022-06-12T06:43:42Z</time>
      </trkpt>
      <trkpt lat="45.94507" lon="1.27017">
        <ele>444.6</ele>
        <time>2022-06-12T06:43:48Z</time>
      </trkpt>
      <trkpt lat="45.9451" lon="1.27012">
        <ele>444.6</ele>
        <time>2022-06-12T06:43:49Z</time>
      </trkpt>
      <trkpt lat="45.94511" lon="1.27007">
        <ele>444.6</ele>
        <time>2022-06-12T06:43:50Z</time>
      </trkpt>
      <trkpt lat="45.94518" lon="1.26984">
        <ele>443.8</ele>
        <time>2022-06-12T06:43:54Z</time>
      </trkpt>
      <trkpt lat="45.9452" lon="1.26977">
        <ele>443.6</ele>
        <time>2022-06-12T06:43:55Z</time>
      </trkpt>
      <trkpt lat="45.94522" lon="1.26972">
        <ele>443.4</ele>
        <time>2022-06-12T06:43:56Z</time>
      </trkpt>
      <trkpt lat="45.94532" lon="1.26955">
        <ele>442</ele>
        <time>2022-06-12T06:43:59Z</time>
      </trkpt>
      <trkpt lat="45.94535" lon="1.2695">
        <ele>441.4</ele>
        <time>2022-06-12T06:44:00Z</time>
      </trkpt>
      <trkpt lat="45.94541" lon="1.26937">
        <ele>440.4</ele>
        <time>2022-06-12T06:44:02Z</time>
      </trkpt>
      <trkpt lat="45.94542" lon="1.26931">
        <ele>439.6</ele>
        <time>2022-06-12T06:44:03Z</time>
      </trkpt>
      <trkpt lat="45.94543" lon="1.26925">
        <ele>439.2</ele>
        <time>2022-06-12T06:44:04Z</time>
      </trkpt>
      <trkpt lat="45.94544" lon="1.2692">
        <ele>438</ele>
        <time>2022-06-12T06:44:05Z</time>
      </trkpt>
      <trkpt lat="45.94545" lon="1.26916">
        <ele>437.2</ele>
        <time>2022-06-12T06:44:06Z</time>
      </trkpt>
      <trkpt lat="45.94545" lon="1.26911">
        <ele>436.8</ele>
        <time>2022-06-12T06:44:07Z</time>
      </trkpt>
      <trkpt lat="45.94545" lon="1.26907">
        <ele>436.4</ele>
        <time>2022-06-12T06:44:08Z</time>
      </trkpt>
      <trkpt lat="45.94546" lon="1.26897">
        <ele>435</ele>
        <time>2022-06-12T06:44:10Z</time>
      </trkpt>
      <trkpt lat="45.94547" lon="1.26886">
        <ele>433.2</ele>
        <time>2022-06-12T06:44:12Z</time>
      </trkpt>
      <trkpt lat="45.94549" lon="1.26873">
        <ele>432.6</ele>
        <time>2022-06-12T06:44:14Z</time>
      </trkpt>
      <trkpt lat="45.94549" lon="1.26869">
        <ele>432.2</ele>
        <time>2022-06-12T06:44:15Z</time>
      </trkpt>
      <trkpt lat="45.94549" lon="1.26865">
        <ele>431.8</ele>
        <time>2022-06-12T06:44:16Z</time>
      </trkpt>
      <trkpt lat="45.94549" lon="1.26859">
        <ele>431</ele>
        <time>2022-06-12T06:44:18Z</time>
      </trkpt>
      <trkpt lat="45.94548" lon="1.26856">
        <ele>430.8</ele>
        <time>2022-06-12T06:44:19Z</time>
      </trkpt>
      <trkpt lat="45.94545" lon="1.26823">
        <ele>430.2</ele>
        <time>2022-06-12T06:44:26Z</time>
      </trkpt>
      <trkpt lat="45.94541" lon="1.2679">
        <ele>430</ele>
        <time>2022-06-12T06:44:34Z</time>
      </trkpt>
      <trkpt lat="45.94537" lon="1.26759">
        <ele>430.2</ele>
        <time>2022-06-12T06:44:40Z</time>
      </trkpt>
      <trkpt lat="45.94535" lon="1.26748">
        <ele>430.2</ele>
        <time>2022-06-12T06:44:42Z</time>
      </trkpt>
      <trkpt lat="45.94532" lon="1.26731">
        <ele>430.2</ele>
        <time>2022-06-12T06:44:45Z</time>
      </trkpt>
      <trkpt lat="45.94525" lon="1.26705">
        <ele>431.2</ele>
        <time>2022-06-12T06:44:51Z</time>
      </trkpt>
      <trkpt lat="45.94523" lon="1.26698">
        <ele>432</ele>
        <time>2022-06-12T06:44:53Z</time>
      </trkpt>
      <trkpt lat="45.94518" lon="1.26686">
        <ele>433.2</ele>
        <time>2022-06-12T06:44:56Z</time>
      </trkpt>
      <trkpt lat="45.94516" lon="1.26678">
        <ele>433.8</ele>
        <time>2022-06-12T06:44:59Z</time>
      </trkpt>
      <trkpt lat="45.94513" lon="1.26667">
        <ele>434.2</ele>
        <time>2022-06-12T06:45:02Z</time>
      </trkpt>
      <trkpt lat="45.94509" lon="1.2665">
        <ele>435.4</ele>
        <time>2022-06-12T06:45:06Z</time>
      </trkpt>
      <trkpt lat="45.94508" lon="1.26645">
        <ele>435.6</ele>
        <time>2022-06-12T06:45:07Z</time>
      </trkpt>
      <trkpt lat="45.94505" lon="1.26633">
        <ele>436.4</ele>
        <time>2022-06-12T06:45:10Z</time>
      </trkpt>
      <trkpt lat="45.94502" lon="1.2662">
        <ele>437.6</ele>
        <time>2022-06-12T06:45:14Z</time>
      </trkpt>
      <trkpt lat="45.94493" lon="1.26598">
        <ele>438.4</ele>
        <time>2022-06-12T06:45:20Z</time>
      </trkpt>
      <trkpt lat="45.94493" lon="1.26592">
        <ele>438.6</ele>
        <time>2022-06-12T06:45:22Z</time>
      </trkpt>
      <trkpt lat="45.94489" lon="1.2658">
        <ele>438.6</ele>
        <time>2022-06-12T06:45:26Z</time>
      </trkpt>
      <trkpt lat="45.94482" lon="1.26556">
        <ele>438.2</ele>
        <time>2022-06-12T06:45:32Z</time>
      </trkpt>
      <trkpt lat="45.94481" lon="1.26552">
        <ele>438</ele>
        <time>2022-06-12T06:45:33Z</time>
      </trkpt>
      <trkpt lat="45.94473" lon="1.26533">
        <ele>437.6</ele>
        <time>2022-06-12T06:45:38Z</time>
      </trkpt>
      <trkpt lat="45.94472" lon="1.26529">
        <ele>437.6</ele>
        <time>2022-06-12T06:45:39Z</time>
      </trkpt>
      <trkpt lat="45.94473" lon="1.26515">
        <ele>437.6</ele>
        <time>2022-06-12T06:45:43Z</time>
      </trkpt>
      <trkpt lat="45.94473" lon="1.26512">
        <ele>437.6</ele>
        <time>2022-06-12T06:45:44Z</time>
      </trkpt>
      <trkpt lat="45.94467" lon="1.26486">
        <ele>437.6</ele>
        <time>2022-06-12T06:45:50Z</time>
      </trkpt>
      <trkpt lat="45.94462" lon="1.26454">
        <ele>438</ele>
        <time>2022-06-12T06:45:58Z</time>
      </trkpt>
      <trkpt lat="45.94461" lon="1.2645">
        <ele>438.2</ele>
        <time>2022-06-12T06:45:59Z</time>
      </trkpt>
      <trkpt lat="45.9446" lon="1.26443">
        <ele>438.8</ele>
        <time>2022-06-12T06:46:01Z</time>
      </trkpt>
      <trkpt lat="45.94458" lon="1.26435">
        <ele>439.6</ele>
        <time>2022-06-12T06:46:04Z</time>
      </trkpt>
      <trkpt lat="45.94456" lon="1.26426">
        <ele>440</ele>
        <time>2022-06-12T06:46:07Z</time>
      </trkpt>
      <trkpt lat="45.94453" lon="1.26405">
        <ele>440.6</ele>
        <time>2022-06-12T06:46:13Z</time>
      </trkpt>
      <trkpt lat="45.94455" lon="1.2639">
        <ele>440.8</ele>
        <time>2022-06-12T06:46:17Z</time>
      </trkpt>
      <trkpt lat="45.94455" lon="1.26387">
        <ele>441</ele>
        <time>2022-06-12T06:46:18Z</time>
      </trkpt>
      <trkpt lat="45.94455" lon="1.26382">
        <ele>440.8</ele>
        <time>2022-06-12T06:46:19Z</time>
      </trkpt>
      <trkpt lat="45.94455" lon="1.26367">
        <ele>440</ele>
        <time>2022-06-12T06:46:23Z</time>
      </trkpt>
      <trkpt lat="45.94455" lon="1.2635">
        <ele>439.2</ele>
        <time>2022-06-12T06:46:28Z</time>
      </trkpt>
      <trkpt lat="45.94453" lon="1.26346">
        <ele>438.6</ele>
        <time>2022-06-12T06:46:29Z</time>
      </trkpt>
      <trkpt lat="45.94449" lon="1.26343">
        <ele>438</ele>
        <time>2022-06-12T06:46:30Z</time>
      </trkpt>
      <trkpt lat="45.94446" lon="1.26339">
        <ele>437.6</ele>
        <time>2022-06-12T06:46:31Z</time>
      </trkpt>
      <trkpt lat="45.94439" lon="1.26333">
        <ele>436.6</ele>
        <time>2022-06-12T06:46:33Z</time>
      </trkpt>
      <trkpt lat="45.94435" lon="1.26331">
        <ele>436.2</ele>
        <time>2022-06-12T06:46:34Z</time>
      </trkpt>
      <trkpt lat="45.9443" lon="1.26329">
        <ele>436.2</ele>
        <time>2022-06-12T06:46:35Z</time>
      </trkpt>
      <trkpt lat="45.94422" lon="1.26324">
        <ele>436</ele>
        <time>2022-06-12T06:46:37Z</time>
      </trkpt>
      <trkpt lat="45.94419" lon="1.26322">
        <ele>435.6</ele>
        <time>2022-06-12T06:46:38Z</time>
      </trkpt>
      <trkpt lat="45.94413" lon="1.26312">
        <ele>435</ele>
        <time>2022-06-12T06:46:40Z</time>
      </trkpt>
      <trkpt lat="45.9441" lon="1.26305">
        <ele>435</ele>
        <time>2022-06-12T06:46:41Z</time>
      </trkpt>
      <trkpt lat="45.94405" lon="1.26294">
        <ele>434.8</ele>
        <time>2022-06-12T06:46:43Z</time>
      </trkpt>
      <trkpt lat="45.944" lon="1.26281">
        <ele>434.8</ele>
        <time>2022-06-12T06:46:45Z</time>
      </trkpt>
      <trkpt lat="45.94398" lon="1.26275">
        <ele>434.8</ele>
        <time>2022-06-12T06:46:46Z</time>
      </trkpt>
      <trkpt lat="45.94395" lon="1.26258">
        <ele>435</ele>
        <time>2022-06-12T06:46:48Z</time>
      </trkpt>
      <trkpt lat="45.94393" lon="1.26242">
        <ele>434.8</ele>
        <time>2022-06-12T06:46:51Z</time>
      </trkpt>
      <trkpt lat="45.94391" lon="1.2623">
        <ele>434.6</ele>
        <time>2022-06-12T06:46:53Z</time>
      </trkpt>
      <trkpt lat="45.94389" lon="1.26208">
        <ele>434</ele>
        <time>2022-06-12T06:46:56Z</time>
      </trkpt>
      <trkpt lat="45.94387" lon="1.26196">
        <ele>433.6</ele>
        <time>2022-06-12T06:46:57Z</time>
      </trkpt>
      <trkpt lat="45.9438" lon="1.26169">
        <ele>432.6</ele>
        <time>2022-06-12T06:46:59Z</time>
      </trkpt>
      <trkpt lat="45.94375" lon="1.26149">
        <ele>432.6</ele>
        <time>2022-06-12T06:47:01Z</time>
      </trkpt>
      <trkpt lat="45.94367" lon="1.26118">
        <ele>432</ele>
        <time>2022-06-12T06:47:04Z</time>
      </trkpt>
      <trkpt lat="45.94362" lon="1.26094">
        <ele>431.4</ele>
        <time>2022-06-12T06:47:06Z</time>
      </trkpt>
      <trkpt lat="45.9436" lon="1.26082">
        <ele>431.2</ele>
        <time>2022-06-12T06:47:07Z</time>
      </trkpt>
      <trkpt lat="45.94359" lon="1.26068">
        <ele>430.8</ele>
        <time>2022-06-12T06:47:08Z</time>
      </trkpt>
      <trkpt lat="45.94359" lon="1.26045">
        <ele>430.6</ele>
        <time>2022-06-12T06:47:10Z</time>
      </trkpt>
      <trkpt lat="45.9436" lon="1.26036">
        <ele>430.4</ele>
        <time>2022-06-12T06:47:11Z</time>
      </trkpt>
      <trkpt lat="45.94362" lon="1.2603">
        <ele>430.2</ele>
        <time>2022-06-12T06:47:12Z</time>
      </trkpt>
      <trkpt lat="45.94369" lon="1.26004">
        <ele>430.4</ele>
        <time>2022-06-12T06:47:17Z</time>
      </trkpt>
      <trkpt lat="45.94382" lon="1.25976">
        <ele>430.6</ele>
        <time>2022-06-12T06:47:22Z</time>
      </trkpt>
      <trkpt lat="45.944" lon="1.25938">
        <ele>430.2</ele>
        <time>2022-06-12T06:47:27Z</time>
      </trkpt>
      <trkpt lat="45.94412" lon="1.25898">
        <ele>430.4</ele>
        <time>2022-06-12T06:47:32Z</time>
      </trkpt>
      <trkpt lat="45.94409" lon="1.25874">
        <ele>430.6</ele>
        <time>2022-06-12T06:47:35Z</time>
      </trkpt>
      <trkpt lat="45.94406" lon="1.25859">
        <ele>430.8</ele>
        <time>2022-06-12T06:47:37Z</time>
      </trkpt>
      <trkpt lat="45.94404" lon="1.25853">
        <ele>430.8</ele>
        <time>2022-06-12T06:47:38Z</time>
      </trkpt>
      <trkpt lat="45.94393" lon="1.25829">
        <ele>431.2</ele>
        <time>2022-06-12T06:47:42Z</time>
      </trkpt>
      <trkpt lat="45.94391" lon="1.25816">
        <ele>431.2</ele>
        <time>2022-06-12T06:47:44Z</time>
      </trkpt>
      <trkpt lat="45.94392" lon="1.25803">
        <ele>431.4</ele>
        <time>2022-06-12T06:47:46Z</time>
      </trkpt>
      <trkpt lat="45.94398" lon="1.25789">
        <ele>431</ele>
        <time>2022-06-12T06:47:48Z</time>
      </trkpt>
      <trkpt lat="45.94402" lon="1.25774">
        <ele>429.8</ele>
        <time>2022-06-12T06:47:50Z</time>
      </trkpt>
      <trkpt lat="45.94406" lon="1.25767">
        <ele>429.4</ele>
        <time>2022-06-12T06:47:51Z</time>
      </trkpt>
      <trkpt lat="45.94418" lon="1.25742">
        <ele>428.4</ele>
        <time>2022-06-12T06:47:55Z</time>
      </trkpt>
      <trkpt lat="45.9442" lon="1.25735">
        <ele>428.2</ele>
        <time>2022-06-12T06:47:56Z</time>
      </trkpt>
      <trkpt lat="45.94438" lon="1.25705">
        <ele>429.2</ele>
        <time>2022-06-12T06:48:01Z</time>
      </trkpt>
      <trkpt lat="45.94466" lon="1.25662">
        <ele>429</ele>
        <time>2022-06-12T06:48:08Z</time>
      </trkpt>
      <trkpt lat="45.94478" lon="1.25643">
        <ele>427.2</ele>
        <time>2022-06-12T06:48:11Z</time>
      </trkpt>
      <trkpt lat="45.94487" lon="1.25631">
        <ele>426</ele>
        <time>2022-06-12T06:48:13Z</time>
      </trkpt>
      <trkpt lat="45.94491" lon="1.25625">
        <ele>425.8</ele>
        <time>2022-06-12T06:48:14Z</time>
      </trkpt>
      <trkpt lat="45.94495" lon="1.25618">
        <ele>424.4</ele>
        <time>2022-06-12T06:48:15Z</time>
      </trkpt>
      <trkpt lat="45.94501" lon="1.2561">
        <ele>422.6</ele>
        <time>2022-06-12T06:48:16Z</time>
      </trkpt>
      <trkpt lat="45.94507" lon="1.25601">
        <ele>420.8</ele>
        <time>2022-06-12T06:48:17Z</time>
      </trkpt>
      <trkpt lat="45.94513" lon="1.25593">
        <ele>419.4</ele>
        <time>2022-06-12T06:48:18Z</time>
      </trkpt>
      <trkpt lat="45.9452" lon="1.25583">
        <ele>418</ele>
        <time>2022-06-12T06:48:19Z</time>
      </trkpt>
      <trkpt lat="45.94525" lon="1.25575">
        <ele>416.6</ele>
        <time>2022-06-12T06:48:20Z</time>
      </trkpt>
      <trkpt lat="45.94533" lon="1.25561">
        <ele>413.2</ele>
        <time>2022-06-12T06:48:22Z</time>
      </trkpt>
      <trkpt lat="45.94537" lon="1.25556">
        <ele>411.8</ele>
        <time>2022-06-12T06:48:23Z</time>
      </trkpt>
      <trkpt lat="45.9454" lon="1.25553">
        <ele>410.4</ele>
        <time>2022-06-12T06:48:24Z</time>
      </trkpt>
      <trkpt lat="45.94544" lon="1.25553">
        <ele>409.4</ele>
        <time>2022-06-12T06:48:25Z</time>
      </trkpt>
      <trkpt lat="45.94546" lon="1.25554">
        <ele>409</ele>
        <time>2022-06-12T06:48:26Z</time>
      </trkpt>
      <trkpt lat="45.94555" lon="1.25558">
        <ele>408.4</ele>
        <time>2022-06-12T06:48:30Z</time>
      </trkpt>
      <trkpt lat="45.94563" lon="1.25546">
        <ele>408</ele>
        <time>2022-06-12T06:48:33Z</time>
      </trkpt>
      <trkpt lat="45.94568" lon="1.25538">
        <ele>408</ele>
        <time>2022-06-12T06:48:34Z</time>
      </trkpt>
      <trkpt lat="45.94579" lon="1.25517">
        <ele>407.8</ele>
        <time>2022-06-12T06:48:37Z</time>
      </trkpt>
      <trkpt lat="45.94605" lon="1.25469">
        <ele>407.4</ele>
        <time>2022-06-12T06:48:43Z</time>
      </trkpt>
      <trkpt lat="45.94614" lon="1.25454">
        <ele>406.8</ele>
        <time>2022-06-12T06:48:45Z</time>
      </trkpt>
      <trkpt lat="45.94637" lon="1.25419">
        <ele>406.8</ele>
        <time>2022-06-12T06:48:50Z</time>
      </trkpt>
      <trkpt lat="45.94642" lon="1.25414">
        <ele>406.8</ele>
        <time>2022-06-12T06:48:51Z</time>
      </trkpt>
      <trkpt lat="45.94648" lon="1.2541">
        <ele>406.8</ele>
        <time>2022-06-12T06:48:52Z</time>
      </trkpt>
      <trkpt lat="45.94664" lon="1.25404">
        <ele>407.2</ele>
        <time>2022-06-12T06:48:55Z</time>
      </trkpt>
      <trkpt lat="45.94705" lon="1.2539">
        <ele>407.8</ele>
        <time>2022-06-12T06:49:03Z</time>
      </trkpt>
      <trkpt lat="45.94719" lon="1.25385">
        <ele>409</ele>
        <time>2022-06-12T06:49:06Z</time>
      </trkpt>
      <trkpt lat="45.94737" lon="1.25375">
        <ele>409.6</ele>
        <time>2022-06-12T06:49:10Z</time>
      </trkpt>
      <trkpt lat="45.94747" lon="1.2537">
        <ele>409.6</ele>
        <time>2022-06-12T06:49:12Z</time>
      </trkpt>
      <trkpt lat="45.94766" lon="1.25356">
        <ele>409.6</ele>
        <time>2022-06-12T06:49:16Z</time>
      </trkpt>
      <trkpt lat="45.9479" lon="1.25341">
        <ele>409.2</ele>
        <time>2022-06-12T06:49:21Z</time>
      </trkpt>
      <trkpt lat="45.94806" lon="1.2533">
        <ele>408.8</ele>
        <time>2022-06-12T06:49:24Z</time>
      </trkpt>
      <trkpt lat="45.94816" lon="1.25319">
        <ele>408.4</ele>
        <time>2022-06-12T06:49:26Z</time>
      </trkpt>
      <trkpt lat="45.94823" lon="1.25305">
        <ele>408</ele>
        <time>2022-06-12T06:49:28Z</time>
      </trkpt>
      <trkpt lat="45.94825" lon="1.25296">
        <ele>407.8</ele>
        <time>2022-06-12T06:49:29Z</time>
      </trkpt>
      <trkpt lat="45.94826" lon="1.25287">
        <ele>407.6</ele>
        <time>2022-06-12T06:49:30Z</time>
      </trkpt>
      <trkpt lat="45.94827" lon="1.25267">
        <ele>406.8</ele>
        <time>2022-06-12T06:49:32Z</time>
      </trkpt>
      <trkpt lat="45.94825" lon="1.25256">
        <ele>406.4</ele>
        <time>2022-06-12T06:49:33Z</time>
      </trkpt>
      <trkpt lat="45.94822" lon="1.25246">
        <ele>406.2</ele>
        <time>2022-06-12T06:49:34Z</time>
      </trkpt>
      <trkpt lat="45.94813" lon="1.25225">
        <ele>405.4</ele>
        <time>2022-06-12T06:49:36Z</time>
      </trkpt>
      <trkpt lat="45.94809" lon="1.25215">
        <ele>404.8</ele>
        <time>2022-06-12T06:49:37Z</time>
      </trkpt>
      <trkpt lat="45.94804" lon="1.25205">
        <ele>404.2</ele>
        <time>2022-06-12T06:49:38Z</time>
      </trkpt>
      <trkpt lat="45.94795" lon="1.25185">
        <ele>402.6</ele>
        <time>2022-06-12T06:49:40Z</time>
      </trkpt>
      <trkpt lat="45.94785" lon="1.25159">
        <ele>401.2</ele>
        <time>2022-06-12T06:49:43Z</time>
      </trkpt>
      <trkpt lat="45.94783" lon="1.25144">
        <ele>400</ele>
        <time>2022-06-12T06:49:45Z</time>
      </trkpt>
      <trkpt lat="45.94783" lon="1.25136">
        <ele>399.6</ele>
        <time>2022-06-12T06:49:46Z</time>
      </trkpt>
      <trkpt lat="45.94785" lon="1.25127">
        <ele>399.4</ele>
        <time>2022-06-12T06:49:47Z</time>
      </trkpt>
      <trkpt lat="45.94789" lon="1.25109">
        <ele>398.8</ele>
        <time>2022-06-12T06:49:49Z</time>
      </trkpt>
      <trkpt lat="45.9479" lon="1.25099">
        <ele>398.6</ele>
        <time>2022-06-12T06:49:50Z</time>
      </trkpt>
      <trkpt lat="45.9479" lon="1.25078">
        <ele>398.2</ele>
        <time>2022-06-12T06:49:52Z</time>
      </trkpt>
      <trkpt lat="45.94788" lon="1.25058">
        <ele>397.8</ele>
        <time>2022-06-12T06:49:54Z</time>
      </trkpt>
      <trkpt lat="45.94787" lon="1.25048">
        <ele>397.6</ele>
        <time>2022-06-12T06:49:55Z</time>
      </trkpt>
      <trkpt lat="45.94787" lon="1.25028">
        <ele>397.4</ele>
        <time>2022-06-12T06:49:57Z</time>
      </trkpt>
      <trkpt lat="45.94788" lon="1.25018">
        <ele>397.4</ele>
        <time>2022-06-12T06:49:58Z</time>
      </trkpt>
      <trkpt lat="45.94791" lon="1.25009">
        <ele>397.2</ele>
        <time>2022-06-12T06:49:59Z</time>
      </trkpt>
      <trkpt lat="45.948" lon="1.24994">
        <ele>396.6</ele>
        <time>2022-06-12T06:50:01Z</time>
      </trkpt>
      <trkpt lat="45.9483" lon="1.24962">
        <ele>395.8</ele>
        <time>2022-06-12T06:50:06Z</time>
      </trkpt>
      <trkpt lat="45.94851" lon="1.24935">
        <ele>395.4</ele>
        <time>2022-06-12T06:50:10Z</time>
      </trkpt>
      <trkpt lat="45.9486" lon="1.24922">
        <ele>395.2</ele>
        <time>2022-06-12T06:50:12Z</time>
      </trkpt>
      <trkpt lat="45.94877" lon="1.24887">
        <ele>394.8</ele>
        <time>2022-06-12T06:50:17Z</time>
      </trkpt>
      <trkpt lat="45.94884" lon="1.24874">
        <ele>394.6</ele>
        <time>2022-06-12T06:50:19Z</time>
      </trkpt>
      <trkpt lat="45.94888" lon="1.24868">
        <ele>394.4</ele>
        <time>2022-06-12T06:50:20Z</time>
      </trkpt>
      <trkpt lat="45.94898" lon="1.24863">
        <ele>394</ele>
        <time>2022-06-12T06:50:22Z</time>
      </trkpt>
      <trkpt lat="45.94909" lon="1.24862">
        <ele>393.6</ele>
        <time>2022-06-12T06:50:24Z</time>
      </trkpt>
      <trkpt lat="45.94919" lon="1.24864">
        <ele>393.4</ele>
        <time>2022-06-12T06:50:26Z</time>
      </trkpt>
      <trkpt lat="45.94923" lon="1.24866">
        <ele>393.4</ele>
        <time>2022-06-12T06:50:27Z</time>
      </trkpt>
      <trkpt lat="45.94927" lon="1.24869">
        <ele>393.4</ele>
        <time>2022-06-12T06:50:28Z</time>
      </trkpt>
      <trkpt lat="45.94942" lon="1.24883">
        <ele>393.8</ele>
        <time>2022-06-12T06:50:32Z</time>
      </trkpt>
      <trkpt lat="45.9497" lon="1.24905">
        <ele>394.6</ele>
        <time>2022-06-12T06:50:40Z</time>
      </trkpt>
      <trkpt lat="45.94981" lon="1.24914">
        <ele>395.4</ele>
        <time>2022-06-12T06:50:43Z</time>
      </trkpt>
      <trkpt lat="45.94994" lon="1.24924">
        <ele>396.4</ele>
        <time>2022-06-12T06:50:47Z</time>
      </trkpt>
      <trkpt lat="45.94998" lon="1.24926">
        <ele>396.8</ele>
        <time>2022-06-12T06:50:48Z</time>
      </trkpt>
      <trkpt lat="45.95018" lon="1.24938">
        <ele>397.6</ele>
        <time>2022-06-12T06:50:53Z</time>
      </trkpt>
      <trkpt lat="45.95031" lon="1.24944">
        <ele>397.8</ele>
        <time>2022-06-12T06:50:56Z</time>
      </trkpt>
      <trkpt lat="45.95056" lon="1.24964">
        <ele>398.2</ele>
        <time>2022-06-12T06:51:03Z</time>
      </trkpt>
      <trkpt lat="45.95062" lon="1.2497">
        <ele>398.6</ele>
        <time>2022-06-12T06:51:05Z</time>
      </trkpt>
      <trkpt lat="45.95073" lon="1.24986">
        <ele>399.4</ele>
        <time>2022-06-12T06:51:10Z</time>
      </trkpt>
      <trkpt lat="45.95078" lon="1.24993">
        <ele>399.6</ele>
        <time>2022-06-12T06:51:12Z</time>
      </trkpt>
      <trkpt lat="45.95086" lon="1.25012">
        <ele>400.2</ele>
        <time>2022-06-12T06:51:18Z</time>
      </trkpt>
      <trkpt lat="45.95092" lon="1.25029">
        <ele>401</ele>
        <time>2022-06-12T06:51:24Z</time>
      </trkpt>
      <trkpt lat="45.95095" lon="1.25034">
        <ele>401.4</ele>
        <time>2022-06-12T06:51:26Z</time>
      </trkpt>
      <trkpt lat="45.95101" lon="1.25045">
        <ele>402</ele>
        <time>2022-06-12T06:51:30Z</time>
      </trkpt>
      <trkpt lat="45.95105" lon="1.2505">
        <ele>402.6</ele>
        <time>2022-06-12T06:51:32Z</time>
      </trkpt>
      <trkpt lat="45.95108" lon="1.25058">
        <ele>403.4</ele>
        <time>2022-06-12T06:51:35Z</time>
      </trkpt>
      <trkpt lat="45.95114" lon="1.2507">
        <ele>404</ele>
        <time>2022-06-12T06:51:39Z</time>
      </trkpt>
      <trkpt lat="45.95118" lon="1.25076">
        <ele>404.4</ele>
        <time>2022-06-12T06:51:41Z</time>
      </trkpt>
      <trkpt lat="45.95133" lon="1.25099">
        <ele>404.8</ele>
        <time>2022-06-12T06:51:47Z</time>
      </trkpt>
      <trkpt lat="45.95139" lon="1.25113">
        <ele>404.4</ele>
        <time>2022-06-12T06:51:50Z</time>
      </trkpt>
      <trkpt lat="45.95147" lon="1.25127">
        <ele>403.8</ele>
        <time>2022-06-12T06:51:53Z</time>
      </trkpt>
      <trkpt lat="45.95151" lon="1.25135">
        <ele>403</ele>
        <time>2022-06-12T06:51:55Z</time>
      </trkpt>
      <trkpt lat="45.95154" lon="1.25139">
        <ele>402.8</ele>
        <time>2022-06-12T06:51:56Z</time>
      </trkpt>
      <trkpt lat="45.95166" lon="1.2515">
        <ele>401.8</ele>
        <time>2022-06-12T06:51:59Z</time>
      </trkpt>
      <trkpt lat="45.95185" lon="1.25166">
        <ele>400.6</ele>
        <time>2022-06-12T06:52:03Z</time>
      </trkpt>
      <trkpt lat="45.95196" lon="1.25176">
        <ele>400.4</ele>
        <time>2022-06-12T06:52:05Z</time>
      </trkpt>
      <trkpt lat="45.9523" lon="1.25206">
        <ele>399.8</ele>
        <time>2022-06-12T06:52:11Z</time>
      </trkpt>
      <trkpt lat="45.95258" lon="1.2523">
        <ele>399.6</ele>
        <time>2022-06-12T06:52:16Z</time>
      </trkpt>
      <trkpt lat="45.95264" lon="1.25234">
        <ele>399.6</ele>
        <time>2022-06-12T06:52:17Z</time>
      </trkpt>
      <trkpt lat="45.95294" lon="1.2526">
        <ele>398.8</ele>
        <time>2022-06-12T06:52:23Z</time>
      </trkpt>
      <trkpt lat="45.95338" lon="1.25293">
        <ele>399.2</ele>
        <time>2022-06-12T06:52:31Z</time>
      </trkpt>
      <trkpt lat="45.95357" lon="1.25309">
        <ele>399.4</ele>
        <time>2022-06-12T06:52:35Z</time>
      </trkpt>
      <trkpt lat="45.95362" lon="1.25313">
        <ele>399.4</ele>
        <time>2022-06-12T06:52:36Z</time>
      </trkpt>
      <trkpt lat="45.95367" lon="1.25315">
        <ele>399.4</ele>
        <time>2022-06-12T06:52:37Z</time>
      </trkpt>
      <trkpt lat="45.95389" lon="1.2532">
        <ele>399.4</ele>
        <time>2022-06-12T06:52:41Z</time>
      </trkpt>
      <trkpt lat="45.95415" lon="1.25332">
        <ele>400</ele>
        <time>2022-06-12T06:52:47Z</time>
      </trkpt>
      <trkpt lat="45.95431" lon="1.25336">
        <ele>400.6</ele>
        <time>2022-06-12T06:52:50Z</time>
      </trkpt>
      <trkpt lat="45.95436" lon="1.25334">
        <ele>401</ele>
        <time>2022-06-12T06:52:51Z</time>
      </trkpt>
      <trkpt lat="45.95441" lon="1.25332">
        <ele>401</ele>
        <time>2022-06-12T06:52:52Z</time>
      </trkpt>
      <trkpt lat="45.95451" lon="1.25324">
        <ele>401.2</ele>
        <time>2022-06-12T06:52:54Z</time>
      </trkpt>
      <trkpt lat="45.95455" lon="1.2532">
        <ele>401.2</ele>
        <time>2022-06-12T06:52:55Z</time>
      </trkpt>
      <trkpt lat="45.95478" lon="1.25295">
        <ele>401.8</ele>
        <time>2022-06-12T06:53:01Z</time>
      </trkpt>
      <trkpt lat="45.95485" lon="1.25286">
        <ele>402</ele>
        <time>2022-06-12T06:53:03Z</time>
      </trkpt>
      <trkpt lat="45.95501" lon="1.25268">
        <ele>401.8</ele>
        <time>2022-06-12T06:53:07Z</time>
      </trkpt>
      <trkpt lat="45.95512" lon="1.2526">
        <ele>401.8</ele>
        <time>2022-06-12T06:53:09Z</time>
      </trkpt>
      <trkpt lat="45.95553" lon="1.25231">
        <ele>401.8</ele>
        <time>2022-06-12T06:53:17Z</time>
      </trkpt>
      <trkpt lat="45.9559" lon="1.25204">
        <ele>402.8</ele>
        <time>2022-06-12T06:53:25Z</time>
      </trkpt>
      <trkpt lat="45.95627" lon="1.25178">
        <ele>402.8</ele>
        <time>2022-06-12T06:53:32Z</time>
      </trkpt>
      <trkpt lat="45.95645" lon="1.25164">
        <ele>401.8</ele>
        <time>2022-06-12T06:53:35Z</time>
      </trkpt>
      <trkpt lat="45.95658" lon="1.25156">
        <ele>401.4</ele>
        <time>2022-06-12T06:53:37Z</time>
      </trkpt>
      <trkpt lat="45.95664" lon="1.25155">
        <ele>401.2</ele>
        <time>2022-06-12T06:53:38Z</time>
      </trkpt>
      <trkpt lat="45.9567" lon="1.25157">
        <ele>401</ele>
        <time>2022-06-12T06:53:39Z</time>
      </trkpt>
      <trkpt lat="45.95676" lon="1.2516">
        <ele>400.8</ele>
        <time>2022-06-12T06:53:40Z</time>
      </trkpt>
      <trkpt lat="45.95692" lon="1.25169">
        <ele>400.4</ele>
        <time>2022-06-12T06:53:43Z</time>
      </trkpt>
      <trkpt lat="45.95714" lon="1.25184">
        <ele>401.2</ele>
        <time>2022-06-12T06:53:48Z</time>
      </trkpt>
      <trkpt lat="45.95717" lon="1.25187">
        <ele>401.6</ele>
        <time>2022-06-12T06:53:49Z</time>
      </trkpt>
      <trkpt lat="45.9572" lon="1.25189">
        <ele>401.8</ele>
        <time>2022-06-12T06:53:50Z</time>
      </trkpt>
      <trkpt lat="45.9573" lon="1.25198">
        <ele>402.8</ele>
        <time>2022-06-12T06:53:54Z</time>
      </trkpt>
      <trkpt lat="45.95737" lon="1.25205">
        <ele>403.8</ele>
        <time>2022-06-12T06:53:57Z</time>
      </trkpt>
      <trkpt lat="45.95743" lon="1.25213">
        <ele>404.4</ele>
        <time>2022-06-12T06:54:00Z</time>
      </trkpt>
      <trkpt lat="45.95752" lon="1.25227">
        <ele>405</ele>
        <time>2022-06-12T06:54:04Z</time>
      </trkpt>
      <trkpt lat="45.95756" lon="1.25234">
        <ele>405</ele>
        <time>2022-06-12T06:54:06Z</time>
      </trkpt>
      <trkpt lat="45.95763" lon="1.25256">
        <ele>405.8</ele>
        <time>2022-06-12T06:54:12Z</time>
      </trkpt>
      <trkpt lat="45.95764" lon="1.2526">
        <ele>406</ele>
        <time>2022-06-12T06:54:13Z</time>
      </trkpt>
      <trkpt lat="45.9577" lon="1.25275">
        <ele>406.8</ele>
        <time>2022-06-12T06:54:18Z</time>
      </trkpt>
      <trkpt lat="45.95771" lon="1.25278">
        <ele>407</ele>
        <time>2022-06-12T06:54:19Z</time>
      </trkpt>
      <trkpt lat="45.95777" lon="1.25287">
        <ele>407.6</ele>
        <time>2022-06-12T06:54:23Z</time>
      </trkpt>
      <trkpt lat="45.9578" lon="1.25295">
        <ele>408</ele>
        <time>2022-06-12T06:54:26Z</time>
      </trkpt>
      <trkpt lat="45.95781" lon="1.25305">
        <ele>408.4</ele>
        <time>2022-06-12T06:54:29Z</time>
      </trkpt>
      <trkpt lat="45.95783" lon="1.25317">
        <ele>409.2</ele>
        <time>2022-06-12T06:54:33Z</time>
      </trkpt>
      <trkpt lat="45.95784" lon="1.25326">
        <ele>409.4</ele>
        <time>2022-06-12T06:54:36Z</time>
      </trkpt>
      <trkpt lat="45.95786" lon="1.25331">
        <ele>409.8</ele>
        <time>2022-06-12T06:54:38Z</time>
      </trkpt>
      <trkpt lat="45.95787" lon="1.25336">
        <ele>410.2</ele>
        <time>2022-06-12T06:54:40Z</time>
      </trkpt>
      <trkpt lat="45.95788" lon="1.25341">
        <ele>410.6</ele>
        <time>2022-06-12T06:54:42Z</time>
      </trkpt>
      <trkpt lat="45.9579" lon="1.25351">
        <ele>411.2</ele>
        <time>2022-06-12T06:54:46Z</time>
      </trkpt>
      <trkpt lat="45.95793" lon="1.25355">
        <ele>411.4</ele>
        <time>2022-06-12T06:54:48Z</time>
      </trkpt>
      <trkpt lat="45.95795" lon="1.25357">
        <ele>411.6</ele>
        <time>2022-06-12T06:54:49Z</time>
      </trkpt>
      <trkpt lat="45.95799" lon="1.25361">
        <ele>412.2</ele>
        <time>2022-06-12T06:54:52Z</time>
      </trkpt>
      <trkpt lat="45.95801" lon="1.25363">
        <ele>412.4</ele>
        <time>2022-06-12T06:54:53Z</time>
      </trkpt>
      <trkpt lat="45.95804" lon="1.25366">
        <ele>412.6</ele>
        <time>2022-06-12T06:54:55Z</time>
      </trkpt>
      <trkpt lat="45.95805" lon="1.25368">
        <ele>412.6</ele>
        <time>2022-06-12T06:54:56Z</time>
      </trkpt>
      <trkpt lat="45.95808" lon="1.2538">
        <ele>413.2</ele>
        <time>2022-06-12T06:55:00Z</time>
      </trkpt>
      <trkpt lat="45.95809" lon="1.25383">
        <ele>413.6</ele>
        <time>2022-06-12T06:55:01Z</time>
      </trkpt>
      <trkpt lat="45.95812" lon="1.25393">
        <ele>414.8</ele>
        <time>2022-06-12T06:55:05Z</time>
      </trkpt>
      <trkpt lat="45.95813" lon="1.25395">
        <ele>414.8</ele>
        <time>2022-06-12T06:55:06Z</time>
      </trkpt>
      <trkpt lat="45.95816" lon="1.25404">
        <ele>415.8</ele>
        <time>2022-06-12T06:55:10Z</time>
      </trkpt>
      <trkpt lat="45.95822" lon="1.25414">
        <ele>416.6</ele>
        <time>2022-06-12T06:55:15Z</time>
      </trkpt>
      <trkpt lat="45.95823" lon="1.25417">
        <ele>417</ele>
        <time>2022-06-12T06:55:16Z</time>
      </trkpt>
      <trkpt lat="45.95827" lon="1.25431">
        <ele>417.8</ele>
        <time>2022-06-12T06:55:21Z</time>
      </trkpt>
      <trkpt lat="45.95828" lon="1.25434">
        <ele>418</ele>
        <time>2022-06-12T06:55:22Z</time>
      </trkpt>
      <trkpt lat="45.95829" lon="1.2545">
        <ele>419</ele>
        <time>2022-06-12T06:55:28Z</time>
      </trkpt>
      <trkpt lat="45.9583" lon="1.25453">
        <ele>419.2</ele>
        <time>2022-06-12T06:55:29Z</time>
      </trkpt>
      <trkpt lat="45.95833" lon="1.25465">
        <ele>419.8</ele>
        <time>2022-06-12T06:55:34Z</time>
      </trkpt>
      <trkpt lat="45.95834" lon="1.2547">
        <ele>420</ele>
        <time>2022-06-12T06:55:36Z</time>
      </trkpt>
      <trkpt lat="45.95835" lon="1.25473">
        <ele>420.2</ele>
        <time>2022-06-12T06:55:37Z</time>
      </trkpt>
      <trkpt lat="45.9584" lon="1.25483">
        <ele>421.2</ele>
        <time>2022-06-12T06:55:43Z</time>
      </trkpt>
      <trkpt lat="45.9584" lon="1.25485">
        <ele>421.2</ele>
        <time>2022-06-12T06:55:44Z</time>
      </trkpt>
      <trkpt lat="45.95844" lon="1.25495">
        <ele>422.2</ele>
        <time>2022-06-12T06:55:49Z</time>
      </trkpt>
      <trkpt lat="45.95845" lon="1.255">
        <ele>422.4</ele>
        <time>2022-06-12T06:55:51Z</time>
      </trkpt>
      <trkpt lat="45.95852" lon="1.25509">
        <ele>423.2</ele>
        <time>2022-06-12T06:55:56Z</time>
      </trkpt>
      <trkpt lat="45.95854" lon="1.25509">
        <ele>423.4</ele>
        <time>2022-06-12T06:55:57Z</time>
      </trkpt>
      <trkpt lat="45.95867" lon="1.25502">
        <ele>423</ele>
        <time>2022-06-12T06:56:03Z</time>
      </trkpt>
      <trkpt lat="45.9587" lon="1.255">
        <ele>422.8</ele>
        <time>2022-06-12T06:56:04Z</time>
      </trkpt>
      <trkpt lat="45.95882" lon="1.25493">
        <ele>422</ele>
        <time>2022-06-12T06:56:07Z</time>
      </trkpt>
      <trkpt lat="45.95887" lon="1.2549">
        <ele>421.6</ele>
        <time>2022-06-12T06:56:08Z</time>
      </trkpt>
      <trkpt lat="45.95898" lon="1.25484">
        <ele>420.4</ele>
        <time>2022-06-12T06:56:10Z</time>
      </trkpt>
      <trkpt lat="45.9591" lon="1.25476">
        <ele>419</ele>
        <time>2022-06-12T06:56:12Z</time>
      </trkpt>
      <trkpt lat="45.95924" lon="1.25468">
        <ele>417.2</ele>
        <time>2022-06-12T06:56:14Z</time>
      </trkpt>
      <trkpt lat="45.95931" lon="1.25463">
        <ele>416.2</ele>
        <time>2022-06-12T06:56:15Z</time>
      </trkpt>
      <trkpt lat="45.95945" lon="1.25453">
        <ele>415.2</ele>
        <time>2022-06-12T06:56:17Z</time>
      </trkpt>
      <trkpt lat="45.95952" lon="1.25448">
        <ele>414.2</ele>
        <time>2022-06-12T06:56:18Z</time>
      </trkpt>
      <trkpt lat="45.95958" lon="1.25445">
        <ele>413.8</ele>
        <time>2022-06-12T06:56:19Z</time>
      </trkpt>
      <trkpt lat="45.95965" lon="1.25442">
        <ele>413</ele>
        <time>2022-06-12T06:56:20Z</time>
      </trkpt>
      <trkpt lat="45.95972" lon="1.2544">
        <ele>412.6</ele>
        <time>2022-06-12T06:56:21Z</time>
      </trkpt>
      <trkpt lat="45.95983" lon="1.25436">
        <ele>411.8</ele>
        <time>2022-06-12T06:56:22Z</time>
      </trkpt>
      <trkpt lat="45.95983" lon="1.25436">
        <ele>411.8</ele>
        <time>2022-06-12T06:56:23Z</time>
      </trkpt>
      <trkpt lat="45.95988" lon="1.25433">
        <ele>411.6</ele>
        <time>2022-06-12T06:56:24Z</time>
      </trkpt>
      <trkpt lat="45.95992" lon="1.25429">
        <ele>411.4</ele>
        <time>2022-06-12T06:56:25Z</time>
      </trkpt>
      <trkpt lat="45.96002" lon="1.25419">
        <ele>410.4</ele>
        <time>2022-06-12T06:56:27Z</time>
      </trkpt>
      <trkpt lat="45.96008" lon="1.25415">
        <ele>409.8</ele>
        <time>2022-06-12T06:56:28Z</time>
      </trkpt>
      <trkpt lat="45.96015" lon="1.2541">
        <ele>409.6</ele>
        <time>2022-06-12T06:56:29Z</time>
      </trkpt>
      <trkpt lat="45.9602" lon="1.25407">
        <ele>409.2</ele>
        <time>2022-06-12T06:56:30Z</time>
      </trkpt>
      <trkpt lat="45.96025" lon="1.25405">
        <ele>408.6</ele>
        <time>2022-06-12T06:56:31Z</time>
      </trkpt>
      <trkpt lat="45.96029" lon="1.25404">
        <ele>407.6</ele>
        <time>2022-06-12T06:56:32Z</time>
      </trkpt>
      <trkpt lat="45.96033" lon="1.25404">
        <ele>407.2</ele>
        <time>2022-06-12T06:56:33Z</time>
      </trkpt>
      <trkpt lat="45.96048" lon="1.25406">
        <ele>407</ele>
        <time>2022-06-12T06:56:37Z</time>
      </trkpt>
      <trkpt lat="45.96061" lon="1.2541">
        <ele>407</ele>
        <time>2022-06-12T06:56:40Z</time>
      </trkpt>
      <trkpt lat="45.96069" lon="1.25415">
        <ele>406.8</ele>
        <time>2022-06-12T06:56:42Z</time>
      </trkpt>
      <trkpt lat="45.96074" lon="1.25417">
        <ele>406.6</ele>
        <time>2022-06-12T06:56:43Z</time>
      </trkpt>
      <trkpt lat="45.96086" lon="1.25425">
        <ele>405.4</ele>
        <time>2022-06-12T06:56:46Z</time>
      </trkpt>
      <trkpt lat="45.96096" lon="1.25434">
        <ele>405</ele>
        <time>2022-06-12T06:56:48Z</time>
      </trkpt>
      <trkpt lat="45.96101" lon="1.25439">
        <ele>405</ele>
        <time>2022-06-12T06:56:49Z</time>
      </trkpt>
      <trkpt lat="45.96118" lon="1.25455">
        <ele>404.4</ele>
        <time>2022-06-12T06:56:53Z</time>
      </trkpt>
      <trkpt lat="45.96121" lon="1.25458">
        <ele>404.2</ele>
        <time>2022-06-12T06:56:54Z</time>
      </trkpt>
      <trkpt lat="45.96125" lon="1.25464">
        <ele>402.6</ele>
        <time>2022-06-12T06:56:56Z</time>
      </trkpt>
      <trkpt lat="45.96127" lon="1.25468">
        <ele>402.2</ele>
        <time>2022-06-12T06:56:57Z</time>
      </trkpt>
      <trkpt lat="45.96129" lon="1.25475">
        <ele>401.4</ele>
        <time>2022-06-12T06:56:59Z</time>
      </trkpt>
      <trkpt lat="45.96134" lon="1.25492">
        <ele>400.6</ele>
        <time>2022-06-12T06:57:03Z</time>
      </trkpt>
      <trkpt lat="45.96136" lon="1.2551">
        <ele>400.4</ele>
        <time>2022-06-12T06:57:06Z</time>
      </trkpt>
      <trkpt lat="45.96141" lon="1.25519">
        <ele>400</ele>
        <time>2022-06-12T06:57:08Z</time>
      </trkpt>
      <trkpt lat="45.96149" lon="1.25525">
        <ele>399.4</ele>
        <time>2022-06-12T06:57:10Z</time>
      </trkpt>
      <trkpt lat="45.96156" lon="1.25529">
        <ele>399.2</ele>
        <time>2022-06-12T06:57:11Z</time>
      </trkpt>
      <trkpt lat="45.9616" lon="1.25532">
        <ele>398.8</ele>
        <time>2022-06-12T06:57:12Z</time>
      </trkpt>
      <trkpt lat="45.96167" lon="1.25535">
        <ele>398.6</ele>
        <time>2022-06-12T06:57:13Z</time>
      </trkpt>
      <trkpt lat="45.96192" lon="1.25544">
        <ele>398</ele>
        <time>2022-06-12T06:57:18Z</time>
      </trkpt>
      <trkpt lat="45.96202" lon="1.2555">
        <ele>397.8</ele>
        <time>2022-06-12T06:57:21Z</time>
      </trkpt>
      <trkpt lat="45.96209" lon="1.25555">
        <ele>397.8</ele>
        <time>2022-06-12T06:57:23Z</time>
      </trkpt>
      <trkpt lat="45.96217" lon="1.25561">
        <ele>397.6</ele>
        <time>2022-06-12T06:57:25Z</time>
      </trkpt>
      <trkpt lat="45.96228" lon="1.25567">
        <ele>397.6</ele>
        <time>2022-06-12T06:57:27Z</time>
      </trkpt>
      <trkpt lat="45.96234" lon="1.2557">
        <ele>397.6</ele>
        <time>2022-06-12T06:57:28Z</time>
      </trkpt>
      <trkpt lat="45.96247" lon="1.25577">
        <ele>397.6</ele>
        <time>2022-06-12T06:57:30Z</time>
      </trkpt>
      <trkpt lat="45.96257" lon="1.25586">
        <ele>397.2</ele>
        <time>2022-06-12T06:57:32Z</time>
      </trkpt>
      <trkpt lat="45.96262" lon="1.2559">
        <ele>397</ele>
        <time>2022-06-12T06:57:33Z</time>
      </trkpt>
      <trkpt lat="45.96265" lon="1.25595">
        <ele>397</ele>
        <time>2022-06-12T06:57:34Z</time>
      </trkpt>
      <trkpt lat="45.96269" lon="1.25606">
        <ele>396.8</ele>
        <time>2022-06-12T06:57:36Z</time>
      </trkpt>
      <trkpt lat="45.96272" lon="1.25633">
        <ele>397.4</ele>
        <time>2022-06-12T06:57:41Z</time>
      </trkpt>
      <trkpt lat="45.96273" lon="1.25645">
        <ele>397.6</ele>
        <time>2022-06-12T06:57:43Z</time>
      </trkpt>
      <trkpt lat="45.96277" lon="1.25658">
        <ele>397.6</ele>
        <time>2022-06-12T06:57:45Z</time>
      </trkpt>
      <trkpt lat="45.96279" lon="1.25665">
        <ele>397.6</ele>
        <time>2022-06-12T06:57:46Z</time>
      </trkpt>
      <trkpt lat="45.96281" lon="1.2568">
        <ele>397.2</ele>
        <time>2022-06-12T06:57:48Z</time>
      </trkpt>
      <trkpt lat="45.96288" lon="1.25699">
        <ele>397</ele>
        <time>2022-06-12T06:57:51Z</time>
      </trkpt>
      <trkpt lat="45.96292" lon="1.25704">
        <ele>397</ele>
        <time>2022-06-12T06:57:52Z</time>
      </trkpt>
      <trkpt lat="45.96302" lon="1.2571">
        <ele>396.4</ele>
        <time>2022-06-12T06:57:54Z</time>
      </trkpt>
      <trkpt lat="45.96315" lon="1.25714">
        <ele>396.2</ele>
        <time>2022-06-12T06:57:56Z</time>
      </trkpt>
      <trkpt lat="45.9633" lon="1.25718">
        <ele>396.2</ele>
        <time>2022-06-12T06:57:58Z</time>
      </trkpt>
      <trkpt lat="45.96335" lon="1.25719">
        <ele>396</ele>
        <time>2022-06-12T06:57:59Z</time>
      </trkpt>
      <trkpt lat="45.96339" lon="1.25721">
        <ele>396</ele>
        <time>2022-06-12T06:58:00Z</time>
      </trkpt>
      <trkpt lat="45.96343" lon="1.25723">
        <ele>396</ele>
        <time>2022-06-12T06:58:01Z</time>
      </trkpt>
      <trkpt lat="45.96353" lon="1.25727">
        <ele>395.8</ele>
        <time>2022-06-12T06:58:03Z</time>
      </trkpt>
      <trkpt lat="45.96384" lon="1.25735">
        <ele>395</ele>
        <time>2022-06-12T06:58:09Z</time>
      </trkpt>
      <trkpt lat="45.96389" lon="1.25735">
        <ele>395</ele>
        <time>2022-06-12T06:58:10Z</time>
      </trkpt>
      <trkpt lat="45.96412" lon="1.25739">
        <ele>394.6</ele>
        <time>2022-06-12T06:58:14Z</time>
      </trkpt>
      <trkpt lat="45.96449" lon="1.25745">
        <ele>394.8</ele>
        <time>2022-06-12T06:58:20Z</time>
      </trkpt>
      <trkpt lat="45.96473" lon="1.25748">
        <ele>394.8</ele>
        <time>2022-06-12T06:58:25Z</time>
      </trkpt>
      <trkpt lat="45.96484" lon="1.2575">
        <ele>395.4</ele>
        <time>2022-06-12T06:58:28Z</time>
      </trkpt>
      <trkpt lat="45.96499" lon="1.2575">
        <ele>396</ele>
        <time>2022-06-12T06:58:32Z</time>
      </trkpt>
      <trkpt lat="45.96503" lon="1.25748">
        <ele>396</ele>
        <time>2022-06-12T06:58:33Z</time>
      </trkpt>
      <trkpt lat="45.96516" lon="1.25746">
        <ele>396</ele>
        <time>2022-06-12T06:58:36Z</time>
      </trkpt>
      <trkpt lat="45.96526" lon="1.25747">
        <ele>395.8</ele>
        <time>2022-06-12T06:58:39Z</time>
      </trkpt>
      <trkpt lat="45.96548" lon="1.25754">
        <ele>395.4</ele>
        <time>2022-06-12T06:58:45Z</time>
      </trkpt>
      <trkpt lat="45.96555" lon="1.25757">
        <ele>395.4</ele>
        <time>2022-06-12T06:58:47Z</time>
      </trkpt>
      <trkpt lat="45.96563" lon="1.25762">
        <ele>395.6</ele>
        <time>2022-06-12T06:58:50Z</time>
      </trkpt>
      <trkpt lat="45.96566" lon="1.25764">
        <ele>395.2</ele>
        <time>2022-06-12T06:58:51Z</time>
      </trkpt>
      <trkpt lat="45.96569" lon="1.25766">
        <ele>394.8</ele>
        <time>2022-06-12T06:58:52Z</time>
      </trkpt>
      <trkpt lat="45.96577" lon="1.25772">
        <ele>394.2</ele>
        <time>2022-06-12T06:58:54Z</time>
      </trkpt>
      <trkpt lat="45.9658" lon="1.25776">
        <ele>394</ele>
        <time>2022-06-12T06:58:55Z</time>
      </trkpt>
      <trkpt lat="45.96583" lon="1.2578">
        <ele>393.8</ele>
        <time>2022-06-12T06:58:56Z</time>
      </trkpt>
      <trkpt lat="45.96586" lon="1.25792">
        <ele>393.4</ele>
        <time>2022-06-12T06:58:58Z</time>
      </trkpt>
      <trkpt lat="45.96588" lon="1.25806">
        <ele>392.6</ele>
        <time>2022-06-12T06:59:00Z</time>
      </trkpt>
      <trkpt lat="45.96599" lon="1.25832">
        <ele>392.2</ele>
        <time>2022-06-12T06:59:03Z</time>
      </trkpt>
      <trkpt lat="45.96608" lon="1.25846">
        <ele>392.4</ele>
        <time>2022-06-12T06:59:05Z</time>
      </trkpt>
      <trkpt lat="45.96618" lon="1.25858">
        <ele>392.6</ele>
        <time>2022-06-12T06:59:07Z</time>
      </trkpt>
      <trkpt lat="45.96634" lon="1.25872">
        <ele>392.8</ele>
        <time>2022-06-12T06:59:09Z</time>
      </trkpt>
      <trkpt lat="45.9664" lon="1.25879">
        <ele>392.8</ele>
        <time>2022-06-12T06:59:10Z</time>
      </trkpt>
      <trkpt lat="45.96661" lon="1.25898">
        <ele>392.8</ele>
        <time>2022-06-12T06:59:14Z</time>
      </trkpt>
      <trkpt lat="45.96672" lon="1.25906">
        <ele>392</ele>
        <time>2022-06-12T06:59:16Z</time>
      </trkpt>
      <trkpt lat="45.96678" lon="1.2591">
        <ele>391.2</ele>
        <time>2022-06-12T06:59:17Z</time>
      </trkpt>
      <trkpt lat="45.96681" lon="1.25914">
        <ele>390.8</ele>
        <time>2022-06-12T06:59:18Z</time>
      </trkpt>
      <trkpt lat="45.96684" lon="1.25918">
        <ele>390.2</ele>
        <time>2022-06-12T06:59:19Z</time>
      </trkpt>
      <trkpt lat="45.96686" lon="1.25921">
        <ele>390</ele>
        <time>2022-06-12T06:59:20Z</time>
      </trkpt>
      <trkpt lat="45.96689" lon="1.25929">
        <ele>389.6</ele>
        <time>2022-06-12T06:59:23Z</time>
      </trkpt>
      <trkpt lat="45.96687" lon="1.25929">
        <ele>389.6</ele>
        <time>2022-06-12T06:59:25Z</time>
      </trkpt>
      <trkpt lat="45.9668" lon="1.25936">
        <ele>390.4</ele>
        <time>2022-06-12T06:59:30Z</time>
      </trkpt>
      <trkpt lat="45.96665" lon="1.25944">
        <ele>391.4</ele>
        <time>2022-06-12T06:59:36Z</time>
      </trkpt>
      <trkpt lat="45.96663" lon="1.25945">
        <ele>391.6</ele>
        <time>2022-06-12T06:59:37Z</time>
      </trkpt>
      <trkpt lat="45.96655" lon="1.25947">
        <ele>392.6</ele>
        <time>2022-06-12T06:59:41Z</time>
      </trkpt>
      <trkpt lat="45.96649" lon="1.25948">
        <ele>393</ele>
        <time>2022-06-12T06:59:44Z</time>
      </trkpt>
      <trkpt lat="45.96633" lon="1.25947">
        <ele>393.8</ele>
        <time>2022-06-12T06:59:51Z</time>
      </trkpt>
      <trkpt lat="45.96615" lon="1.25945">
        <ele>394.4</ele>
        <time>2022-06-12T06:59:57Z</time>
      </trkpt>
      <trkpt lat="45.96612" lon="1.25951">
        <ele>394.2</ele>
        <time>2022-06-12T06:59:59Z</time>
      </trkpt>
      <trkpt lat="45.9661" lon="1.25955">
        <ele>394.2</ele>
        <time>2022-06-12T07:00:00Z</time>
      </trkpt>
      <trkpt lat="45.96601" lon="1.25979">
        <ele>393.6</ele>
        <time>2022-06-12T07:00:04Z</time>
      </trkpt>
      <trkpt lat="45.96598" lon="1.25986">
        <ele>393.4</ele>
        <time>2022-06-12T07:00:05Z</time>
      </trkpt>
      <trkpt lat="45.9659" lon="1.2601">
        <ele>393.4</ele>
        <time>2022-06-12T07:00:10Z</time>
      </trkpt>
      <trkpt lat="45.96583" lon="1.26026">
        <ele>394.8</ele>
        <time>2022-06-12T07:00:15Z</time>
      </trkpt>
      <trkpt lat="45.96581" lon="1.26032">
        <ele>395.4</ele>
        <time>2022-06-12T07:00:17Z</time>
      </trkpt>
      <trkpt lat="45.9658" lon="1.26034">
        <ele>395.8</ele>
        <time>2022-06-12T07:00:18Z</time>
      </trkpt>
      <trkpt lat="45.96577" lon="1.26042">
        <ele>397</ele>
        <time>2022-06-12T07:00:21Z</time>
      </trkpt>
      <trkpt lat="45.96574" lon="1.26048">
        <ele>397.8</ele>
        <time>2022-06-12T07:00:24Z</time>
      </trkpt>
      <trkpt lat="45.96575" lon="1.2605">
        <ele>398.2</ele>
        <time>2022-06-12T07:00:25Z</time>
      </trkpt>
      <trkpt lat="45.96577" lon="1.26061">
        <ele>398.8</ele>
        <time>2022-06-12T07:00:30Z</time>
      </trkpt>
      <trkpt lat="45.9658" lon="1.26076">
        <ele>399.2</ele>
        <time>2022-06-12T07:00:35Z</time>
      </trkpt>
      <trkpt lat="45.96581" lon="1.26078">
        <ele>399.2</ele>
        <time>2022-06-12T07:00:36Z</time>
      </trkpt>
      <trkpt lat="45.96584" lon="1.26097">
        <ele>399.2</ele>
        <time>2022-06-12T07:00:42Z</time>
      </trkpt>
      <trkpt lat="45.9659" lon="1.26126">
        <ele>399.4</ele>
        <time>2022-06-12T07:00:49Z</time>
      </trkpt>
      <trkpt lat="45.96594" lon="1.26154">
        <ele>399.6</ele>
        <time>2022-06-12T07:00:55Z</time>
      </trkpt>
      <trkpt lat="45.96595" lon="1.2617">
        <ele>400.2</ele>
        <time>2022-06-12T07:00:58Z</time>
      </trkpt>
      <trkpt lat="45.96598" lon="1.26178">
        <ele>400.2</ele>
        <time>2022-06-12T07:01:00Z</time>
      </trkpt>
      <trkpt lat="45.96612" lon="1.26178">
        <ele>400.2</ele>
        <time>2022-06-12T07:01:04Z</time>
      </trkpt>
      <trkpt lat="45.9663" lon="1.26177">
        <ele>401</ele>
        <time>2022-06-12T07:01:10Z</time>
      </trkpt>
      <trkpt lat="45.96635" lon="1.26179">
        <ele>401.2</ele>
        <time>2022-06-12T07:01:11Z</time>
      </trkpt>
      <trkpt lat="45.96645" lon="1.26182">
        <ele>402.6</ele>
        <time>2022-06-12T07:01:14Z</time>
      </trkpt>
      <trkpt lat="45.96648" lon="1.26182">
        <ele>402.8</ele>
        <time>2022-06-12T07:01:15Z</time>
      </trkpt>
      <trkpt lat="45.96666" lon="1.26183">
        <ele>403</ele>
        <time>2022-06-12T07:01:19Z</time>
      </trkpt>
      <trkpt lat="45.96681" lon="1.26186">
        <ele>402.2</ele>
        <time>2022-06-12T07:01:22Z</time>
      </trkpt>
      <trkpt lat="45.96687" lon="1.26191">
        <ele>401.8</ele>
        <time>2022-06-12T07:01:24Z</time>
      </trkpt>
      <trkpt lat="45.96691" lon="1.26194">
        <ele>401.8</ele>
        <time>2022-06-12T07:01:25Z</time>
      </trkpt>
      <trkpt lat="45.96694" lon="1.26196">
        <ele>401.4</ele>
        <time>2022-06-12T07:01:26Z</time>
      </trkpt>
      <trkpt lat="45.96706" lon="1.26195">
        <ele>401</ele>
        <time>2022-06-12T07:01:28Z</time>
      </trkpt>
      <trkpt lat="45.96725" lon="1.26186">
        <ele>400.4</ele>
        <time>2022-06-12T07:01:31Z</time>
      </trkpt>
      <trkpt lat="45.96733" lon="1.26182">
        <ele>400.2</ele>
        <time>2022-06-12T07:01:32Z</time>
      </trkpt>
      <trkpt lat="45.96761" lon="1.26167">
        <ele>399.4</ele>
        <time>2022-06-12T07:01:37Z</time>
      </trkpt>
      <trkpt lat="45.96778" lon="1.26158">
        <ele>399.4</ele>
        <time>2022-06-12T07:01:40Z</time>
      </trkpt>
      <trkpt lat="45.96791" lon="1.26152">
        <ele>399</ele>
        <time>2022-06-12T07:01:43Z</time>
      </trkpt>
      <trkpt lat="45.968" lon="1.26148">
        <ele>399</ele>
        <time>2022-06-12T07:01:45Z</time>
      </trkpt>
      <trkpt lat="45.9682" lon="1.26133">
        <ele>399</ele>
        <time>2022-06-12T07:01:49Z</time>
      </trkpt>
      <trkpt lat="45.96829" lon="1.26123">
        <ele>398.6</ele>
        <time>2022-06-12T07:01:51Z</time>
      </trkpt>
      <trkpt lat="45.96833" lon="1.26118">
        <ele>398.2</ele>
        <time>2022-06-12T07:01:52Z</time>
      </trkpt>
      <trkpt lat="45.96835" lon="1.26115">
        <ele>398</ele>
        <time>2022-06-12T07:01:53Z</time>
      </trkpt>
      <trkpt lat="45.96839" lon="1.26111">
        <ele>397.8</ele>
        <time>2022-06-12T07:01:54Z</time>
      </trkpt>
      <trkpt lat="45.96842" lon="1.26111">
        <ele>397.4</ele>
        <time>2022-06-12T07:01:56Z</time>
      </trkpt>
      <trkpt lat="45.96844" lon="1.26113">
        <ele>397.2</ele>
        <time>2022-06-12T07:01:57Z</time>
      </trkpt>
      <trkpt lat="45.96851" lon="1.26118">
        <ele>397.6</ele>
        <time>2022-06-12T07:01:59Z</time>
      </trkpt>
      <trkpt lat="45.96858" lon="1.26121">
        <ele>397.6</ele>
        <time>2022-06-12T07:02:01Z</time>
      </trkpt>
      <trkpt lat="45.96882" lon="1.26126">
        <ele>398</ele>
        <time>2022-06-12T07:02:06Z</time>
      </trkpt>
      <trkpt lat="45.96885" lon="1.26127">
        <ele>398</ele>
        <time>2022-06-12T07:02:07Z</time>
      </trkpt>
      <trkpt lat="45.9689" lon="1.26128">
        <ele>398.2</ele>
        <time>2022-06-12T07:02:09Z</time>
      </trkpt>
      <trkpt lat="45.96899" lon="1.26136">
        <ele>398.4</ele>
        <time>2022-06-12T07:02:13Z</time>
      </trkpt>
      <trkpt lat="45.96914" lon="1.26157">
        <ele>399.2</ele>
        <time>2022-06-12T07:02:18Z</time>
      </trkpt>
      <trkpt lat="45.96917" lon="1.26161">
        <ele>399.2</ele>
        <time>2022-06-12T07:02:19Z</time>
      </trkpt>
      <trkpt lat="45.96933" lon="1.26178">
        <ele>400</ele>
        <time>2022-06-12T07:02:24Z</time>
      </trkpt>
      <trkpt lat="45.96948" lon="1.2619">
        <ele>400.4</ele>
        <time>2022-06-12T07:02:28Z</time>
      </trkpt>
      <trkpt lat="45.96962" lon="1.26196">
        <ele>400.6</ele>
        <time>2022-06-12T07:02:31Z</time>
      </trkpt>
      <trkpt lat="45.96992" lon="1.26194">
        <ele>401.2</ele>
        <time>2022-06-12T07:02:37Z</time>
      </trkpt>
      <trkpt lat="45.97002" lon="1.26193">
        <ele>401.4</ele>
        <time>2022-06-12T07:02:39Z</time>
      </trkpt>
      <trkpt lat="45.97028" lon="1.26194">
        <ele>402.2</ele>
        <time>2022-06-12T07:02:45Z</time>
      </trkpt>
      <trkpt lat="45.97035" lon="1.26196">
        <ele>402.6</ele>
        <time>2022-06-12T07:02:47Z</time>
      </trkpt>
      <trkpt lat="45.97049" lon="1.262">
        <ele>403.6</ele>
        <time>2022-06-12T07:02:51Z</time>
      </trkpt>
      <trkpt lat="45.97063" lon="1.26205">
        <ele>404.8</ele>
        <time>2022-06-12T07:02:57Z</time>
      </trkpt>
      <trkpt lat="45.97064" lon="1.26205">
        <ele>405</ele>
        <time>2022-06-12T07:02:58Z</time>
      </trkpt>
      <trkpt lat="45.9707" lon="1.26206">
        <ele>405.8</ele>
        <time>2022-06-12T07:03:02Z</time>
      </trkpt>
      <trkpt lat="45.97078" lon="1.26208">
        <ele>406.6</ele>
        <time>2022-06-12T07:03:06Z</time>
      </trkpt>
      <trkpt lat="45.9708" lon="1.26208">
        <ele>406.8</ele>
        <time>2022-06-12T07:03:07Z</time>
      </trkpt>
      <trkpt lat="45.9709" lon="1.26209">
        <ele>407.8</ele>
        <time>2022-06-12T07:03:12Z</time>
      </trkpt>
      <trkpt lat="45.97092" lon="1.2621">
        <ele>408</ele>
        <time>2022-06-12T07:03:13Z</time>
      </trkpt>
      <trkpt lat="45.97109" lon="1.26211">
        <ele>407.6</ele>
        <time>2022-06-12T07:03:18Z</time>
      </trkpt>
      <trkpt lat="45.97136" lon="1.26213">
        <ele>406.8</ele>
        <time>2022-06-12T07:03:24Z</time>
      </trkpt>
      <trkpt lat="45.97167" lon="1.26218">
        <ele>406.2</ele>
        <time>2022-06-12T07:03:29Z</time>
      </trkpt>
      <trkpt lat="45.97186" lon="1.26221">
        <ele>405.6</ele>
        <time>2022-06-12T07:03:32Z</time>
      </trkpt>
      <trkpt lat="45.97213" lon="1.26225">
        <ele>404.8</ele>
        <time>2022-06-12T07:03:36Z</time>
      </trkpt>
      <trkpt lat="45.9722" lon="1.26226">
        <ele>404.6</ele>
        <time>2022-06-12T07:03:37Z</time>
      </trkpt>
      <trkpt lat="45.97251" lon="1.26237">
        <ele>404.4</ele>
        <time>2022-06-12T07:03:42Z</time>
      </trkpt>
      <trkpt lat="45.97256" lon="1.26239">
        <ele>404.6</ele>
        <time>2022-06-12T07:03:43Z</time>
      </trkpt>
      <trkpt lat="45.97266" lon="1.26242">
        <ele>404.4</ele>
        <time>2022-06-12T07:03:45Z</time>
      </trkpt>
      <trkpt lat="45.97274" lon="1.26245">
        <ele>404.6</ele>
        <time>2022-06-12T07:03:47Z</time>
      </trkpt>
      <trkpt lat="45.97283" lon="1.26247">
        <ele>404.6</ele>
        <time>2022-06-12T07:03:49Z</time>
      </trkpt>
      <trkpt lat="45.97291" lon="1.26248">
        <ele>404.6</ele>
        <time>2022-06-12T07:03:51Z</time>
      </trkpt>
      <trkpt lat="45.97294" lon="1.26249">
        <ele>404.6</ele>
        <time>2022-06-12T07:03:52Z</time>
      </trkpt>
      <trkpt lat="45.973" lon="1.2625">
        <ele>404.4</ele>
        <time>2022-06-12T07:03:54Z</time>
      </trkpt>
      <trkpt lat="45.97307" lon="1.26251">
        <ele>404.2</ele>
        <time>2022-06-12T07:03:56Z</time>
      </trkpt>
      <trkpt lat="45.9731" lon="1.26251">
        <ele>404.2</ele>
        <time>2022-06-12T07:03:57Z</time>
      </trkpt>
      <trkpt lat="45.97318" lon="1.26253">
        <ele>404</ele>
        <time>2022-06-12T07:03:59Z</time>
      </trkpt>
      <trkpt lat="45.97332" lon="1.26258">
        <ele>403.8</ele>
        <time>2022-06-12T07:04:03Z</time>
      </trkpt>
      <trkpt lat="45.97335" lon="1.26259">
        <ele>403.8</ele>
        <time>2022-06-12T07:04:04Z</time>
      </trkpt>
      <trkpt lat="45.97354" lon="1.26269">
        <ele>403.6</ele>
        <time>2022-06-12T07:04:09Z</time>
      </trkpt>
      <trkpt lat="45.97358" lon="1.26271">
        <ele>403.4</ele>
        <time>2022-06-12T07:04:10Z</time>
      </trkpt>
      <trkpt lat="45.97365" lon="1.26276">
        <ele>403.4</ele>
        <time>2022-06-12T07:04:12Z</time>
      </trkpt>
      <trkpt lat="45.97372" lon="1.26279">
        <ele>403.4</ele>
        <time>2022-06-12T07:04:14Z</time>
      </trkpt>
      <trkpt lat="45.97382" lon="1.26281">
        <ele>403.4</ele>
        <time>2022-06-12T07:04:16Z</time>
      </trkpt>
      <trkpt lat="45.97402" lon="1.2629">
        <ele>403.4</ele>
        <time>2022-06-12T07:04:21Z</time>
      </trkpt>
      <trkpt lat="45.97411" lon="1.26294">
        <ele>403.2</ele>
        <time>2022-06-12T07:04:23Z</time>
      </trkpt>
      <trkpt lat="45.97422" lon="1.26303">
        <ele>403.2</ele>
        <time>2022-06-12T07:04:25Z</time>
      </trkpt>
      <trkpt lat="45.97457" lon="1.26323">
        <ele>402.6</ele>
        <time>2022-06-12T07:04:30Z</time>
      </trkpt>
      <trkpt lat="45.97465" lon="1.26327">
        <ele>402.4</ele>
        <time>2022-06-12T07:04:31Z</time>
      </trkpt>
      <trkpt lat="45.97504" lon="1.26349">
        <ele>401.4</ele>
        <time>2022-06-12T07:04:36Z</time>
      </trkpt>
      <trkpt lat="45.97511" lon="1.26352">
        <ele>401.2</ele>
        <time>2022-06-12T07:04:37Z</time>
      </trkpt>
      <trkpt lat="45.97539" lon="1.26366">
        <ele>400.8</ele>
        <time>2022-06-12T07:04:41Z</time>
      </trkpt>
      <trkpt lat="45.9757" lon="1.26384">
        <ele>400.4</ele>
        <time>2022-06-12T07:04:46Z</time>
      </trkpt>
      <trkpt lat="45.97577" lon="1.26387">
        <ele>400.2</ele>
        <time>2022-06-12T07:04:47Z</time>
      </trkpt>
      <trkpt lat="45.97584" lon="1.2639">
        <ele>400.2</ele>
        <time>2022-06-12T07:04:48Z</time>
      </trkpt>
      <trkpt lat="45.97603" lon="1.26406">
        <ele>399.6</ele>
        <time>2022-06-12T07:04:51Z</time>
      </trkpt>
      <trkpt lat="45.97616" lon="1.26418">
        <ele>398.8</ele>
        <time>2022-06-12T07:04:53Z</time>
      </trkpt>
      <trkpt lat="45.97639" lon="1.26438">
        <ele>397.8</ele>
        <time>2022-06-12T07:04:56Z</time>
      </trkpt>
      <trkpt lat="45.97645" lon="1.26444">
        <ele>397.2</ele>
        <time>2022-06-12T07:04:57Z</time>
      </trkpt>
      <trkpt lat="45.9765" lon="1.26451">
        <ele>395.6</ele>
        <time>2022-06-12T07:04:58Z</time>
      </trkpt>
      <trkpt lat="45.97661" lon="1.26462">
        <ele>393.8</ele>
        <time>2022-06-12T07:05:00Z</time>
      </trkpt>
      <trkpt lat="45.97666" lon="1.26469">
        <ele>392.2</ele>
        <time>2022-06-12T07:05:01Z</time>
      </trkpt>
      <trkpt lat="45.97671" lon="1.26476">
        <ele>390.8</ele>
        <time>2022-06-12T07:05:02Z</time>
      </trkpt>
      <trkpt lat="45.97675" lon="1.26482">
        <ele>389.4</ele>
        <time>2022-06-12T07:05:03Z</time>
      </trkpt>
      <trkpt lat="45.97679" lon="1.26488">
        <ele>388.2</ele>
        <time>2022-06-12T07:05:04Z</time>
      </trkpt>
      <trkpt lat="45.97682" lon="1.26494">
        <ele>387.4</ele>
        <time>2022-06-12T07:05:05Z</time>
      </trkpt>
      <trkpt lat="45.97685" lon="1.265">
        <ele>385</ele>
        <time>2022-06-12T07:05:06Z</time>
      </trkpt>
      <trkpt lat="45.97689" lon="1.26505">
        <ele>383.6</ele>
        <time>2022-06-12T07:05:07Z</time>
      </trkpt>
      <trkpt lat="45.97695" lon="1.26509">
        <ele>382.8</ele>
        <time>2022-06-12T07:05:08Z</time>
      </trkpt>
      <trkpt lat="45.97702" lon="1.26513">
        <ele>381.8</ele>
        <time>2022-06-12T07:05:09Z</time>
      </trkpt>
      <trkpt lat="45.97727" lon="1.26519">
        <ele>380.8</ele>
        <time>2022-06-12T07:05:12Z</time>
      </trkpt>
      <trkpt lat="45.97735" lon="1.26521">
        <ele>380.8</ele>
        <time>2022-06-12T07:05:13Z</time>
      </trkpt>
      <trkpt lat="45.97757" lon="1.26524">
        <ele>380.8</ele>
        <time>2022-06-12T07:05:17Z</time>
      </trkpt>
      <trkpt lat="45.97771" lon="1.2653">
        <ele>381.8</ele>
        <time>2022-06-12T07:05:22Z</time>
      </trkpt>
      <trkpt lat="45.97773" lon="1.26532">
        <ele>382</ele>
        <time>2022-06-12T07:05:23Z</time>
      </trkpt>
      <trkpt lat="45.97784" lon="1.26543">
        <ele>382.6</ele>
        <time>2022-06-12T07:05:28Z</time>
      </trkpt>
      <trkpt lat="45.97786" lon="1.26545">
        <ele>383.2</ele>
        <time>2022-06-12T07:05:29Z</time>
      </trkpt>
      <trkpt lat="45.97797" lon="1.26555">
        <ele>384.4</ele>
        <time>2022-06-12T07:05:33Z</time>
      </trkpt>
      <trkpt lat="45.97804" lon="1.2656">
        <ele>384.8</ele>
        <time>2022-06-12T07:05:35Z</time>
      </trkpt>
      <trkpt lat="45.97814" lon="1.26565">
        <ele>385.4</ele>
        <time>2022-06-12T07:05:37Z</time>
      </trkpt>
      <trkpt lat="45.97831" lon="1.26574">
        <ele>385.8</ele>
        <time>2022-06-12T07:05:41Z</time>
      </trkpt>
      <trkpt lat="45.97863" lon="1.26595">
        <ele>386</ele>
        <time>2022-06-12T07:05:48Z</time>
      </trkpt>
      <trkpt lat="45.97871" lon="1.26603">
        <ele>385.8</ele>
        <time>2022-06-12T07:05:50Z</time>
      </trkpt>
      <trkpt lat="45.97881" lon="1.26617">
        <ele>386.2</ele>
        <time>2022-06-12T07:05:53Z</time>
      </trkpt>
      <trkpt lat="45.97891" lon="1.26633">
        <ele>386.6</ele>
        <time>2022-06-12T07:05:56Z</time>
      </trkpt>
      <trkpt lat="45.97906" lon="1.2666">
        <ele>387.2</ele>
        <time>2022-06-12T07:06:01Z</time>
      </trkpt>
      <trkpt lat="45.97911" lon="1.26678">
        <ele>387.2</ele>
        <time>2022-06-12T07:06:05Z</time>
      </trkpt>
      <trkpt lat="45.97916" lon="1.26682">
        <ele>387.2</ele>
        <time>2022-06-12T07:06:07Z</time>
      </trkpt>
      <trkpt lat="45.9792" lon="1.26682">
        <ele>387</ele>
        <time>2022-06-12T07:06:08Z</time>
      </trkpt>
      <trkpt lat="45.9794" lon="1.26678">
        <ele>386.4</ele>
        <time>2022-06-12T07:06:12Z</time>
      </trkpt>
      <trkpt lat="45.97945" lon="1.26676">
        <ele>386.2</ele>
        <time>2022-06-12T07:06:13Z</time>
      </trkpt>
      <trkpt lat="45.97963" lon="1.26671">
        <ele>385.6</ele>
        <time>2022-06-12T07:06:16Z</time>
      </trkpt>
      <trkpt lat="45.97968" lon="1.26669">
        <ele>385.2</ele>
        <time>2022-06-12T07:06:17Z</time>
      </trkpt>
      <trkpt lat="45.97974" lon="1.26667">
        <ele>384.4</ele>
        <time>2022-06-12T07:06:18Z</time>
      </trkpt>
      <trkpt lat="45.97986" lon="1.26664">
        <ele>383</ele>
        <time>2022-06-12T07:06:20Z</time>
      </trkpt>
      <trkpt lat="45.97991" lon="1.26662">
        <ele>381.2</ele>
        <time>2022-06-12T07:06:21Z</time>
      </trkpt>
      <trkpt lat="45.97996" lon="1.2666">
        <ele>380.2</ele>
        <time>2022-06-12T07:06:22Z</time>
      </trkpt>
      <trkpt lat="45.98" lon="1.26657">
        <ele>379.4</ele>
        <time>2022-06-12T07:06:23Z</time>
      </trkpt>
      <trkpt lat="45.98005" lon="1.26654">
        <ele>379</ele>
        <time>2022-06-12T07:06:24Z</time>
      </trkpt>
      <trkpt lat="45.98017" lon="1.26645">
        <ele>377.4</ele>
        <time>2022-06-12T07:06:27Z</time>
      </trkpt>
      <trkpt lat="45.98021" lon="1.26643">
        <ele>375.6</ele>
        <time>2022-06-12T07:06:28Z</time>
      </trkpt>
      <trkpt lat="45.98026" lon="1.2664">
        <ele>374.6</ele>
        <time>2022-06-12T07:06:29Z</time>
      </trkpt>
      <trkpt lat="45.9803" lon="1.26638">
        <ele>373.8</ele>
        <time>2022-06-12T07:06:30Z</time>
      </trkpt>
      <trkpt lat="45.98034" lon="1.26637">
        <ele>373.4</ele>
        <time>2022-06-12T07:06:31Z</time>
      </trkpt>
      <trkpt lat="45.98042" lon="1.26637">
        <ele>372</ele>
        <time>2022-06-12T07:06:33Z</time>
      </trkpt>
      <trkpt lat="45.98045" lon="1.26639">
        <ele>371.6</ele>
        <time>2022-06-12T07:06:34Z</time>
      </trkpt>
      <trkpt lat="45.98049" lon="1.26641">
        <ele>370.6</ele>
        <time>2022-06-12T07:06:35Z</time>
      </trkpt>
      <trkpt lat="45.9806" lon="1.26652">
        <ele>369.6</ele>
        <time>2022-06-12T07:06:38Z</time>
      </trkpt>
      <trkpt lat="45.98068" lon="1.2666">
        <ele>368.6</ele>
        <time>2022-06-12T07:06:40Z</time>
      </trkpt>
      <trkpt lat="45.98073" lon="1.26663">
        <ele>368.4</ele>
        <time>2022-06-12T07:06:41Z</time>
      </trkpt>
      <trkpt lat="45.98082" lon="1.2666">
        <ele>367.8</ele>
        <time>2022-06-12T07:06:43Z</time>
      </trkpt>
      <trkpt lat="45.98093" lon="1.26651">
        <ele>367.2</ele>
        <time>2022-06-12T07:06:46Z</time>
      </trkpt>
      <trkpt lat="45.98099" lon="1.26641">
        <ele>366.8</ele>
        <time>2022-06-12T07:06:48Z</time>
      </trkpt>
      <trkpt lat="45.98105" lon="1.26634">
        <ele>366</ele>
        <time>2022-06-12T07:06:50Z</time>
      </trkpt>
      <trkpt lat="45.98109" lon="1.26634">
        <ele>365.6</ele>
        <time>2022-06-12T07:06:51Z</time>
      </trkpt>
      <trkpt lat="45.9812" lon="1.26636">
        <ele>365</ele>
        <time>2022-06-12T07:06:53Z</time>
      </trkpt>
      <trkpt lat="45.98125" lon="1.26636">
        <ele>364.6</ele>
        <time>2022-06-12T07:06:54Z</time>
      </trkpt>
      <trkpt lat="45.98131" lon="1.26634">
        <ele>364.4</ele>
        <time>2022-06-12T07:06:55Z</time>
      </trkpt>
      <trkpt lat="45.98136" lon="1.26632">
        <ele>364</ele>
        <time>2022-06-12T07:06:56Z</time>
      </trkpt>
      <trkpt lat="45.98142" lon="1.26628">
        <ele>363.8</ele>
        <time>2022-06-12T07:06:57Z</time>
      </trkpt>
      <trkpt lat="45.98146" lon="1.26624">
        <ele>363.8</ele>
        <time>2022-06-12T07:06:58Z</time>
      </trkpt>
      <trkpt lat="45.9815" lon="1.2662">
        <ele>363.6</ele>
        <time>2022-06-12T07:06:59Z</time>
      </trkpt>
      <trkpt lat="45.98153" lon="1.26615">
        <ele>363.6</ele>
        <time>2022-06-12T07:07:00Z</time>
      </trkpt>
      <trkpt lat="45.9816" lon="1.26598">
        <ele>363.8</ele>
        <time>2022-06-12T07:07:03Z</time>
      </trkpt>
      <trkpt lat="45.98161" lon="1.26593">
        <ele>364</ele>
        <time>2022-06-12T07:07:04Z</time>
      </trkpt>
      <trkpt lat="45.98165" lon="1.26567">
        <ele>365</ele>
        <time>2022-06-12T07:07:09Z</time>
      </trkpt>
      <trkpt lat="45.98166" lon="1.26562">
        <ele>365</ele>
        <time>2022-06-12T07:07:10Z</time>
      </trkpt>
      <trkpt lat="45.98166" lon="1.26543">
        <ele>366</ele>
        <time>2022-06-12T07:07:14Z</time>
      </trkpt>
      <trkpt lat="45.98165" lon="1.26526">
        <ele>367</ele>
        <time>2022-06-12T07:07:18Z</time>
      </trkpt>
      <trkpt lat="45.98164" lon="1.26521">
        <ele>367.2</ele>
        <time>2022-06-12T07:07:19Z</time>
      </trkpt>
      <trkpt lat="45.98169" lon="1.265">
        <ele>368.4</ele>
        <time>2022-06-12T07:07:24Z</time>
      </trkpt>
      <trkpt lat="45.98172" lon="1.26485">
        <ele>369.6</ele>
        <time>2022-06-12T07:07:28Z</time>
      </trkpt>
      <trkpt lat="45.98174" lon="1.26478">
        <ele>370.2</ele>
        <time>2022-06-12T07:07:30Z</time>
      </trkpt>
      <trkpt lat="45.98178" lon="1.26466">
        <ele>370.8</ele>
        <time>2022-06-12T07:07:33Z</time>
      </trkpt>
      <trkpt lat="45.98181" lon="1.2645">
        <ele>371.8</ele>
        <time>2022-06-12T07:07:37Z</time>
      </trkpt>
      <trkpt lat="45.98184" lon="1.26443">
        <ele>372.2</ele>
        <time>2022-06-12T07:07:39Z</time>
      </trkpt>
      <trkpt lat="45.98186" lon="1.26428">
        <ele>372.8</ele>
        <time>2022-06-12T07:07:43Z</time>
      </trkpt>
      <trkpt lat="45.98186" lon="1.2642">
        <ele>373</ele>
        <time>2022-06-12T07:07:45Z</time>
      </trkpt>
      <trkpt lat="45.98184" lon="1.26392">
        <ele>374</ele>
        <time>2022-06-12T07:07:52Z</time>
      </trkpt>
      <trkpt lat="45.98184" lon="1.26388">
        <ele>374.4</ele>
        <time>2022-06-12T07:07:53Z</time>
      </trkpt>
      <trkpt lat="45.98186" lon="1.26387">
        <ele>374.4</ele>
        <time>2022-06-12T07:07:54Z</time>
      </trkpt>
      <trkpt lat="45.98191" lon="1.26387">
        <ele>375</ele>
        <time>2022-06-12T07:07:57Z</time>
      </trkpt>
      <trkpt lat="45.98196" lon="1.26386">
        <ele>375</ele>
        <time>2022-06-12T07:07:59Z</time>
      </trkpt>
      <trkpt lat="45.98204" lon="1.2638">
        <ele>375.6</ele>
        <time>2022-06-12T07:08:02Z</time>
      </trkpt>
      <trkpt lat="45.9822" lon="1.26368">
        <ele>375.8</ele>
        <time>2022-06-12T07:08:08Z</time>
      </trkpt>
      <trkpt lat="45.98246" lon="1.26351">
        <ele>375.8</ele>
        <time>2022-06-12T07:08:15Z</time>
      </trkpt>
      <trkpt lat="45.98274" lon="1.2633">
        <ele>375.6</ele>
        <time>2022-06-12T07:08:21Z</time>
      </trkpt>
      <trkpt lat="45.98306" lon="1.26305">
        <ele>375</ele>
        <time>2022-06-12T07:08:27Z</time>
      </trkpt>
      <trkpt lat="45.98327" lon="1.2629">
        <ele>373.6</ele>
        <time>2022-06-12T07:08:30Z</time>
      </trkpt>
      <trkpt lat="45.98343" lon="1.26282">
        <ele>372.8</ele>
        <time>2022-06-12T07:08:32Z</time>
      </trkpt>
      <trkpt lat="45.9835" lon="1.26278">
        <ele>372.6</ele>
        <time>2022-06-12T07:08:33Z</time>
      </trkpt>
      <trkpt lat="45.98364" lon="1.26271">
        <ele>371.4</ele>
        <time>2022-06-12T07:08:35Z</time>
      </trkpt>
      <trkpt lat="45.98399" lon="1.26259">
        <ele>370.4</ele>
        <time>2022-06-12T07:08:40Z</time>
      </trkpt>
      <trkpt lat="45.98432" lon="1.26257">
        <ele>369.2</ele>
        <time>2022-06-12T07:08:45Z</time>
      </trkpt>
      <trkpt lat="45.98439" lon="1.26256">
        <ele>368.8</ele>
        <time>2022-06-12T07:08:46Z</time>
      </trkpt>
      <trkpt lat="45.98467" lon="1.26255">
        <ele>367.8</ele>
        <time>2022-06-12T07:08:50Z</time>
      </trkpt>
      <trkpt lat="45.98473" lon="1.26256">
        <ele>367.6</ele>
        <time>2022-06-12T07:08:51Z</time>
      </trkpt>
      <trkpt lat="45.98479" lon="1.2626">
        <ele>367.4</ele>
        <time>2022-06-12T07:08:52Z</time>
      </trkpt>
      <trkpt lat="45.98493" lon="1.26265">
        <ele>366.6</ele>
        <time>2022-06-12T07:08:54Z</time>
      </trkpt>
      <trkpt lat="45.98521" lon="1.26274">
        <ele>365.8</ele>
        <time>2022-06-12T07:08:58Z</time>
      </trkpt>
      <trkpt lat="45.98527" lon="1.26276">
        <ele>365.2</ele>
        <time>2022-06-12T07:08:59Z</time>
      </trkpt>
      <trkpt lat="45.98538" lon="1.26278">
        <ele>363.8</ele>
        <time>2022-06-12T07:09:01Z</time>
      </trkpt>
      <trkpt lat="45.98545" lon="1.26276">
        <ele>362.4</ele>
        <time>2022-06-12T07:09:02Z</time>
      </trkpt>
      <trkpt lat="45.9855" lon="1.26274">
        <ele>361.4</ele>
        <time>2022-06-12T07:09:04Z</time>
      </trkpt>
      <trkpt lat="45.98556" lon="1.26273">
        <ele>361</ele>
        <time>2022-06-12T07:09:05Z</time>
      </trkpt>
      <trkpt lat="45.98562" lon="1.26272">
        <ele>360.6</ele>
        <time>2022-06-12T07:09:06Z</time>
      </trkpt>
      <trkpt lat="45.9857" lon="1.26271">
        <ele>359.6</ele>
        <time>2022-06-12T07:09:07Z</time>
      </trkpt>
      <trkpt lat="45.98586" lon="1.2627">
        <ele>358</ele>
        <time>2022-06-12T07:09:09Z</time>
      </trkpt>
      <trkpt lat="45.98594" lon="1.26269">
        <ele>357</ele>
        <time>2022-06-12T07:09:10Z</time>
      </trkpt>
      <trkpt lat="45.98601" lon="1.26267">
        <ele>356.2</ele>
        <time>2022-06-12T07:09:11Z</time>
      </trkpt>
      <trkpt lat="45.98608" lon="1.26264">
        <ele>355.8</ele>
        <time>2022-06-12T07:09:12Z</time>
      </trkpt>
      <trkpt lat="45.98615" lon="1.2626">
        <ele>354.6</ele>
        <time>2022-06-12T07:09:13Z</time>
      </trkpt>
      <trkpt lat="45.98622" lon="1.26256">
        <ele>353.8</ele>
        <time>2022-06-12T07:09:14Z</time>
      </trkpt>
      <trkpt lat="45.98628" lon="1.26254">
        <ele>353.4</ele>
        <time>2022-06-12T07:09:15Z</time>
      </trkpt>
      <trkpt lat="45.98635" lon="1.26254">
        <ele>353</ele>
        <time>2022-06-12T07:09:16Z</time>
      </trkpt>
      <trkpt lat="45.98649" lon="1.2626">
        <ele>352.6</ele>
        <time>2022-06-12T07:09:18Z</time>
      </trkpt>
      <trkpt lat="45.98655" lon="1.26265">
        <ele>352</ele>
        <time>2022-06-12T07:09:19Z</time>
      </trkpt>
      <trkpt lat="45.98676" lon="1.26277">
        <ele>351.4</ele>
        <time>2022-06-12T07:09:22Z</time>
      </trkpt>
      <trkpt lat="45.98683" lon="1.26278">
        <ele>351</ele>
        <time>2022-06-12T07:09:23Z</time>
      </trkpt>
      <trkpt lat="45.98691" lon="1.26279">
        <ele>350.4</ele>
        <time>2022-06-12T07:09:24Z</time>
      </trkpt>
      <trkpt lat="45.987" lon="1.26279">
        <ele>349.6</ele>
        <time>2022-06-12T07:09:25Z</time>
      </trkpt>
      <trkpt lat="45.98709" lon="1.2628">
        <ele>348.4</ele>
        <time>2022-06-12T07:09:26Z</time>
      </trkpt>
      <trkpt lat="45.98727" lon="1.26279">
        <ele>347.2</ele>
        <time>2022-06-12T07:09:28Z</time>
      </trkpt>
      <trkpt lat="45.98744" lon="1.26282">
        <ele>346.4</ele>
        <time>2022-06-12T07:09:30Z</time>
      </trkpt>
      <trkpt lat="45.98753" lon="1.26284">
        <ele>345.8</ele>
        <time>2022-06-12T07:09:31Z</time>
      </trkpt>
      <trkpt lat="45.98768" lon="1.2629">
        <ele>344.4</ele>
        <time>2022-06-12T07:09:33Z</time>
      </trkpt>
      <trkpt lat="45.98789" lon="1.26299">
        <ele>343.2</ele>
        <time>2022-06-12T07:09:36Z</time>
      </trkpt>
      <trkpt lat="45.98798" lon="1.26306">
        <ele>342</ele>
        <time>2022-06-12T07:09:38Z</time>
      </trkpt>
      <trkpt lat="45.98801" lon="1.26307">
        <ele>341.4</ele>
        <time>2022-06-12T07:09:39Z</time>
      </trkpt>
      <trkpt lat="45.98804" lon="1.26306">
        <ele>340.2</ele>
        <time>2022-06-12T07:09:40Z</time>
      </trkpt>
      <trkpt lat="45.98805" lon="1.26304">
        <ele>339.6</ele>
        <time>2022-06-12T07:09:41Z</time>
      </trkpt>
      <trkpt lat="45.98806" lon="1.26302">
        <ele>339.2</ele>
        <time>2022-06-12T07:09:42Z</time>
      </trkpt>
      <trkpt lat="45.98806" lon="1.26282">
        <ele>338.8</ele>
        <time>2022-06-12T07:09:47Z</time>
      </trkpt>
      <trkpt lat="45.98806" lon="1.26243">
        <ele>340</ele>
        <time>2022-06-12T07:09:55Z</time>
      </trkpt>
      <trkpt lat="45.98806" lon="1.26224">
        <ele>340.4</ele>
        <time>2022-06-12T07:09:59Z</time>
      </trkpt>
      <trkpt lat="45.98805" lon="1.26206">
        <ele>340.8</ele>
        <time>2022-06-12T07:10:03Z</time>
      </trkpt>
      <trkpt lat="45.98806" lon="1.26194">
        <ele>341.4</ele>
        <time>2022-06-12T07:10:06Z</time>
      </trkpt>
      <trkpt lat="45.98806" lon="1.26179">
        <ele>342.4</ele>
        <time>2022-06-12T07:10:10Z</time>
      </trkpt>
      <trkpt lat="45.98806" lon="1.26176">
        <ele>342.6</ele>
        <time>2022-06-12T07:10:11Z</time>
      </trkpt>
      <trkpt lat="45.98805" lon="1.26157">
        <ele>343.6</ele>
        <time>2022-06-12T07:10:16Z</time>
      </trkpt>
      <trkpt lat="45.98805" lon="1.2615">
        <ele>344.2</ele>
        <time>2022-06-12T07:10:18Z</time>
      </trkpt>
      <trkpt lat="45.98807" lon="1.26138">
        <ele>344.8</ele>
        <time>2022-06-12T07:10:22Z</time>
      </trkpt>
      <trkpt lat="45.98807" lon="1.26126">
        <ele>345.8</ele>
        <time>2022-06-12T07:10:26Z</time>
      </trkpt>
      <trkpt lat="45.98808" lon="1.26112">
        <ele>346.8</ele>
        <time>2022-06-12T07:10:31Z</time>
      </trkpt>
      <trkpt lat="45.98808" lon="1.26109">
        <ele>346.8</ele>
        <time>2022-06-12T07:10:32Z</time>
      </trkpt>
      <trkpt lat="45.98808" lon="1.26097">
        <ele>347.8</ele>
        <time>2022-06-12T07:10:36Z</time>
      </trkpt>
      <trkpt lat="45.98808" lon="1.26091">
        <ele>348.2</ele>
        <time>2022-06-12T07:10:38Z</time>
      </trkpt>
      <trkpt lat="45.98808" lon="1.26074">
        <ele>348.8</ele>
        <time>2022-06-12T07:10:43Z</time>
      </trkpt>
      <trkpt lat="45.98808" lon="1.2607">
        <ele>348.8</ele>
        <time>2022-06-12T07:10:44Z</time>
      </trkpt>
      <trkpt lat="45.98805" lon="1.26052">
        <ele>348.6</ele>
        <time>2022-06-12T07:10:48Z</time>
      </trkpt>
      <trkpt lat="45.98803" lon="1.26048">
        <ele>348.6</ele>
        <time>2022-06-12T07:10:49Z</time>
      </trkpt>
      <trkpt lat="45.988" lon="1.26044">
        <ele>348.4</ele>
        <time>2022-06-12T07:10:50Z</time>
      </trkpt>
      <trkpt lat="45.9879" lon="1.26034">
        <ele>347.8</ele>
        <time>2022-06-12T07:10:53Z</time>
      </trkpt>
      <trkpt lat="45.98787" lon="1.2603">
        <ele>347.6</ele>
        <time>2022-06-12T07:10:54Z</time>
      </trkpt>
      <trkpt lat="45.98763" lon="1.26006">
        <ele>347</ele>
        <time>2022-06-12T07:11:00Z</time>
      </trkpt>
      <trkpt lat="45.98758" lon="1.26">
        <ele>346.8</ele>
        <time>2022-06-12T07:11:01Z</time>
      </trkpt>
      <trkpt lat="45.98754" lon="1.25986">
        <ele>346.6</ele>
        <time>2022-06-12T07:11:03Z</time>
      </trkpt>
      <trkpt lat="45.98752" lon="1.25979">
        <ele>346.4</ele>
        <time>2022-06-12T07:11:04Z</time>
      </trkpt>
      <trkpt lat="45.9875" lon="1.25961">
        <ele>346.4</ele>
        <time>2022-06-12T07:11:06Z</time>
      </trkpt>
      <trkpt lat="45.98747" lon="1.25931">
        <ele>346.4</ele>
        <time>2022-06-12T07:11:09Z</time>
      </trkpt>
      <trkpt lat="45.98749" lon="1.25912">
        <ele>346.2</ele>
        <time>2022-06-12T07:11:11Z</time>
      </trkpt>
      <trkpt lat="45.98756" lon="1.25897">
        <ele>346.6</ele>
        <time>2022-06-12T07:11:13Z</time>
      </trkpt>
      <trkpt lat="45.98767" lon="1.25874">
        <ele>347.2</ele>
        <time>2022-06-12T07:11:17Z</time>
      </trkpt>
      <trkpt lat="45.98771" lon="1.25865">
        <ele>347.4</ele>
        <time>2022-06-12T07:11:19Z</time>
      </trkpt>
      <trkpt lat="45.98773" lon="1.2586">
        <ele>347.4</ele>
        <time>2022-06-12T07:11:20Z</time>
      </trkpt>
      <trkpt lat="45.98779" lon="1.25854">
        <ele>347.4</ele>
        <time>2022-06-12T07:11:22Z</time>
      </trkpt>
      <trkpt lat="45.98783" lon="1.25851">
        <ele>347.4</ele>
        <time>2022-06-12T07:11:23Z</time>
      </trkpt>
      <trkpt lat="45.98791" lon="1.25844">
        <ele>347.2</ele>
        <time>2022-06-12T07:11:25Z</time>
      </trkpt>
      <trkpt lat="45.98799" lon="1.25833">
        <ele>346.8</ele>
        <time>2022-06-12T07:11:27Z</time>
      </trkpt>
      <trkpt lat="45.98802" lon="1.25816">
        <ele>346.4</ele>
        <time>2022-06-12T07:11:29Z</time>
      </trkpt>
      <trkpt lat="45.98804" lon="1.25798">
        <ele>346.2</ele>
        <time>2022-06-12T07:11:31Z</time>
      </trkpt>
      <trkpt lat="45.98809" lon="1.25762">
        <ele>345.6</ele>
        <time>2022-06-12T07:11:35Z</time>
      </trkpt>
      <trkpt lat="45.9881" lon="1.25754">
        <ele>345.6</ele>
        <time>2022-06-12T07:11:36Z</time>
      </trkpt>
      <trkpt lat="45.98813" lon="1.25746">
        <ele>345.6</ele>
        <time>2022-06-12T07:11:37Z</time>
      </trkpt>
      <trkpt lat="45.98817" lon="1.2574">
        <ele>345.6</ele>
        <time>2022-06-12T07:11:38Z</time>
      </trkpt>
      <trkpt lat="45.98825" lon="1.25733">
        <ele>345.6</ele>
        <time>2022-06-12T07:11:40Z</time>
      </trkpt>
      <trkpt lat="45.98835" lon="1.25732">
        <ele>345.8</ele>
        <time>2022-06-12T07:11:42Z</time>
      </trkpt>
      <trkpt lat="45.98843" lon="1.25733">
        <ele>345.8</ele>
        <time>2022-06-12T07:11:44Z</time>
      </trkpt>
      <trkpt lat="45.98871" lon="1.25732">
        <ele>346.4</ele>
        <time>2022-06-12T07:11:51Z</time>
      </trkpt>
      <trkpt lat="45.98874" lon="1.25731">
        <ele>346.6</ele>
        <time>2022-06-12T07:11:52Z</time>
      </trkpt>
      <trkpt lat="45.98894" lon="1.25724">
        <ele>347.8</ele>
        <time>2022-06-12T07:11:58Z</time>
      </trkpt>
      <trkpt lat="45.98911" lon="1.25713">
        <ele>349</ele>
        <time>2022-06-12T07:12:04Z</time>
      </trkpt>
      <trkpt lat="45.98913" lon="1.25711">
        <ele>349</ele>
        <time>2022-06-12T07:12:05Z</time>
      </trkpt>
      <trkpt lat="45.98921" lon="1.25698">
        <ele>349.6</ele>
        <time>2022-06-12T07:12:11Z</time>
      </trkpt>
      <trkpt lat="45.98922" lon="1.25694">
        <ele>350</ele>
        <time>2022-06-12T07:12:14Z</time>
      </trkpt>
      <trkpt lat="45.98925" lon="1.25687">
        <ele>351</ele>
        <time>2022-06-12T07:12:17Z</time>
      </trkpt>
      <trkpt lat="45.98926" lon="1.25684">
        <ele>351.4</ele>
        <time>2022-06-12T07:12:18Z</time>
      </trkpt>
      <trkpt lat="45.9893" lon="1.25671">
        <ele>352.2</ele>
        <time>2022-06-12T07:12:23Z</time>
      </trkpt>
      <trkpt lat="45.98931" lon="1.25669">
        <ele>352.4</ele>
        <time>2022-06-12T07:12:24Z</time>
      </trkpt>
      <trkpt lat="45.98942" lon="1.25648">
        <ele>353.6</ele>
        <time>2022-06-12T07:12:31Z</time>
      </trkpt>
      <trkpt lat="45.98943" lon="1.25645">
        <ele>353.8</ele>
        <time>2022-06-12T07:12:32Z</time>
      </trkpt>
      <trkpt lat="45.98944" lon="1.25633">
        <ele>354.6</ele>
        <time>2022-06-12T07:12:36Z</time>
      </trkpt>
      <trkpt lat="45.98944" lon="1.25626">
        <ele>355</ele>
        <time>2022-06-12T07:12:38Z</time>
      </trkpt>
      <trkpt lat="45.98943" lon="1.25619">
        <ele>355.6</ele>
        <time>2022-06-12T07:12:41Z</time>
      </trkpt>
      <trkpt lat="45.98942" lon="1.25608">
        <ele>356.6</ele>
        <time>2022-06-12T07:12:45Z</time>
      </trkpt>
      <trkpt lat="45.98942" lon="1.25601">
        <ele>356.8</ele>
        <time>2022-06-12T07:12:48Z</time>
      </trkpt>
      <trkpt lat="45.98939" lon="1.25589">
        <ele>357</ele>
        <time>2022-06-12T07:12:53Z</time>
      </trkpt>
      <trkpt lat="45.98938" lon="1.25579">
        <ele>357.2</ele>
        <time>2022-06-12T07:12:56Z</time>
      </trkpt>
      <trkpt lat="45.98937" lon="1.25568">
        <ele>357.2</ele>
        <time>2022-06-12T07:12:58Z</time>
      </trkpt>
      <trkpt lat="45.98938" lon="1.25562">
        <ele>357.2</ele>
        <time>2022-06-12T07:12:59Z</time>
      </trkpt>
      <trkpt lat="45.98939" lon="1.2553">
        <ele>356.4</ele>
        <time>2022-06-12T07:13:04Z</time>
      </trkpt>
      <trkpt lat="45.98933" lon="1.25488">
        <ele>356.4</ele>
        <time>2022-06-12T07:13:11Z</time>
      </trkpt>
      <trkpt lat="45.98925" lon="1.25469">
        <ele>356.6</ele>
        <time>2022-06-12T07:13:14Z</time>
      </trkpt>
      <trkpt lat="45.98926" lon="1.25464">
        <ele>356.6</ele>
        <time>2022-06-12T07:13:15Z</time>
      </trkpt>
      <trkpt lat="45.98936" lon="1.25437">
        <ele>356.6</ele>
        <time>2022-06-12T07:13:21Z</time>
      </trkpt>
      <trkpt lat="45.98939" lon="1.25433">
        <ele>356.6</ele>
        <time>2022-06-12T07:13:22Z</time>
      </trkpt>
      <trkpt lat="45.98959" lon="1.25414">
        <ele>356.2</ele>
        <time>2022-06-12T07:13:27Z</time>
      </trkpt>
      <trkpt lat="45.98967" lon="1.25408">
        <ele>356.2</ele>
        <time>2022-06-12T07:13:30Z</time>
      </trkpt>
      <trkpt lat="45.98972" lon="1.25406">
        <ele>356.2</ele>
        <time>2022-06-12T07:13:32Z</time>
      </trkpt>
      <trkpt lat="45.98974" lon="1.25405">
        <ele>356.4</ele>
        <time>2022-06-12T07:13:33Z</time>
      </trkpt>
      <trkpt lat="45.98985" lon="1.25404">
        <ele>356.6</ele>
        <time>2022-06-12T07:13:36Z</time>
      </trkpt>
      <trkpt lat="45.99" lon="1.25405">
        <ele>356.8</ele>
        <time>2022-06-12T07:13:40Z</time>
      </trkpt>
      <trkpt lat="45.99007" lon="1.25407">
        <ele>357</ele>
        <time>2022-06-12T07:13:42Z</time>
      </trkpt>
      <trkpt lat="45.99014" lon="1.25407">
        <ele>357.4</ele>
        <time>2022-06-12T07:13:44Z</time>
      </trkpt>
      <trkpt lat="45.99021" lon="1.25408">
        <ele>357.8</ele>
        <time>2022-06-12T07:13:46Z</time>
      </trkpt>
      <trkpt lat="45.99026" lon="1.25406">
        <ele>357.8</ele>
        <time>2022-06-12T07:13:47Z</time>
      </trkpt>
      <trkpt lat="45.99035" lon="1.25403">
        <ele>357.8</ele>
        <time>2022-06-12T07:13:49Z</time>
      </trkpt>
      <trkpt lat="45.9904" lon="1.254">
        <ele>357.8</ele>
        <time>2022-06-12T07:13:50Z</time>
      </trkpt>
      <trkpt lat="45.99076" lon="1.25387">
        <ele>357</ele>
        <time>2022-06-12T07:13:56Z</time>
      </trkpt>
      <trkpt lat="45.99092" lon="1.25374">
        <ele>357</ele>
        <time>2022-06-12T07:13:59Z</time>
      </trkpt>
      <trkpt lat="45.99113" lon="1.25358">
        <ele>356.8</ele>
        <time>2022-06-12T07:14:03Z</time>
      </trkpt>
      <trkpt lat="45.99123" lon="1.25349">
        <ele>356.8</ele>
        <time>2022-06-12T07:14:05Z</time>
      </trkpt>
      <trkpt lat="45.99128" lon="1.25345">
        <ele>356.6</ele>
        <time>2022-06-12T07:14:06Z</time>
      </trkpt>
      <trkpt lat="45.99133" lon="1.25341">
        <ele>356.4</ele>
        <time>2022-06-12T07:14:07Z</time>
      </trkpt>
      <trkpt lat="45.99138" lon="1.25339">
        <ele>356.2</ele>
        <time>2022-06-12T07:14:08Z</time>
      </trkpt>
      <trkpt lat="45.99143" lon="1.2534">
        <ele>355.8</ele>
        <time>2022-06-12T07:14:09Z</time>
      </trkpt>
      <trkpt lat="45.99147" lon="1.2534">
        <ele>355.6</ele>
        <time>2022-06-12T07:14:10Z</time>
      </trkpt>
      <trkpt lat="45.99151" lon="1.25342">
        <ele>355</ele>
        <time>2022-06-12T07:14:11Z</time>
      </trkpt>
      <trkpt lat="45.99154" lon="1.25342">
        <ele>354.6</ele>
        <time>2022-06-12T07:14:12Z</time>
      </trkpt>
      <trkpt lat="45.99158" lon="1.25344">
        <ele>354.2</ele>
        <time>2022-06-12T07:14:13Z</time>
      </trkpt>
      <trkpt lat="45.99168" lon="1.25346">
        <ele>353.8</ele>
        <time>2022-06-12T07:14:15Z</time>
      </trkpt>
      <trkpt lat="45.99183" lon="1.25353">
        <ele>353.6</ele>
        <time>2022-06-12T07:14:18Z</time>
      </trkpt>
      <trkpt lat="45.99188" lon="1.25354">
        <ele>353.6</ele>
        <time>2022-06-12T07:14:19Z</time>
      </trkpt>
      <trkpt lat="45.99198" lon="1.25351">
        <ele>354</ele>
        <time>2022-06-12T07:14:21Z</time>
      </trkpt>
      <trkpt lat="45.99206" lon="1.25344">
        <ele>354.2</ele>
        <time>2022-06-12T07:14:23Z</time>
      </trkpt>
      <trkpt lat="45.99222" lon="1.25332">
        <ele>354.6</ele>
        <time>2022-06-12T07:14:26Z</time>
      </trkpt>
      <trkpt lat="45.99252" lon="1.25309">
        <ele>355.2</ele>
        <time>2022-06-12T07:14:32Z</time>
      </trkpt>
      <trkpt lat="45.9929" lon="1.25296">
        <ele>355.8</ele>
        <time>2022-06-12T07:14:39Z</time>
      </trkpt>
      <trkpt lat="45.99307" lon="1.25293">
        <ele>356.2</ele>
        <time>2022-06-12T07:14:42Z</time>
      </trkpt>
      <trkpt lat="45.99313" lon="1.25292">
        <ele>356.4</ele>
        <time>2022-06-12T07:14:43Z</time>
      </trkpt>
      <trkpt lat="45.99336" lon="1.25284">
        <ele>356.4</ele>
        <time>2022-06-12T07:14:47Z</time>
      </trkpt>
      <trkpt lat="45.99383" lon="1.25259">
        <ele>356.8</ele>
        <time>2022-06-12T07:14:56Z</time>
      </trkpt>
      <trkpt lat="45.99433" lon="1.25231">
        <ele>356.8</ele>
        <time>2022-06-12T07:15:06Z</time>
      </trkpt>
      <trkpt lat="45.99457" lon="1.25217">
        <ele>357.2</ele>
        <time>2022-06-12T07:15:11Z</time>
      </trkpt>
      <trkpt lat="45.99467" lon="1.25211">
        <ele>357.4</ele>
        <time>2022-06-12T07:15:13Z</time>
      </trkpt>
      <trkpt lat="45.99495" lon="1.25201">
        <ele>357.6</ele>
        <time>2022-06-12T07:15:19Z</time>
      </trkpt>
      <trkpt lat="45.995" lon="1.25201">
        <ele>358</ele>
        <time>2022-06-12T07:15:20Z</time>
      </trkpt>
      <trkpt lat="45.99514" lon="1.25202">
        <ele>358.4</ele>
        <time>2022-06-12T07:15:23Z</time>
      </trkpt>
      <trkpt lat="45.99525" lon="1.25206">
        <ele>359</ele>
        <time>2022-06-12T07:15:26Z</time>
      </trkpt>
      <trkpt lat="45.99552" lon="1.25216">
        <ele>359.4</ele>
        <time>2022-06-12T07:15:33Z</time>
      </trkpt>
      <trkpt lat="45.99556" lon="1.25218">
        <ele>359.4</ele>
        <time>2022-06-12T07:15:34Z</time>
      </trkpt>
      <trkpt lat="45.99577" lon="1.25233">
        <ele>360</ele>
        <time>2022-06-12T07:15:40Z</time>
      </trkpt>
      <trkpt lat="45.9958" lon="1.25235">
        <ele>360.2</ele>
        <time>2022-06-12T07:15:41Z</time>
      </trkpt>
      <trkpt lat="45.99588" lon="1.25237">
        <ele>360.6</ele>
        <time>2022-06-12T07:15:43Z</time>
      </trkpt>
      <trkpt lat="45.99606" lon="1.2524">
        <ele>361.6</ele>
        <time>2022-06-12T07:15:48Z</time>
      </trkpt>
      <trkpt lat="45.99614" lon="1.25241">
        <ele>361.8</ele>
        <time>2022-06-12T07:15:50Z</time>
      </trkpt>
      <trkpt lat="45.99618" lon="1.25242">
        <ele>361.8</ele>
        <time>2022-06-12T07:15:51Z</time>
      </trkpt>
      <trkpt lat="45.99631" lon="1.25243">
        <ele>361.8</ele>
        <time>2022-06-12T07:15:54Z</time>
      </trkpt>
      <trkpt lat="45.9964" lon="1.25243">
        <ele>361.8</ele>
        <time>2022-06-12T07:15:56Z</time>
      </trkpt>
      <trkpt lat="45.9967" lon="1.25237">
        <ele>361.4</ele>
        <time>2022-06-12T07:16:02Z</time>
      </trkpt>
      <trkpt lat="45.99699" lon="1.25232">
        <ele>361.4</ele>
        <time>2022-06-12T07:16:08Z</time>
      </trkpt>
      <trkpt lat="45.99705" lon="1.25234">
        <ele>361.6</ele>
        <time>2022-06-12T07:16:10Z</time>
      </trkpt>
      <trkpt lat="45.9971" lon="1.25236">
        <ele>361.6</ele>
        <time>2022-06-12T07:16:12Z</time>
      </trkpt>
      <trkpt lat="45.99721" lon="1.25242">
        <ele>361.4</ele>
        <time>2022-06-12T07:16:15Z</time>
      </trkpt>
      <trkpt lat="45.99734" lon="1.25254">
        <ele>361.2</ele>
        <time>2022-06-12T07:16:18Z</time>
      </trkpt>
      <trkpt lat="45.99747" lon="1.25269">
        <ele>361.2</ele>
        <time>2022-06-12T07:16:21Z</time>
      </trkpt>
      <trkpt lat="45.99754" lon="1.25281">
        <ele>360.6</ele>
        <time>2022-06-12T07:16:23Z</time>
      </trkpt>
      <trkpt lat="45.99757" lon="1.25288">
        <ele>360.4</ele>
        <time>2022-06-12T07:16:24Z</time>
      </trkpt>
      <trkpt lat="45.99762" lon="1.25304">
        <ele>360</ele>
        <time>2022-06-12T07:16:26Z</time>
      </trkpt>
      <trkpt lat="45.99764" lon="1.25312">
        <ele>359.6</ele>
        <time>2022-06-12T07:16:27Z</time>
      </trkpt>
      <trkpt lat="45.99767" lon="1.25331">
        <ele>358.6</ele>
        <time>2022-06-12T07:16:29Z</time>
      </trkpt>
      <trkpt lat="45.99769" lon="1.2534">
        <ele>357.6</ele>
        <time>2022-06-12T07:16:30Z</time>
      </trkpt>
      <trkpt lat="45.99773" lon="1.25361">
        <ele>356</ele>
        <time>2022-06-12T07:16:32Z</time>
      </trkpt>
      <trkpt lat="45.99776" lon="1.25386">
        <ele>355</ele>
        <time>2022-06-12T07:16:34Z</time>
      </trkpt>
      <trkpt lat="45.9978" lon="1.25413">
        <ele>353.8</ele>
        <time>2022-06-12T07:16:36Z</time>
      </trkpt>
      <trkpt lat="45.99787" lon="1.2544">
        <ele>351.6</ele>
        <time>2022-06-12T07:16:38Z</time>
      </trkpt>
      <trkpt lat="45.99793" lon="1.25452">
        <ele>350.6</ele>
        <time>2022-06-12T07:16:39Z</time>
      </trkpt>
      <trkpt lat="45.99815" lon="1.25473">
        <ele>349.4</ele>
        <time>2022-06-12T07:16:41Z</time>
      </trkpt>
      <trkpt lat="45.99815" lon="1.25473">
        <ele>348</ele>
        <time>2022-06-12T07:16:42Z</time>
      </trkpt>
      <trkpt lat="45.99856" lon="1.25497">
        <ele>347.4</ele>
        <time>2022-06-12T07:16:44Z</time>
      </trkpt>
      <trkpt lat="45.9988" lon="1.25514">
        <ele>346.6</ele>
        <time>2022-06-12T07:16:46Z</time>
      </trkpt>
      <trkpt lat="45.99899" lon="1.25535">
        <ele>345.6</ele>
        <time>2022-06-12T07:16:48Z</time>
      </trkpt>
      <trkpt lat="45.99908" lon="1.25544">
        <ele>344.4</ele>
        <time>2022-06-12T07:16:49Z</time>
      </trkpt>
      <trkpt lat="45.99923" lon="1.25562">
        <ele>343.2</ele>
        <time>2022-06-12T07:16:51Z</time>
      </trkpt>
      <trkpt lat="45.9993" lon="1.25571">
        <ele>342.8</ele>
        <time>2022-06-12T07:16:52Z</time>
      </trkpt>
      <trkpt lat="45.99936" lon="1.25579">
        <ele>342.2</ele>
        <time>2022-06-12T07:16:53Z</time>
      </trkpt>
      <trkpt lat="45.99963" lon="1.25614">
        <ele>341.6</ele>
        <time>2022-06-12T07:16:58Z</time>
      </trkpt>
      <trkpt lat="45.99989" lon="1.25649">
        <ele>341.8</ele>
        <time>2022-06-12T07:17:04Z</time>
      </trkpt>
      <trkpt lat="46.00009" lon="1.2568">
        <ele>342</ele>
        <time>2022-06-12T07:17:10Z</time>
      </trkpt>
      <trkpt lat="46.00015" lon="1.25688">
        <ele>341.8</ele>
        <time>2022-06-12T07:17:12Z</time>
      </trkpt>
      <trkpt lat="46.00022" lon="1.25697">
        <ele>341.6</ele>
        <time>2022-06-12T07:17:15Z</time>
      </trkpt>
      <trkpt lat="46.00033" lon="1.25705">
        <ele>341.4</ele>
        <time>2022-06-12T07:17:19Z</time>
      </trkpt>
      <trkpt lat="46.00057" lon="1.25723">
        <ele>341</ele>
        <time>2022-06-12T07:17:24Z</time>
      </trkpt>
      <trkpt lat="46.00076" lon="1.25736">
        <ele>339.8</ele>
        <time>2022-06-12T07:17:27Z</time>
      </trkpt>
      <trkpt lat="46.00089" lon="1.25746">
        <ele>339.2</ele>
        <time>2022-06-12T07:17:29Z</time>
      </trkpt>
      <trkpt lat="46.00097" lon="1.25752">
        <ele>338.4</ele>
        <time>2022-06-12T07:17:30Z</time>
      </trkpt>
      <trkpt lat="46.00112" lon="1.25764">
        <ele>337.2</ele>
        <time>2022-06-12T07:17:32Z</time>
      </trkpt>
      <trkpt lat="46.00129" lon="1.25776">
        <ele>335.8</ele>
        <time>2022-06-12T07:17:34Z</time>
      </trkpt>
      <trkpt lat="46.00157" lon="1.25792">
        <ele>334.6</ele>
        <time>2022-06-12T07:17:37Z</time>
      </trkpt>
      <trkpt lat="46.00177" lon="1.25805">
        <ele>333.6</ele>
        <time>2022-06-12T07:17:39Z</time>
      </trkpt>
      <trkpt lat="46.00196" lon="1.25817">
        <ele>332</ele>
        <time>2022-06-12T07:17:41Z</time>
      </trkpt>
      <trkpt lat="46.00218" lon="1.2583">
        <ele>331</ele>
        <time>2022-06-12T07:17:43Z</time>
      </trkpt>
      <trkpt lat="46.00246" lon="1.25848">
        <ele>330</ele>
        <time>2022-06-12T07:17:46Z</time>
      </trkpt>
      <trkpt lat="46.00254" lon="1.25854">
        <ele>329.8</ele>
        <time>2022-06-12T07:17:47Z</time>
      </trkpt>
      <trkpt lat="46.00262" lon="1.25862">
        <ele>329.8</ele>
        <time>2022-06-12T07:17:48Z</time>
      </trkpt>
      <trkpt lat="46.00274" lon="1.25879">
        <ele>329.6</ele>
        <time>2022-06-12T07:17:50Z</time>
      </trkpt>
      <trkpt lat="46.00287" lon="1.25917">
        <ele>329.6</ele>
        <time>2022-06-12T07:17:54Z</time>
      </trkpt>
      <trkpt lat="46.00293" lon="1.25939">
        <ele>330.4</ele>
        <time>2022-06-12T07:17:57Z</time>
      </trkpt>
      <trkpt lat="46.00295" lon="1.25945">
        <ele>330.6</ele>
        <time>2022-06-12T07:17:58Z</time>
      </trkpt>
      <trkpt lat="46.00298" lon="1.25951">
        <ele>330.8</ele>
        <time>2022-06-12T07:17:59Z</time>
      </trkpt>
      <trkpt lat="46.003" lon="1.25956">
        <ele>331.4</ele>
        <time>2022-06-12T07:18:00Z</time>
      </trkpt>
      <trkpt lat="46.00306" lon="1.2597">
        <ele>332.6</ele>
        <time>2022-06-12T07:18:03Z</time>
      </trkpt>
      <trkpt lat="46.00311" lon="1.25989">
        <ele>333.8</ele>
        <time>2022-06-12T07:18:07Z</time>
      </trkpt>
      <trkpt lat="46.00315" lon="1.26007">
        <ele>334.6</ele>
        <time>2022-06-12T07:18:11Z</time>
      </trkpt>
      <trkpt lat="46.00322" lon="1.26016">
        <ele>335.4</ele>
        <time>2022-06-12T07:18:14Z</time>
      </trkpt>
      <trkpt lat="46.0033" lon="1.26023">
        <ele>336.2</ele>
        <time>2022-06-12T07:18:17Z</time>
      </trkpt>
      <trkpt lat="46.00332" lon="1.26026">
        <ele>336.4</ele>
        <time>2022-06-12T07:18:18Z</time>
      </trkpt>
      <trkpt lat="46.00347" lon="1.26042">
        <ele>337.6</ele>
        <time>2022-06-12T07:18:24Z</time>
      </trkpt>
      <trkpt lat="46.00349" lon="1.26044">
        <ele>337.6</ele>
        <time>2022-06-12T07:18:25Z</time>
      </trkpt>
      <trkpt lat="46.00357" lon="1.26056">
        <ele>338.6</ele>
        <time>2022-06-12T07:18:29Z</time>
      </trkpt>
      <trkpt lat="46.00368" lon="1.26072">
        <ele>339.2</ele>
        <time>2022-06-12T07:18:34Z</time>
      </trkpt>
      <trkpt lat="46.00381" lon="1.26092">
        <ele>339.8</ele>
        <time>2022-06-12T07:18:40Z</time>
      </trkpt>
      <trkpt lat="46.00382" lon="1.26095">
        <ele>340</ele>
        <time>2022-06-12T07:18:41Z</time>
      </trkpt>
      <trkpt lat="46.0039" lon="1.26113">
        <ele>340.8</ele>
        <time>2022-06-12T07:18:47Z</time>
      </trkpt>
      <trkpt lat="46.00392" lon="1.26116">
        <ele>341</ele>
        <time>2022-06-12T07:18:48Z</time>
      </trkpt>
      <trkpt lat="46.00401" lon="1.26132">
        <ele>342.2</ele>
        <time>2022-06-12T07:18:53Z</time>
      </trkpt>
      <trkpt lat="46.00403" lon="1.26135">
        <ele>342.6</ele>
        <time>2022-06-12T07:18:54Z</time>
      </trkpt>
      <trkpt lat="46.00412" lon="1.26148">
        <ele>343.4</ele>
        <time>2022-06-12T07:18:58Z</time>
      </trkpt>
      <trkpt lat="46.00424" lon="1.26165">
        <ele>344.4</ele>
        <time>2022-06-12T07:19:03Z</time>
      </trkpt>
      <trkpt lat="46.00426" lon="1.26168">
        <ele>344.4</ele>
        <time>2022-06-12T07:19:04Z</time>
      </trkpt>
      <trkpt lat="46.00445" lon="1.26192">
        <ele>345.2</ele>
        <time>2022-06-12T07:19:11Z</time>
      </trkpt>
      <trkpt lat="46.00455" lon="1.26211">
        <ele>345.4</ele>
        <time>2022-06-12T07:19:16Z</time>
      </trkpt>
      <trkpt lat="46.00459" lon="1.26219">
        <ele>345.8</ele>
        <time>2022-06-12T07:19:18Z</time>
      </trkpt>
      <trkpt lat="46.00466" lon="1.26239">
        <ele>346.6</ele>
        <time>2022-06-12T07:19:23Z</time>
      </trkpt>
      <trkpt lat="46.00468" lon="1.26242">
        <ele>346.6</ele>
        <time>2022-06-12T07:19:24Z</time>
      </trkpt>
      <trkpt lat="46.00482" lon="1.2626">
        <ele>347</ele>
        <time>2022-06-12T07:19:30Z</time>
      </trkpt>
      <trkpt lat="46.0049" lon="1.26264">
        <ele>347.6</ele>
        <time>2022-06-12T07:19:33Z</time>
      </trkpt>
      <trkpt lat="46.00499" lon="1.26267">
        <ele>347.8</ele>
        <time>2022-06-12T07:19:36Z</time>
      </trkpt>
      <trkpt lat="46.00509" lon="1.26275">
        <ele>348.6</ele>
        <time>2022-06-12T07:19:42Z</time>
      </trkpt>
      <trkpt lat="46.0051" lon="1.26276">
        <ele>348.8</ele>
        <time>2022-06-12T07:19:43Z</time>
      </trkpt>
      <trkpt lat="46.00523" lon="1.26281">
        <ele>350</ele>
        <time>2022-06-12T07:19:49Z</time>
      </trkpt>
      <trkpt lat="46.00545" lon="1.26288">
        <ele>350.4</ele>
        <time>2022-06-12T07:19:54Z</time>
      </trkpt>
      <trkpt lat="46.00563" lon="1.26301">
        <ele>349.8</ele>
        <time>2022-06-12T07:20:00Z</time>
      </trkpt>
      <trkpt lat="46.00576" lon="1.26308">
        <ele>350</ele>
        <time>2022-06-12T07:20:03Z</time>
      </trkpt>
      <trkpt lat="46.006" lon="1.26321">
        <ele>350.2</ele>
        <time>2022-06-12T07:20:07Z</time>
      </trkpt>
      <trkpt lat="46.00614" lon="1.26332">
        <ele>350.4</ele>
        <time>2022-06-12T07:20:10Z</time>
      </trkpt>
      <trkpt lat="46.0062" lon="1.26336">
        <ele>350.4</ele>
        <time>2022-06-12T07:20:12Z</time>
      </trkpt>
      <trkpt lat="46.00626" lon="1.26344">
        <ele>350.4</ele>
        <time>2022-06-12T07:20:14Z</time>
      </trkpt>
      <trkpt lat="46.00627" lon="1.26348">
        <ele>350.2</ele>
        <time>2022-06-12T07:20:15Z</time>
      </trkpt>
      <trkpt lat="46.00623" lon="1.26367">
        <ele>349.2</ele>
        <time>2022-06-12T07:20:20Z</time>
      </trkpt>
      <trkpt lat="46.00616" lon="1.26382">
        <ele>349</ele>
        <time>2022-06-12T07:20:23Z</time>
      </trkpt>
      <trkpt lat="46.00613" lon="1.26387">
        <ele>349</ele>
        <time>2022-06-12T07:20:24Z</time>
      </trkpt>
      <trkpt lat="46.00607" lon="1.26395">
        <ele>348.8</ele>
        <time>2022-06-12T07:20:26Z</time>
      </trkpt>
      <trkpt lat="46.00589" lon="1.26411">
        <ele>348</ele>
        <time>2022-06-12T07:20:31Z</time>
      </trkpt>
      <trkpt lat="46.0058" lon="1.26418">
        <ele>347.8</ele>
        <time>2022-06-12T07:20:33Z</time>
      </trkpt>
      <trkpt lat="46.00552" lon="1.26441">
        <ele>346.6</ele>
        <time>2022-06-12T07:20:39Z</time>
      </trkpt>
      <trkpt lat="46.00516" lon="1.26462">
        <ele>345.8</ele>
        <time>2022-06-12T07:20:45Z</time>
      </trkpt>
      <trkpt lat="46.00504" lon="1.2647">
        <ele>345.2</ele>
        <time>2022-06-12T07:20:47Z</time>
      </trkpt>
      <trkpt lat="46.00491" lon="1.26482">
        <ele>344.2</ele>
        <time>2022-06-12T07:20:49Z</time>
      </trkpt>
      <trkpt lat="46.00485" lon="1.2649">
        <ele>343.6</ele>
        <time>2022-06-12T07:20:50Z</time>
      </trkpt>
      <trkpt lat="46.00471" lon="1.26504">
        <ele>342.6</ele>
        <time>2022-06-12T07:20:52Z</time>
      </trkpt>
      <trkpt lat="46.00452" lon="1.26532">
        <ele>341.2</ele>
        <time>2022-06-12T07:20:55Z</time>
      </trkpt>
      <trkpt lat="46.00431" lon="1.26567">
        <ele>339.8</ele>
        <time>2022-06-12T07:20:59Z</time>
      </trkpt>
      <trkpt lat="46.0042" lon="1.26591">
        <ele>338.8</ele>
        <time>2022-06-12T07:21:02Z</time>
      </trkpt>
      <trkpt lat="46.00416" lon="1.26599">
        <ele>338.6</ele>
        <time>2022-06-12T07:21:03Z</time>
      </trkpt>
      <trkpt lat="46.00404" lon="1.26623">
        <ele>338.6</ele>
        <time>2022-06-12T07:21:07Z</time>
      </trkpt>
      <trkpt lat="46.00395" lon="1.26636">
        <ele>339.8</ele>
        <time>2022-06-12T07:21:10Z</time>
      </trkpt>
      <trkpt lat="46.00387" lon="1.26647">
        <ele>341</ele>
        <time>2022-06-12T07:21:13Z</time>
      </trkpt>
      <trkpt lat="46.00373" lon="1.26663">
        <ele>342</ele>
        <time>2022-06-12T07:21:18Z</time>
      </trkpt>
      <trkpt lat="46.00367" lon="1.26669">
        <ele>342.4</ele>
        <time>2022-06-12T07:21:20Z</time>
      </trkpt>
      <trkpt lat="46.00355" lon="1.26684">
        <ele>343.2</ele>
        <time>2022-06-12T07:21:25Z</time>
      </trkpt>
      <trkpt lat="46.0035" lon="1.26689">
        <ele>343.6</ele>
        <time>2022-06-12T07:21:27Z</time>
      </trkpt>
      <trkpt lat="46.00342" lon="1.26693">
        <ele>344.2</ele>
        <time>2022-06-12T07:21:30Z</time>
      </trkpt>
      <trkpt lat="46.00334" lon="1.26695">
        <ele>344.6</ele>
        <time>2022-06-12T07:21:33Z</time>
      </trkpt>
      <trkpt lat="46.00324" lon="1.26701">
        <ele>345.2</ele>
        <time>2022-06-12T07:21:37Z</time>
      </trkpt>
      <trkpt lat="46.00321" lon="1.26703">
        <ele>345.6</ele>
        <time>2022-06-12T07:21:39Z</time>
      </trkpt>
      <trkpt lat="46.00309" lon="1.2671">
        <ele>346.2</ele>
        <time>2022-06-12T07:21:45Z</time>
      </trkpt>
      <trkpt lat="46.00307" lon="1.26712">
        <ele>346.4</ele>
        <time>2022-06-12T07:21:46Z</time>
      </trkpt>
      <trkpt lat="46.00301" lon="1.26719">
        <ele>346.6</ele>
        <time>2022-06-12T07:21:51Z</time>
      </trkpt>
      <trkpt lat="46.003" lon="1.26724">
        <ele>346.6</ele>
        <time>2022-06-12T07:21:53Z</time>
      </trkpt>
      <trkpt lat="46.00293" lon="1.26737">
        <ele>347.2</ele>
        <time>2022-06-12T07:21:58Z</time>
      </trkpt>
      <trkpt lat="46.00292" lon="1.26739">
        <ele>347.4</ele>
        <time>2022-06-12T07:21:59Z</time>
      </trkpt>
      <trkpt lat="46.00287" lon="1.26746">
        <ele>348.6</ele>
        <time>2022-06-12T07:22:03Z</time>
      </trkpt>
      <trkpt lat="46.00272" lon="1.26759">
        <ele>349.8</ele>
        <time>2022-06-12T07:22:09Z</time>
      </trkpt>
      <trkpt lat="46.00267" lon="1.26765">
        <ele>350.2</ele>
        <time>2022-06-12T07:22:11Z</time>
      </trkpt>
      <trkpt lat="46.00261" lon="1.26772">
        <ele>351</ele>
        <time>2022-06-12T07:22:14Z</time>
      </trkpt>
      <trkpt lat="46.00247" lon="1.26788">
        <ele>352</ele>
        <time>2022-06-12T07:22:20Z</time>
      </trkpt>
      <trkpt lat="46.00238" lon="1.26799">
        <ele>353</ele>
        <time>2022-06-12T07:22:25Z</time>
      </trkpt>
      <trkpt lat="46.00232" lon="1.26806">
        <ele>353.8</ele>
        <time>2022-06-12T07:22:28Z</time>
      </trkpt>
      <trkpt lat="46.0023" lon="1.26808">
        <ele>354</ele>
        <time>2022-06-12T07:22:29Z</time>
      </trkpt>
      <trkpt lat="46.00225" lon="1.26815">
        <ele>355.2</ele>
        <time>2022-06-12T07:22:33Z</time>
      </trkpt>
      <trkpt lat="46.00224" lon="1.26819">
        <ele>355.4</ele>
        <time>2022-06-12T07:22:35Z</time>
      </trkpt>
      <trkpt lat="46.00221" lon="1.26825">
        <ele>356.4</ele>
        <time>2022-06-12T07:22:39Z</time>
      </trkpt>
      <trkpt lat="46.00219" lon="1.26832">
        <ele>357.4</ele>
        <time>2022-06-12T07:22:43Z</time>
      </trkpt>
      <trkpt lat="46.00213" lon="1.26847">
        <ele>358.6</ele>
        <time>2022-06-12T07:22:50Z</time>
      </trkpt>
      <trkpt lat="46.00208" lon="1.26861">
        <ele>359.6</ele>
        <time>2022-06-12T07:22:57Z</time>
      </trkpt>
      <trkpt lat="46.00207" lon="1.26867">
        <ele>360.6</ele>
        <time>2022-06-12T07:23:00Z</time>
      </trkpt>
      <trkpt lat="46.00206" lon="1.2687">
        <ele>360.8</ele>
        <time>2022-06-12T07:23:01Z</time>
      </trkpt>
      <trkpt lat="46.00202" lon="1.26883">
        <ele>360.8</ele>
        <time>2022-06-12T07:23:05Z</time>
      </trkpt>
      <trkpt lat="46.00202" lon="1.26883">
        <ele>360.4</ele>
        <time>2022-06-12T07:23:06Z</time>
      </trkpt>
      <trkpt lat="46.002" lon="1.26891">
        <ele>360.4</ele>
        <time>2022-06-12T07:23:07Z</time>
      </trkpt>
      <trkpt lat="46.00199" lon="1.26901">
        <ele>359.8</ele>
        <time>2022-06-12T07:23:09Z</time>
      </trkpt>
      <trkpt lat="46.00199" lon="1.26908">
        <ele>359.2</ele>
        <time>2022-06-12T07:23:10Z</time>
      </trkpt>
      <trkpt lat="46.00198" lon="1.26924">
        <ele>358.2</ele>
        <time>2022-06-12T07:23:12Z</time>
      </trkpt>
      <trkpt lat="46.00198" lon="1.26934">
        <ele>357.6</ele>
        <time>2022-06-12T07:23:13Z</time>
      </trkpt>
      <trkpt lat="46.002" lon="1.26952">
        <ele>356.6</ele>
        <time>2022-06-12T07:23:15Z</time>
      </trkpt>
      <trkpt lat="46.00201" lon="1.2696">
        <ele>356.4</ele>
        <time>2022-06-12T07:23:16Z</time>
      </trkpt>
      <trkpt lat="46.00202" lon="1.26968">
        <ele>356.2</ele>
        <time>2022-06-12T07:23:17Z</time>
      </trkpt>
      <trkpt lat="46.002" lon="1.26985">
        <ele>356</ele>
        <time>2022-06-12T07:23:19Z</time>
      </trkpt>
      <trkpt lat="46.00195" lon="1.27003">
        <ele>355.4</ele>
        <time>2022-06-12T07:23:21Z</time>
      </trkpt>
      <trkpt lat="46.0018" lon="1.27051">
        <ele>354.4</ele>
        <time>2022-06-12T07:23:26Z</time>
      </trkpt>
      <trkpt lat="46.00178" lon="1.27059">
        <ele>354</ele>
        <time>2022-06-12T07:23:27Z</time>
      </trkpt>
      <trkpt lat="46.00171" lon="1.27081">
        <ele>353.6</ele>
        <time>2022-06-12T07:23:29Z</time>
      </trkpt>
      <trkpt lat="46.00168" lon="1.27093">
        <ele>353.4</ele>
        <time>2022-06-12T07:23:30Z</time>
      </trkpt>
      <trkpt lat="46.00166" lon="1.27103">
        <ele>352.8</ele>
        <time>2022-06-12T07:23:31Z</time>
      </trkpt>
      <trkpt lat="46.00161" lon="1.27126">
        <ele>351.4</ele>
        <time>2022-06-12T07:23:33Z</time>
      </trkpt>
      <trkpt lat="46.00156" lon="1.27145">
        <ele>350.2</ele>
        <time>2022-06-12T07:23:35Z</time>
      </trkpt>
      <trkpt lat="46.00153" lon="1.27156">
        <ele>349.4</ele>
        <time>2022-06-12T07:23:36Z</time>
      </trkpt>
      <trkpt lat="46.00151" lon="1.27167">
        <ele>349</ele>
        <time>2022-06-12T07:23:37Z</time>
      </trkpt>
      <trkpt lat="46.00142" lon="1.27215">
        <ele>348</ele>
        <time>2022-06-12T07:23:42Z</time>
      </trkpt>
      <trkpt lat="46.0014" lon="1.27225">
        <ele>347.8</ele>
        <time>2022-06-12T07:23:43Z</time>
      </trkpt>
      <trkpt lat="46.00135" lon="1.27253">
        <ele>346.8</ele>
        <time>2022-06-12T07:23:46Z</time>
      </trkpt>
      <trkpt lat="46.0013" lon="1.27287">
        <ele>345.8</ele>
        <time>2022-06-12T07:23:50Z</time>
      </trkpt>
      <trkpt lat="46.00127" lon="1.27317">
        <ele>344.8</ele>
        <time>2022-06-12T07:23:54Z</time>
      </trkpt>
      <trkpt lat="46.00126" lon="1.27324">
        <ele>344.6</ele>
        <time>2022-06-12T07:23:55Z</time>
      </trkpt>
      <trkpt lat="46.00125" lon="1.2736">
        <ele>344.4</ele>
        <time>2022-06-12T07:24:00Z</time>
      </trkpt>
      <trkpt lat="46.00125" lon="1.27367">
        <ele>344.4</ele>
        <time>2022-06-12T07:24:01Z</time>
      </trkpt>
      <trkpt lat="46.00126" lon="1.27381">
        <ele>344.6</ele>
        <time>2022-06-12T07:24:03Z</time>
      </trkpt>
      <trkpt lat="46.00131" lon="1.27401">
        <ele>345</ele>
        <time>2022-06-12T07:24:06Z</time>
      </trkpt>
      <trkpt lat="46.00137" lon="1.27432">
        <ele>345.6</ele>
        <time>2022-06-12T07:24:11Z</time>
      </trkpt>
      <trkpt lat="46.00138" lon="1.27438">
        <ele>345.6</ele>
        <time>2022-06-12T07:24:12Z</time>
      </trkpt>
      <trkpt lat="46.00137" lon="1.27462">
        <ele>345.6</ele>
        <time>2022-06-12T07:24:16Z</time>
      </trkpt>
      <trkpt lat="46.00131" lon="1.2748">
        <ele>345.8</ele>
        <time>2022-06-12T07:24:19Z</time>
      </trkpt>
      <trkpt lat="46.00123" lon="1.27512">
        <ele>346.6</ele>
        <time>2022-06-12T07:24:24Z</time>
      </trkpt>
      <trkpt lat="46.00121" lon="1.27524">
        <ele>346.8</ele>
        <time>2022-06-12T07:24:26Z</time>
      </trkpt>
      <trkpt lat="46.00121" lon="1.27531">
        <ele>347</ele>
        <time>2022-06-12T07:24:27Z</time>
      </trkpt>
      <trkpt lat="46.0012" lon="1.27548">
        <ele>347.4</ele>
        <time>2022-06-12T07:24:30Z</time>
      </trkpt>
      <trkpt lat="46.00117" lon="1.2758">
        <ele>348</ele>
        <time>2022-06-12T07:24:36Z</time>
      </trkpt>
      <trkpt lat="46.00117" lon="1.27586">
        <ele>348</ele>
        <time>2022-06-12T07:24:37Z</time>
      </trkpt>
      <trkpt lat="46.00116" lon="1.27598">
        <ele>348.2</ele>
        <time>2022-06-12T07:24:39Z</time>
      </trkpt>
      <trkpt lat="46.00117" lon="1.27617">
        <ele>348.4</ele>
        <time>2022-06-12T07:24:42Z</time>
      </trkpt>
      <trkpt lat="46.00119" lon="1.27658">
        <ele>348.2</ele>
        <time>2022-06-12T07:24:48Z</time>
      </trkpt>
      <trkpt lat="46.00119" lon="1.27666">
        <ele>348</ele>
        <time>2022-06-12T07:24:49Z</time>
      </trkpt>
      <trkpt lat="46.00122" lon="1.27698">
        <ele>347.6</ele>
        <time>2022-06-12T07:24:53Z</time>
      </trkpt>
      <trkpt lat="46.00124" lon="1.27708">
        <ele>347.2</ele>
        <time>2022-06-12T07:24:54Z</time>
      </trkpt>
      <trkpt lat="46.00125" lon="1.27719">
        <ele>346.8</ele>
        <time>2022-06-12T07:24:55Z</time>
      </trkpt>
      <trkpt lat="46.00127" lon="1.27751">
        <ele>345.8</ele>
        <time>2022-06-12T07:24:58Z</time>
      </trkpt>
      <trkpt lat="46.00126" lon="1.27759">
        <ele>345.4</ele>
        <time>2022-06-12T07:24:59Z</time>
      </trkpt>
      <trkpt lat="46.00123" lon="1.27765">
        <ele>345.2</ele>
        <time>2022-06-12T07:25:00Z</time>
      </trkpt>
      <trkpt lat="46.00116" lon="1.27774">
        <ele>345.2</ele>
        <time>2022-06-12T07:25:02Z</time>
      </trkpt>
      <trkpt lat="46.00105" lon="1.27791">
        <ele>345</ele>
        <time>2022-06-12T07:25:05Z</time>
      </trkpt>
      <trkpt lat="46.00101" lon="1.27799">
        <ele>344.4</ele>
        <time>2022-06-12T07:25:06Z</time>
      </trkpt>
      <trkpt lat="46.00098" lon="1.27808">
        <ele>344.2</ele>
        <time>2022-06-12T07:25:07Z</time>
      </trkpt>
      <trkpt lat="46.00095" lon="1.27818">
        <ele>343.8</ele>
        <time>2022-06-12T07:25:08Z</time>
      </trkpt>
      <trkpt lat="46.00091" lon="1.27839">
        <ele>342.8</ele>
        <time>2022-06-12T07:25:10Z</time>
      </trkpt>
      <trkpt lat="46.00088" lon="1.27848">
        <ele>341.8</ele>
        <time>2022-06-12T07:25:11Z</time>
      </trkpt>
      <trkpt lat="46.00085" lon="1.27863">
        <ele>340.6</ele>
        <time>2022-06-12T07:25:13Z</time>
      </trkpt>
      <trkpt lat="46.00085" lon="1.27869">
        <ele>340.2</ele>
        <time>2022-06-12T07:25:14Z</time>
      </trkpt>
      <trkpt lat="46.00085" lon="1.27873">
        <ele>339.6</ele>
        <time>2022-06-12T07:25:15Z</time>
      </trkpt>
      <trkpt lat="46.00092" lon="1.27885">
        <ele>339</ele>
        <time>2022-06-12T07:25:19Z</time>
      </trkpt>
      <trkpt lat="46.0011" lon="1.27897">
        <ele>340.2</ele>
        <time>2022-06-12T07:25:25Z</time>
      </trkpt>
      <trkpt lat="46.00116" lon="1.27901">
        <ele>341</ele>
        <time>2022-06-12T07:25:27Z</time>
      </trkpt>
      <trkpt lat="46.00127" lon="1.2791">
        <ele>342</ele>
        <time>2022-06-12T07:25:31Z</time>
      </trkpt>
      <trkpt lat="46.0013" lon="1.27912">
        <ele>342.2</ele>
        <time>2022-06-12T07:25:32Z</time>
      </trkpt>
      <trkpt lat="46.00137" lon="1.27922">
        <ele>343.4</ele>
        <time>2022-06-12T07:25:35Z</time>
      </trkpt>
      <trkpt lat="46.00142" lon="1.27934">
        <ele>344</ele>
        <time>2022-06-12T07:25:38Z</time>
      </trkpt>
      <trkpt lat="46.00143" lon="1.27953">
        <ele>344</ele>
        <time>2022-06-12T07:25:42Z</time>
      </trkpt>
      <trkpt lat="46.00134" lon="1.2797">
        <ele>344.4</ele>
        <time>2022-06-12T07:25:47Z</time>
      </trkpt>
      <trkpt lat="46.00131" lon="1.27973">
        <ele>344.6</ele>
        <time>2022-06-12T07:25:48Z</time>
      </trkpt>
      <trkpt lat="46.00115" lon="1.27996">
        <ele>345.4</ele>
        <time>2022-06-12T07:25:55Z</time>
      </trkpt>
      <trkpt lat="46.00099" lon="1.28019">
        <ele>344.6</ele>
        <time>2022-06-12T07:26:01Z</time>
      </trkpt>
      <trkpt lat="46.00096" lon="1.28024">
        <ele>344.4</ele>
        <time>2022-06-12T07:26:02Z</time>
      </trkpt>
      <trkpt lat="46.00094" lon="1.28028">
        <ele>344.2</ele>
        <time>2022-06-12T07:26:03Z</time>
      </trkpt>
      <trkpt lat="46.00075" lon="1.28051">
        <ele>343.2</ele>
        <time>2022-06-12T07:26:08Z</time>
      </trkpt>
      <trkpt lat="46.00057" lon="1.28062">
        <ele>342.2</ele>
        <time>2022-06-12T07:26:11Z</time>
      </trkpt>
      <trkpt lat="46.00051" lon="1.28065">
        <ele>341.8</ele>
        <time>2022-06-12T07:26:12Z</time>
      </trkpt>
      <trkpt lat="46.00045" lon="1.28066">
        <ele>341.6</ele>
        <time>2022-06-12T07:26:13Z</time>
      </trkpt>
      <trkpt lat="46.00035" lon="1.28067">
        <ele>340.8</ele>
        <time>2022-06-12T07:26:15Z</time>
      </trkpt>
      <trkpt lat="46.0003" lon="1.28069">
        <ele>340.2</ele>
        <time>2022-06-12T07:26:16Z</time>
      </trkpt>
      <trkpt lat="46.00027" lon="1.28072">
        <ele>339.2</ele>
        <time>2022-06-12T07:26:17Z</time>
      </trkpt>
      <trkpt lat="46.00026" lon="1.28077">
        <ele>338.6</ele>
        <time>2022-06-12T07:26:18Z</time>
      </trkpt>
      <trkpt lat="46.00026" lon="1.28082">
        <ele>337.6</ele>
        <time>2022-06-12T07:26:19Z</time>
      </trkpt>
      <trkpt lat="46.0003" lon="1.28087">
        <ele>337</ele>
        <time>2022-06-12T07:26:20Z</time>
      </trkpt>
      <trkpt lat="46.00039" lon="1.28094">
        <ele>336.2</ele>
        <time>2022-06-12T07:26:22Z</time>
      </trkpt>
      <trkpt lat="46.00044" lon="1.28099">
        <ele>335.8</ele>
        <time>2022-06-12T07:26:23Z</time>
      </trkpt>
      <trkpt lat="46.0005" lon="1.28112">
        <ele>335</ele>
        <time>2022-06-12T07:26:25Z</time>
      </trkpt>
      <trkpt lat="46.00049" lon="1.28127">
        <ele>334.4</ele>
        <time>2022-06-12T07:26:27Z</time>
      </trkpt>
      <trkpt lat="46.00047" lon="1.28132">
        <ele>334</ele>
        <time>2022-06-12T07:26:28Z</time>
      </trkpt>
      <trkpt lat="46.00043" lon="1.28136">
        <ele>334</ele>
        <time>2022-06-12T07:26:29Z</time>
      </trkpt>
      <trkpt lat="46.00035" lon="1.28138">
        <ele>333.4</ele>
        <time>2022-06-12T07:26:31Z</time>
      </trkpt>
      <trkpt lat="46.00019" lon="1.28132">
        <ele>333.4</ele>
        <time>2022-06-12T07:26:35Z</time>
      </trkpt>
      <trkpt lat="46.00009" lon="1.2813">
        <ele>333.6</ele>
        <time>2022-06-12T07:26:37Z</time>
      </trkpt>
      <trkpt lat="45.9998" lon="1.28127">
        <ele>333.8</ele>
        <time>2022-06-12T07:26:43Z</time>
      </trkpt>
      <trkpt lat="45.99971" lon="1.28126">
        <ele>333.8</ele>
        <time>2022-06-12T07:26:46Z</time>
      </trkpt>
      <trkpt lat="45.99965" lon="1.28126">
        <ele>334.2</ele>
        <time>2022-06-12T07:26:48Z</time>
      </trkpt>
      <trkpt lat="45.99953" lon="1.28127">
        <ele>335</ele>
        <time>2022-06-12T07:26:52Z</time>
      </trkpt>
      <trkpt lat="45.99945" lon="1.28126">
        <ele>335.4</ele>
        <time>2022-06-12T07:26:55Z</time>
      </trkpt>
      <trkpt lat="45.99939" lon="1.28125">
        <ele>336</ele>
        <time>2022-06-12T07:26:57Z</time>
      </trkpt>
      <trkpt lat="45.99925" lon="1.28121">
        <ele>336.8</ele>
        <time>2022-06-12T07:27:01Z</time>
      </trkpt>
      <trkpt lat="45.99919" lon="1.28122">
        <ele>337.2</ele>
        <time>2022-06-12T07:27:03Z</time>
      </trkpt>
      <trkpt lat="45.99914" lon="1.28129">
        <ele>338</ele>
        <time>2022-06-12T07:27:06Z</time>
      </trkpt>
      <trkpt lat="45.99912" lon="1.28131">
        <ele>338.2</ele>
        <time>2022-06-12T07:27:07Z</time>
      </trkpt>
      <trkpt lat="45.99907" lon="1.28145">
        <ele>339</ele>
        <time>2022-06-12T07:27:12Z</time>
      </trkpt>
      <trkpt lat="45.99907" lon="1.28148">
        <ele>339.4</ele>
        <time>2022-06-12T07:27:13Z</time>
      </trkpt>
      <trkpt lat="45.99904" lon="1.28162">
        <ele>340.6</ele>
        <time>2022-06-12T07:27:18Z</time>
      </trkpt>
      <trkpt lat="45.99903" lon="1.28167">
        <ele>340.8</ele>
        <time>2022-06-12T07:27:20Z</time>
      </trkpt>
      <trkpt lat="45.99902" lon="1.28172">
        <ele>341.8</ele>
        <time>2022-06-12T07:27:22Z</time>
      </trkpt>
      <trkpt lat="45.99898" lon="1.28184">
        <ele>342.8</ele>
        <time>2022-06-12T07:27:27Z</time>
      </trkpt>
      <trkpt lat="45.99895" lon="1.2819">
        <ele>343.2</ele>
        <time>2022-06-12T07:27:29Z</time>
      </trkpt>
      <trkpt lat="45.99885" lon="1.2821">
        <ele>343.8</ele>
        <time>2022-06-12T07:27:36Z</time>
      </trkpt>
      <trkpt lat="45.99865" lon="1.28227">
        <ele>343.4</ele>
        <time>2022-06-12T07:27:42Z</time>
      </trkpt>
      <trkpt lat="45.9985" lon="1.28243">
        <ele>343.6</ele>
        <time>2022-06-12T07:27:46Z</time>
      </trkpt>
      <trkpt lat="45.99845" lon="1.28253">
        <ele>343.8</ele>
        <time>2022-06-12T07:27:48Z</time>
      </trkpt>
      <trkpt lat="45.99837" lon="1.28287">
        <ele>343.6</ele>
        <time>2022-06-12T07:27:54Z</time>
      </trkpt>
      <trkpt lat="45.99827" lon="1.28325">
        <ele>344.2</ele>
        <time>2022-06-12T07:28:01Z</time>
      </trkpt>
      <trkpt lat="45.99817" lon="1.28364">
        <ele>345</ele>
        <time>2022-06-12T07:28:09Z</time>
      </trkpt>
      <trkpt lat="45.99816" lon="1.28369">
        <ele>345</ele>
        <time>2022-06-12T07:28:10Z</time>
      </trkpt>
      <trkpt lat="45.99811" lon="1.28394">
        <ele>346</ele>
        <time>2022-06-12T07:28:16Z</time>
      </trkpt>
      <trkpt lat="45.99808" lon="1.28404">
        <ele>346.8</ele>
        <time>2022-06-12T07:28:19Z</time>
      </trkpt>
      <trkpt lat="45.99805" lon="1.28412">
        <ele>347</ele>
        <time>2022-06-12T07:28:22Z</time>
      </trkpt>
      <trkpt lat="45.99799" lon="1.28422">
        <ele>347.6</ele>
        <time>2022-06-12T07:28:26Z</time>
      </trkpt>
      <trkpt lat="45.99794" lon="1.2843">
        <ele>348.2</ele>
        <time>2022-06-12T07:28:29Z</time>
      </trkpt>
      <trkpt lat="45.99788" lon="1.2844">
        <ele>348.6</ele>
        <time>2022-06-12T07:28:33Z</time>
      </trkpt>
      <trkpt lat="45.99781" lon="1.28455">
        <ele>349.2</ele>
        <time>2022-06-12T07:28:38Z</time>
      </trkpt>
      <trkpt lat="45.99778" lon="1.28462">
        <ele>349.4</ele>
        <time>2022-06-12T07:28:40Z</time>
      </trkpt>
      <trkpt lat="45.99769" lon="1.28488">
        <ele>350.2</ele>
        <time>2022-06-12T07:28:47Z</time>
      </trkpt>
      <trkpt lat="45.99768" lon="1.28491">
        <ele>350.2</ele>
        <time>2022-06-12T07:28:48Z</time>
      </trkpt>
      <trkpt lat="45.99759" lon="1.28516">
        <ele>351.2</ele>
        <time>2022-06-12T07:28:55Z</time>
      </trkpt>
      <trkpt lat="45.99758" lon="1.2852">
        <ele>351.2</ele>
        <time>2022-06-12T07:28:56Z</time>
      </trkpt>
      <trkpt lat="45.99746" lon="1.28552">
        <ele>352.2</ele>
        <time>2022-06-12T07:29:05Z</time>
      </trkpt>
      <trkpt lat="45.99745" lon="1.28556">
        <ele>352.2</ele>
        <time>2022-06-12T07:29:06Z</time>
      </trkpt>
      <trkpt lat="45.99735" lon="1.2858">
        <ele>352.8</ele>
        <time>2022-06-12T07:29:13Z</time>
      </trkpt>
      <trkpt lat="45.99729" lon="1.28595">
        <ele>353.4</ele>
        <time>2022-06-12T07:29:17Z</time>
      </trkpt>
      <trkpt lat="45.99722" lon="1.28613">
        <ele>354</ele>
        <time>2022-06-12T07:29:22Z</time>
      </trkpt>
      <trkpt lat="45.99715" lon="1.28624">
        <ele>354.4</ele>
        <time>2022-06-12T07:29:26Z</time>
      </trkpt>
      <trkpt lat="45.99707" lon="1.28639">
        <ele>355</ele>
        <time>2022-06-12T07:29:31Z</time>
      </trkpt>
      <trkpt lat="45.99702" lon="1.28648">
        <ele>355.4</ele>
        <time>2022-06-12T07:29:34Z</time>
      </trkpt>
      <trkpt lat="45.99697" lon="1.28659">
        <ele>355.6</ele>
        <time>2022-06-12T07:29:38Z</time>
      </trkpt>
      <trkpt lat="45.99691" lon="1.28677">
        <ele>356</ele>
        <time>2022-06-12T07:29:46Z</time>
      </trkpt>
      <trkpt lat="45.99687" lon="1.28682">
        <ele>356.6</ele>
        <time>2022-06-12T07:29:50Z</time>
      </trkpt>
      <trkpt lat="45.99684" lon="1.28686">
        <ele>356.8</ele>
        <time>2022-06-12T07:29:52Z</time>
      </trkpt>
      <trkpt lat="45.99681" lon="1.28692">
        <ele>357.8</ele>
        <time>2022-06-12T07:29:55Z</time>
      </trkpt>
      <trkpt lat="45.99676" lon="1.28701">
        <ele>358</ele>
        <time>2022-06-12T07:29:58Z</time>
      </trkpt>
      <trkpt lat="45.99668" lon="1.28724">
        <ele>359</ele>
        <time>2022-06-12T07:30:04Z</time>
      </trkpt>
      <trkpt lat="45.99669" lon="1.28741">
        <ele>360</ele>
        <time>2022-06-12T07:30:10Z</time>
      </trkpt>
      <trkpt lat="45.99669" lon="1.28743">
        <ele>360.2</ele>
        <time>2022-06-12T07:30:11Z</time>
      </trkpt>
      <trkpt lat="45.99672" lon="1.28753">
        <ele>361.4</ele>
        <time>2022-06-12T07:30:15Z</time>
      </trkpt>
      <trkpt lat="45.99674" lon="1.28758">
        <ele>362</ele>
        <time>2022-06-12T07:30:17Z</time>
      </trkpt>
      <trkpt lat="45.99675" lon="1.28762">
        <ele>362.4</ele>
        <time>2022-06-12T07:30:19Z</time>
      </trkpt>
      <trkpt lat="45.99678" lon="1.28771">
        <ele>363.4</ele>
        <time>2022-06-12T07:30:24Z</time>
      </trkpt>
      <trkpt lat="45.99682" lon="1.28785">
        <ele>364.6</ele>
        <time>2022-06-12T07:30:29Z</time>
      </trkpt>
      <trkpt lat="45.99682" lon="1.2879">
        <ele>365</ele>
        <time>2022-06-12T07:30:31Z</time>
      </trkpt>
      <trkpt lat="45.99679" lon="1.28797">
        <ele>365.8</ele>
        <time>2022-06-12T07:30:35Z</time>
      </trkpt>
      <trkpt lat="45.99676" lon="1.28802">
        <ele>366.4</ele>
        <time>2022-06-12T07:30:38Z</time>
      </trkpt>
      <trkpt lat="45.99675" lon="1.28804">
        <ele>366.8</ele>
        <time>2022-06-12T07:30:39Z</time>
      </trkpt>
      <trkpt lat="45.99671" lon="1.2881">
        <ele>367.8</ele>
        <time>2022-06-12T07:30:44Z</time>
      </trkpt>
      <trkpt lat="45.99666" lon="1.28815">
        <ele>369</ele>
        <time>2022-06-12T07:30:48Z</time>
      </trkpt>
      <trkpt lat="45.99661" lon="1.28818">
        <ele>370</ele>
        <time>2022-06-12T07:30:52Z</time>
      </trkpt>
      <trkpt lat="45.9966" lon="1.2882">
        <ele>370.2</ele>
        <time>2022-06-12T07:30:54Z</time>
      </trkpt>
      <trkpt lat="45.99653" lon="1.28828">
        <ele>371</ele>
        <time>2022-06-12T07:31:00Z</time>
      </trkpt>
      <trkpt lat="45.9965" lon="1.2883">
        <ele>371.4</ele>
        <time>2022-06-12T07:31:02Z</time>
      </trkpt>
      <trkpt lat="45.99643" lon="1.28838">
        <ele>372.2</ele>
        <time>2022-06-12T07:31:07Z</time>
      </trkpt>
      <trkpt lat="45.99643" lon="1.28839">
        <ele>372.4</ele>
        <time>2022-06-12T07:31:08Z</time>
      </trkpt>
      <trkpt lat="45.99636" lon="1.28852">
        <ele>373.2</ele>
        <time>2022-06-12T07:31:14Z</time>
      </trkpt>
      <trkpt lat="45.99631" lon="1.28859">
        <ele>373.6</ele>
        <time>2022-06-12T07:31:17Z</time>
      </trkpt>
      <trkpt lat="45.9962" lon="1.28871">
        <ele>374.6</ele>
        <time>2022-06-12T07:31:24Z</time>
      </trkpt>
      <trkpt lat="45.99606" lon="1.28868">
        <ele>375.6</ele>
        <time>2022-06-12T07:31:30Z</time>
      </trkpt>
      <trkpt lat="45.99603" lon="1.28867">
        <ele>375.6</ele>
        <time>2022-06-12T07:31:31Z</time>
      </trkpt>
      <trkpt lat="45.99581" lon="1.28862">
        <ele>376.4</ele>
        <time>2022-06-12T07:31:39Z</time>
      </trkpt>
      <trkpt lat="45.99576" lon="1.28869">
        <ele>376.8</ele>
        <time>2022-06-12T07:31:42Z</time>
      </trkpt>
      <trkpt lat="45.99575" lon="1.28872">
        <ele>376.8</ele>
        <time>2022-06-12T07:31:43Z</time>
      </trkpt>
      <trkpt lat="45.99575" lon="1.28876">
        <ele>377</ele>
        <time>2022-06-12T07:31:45Z</time>
      </trkpt>
      <trkpt lat="45.99577" lon="1.28879">
        <ele>377.4</ele>
        <time>2022-06-12T07:31:47Z</time>
      </trkpt>
      <trkpt lat="45.99581" lon="1.28881">
        <ele>378</ele>
        <time>2022-06-12T07:31:50Z</time>
      </trkpt>
      <trkpt lat="45.99587" lon="1.28884">
        <ele>378.6</ele>
        <time>2022-06-12T07:31:54Z</time>
      </trkpt>
      <trkpt lat="45.99592" lon="1.28888">
        <ele>379</ele>
        <time>2022-06-12T07:31:57Z</time>
      </trkpt>
      <trkpt lat="45.99594" lon="1.28896">
        <ele>379.2</ele>
        <time>2022-06-12T07:32:00Z</time>
      </trkpt>
      <trkpt lat="45.99597" lon="1.28906">
        <ele>380.2</ele>
        <time>2022-06-12T07:32:05Z</time>
      </trkpt>
      <trkpt lat="45.99599" lon="1.28912">
        <ele>381.2</ele>
        <time>2022-06-12T07:32:08Z</time>
      </trkpt>
      <trkpt lat="45.99599" lon="1.28912">
        <ele>381.4</ele>
        <time>2022-06-12T07:32:09Z</time>
      </trkpt>
      <trkpt lat="45.99601" lon="1.28915">
        <ele>381.4</ele>
        <time>2022-06-12T07:32:10Z</time>
      </trkpt>
      <trkpt lat="45.99606" lon="1.28924">
        <ele>382.6</ele>
        <time>2022-06-12T07:32:15Z</time>
      </trkpt>
      <trkpt lat="45.99612" lon="1.28937">
        <ele>383.8</ele>
        <time>2022-06-12T07:32:22Z</time>
      </trkpt>
      <trkpt lat="45.99613" lon="1.28939">
        <ele>383.8</ele>
        <time>2022-06-12T07:32:23Z</time>
      </trkpt>
      <trkpt lat="45.99618" lon="1.28947">
        <ele>385</ele>
        <time>2022-06-12T07:32:28Z</time>
      </trkpt>
      <trkpt lat="45.99623" lon="1.28954">
        <ele>385.4</ele>
        <time>2022-06-12T07:32:32Z</time>
      </trkpt>
      <trkpt lat="45.99629" lon="1.28965">
        <ele>386</ele>
        <time>2022-06-12T07:32:37Z</time>
      </trkpt>
      <trkpt lat="45.99631" lon="1.28967">
        <ele>386.2</ele>
        <time>2022-06-12T07:32:38Z</time>
      </trkpt>
      <trkpt lat="45.99637" lon="1.2898">
        <ele>387.2</ele>
        <time>2022-06-12T07:32:44Z</time>
      </trkpt>
      <trkpt lat="45.99639" lon="1.28985">
        <ele>387.6</ele>
        <time>2022-06-12T07:32:47Z</time>
      </trkpt>
      <trkpt lat="45.9964" lon="1.2899">
        <ele>388.2</ele>
        <time>2022-06-12T07:32:50Z</time>
      </trkpt>
      <trkpt lat="45.99643" lon="1.28998">
        <ele>389</ele>
        <time>2022-06-12T07:32:55Z</time>
      </trkpt>
      <trkpt lat="45.99644" lon="1.29">
        <ele>389.2</ele>
        <time>2022-06-12T07:32:56Z</time>
      </trkpt>
      <trkpt lat="45.99647" lon="1.29012">
        <ele>390</ele>
        <time>2022-06-12T07:33:02Z</time>
      </trkpt>
      <trkpt lat="45.99648" lon="1.29016">
        <ele>390.4</ele>
        <time>2022-06-12T07:33:04Z</time>
      </trkpt>
      <trkpt lat="45.99652" lon="1.29028">
        <ele>391.4</ele>
        <time>2022-06-12T07:33:11Z</time>
      </trkpt>
      <trkpt lat="45.99656" lon="1.29044">
        <ele>392.4</ele>
        <time>2022-06-12T07:33:19Z</time>
      </trkpt>
      <trkpt lat="45.99658" lon="1.29055">
        <ele>393.4</ele>
        <time>2022-06-12T07:33:24Z</time>
      </trkpt>
      <trkpt lat="45.99658" lon="1.29057">
        <ele>393.6</ele>
        <time>2022-06-12T07:33:25Z</time>
      </trkpt>
      <trkpt lat="45.99658" lon="1.29058">
        <ele>393.8</ele>
        <time>2022-06-12T07:33:26Z</time>
      </trkpt>
      <trkpt lat="45.99657" lon="1.29059">
        <ele>394.6</ele>
        <time>2022-06-12T07:33:29Z</time>
      </trkpt>
      <trkpt lat="45.99656" lon="1.29059">
        <ele>394.8</ele>
        <time>2022-06-12T07:33:30Z</time>
      </trkpt>
      <trkpt lat="45.99654" lon="1.2906">
        <ele>395.2</ele>
        <time>2022-06-12T07:33:34Z</time>
      </trkpt>
      <trkpt lat="45.99653" lon="1.2906">
        <ele>395.4</ele>
        <time>2022-06-12T07:33:35Z</time>
      </trkpt>
      <trkpt lat="45.99651" lon="1.29061">
        <ele>395.8</ele>
        <time>2022-06-12T07:33:37Z</time>
      </trkpt>
      <trkpt lat="45.99646" lon="1.29061">
        <ele>396.8</ele>
        <time>2022-06-12T07:33:43Z</time>
      </trkpt>
      <trkpt lat="45.99644" lon="1.29061">
        <ele>397</ele>
        <time>2022-06-12T07:33:45Z</time>
      </trkpt>
      <trkpt lat="45.99636" lon="1.29063">
        <ele>398</ele>
        <time>2022-06-12T07:33:52Z</time>
      </trkpt>
      <trkpt lat="45.99635" lon="1.29063">
        <ele>398.2</ele>
        <time>2022-06-12T07:33:54Z</time>
      </trkpt>
      <trkpt lat="45.99631" lon="1.29063">
        <ele>399</ele>
        <time>2022-06-12T07:33:59Z</time>
      </trkpt>
      <trkpt lat="45.99628" lon="1.29063">
        <ele>399.2</ele>
        <time>2022-06-12T07:34:02Z</time>
      </trkpt>
      <trkpt lat="45.99621" lon="1.29068">
        <ele>400</ele>
        <time>2022-06-12T07:34:08Z</time>
      </trkpt>
      <trkpt lat="45.99621" lon="1.29068">
        <ele>400</ele>
        <time>2022-06-12T07:34:09Z</time>
      </trkpt>
      <trkpt lat="45.99611" lon="1.29073">
        <ele>401.2</ele>
        <time>2022-06-12T07:34:14Z</time>
      </trkpt>
      <trkpt lat="45.9961" lon="1.29074">
        <ele>401.4</ele>
        <time>2022-06-12T07:34:15Z</time>
      </trkpt>
      <trkpt lat="45.99599" lon="1.29082">
        <ele>402.2</ele>
        <time>2022-06-12T07:34:23Z</time>
      </trkpt>
      <trkpt lat="45.99597" lon="1.29083">
        <ele>402.6</ele>
        <time>2022-06-12T07:34:26Z</time>
      </trkpt>
      <trkpt lat="45.99596" lon="1.29084">
        <ele>402.6</ele>
        <time>2022-06-12T07:34:27Z</time>
      </trkpt>
      <trkpt lat="45.99596" lon="1.29084">
        <ele>402.8</ele>
        <time>2022-06-12T07:34:36Z</time>
      </trkpt>
      <trkpt lat="45.99593" lon="1.29087">
        <ele>403.4</ele>
        <time>2022-06-12T07:34:44Z</time>
      </trkpt>
      <trkpt lat="45.99589" lon="1.29091">
        <ele>403.8</ele>
        <time>2022-06-12T07:34:48Z</time>
      </trkpt>
      <trkpt lat="45.99588" lon="1.29092">
        <ele>404.2</ele>
        <time>2022-06-12T07:34:49Z</time>
      </trkpt>
      <trkpt lat="45.99586" lon="1.29094">
        <ele>404.6</ele>
        <time>2022-06-12T07:34:51Z</time>
      </trkpt>
      <trkpt lat="45.99581" lon="1.29101">
        <ele>405.6</ele>
        <time>2022-06-12T07:34:56Z</time>
      </trkpt>
      <trkpt lat="45.99576" lon="1.29105">
        <ele>406.2</ele>
        <time>2022-06-12T07:35:01Z</time>
      </trkpt>
      <trkpt lat="45.9957" lon="1.29113">
        <ele>406.8</ele>
        <time>2022-06-12T07:35:07Z</time>
      </trkpt>
      <trkpt lat="45.99566" lon="1.29118">
        <ele>407.2</ele>
        <time>2022-06-12T07:35:10Z</time>
      </trkpt>
      <trkpt lat="45.99562" lon="1.29124">
        <ele>407.8</ele>
        <time>2022-06-12T07:35:13Z</time>
      </trkpt>
      <trkpt lat="45.99561" lon="1.29126">
        <ele>407.8</ele>
        <time>2022-06-12T07:35:14Z</time>
      </trkpt>
      <trkpt lat="45.9956" lon="1.29129">
        <ele>408.2</ele>
        <time>2022-06-12T07:35:16Z</time>
      </trkpt>
      <trkpt lat="45.99555" lon="1.29135">
        <ele>408.8</ele>
        <time>2022-06-12T07:35:20Z</time>
      </trkpt>
      <trkpt lat="45.99551" lon="1.29139">
        <ele>409.6</ele>
        <time>2022-06-12T07:35:23Z</time>
      </trkpt>
      <trkpt lat="45.99549" lon="1.2914">
        <ele>409.8</ele>
        <time>2022-06-12T07:35:24Z</time>
      </trkpt>
      <trkpt lat="45.99535" lon="1.29148">
        <ele>410.6</ele>
        <time>2022-06-12T07:35:30Z</time>
      </trkpt>
      <trkpt lat="45.99516" lon="1.29163">
        <ele>410.6</ele>
        <time>2022-06-12T07:35:37Z</time>
      </trkpt>
      <trkpt lat="45.99511" lon="1.2917">
        <ele>410.8</ele>
        <time>2022-06-12T07:35:40Z</time>
      </trkpt>
      <trkpt lat="45.9951" lon="1.29173">
        <ele>411</ele>
        <time>2022-06-12T07:35:42Z</time>
      </trkpt>
      <trkpt lat="45.99509" lon="1.29171">
        <ele>410.8</ele>
        <time>2022-06-12T07:35:51Z</time>
      </trkpt>
      <trkpt lat="45.99508" lon="1.29171">
        <ele>410.8</ele>
        <time>2022-06-12T07:35:52Z</time>
      </trkpt>
      <trkpt lat="45.99503" lon="1.29177">
        <ele>409.2</ele>
        <time>2022-06-12T07:42:17Z</time>
      </trkpt>
      <trkpt lat="45.99502" lon="1.2918">
        <ele>409.2</ele>
        <time>2022-06-12T07:42:23Z</time>
      </trkpt>
      <trkpt lat="45.995" lon="1.29189">
        <ele>409.2</ele>
        <time>2022-06-12T07:42:33Z</time>
      </trkpt>
      <trkpt lat="45.99497" lon="1.29196">
        <ele>409.2</ele>
        <time>2022-06-12T07:42:38Z</time>
      </trkpt>
      <trkpt lat="45.99497" lon="1.29205">
        <ele>409.8</ele>
        <time>2022-06-12T07:42:44Z</time>
      </trkpt>
      <trkpt lat="45.99501" lon="1.2921">
        <ele>410</ele>
        <time>2022-06-12T07:42:49Z</time>
      </trkpt>
      <trkpt lat="45.99502" lon="1.29213">
        <ele>410.2</ele>
        <time>2022-06-12T07:42:51Z</time>
      </trkpt>
      <trkpt lat="45.99505" lon="1.29216">
        <ele>410.4</ele>
        <time>2022-06-12T07:42:53Z</time>
      </trkpt>
      <trkpt lat="45.99514" lon="1.29224">
        <ele>410.8</ele>
        <time>2022-06-12T07:42:58Z</time>
      </trkpt>
      <trkpt lat="45.99524" lon="1.29231">
        <ele>411.4</ele>
        <time>2022-06-12T07:43:02Z</time>
      </trkpt>
      <trkpt lat="45.99527" lon="1.29234">
        <ele>411.4</ele>
        <time>2022-06-12T07:43:03Z</time>
      </trkpt>
      <trkpt lat="45.99533" lon="1.29237">
        <ele>412.4</ele>
        <time>2022-06-12T07:43:06Z</time>
      </trkpt>
      <trkpt lat="45.99537" lon="1.29237">
        <ele>413</ele>
        <time>2022-06-12T07:43:08Z</time>
      </trkpt>
      <trkpt lat="45.99538" lon="1.29238">
        <ele>413.2</ele>
        <time>2022-06-12T07:43:10Z</time>
      </trkpt>
      <trkpt lat="45.99538" lon="1.29238">
        <ele>413.4</ele>
        <time>2022-06-12T07:43:11Z</time>
      </trkpt>
      <trkpt lat="45.99538" lon="1.29239">
        <ele>413.4</ele>
        <time>2022-06-12T07:43:12Z</time>
      </trkpt>
      <trkpt lat="45.99537" lon="1.2924">
        <ele>413.4</ele>
        <time>2022-06-12T07:43:13Z</time>
      </trkpt>
      <trkpt lat="45.9953" lon="1.29248">
        <ele>412.8</ele>
        <time>2022-06-12T07:43:18Z</time>
      </trkpt>
      <trkpt lat="45.99518" lon="1.29245">
        <ele>411.8</ele>
        <time>2022-06-12T07:43:22Z</time>
      </trkpt>
      <trkpt lat="45.99513" lon="1.29242">
        <ele>410.8</ele>
        <time>2022-06-12T07:43:24Z</time>
      </trkpt>
      <trkpt lat="45.99505" lon="1.29237">
        <ele>410.2</ele>
        <time>2022-06-12T07:43:28Z</time>
      </trkpt>
      <trkpt lat="45.99499" lon="1.29236">
        <ele>410</ele>
        <time>2022-06-12T07:43:33Z</time>
      </trkpt>
      <trkpt lat="45.99498" lon="1.29237">
        <ele>409.8</ele>
        <time>2022-06-12T07:43:34Z</time>
      </trkpt>
      <trkpt lat="45.99498" lon="1.2924">
        <ele>409.8</ele>
        <time>2022-06-12T07:43:36Z</time>
      </trkpt>
      <trkpt lat="45.99496" lon="1.29251">
        <ele>409.6</ele>
        <time>2022-06-12T07:43:40Z</time>
      </trkpt>
      <trkpt lat="45.99493" lon="1.29257">
        <ele>409.6</ele>
        <time>2022-06-12T07:43:43Z</time>
      </trkpt>
      <trkpt lat="45.99493" lon="1.29259">
        <ele>409.6</ele>
        <time>2022-06-12T07:43:45Z</time>
      </trkpt>
      <trkpt lat="45.99494" lon="1.2926">
        <ele>409.4</ele>
        <time>2022-06-12T07:43:47Z</time>
      </trkpt>
      <trkpt lat="45.99495" lon="1.29255">
        <ele>409.4</ele>
        <time>2022-06-12T07:43:49Z</time>
      </trkpt>
      <trkpt lat="45.99499" lon="1.29241">
        <ele>409.6</ele>
        <time>2022-06-12T07:43:54Z</time>
      </trkpt>
      <trkpt lat="45.99495" lon="1.29228">
        <ele>409.6</ele>
        <time>2022-06-12T07:43:59Z</time>
      </trkpt>
      <trkpt lat="45.99498" lon="1.29214">
        <ele>410.2</ele>
        <time>2022-06-12T07:44:05Z</time>
      </trkpt>
      <trkpt lat="45.99499" lon="1.29215">
        <ele>410.4</ele>
        <time>2022-06-12T07:44:07Z</time>
      </trkpt>
      <trkpt lat="45.99504" lon="1.29218">
        <ele>410</ele>
        <time>2022-06-12T07:44:10Z</time>
      </trkpt>
      <trkpt lat="45.99517" lon="1.29226">
        <ele>410.6</ele>
        <time>2022-06-12T07:44:16Z</time>
      </trkpt>
      <trkpt lat="45.99521" lon="1.29227">
        <ele>410.8</ele>
        <time>2022-06-12T07:44:18Z</time>
      </trkpt>
      <trkpt lat="45.99529" lon="1.29231">
        <ele>411.8</ele>
        <time>2022-06-12T07:44:21Z</time>
      </trkpt>
      <trkpt lat="45.99532" lon="1.29233">
        <ele>412</ele>
        <time>2022-06-12T07:44:22Z</time>
      </trkpt>
      <trkpt lat="45.99538" lon="1.29238">
        <ele>412.6</ele>
        <time>2022-06-12T07:44:26Z</time>
      </trkpt>
      <trkpt lat="45.9954" lon="1.29238">
        <ele>412.8</ele>
        <time>2022-06-12T07:44:27Z</time>
      </trkpt>
      <trkpt lat="45.99543" lon="1.29237">
        <ele>413</ele>
        <time>2022-06-12T07:44:29Z</time>
      </trkpt>
      <trkpt lat="45.99555" lon="1.29233">
        <ele>413.4</ele>
        <time>2022-06-12T07:44:33Z</time>
      </trkpt>
      <trkpt lat="45.99572" lon="1.29238">
        <ele>413.8</ele>
        <time>2022-06-12T07:44:38Z</time>
      </trkpt>
      <trkpt lat="45.99581" lon="1.29245">
        <ele>414.2</ele>
        <time>2022-06-12T07:44:41Z</time>
      </trkpt>
      <trkpt lat="45.9959" lon="1.29253">
        <ele>414.4</ele>
        <time>2022-06-12T07:44:44Z</time>
      </trkpt>
      <trkpt lat="45.99594" lon="1.29261">
        <ele>414.2</ele>
        <time>2022-06-12T07:44:46Z</time>
      </trkpt>
      <trkpt lat="45.99598" lon="1.29271">
        <ele>413.4</ele>
        <time>2022-06-12T07:44:48Z</time>
      </trkpt>
      <trkpt lat="45.99602" lon="1.29276">
        <ele>413</ele>
        <time>2022-06-12T07:44:49Z</time>
      </trkpt>
      <trkpt lat="45.99612" lon="1.29289">
        <ele>412</ele>
        <time>2022-06-12T07:44:51Z</time>
      </trkpt>
      <trkpt lat="45.99618" lon="1.29296">
        <ele>411.4</ele>
        <time>2022-06-12T07:44:52Z</time>
      </trkpt>
      <trkpt lat="45.99629" lon="1.2931">
        <ele>410.4</ele>
        <time>2022-06-12T07:44:54Z</time>
      </trkpt>
      <trkpt lat="45.99635" lon="1.29317">
        <ele>409</ele>
        <time>2022-06-12T07:44:55Z</time>
      </trkpt>
      <trkpt lat="45.99641" lon="1.29324">
        <ele>408</ele>
        <time>2022-06-12T07:44:56Z</time>
      </trkpt>
      <trkpt lat="45.99648" lon="1.2933">
        <ele>407.2</ele>
        <time>2022-06-12T07:44:57Z</time>
      </trkpt>
      <trkpt lat="45.99654" lon="1.29336">
        <ele>406.8</ele>
        <time>2022-06-12T07:44:58Z</time>
      </trkpt>
      <trkpt lat="45.99661" lon="1.2934">
        <ele>406.2</ele>
        <time>2022-06-12T07:44:59Z</time>
      </trkpt>
      <trkpt lat="45.99661" lon="1.2934">
        <ele>404.4</ele>
        <time>2022-06-12T07:45:00Z</time>
      </trkpt>
      <trkpt lat="45.99685" lon="1.29355">
        <ele>402.4</ele>
        <time>2022-06-12T07:45:03Z</time>
      </trkpt>
      <trkpt lat="45.99689" lon="1.29359">
        <ele>401.4</ele>
        <time>2022-06-12T07:45:04Z</time>
      </trkpt>
      <trkpt lat="45.99693" lon="1.29364">
        <ele>400.6</ele>
        <time>2022-06-12T07:45:05Z</time>
      </trkpt>
      <trkpt lat="45.99697" lon="1.29369">
        <ele>399.6</ele>
        <time>2022-06-12T07:45:06Z</time>
      </trkpt>
      <trkpt lat="45.997" lon="1.29375">
        <ele>398.6</ele>
        <time>2022-06-12T07:45:07Z</time>
      </trkpt>
      <trkpt lat="45.99702" lon="1.29382">
        <ele>397.2</ele>
        <time>2022-06-12T07:45:08Z</time>
      </trkpt>
      <trkpt lat="45.99703" lon="1.29389">
        <ele>396.2</ele>
        <time>2022-06-12T07:45:09Z</time>
      </trkpt>
      <trkpt lat="45.99703" lon="1.29397">
        <ele>395.4</ele>
        <time>2022-06-12T07:45:10Z</time>
      </trkpt>
      <trkpt lat="45.99703" lon="1.29406">
        <ele>395</ele>
        <time>2022-06-12T07:45:11Z</time>
      </trkpt>
      <trkpt lat="45.99703" lon="1.29417">
        <ele>394</ele>
        <time>2022-06-12T07:45:12Z</time>
      </trkpt>
      <trkpt lat="45.99705" lon="1.29428">
        <ele>393.4</ele>
        <time>2022-06-12T07:45:13Z</time>
      </trkpt>
      <trkpt lat="45.99708" lon="1.29438">
        <ele>392.8</ele>
        <time>2022-06-12T07:45:14Z</time>
      </trkpt>
      <trkpt lat="45.99712" lon="1.29447">
        <ele>392.2</ele>
        <time>2022-06-12T07:45:15Z</time>
      </trkpt>
      <trkpt lat="45.99717" lon="1.29453">
        <ele>391.2</ele>
        <time>2022-06-12T07:45:16Z</time>
      </trkpt>
      <trkpt lat="45.99723" lon="1.29457">
        <ele>389.8</ele>
        <time>2022-06-12T07:45:17Z</time>
      </trkpt>
      <trkpt lat="45.99733" lon="1.2946">
        <ele>388</ele>
        <time>2022-06-12T07:45:19Z</time>
      </trkpt>
      <trkpt lat="45.99738" lon="1.29458">
        <ele>386.6</ele>
        <time>2022-06-12T07:45:20Z</time>
      </trkpt>
      <trkpt lat="45.99743" lon="1.29456">
        <ele>385.8</ele>
        <time>2022-06-12T07:45:21Z</time>
      </trkpt>
      <trkpt lat="45.99748" lon="1.29452">
        <ele>385.2</ele>
        <time>2022-06-12T07:45:22Z</time>
      </trkpt>
      <trkpt lat="45.99759" lon="1.29445">
        <ele>383.4</ele>
        <time>2022-06-12T07:45:24Z</time>
      </trkpt>
      <trkpt lat="45.99764" lon="1.29443">
        <ele>382.4</ele>
        <time>2022-06-12T07:45:25Z</time>
      </trkpt>
      <trkpt lat="45.99769" lon="1.29441">
        <ele>381</ele>
        <time>2022-06-12T07:45:26Z</time>
      </trkpt>
      <trkpt lat="45.99778" lon="1.29437">
        <ele>379.8</ele>
        <time>2022-06-12T07:45:28Z</time>
      </trkpt>
      <trkpt lat="45.99791" lon="1.29424">
        <ele>378.6</ele>
        <time>2022-06-12T07:45:31Z</time>
      </trkpt>
      <trkpt lat="45.99802" lon="1.29411">
        <ele>378</ele>
        <time>2022-06-12T07:45:33Z</time>
      </trkpt>
      <trkpt lat="45.99814" lon="1.29389">
        <ele>377.6</ele>
        <time>2022-06-12T07:45:36Z</time>
      </trkpt>
      <trkpt lat="45.99821" lon="1.29374">
        <ele>377</ele>
        <time>2022-06-12T07:45:38Z</time>
      </trkpt>
      <trkpt lat="45.99828" lon="1.29359">
        <ele>376.8</ele>
        <time>2022-06-12T07:45:40Z</time>
      </trkpt>
      <trkpt lat="45.99836" lon="1.29344">
        <ele>376.4</ele>
        <time>2022-06-12T07:45:42Z</time>
      </trkpt>
      <trkpt lat="45.9985" lon="1.2932">
        <ele>375.6</ele>
        <time>2022-06-12T07:45:45Z</time>
      </trkpt>
      <trkpt lat="45.99859" lon="1.29305">
        <ele>375.2</ele>
        <time>2022-06-12T07:45:47Z</time>
      </trkpt>
      <trkpt lat="45.99867" lon="1.29295">
        <ele>374.6</ele>
        <time>2022-06-12T07:45:49Z</time>
      </trkpt>
      <trkpt lat="45.99869" lon="1.29293">
        <ele>374.2</ele>
        <time>2022-06-12T07:45:50Z</time>
      </trkpt>
      <trkpt lat="45.99871" lon="1.29291">
        <ele>373.8</ele>
        <time>2022-06-12T07:45:51Z</time>
      </trkpt>
      <trkpt lat="45.9988" lon="1.29284">
        <ele>373</ele>
        <time>2022-06-12T07:45:55Z</time>
      </trkpt>
      <trkpt lat="45.99882" lon="1.29281">
        <ele>373</ele>
        <time>2022-06-12T07:45:56Z</time>
      </trkpt>
      <trkpt lat="45.99901" lon="1.29265">
        <ele>373</ele>
        <time>2022-06-12T07:46:00Z</time>
      </trkpt>
      <trkpt lat="45.99906" lon="1.29257">
        <ele>372.8</ele>
        <time>2022-06-12T07:46:02Z</time>
      </trkpt>
      <trkpt lat="45.99911" lon="1.29255">
        <ele>372.4</ele>
        <time>2022-06-12T07:46:04Z</time>
      </trkpt>
      <trkpt lat="45.99921" lon="1.29265">
        <ele>372</ele>
        <time>2022-06-12T07:46:08Z</time>
      </trkpt>
      <trkpt lat="45.99931" lon="1.29276">
        <ele>373</ele>
        <time>2022-06-12T07:46:14Z</time>
      </trkpt>
      <trkpt lat="45.99935" lon="1.29275">
        <ele>374</ele>
        <time>2022-06-12T07:46:16Z</time>
      </trkpt>
      <trkpt lat="45.9994" lon="1.29269">
        <ele>374.8</ele>
        <time>2022-06-12T07:46:19Z</time>
      </trkpt>
      <trkpt lat="45.99942" lon="1.29268">
        <ele>375.4</ele>
        <time>2022-06-12T07:46:20Z</time>
      </trkpt>
      <trkpt lat="45.99946" lon="1.29264">
        <ele>376.4</ele>
        <time>2022-06-12T07:46:23Z</time>
      </trkpt>
      <trkpt lat="45.99949" lon="1.29262">
        <ele>376.6</ele>
        <time>2022-06-12T07:46:24Z</time>
      </trkpt>
      <trkpt lat="45.99952" lon="1.29258">
        <ele>377</ele>
        <time>2022-06-12T07:46:26Z</time>
      </trkpt>
      <trkpt lat="45.99958" lon="1.29254">
        <ele>377.8</ele>
        <time>2022-06-12T07:46:30Z</time>
      </trkpt>
      <trkpt lat="45.99963" lon="1.29255">
        <ele>378.4</ele>
        <time>2022-06-12T07:46:32Z</time>
      </trkpt>
      <trkpt lat="45.99966" lon="1.29256">
        <ele>379</ele>
        <time>2022-06-12T07:46:34Z</time>
      </trkpt>
      <trkpt lat="45.99969" lon="1.29257">
        <ele>379.4</ele>
        <time>2022-06-12T07:46:35Z</time>
      </trkpt>
      <trkpt lat="45.99972" lon="1.29258">
        <ele>380</ele>
        <time>2022-06-12T07:46:37Z</time>
      </trkpt>
      <trkpt lat="45.99973" lon="1.29259">
        <ele>380.2</ele>
        <time>2022-06-12T07:46:38Z</time>
      </trkpt>
      <trkpt lat="45.99976" lon="1.2926">
        <ele>381</ele>
        <time>2022-06-12T07:46:40Z</time>
      </trkpt>
      <trkpt lat="45.9998" lon="1.29261">
        <ele>382.2</ele>
        <time>2022-06-12T07:46:44Z</time>
      </trkpt>
      <trkpt lat="45.99988" lon="1.29262">
        <ele>383.6</ele>
        <time>2022-06-12T07:46:50Z</time>
      </trkpt>
      <trkpt lat="45.99989" lon="1.29262">
        <ele>384</ele>
        <time>2022-06-12T07:46:51Z</time>
      </trkpt>
      <trkpt lat="45.99997" lon="1.29265">
        <ele>384.8</ele>
        <time>2022-06-12T07:46:56Z</time>
      </trkpt>
      <trkpt lat="46.00003" lon="1.29268">
        <ele>385.8</ele>
        <time>2022-06-12T07:47:01Z</time>
      </trkpt>
      <trkpt lat="46.00007" lon="1.29271">
        <ele>386.6</ele>
        <time>2022-06-12T07:47:04Z</time>
      </trkpt>
      <trkpt lat="46.00011" lon="1.29275">
        <ele>387</ele>
        <time>2022-06-12T07:47:07Z</time>
      </trkpt>
      <trkpt lat="46.00018" lon="1.2928">
        <ele>388</ele>
        <time>2022-06-12T07:47:12Z</time>
      </trkpt>
      <trkpt lat="46.00028" lon="1.29289">
        <ele>389</ele>
        <time>2022-06-12T07:47:19Z</time>
      </trkpt>
      <trkpt lat="46.00029" lon="1.2929">
        <ele>389</ele>
        <time>2022-06-12T07:47:20Z</time>
      </trkpt>
      <trkpt lat="46.00035" lon="1.293">
        <ele>390</ele>
        <time>2022-06-12T07:47:26Z</time>
      </trkpt>
      <trkpt lat="46.00041" lon="1.29303">
        <ele>390.6</ele>
        <time>2022-06-12T07:47:30Z</time>
      </trkpt>
      <trkpt lat="46.00045" lon="1.29301">
        <ele>391</ele>
        <time>2022-06-12T07:47:34Z</time>
      </trkpt>
      <trkpt lat="46.00046" lon="1.29299">
        <ele>391.4</ele>
        <time>2022-06-12T07:47:35Z</time>
      </trkpt>
      <trkpt lat="46.00051" lon="1.29296">
        <ele>391.8</ele>
        <time>2022-06-12T07:47:38Z</time>
      </trkpt>
      <trkpt lat="46.00056" lon="1.2929">
        <ele>392.4</ele>
        <time>2022-06-12T07:47:41Z</time>
      </trkpt>
      <trkpt lat="46.00059" lon="1.29281">
        <ele>392.6</ele>
        <time>2022-06-12T07:47:45Z</time>
      </trkpt>
      <trkpt lat="46.00066" lon="1.29265">
        <ele>392.8</ele>
        <time>2022-06-12T07:47:51Z</time>
      </trkpt>
      <trkpt lat="46.00078" lon="1.29248">
        <ele>392.8</ele>
        <time>2022-06-12T07:47:58Z</time>
      </trkpt>
      <trkpt lat="46.00095" lon="1.29235">
        <ele>393</ele>
        <time>2022-06-12T07:48:05Z</time>
      </trkpt>
      <trkpt lat="46.00101" lon="1.29212">
        <ele>391.8</ele>
        <time>2022-06-12T07:48:09Z</time>
      </trkpt>
      <trkpt lat="46.00103" lon="1.29199">
        <ele>390.6</ele>
        <time>2022-06-12T07:48:11Z</time>
      </trkpt>
      <trkpt lat="46.00107" lon="1.29187">
        <ele>389.2</ele>
        <time>2022-06-12T07:48:13Z</time>
      </trkpt>
      <trkpt lat="46.00108" lon="1.29181">
        <ele>388.4</ele>
        <time>2022-06-12T07:48:14Z</time>
      </trkpt>
      <trkpt lat="46.0011" lon="1.29176">
        <ele>387.8</ele>
        <time>2022-06-12T07:48:15Z</time>
      </trkpt>
      <trkpt lat="46.00111" lon="1.29168">
        <ele>386.6</ele>
        <time>2022-06-12T07:48:17Z</time>
      </trkpt>
      <trkpt lat="46.00112" lon="1.29164">
        <ele>385</ele>
        <time>2022-06-12T07:48:18Z</time>
      </trkpt>
      <trkpt lat="46.00113" lon="1.29159">
        <ele>383.8</ele>
        <time>2022-06-12T07:48:19Z</time>
      </trkpt>
      <trkpt lat="46.00117" lon="1.2915">
        <ele>382.4</ele>
        <time>2022-06-12T07:48:21Z</time>
      </trkpt>
      <trkpt lat="46.00118" lon="1.29146">
        <ele>381.6</ele>
        <time>2022-06-12T07:48:22Z</time>
      </trkpt>
      <trkpt lat="46.00118" lon="1.29142">
        <ele>380.4</ele>
        <time>2022-06-12T07:48:23Z</time>
      </trkpt>
      <trkpt lat="46.00119" lon="1.29136">
        <ele>379.4</ele>
        <time>2022-06-12T07:48:24Z</time>
      </trkpt>
      <trkpt lat="46.00119" lon="1.29131">
        <ele>378.8</ele>
        <time>2022-06-12T07:48:25Z</time>
      </trkpt>
      <trkpt lat="46.00119" lon="1.29121">
        <ele>376.4</ele>
        <time>2022-06-12T07:48:27Z</time>
      </trkpt>
      <trkpt lat="46.00121" lon="1.29114">
        <ele>374.6</ele>
        <time>2022-06-12T07:48:29Z</time>
      </trkpt>
      <trkpt lat="46.00123" lon="1.29112">
        <ele>373.4</ele>
        <time>2022-06-12T07:48:30Z</time>
      </trkpt>
      <trkpt lat="46.00127" lon="1.29111">
        <ele>372.4</ele>
        <time>2022-06-12T07:48:32Z</time>
      </trkpt>
      <trkpt lat="46.00131" lon="1.29112">
        <ele>372</ele>
        <time>2022-06-12T07:48:34Z</time>
      </trkpt>
      <trkpt lat="46.00142" lon="1.29119">
        <ele>372.4</ele>
        <time>2022-06-12T07:48:38Z</time>
      </trkpt>
      <trkpt lat="46.00148" lon="1.29124">
        <ele>372.4</ele>
        <time>2022-06-12T07:48:40Z</time>
      </trkpt>
      <trkpt lat="46.00166" lon="1.29145">
        <ele>372.4</ele>
        <time>2022-06-12T07:48:46Z</time>
      </trkpt>
      <trkpt lat="46.0018" lon="1.29154">
        <ele>372.2</ele>
        <time>2022-06-12T07:48:52Z</time>
      </trkpt>
      <trkpt lat="46.00183" lon="1.29151">
        <ele>371.8</ele>
        <time>2022-06-12T07:48:54Z</time>
      </trkpt>
      <trkpt lat="46.00185" lon="1.29148">
        <ele>371.2</ele>
        <time>2022-06-12T07:48:56Z</time>
      </trkpt>
      <trkpt lat="46.00185" lon="1.29144">
        <ele>370</ele>
        <time>2022-06-12T07:48:58Z</time>
      </trkpt>
      <trkpt lat="46.00185" lon="1.29141">
        <ele>369.2</ele>
        <time>2022-06-12T07:49:00Z</time>
      </trkpt>
      <trkpt lat="46.00185" lon="1.29139">
        <ele>368.8</ele>
        <time>2022-06-12T07:49:01Z</time>
      </trkpt>
      <trkpt lat="46.00186" lon="1.29137">
        <ele>368.6</ele>
        <time>2022-06-12T07:49:02Z</time>
      </trkpt>
      <trkpt lat="46.00189" lon="1.29133">
        <ele>367.4</ele>
        <time>2022-06-12T07:49:04Z</time>
      </trkpt>
      <trkpt lat="46.0019" lon="1.29131">
        <ele>366.8</ele>
        <time>2022-06-12T07:49:05Z</time>
      </trkpt>
      <trkpt lat="46.00191" lon="1.2913">
        <ele>366.2</ele>
        <time>2022-06-12T07:49:06Z</time>
      </trkpt>
      <trkpt lat="46.00191" lon="1.2913">
        <ele>365.8</ele>
        <time>2022-06-12T07:49:07Z</time>
      </trkpt>
      <trkpt lat="46.00195" lon="1.29129">
        <ele>365.2</ele>
        <time>2022-06-12T07:49:11Z</time>
      </trkpt>
      <trkpt lat="46.00197" lon="1.29125">
        <ele>365.6</ele>
        <time>2022-06-12T07:49:14Z</time>
      </trkpt>
      <trkpt lat="46.002" lon="1.29119">
        <ele>365.8</ele>
        <time>2022-06-12T07:49:18Z</time>
      </trkpt>
      <trkpt lat="46.00206" lon="1.29105">
        <ele>367.2</ele>
        <time>2022-06-12T07:49:24Z</time>
      </trkpt>
      <trkpt lat="46.00211" lon="1.29095">
        <ele>368</ele>
        <time>2022-06-12T07:49:28Z</time>
      </trkpt>
      <trkpt lat="46.00213" lon="1.29094">
        <ele>368.2</ele>
        <time>2022-06-12T07:49:31Z</time>
      </trkpt>
      <trkpt lat="46.00214" lon="1.29093">
        <ele>368.2</ele>
        <time>2022-06-12T07:49:32Z</time>
      </trkpt>
      <trkpt lat="46.00215" lon="1.29093">
        <ele>368.2</ele>
        <time>2022-06-12T07:49:33Z</time>
      </trkpt>
      <trkpt lat="46.0022" lon="1.29095">
        <ele>369.4</ele>
        <time>2022-06-12T07:49:37Z</time>
      </trkpt>
      <trkpt lat="46.00222" lon="1.29095">
        <ele>369.4</ele>
        <time>2022-06-12T07:49:38Z</time>
      </trkpt>
      <trkpt lat="46.00228" lon="1.29097">
        <ele>370.6</ele>
        <time>2022-06-12T07:49:43Z</time>
      </trkpt>
      <trkpt lat="46.0023" lon="1.29098">
        <ele>371.2</ele>
        <time>2022-06-12T07:49:46Z</time>
      </trkpt>
      <trkpt lat="46.00232" lon="1.29098">
        <ele>371.8</ele>
        <time>2022-06-12T07:49:49Z</time>
      </trkpt>
      <trkpt lat="46.00234" lon="1.29097">
        <ele>372.8</ele>
        <time>2022-06-12T07:49:53Z</time>
      </trkpt>
      <trkpt lat="46.00237" lon="1.29095">
        <ele>374</ele>
        <time>2022-06-12T07:49:58Z</time>
      </trkpt>
      <trkpt lat="46.00237" lon="1.29095">
        <ele>374.2</ele>
        <time>2022-06-12T07:49:59Z</time>
      </trkpt>
      <trkpt lat="46.0024" lon="1.29094">
        <ele>375</ele>
        <time>2022-06-12T07:50:03Z</time>
      </trkpt>
      <trkpt lat="46.00243" lon="1.29093">
        <ele>376.2</ele>
        <time>2022-06-12T07:50:07Z</time>
      </trkpt>
      <trkpt lat="46.00244" lon="1.29092">
        <ele>376.6</ele>
        <time>2022-06-12T07:50:09Z</time>
      </trkpt>
      <trkpt lat="46.00245" lon="1.2909">
        <ele>377</ele>
        <time>2022-06-12T07:50:11Z</time>
      </trkpt>
      <trkpt lat="46.00245" lon="1.2909">
        <ele>377.2</ele>
        <time>2022-06-12T07:50:13Z</time>
      </trkpt>
      <trkpt lat="46.00246" lon="1.29082">
        <ele>377.4</ele>
        <time>2022-06-12T07:50:19Z</time>
      </trkpt>
      <trkpt lat="46.00245" lon="1.29073">
        <ele>377.4</ele>
        <time>2022-06-12T07:50:22Z</time>
      </trkpt>
      <trkpt lat="46.00248" lon="1.29063">
        <ele>376</ele>
        <time>2022-06-12T07:50:26Z</time>
      </trkpt>
      <trkpt lat="46.00249" lon="1.29061">
        <ele>376</ele>
        <time>2022-06-12T07:50:27Z</time>
      </trkpt>
      <trkpt lat="46.00259" lon="1.29054">
        <ele>377.4</ele>
        <time>2022-06-12T07:50:34Z</time>
      </trkpt>
      <trkpt lat="46.00263" lon="1.29052">
        <ele>378.2</ele>
        <time>2022-06-12T07:50:37Z</time>
      </trkpt>
      <trkpt lat="46.00265" lon="1.29051">
        <ele>378.6</ele>
        <time>2022-06-12T07:50:38Z</time>
      </trkpt>
      <trkpt lat="46.0027" lon="1.29046">
        <ele>379.2</ele>
        <time>2022-06-12T07:50:41Z</time>
      </trkpt>
      <trkpt lat="46.00279" lon="1.29028">
        <ele>377.6</ele>
        <time>2022-06-12T07:50:48Z</time>
      </trkpt>
      <trkpt lat="46.00281" lon="1.29023">
        <ele>376</ele>
        <time>2022-06-12T07:50:50Z</time>
      </trkpt>
      <trkpt lat="46.00281" lon="1.2902">
        <ele>375</ele>
        <time>2022-06-12T07:50:51Z</time>
      </trkpt>
      <trkpt lat="46.00283" lon="1.29015">
        <ele>373.8</ele>
        <time>2022-06-12T07:50:52Z</time>
      </trkpt>
      <trkpt lat="46.00286" lon="1.29011">
        <ele>372.6</ele>
        <time>2022-06-12T07:50:53Z</time>
      </trkpt>
      <trkpt lat="46.00288" lon="1.29009">
        <ele>372</ele>
        <time>2022-06-12T07:50:54Z</time>
      </trkpt>
      <trkpt lat="46.0029" lon="1.29004">
        <ele>371.4</ele>
        <time>2022-06-12T07:50:56Z</time>
      </trkpt>
      <trkpt lat="46.00295" lon="1.28997">
        <ele>371.4</ele>
        <time>2022-06-12T07:50:58Z</time>
      </trkpt>
      <trkpt lat="46.00307" lon="1.28973">
        <ele>372</ele>
        <time>2022-06-12T07:51:05Z</time>
      </trkpt>
      <trkpt lat="46.00322" lon="1.28957">
        <ele>371.2</ele>
        <time>2022-06-12T07:51:11Z</time>
      </trkpt>
      <trkpt lat="46.00336" lon="1.2896">
        <ele>371.2</ele>
        <time>2022-06-12T07:51:16Z</time>
      </trkpt>
      <trkpt lat="46.00338" lon="1.28961">
        <ele>371</ele>
        <time>2022-06-12T07:51:17Z</time>
      </trkpt>
      <trkpt lat="46.00341" lon="1.28964">
        <ele>371</ele>
        <time>2022-06-12T07:51:18Z</time>
      </trkpt>
      <trkpt lat="46.00348" lon="1.28969">
        <ele>370.2</ele>
        <time>2022-06-12T07:51:21Z</time>
      </trkpt>
      <trkpt lat="46.00353" lon="1.28971">
        <ele>368.6</ele>
        <time>2022-06-12T07:51:23Z</time>
      </trkpt>
      <trkpt lat="46.00353" lon="1.28971">
        <ele>367.4</ele>
        <time>2022-06-12T07:51:24Z</time>
      </trkpt>
      <trkpt lat="46.00357" lon="1.28974">
        <ele>367.4</ele>
        <time>2022-06-12T07:51:25Z</time>
      </trkpt>
      <trkpt lat="46.0036" lon="1.28978">
        <ele>366</ele>
        <time>2022-06-12T07:51:27Z</time>
      </trkpt>
      <trkpt lat="46.00361" lon="1.2898">
        <ele>364.4</ele>
        <time>2022-06-12T07:51:28Z</time>
      </trkpt>
      <trkpt lat="46.00363" lon="1.28983">
        <ele>362.8</ele>
        <time>2022-06-12T07:51:29Z</time>
      </trkpt>
      <trkpt lat="46.00363" lon="1.28985">
        <ele>361</ele>
        <time>2022-06-12T07:51:30Z</time>
      </trkpt>
      <trkpt lat="46.00364" lon="1.28988">
        <ele>359.8</ele>
        <time>2022-06-12T07:51:31Z</time>
      </trkpt>
      <trkpt lat="46.00365" lon="1.28992">
        <ele>358.6</ele>
        <time>2022-06-12T07:51:32Z</time>
      </trkpt>
      <trkpt lat="46.00374" lon="1.29002">
        <ele>357.6</ele>
        <time>2022-06-12T07:51:34Z</time>
      </trkpt>
      <trkpt lat="46.00378" lon="1.29012">
        <ele>357.2</ele>
        <time>2022-06-12T07:51:36Z</time>
      </trkpt>
      <trkpt lat="46.00384" lon="1.29034">
        <ele>357</ele>
        <time>2022-06-12T07:51:40Z</time>
      </trkpt>
      <trkpt lat="46.00386" lon="1.29037">
        <ele>357.2</ele>
        <time>2022-06-12T07:51:41Z</time>
      </trkpt>
      <trkpt lat="46.00389" lon="1.29039">
        <ele>357.2</ele>
        <time>2022-06-12T07:51:42Z</time>
      </trkpt>
      <trkpt lat="46.00397" lon="1.29039">
        <ele>357.2</ele>
        <time>2022-06-12T07:51:45Z</time>
      </trkpt>
      <trkpt lat="46.00409" lon="1.29038">
        <ele>357.6</ele>
        <time>2022-06-12T07:51:51Z</time>
      </trkpt>
      <trkpt lat="46.0042" lon="1.29034">
        <ele>358.2</ele>
        <time>2022-06-12T07:51:58Z</time>
      </trkpt>
      <trkpt lat="46.00423" lon="1.29032">
        <ele>358.6</ele>
        <time>2022-06-12T07:52:00Z</time>
      </trkpt>
      <trkpt lat="46.00429" lon="1.2903">
        <ele>359.2</ele>
        <time>2022-06-12T07:52:03Z</time>
      </trkpt>
      <trkpt lat="46.00433" lon="1.29027">
        <ele>359.6</ele>
        <time>2022-06-12T07:52:05Z</time>
      </trkpt>
      <trkpt lat="46.00435" lon="1.29025">
        <ele>360</ele>
        <time>2022-06-12T07:52:06Z</time>
      </trkpt>
      <trkpt lat="46.00441" lon="1.2902">
        <ele>361</ele>
        <time>2022-06-12T07:52:10Z</time>
      </trkpt>
      <trkpt lat="46.00444" lon="1.29017">
        <ele>361.8</ele>
        <time>2022-06-12T07:52:13Z</time>
      </trkpt>
      <trkpt lat="46.00446" lon="1.29014">
        <ele>362.2</ele>
        <time>2022-06-12T07:52:15Z</time>
      </trkpt>
      <trkpt lat="46.00451" lon="1.29006">
        <ele>363</ele>
        <time>2022-06-12T07:52:21Z</time>
      </trkpt>
      <trkpt lat="46.00452" lon="1.29006">
        <ele>363</ele>
        <time>2022-06-12T07:52:22Z</time>
      </trkpt>
      <trkpt lat="46.00454" lon="1.29005">
        <ele>363.2</ele>
        <time>2022-06-12T07:52:23Z</time>
      </trkpt>
      <trkpt lat="46.00459" lon="1.29004">
        <ele>363.4</ele>
        <time>2022-06-12T07:52:26Z</time>
      </trkpt>
      <trkpt lat="46.00464" lon="1.29005">
        <ele>363.4</ele>
        <time>2022-06-12T07:52:31Z</time>
      </trkpt>
      <trkpt lat="46.00466" lon="1.29011">
        <ele>363.4</ele>
        <time>2022-06-12T07:52:37Z</time>
      </trkpt>
      <trkpt lat="46.00465" lon="1.29015">
        <ele>363.8</ele>
        <time>2022-06-12T07:52:39Z</time>
      </trkpt>
      <trkpt lat="46.00463" lon="1.29019">
        <ele>364.2</ele>
        <time>2022-06-12T07:52:41Z</time>
      </trkpt>
      <trkpt lat="46.00455" lon="1.29028">
        <ele>365</ele>
        <time>2022-06-12T07:52:46Z</time>
      </trkpt>
      <trkpt lat="46.00454" lon="1.2903">
        <ele>365.2</ele>
        <time>2022-06-12T07:52:47Z</time>
      </trkpt>
      <trkpt lat="46.00448" lon="1.29038">
        <ele>366</ele>
        <time>2022-06-12T07:52:53Z</time>
      </trkpt>
      <trkpt lat="46.00444" lon="1.29041">
        <ele>366.4</ele>
        <time>2022-06-12T07:52:56Z</time>
      </trkpt>
      <trkpt lat="46.00439" lon="1.2905">
        <ele>367.4</ele>
        <time>2022-06-12T07:53:01Z</time>
      </trkpt>
      <trkpt lat="46.00438" lon="1.29051">
        <ele>367.4</ele>
        <time>2022-06-12T07:53:02Z</time>
      </trkpt>
      <trkpt lat="46.0043" lon="1.29064">
        <ele>368.6</ele>
        <time>2022-06-12T07:53:09Z</time>
      </trkpt>
      <trkpt lat="46.00422" lon="1.29075">
        <ele>369.8</ele>
        <time>2022-06-12T07:53:15Z</time>
      </trkpt>
      <trkpt lat="46.00421" lon="1.29077">
        <ele>370</ele>
        <time>2022-06-12T07:53:16Z</time>
      </trkpt>
      <trkpt lat="46.00415" lon="1.29086">
        <ele>371</ele>
        <time>2022-06-12T07:53:21Z</time>
      </trkpt>
      <trkpt lat="46.00411" lon="1.29092">
        <ele>371.2</ele>
        <time>2022-06-12T07:53:24Z</time>
      </trkpt>
      <trkpt lat="46.00399" lon="1.29107">
        <ele>371.8</ele>
        <time>2022-06-12T07:53:32Z</time>
      </trkpt>
      <trkpt lat="46.00389" lon="1.29114">
        <ele>372</ele>
        <time>2022-06-12T07:53:36Z</time>
      </trkpt>
      <trkpt lat="46.00383" lon="1.29118">
        <ele>372.2</ele>
        <time>2022-06-12T07:53:39Z</time>
      </trkpt>
      <trkpt lat="46.00367" lon="1.29123">
        <ele>373.2</ele>
        <time>2022-06-12T07:53:46Z</time>
      </trkpt>
      <trkpt lat="46.00366" lon="1.29124">
        <ele>373.8</ele>
        <time>2022-06-12T07:53:47Z</time>
      </trkpt>
      <trkpt lat="46.0036" lon="1.29127">
        <ele>374.4</ele>
        <time>2022-06-12T07:53:50Z</time>
      </trkpt>
      <trkpt lat="46.00353" lon="1.2913">
        <ele>375.2</ele>
        <time>2022-06-12T07:53:54Z</time>
      </trkpt>
      <trkpt lat="46.00351" lon="1.29131">
        <ele>375.4</ele>
        <time>2022-06-12T07:53:55Z</time>
      </trkpt>
      <trkpt lat="46.00342" lon="1.29139">
        <ele>376.2</ele>
        <time>2022-06-12T07:54:00Z</time>
      </trkpt>
      <trkpt lat="46.00337" lon="1.29147">
        <ele>376.6</ele>
        <time>2022-06-12T07:54:03Z</time>
      </trkpt>
      <trkpt lat="46.00334" lon="1.29155">
        <ele>377</ele>
        <time>2022-06-12T07:54:06Z</time>
      </trkpt>
      <trkpt lat="46.00332" lon="1.29163">
        <ele>377.6</ele>
        <time>2022-06-12T07:54:10Z</time>
      </trkpt>
      <trkpt lat="46.00331" lon="1.29164">
        <ele>377.8</ele>
        <time>2022-06-12T07:54:11Z</time>
      </trkpt>
      <trkpt lat="46.0033" lon="1.29166">
        <ele>378</ele>
        <time>2022-06-12T07:54:12Z</time>
      </trkpt>
      <trkpt lat="46.00326" lon="1.29175">
        <ele>378.8</ele>
        <time>2022-06-12T07:54:16Z</time>
      </trkpt>
      <trkpt lat="46.00323" lon="1.29183">
        <ele>379</ele>
        <time>2022-06-12T07:54:19Z</time>
      </trkpt>
      <trkpt lat="46.00313" lon="1.29202">
        <ele>378.8</ele>
        <time>2022-06-12T07:54:24Z</time>
      </trkpt>
      <trkpt lat="46.00299" lon="1.2922">
        <ele>378.8</ele>
        <time>2022-06-12T07:54:30Z</time>
      </trkpt>
      <trkpt lat="46.00289" lon="1.29237">
        <ele>379</ele>
        <time>2022-06-12T07:54:36Z</time>
      </trkpt>
      <trkpt lat="46.00272" lon="1.29259">
        <ele>379.6</ele>
        <time>2022-06-12T07:54:43Z</time>
      </trkpt>
      <trkpt lat="46.00257" lon="1.29273">
        <ele>379.2</ele>
        <time>2022-06-12T07:54:49Z</time>
      </trkpt>
      <trkpt lat="46.00233" lon="1.29286">
        <ele>378.4</ele>
        <time>2022-06-12T07:54:55Z</time>
      </trkpt>
      <trkpt lat="46.00225" lon="1.2929">
        <ele>378.2</ele>
        <time>2022-06-12T07:54:57Z</time>
      </trkpt>
      <trkpt lat="46.00211" lon="1.293">
        <ele>378.2</ele>
        <time>2022-06-12T07:55:00Z</time>
      </trkpt>
      <trkpt lat="46.00186" lon="1.29315">
        <ele>379.4</ele>
        <time>2022-06-12T07:55:06Z</time>
      </trkpt>
      <trkpt lat="46.00173" lon="1.29322">
        <ele>379.8</ele>
        <time>2022-06-12T07:55:10Z</time>
      </trkpt>
      <trkpt lat="46.00165" lon="1.29327">
        <ele>380.2</ele>
        <time>2022-06-12T07:55:13Z</time>
      </trkpt>
      <trkpt lat="46.00156" lon="1.29332">
        <ele>381</ele>
        <time>2022-06-12T07:55:17Z</time>
      </trkpt>
      <trkpt lat="46.00146" lon="1.29338">
        <ele>381.4</ele>
        <time>2022-06-12T07:55:19Z</time>
      </trkpt>
      <trkpt lat="46.0014" lon="1.29344">
        <ele>382.2</ele>
        <time>2022-06-12T07:55:22Z</time>
      </trkpt>
      <trkpt lat="46.00131" lon="1.29352">
        <ele>383</ele>
        <time>2022-06-12T07:55:26Z</time>
      </trkpt>
      <trkpt lat="46.00129" lon="1.29355">
        <ele>383.4</ele>
        <time>2022-06-12T07:55:27Z</time>
      </trkpt>
      <trkpt lat="46.00127" lon="1.29361">
        <ele>384</ele>
        <time>2022-06-12T07:55:30Z</time>
      </trkpt>
      <trkpt lat="46.00122" lon="1.29365">
        <ele>384.4</ele>
        <time>2022-06-12T07:55:32Z</time>
      </trkpt>
      <trkpt lat="46.0012" lon="1.29367">
        <ele>384.6</ele>
        <time>2022-06-12T07:55:33Z</time>
      </trkpt>
      <trkpt lat="46.00114" lon="1.29373">
        <ele>385.4</ele>
        <time>2022-06-12T07:55:36Z</time>
      </trkpt>
      <trkpt lat="46.0011" lon="1.29379">
        <ele>385.8</ele>
        <time>2022-06-12T07:55:39Z</time>
      </trkpt>
      <trkpt lat="46.00108" lon="1.29381">
        <ele>386</ele>
        <time>2022-06-12T07:55:40Z</time>
      </trkpt>
      <trkpt lat="46.00105" lon="1.29385">
        <ele>386.6</ele>
        <time>2022-06-12T07:55:42Z</time>
      </trkpt>
      <trkpt lat="46.00103" lon="1.29388">
        <ele>386.8</ele>
        <time>2022-06-12T07:55:44Z</time>
      </trkpt>
      <trkpt lat="46.00103" lon="1.29389">
        <ele>387</ele>
        <time>2022-06-12T07:55:45Z</time>
      </trkpt>
      <trkpt lat="46.00099" lon="1.29399">
        <ele>387.6</ele>
        <time>2022-06-12T07:55:49Z</time>
      </trkpt>
      <trkpt lat="46.00096" lon="1.29409">
        <ele>388.6</ele>
        <time>2022-06-12T07:55:53Z</time>
      </trkpt>
      <trkpt lat="46.00096" lon="1.29412">
        <ele>389</ele>
        <time>2022-06-12T07:55:54Z</time>
      </trkpt>
      <trkpt lat="46.00096" lon="1.29419">
        <ele>389.8</ele>
        <time>2022-06-12T07:55:57Z</time>
      </trkpt>
      <trkpt lat="46.00096" lon="1.29423">
        <ele>390</ele>
        <time>2022-06-12T07:55:59Z</time>
      </trkpt>
      <trkpt lat="46.00096" lon="1.29423">
        <ele>390.2</ele>
        <time>2022-06-12T07:56:00Z</time>
      </trkpt>
      <trkpt lat="46.00097" lon="1.29424">
        <ele>391.2</ele>
        <time>2022-06-12T07:56:03Z</time>
      </trkpt>
      <trkpt lat="46.001" lon="1.29425">
        <ele>391.8</ele>
        <time>2022-06-12T07:56:07Z</time>
      </trkpt>
      <trkpt lat="46.00102" lon="1.29425">
        <ele>392.4</ele>
        <time>2022-06-12T07:56:09Z</time>
      </trkpt>
      <trkpt lat="46.00106" lon="1.29425">
        <ele>393</ele>
        <time>2022-06-12T07:56:14Z</time>
      </trkpt>
      <trkpt lat="46.00109" lon="1.29426">
        <ele>393.6</ele>
        <time>2022-06-12T07:56:17Z</time>
      </trkpt>
      <trkpt lat="46.00114" lon="1.29429">
        <ele>394.4</ele>
        <time>2022-06-12T07:56:22Z</time>
      </trkpt>
      <trkpt lat="46.00117" lon="1.29431">
        <ele>394.6</ele>
        <time>2022-06-12T07:56:24Z</time>
      </trkpt>
      <trkpt lat="46.00124" lon="1.29438">
        <ele>395.8</ele>
        <time>2022-06-12T07:56:29Z</time>
      </trkpt>
      <trkpt lat="46.00127" lon="1.29442">
        <ele>396.4</ele>
        <time>2022-06-12T07:56:32Z</time>
      </trkpt>
      <trkpt lat="46.00132" lon="1.29447">
        <ele>397</ele>
        <time>2022-06-12T07:56:37Z</time>
      </trkpt>
      <trkpt lat="46.00135" lon="1.29451">
        <ele>397.4</ele>
        <time>2022-06-12T07:56:40Z</time>
      </trkpt>
      <trkpt lat="46.00138" lon="1.29453">
        <ele>398</ele>
        <time>2022-06-12T07:56:42Z</time>
      </trkpt>
      <trkpt lat="46.00143" lon="1.29455">
        <ele>399</ele>
        <time>2022-06-12T07:56:47Z</time>
      </trkpt>
      <trkpt lat="46.00145" lon="1.29455">
        <ele>399.4</ele>
        <time>2022-06-12T07:56:49Z</time>
      </trkpt>
      <trkpt lat="46.0015" lon="1.29454">
        <ele>400.2</ele>
        <time>2022-06-12T07:56:53Z</time>
      </trkpt>
      <trkpt lat="46.00155" lon="1.29452">
        <ele>400.6</ele>
        <time>2022-06-12T07:56:57Z</time>
      </trkpt>
      <trkpt lat="46.00163" lon="1.29453">
        <ele>401.2</ele>
        <time>2022-06-12T07:57:02Z</time>
      </trkpt>
      <trkpt lat="46.00166" lon="1.29455">
        <ele>401.4</ele>
        <time>2022-06-12T07:57:04Z</time>
      </trkpt>
      <trkpt lat="46.00177" lon="1.29462">
        <ele>402.2</ele>
        <time>2022-06-12T07:57:11Z</time>
      </trkpt>
      <trkpt lat="46.00178" lon="1.29462">
        <ele>402.6</ele>
        <time>2022-06-12T07:57:12Z</time>
      </trkpt>
      <trkpt lat="46.00187" lon="1.29467">
        <ele>403.4</ele>
        <time>2022-06-12T07:57:18Z</time>
      </trkpt>
      <trkpt lat="46.00188" lon="1.29468">
        <ele>403.6</ele>
        <time>2022-06-12T07:57:19Z</time>
      </trkpt>
      <trkpt lat="46.002" lon="1.29479">
        <ele>404.4</ele>
        <time>2022-06-12T07:57:28Z</time>
      </trkpt>
      <trkpt lat="46.00202" lon="1.29481">
        <ele>404.4</ele>
        <time>2022-06-12T07:57:29Z</time>
      </trkpt>
      <trkpt lat="46.0021" lon="1.2949">
        <ele>405.6</ele>
        <time>2022-06-12T07:57:34Z</time>
      </trkpt>
      <trkpt lat="46.00212" lon="1.29491">
        <ele>405.6</ele>
        <time>2022-06-12T07:57:35Z</time>
      </trkpt>
      <trkpt lat="46.00217" lon="1.29494">
        <ele>406.2</ele>
        <time>2022-06-12T07:57:38Z</time>
      </trkpt>
      <trkpt lat="46.0022" lon="1.29492">
        <ele>406.4</ele>
        <time>2022-06-12T07:57:40Z</time>
      </trkpt>
      <trkpt lat="46.00231" lon="1.2948">
        <ele>405.8</ele>
        <time>2022-06-12T07:57:45Z</time>
      </trkpt>
      <trkpt lat="46.00239" lon="1.29471">
        <ele>404</ele>
        <time>2022-06-12T07:57:48Z</time>
      </trkpt>
      <trkpt lat="46.00249" lon="1.29463">
        <ele>403.4</ele>
        <time>2022-06-12T07:57:51Z</time>
      </trkpt>
      <trkpt lat="46.00258" lon="1.29459">
        <ele>402.8</ele>
        <time>2022-06-12T07:57:53Z</time>
      </trkpt>
      <trkpt lat="46.00279" lon="1.29453">
        <ele>402.6</ele>
        <time>2022-06-12T07:57:58Z</time>
      </trkpt>
      <trkpt lat="46.00282" lon="1.29451">
        <ele>402.6</ele>
        <time>2022-06-12T07:57:59Z</time>
      </trkpt>
      <trkpt lat="46.00289" lon="1.29452">
        <ele>402.8</ele>
        <time>2022-06-12T07:58:01Z</time>
      </trkpt>
      <trkpt lat="46.00295" lon="1.29453">
        <ele>403.2</ele>
        <time>2022-06-12T07:58:03Z</time>
      </trkpt>
      <trkpt lat="46.00305" lon="1.29453">
        <ele>404</ele>
        <time>2022-06-12T07:58:06Z</time>
      </trkpt>
      <trkpt lat="46.00313" lon="1.29452">
        <ele>404.6</ele>
        <time>2022-06-12T07:58:10Z</time>
      </trkpt>
      <trkpt lat="46.00317" lon="1.29454">
        <ele>405.2</ele>
        <time>2022-06-12T07:58:12Z</time>
      </trkpt>
      <trkpt lat="46.00322" lon="1.2946">
        <ele>405.6</ele>
        <time>2022-06-12T07:58:15Z</time>
      </trkpt>
      <trkpt lat="46.00323" lon="1.29463">
        <ele>405.8</ele>
        <time>2022-06-12T07:58:16Z</time>
      </trkpt>
      <trkpt lat="46.00325" lon="1.29467">
        <ele>406.4</ele>
        <time>2022-06-12T07:58:18Z</time>
      </trkpt>
      <trkpt lat="46.00327" lon="1.29475">
        <ele>407.2</ele>
        <time>2022-06-12T07:58:22Z</time>
      </trkpt>
      <trkpt lat="46.00326" lon="1.29478">
        <ele>407.6</ele>
        <time>2022-06-12T07:58:24Z</time>
      </trkpt>
      <trkpt lat="46.00325" lon="1.29487">
        <ele>408.6</ele>
        <time>2022-06-12T07:58:29Z</time>
      </trkpt>
      <trkpt lat="46.00323" lon="1.29497">
        <ele>409.8</ele>
        <time>2022-06-12T07:58:34Z</time>
      </trkpt>
      <trkpt lat="46.00322" lon="1.29501">
        <ele>410.4</ele>
        <time>2022-06-12T07:58:37Z</time>
      </trkpt>
      <trkpt lat="46.00321" lon="1.29506">
        <ele>411</ele>
        <time>2022-06-12T07:58:40Z</time>
      </trkpt>
      <trkpt lat="46.0032" lon="1.29514">
        <ele>411.8</ele>
        <time>2022-06-12T07:58:44Z</time>
      </trkpt>
      <trkpt lat="46.0032" lon="1.29516">
        <ele>412</ele>
        <time>2022-06-12T07:58:45Z</time>
      </trkpt>
      <trkpt lat="46.00319" lon="1.29518">
        <ele>412.2</ele>
        <time>2022-06-12T07:58:46Z</time>
      </trkpt>
      <trkpt lat="46.0032" lon="1.29526">
        <ele>412.8</ele>
        <time>2022-06-12T07:58:50Z</time>
      </trkpt>
      <trkpt lat="46.00319" lon="1.2953">
        <ele>413.2</ele>
        <time>2022-06-12T07:58:52Z</time>
      </trkpt>
      <trkpt lat="46.00315" lon="1.29542">
        <ele>414</ele>
        <time>2022-06-12T07:58:57Z</time>
      </trkpt>
      <trkpt lat="46.00314" lon="1.29547">
        <ele>414.4</ele>
        <time>2022-06-12T07:58:59Z</time>
      </trkpt>
      <trkpt lat="46.00314" lon="1.2956">
        <ele>415.2</ele>
        <time>2022-06-12T07:59:05Z</time>
      </trkpt>
      <trkpt lat="46.00315" lon="1.29562">
        <ele>415.4</ele>
        <time>2022-06-12T07:59:06Z</time>
      </trkpt>
      <trkpt lat="46.00317" lon="1.29576">
        <ele>416.4</ele>
        <time>2022-06-12T07:59:12Z</time>
      </trkpt>
      <trkpt lat="46.00319" lon="1.29587">
        <ele>417.4</ele>
        <time>2022-06-12T07:59:16Z</time>
      </trkpt>
      <trkpt lat="46.00322" lon="1.29593">
        <ele>417.8</ele>
        <time>2022-06-12T07:59:19Z</time>
      </trkpt>
      <trkpt lat="46.00326" lon="1.29601">
        <ele>418.6</ele>
        <time>2022-06-12T07:59:23Z</time>
      </trkpt>
      <trkpt lat="46.00332" lon="1.2961">
        <ele>419.2</ele>
        <time>2022-06-12T07:59:28Z</time>
      </trkpt>
      <trkpt lat="46.00336" lon="1.29615">
        <ele>419.8</ele>
        <time>2022-06-12T07:59:31Z</time>
      </trkpt>
      <trkpt lat="46.00343" lon="1.29623">
        <ele>420.4</ele>
        <time>2022-06-12T07:59:36Z</time>
      </trkpt>
      <trkpt lat="46.00352" lon="1.29631">
        <ele>420.8</ele>
        <time>2022-06-12T07:59:41Z</time>
      </trkpt>
      <trkpt lat="46.00358" lon="1.29635">
        <ele>421</ele>
        <time>2022-06-12T07:59:44Z</time>
      </trkpt>
      <trkpt lat="46.00373" lon="1.29647">
        <ele>421.8</ele>
        <time>2022-06-12T07:59:51Z</time>
      </trkpt>
      <trkpt lat="46.00387" lon="1.29664">
        <ele>422</ele>
        <time>2022-06-12T07:59:56Z</time>
      </trkpt>
      <trkpt lat="46.00393" lon="1.29687">
        <ele>421.8</ele>
        <time>2022-06-12T08:00:01Z</time>
      </trkpt>
      <trkpt lat="46.00395" lon="1.29697">
        <ele>421.6</ele>
        <time>2022-06-12T08:00:03Z</time>
      </trkpt>
      <trkpt lat="46.00399" lon="1.29703">
        <ele>421.2</ele>
        <time>2022-06-12T08:00:05Z</time>
      </trkpt>
      <trkpt lat="46.00405" lon="1.29707">
        <ele>420.8</ele>
        <time>2022-06-12T08:00:07Z</time>
      </trkpt>
      <trkpt lat="46.00409" lon="1.29709">
        <ele>420.6</ele>
        <time>2022-06-12T08:00:08Z</time>
      </trkpt>
      <trkpt lat="46.00413" lon="1.2971">
        <ele>420.6</ele>
        <time>2022-06-12T08:00:09Z</time>
      </trkpt>
      <trkpt lat="46.00427" lon="1.29715">
        <ele>419.6</ele>
        <time>2022-06-12T08:00:12Z</time>
      </trkpt>
      <trkpt lat="46.00445" lon="1.29724">
        <ele>418.8</ele>
        <time>2022-06-12T08:00:16Z</time>
      </trkpt>
      <trkpt lat="46.00454" lon="1.29731">
        <ele>418.6</ele>
        <time>2022-06-12T08:00:18Z</time>
      </trkpt>
      <trkpt lat="46.00469" lon="1.29745">
        <ele>418.4</ele>
        <time>2022-06-12T08:00:22Z</time>
      </trkpt>
      <trkpt lat="46.00473" lon="1.29748">
        <ele>418.2</ele>
        <time>2022-06-12T08:00:23Z</time>
      </trkpt>
      <trkpt lat="46.0048" lon="1.29755">
        <ele>418.2</ele>
        <time>2022-06-12T08:00:25Z</time>
      </trkpt>
      <trkpt lat="46.00489" lon="1.29767">
        <ele>418</ele>
        <time>2022-06-12T08:00:28Z</time>
      </trkpt>
      <trkpt lat="46.00492" lon="1.29772">
        <ele>417.8</ele>
        <time>2022-06-12T08:00:29Z</time>
      </trkpt>
      <trkpt lat="46.00499" lon="1.29783">
        <ele>417.4</ele>
        <time>2022-06-12T08:00:31Z</time>
      </trkpt>
      <trkpt lat="46.00505" lon="1.29794">
        <ele>417.4</ele>
        <time>2022-06-12T08:00:33Z</time>
      </trkpt>
      <trkpt lat="46.0051" lon="1.29804">
        <ele>417.2</ele>
        <time>2022-06-12T08:00:35Z</time>
      </trkpt>
      <trkpt lat="46.00518" lon="1.29813">
        <ele>416.2</ele>
        <time>2022-06-12T08:00:37Z</time>
      </trkpt>
      <trkpt lat="46.00522" lon="1.29817">
        <ele>415.6</ele>
        <time>2022-06-12T08:00:38Z</time>
      </trkpt>
      <trkpt lat="46.00526" lon="1.29822">
        <ele>415</ele>
        <time>2022-06-12T08:00:39Z</time>
      </trkpt>
      <trkpt lat="46.00535" lon="1.2984">
        <ele>414</ele>
        <time>2022-06-12T08:00:42Z</time>
      </trkpt>
      <trkpt lat="46.00544" lon="1.2985">
        <ele>412.4</ele>
        <time>2022-06-12T08:00:44Z</time>
      </trkpt>
      <trkpt lat="46.00553" lon="1.29852">
        <ele>411.2</ele>
        <time>2022-06-12T08:00:46Z</time>
      </trkpt>
      <trkpt lat="46.00562" lon="1.29843">
        <ele>410.4</ele>
        <time>2022-06-12T08:00:49Z</time>
      </trkpt>
      <trkpt lat="46.00562" lon="1.29843">
        <ele>409.6</ele>
        <time>2022-06-12T08:00:50Z</time>
      </trkpt>
      <trkpt lat="46.00571" lon="1.29806">
        <ele>408.6</ele>
        <time>2022-06-12T08:00:54Z</time>
      </trkpt>
      <trkpt lat="46.00578" lon="1.29796">
        <ele>407.8</ele>
        <time>2022-06-12T08:00:56Z</time>
      </trkpt>
      <trkpt lat="46.00583" lon="1.2979">
        <ele>406.6</ele>
        <time>2022-06-12T08:00:57Z</time>
      </trkpt>
      <trkpt lat="46.00591" lon="1.29787">
        <ele>406</ele>
        <time>2022-06-12T08:00:58Z</time>
      </trkpt>
      <trkpt lat="46.00605" lon="1.2978">
        <ele>405.2</ele>
        <time>2022-06-12T08:01:00Z</time>
      </trkpt>
      <trkpt lat="46.0062" lon="1.29773">
        <ele>404</ele>
        <time>2022-06-12T08:01:02Z</time>
      </trkpt>
      <trkpt lat="46.00627" lon="1.2977">
        <ele>403.4</ele>
        <time>2022-06-12T08:01:03Z</time>
      </trkpt>
      <trkpt lat="46.00636" lon="1.29766">
        <ele>402.8</ele>
        <time>2022-06-12T08:01:04Z</time>
      </trkpt>
      <trkpt lat="46.00643" lon="1.29764">
        <ele>402.4</ele>
        <time>2022-06-12T08:01:05Z</time>
      </trkpt>
      <trkpt lat="46.00659" lon="1.29763">
        <ele>401.8</ele>
        <time>2022-06-12T08:01:07Z</time>
      </trkpt>
      <trkpt lat="46.00667" lon="1.29762">
        <ele>401.2</ele>
        <time>2022-06-12T08:01:08Z</time>
      </trkpt>
      <trkpt lat="46.00676" lon="1.2976">
        <ele>401</ele>
        <time>2022-06-12T08:01:09Z</time>
      </trkpt>
      <trkpt lat="46.00684" lon="1.29756">
        <ele>400.4</ele>
        <time>2022-06-12T08:01:10Z</time>
      </trkpt>
      <trkpt lat="46.00692" lon="1.29752">
        <ele>400</ele>
        <time>2022-06-12T08:01:11Z</time>
      </trkpt>
      <trkpt lat="46.00705" lon="1.2974">
        <ele>399.2</ele>
        <time>2022-06-12T08:01:13Z</time>
      </trkpt>
      <trkpt lat="46.0071" lon="1.29733">
        <ele>399</ele>
        <time>2022-06-12T08:01:14Z</time>
      </trkpt>
      <trkpt lat="46.00731" lon="1.29702">
        <ele>399.4</ele>
        <time>2022-06-12T08:01:19Z</time>
      </trkpt>
      <trkpt lat="46.00739" lon="1.29689">
        <ele>399.4</ele>
        <time>2022-06-12T08:01:22Z</time>
      </trkpt>
      <trkpt lat="46.00742" lon="1.29679">
        <ele>399.4</ele>
        <time>2022-06-12T08:01:24Z</time>
      </trkpt>
      <trkpt lat="46.00741" lon="1.29649">
        <ele>400.4</ele>
        <time>2022-06-12T08:01:29Z</time>
      </trkpt>
      <trkpt lat="46.0074" lon="1.29642">
        <ele>400.2</ele>
        <time>2022-06-12T08:01:30Z</time>
      </trkpt>
      <trkpt lat="46.00735" lon="1.29632">
        <ele>400.2</ele>
        <time>2022-06-12T08:01:32Z</time>
      </trkpt>
      <trkpt lat="46.00732" lon="1.29627">
        <ele>400.2</ele>
        <time>2022-06-12T08:01:33Z</time>
      </trkpt>
      <trkpt lat="46.00727" lon="1.29619">
        <ele>399.6</ele>
        <time>2022-06-12T08:01:35Z</time>
      </trkpt>
      <trkpt lat="46.00724" lon="1.29609">
        <ele>399.2</ele>
        <time>2022-06-12T08:01:37Z</time>
      </trkpt>
      <trkpt lat="46.00723" lon="1.29605">
        <ele>399</ele>
        <time>2022-06-12T08:01:38Z</time>
      </trkpt>
      <trkpt lat="46.00722" lon="1.296">
        <ele>398.8</ele>
        <time>2022-06-12T08:01:39Z</time>
      </trkpt>
      <trkpt lat="46.0072" lon="1.29589">
        <ele>398.4</ele>
        <time>2022-06-12T08:01:41Z</time>
      </trkpt>
      <trkpt lat="46.00718" lon="1.29584">
        <ele>398.2</ele>
        <time>2022-06-12T08:01:42Z</time>
      </trkpt>
      <trkpt lat="46.00717" lon="1.29577">
        <ele>398</ele>
        <time>2022-06-12T08:01:43Z</time>
      </trkpt>
      <trkpt lat="46.00716" lon="1.29564">
        <ele>397.2</ele>
        <time>2022-06-12T08:01:45Z</time>
      </trkpt>
      <trkpt lat="46.00717" lon="1.2955">
        <ele>396.8</ele>
        <time>2022-06-12T08:01:47Z</time>
      </trkpt>
      <trkpt lat="46.00721" lon="1.29513">
        <ele>396</ele>
        <time>2022-06-12T08:01:52Z</time>
      </trkpt>
      <trkpt lat="46.00722" lon="1.29505">
        <ele>395.4</ele>
        <time>2022-06-12T08:01:53Z</time>
      </trkpt>
      <trkpt lat="46.00722" lon="1.29493">
        <ele>394.6</ele>
        <time>2022-06-12T08:01:54Z</time>
      </trkpt>
      <trkpt lat="46.00724" lon="1.29474">
        <ele>393</ele>
        <time>2022-06-12T08:01:56Z</time>
      </trkpt>
      <trkpt lat="46.00727" lon="1.29458">
        <ele>391.6</ele>
        <time>2022-06-12T08:01:58Z</time>
      </trkpt>
      <trkpt lat="46.00731" lon="1.29447">
        <ele>390</ele>
        <time>2022-06-12T08:02:00Z</time>
      </trkpt>
      <trkpt lat="46.00737" lon="1.29434">
        <ele>388</ele>
        <time>2022-06-12T08:02:02Z</time>
      </trkpt>
      <trkpt lat="46.0074" lon="1.29428">
        <ele>387.2</ele>
        <time>2022-06-12T08:02:03Z</time>
      </trkpt>
      <trkpt lat="46.00744" lon="1.29422">
        <ele>386.4</ele>
        <time>2022-06-12T08:02:04Z</time>
      </trkpt>
      <trkpt lat="46.00751" lon="1.29412">
        <ele>385</ele>
        <time>2022-06-12T08:02:06Z</time>
      </trkpt>
      <trkpt lat="46.00754" lon="1.29408">
        <ele>384</ele>
        <time>2022-06-12T08:02:07Z</time>
      </trkpt>
      <trkpt lat="46.00756" lon="1.29403">
        <ele>383.6</ele>
        <time>2022-06-12T08:02:08Z</time>
      </trkpt>
      <trkpt lat="46.00763" lon="1.29396">
        <ele>382.4</ele>
        <time>2022-06-12T08:02:10Z</time>
      </trkpt>
      <trkpt lat="46.00766" lon="1.29393">
        <ele>380.8</ele>
        <time>2022-06-12T08:02:11Z</time>
      </trkpt>
      <trkpt lat="46.00772" lon="1.29387">
        <ele>379.4</ele>
        <time>2022-06-12T08:02:13Z</time>
      </trkpt>
      <trkpt lat="46.00778" lon="1.29385">
        <ele>378.4</ele>
        <time>2022-06-12T08:02:14Z</time>
      </trkpt>
      <trkpt lat="46.00783" lon="1.29383">
        <ele>377.6</ele>
        <time>2022-06-12T08:02:15Z</time>
      </trkpt>
      <trkpt lat="46.00787" lon="1.2938">
        <ele>377.2</ele>
        <time>2022-06-12T08:02:16Z</time>
      </trkpt>
      <trkpt lat="46.00797" lon="1.29376">
        <ele>376.4</ele>
        <time>2022-06-12T08:02:18Z</time>
      </trkpt>
      <trkpt lat="46.00806" lon="1.29379">
        <ele>376</ele>
        <time>2022-06-12T08:02:20Z</time>
      </trkpt>
      <trkpt lat="46.00816" lon="1.29385">
        <ele>375.6</ele>
        <time>2022-06-12T08:02:22Z</time>
      </trkpt>
      <trkpt lat="46.00826" lon="1.29389">
        <ele>375.2</ele>
        <time>2022-06-12T08:02:24Z</time>
      </trkpt>
      <trkpt lat="46.00842" lon="1.29398">
        <ele>374.4</ele>
        <time>2022-06-12T08:02:27Z</time>
      </trkpt>
      <trkpt lat="46.00848" lon="1.29402">
        <ele>374.2</ele>
        <time>2022-06-12T08:02:28Z</time>
      </trkpt>
      <trkpt lat="46.0086" lon="1.29409">
        <ele>373.6</ele>
        <time>2022-06-12T08:02:30Z</time>
      </trkpt>
      <trkpt lat="46.00868" lon="1.29407">
        <ele>373.4</ele>
        <time>2022-06-12T08:02:31Z</time>
      </trkpt>
      <trkpt lat="46.00874" lon="1.29404">
        <ele>373.2</ele>
        <time>2022-06-12T08:02:32Z</time>
      </trkpt>
      <trkpt lat="46.0088" lon="1.294">
        <ele>372.4</ele>
        <time>2022-06-12T08:02:33Z</time>
      </trkpt>
      <trkpt lat="46.00887" lon="1.29394">
        <ele>371.8</ele>
        <time>2022-06-12T08:02:34Z</time>
      </trkpt>
      <trkpt lat="46.00887" lon="1.29394">
        <ele>370.8</ele>
        <time>2022-06-12T08:02:35Z</time>
      </trkpt>
      <trkpt lat="46.00923" lon="1.29366">
        <ele>369.2</ele>
        <time>2022-06-12T08:02:38Z</time>
      </trkpt>
      <trkpt lat="46.00931" lon="1.2936">
        <ele>368.6</ele>
        <time>2022-06-12T08:02:39Z</time>
      </trkpt>
      <trkpt lat="46.0095" lon="1.29347">
        <ele>367.6</ele>
        <time>2022-06-12T08:02:41Z</time>
      </trkpt>
      <trkpt lat="46.00992" lon="1.2932">
        <ele>367</ele>
        <time>2022-06-12T08:02:46Z</time>
      </trkpt>
      <trkpt lat="46.01" lon="1.29316">
        <ele>367</ele>
        <time>2022-06-12T08:02:47Z</time>
      </trkpt>
      <trkpt lat="46.01015" lon="1.29311">
        <ele>367</ele>
        <time>2022-06-12T08:02:49Z</time>
      </trkpt>
      <trkpt lat="46.01021" lon="1.2931">
        <ele>367</ele>
        <time>2022-06-12T08:02:50Z</time>
      </trkpt>
      <trkpt lat="46.01026" lon="1.29309">
        <ele>367.2</ele>
        <time>2022-06-12T08:02:51Z</time>
      </trkpt>
      <trkpt lat="46.01043" lon="1.29313">
        <ele>368.4</ele>
        <time>2022-06-12T08:02:55Z</time>
      </trkpt>
      <trkpt lat="46.01049" lon="1.29315">
        <ele>368.8</ele>
        <time>2022-06-12T08:02:57Z</time>
      </trkpt>
      <trkpt lat="46.01062" lon="1.29319">
        <ele>370</ele>
        <time>2022-06-12T08:03:01Z</time>
      </trkpt>
      <trkpt lat="46.01065" lon="1.29321">
        <ele>370.2</ele>
        <time>2022-06-12T08:03:02Z</time>
      </trkpt>
      <trkpt lat="46.01077" lon="1.29324">
        <ele>371.2</ele>
        <time>2022-06-12T08:03:06Z</time>
      </trkpt>
      <trkpt lat="46.01088" lon="1.29328">
        <ele>372.4</ele>
        <time>2022-06-12T08:03:10Z</time>
      </trkpt>
      <trkpt lat="46.0109" lon="1.29329">
        <ele>372.6</ele>
        <time>2022-06-12T08:03:11Z</time>
      </trkpt>
      <trkpt lat="46.01099" lon="1.29332">
        <ele>373.4</ele>
        <time>2022-06-12T08:03:15Z</time>
      </trkpt>
      <trkpt lat="46.01111" lon="1.29334">
        <ele>374.4</ele>
        <time>2022-06-12T08:03:20Z</time>
      </trkpt>
      <trkpt lat="46.01113" lon="1.29334">
        <ele>374.4</ele>
        <time>2022-06-12T08:03:21Z</time>
      </trkpt>
      <trkpt lat="46.01121" lon="1.29336">
        <ele>375.6</ele>
        <time>2022-06-12T08:03:25Z</time>
      </trkpt>
      <trkpt lat="46.01126" lon="1.29337">
        <ele>376</ele>
        <time>2022-06-12T08:03:28Z</time>
      </trkpt>
      <trkpt lat="46.01134" lon="1.29338">
        <ele>376.8</ele>
        <time>2022-06-12T08:03:32Z</time>
      </trkpt>
      <trkpt lat="46.01143" lon="1.2934">
        <ele>377.4</ele>
        <time>2022-06-12T08:03:36Z</time>
      </trkpt>
      <trkpt lat="46.01145" lon="1.2934">
        <ele>377.8</ele>
        <time>2022-06-12T08:03:37Z</time>
      </trkpt>
      <trkpt lat="46.01147" lon="1.29341">
        <ele>378</ele>
        <time>2022-06-12T08:03:38Z</time>
      </trkpt>
      <trkpt lat="46.01156" lon="1.29344">
        <ele>379</ele>
        <time>2022-06-12T08:03:43Z</time>
      </trkpt>
      <trkpt lat="46.01158" lon="1.29344">
        <ele>379.2</ele>
        <time>2022-06-12T08:03:44Z</time>
      </trkpt>
      <trkpt lat="46.01165" lon="1.29347">
        <ele>380</ele>
        <time>2022-06-12T08:03:48Z</time>
      </trkpt>
      <trkpt lat="46.01173" lon="1.2935">
        <ele>380.8</ele>
        <time>2022-06-12T08:03:52Z</time>
      </trkpt>
      <trkpt lat="46.01178" lon="1.29351">
        <ele>381</ele>
        <time>2022-06-12T08:03:54Z</time>
      </trkpt>
      <trkpt lat="46.01188" lon="1.29354">
        <ele>381.4</ele>
        <time>2022-06-12T08:03:59Z</time>
      </trkpt>
      <trkpt lat="46.01207" lon="1.2936">
        <ele>381.6</ele>
        <time>2022-06-12T08:04:06Z</time>
      </trkpt>
      <trkpt lat="46.01221" lon="1.29367">
        <ele>382</ele>
        <time>2022-06-12T08:04:10Z</time>
      </trkpt>
      <trkpt lat="46.01223" lon="1.29371">
        <ele>382.2</ele>
        <time>2022-06-12T08:04:11Z</time>
      </trkpt>
      <trkpt lat="46.01234" lon="1.294">
        <ele>382.8</ele>
        <time>2022-06-12T08:04:17Z</time>
      </trkpt>
      <trkpt lat="46.01234" lon="1.29409">
        <ele>383.2</ele>
        <time>2022-06-12T08:04:19Z</time>
      </trkpt>
      <trkpt lat="46.01232" lon="1.29428">
        <ele>383.4</ele>
        <time>2022-06-12T08:04:23Z</time>
      </trkpt>
      <trkpt lat="46.01222" lon="1.29462">
        <ele>384</ele>
        <time>2022-06-12T08:04:31Z</time>
      </trkpt>
      <trkpt lat="46.01221" lon="1.29469">
        <ele>384.2</ele>
        <time>2022-06-12T08:04:33Z</time>
      </trkpt>
      <trkpt lat="46.01218" lon="1.29488">
        <ele>385</ele>
        <time>2022-06-12T08:04:38Z</time>
      </trkpt>
      <trkpt lat="46.01218" lon="1.29492">
        <ele>385.2</ele>
        <time>2022-06-12T08:04:39Z</time>
      </trkpt>
      <trkpt lat="46.01217" lon="1.29522">
        <ele>386.4</ele>
        <time>2022-06-12T08:04:46Z</time>
      </trkpt>
      <trkpt lat="46.01219" lon="1.29544">
        <ele>387.6</ele>
        <time>2022-06-12T08:04:52Z</time>
      </trkpt>
      <trkpt lat="46.0122" lon="1.29557">
        <ele>388.2</ele>
        <time>2022-06-12T08:04:55Z</time>
      </trkpt>
      <trkpt lat="46.0122" lon="1.29564">
        <ele>388.8</ele>
        <time>2022-06-12T08:04:57Z</time>
      </trkpt>
      <trkpt lat="46.01223" lon="1.29586">
        <ele>389.8</ele>
        <time>2022-06-12T08:05:03Z</time>
      </trkpt>
      <trkpt lat="46.01224" lon="1.29589">
        <ele>390</ele>
        <time>2022-06-12T08:05:04Z</time>
      </trkpt>
      <trkpt lat="46.01227" lon="1.29606">
        <ele>391</ele>
        <time>2022-06-12T08:05:09Z</time>
      </trkpt>
      <trkpt lat="46.0123" lon="1.29621">
        <ele>391.6</ele>
        <time>2022-06-12T08:05:14Z</time>
      </trkpt>
      <trkpt lat="46.01231" lon="1.29624">
        <ele>392</ele>
        <time>2022-06-12T08:05:15Z</time>
      </trkpt>
      <trkpt lat="46.01239" lon="1.29634">
        <ele>392.8</ele>
        <time>2022-06-12T08:05:20Z</time>
      </trkpt>
      <trkpt lat="46.01243" lon="1.29635">
        <ele>393</ele>
        <time>2022-06-12T08:05:22Z</time>
      </trkpt>
      <trkpt lat="46.01255" lon="1.29633">
        <ele>393</ele>
        <time>2022-06-12T08:05:26Z</time>
      </trkpt>
      <trkpt lat="46.01272" lon="1.2963">
        <ele>393.4</ele>
        <time>2022-06-12T08:05:32Z</time>
      </trkpt>
      <trkpt lat="46.01293" lon="1.29627">
        <ele>393.8</ele>
        <time>2022-06-12T08:05:39Z</time>
      </trkpt>
      <trkpt lat="46.01303" lon="1.29626">
        <ele>394.2</ele>
        <time>2022-06-12T08:05:42Z</time>
      </trkpt>
      <trkpt lat="46.01312" lon="1.29627">
        <ele>394.8</ele>
        <time>2022-06-12T08:05:45Z</time>
      </trkpt>
      <trkpt lat="46.01317" lon="1.29631">
        <ele>395.2</ele>
        <time>2022-06-12T08:05:47Z</time>
      </trkpt>
      <trkpt lat="46.01326" lon="1.29641">
        <ele>396</ele>
        <time>2022-06-12T08:05:51Z</time>
      </trkpt>
      <trkpt lat="46.0133" lon="1.29645">
        <ele>396.2</ele>
        <time>2022-06-12T08:05:53Z</time>
      </trkpt>
      <trkpt lat="46.01339" lon="1.29651">
        <ele>397</ele>
        <time>2022-06-12T08:05:57Z</time>
      </trkpt>
      <trkpt lat="46.01343" lon="1.29655">
        <ele>397.4</ele>
        <time>2022-06-12T08:05:59Z</time>
      </trkpt>
      <trkpt lat="46.01343" lon="1.29658">
        <ele>397.8</ele>
        <time>2022-06-12T08:06:01Z</time>
      </trkpt>
      <trkpt lat="46.01343" lon="1.2966">
        <ele>397.8</ele>
        <time>2022-06-12T08:06:02Z</time>
      </trkpt>
      <trkpt lat="46.01343" lon="1.29665">
        <ele>398.6</ele>
        <time>2022-06-12T08:06:05Z</time>
      </trkpt>
      <trkpt lat="46.01342" lon="1.29672">
        <ele>399.6</ele>
        <time>2022-06-12T08:06:09Z</time>
      </trkpt>
      <trkpt lat="46.01342" lon="1.29675">
        <ele>400</ele>
        <time>2022-06-12T08:06:11Z</time>
      </trkpt>
      <trkpt lat="46.01342" lon="1.29681">
        <ele>400.6</ele>
        <time>2022-06-12T08:06:14Z</time>
      </trkpt>
      <trkpt lat="46.01342" lon="1.29692">
        <ele>401.6</ele>
        <time>2022-06-12T08:06:19Z</time>
      </trkpt>
      <trkpt lat="46.01342" lon="1.29694">
        <ele>401.8</ele>
        <time>2022-06-12T08:06:20Z</time>
      </trkpt>
      <trkpt lat="46.01341" lon="1.29707">
        <ele>402.2</ele>
        <time>2022-06-12T08:06:26Z</time>
      </trkpt>
      <trkpt lat="46.0134" lon="1.29726">
        <ele>403</ele>
        <time>2022-06-12T08:06:32Z</time>
      </trkpt>
      <trkpt lat="46.01337" lon="1.29752">
        <ele>403.2</ele>
        <time>2022-06-12T08:06:39Z</time>
      </trkpt>
      <trkpt lat="46.01336" lon="1.29775">
        <ele>403.4</ele>
        <time>2022-06-12T08:06:44Z</time>
      </trkpt>
      <trkpt lat="46.01338" lon="1.29788">
        <ele>404</ele>
        <time>2022-06-12T08:06:47Z</time>
      </trkpt>
      <trkpt lat="46.01342" lon="1.29796">
        <ele>404.2</ele>
        <time>2022-06-12T08:06:49Z</time>
      </trkpt>
      <trkpt lat="46.01355" lon="1.29817">
        <ele>404.6</ele>
        <time>2022-06-12T08:06:55Z</time>
      </trkpt>
      <trkpt lat="46.01363" lon="1.29825">
        <ele>405</ele>
        <time>2022-06-12T08:06:58Z</time>
      </trkpt>
      <trkpt lat="46.01367" lon="1.29834">
        <ele>405</ele>
        <time>2022-06-12T08:07:00Z</time>
      </trkpt>
      <trkpt lat="46.01371" lon="1.29859">
        <ele>405.6</ele>
        <time>2022-06-12T08:07:06Z</time>
      </trkpt>
      <trkpt lat="46.01371" lon="1.29876">
        <ele>406</ele>
        <time>2022-06-12T08:07:10Z</time>
      </trkpt>
      <trkpt lat="46.01371" lon="1.2988">
        <ele>406.2</ele>
        <time>2022-06-12T08:07:11Z</time>
      </trkpt>
      <trkpt lat="46.01367" lon="1.29899">
        <ele>407</ele>
        <time>2022-06-12T08:07:17Z</time>
      </trkpt>
      <trkpt lat="46.01361" lon="1.29907">
        <ele>407.8</ele>
        <time>2022-06-12T08:07:22Z</time>
      </trkpt>
      <trkpt lat="46.01358" lon="1.29911">
        <ele>408.2</ele>
        <time>2022-06-12T08:07:24Z</time>
      </trkpt>
      <trkpt lat="46.01349" lon="1.29917">
        <ele>408.8</ele>
        <time>2022-06-12T08:07:28Z</time>
      </trkpt>
      <trkpt lat="46.01337" lon="1.29926">
        <ele>409</ele>
        <time>2022-06-12T08:07:33Z</time>
      </trkpt>
      <trkpt lat="46.01331" lon="1.29938">
        <ele>409.4</ele>
        <time>2022-06-12T08:07:37Z</time>
      </trkpt>
      <trkpt lat="46.01326" lon="1.29946">
        <ele>410.4</ele>
        <time>2022-06-12T08:07:40Z</time>
      </trkpt>
      <trkpt lat="46.01325" lon="1.29949">
        <ele>410.6</ele>
        <time>2022-06-12T08:07:41Z</time>
      </trkpt>
      <trkpt lat="46.01317" lon="1.29962">
        <ele>411.8</ele>
        <time>2022-06-12T08:07:46Z</time>
      </trkpt>
      <trkpt lat="46.01315" lon="1.29967">
        <ele>411.8</ele>
        <time>2022-06-12T08:07:47Z</time>
      </trkpt>
      <trkpt lat="46.01311" lon="1.29983">
        <ele>412.8</ele>
        <time>2022-06-12T08:07:51Z</time>
      </trkpt>
      <trkpt lat="46.0131" lon="1.29989">
        <ele>413.4</ele>
        <time>2022-06-12T08:07:53Z</time>
      </trkpt>
      <trkpt lat="46.0131" lon="1.29992">
        <ele>413.8</ele>
        <time>2022-06-12T08:07:54Z</time>
      </trkpt>
      <trkpt lat="46.0131" lon="1.30007">
        <ele>414.6</ele>
        <time>2022-06-12T08:07:59Z</time>
      </trkpt>
      <trkpt lat="46.0131" lon="1.30008">
        <ele>414.8</ele>
        <time>2022-06-12T08:08:00Z</time>
      </trkpt>
      <trkpt lat="46.01318" lon="1.30009">
        <ele>415.2</ele>
        <time>2022-06-12T08:08:06Z</time>
      </trkpt>
      <trkpt lat="46.01331" lon="1.30013">
        <ele>415.4</ele>
        <time>2022-06-12T08:08:12Z</time>
      </trkpt>
      <trkpt lat="46.01342" lon="1.30018">
        <ele>415.6</ele>
        <time>2022-06-12T08:08:17Z</time>
      </trkpt>
      <trkpt lat="46.01347" lon="1.30026">
        <ele>415.8</ele>
        <time>2022-06-12T08:08:20Z</time>
      </trkpt>
      <trkpt lat="46.01347" lon="1.30028">
        <ele>415.8</ele>
        <time>2022-06-12T08:08:21Z</time>
      </trkpt>
      <trkpt lat="46.01344" lon="1.30038">
        <ele>416.6</ele>
        <time>2022-06-12T08:08:26Z</time>
      </trkpt>
      <trkpt lat="46.01342" lon="1.30042">
        <ele>417.4</ele>
        <time>2022-06-12T08:08:28Z</time>
      </trkpt>
      <trkpt lat="46.01342" lon="1.30051">
        <ele>418.2</ele>
        <time>2022-06-12T08:08:32Z</time>
      </trkpt>
      <trkpt lat="46.01341" lon="1.30057">
        <ele>418.6</ele>
        <time>2022-06-12T08:08:34Z</time>
      </trkpt>
      <trkpt lat="46.01343" lon="1.30067">
        <ele>419.6</ele>
        <time>2022-06-12T08:08:38Z</time>
      </trkpt>
      <trkpt lat="46.01343" lon="1.3007">
        <ele>420</ele>
        <time>2022-06-12T08:08:39Z</time>
      </trkpt>
      <trkpt lat="46.01342" lon="1.30083">
        <ele>420.8</ele>
        <time>2022-06-12T08:08:43Z</time>
      </trkpt>
      <trkpt lat="46.01341" lon="1.30094">
        <ele>421.2</ele>
        <time>2022-06-12T08:08:47Z</time>
      </trkpt>
      <trkpt lat="46.0134" lon="1.30105">
        <ele>421.8</ele>
        <time>2022-06-12T08:08:51Z</time>
      </trkpt>
      <trkpt lat="46.01341" lon="1.30115">
        <ele>422.8</ele>
        <time>2022-06-12T08:08:55Z</time>
      </trkpt>
      <trkpt lat="46.01344" lon="1.30131">
        <ele>424.2</ele>
        <time>2022-06-12T08:09:01Z</time>
      </trkpt>
      <trkpt lat="46.01346" lon="1.30141">
        <ele>425</ele>
        <time>2022-06-12T08:09:05Z</time>
      </trkpt>
      <trkpt lat="46.01346" lon="1.30143">
        <ele>425.2</ele>
        <time>2022-06-12T08:09:06Z</time>
      </trkpt>
      <trkpt lat="46.01347" lon="1.30165">
        <ele>426</ele>
        <time>2022-06-12T08:09:15Z</time>
      </trkpt>
      <trkpt lat="46.01347" lon="1.30176">
        <ele>426.4</ele>
        <time>2022-06-12T08:09:19Z</time>
      </trkpt>
      <trkpt lat="46.01348" lon="1.3019">
        <ele>427.2</ele>
        <time>2022-06-12T08:09:24Z</time>
      </trkpt>
      <trkpt lat="46.01348" lon="1.30193">
        <ele>427.4</ele>
        <time>2022-06-12T08:09:25Z</time>
      </trkpt>
      <trkpt lat="46.01352" lon="1.3022">
        <ele>428.4</ele>
        <time>2022-06-12T08:09:34Z</time>
      </trkpt>
      <trkpt lat="46.01352" lon="1.30223">
        <ele>428.4</ele>
        <time>2022-06-12T08:09:35Z</time>
      </trkpt>
      <trkpt lat="46.01353" lon="1.30235">
        <ele>428.6</ele>
        <time>2022-06-12T08:09:39Z</time>
      </trkpt>
      <trkpt lat="46.01356" lon="1.30239">
        <ele>428.8</ele>
        <time>2022-06-12T08:09:41Z</time>
      </trkpt>
      <trkpt lat="46.01366" lon="1.30239">
        <ele>428.8</ele>
        <time>2022-06-12T08:09:45Z</time>
      </trkpt>
      <trkpt lat="46.01376" lon="1.30247">
        <ele>429</ele>
        <time>2022-06-12T08:09:49Z</time>
      </trkpt>
      <trkpt lat="46.01383" lon="1.30256">
        <ele>429.6</ele>
        <time>2022-06-12T08:09:53Z</time>
      </trkpt>
      <trkpt lat="46.01385" lon="1.30256">
        <ele>429.6</ele>
        <time>2022-06-12T08:09:54Z</time>
      </trkpt>
      <trkpt lat="46.01403" lon="1.30252">
        <ele>429.6</ele>
        <time>2022-06-12T08:10:01Z</time>
      </trkpt>
      <trkpt lat="46.01419" lon="1.30252">
        <ele>429.6</ele>
        <time>2022-06-12T08:10:07Z</time>
      </trkpt>
      <trkpt lat="46.01433" lon="1.30264">
        <ele>430.6</ele>
        <time>2022-06-12T08:10:13Z</time>
      </trkpt>
      <trkpt lat="46.01446" lon="1.30281">
        <ele>431.6</ele>
        <time>2022-06-12T08:10:19Z</time>
      </trkpt>
      <trkpt lat="46.01449" lon="1.30284">
        <ele>431.8</ele>
        <time>2022-06-12T08:10:20Z</time>
      </trkpt>
      <trkpt lat="46.01456" lon="1.3029">
        <ele>432.2</ele>
        <time>2022-06-12T08:10:23Z</time>
      </trkpt>
      <trkpt lat="46.01459" lon="1.30291">
        <ele>432.4</ele>
        <time>2022-06-12T08:10:24Z</time>
      </trkpt>
      <trkpt lat="46.01471" lon="1.30283">
        <ele>432.6</ele>
        <time>2022-06-12T08:10:30Z</time>
      </trkpt>
      <trkpt lat="46.0148" lon="1.30283">
        <ele>432.4</ele>
        <time>2022-06-12T08:10:33Z</time>
      </trkpt>
      <trkpt lat="46.01488" lon="1.30288">
        <ele>432.4</ele>
        <time>2022-06-12T08:10:35Z</time>
      </trkpt>
      <trkpt lat="46.015" lon="1.30301">
        <ele>432.8</ele>
        <time>2022-06-12T08:10:39Z</time>
      </trkpt>
      <trkpt lat="46.01509" lon="1.3031">
        <ele>433.2</ele>
        <time>2022-06-12T08:10:42Z</time>
      </trkpt>
      <trkpt lat="46.01529" lon="1.3033">
        <ele>433.2</ele>
        <time>2022-06-12T08:10:49Z</time>
      </trkpt>
      <trkpt lat="46.01539" lon="1.3034">
        <ele>433.2</ele>
        <time>2022-06-12T08:10:52Z</time>
      </trkpt>
      <trkpt lat="46.01547" lon="1.30347">
        <ele>433</ele>
        <time>2022-06-12T08:10:54Z</time>
      </trkpt>
      <trkpt lat="46.01554" lon="1.30348">
        <ele>432.4</ele>
        <time>2022-06-12T08:10:56Z</time>
      </trkpt>
      <trkpt lat="46.01559" lon="1.30344">
        <ele>431.6</ele>
        <time>2022-06-12T08:10:58Z</time>
      </trkpt>
      <trkpt lat="46.01564" lon="1.30338">
        <ele>431</ele>
        <time>2022-06-12T08:11:00Z</time>
      </trkpt>
      <trkpt lat="46.01572" lon="1.30333">
        <ele>430.4</ele>
        <time>2022-06-12T08:11:02Z</time>
      </trkpt>
      <trkpt lat="46.01577" lon="1.30331">
        <ele>430.2</ele>
        <time>2022-06-12T08:11:03Z</time>
      </trkpt>
      <trkpt lat="46.01587" lon="1.30326">
        <ele>429</ele>
        <time>2022-06-12T08:11:05Z</time>
      </trkpt>
      <trkpt lat="46.01597" lon="1.30314">
        <ele>428</ele>
        <time>2022-06-12T08:11:07Z</time>
      </trkpt>
      <trkpt lat="46.01603" lon="1.30307">
        <ele>427.8</ele>
        <time>2022-06-12T08:11:08Z</time>
      </trkpt>
      <trkpt lat="46.01627" lon="1.30277">
        <ele>426.6</ele>
        <time>2022-06-12T08:11:12Z</time>
      </trkpt>
      <trkpt lat="46.01639" lon="1.30265">
        <ele>425.6</ele>
        <time>2022-06-12T08:11:14Z</time>
      </trkpt>
      <trkpt lat="46.01644" lon="1.3026">
        <ele>425.4</ele>
        <time>2022-06-12T08:11:15Z</time>
      </trkpt>
      <trkpt lat="46.01655" lon="1.30258">
        <ele>424.8</ele>
        <time>2022-06-12T08:11:17Z</time>
      </trkpt>
      <trkpt lat="46.0166" lon="1.30259">
        <ele>424</ele>
        <time>2022-06-12T08:11:18Z</time>
      </trkpt>
      <trkpt lat="46.01665" lon="1.30262">
        <ele>423.6</ele>
        <time>2022-06-12T08:11:19Z</time>
      </trkpt>
      <trkpt lat="46.01674" lon="1.30266">
        <ele>422.8</ele>
        <time>2022-06-12T08:11:21Z</time>
      </trkpt>
      <trkpt lat="46.01686" lon="1.30265">
        <ele>421.2</ele>
        <time>2022-06-12T08:11:23Z</time>
      </trkpt>
      <trkpt lat="46.01693" lon="1.30262">
        <ele>420.4</ele>
        <time>2022-06-12T08:11:24Z</time>
      </trkpt>
      <trkpt lat="46.017" lon="1.30259">
        <ele>419.8</ele>
        <time>2022-06-12T08:11:25Z</time>
      </trkpt>
      <trkpt lat="46.0171" lon="1.30252">
        <ele>419</ele>
        <time>2022-06-12T08:11:27Z</time>
      </trkpt>
      <trkpt lat="46.01717" lon="1.3025">
        <ele>418.6</ele>
        <time>2022-06-12T08:11:28Z</time>
      </trkpt>
      <trkpt lat="46.01731" lon="1.30249">
        <ele>417.6</ele>
        <time>2022-06-12T08:11:30Z</time>
      </trkpt>
      <trkpt lat="46.01744" lon="1.30249">
        <ele>416</ele>
        <time>2022-06-12T08:11:32Z</time>
      </trkpt>
      <trkpt lat="46.01755" lon="1.30253">
        <ele>414.8</ele>
        <time>2022-06-12T08:11:34Z</time>
      </trkpt>
      <trkpt lat="46.01762" lon="1.30259">
        <ele>413</ele>
        <time>2022-06-12T08:11:36Z</time>
      </trkpt>
      <trkpt lat="46.01767" lon="1.30266">
        <ele>410.8</ele>
        <time>2022-06-12T08:11:38Z</time>
      </trkpt>
      <trkpt lat="46.01768" lon="1.30274">
        <ele>409.2</ele>
        <time>2022-06-12T08:11:40Z</time>
      </trkpt>
      <trkpt lat="46.01762" lon="1.30281">
        <ele>408</ele>
        <time>2022-06-12T08:11:42Z</time>
      </trkpt>
      <trkpt lat="46.01759" lon="1.30284">
        <ele>407.2</ele>
        <time>2022-06-12T08:11:43Z</time>
      </trkpt>
      <trkpt lat="46.01756" lon="1.30286">
        <ele>406.6</ele>
        <time>2022-06-12T08:11:44Z</time>
      </trkpt>
      <trkpt lat="46.01752" lon="1.30286">
        <ele>406</ele>
        <time>2022-06-12T08:11:45Z</time>
      </trkpt>
      <trkpt lat="46.01748" lon="1.30288">
        <ele>405.2</ele>
        <time>2022-06-12T08:11:46Z</time>
      </trkpt>
      <trkpt lat="46.01745" lon="1.30291">
        <ele>404.6</ele>
        <time>2022-06-12T08:11:47Z</time>
      </trkpt>
      <trkpt lat="46.01742" lon="1.30294">
        <ele>403.4</ele>
        <time>2022-06-12T08:11:48Z</time>
      </trkpt>
      <trkpt lat="46.01739" lon="1.303">
        <ele>402.8</ele>
        <time>2022-06-12T08:11:49Z</time>
      </trkpt>
      <trkpt lat="46.01737" lon="1.30306">
        <ele>402</ele>
        <time>2022-06-12T08:11:50Z</time>
      </trkpt>
      <trkpt lat="46.01736" lon="1.30313">
        <ele>401.2</ele>
        <time>2022-06-12T08:11:51Z</time>
      </trkpt>
      <trkpt lat="46.01735" lon="1.30321">
        <ele>400.2</ele>
        <time>2022-06-12T08:11:52Z</time>
      </trkpt>
      <trkpt lat="46.01735" lon="1.30321">
        <ele>398</ele>
        <time>2022-06-12T08:11:53Z</time>
      </trkpt>
      <trkpt lat="46.01741" lon="1.30342">
        <ele>396.8</ele>
        <time>2022-06-12T08:11:55Z</time>
      </trkpt>
      <trkpt lat="46.0175" lon="1.30361">
        <ele>395.8</ele>
        <time>2022-06-12T08:11:57Z</time>
      </trkpt>
      <trkpt lat="46.01754" lon="1.30372">
        <ele>395</ele>
        <time>2022-06-12T08:11:58Z</time>
      </trkpt>
      <trkpt lat="46.01756" lon="1.30382">
        <ele>394.2</ele>
        <time>2022-06-12T08:11:59Z</time>
      </trkpt>
      <trkpt lat="46.01759" lon="1.30403">
        <ele>392.4</ele>
        <time>2022-06-12T08:12:01Z</time>
      </trkpt>
      <trkpt lat="46.01763" lon="1.30412">
        <ele>391.8</ele>
        <time>2022-06-12T08:12:02Z</time>
      </trkpt>
      <trkpt lat="46.01767" lon="1.30421">
        <ele>391</ele>
        <time>2022-06-12T08:12:03Z</time>
      </trkpt>
      <trkpt lat="46.01769" lon="1.30432">
        <ele>390.2</ele>
        <time>2022-06-12T08:12:04Z</time>
      </trkpt>
      <trkpt lat="46.01774" lon="1.30443">
        <ele>389.8</ele>
        <time>2022-06-12T08:12:05Z</time>
      </trkpt>
      <trkpt lat="46.01778" lon="1.30451">
        <ele>388.4</ele>
        <time>2022-06-12T08:12:06Z</time>
      </trkpt>
      <trkpt lat="46.01782" lon="1.30461">
        <ele>387.2</ele>
        <time>2022-06-12T08:12:07Z</time>
      </trkpt>
      <trkpt lat="46.01787" lon="1.30469">
        <ele>385.8</ele>
        <time>2022-06-12T08:12:08Z</time>
      </trkpt>
      <trkpt lat="46.0179" lon="1.30476">
        <ele>384.8</ele>
        <time>2022-06-12T08:12:09Z</time>
      </trkpt>
      <trkpt lat="46.01792" lon="1.30483">
        <ele>384</ele>
        <time>2022-06-12T08:12:10Z</time>
      </trkpt>
      <trkpt lat="46.0179" lon="1.3049">
        <ele>382.4</ele>
        <time>2022-06-12T08:12:11Z</time>
      </trkpt>
      <trkpt lat="46.01787" lon="1.30507">
        <ele>380.8</ele>
        <time>2022-06-12T08:12:13Z</time>
      </trkpt>
      <trkpt lat="46.01785" lon="1.30515">
        <ele>380.4</ele>
        <time>2022-06-12T08:12:14Z</time>
      </trkpt>
      <trkpt lat="46.01779" lon="1.30536">
        <ele>379.6</ele>
        <time>2022-06-12T08:12:16Z</time>
      </trkpt>
      <trkpt lat="46.01777" lon="1.30546">
        <ele>378.6</ele>
        <time>2022-06-12T08:12:17Z</time>
      </trkpt>
      <trkpt lat="46.01775" lon="1.30557">
        <ele>377.8</ele>
        <time>2022-06-12T08:12:18Z</time>
      </trkpt>
      <trkpt lat="46.01774" lon="1.30565">
        <ele>377.2</ele>
        <time>2022-06-12T08:12:19Z</time>
      </trkpt>
      <trkpt lat="46.01772" lon="1.30571">
        <ele>377</ele>
        <time>2022-06-12T08:12:20Z</time>
      </trkpt>
      <trkpt lat="46.0177" lon="1.30575">
        <ele>376.6</ele>
        <time>2022-06-12T08:12:21Z</time>
      </trkpt>
      <trkpt lat="46.01768" lon="1.30576">
        <ele>376</ele>
        <time>2022-06-12T08:12:22Z</time>
      </trkpt>
      <trkpt lat="46.01762" lon="1.30575">
        <ele>375.6</ele>
        <time>2022-06-12T08:12:25Z</time>
      </trkpt>
      <trkpt lat="46.01759" lon="1.30574">
        <ele>375.6</ele>
        <time>2022-06-12T08:12:26Z</time>
      </trkpt>
      <trkpt lat="46.01747" lon="1.30567">
        <ele>376</ele>
        <time>2022-06-12T08:12:31Z</time>
      </trkpt>
      <trkpt lat="46.01729" lon="1.3056">
        <ele>376.6</ele>
        <time>2022-06-12T08:12:37Z</time>
      </trkpt>
      <trkpt lat="46.01722" lon="1.30558">
        <ele>376.8</ele>
        <time>2022-06-12T08:12:40Z</time>
      </trkpt>
      <trkpt lat="46.01713" lon="1.30555">
        <ele>376.6</ele>
        <time>2022-06-12T08:12:43Z</time>
      </trkpt>
      <trkpt lat="46.01696" lon="1.30546">
        <ele>377.6</ele>
        <time>2022-06-12T08:12:49Z</time>
      </trkpt>
      <trkpt lat="46.01693" lon="1.30544">
        <ele>377.8</ele>
        <time>2022-06-12T08:12:50Z</time>
      </trkpt>
      <trkpt lat="46.01674" lon="1.30538">
        <ele>378.8</ele>
        <time>2022-06-12T08:12:57Z</time>
      </trkpt>
      <trkpt lat="46.01671" lon="1.30538">
        <ele>379</ele>
        <time>2022-06-12T08:12:58Z</time>
      </trkpt>
      <trkpt lat="46.01656" lon="1.30532">
        <ele>380.2</ele>
        <time>2022-06-12T08:13:04Z</time>
      </trkpt>
      <trkpt lat="46.0164" lon="1.30534">
        <ele>380.6</ele>
        <time>2022-06-12T08:13:10Z</time>
      </trkpt>
      <trkpt lat="46.01634" lon="1.30537">
        <ele>381.2</ele>
        <time>2022-06-12T08:13:13Z</time>
      </trkpt>
      <trkpt lat="46.01626" lon="1.30539">
        <ele>382</ele>
        <time>2022-06-12T08:13:17Z</time>
      </trkpt>
      <trkpt lat="46.01622" lon="1.3054">
        <ele>382.2</ele>
        <time>2022-06-12T08:13:19Z</time>
      </trkpt>
      <trkpt lat="46.01618" lon="1.30544">
        <ele>383</ele>
        <time>2022-06-12T08:13:22Z</time>
      </trkpt>
      <trkpt lat="46.01617" lon="1.30546">
        <ele>383</ele>
        <time>2022-06-12T08:13:23Z</time>
      </trkpt>
      <trkpt lat="46.01616" lon="1.3055">
        <ele>383.4</ele>
        <time>2022-06-12T08:13:25Z</time>
      </trkpt>
      <trkpt lat="46.0161" lon="1.30566">
        <ele>384.4</ele>
        <time>2022-06-12T08:13:30Z</time>
      </trkpt>
      <trkpt lat="46.0161" lon="1.30568">
        <ele>384.6</ele>
        <time>2022-06-12T08:13:31Z</time>
      </trkpt>
      <trkpt lat="46.0161" lon="1.30583">
        <ele>385.2</ele>
        <time>2022-06-12T08:13:36Z</time>
      </trkpt>
      <trkpt lat="46.0161" lon="1.30585">
        <ele>385.6</ele>
        <time>2022-06-12T08:13:38Z</time>
      </trkpt>
      <trkpt lat="46.01614" lon="1.3061">
        <ele>386.2</ele>
        <time>2022-06-12T08:13:44Z</time>
      </trkpt>
      <trkpt lat="46.01613" lon="1.30619">
        <ele>386.6</ele>
        <time>2022-06-12T08:13:47Z</time>
      </trkpt>
      <trkpt lat="46.01613" lon="1.30621">
        <ele>386.8</ele>
        <time>2022-06-12T08:13:48Z</time>
      </trkpt>
      <trkpt lat="46.01611" lon="1.30624">
        <ele>387</ele>
        <time>2022-06-12T08:13:50Z</time>
      </trkpt>
      <trkpt lat="46.0161" lon="1.30625">
        <ele>387.2</ele>
        <time>2022-06-12T08:13:51Z</time>
      </trkpt>
      <trkpt lat="46.01605" lon="1.30628">
        <ele>387.8</ele>
        <time>2022-06-12T08:13:54Z</time>
      </trkpt>
      <trkpt lat="46.01602" lon="1.30629">
        <ele>388</ele>
        <time>2022-06-12T08:13:56Z</time>
      </trkpt>
      <trkpt lat="46.01597" lon="1.30629">
        <ele>388.8</ele>
        <time>2022-06-12T08:13:59Z</time>
      </trkpt>
      <trkpt lat="46.01592" lon="1.30631">
        <ele>389.6</ele>
        <time>2022-06-12T08:14:04Z</time>
      </trkpt>
      <trkpt lat="46.01591" lon="1.30632">
        <ele>389.8</ele>
        <time>2022-06-12T08:14:05Z</time>
      </trkpt>
      <trkpt lat="46.01582" lon="1.30638">
        <ele>391</ele>
        <time>2022-06-12T08:14:11Z</time>
      </trkpt>
      <trkpt lat="46.01581" lon="1.30638">
        <ele>391.2</ele>
        <time>2022-06-12T08:14:12Z</time>
      </trkpt>
      <trkpt lat="46.01574" lon="1.3064">
        <ele>392</ele>
        <time>2022-06-12T08:14:17Z</time>
      </trkpt>
      <trkpt lat="46.01571" lon="1.30641">
        <ele>392.2</ele>
        <time>2022-06-12T08:14:19Z</time>
      </trkpt>
      <trkpt lat="46.01564" lon="1.3064">
        <ele>393.2</ele>
        <time>2022-06-12T08:14:24Z</time>
      </trkpt>
      <trkpt lat="46.01557" lon="1.3064">
        <ele>394</ele>
        <time>2022-06-12T08:14:29Z</time>
      </trkpt>
      <trkpt lat="46.01555" lon="1.3064">
        <ele>394.2</ele>
        <time>2022-06-12T08:14:30Z</time>
      </trkpt>
      <trkpt lat="46.01545" lon="1.30642">
        <ele>395.4</ele>
        <time>2022-06-12T08:14:37Z</time>
      </trkpt>
      <trkpt lat="46.01539" lon="1.30641">
        <ele>396.2</ele>
        <time>2022-06-12T08:14:42Z</time>
      </trkpt>
      <trkpt lat="46.01538" lon="1.30641">
        <ele>396.6</ele>
        <time>2022-06-12T08:14:43Z</time>
      </trkpt>
      <trkpt lat="46.01529" lon="1.30634">
        <ele>397.6</ele>
        <time>2022-06-12T08:14:50Z</time>
      </trkpt>
      <trkpt lat="46.01525" lon="1.30629">
        <ele>398</ele>
        <time>2022-06-12T08:14:54Z</time>
      </trkpt>
      <trkpt lat="46.01522" lon="1.30626">
        <ele>398.8</ele>
        <time>2022-06-12T08:14:57Z</time>
      </trkpt>
      <trkpt lat="46.01517" lon="1.3062">
        <ele>399.8</ele>
        <time>2022-06-12T08:15:02Z</time>
      </trkpt>
      <trkpt lat="46.01513" lon="1.30614">
        <ele>400.8</ele>
        <time>2022-06-12T08:15:07Z</time>
      </trkpt>
      <trkpt lat="46.01512" lon="1.30613">
        <ele>401</ele>
        <time>2022-06-12T08:15:08Z</time>
      </trkpt>
      <trkpt lat="46.0151" lon="1.30606">
        <ele>402.2</ele>
        <time>2022-06-12T08:15:13Z</time>
      </trkpt>
      <trkpt lat="46.0151" lon="1.30604">
        <ele>402.4</ele>
        <time>2022-06-12T08:15:14Z</time>
      </trkpt>
      <trkpt lat="46.01508" lon="1.30597">
        <ele>402.8</ele>
        <time>2022-06-12T08:15:19Z</time>
      </trkpt>
      <trkpt lat="46.01508" lon="1.30595">
        <ele>403.4</ele>
        <time>2022-06-12T08:15:21Z</time>
      </trkpt>
      <trkpt lat="46.01506" lon="1.30584">
        <ele>404.6</ele>
        <time>2022-06-12T08:15:27Z</time>
      </trkpt>
      <trkpt lat="46.01503" lon="1.30575">
        <ele>405.6</ele>
        <time>2022-06-12T08:15:32Z</time>
      </trkpt>
      <trkpt lat="46.01502" lon="1.30573">
        <ele>405.8</ele>
        <time>2022-06-12T08:15:33Z</time>
      </trkpt>
      <trkpt lat="46.01499" lon="1.30569">
        <ele>406.6</ele>
        <time>2022-06-12T08:15:36Z</time>
      </trkpt>
      <trkpt lat="46.01493" lon="1.30565">
        <ele>407.6</ele>
        <time>2022-06-12T08:15:41Z</time>
      </trkpt>
      <trkpt lat="46.01491" lon="1.30565">
        <ele>408</ele>
        <time>2022-06-12T08:15:43Z</time>
      </trkpt>
      <trkpt lat="46.01488" lon="1.30565">
        <ele>408.8</ele>
        <time>2022-06-12T08:15:46Z</time>
      </trkpt>
      <trkpt lat="46.01483" lon="1.30566">
        <ele>409.8</ele>
        <time>2022-06-12T08:15:51Z</time>
      </trkpt>
      <trkpt lat="46.01476" lon="1.30568">
        <ele>410.6</ele>
        <time>2022-06-12T08:15:56Z</time>
      </trkpt>
      <trkpt lat="46.01471" lon="1.30568">
        <ele>410.8</ele>
        <time>2022-06-12T08:16:00Z</time>
      </trkpt>
      <trkpt lat="46.01457" lon="1.30567">
        <ele>411.8</ele>
        <time>2022-06-12T08:16:09Z</time>
      </trkpt>
      <trkpt lat="46.01455" lon="1.30567">
        <ele>411.8</ele>
        <time>2022-06-12T08:16:10Z</time>
      </trkpt>
      <trkpt lat="46.01442" lon="1.30571">
        <ele>413</ele>
        <time>2022-06-12T08:16:19Z</time>
      </trkpt>
      <trkpt lat="46.01435" lon="1.30571">
        <ele>413.8</ele>
        <time>2022-06-12T08:16:23Z</time>
      </trkpt>
      <trkpt lat="46.01429" lon="1.30572">
        <ele>414</ele>
        <time>2022-06-12T08:16:26Z</time>
      </trkpt>
      <trkpt lat="46.01415" lon="1.30571">
        <ele>414.2</ele>
        <time>2022-06-12T08:16:31Z</time>
      </trkpt>
      <trkpt lat="46.01394" lon="1.30565">
        <ele>414.6</ele>
        <time>2022-06-12T08:16:38Z</time>
      </trkpt>
      <trkpt lat="46.01371" lon="1.3056">
        <ele>415</ele>
        <time>2022-06-12T08:16:45Z</time>
      </trkpt>
      <trkpt lat="46.01368" lon="1.30558">
        <ele>415.2</ele>
        <time>2022-06-12T08:16:46Z</time>
      </trkpt>
      <trkpt lat="46.01353" lon="1.30549">
        <ele>416</ele>
        <time>2022-06-12T08:16:52Z</time>
      </trkpt>
      <trkpt lat="46.0135" lon="1.30546">
        <ele>416.2</ele>
        <time>2022-06-12T08:16:53Z</time>
      </trkpt>
      <trkpt lat="46.01342" lon="1.30527">
        <ele>416.8</ele>
        <time>2022-06-12T08:16:59Z</time>
      </trkpt>
      <trkpt lat="46.01339" lon="1.3051">
        <ele>417.2</ele>
        <time>2022-06-12T08:17:04Z</time>
      </trkpt>
      <trkpt lat="46.0133" lon="1.30499">
        <ele>417.2</ele>
        <time>2022-06-12T08:17:07Z</time>
      </trkpt>
      <trkpt lat="46.01326" lon="1.30495">
        <ele>417</ele>
        <time>2022-06-12T08:17:08Z</time>
      </trkpt>
      <trkpt lat="46.01317" lon="1.30493">
        <ele>416.6</ele>
        <time>2022-06-12T08:17:10Z</time>
      </trkpt>
      <trkpt lat="46.01313" lon="1.30495">
        <ele>416.2</ele>
        <time>2022-06-12T08:17:11Z</time>
      </trkpt>
      <trkpt lat="46.01293" lon="1.30497">
        <ele>415.6</ele>
        <time>2022-06-12T08:17:16Z</time>
      </trkpt>
      <trkpt lat="46.01279" lon="1.30492">
        <ele>415</ele>
        <time>2022-06-12T08:17:19Z</time>
      </trkpt>
      <trkpt lat="46.01269" lon="1.30488">
        <ele>413.8</ele>
        <time>2022-06-12T08:17:21Z</time>
      </trkpt>
      <trkpt lat="46.01264" lon="1.30487">
        <ele>413.2</ele>
        <time>2022-06-12T08:17:22Z</time>
      </trkpt>
      <trkpt lat="46.01248" lon="1.30489">
        <ele>412.6</ele>
        <time>2022-06-12T08:17:25Z</time>
      </trkpt>
      <trkpt lat="46.01243" lon="1.30491">
        <ele>412.4</ele>
        <time>2022-06-12T08:17:26Z</time>
      </trkpt>
      <trkpt lat="46.01234" lon="1.30497">
        <ele>412.4</ele>
        <time>2022-06-12T08:17:28Z</time>
      </trkpt>
      <trkpt lat="46.01231" lon="1.305">
        <ele>412.2</ele>
        <time>2022-06-12T08:17:29Z</time>
      </trkpt>
      <trkpt lat="46.01213" lon="1.30525">
        <ele>411</ele>
        <time>2022-06-12T08:17:34Z</time>
      </trkpt>
      <trkpt lat="46.01209" lon="1.3053">
        <ele>410.6</ele>
        <time>2022-06-12T08:17:35Z</time>
      </trkpt>
      <trkpt lat="46.01202" lon="1.30539">
        <ele>409.4</ele>
        <time>2022-06-12T08:17:37Z</time>
      </trkpt>
      <trkpt lat="46.01194" lon="1.30548">
        <ele>407.8</ele>
        <time>2022-06-12T08:17:39Z</time>
      </trkpt>
      <trkpt lat="46.01184" lon="1.30551">
        <ele>406.2</ele>
        <time>2022-06-12T08:17:41Z</time>
      </trkpt>
      <trkpt lat="46.01179" lon="1.30552">
        <ele>405.6</ele>
        <time>2022-06-12T08:17:42Z</time>
      </trkpt>
      <trkpt lat="46.01175" lon="1.30553">
        <ele>405.2</ele>
        <time>2022-06-12T08:17:43Z</time>
      </trkpt>
      <trkpt lat="46.01161" lon="1.30558">
        <ele>404.4</ele>
        <time>2022-06-12T08:17:46Z</time>
      </trkpt>
      <trkpt lat="46.01153" lon="1.30564">
        <ele>404</ele>
        <time>2022-06-12T08:17:48Z</time>
      </trkpt>
      <trkpt lat="46.01129" lon="1.30593">
        <ele>403.4</ele>
        <time>2022-06-12T08:17:54Z</time>
      </trkpt>
      <trkpt lat="46.01096" lon="1.30638">
        <ele>403.8</ele>
        <time>2022-06-12T08:18:02Z</time>
      </trkpt>
      <trkpt lat="46.01087" lon="1.30647">
        <ele>403.6</ele>
        <time>2022-06-12T08:18:04Z</time>
      </trkpt>
      <trkpt lat="46.01065" lon="1.30664">
        <ele>404</ele>
        <time>2022-06-12T08:18:09Z</time>
      </trkpt>
      <trkpt lat="46.01036" lon="1.30678">
        <ele>404.6</ele>
        <time>2022-06-12T08:18:16Z</time>
      </trkpt>
      <trkpt lat="46.01021" lon="1.30686">
        <ele>405.2</ele>
        <time>2022-06-12T08:18:20Z</time>
      </trkpt>
      <trkpt lat="46.01014" lon="1.30691">
        <ele>405.6</ele>
        <time>2022-06-12T08:18:22Z</time>
      </trkpt>
      <trkpt lat="46.00996" lon="1.30703">
        <ele>406.2</ele>
        <time>2022-06-12T08:18:28Z</time>
      </trkpt>
      <trkpt lat="46.0099" lon="1.30706">
        <ele>406.4</ele>
        <time>2022-06-12T08:18:30Z</time>
      </trkpt>
      <trkpt lat="46.0098" lon="1.30715">
        <ele>407</ele>
        <time>2022-06-12T08:18:34Z</time>
      </trkpt>
      <trkpt lat="46.00973" lon="1.30722">
        <ele>407.4</ele>
        <time>2022-06-12T08:18:37Z</time>
      </trkpt>
      <trkpt lat="46.00964" lon="1.30732">
        <ele>408.2</ele>
        <time>2022-06-12T08:18:41Z</time>
      </trkpt>
      <trkpt lat="46.00962" lon="1.30734">
        <ele>408.4</ele>
        <time>2022-06-12T08:18:42Z</time>
      </trkpt>
      <trkpt lat="46.00954" lon="1.30745">
        <ele>409</ele>
        <time>2022-06-12T08:18:47Z</time>
      </trkpt>
      <trkpt lat="46.0095" lon="1.30751">
        <ele>409.4</ele>
        <time>2022-06-12T08:18:50Z</time>
      </trkpt>
      <trkpt lat="46.00942" lon="1.30762">
        <ele>410</ele>
        <time>2022-06-12T08:18:54Z</time>
      </trkpt>
      <trkpt lat="46.00935" lon="1.30772">
        <ele>410.4</ele>
        <time>2022-06-12T08:18:58Z</time>
      </trkpt>
      <trkpt lat="46.00928" lon="1.30777">
        <ele>410.8</ele>
        <time>2022-06-12T08:19:01Z</time>
      </trkpt>
      <trkpt lat="46.00913" lon="1.30787">
        <ele>411</ele>
        <time>2022-06-12T08:19:07Z</time>
      </trkpt>
      <trkpt lat="46.00902" lon="1.30795">
        <ele>411.6</ele>
        <time>2022-06-12T08:19:11Z</time>
      </trkpt>
      <trkpt lat="46.00896" lon="1.308">
        <ele>411.8</ele>
        <time>2022-06-12T08:19:13Z</time>
      </trkpt>
      <trkpt lat="46.00877" lon="1.30816">
        <ele>411.6</ele>
        <time>2022-06-12T08:19:18Z</time>
      </trkpt>
      <trkpt lat="46.00855" lon="1.30833">
        <ele>411.2</ele>
        <time>2022-06-12T08:19:23Z</time>
      </trkpt>
      <trkpt lat="46.00844" lon="1.30841">
        <ele>410.2</ele>
        <time>2022-06-12T08:19:26Z</time>
      </trkpt>
      <trkpt lat="46.00827" lon="1.30854">
        <ele>409.6</ele>
        <time>2022-06-12T08:19:30Z</time>
      </trkpt>
      <trkpt lat="46.00822" lon="1.30856">
        <ele>409.4</ele>
        <time>2022-06-12T08:19:31Z</time>
      </trkpt>
      <trkpt lat="46.00812" lon="1.30861">
        <ele>409</ele>
        <time>2022-06-12T08:19:33Z</time>
      </trkpt>
      <trkpt lat="46.00795" lon="1.3087">
        <ele>408.6</ele>
        <time>2022-06-12T08:19:36Z</time>
      </trkpt>
      <trkpt lat="46.00782" lon="1.30878">
        <ele>407.8</ele>
        <time>2022-06-12T08:19:38Z</time>
      </trkpt>
      <trkpt lat="46.00768" lon="1.30891">
        <ele>406.8</ele>
        <time>2022-06-12T08:19:41Z</time>
      </trkpt>
      <trkpt lat="46.00763" lon="1.30895">
        <ele>406.6</ele>
        <time>2022-06-12T08:19:42Z</time>
      </trkpt>
      <trkpt lat="46.00746" lon="1.30907">
        <ele>406</ele>
        <time>2022-06-12T08:19:45Z</time>
      </trkpt>
      <trkpt lat="46.00732" lon="1.30913">
        <ele>405.6</ele>
        <time>2022-06-12T08:19:47Z</time>
      </trkpt>
      <trkpt lat="46.00725" lon="1.30916">
        <ele>405.2</ele>
        <time>2022-06-12T08:19:48Z</time>
      </trkpt>
      <trkpt lat="46.00706" lon="1.30921">
        <ele>404.6</ele>
        <time>2022-06-12T08:19:50Z</time>
      </trkpt>
      <trkpt lat="46.00696" lon="1.30923">
        <ele>403.6</ele>
        <time>2022-06-12T08:19:51Z</time>
      </trkpt>
      <trkpt lat="46.00686" lon="1.30926">
        <ele>403</ele>
        <time>2022-06-12T08:19:52Z</time>
      </trkpt>
      <trkpt lat="46.00669" lon="1.30934">
        <ele>401.6</ele>
        <time>2022-06-12T08:19:54Z</time>
      </trkpt>
      <trkpt lat="46.00662" lon="1.30938">
        <ele>401</ele>
        <time>2022-06-12T08:19:55Z</time>
      </trkpt>
      <trkpt lat="46.00658" lon="1.30942">
        <ele>400.2</ele>
        <time>2022-06-12T08:19:56Z</time>
      </trkpt>
      <trkpt lat="46.00655" lon="1.30947">
        <ele>399.4</ele>
        <time>2022-06-12T08:19:57Z</time>
      </trkpt>
      <trkpt lat="46.00653" lon="1.30952">
        <ele>399</ele>
        <time>2022-06-12T08:19:58Z</time>
      </trkpt>
      <trkpt lat="46.00648" lon="1.30961">
        <ele>398.6</ele>
        <time>2022-06-12T08:20:00Z</time>
      </trkpt>
      <trkpt lat="46.00645" lon="1.30964">
        <ele>398.4</ele>
        <time>2022-06-12T08:20:01Z</time>
      </trkpt>
      <trkpt lat="46.00635" lon="1.30965">
        <ele>398</ele>
        <time>2022-06-12T08:20:03Z</time>
      </trkpt>
      <trkpt lat="46.0063" lon="1.30964">
        <ele>397.6</ele>
        <time>2022-06-12T08:20:04Z</time>
      </trkpt>
      <trkpt lat="46.00618" lon="1.30962">
        <ele>397.2</ele>
        <time>2022-06-12T08:20:06Z</time>
      </trkpt>
      <trkpt lat="46.00604" lon="1.30965">
        <ele>396.4</ele>
        <time>2022-06-12T08:20:08Z</time>
      </trkpt>
      <trkpt lat="46.00597" lon="1.30966">
        <ele>395.2</ele>
        <time>2022-06-12T08:20:09Z</time>
      </trkpt>
      <trkpt lat="46.00583" lon="1.30967">
        <ele>393.8</ele>
        <time>2022-06-12T08:20:11Z</time>
      </trkpt>
      <trkpt lat="46.00567" lon="1.30964">
        <ele>392.8</ele>
        <time>2022-06-12T08:20:13Z</time>
      </trkpt>
      <trkpt lat="46.00553" lon="1.3096">
        <ele>391.4</ele>
        <time>2022-06-12T08:20:15Z</time>
      </trkpt>
      <trkpt lat="46.00545" lon="1.30959">
        <ele>388.6</ele>
        <time>2022-06-12T08:20:17Z</time>
      </trkpt>
      <trkpt lat="46.00542" lon="1.30959">
        <ele>387.4</ele>
        <time>2022-06-12T08:20:18Z</time>
      </trkpt>
      <trkpt lat="46.00536" lon="1.30958">
        <ele>386.2</ele>
        <time>2022-06-12T08:20:21Z</time>
      </trkpt>
      <trkpt lat="46.00535" lon="1.30958">
        <ele>386.2</ele>
        <time>2022-06-12T08:20:24Z</time>
      </trkpt>
      <trkpt lat="46.00534" lon="1.30958">
        <ele>386</ele>
        <time>2022-06-12T08:20:26Z</time>
      </trkpt>
      <trkpt lat="46.0053" lon="1.30954">
        <ele>386</ele>
        <time>2022-06-12T08:20:37Z</time>
      </trkpt>
      <trkpt lat="46.00532" lon="1.30953">
        <ele>386</ele>
        <time>2022-06-12T08:20:51Z</time>
      </trkpt>
      <trkpt lat="46.00531" lon="1.3095">
        <ele>386.4</ele>
        <time>2022-06-12T08:20:54Z</time>
      </trkpt>
      <trkpt lat="46.0053" lon="1.30946">
        <ele>386.6</ele>
        <time>2022-06-12T08:20:56Z</time>
      </trkpt>
      <trkpt lat="46.00528" lon="1.30941">
        <ele>387.4</ele>
        <time>2022-06-12T08:20:59Z</time>
      </trkpt>
      <trkpt lat="46.00527" lon="1.30937">
        <ele>388</ele>
        <time>2022-06-12T08:21:01Z</time>
      </trkpt>
      <trkpt lat="46.00524" lon="1.30931">
        <ele>388.6</ele>
        <time>2022-06-12T08:21:04Z</time>
      </trkpt>
      <trkpt lat="46.0052" lon="1.30923">
        <ele>389.8</ele>
        <time>2022-06-12T08:21:08Z</time>
      </trkpt>
      <trkpt lat="46.00517" lon="1.30922">
        <ele>390.2</ele>
        <time>2022-06-12T08:21:11Z</time>
      </trkpt>
      <trkpt lat="46.00516" lon="1.30922">
        <ele>390.8</ele>
        <time>2022-06-12T08:21:12Z</time>
      </trkpt>
      <trkpt lat="46.00515" lon="1.30924">
        <ele>391.4</ele>
        <time>2022-06-12T08:21:14Z</time>
      </trkpt>
      <trkpt lat="46.00514" lon="1.30927">
        <ele>392</ele>
        <time>2022-06-12T08:21:17Z</time>
      </trkpt>
      <trkpt lat="46.00514" lon="1.30929">
        <ele>392.2</ele>
        <time>2022-06-12T08:21:18Z</time>
      </trkpt>
      <trkpt lat="46.0051" lon="1.30937">
        <ele>393</ele>
        <time>2022-06-12T08:21:25Z</time>
      </trkpt>
      <trkpt lat="46.00508" lon="1.30939">
        <ele>393.6</ele>
        <time>2022-06-12T08:21:28Z</time>
      </trkpt>
      <trkpt lat="46.00505" lon="1.30939">
        <ele>394.2</ele>
        <time>2022-06-12T08:21:31Z</time>
      </trkpt>
      <trkpt lat="46.00502" lon="1.30934">
        <ele>395.4</ele>
        <time>2022-06-12T08:21:36Z</time>
      </trkpt>
      <trkpt lat="46.005" lon="1.30928">
        <ele>396</ele>
        <time>2022-06-12T08:21:41Z</time>
      </trkpt>
      <trkpt lat="46.005" lon="1.30926">
        <ele>396.4</ele>
        <time>2022-06-12T08:21:43Z</time>
      </trkpt>
      <trkpt lat="46.00496" lon="1.30915">
        <ele>397.2</ele>
        <time>2022-06-12T08:21:48Z</time>
      </trkpt>
      <trkpt lat="46.00495" lon="1.30911">
        <ele>397.8</ele>
        <time>2022-06-12T08:21:50Z</time>
      </trkpt>
      <trkpt lat="46.0049" lon="1.30903">
        <ele>398.8</ele>
        <time>2022-06-12T08:21:54Z</time>
      </trkpt>
      <trkpt lat="46.00487" lon="1.30899">
        <ele>399.2</ele>
        <time>2022-06-12T08:21:56Z</time>
      </trkpt>
      <trkpt lat="46.00467" lon="1.30876">
        <ele>399.6</ele>
        <time>2022-06-12T08:22:06Z</time>
      </trkpt>
      <trkpt lat="46.00453" lon="1.30866">
        <ele>399.2</ele>
        <time>2022-06-12T08:22:11Z</time>
      </trkpt>
      <trkpt lat="46.00451" lon="1.30867">
        <ele>399.2</ele>
        <time>2022-06-12T08:22:12Z</time>
      </trkpt>
      <trkpt lat="46.00448" lon="1.30872">
        <ele>399.4</ele>
        <time>2022-06-12T08:22:15Z</time>
      </trkpt>
      <trkpt lat="46.00447" lon="1.30876">
        <ele>400</ele>
        <time>2022-06-12T08:22:17Z</time>
      </trkpt>
      <trkpt lat="46.00444" lon="1.30884">
        <ele>400.8</ele>
        <time>2022-06-12T08:22:21Z</time>
      </trkpt>
      <trkpt lat="46.00443" lon="1.30886">
        <ele>401</ele>
        <time>2022-06-12T08:22:22Z</time>
      </trkpt>
      <trkpt lat="46.00438" lon="1.30892">
        <ele>402.4</ele>
        <time>2022-06-12T08:22:26Z</time>
      </trkpt>
      <trkpt lat="46.00437" lon="1.30893">
        <ele>402.6</ele>
        <time>2022-06-12T08:22:27Z</time>
      </trkpt>
      <trkpt lat="46.00434" lon="1.30896">
        <ele>403.4</ele>
        <time>2022-06-12T08:22:30Z</time>
      </trkpt>
      <trkpt lat="46.00425" lon="1.30896">
        <ele>404.4</ele>
        <time>2022-06-12T08:22:35Z</time>
      </trkpt>
      <trkpt lat="46.0041" lon="1.30902">
        <ele>405.2</ele>
        <time>2022-06-12T08:22:42Z</time>
      </trkpt>
      <trkpt lat="46.00406" lon="1.30908">
        <ele>405.6</ele>
        <time>2022-06-12T08:22:45Z</time>
      </trkpt>
      <trkpt lat="46.00404" lon="1.30913">
        <ele>406.2</ele>
        <time>2022-06-12T08:22:48Z</time>
      </trkpt>
      <trkpt lat="46.00404" lon="1.30917">
        <ele>406.6</ele>
        <time>2022-06-12T08:22:50Z</time>
      </trkpt>
      <trkpt lat="46.00404" lon="1.30928">
        <ele>407.4</ele>
        <time>2022-06-12T08:22:54Z</time>
      </trkpt>
      <trkpt lat="46.00403" lon="1.30937">
        <ele>407.6</ele>
        <time>2022-06-12T08:22:57Z</time>
      </trkpt>
      <trkpt lat="46.00401" lon="1.3095">
        <ele>408.6</ele>
        <time>2022-06-12T08:23:02Z</time>
      </trkpt>
      <trkpt lat="46.00401" lon="1.30953">
        <ele>408.8</ele>
        <time>2022-06-12T08:23:03Z</time>
      </trkpt>
      <trkpt lat="46.00399" lon="1.30974">
        <ele>409.6</ele>
        <time>2022-06-12T08:23:09Z</time>
      </trkpt>
      <trkpt lat="46.00399" lon="1.30976">
        <ele>409.8</ele>
        <time>2022-06-12T08:23:10Z</time>
      </trkpt>
      <trkpt lat="46.00399" lon="1.3099">
        <ele>410.6</ele>
        <time>2022-06-12T08:23:16Z</time>
      </trkpt>
      <trkpt lat="46.00396" lon="1.31">
        <ele>411</ele>
        <time>2022-06-12T08:23:19Z</time>
      </trkpt>
      <trkpt lat="46.0039" lon="1.31006">
        <ele>411.2</ele>
        <time>2022-06-12T08:23:22Z</time>
      </trkpt>
      <trkpt lat="46.00381" lon="1.3102">
        <ele>411.4</ele>
        <time>2022-06-12T08:23:27Z</time>
      </trkpt>
      <trkpt lat="46.00376" lon="1.31041">
        <ele>411.8</ele>
        <time>2022-06-12T08:23:32Z</time>
      </trkpt>
      <trkpt lat="46.00381" lon="1.31058">
        <ele>411.8</ele>
        <time>2022-06-12T08:23:36Z</time>
      </trkpt>
      <trkpt lat="46.00387" lon="1.31072">
        <ele>412</ele>
        <time>2022-06-12T08:23:39Z</time>
      </trkpt>
      <trkpt lat="46.00393" lon="1.31085">
        <ele>412.8</ele>
        <time>2022-06-12T08:23:42Z</time>
      </trkpt>
      <trkpt lat="46.00399" lon="1.311">
        <ele>413</ele>
        <time>2022-06-12T08:23:46Z</time>
      </trkpt>
      <trkpt lat="46.00401" lon="1.31106">
        <ele>413.2</ele>
        <time>2022-06-12T08:23:48Z</time>
      </trkpt>
      <trkpt lat="46.00406" lon="1.31116">
        <ele>414.2</ele>
        <time>2022-06-12T08:23:51Z</time>
      </trkpt>
      <trkpt lat="46.00412" lon="1.3113">
        <ele>414.8</ele>
        <time>2022-06-12T08:23:55Z</time>
      </trkpt>
      <trkpt lat="46.00417" lon="1.31144">
        <ele>415.2</ele>
        <time>2022-06-12T08:23:58Z</time>
      </trkpt>
      <trkpt lat="46.00424" lon="1.31164">
        <ele>416</ele>
        <time>2022-06-12T08:24:02Z</time>
      </trkpt>
      <trkpt lat="46.00438" lon="1.31192">
        <ele>416.2</ele>
        <time>2022-06-12T08:24:08Z</time>
      </trkpt>
      <trkpt lat="46.0044" lon="1.31197">
        <ele>416.2</ele>
        <time>2022-06-12T08:24:09Z</time>
      </trkpt>
      <trkpt lat="46.00452" lon="1.31217">
        <ele>416</ele>
        <time>2022-06-12T08:24:14Z</time>
      </trkpt>
      <trkpt lat="46.00461" lon="1.31241">
        <ele>415.8</ele>
        <time>2022-06-12T08:24:18Z</time>
      </trkpt>
      <trkpt lat="46.00473" lon="1.31268">
        <ele>415.8</ele>
        <time>2022-06-12T08:24:24Z</time>
      </trkpt>
      <trkpt lat="46.00485" lon="1.31295">
        <ele>416.6</ele>
        <time>2022-06-12T08:24:30Z</time>
      </trkpt>
      <trkpt lat="46.00493" lon="1.31314">
        <ele>417.4</ele>
        <time>2022-06-12T08:24:35Z</time>
      </trkpt>
      <trkpt lat="46.00495" lon="1.31319">
        <ele>417.4</ele>
        <time>2022-06-12T08:24:36Z</time>
      </trkpt>
      <trkpt lat="46.00506" lon="1.31347">
        <ele>418.6</ele>
        <time>2022-06-12T08:24:42Z</time>
      </trkpt>
      <trkpt lat="46.00516" lon="1.31371">
        <ele>418.8</ele>
        <time>2022-06-12T08:24:47Z</time>
      </trkpt>
      <trkpt lat="46.00529" lon="1.31402">
        <ele>418.2</ele>
        <time>2022-06-12T08:24:53Z</time>
      </trkpt>
      <trkpt lat="46.00533" lon="1.31413">
        <ele>417.8</ele>
        <time>2022-06-12T08:24:55Z</time>
      </trkpt>
      <trkpt lat="46.00532" lon="1.31425">
        <ele>416.8</ele>
        <time>2022-06-12T08:24:57Z</time>
      </trkpt>
      <trkpt lat="46.0053" lon="1.31442">
        <ele>415.4</ele>
        <time>2022-06-12T08:25:00Z</time>
      </trkpt>
      <trkpt lat="46.00531" lon="1.31448">
        <ele>415</ele>
        <time>2022-06-12T08:25:02Z</time>
      </trkpt>
      <trkpt lat="46.00531" lon="1.31464">
        <ele>414.2</ele>
        <time>2022-06-12T08:25:03Z</time>
      </trkpt>
      <trkpt lat="46.00538" lon="1.31475">
        <ele>413</ele>
        <time>2022-06-12T08:25:05Z</time>
      </trkpt>
      <trkpt lat="46.00549" lon="1.31492">
        <ele>411.6</ele>
        <time>2022-06-12T08:25:08Z</time>
      </trkpt>
      <trkpt lat="46.00557" lon="1.31503">
        <ele>410.2</ele>
        <time>2022-06-12T08:25:10Z</time>
      </trkpt>
      <trkpt lat="46.00563" lon="1.31513">
        <ele>409.6</ele>
        <time>2022-06-12T08:25:12Z</time>
      </trkpt>
      <trkpt lat="46.00577" lon="1.31531">
        <ele>409.2</ele>
        <time>2022-06-12T08:25:15Z</time>
      </trkpt>
      <trkpt lat="46.00582" lon="1.31537">
        <ele>409</ele>
        <time>2022-06-12T08:25:16Z</time>
      </trkpt>
      <trkpt lat="46.00593" lon="1.3155">
        <ele>407.6</ele>
        <time>2022-06-12T08:25:18Z</time>
      </trkpt>
      <trkpt lat="46.006" lon="1.31563">
        <ele>406.6</ele>
        <time>2022-06-12T08:25:20Z</time>
      </trkpt>
      <trkpt lat="46.00604" lon="1.31568">
        <ele>406.2</ele>
        <time>2022-06-12T08:25:21Z</time>
      </trkpt>
      <trkpt lat="46.00612" lon="1.31575">
        <ele>405</ele>
        <time>2022-06-12T08:25:23Z</time>
      </trkpt>
      <trkpt lat="46.00616" lon="1.3158">
        <ele>404.6</ele>
        <time>2022-06-12T08:25:24Z</time>
      </trkpt>
      <trkpt lat="46.0062" lon="1.31584">
        <ele>404.4</ele>
        <time>2022-06-12T08:25:25Z</time>
      </trkpt>
      <trkpt lat="46.00622" lon="1.3159">
        <ele>404</ele>
        <time>2022-06-12T08:25:26Z</time>
      </trkpt>
      <trkpt lat="46.00626" lon="1.31595">
        <ele>403.4</ele>
        <time>2022-06-12T08:25:27Z</time>
      </trkpt>
      <trkpt lat="46.00631" lon="1.31604">
        <ele>402</ele>
        <time>2022-06-12T08:25:29Z</time>
      </trkpt>
      <trkpt lat="46.00633" lon="1.31607">
        <ele>401.2</ele>
        <time>2022-06-12T08:25:30Z</time>
      </trkpt>
      <trkpt lat="46.00633" lon="1.3161">
        <ele>400.4</ele>
        <time>2022-06-12T08:25:31Z</time>
      </trkpt>
      <trkpt lat="46.00633" lon="1.31622">
        <ele>398.8</ele>
        <time>2022-06-12T08:25:33Z</time>
      </trkpt>
      <trkpt lat="46.00632" lon="1.31628">
        <ele>398.4</ele>
        <time>2022-06-12T08:25:34Z</time>
      </trkpt>
      <trkpt lat="46.00632" lon="1.31642">
        <ele>397.8</ele>
        <time>2022-06-12T08:25:36Z</time>
      </trkpt>
      <trkpt lat="46.00632" lon="1.31648">
        <ele>397.8</ele>
        <time>2022-06-12T08:25:37Z</time>
      </trkpt>
      <trkpt lat="46.00633" lon="1.31653">
        <ele>397.8</ele>
        <time>2022-06-12T08:25:38Z</time>
      </trkpt>
      <trkpt lat="46.00637" lon="1.31666">
        <ele>398</ele>
        <time>2022-06-12T08:25:40Z</time>
      </trkpt>
      <trkpt lat="46.00639" lon="1.31672">
        <ele>398</ele>
        <time>2022-06-12T08:25:41Z</time>
      </trkpt>
      <trkpt lat="46.00645" lon="1.31686">
        <ele>399.2</ele>
        <time>2022-06-12T08:25:44Z</time>
      </trkpt>
      <trkpt lat="46.00651" lon="1.31701">
        <ele>400.6</ele>
        <time>2022-06-12T08:25:48Z</time>
      </trkpt>
      <trkpt lat="46.00652" lon="1.31713">
        <ele>401.6</ele>
        <time>2022-06-12T08:25:51Z</time>
      </trkpt>
      <trkpt lat="46.00654" lon="1.31724">
        <ele>402.4</ele>
        <time>2022-06-12T08:25:54Z</time>
      </trkpt>
      <trkpt lat="46.00654" lon="1.31746">
        <ele>402.8</ele>
        <time>2022-06-12T08:25:59Z</time>
      </trkpt>
      <trkpt lat="46.00654" lon="1.31751">
        <ele>402.8</ele>
        <time>2022-06-12T08:26:00Z</time>
      </trkpt>
      <trkpt lat="46.00653" lon="1.31756">
        <ele>402.8</ele>
        <time>2022-06-12T08:26:01Z</time>
      </trkpt>
      <trkpt lat="46.00647" lon="1.31772">
        <ele>402.8</ele>
        <time>2022-06-12T08:26:04Z</time>
      </trkpt>
      <trkpt lat="46.00645" lon="1.31778">
        <ele>402.6</ele>
        <time>2022-06-12T08:26:05Z</time>
      </trkpt>
      <trkpt lat="46.0064" lon="1.31787">
        <ele>402.6</ele>
        <time>2022-06-12T08:26:07Z</time>
      </trkpt>
      <trkpt lat="46.00633" lon="1.31792">
        <ele>401.8</ele>
        <time>2022-06-12T08:26:09Z</time>
      </trkpt>
      <trkpt lat="46.00628" lon="1.31794">
        <ele>401.6</ele>
        <time>2022-06-12T08:26:10Z</time>
      </trkpt>
      <trkpt lat="46.00623" lon="1.31794">
        <ele>401.4</ele>
        <time>2022-06-12T08:26:11Z</time>
      </trkpt>
      <trkpt lat="46.0061" lon="1.31796">
        <ele>401.2</ele>
        <time>2022-06-12T08:26:13Z</time>
      </trkpt>
      <trkpt lat="46.00605" lon="1.31796">
        <ele>401</ele>
        <time>2022-06-12T08:26:14Z</time>
      </trkpt>
      <trkpt lat="46.00597" lon="1.318">
        <ele>400.8</ele>
        <time>2022-06-12T08:26:16Z</time>
      </trkpt>
      <trkpt lat="46.00594" lon="1.31803">
        <ele>400.6</ele>
        <time>2022-06-12T08:26:17Z</time>
      </trkpt>
      <trkpt lat="46.00591" lon="1.31805">
        <ele>400.6</ele>
        <time>2022-06-12T08:26:18Z</time>
      </trkpt>
      <trkpt lat="46.00578" lon="1.31813">
        <ele>400.4</ele>
        <time>2022-06-12T08:26:22Z</time>
      </trkpt>
      <trkpt lat="46.00576" lon="1.31815">
        <ele>400.4</ele>
        <time>2022-06-12T08:26:23Z</time>
      </trkpt>
      <trkpt lat="46.00572" lon="1.31821">
        <ele>400.4</ele>
        <time>2022-06-12T08:26:25Z</time>
      </trkpt>
      <trkpt lat="46.00571" lon="1.31827">
        <ele>400.6</ele>
        <time>2022-06-12T08:26:26Z</time>
      </trkpt>
      <trkpt lat="46.00568" lon="1.31838">
        <ele>400.8</ele>
        <time>2022-06-12T08:26:28Z</time>
      </trkpt>
      <trkpt lat="46.00562" lon="1.31849">
        <ele>401</ele>
        <time>2022-06-12T08:26:31Z</time>
      </trkpt>
      <trkpt lat="46.00552" lon="1.31865">
        <ele>401.2</ele>
        <time>2022-06-12T08:26:36Z</time>
      </trkpt>
      <trkpt lat="46.00546" lon="1.31876">
        <ele>401.6</ele>
        <time>2022-06-12T08:26:39Z</time>
      </trkpt>
      <trkpt lat="46.00541" lon="1.31888">
        <ele>402</ele>
        <time>2022-06-12T08:26:42Z</time>
      </trkpt>
      <trkpt lat="46.00538" lon="1.31903">
        <ele>402.8</ele>
        <time>2022-06-12T08:26:46Z</time>
      </trkpt>
      <trkpt lat="46.00534" lon="1.31911">
        <ele>403</ele>
        <time>2022-06-12T08:26:48Z</time>
      </trkpt>
      <trkpt lat="46.00517" lon="1.31935">
        <ele>403.6</ele>
        <time>2022-06-12T08:26:54Z</time>
      </trkpt>
      <trkpt lat="46.00515" lon="1.31938">
        <ele>404</ele>
        <time>2022-06-12T08:26:55Z</time>
      </trkpt>
      <trkpt lat="46.00497" lon="1.31958">
        <ele>404.8</ele>
        <time>2022-06-12T08:27:01Z</time>
      </trkpt>
      <trkpt lat="46.00493" lon="1.31964">
        <ele>405</ele>
        <time>2022-06-12T08:27:02Z</time>
      </trkpt>
      <trkpt lat="46.00483" lon="1.31984">
        <ele>405.8</ele>
        <time>2022-06-12T08:27:07Z</time>
      </trkpt>
      <trkpt lat="46.00484" lon="1.32008">
        <ele>405.6</ele>
        <time>2022-06-12T08:27:13Z</time>
      </trkpt>
      <trkpt lat="46.00486" lon="1.32032">
        <ele>405.2</ele>
        <time>2022-06-12T08:27:17Z</time>
      </trkpt>
      <trkpt lat="46.00487" lon="1.32043">
        <ele>405</ele>
        <time>2022-06-12T08:27:19Z</time>
      </trkpt>
      <trkpt lat="46.00487" lon="1.32063">
        <ele>404.6</ele>
        <time>2022-06-12T08:27:21Z</time>
      </trkpt>
      <trkpt lat="46.00487" lon="1.32071">
        <ele>404.8</ele>
        <time>2022-06-12T08:27:22Z</time>
      </trkpt>
      <trkpt lat="46.00487" lon="1.32079">
        <ele>404.8</ele>
        <time>2022-06-12T08:27:23Z</time>
      </trkpt>
      <trkpt lat="46.00486" lon="1.32084">
        <ele>404.8</ele>
        <time>2022-06-12T08:27:24Z</time>
      </trkpt>
      <trkpt lat="46.00479" lon="1.32095">
        <ele>405</ele>
        <time>2022-06-12T08:27:27Z</time>
      </trkpt>
      <trkpt lat="46.00462" lon="1.32112">
        <ele>406</ele>
        <time>2022-06-12T08:27:33Z</time>
      </trkpt>
      <trkpt lat="46.00459" lon="1.32114">
        <ele>406.4</ele>
        <time>2022-06-12T08:27:34Z</time>
      </trkpt>
      <trkpt lat="46.00448" lon="1.32121">
        <ele>407.4</ele>
        <time>2022-06-12T08:27:39Z</time>
      </trkpt>
      <trkpt lat="46.00446" lon="1.32123">
        <ele>407.6</ele>
        <time>2022-06-12T08:27:40Z</time>
      </trkpt>
      <trkpt lat="46.00437" lon="1.32137">
        <ele>408.4</ele>
        <time>2022-06-12T08:27:44Z</time>
      </trkpt>
      <trkpt lat="46.00431" lon="1.32145">
        <ele>409</ele>
        <time>2022-06-12T08:27:47Z</time>
      </trkpt>
      <trkpt lat="46.00426" lon="1.32153">
        <ele>409.6</ele>
        <time>2022-06-12T08:27:50Z</time>
      </trkpt>
      <trkpt lat="46.00416" lon="1.32166">
        <ele>410.4</ele>
        <time>2022-06-12T08:27:54Z</time>
      </trkpt>
      <trkpt lat="46.00411" lon="1.32178">
        <ele>410.2</ele>
        <time>2022-06-12T08:27:57Z</time>
      </trkpt>
      <trkpt lat="46.0041" lon="1.32184">
        <ele>410</ele>
        <time>2022-06-12T08:27:58Z</time>
      </trkpt>
      <trkpt lat="46.00411" lon="1.32196">
        <ele>409.4</ele>
        <time>2022-06-12T08:28:00Z</time>
      </trkpt>
      <trkpt lat="46.00417" lon="1.32213">
        <ele>409</ele>
        <time>2022-06-12T08:28:03Z</time>
      </trkpt>
      <trkpt lat="46.0042" lon="1.32239">
        <ele>408.4</ele>
        <time>2022-06-12T08:28:07Z</time>
      </trkpt>
      <trkpt lat="46.00424" lon="1.3226">
        <ele>407.8</ele>
        <time>2022-06-12T08:28:11Z</time>
      </trkpt>
      <trkpt lat="46.00426" lon="1.32262">
        <ele>407.8</ele>
        <time>2022-06-12T08:28:12Z</time>
      </trkpt>
      <trkpt lat="46.00442" lon="1.32267">
        <ele>407.8</ele>
        <time>2022-06-12T08:28:17Z</time>
      </trkpt>
      <trkpt lat="46.00461" lon="1.32262">
        <ele>408.8</ele>
        <time>2022-06-12T08:28:23Z</time>
      </trkpt>
      <trkpt lat="46.00481" lon="1.32245">
        <ele>409.6</ele>
        <time>2022-06-12T08:28:30Z</time>
      </trkpt>
      <trkpt lat="46.005" lon="1.32233">
        <ele>410</ele>
        <time>2022-06-12T08:28:36Z</time>
      </trkpt>
      <trkpt lat="46.00514" lon="1.32228">
        <ele>410.6</ele>
        <time>2022-06-12T08:28:40Z</time>
      </trkpt>
      <trkpt lat="46.00517" lon="1.32225">
        <ele>410.6</ele>
        <time>2022-06-12T08:28:41Z</time>
      </trkpt>
      <trkpt lat="46.0054" lon="1.32216">
        <ele>411.2</ele>
        <time>2022-06-12T08:28:47Z</time>
      </trkpt>
      <trkpt lat="46.00562" lon="1.32219">
        <ele>411.6</ele>
        <time>2022-06-12T08:28:53Z</time>
      </trkpt>
      <trkpt lat="46.00568" lon="1.32223">
        <ele>411.8</ele>
        <time>2022-06-12T08:28:55Z</time>
      </trkpt>
      <trkpt lat="46.00579" lon="1.32227">
        <ele>413</ele>
        <time>2022-06-12T08:28:59Z</time>
      </trkpt>
      <trkpt lat="46.00581" lon="1.32228">
        <ele>413.2</ele>
        <time>2022-06-12T08:29:00Z</time>
      </trkpt>
      <trkpt lat="46.00596" lon="1.32235">
        <ele>414</ele>
        <time>2022-06-12T08:29:07Z</time>
      </trkpt>
      <trkpt lat="46.006" lon="1.32237">
        <ele>414.6</ele>
        <time>2022-06-12T08:29:09Z</time>
      </trkpt>
      <trkpt lat="46.00605" lon="1.3224">
        <ele>415.2</ele>
        <time>2022-06-12T08:29:12Z</time>
      </trkpt>
      <trkpt lat="46.00613" lon="1.32243">
        <ele>415.8</ele>
        <time>2022-06-12T08:29:16Z</time>
      </trkpt>
      <trkpt lat="46.00619" lon="1.32247">
        <ele>416</ele>
        <time>2022-06-12T08:29:19Z</time>
      </trkpt>
      <trkpt lat="46.00623" lon="1.32251">
        <ele>416.2</ele>
        <time>2022-06-12T08:29:21Z</time>
      </trkpt>
      <trkpt lat="46.00627" lon="1.32256">
        <ele>416.2</ele>
        <time>2022-06-12T08:29:23Z</time>
      </trkpt>
      <trkpt lat="46.00643" lon="1.32268">
        <ele>416</ele>
        <time>2022-06-12T08:29:29Z</time>
      </trkpt>
      <trkpt lat="46.00653" lon="1.32271">
        <ele>416.2</ele>
        <time>2022-06-12T08:29:34Z</time>
      </trkpt>
      <trkpt lat="46.0066" lon="1.32269">
        <ele>417.2</ele>
        <time>2022-06-12T08:29:38Z</time>
      </trkpt>
      <trkpt lat="46.00666" lon="1.32268">
        <ele>418</ele>
        <time>2022-06-12T08:29:42Z</time>
      </trkpt>
      <trkpt lat="46.0067" lon="1.32269">
        <ele>418.6</ele>
        <time>2022-06-12T08:29:44Z</time>
      </trkpt>
      <trkpt lat="46.00676" lon="1.32272">
        <ele>419.6</ele>
        <time>2022-06-12T08:29:49Z</time>
      </trkpt>
      <trkpt lat="46.00683" lon="1.32276">
        <ele>420.8</ele>
        <time>2022-06-12T08:29:54Z</time>
      </trkpt>
      <trkpt lat="46.00685" lon="1.32277">
        <ele>421</ele>
        <time>2022-06-12T08:29:56Z</time>
      </trkpt>
      <trkpt lat="46.0069" lon="1.32279">
        <ele>421.8</ele>
        <time>2022-06-12T08:30:00Z</time>
      </trkpt>
      <trkpt lat="46.00693" lon="1.3228">
        <ele>422.6</ele>
        <time>2022-06-12T08:30:02Z</time>
      </trkpt>
      <trkpt lat="46.00695" lon="1.32281">
        <ele>422.8</ele>
        <time>2022-06-12T08:30:03Z</time>
      </trkpt>
      <trkpt lat="46.00702" lon="1.32287">
        <ele>423.8</ele>
        <time>2022-06-12T08:30:08Z</time>
      </trkpt>
      <trkpt lat="46.00703" lon="1.32287">
        <ele>424</ele>
        <time>2022-06-12T08:30:09Z</time>
      </trkpt>
      <trkpt lat="46.00707" lon="1.32293">
        <ele>425.2</ele>
        <time>2022-06-12T08:30:15Z</time>
      </trkpt>
      <trkpt lat="46.0071" lon="1.32299">
        <ele>426.2</ele>
        <time>2022-06-12T08:30:20Z</time>
      </trkpt>
      <trkpt lat="46.00713" lon="1.32304">
        <ele>427</ele>
        <time>2022-06-12T08:30:24Z</time>
      </trkpt>
      <trkpt lat="46.00715" lon="1.32307">
        <ele>427.2</ele>
        <time>2022-06-12T08:30:26Z</time>
      </trkpt>
      <trkpt lat="46.0072" lon="1.32315">
        <ele>428.2</ele>
        <time>2022-06-12T08:30:31Z</time>
      </trkpt>
      <trkpt lat="46.00722" lon="1.32317">
        <ele>428.4</ele>
        <time>2022-06-12T08:30:33Z</time>
      </trkpt>
      <trkpt lat="46.00725" lon="1.32325">
        <ele>429</ele>
        <time>2022-06-12T08:30:39Z</time>
      </trkpt>
      <trkpt lat="46.00727" lon="1.32334">
        <ele>429.4</ele>
        <time>2022-06-12T08:30:43Z</time>
      </trkpt>
      <trkpt lat="46.00729" lon="1.32339">
        <ele>429.8</ele>
        <time>2022-06-12T08:30:45Z</time>
      </trkpt>
      <trkpt lat="46.00733" lon="1.32346">
        <ele>430.4</ele>
        <time>2022-06-12T08:30:49Z</time>
      </trkpt>
      <trkpt lat="46.00735" lon="1.32355">
        <ele>431.2</ele>
        <time>2022-06-12T08:30:54Z</time>
      </trkpt>
      <trkpt lat="46.00737" lon="1.32359">
        <ele>431.6</ele>
        <time>2022-06-12T08:30:56Z</time>
      </trkpt>
      <trkpt lat="46.00739" lon="1.32361">
        <ele>431.6</ele>
        <time>2022-06-12T08:30:57Z</time>
      </trkpt>
      <trkpt lat="46.00746" lon="1.32365">
        <ele>432</ele>
        <time>2022-06-12T08:31:00Z</time>
      </trkpt>
      <trkpt lat="46.00757" lon="1.32366">
        <ele>432.6</ele>
        <time>2022-06-12T08:31:06Z</time>
      </trkpt>
      <trkpt lat="46.00765" lon="1.32366">
        <ele>433.8</ele>
        <time>2022-06-12T08:31:11Z</time>
      </trkpt>
      <trkpt lat="46.0077" lon="1.32366">
        <ele>434.2</ele>
        <time>2022-06-12T08:31:14Z</time>
      </trkpt>
      <trkpt lat="46.00776" lon="1.32368">
        <ele>435.2</ele>
        <time>2022-06-12T08:31:19Z</time>
      </trkpt>
      <trkpt lat="46.0078" lon="1.32369">
        <ele>436</ele>
        <time>2022-06-12T08:31:22Z</time>
      </trkpt>
      <trkpt lat="46.00784" lon="1.3237">
        <ele>436.4</ele>
        <time>2022-06-12T08:31:24Z</time>
      </trkpt>
      <trkpt lat="46.00788" lon="1.3237">
        <ele>437.6</ele>
        <time>2022-06-12T08:31:28Z</time>
      </trkpt>
      <trkpt lat="46.00789" lon="1.3237">
        <ele>437.8</ele>
        <time>2022-06-12T08:31:29Z</time>
      </trkpt>
      <trkpt lat="46.0079" lon="1.32371">
        <ele>438</ele>
        <time>2022-06-12T08:31:31Z</time>
      </trkpt>
      <trkpt lat="46.00792" lon="1.32373">
        <ele>438.6</ele>
        <time>2022-06-12T08:31:34Z</time>
      </trkpt>
      <trkpt lat="46.00795" lon="1.32375">
        <ele>439</ele>
        <time>2022-06-12T08:31:37Z</time>
      </trkpt>
      <trkpt lat="46.00797" lon="1.32376">
        <ele>439.6</ele>
        <time>2022-06-12T08:31:39Z</time>
      </trkpt>
      <trkpt lat="46.00799" lon="1.32377">
        <ele>440</ele>
        <time>2022-06-12T08:31:41Z</time>
      </trkpt>
      <trkpt lat="46.00801" lon="1.32379">
        <ele>440.2</ele>
        <time>2022-06-12T08:31:43Z</time>
      </trkpt>
      <trkpt lat="46.00806" lon="1.32381">
        <ele>440.8</ele>
        <time>2022-06-12T08:31:47Z</time>
      </trkpt>
      <trkpt lat="46.00815" lon="1.32385">
        <ele>441.8</ele>
        <time>2022-06-12T08:31:53Z</time>
      </trkpt>
      <trkpt lat="46.00818" lon="1.32388">
        <ele>442</ele>
        <time>2022-06-12T08:31:55Z</time>
      </trkpt>
      <trkpt lat="46.00821" lon="1.32396">
        <ele>442.4</ele>
        <time>2022-06-12T08:31:59Z</time>
      </trkpt>
      <trkpt lat="46.00828" lon="1.3241">
        <ele>443.2</ele>
        <time>2022-06-12T08:32:06Z</time>
      </trkpt>
      <trkpt lat="46.00835" lon="1.32424">
        <ele>444</ele>
        <time>2022-06-12T08:32:13Z</time>
      </trkpt>
      <trkpt lat="46.00839" lon="1.32429">
        <ele>444.2</ele>
        <time>2022-06-12T08:32:16Z</time>
      </trkpt>
      <trkpt lat="46.00847" lon="1.32438">
        <ele>444.8</ele>
        <time>2022-06-12T08:32:22Z</time>
      </trkpt>
      <trkpt lat="46.00855" lon="1.32451">
        <ele>445.4</ele>
        <time>2022-06-12T08:32:29Z</time>
      </trkpt>
      <trkpt lat="46.00856" lon="1.32453">
        <ele>445.6</ele>
        <time>2022-06-12T08:32:30Z</time>
      </trkpt>
      <trkpt lat="46.00864" lon="1.32464">
        <ele>446.6</ele>
        <time>2022-06-12T08:32:36Z</time>
      </trkpt>
      <trkpt lat="46.00868" lon="1.3247">
        <ele>446.8</ele>
        <time>2022-06-12T08:32:39Z</time>
      </trkpt>
      <trkpt lat="46.00875" lon="1.32482">
        <ele>447.2</ele>
        <time>2022-06-12T08:32:44Z</time>
      </trkpt>
      <trkpt lat="46.00877" lon="1.32487">
        <ele>447.6</ele>
        <time>2022-06-12T08:32:46Z</time>
      </trkpt>
      <trkpt lat="46.00887" lon="1.32506">
        <ele>448.8</ele>
        <time>2022-06-12T08:32:54Z</time>
      </trkpt>
      <trkpt lat="46.00894" lon="1.32533">
        <ele>449.6</ele>
        <time>2022-06-12T08:33:02Z</time>
      </trkpt>
      <trkpt lat="46.00895" lon="1.3254">
        <ele>449.8</ele>
        <time>2022-06-12T08:33:04Z</time>
      </trkpt>
      <trkpt lat="46.00898" lon="1.32556">
        <ele>450.2</ele>
        <time>2022-06-12T08:33:08Z</time>
      </trkpt>
      <trkpt lat="46.00902" lon="1.32583">
        <ele>450.8</ele>
        <time>2022-06-12T08:33:14Z</time>
      </trkpt>
      <trkpt lat="46.00903" lon="1.32593">
        <ele>450.8</ele>
        <time>2022-06-12T08:33:16Z</time>
      </trkpt>
      <trkpt lat="46.0091" lon="1.32637">
        <ele>451.6</ele>
        <time>2022-06-12T08:33:24Z</time>
      </trkpt>
      <trkpt lat="46.00911" lon="1.32649">
        <ele>451.6</ele>
        <time>2022-06-12T08:33:26Z</time>
      </trkpt>
      <trkpt lat="46.00908" lon="1.32661">
        <ele>451.6</ele>
        <time>2022-06-12T08:33:28Z</time>
      </trkpt>
      <trkpt lat="46.00907" lon="1.32667">
        <ele>451.8</ele>
        <time>2022-06-12T08:33:29Z</time>
      </trkpt>
      <trkpt lat="46.00904" lon="1.32672">
        <ele>451.8</ele>
        <time>2022-06-12T08:33:30Z</time>
      </trkpt>
      <trkpt lat="46.00898" lon="1.32679">
        <ele>451.8</ele>
        <time>2022-06-12T08:33:32Z</time>
      </trkpt>
      <trkpt lat="46.00877" lon="1.32699">
        <ele>452.2</ele>
        <time>2022-06-12T08:33:39Z</time>
      </trkpt>
      <trkpt lat="46.00858" lon="1.32701">
        <ele>452.8</ele>
        <time>2022-06-12T08:33:45Z</time>
      </trkpt>
      <trkpt lat="46.00837" lon="1.32689">
        <ele>452.8</ele>
        <time>2022-06-12T08:33:51Z</time>
      </trkpt>
      <trkpt lat="46.0081" lon="1.32669">
        <ele>451.8</ele>
        <time>2022-06-12T08:33:58Z</time>
      </trkpt>
      <trkpt lat="46.00805" lon="1.32666">
        <ele>451.8</ele>
        <time>2022-06-12T08:33:59Z</time>
      </trkpt>
      <trkpt lat="46.00786" lon="1.32662">
        <ele>451.2</ele>
        <time>2022-06-12T08:34:03Z</time>
      </trkpt>
      <trkpt lat="46.00754" lon="1.32655">
        <ele>450.8</ele>
        <time>2022-06-12T08:34:09Z</time>
      </trkpt>
      <trkpt lat="46.00727" lon="1.3265">
        <ele>451.2</ele>
        <time>2022-06-12T08:34:15Z</time>
      </trkpt>
      <trkpt lat="46.00722" lon="1.32649">
        <ele>451.2</ele>
        <time>2022-06-12T08:34:16Z</time>
      </trkpt>
      <trkpt lat="46.00701" lon="1.32652">
        <ele>451</ele>
        <time>2022-06-12T08:34:21Z</time>
      </trkpt>
      <trkpt lat="46.00679" lon="1.32663">
        <ele>451.2</ele>
        <time>2022-06-12T08:34:26Z</time>
      </trkpt>
      <trkpt lat="46.00657" lon="1.32672">
        <ele>451</ele>
        <time>2022-06-12T08:34:31Z</time>
      </trkpt>
      <trkpt lat="46.00652" lon="1.32674">
        <ele>451</ele>
        <time>2022-06-12T08:34:32Z</time>
      </trkpt>
      <trkpt lat="46.0064" lon="1.32675">
        <ele>451</ele>
        <time>2022-06-12T08:34:34Z</time>
      </trkpt>
      <trkpt lat="46.00628" lon="1.32674">
        <ele>451</ele>
        <time>2022-06-12T08:34:36Z</time>
      </trkpt>
      <trkpt lat="46.00605" lon="1.32662">
        <ele>452</ele>
        <time>2022-06-12T08:34:41Z</time>
      </trkpt>
      <trkpt lat="46.00601" lon="1.32659">
        <ele>452</ele>
        <time>2022-06-12T08:34:42Z</time>
      </trkpt>
      <trkpt lat="46.00582" lon="1.3264">
        <ele>452</ele>
        <time>2022-06-12T08:34:48Z</time>
      </trkpt>
      <trkpt lat="46.00568" lon="1.32633">
        <ele>452.4</ele>
        <time>2022-06-12T08:34:53Z</time>
      </trkpt>
      <trkpt lat="46.0056" lon="1.32632">
        <ele>452.8</ele>
        <time>2022-06-12T08:34:56Z</time>
      </trkpt>
      <trkpt lat="46.00552" lon="1.32633">
        <ele>453.4</ele>
        <time>2022-06-12T08:34:59Z</time>
      </trkpt>
      <trkpt lat="46.00547" lon="1.32634">
        <ele>454</ele>
        <time>2022-06-12T08:35:02Z</time>
      </trkpt>
      <trkpt lat="46.0054" lon="1.32634">
        <ele>455.2</ele>
        <time>2022-06-12T08:35:06Z</time>
      </trkpt>
      <trkpt lat="46.00534" lon="1.32633">
        <ele>456.4</ele>
        <time>2022-06-12T08:35:10Z</time>
      </trkpt>
      <trkpt lat="46.00529" lon="1.32635">
        <ele>457</ele>
        <time>2022-06-12T08:35:12Z</time>
      </trkpt>
      <trkpt lat="46.00526" lon="1.32636">
        <ele>457.4</ele>
        <time>2022-06-12T08:35:14Z</time>
      </trkpt>
      <trkpt lat="46.00516" lon="1.32643">
        <ele>458.6</ele>
        <time>2022-06-12T08:35:19Z</time>
      </trkpt>
      <trkpt lat="46.00514" lon="1.32645">
        <ele>458.8</ele>
        <time>2022-06-12T08:35:20Z</time>
      </trkpt>
      <trkpt lat="46.00497" lon="1.32656">
        <ele>459.4</ele>
        <time>2022-06-12T08:35:29Z</time>
      </trkpt>
      <trkpt lat="46.00484" lon="1.32664">
        <ele>459.6</ele>
        <time>2022-06-12T08:35:35Z</time>
      </trkpt>
      <trkpt lat="46.00471" lon="1.32674">
        <ele>460.6</ele>
        <time>2022-06-12T08:35:43Z</time>
      </trkpt>
      <trkpt lat="46.00468" lon="1.32675">
        <ele>460.6</ele>
        <time>2022-06-12T08:35:45Z</time>
      </trkpt>
      <trkpt lat="46.00455" lon="1.32684">
        <ele>461.6</ele>
        <time>2022-06-12T08:35:50Z</time>
      </trkpt>
      <trkpt lat="46.00453" lon="1.32686">
        <ele>461.8</ele>
        <time>2022-06-12T08:35:51Z</time>
      </trkpt>
      <trkpt lat="46.00435" lon="1.32699">
        <ele>462</ele>
        <time>2022-06-12T08:35:57Z</time>
      </trkpt>
      <trkpt lat="46.00418" lon="1.32714">
        <ele>462.8</ele>
        <time>2022-06-12T08:36:04Z</time>
      </trkpt>
      <trkpt lat="46.00406" lon="1.32726">
        <ele>463.2</ele>
        <time>2022-06-12T08:36:10Z</time>
      </trkpt>
      <trkpt lat="46.00396" lon="1.32737">
        <ele>463.8</ele>
        <time>2022-06-12T08:36:15Z</time>
      </trkpt>
      <trkpt lat="46.00391" lon="1.32741">
        <ele>464</ele>
        <time>2022-06-12T08:36:17Z</time>
      </trkpt>
      <trkpt lat="46.00375" lon="1.32754">
        <ele>465</ele>
        <time>2022-06-12T08:36:23Z</time>
      </trkpt>
      <trkpt lat="46.0037" lon="1.32758">
        <ele>465.4</ele>
        <time>2022-06-12T08:36:25Z</time>
      </trkpt>
      <trkpt lat="46.00358" lon="1.32763">
        <ele>466</ele>
        <time>2022-06-12T08:36:30Z</time>
      </trkpt>
      <trkpt lat="46.00354" lon="1.32763">
        <ele>466.6</ele>
        <time>2022-06-12T08:36:32Z</time>
      </trkpt>
      <trkpt lat="46.00348" lon="1.32761">
        <ele>467</ele>
        <time>2022-06-12T08:36:35Z</time>
      </trkpt>
      <trkpt lat="46.00343" lon="1.32757">
        <ele>467.4</ele>
        <time>2022-06-12T08:36:38Z</time>
      </trkpt>
      <trkpt lat="46.00333" lon="1.32747">
        <ele>468</ele>
        <time>2022-06-12T08:36:44Z</time>
      </trkpt>
      <trkpt lat="46.00332" lon="1.32745">
        <ele>468</ele>
        <time>2022-06-12T08:36:45Z</time>
      </trkpt>
      <trkpt lat="46.00324" lon="1.32733">
        <ele>468.4</ele>
        <time>2022-06-12T08:36:50Z</time>
      </trkpt>
      <trkpt lat="46.00316" lon="1.32718">
        <ele>468.8</ele>
        <time>2022-06-12T08:36:55Z</time>
      </trkpt>
      <trkpt lat="46.00314" lon="1.32714">
        <ele>469</ele>
        <time>2022-06-12T08:36:56Z</time>
      </trkpt>
      <trkpt lat="46.00303" lon="1.32705">
        <ele>469.8</ele>
        <time>2022-06-12T08:37:01Z</time>
      </trkpt>
      <trkpt lat="46.00285" lon="1.32699">
        <ele>469.8</ele>
        <time>2022-06-12T08:37:07Z</time>
      </trkpt>
      <trkpt lat="46.00276" lon="1.32697">
        <ele>470</ele>
        <time>2022-06-12T08:37:10Z</time>
      </trkpt>
      <trkpt lat="46.00267" lon="1.3269">
        <ele>470.6</ele>
        <time>2022-06-12T08:37:13Z</time>
      </trkpt>
      <trkpt lat="46.00249" lon="1.32679">
        <ele>471</ele>
        <time>2022-06-12T08:37:19Z</time>
      </trkpt>
      <trkpt lat="46.00238" lon="1.32669">
        <ele>471.2</ele>
        <time>2022-06-12T08:37:24Z</time>
      </trkpt>
      <trkpt lat="46.00225" lon="1.32648">
        <ele>470.8</ele>
        <time>2022-06-12T08:37:30Z</time>
      </trkpt>
      <trkpt lat="46.00213" lon="1.32622">
        <ele>470.4</ele>
        <time>2022-06-12T08:37:36Z</time>
      </trkpt>
      <trkpt lat="46.00209" lon="1.32612">
        <ele>470.2</ele>
        <time>2022-06-12T08:37:38Z</time>
      </trkpt>
      <trkpt lat="46.00208" lon="1.32608">
        <ele>470</ele>
        <time>2022-06-12T08:37:39Z</time>
      </trkpt>
      <trkpt lat="46.00206" lon="1.32602">
        <ele>469.6</ele>
        <time>2022-06-12T08:37:40Z</time>
      </trkpt>
      <trkpt lat="46.00202" lon="1.32589">
        <ele>468.8</ele>
        <time>2022-06-12T08:37:42Z</time>
      </trkpt>
      <trkpt lat="46.002" lon="1.32583">
        <ele>468.4</ele>
        <time>2022-06-12T08:37:43Z</time>
      </trkpt>
      <trkpt lat="46.00195" lon="1.32572">
        <ele>468.2</ele>
        <time>2022-06-12T08:37:45Z</time>
      </trkpt>
      <trkpt lat="46.00184" lon="1.32555">
        <ele>467.4</ele>
        <time>2022-06-12T08:37:48Z</time>
      </trkpt>
      <trkpt lat="46.0018" lon="1.32549">
        <ele>466.8</ele>
        <time>2022-06-12T08:37:49Z</time>
      </trkpt>
      <trkpt lat="46.0018" lon="1.32549">
        <ele>464.4</ele>
        <time>2022-06-12T08:37:50Z</time>
      </trkpt>
      <trkpt lat="46.00163" lon="1.32531">
        <ele>463.6</ele>
        <time>2022-06-12T08:37:53Z</time>
      </trkpt>
      <trkpt lat="46.0016" lon="1.32524">
        <ele>463.4</ele>
        <time>2022-06-12T08:37:54Z</time>
      </trkpt>
      <trkpt lat="46.00159" lon="1.32517">
        <ele>463.2</ele>
        <time>2022-06-12T08:37:55Z</time>
      </trkpt>
      <trkpt lat="46.00159" lon="1.32502">
        <ele>462.6</ele>
        <time>2022-06-12T08:37:57Z</time>
      </trkpt>
      <trkpt lat="46.0016" lon="1.32493">
        <ele>462.2</ele>
        <time>2022-06-12T08:37:58Z</time>
      </trkpt>
      <trkpt lat="46.0016" lon="1.32485">
        <ele>461.8</ele>
        <time>2022-06-12T08:37:59Z</time>
      </trkpt>
      <trkpt lat="46.00164" lon="1.32473">
        <ele>461.2</ele>
        <time>2022-06-12T08:38:01Z</time>
      </trkpt>
      <trkpt lat="46.00166" lon="1.32467">
        <ele>461.2</ele>
        <time>2022-06-12T08:38:02Z</time>
      </trkpt>
      <trkpt lat="46.00168" lon="1.32462">
        <ele>461.2</ele>
        <time>2022-06-12T08:38:03Z</time>
      </trkpt>
      <trkpt lat="46.00172" lon="1.3245">
        <ele>461.2</ele>
        <time>2022-06-12T08:38:05Z</time>
      </trkpt>
      <trkpt lat="46.00179" lon="1.32434">
        <ele>461.2</ele>
        <time>2022-06-12T08:38:08Z</time>
      </trkpt>
      <trkpt lat="46.00184" lon="1.32415">
        <ele>460.8</ele>
        <time>2022-06-12T08:38:11Z</time>
      </trkpt>
      <trkpt lat="46.00193" lon="1.32387">
        <ele>460</ele>
        <time>2022-06-12T08:38:15Z</time>
      </trkpt>
      <trkpt lat="46.002" lon="1.32371">
        <ele>459.6</ele>
        <time>2022-06-12T08:38:17Z</time>
      </trkpt>
      <trkpt lat="46.00208" lon="1.32355">
        <ele>459.2</ele>
        <time>2022-06-12T08:38:19Z</time>
      </trkpt>
      <trkpt lat="46.00211" lon="1.32346">
        <ele>459.2</ele>
        <time>2022-06-12T08:38:20Z</time>
      </trkpt>
      <trkpt lat="46.00218" lon="1.32329">
        <ele>458.4</ele>
        <time>2022-06-12T08:38:22Z</time>
      </trkpt>
      <trkpt lat="46.00223" lon="1.32306">
        <ele>457.2</ele>
        <time>2022-06-12T08:38:25Z</time>
      </trkpt>
      <trkpt lat="46.00222" lon="1.32278">
        <ele>456</ele>
        <time>2022-06-12T08:38:28Z</time>
      </trkpt>
      <trkpt lat="46.00222" lon="1.32268">
        <ele>455.8</ele>
        <time>2022-06-12T08:38:29Z</time>
      </trkpt>
      <trkpt lat="46.00223" lon="1.3225">
        <ele>455.4</ele>
        <time>2022-06-12T08:38:31Z</time>
      </trkpt>
      <trkpt lat="46.00225" lon="1.3223">
        <ele>454.8</ele>
        <time>2022-06-12T08:38:33Z</time>
      </trkpt>
      <trkpt lat="46.00226" lon="1.32221">
        <ele>454.2</ele>
        <time>2022-06-12T08:38:34Z</time>
      </trkpt>
      <trkpt lat="46.00227" lon="1.32212">
        <ele>453.8</ele>
        <time>2022-06-12T08:38:35Z</time>
      </trkpt>
      <trkpt lat="46.00228" lon="1.32203">
        <ele>453.6</ele>
        <time>2022-06-12T08:38:36Z</time>
      </trkpt>
      <trkpt lat="46.0023" lon="1.32179">
        <ele>453.4</ele>
        <time>2022-06-12T08:38:39Z</time>
      </trkpt>
      <trkpt lat="46.00231" lon="1.32166">
        <ele>453.4</ele>
        <time>2022-06-12T08:38:41Z</time>
      </trkpt>
      <trkpt lat="46.00231" lon="1.32155">
        <ele>453.4</ele>
        <time>2022-06-12T08:38:43Z</time>
      </trkpt>
      <trkpt lat="46.0023" lon="1.3215">
        <ele>453.4</ele>
        <time>2022-06-12T08:38:44Z</time>
      </trkpt>
      <trkpt lat="46.00229" lon="1.32145">
        <ele>453.4</ele>
        <time>2022-06-12T08:38:45Z</time>
      </trkpt>
      <trkpt lat="46.00224" lon="1.32123">
        <ele>453.6</ele>
        <time>2022-06-12T08:38:49Z</time>
      </trkpt>
      <trkpt lat="46.00216" lon="1.32108">
        <ele>454.8</ele>
        <time>2022-06-12T08:38:53Z</time>
      </trkpt>
      <trkpt lat="46.00214" lon="1.32104">
        <ele>455.2</ele>
        <time>2022-06-12T08:38:54Z</time>
      </trkpt>
      <trkpt lat="46.00198" lon="1.32069">
        <ele>455.6</ele>
        <time>2022-06-12T08:39:00Z</time>
      </trkpt>
      <trkpt lat="46.00176" lon="1.32034">
        <ele>455.8</ele>
        <time>2022-06-12T08:39:07Z</time>
      </trkpt>
      <trkpt lat="46.00173" lon="1.32032">
        <ele>456</ele>
        <time>2022-06-12T08:39:08Z</time>
      </trkpt>
      <trkpt lat="46.00157" lon="1.32026">
        <ele>456.4</ele>
        <time>2022-06-12T08:39:12Z</time>
      </trkpt>
      <trkpt lat="46.00139" lon="1.32027">
        <ele>456.4</ele>
        <time>2022-06-12T08:39:16Z</time>
      </trkpt>
      <trkpt lat="46.00135" lon="1.32029">
        <ele>456.4</ele>
        <time>2022-06-12T08:39:17Z</time>
      </trkpt>
      <trkpt lat="46.00123" lon="1.32037">
        <ele>455.4</ele>
        <time>2022-06-12T08:39:20Z</time>
      </trkpt>
      <trkpt lat="46.00119" lon="1.32039">
        <ele>455</ele>
        <time>2022-06-12T08:39:21Z</time>
      </trkpt>
      <trkpt lat="46.00107" lon="1.32045">
        <ele>454</ele>
        <time>2022-06-12T08:39:24Z</time>
      </trkpt>
      <trkpt lat="46.00102" lon="1.32046">
        <ele>453.8</ele>
        <time>2022-06-12T08:39:25Z</time>
      </trkpt>
      <trkpt lat="46.00089" lon="1.32053">
        <ele>453.2</ele>
        <time>2022-06-12T08:39:28Z</time>
      </trkpt>
      <trkpt lat="46.00079" lon="1.32055">
        <ele>452.8</ele>
        <time>2022-06-12T08:39:30Z</time>
      </trkpt>
      <trkpt lat="46.00074" lon="1.32055">
        <ele>452.2</ele>
        <time>2022-06-12T08:39:31Z</time>
      </trkpt>
      <trkpt lat="46.0007" lon="1.32057">
        <ele>451.8</ele>
        <time>2022-06-12T08:39:32Z</time>
      </trkpt>
      <trkpt lat="46.00054" lon="1.32066">
        <ele>450.6</ele>
        <time>2022-06-12T08:39:35Z</time>
      </trkpt>
      <trkpt lat="46.00042" lon="1.32074">
        <ele>450</ele>
        <time>2022-06-12T08:39:37Z</time>
      </trkpt>
      <trkpt lat="46.00032" lon="1.32084">
        <ele>449.6</ele>
        <time>2022-06-12T08:39:39Z</time>
      </trkpt>
      <trkpt lat="46.00027" lon="1.32088">
        <ele>448.8</ele>
        <time>2022-06-12T08:39:40Z</time>
      </trkpt>
      <trkpt lat="46.00022" lon="1.3209">
        <ele>447.8</ele>
        <time>2022-06-12T08:39:41Z</time>
      </trkpt>
      <trkpt lat="46.00017" lon="1.32091">
        <ele>446.6</ele>
        <time>2022-06-12T08:39:42Z</time>
      </trkpt>
      <trkpt lat="46.00011" lon="1.32091">
        <ele>446</ele>
        <time>2022-06-12T08:39:43Z</time>
      </trkpt>
      <trkpt lat="46.00006" lon="1.3209">
        <ele>445.6</ele>
        <time>2022-06-12T08:39:44Z</time>
      </trkpt>
      <trkpt lat="45.99995" lon="1.3209">
        <ele>444.6</ele>
        <time>2022-06-12T08:39:46Z</time>
      </trkpt>
      <trkpt lat="45.99988" lon="1.3209">
        <ele>444.2</ele>
        <time>2022-06-12T08:39:47Z</time>
      </trkpt>
      <trkpt lat="45.99981" lon="1.32091">
        <ele>443.2</ele>
        <time>2022-06-12T08:39:48Z</time>
      </trkpt>
      <trkpt lat="45.99973" lon="1.32093">
        <ele>442.4</ele>
        <time>2022-06-12T08:39:49Z</time>
      </trkpt>
      <trkpt lat="45.99959" lon="1.32097">
        <ele>441.2</ele>
        <time>2022-06-12T08:39:51Z</time>
      </trkpt>
      <trkpt lat="45.99952" lon="1.32098">
        <ele>441</ele>
        <time>2022-06-12T08:39:52Z</time>
      </trkpt>
      <trkpt lat="45.99945" lon="1.32099">
        <ele>439.8</ele>
        <time>2022-06-12T08:39:53Z</time>
      </trkpt>
      <trkpt lat="45.9994" lon="1.32098">
        <ele>439.8</ele>
        <time>2022-06-12T08:39:54Z</time>
      </trkpt>
      <trkpt lat="45.99931" lon="1.32096">
        <ele>438.4</ele>
        <time>2022-06-12T08:39:56Z</time>
      </trkpt>
      <trkpt lat="45.99928" lon="1.32093">
        <ele>437.6</ele>
        <time>2022-06-12T08:39:57Z</time>
      </trkpt>
      <trkpt lat="45.99926" lon="1.3209">
        <ele>437</ele>
        <time>2022-06-12T08:39:58Z</time>
      </trkpt>
      <trkpt lat="45.99924" lon="1.32083">
        <ele>435.8</ele>
        <time>2022-06-12T08:40:00Z</time>
      </trkpt>
      <trkpt lat="45.99923" lon="1.32079">
        <ele>435.6</ele>
        <time>2022-06-12T08:40:01Z</time>
      </trkpt>
      <trkpt lat="45.99921" lon="1.32068">
        <ele>434.8</ele>
        <time>2022-06-12T08:40:03Z</time>
      </trkpt>
      <trkpt lat="45.99919" lon="1.32063">
        <ele>434.4</ele>
        <time>2022-06-12T08:40:04Z</time>
      </trkpt>
      <trkpt lat="45.99913" lon="1.32053">
        <ele>433.2</ele>
        <time>2022-06-12T08:40:06Z</time>
      </trkpt>
      <trkpt lat="45.99903" lon="1.32037">
        <ele>432.2</ele>
        <time>2022-06-12T08:40:09Z</time>
      </trkpt>
      <trkpt lat="45.99896" lon="1.32023">
        <ele>431.4</ele>
        <time>2022-06-12T08:40:11Z</time>
      </trkpt>
      <trkpt lat="45.9989" lon="1.32017">
        <ele>431</ele>
        <time>2022-06-12T08:40:12Z</time>
      </trkpt>
      <trkpt lat="45.99876" lon="1.31997">
        <ele>430.2</ele>
        <time>2022-06-12T08:40:15Z</time>
      </trkpt>
      <trkpt lat="45.99872" lon="1.31989">
        <ele>430</ele>
        <time>2022-06-12T08:40:16Z</time>
      </trkpt>
      <trkpt lat="45.9987" lon="1.31981">
        <ele>429.6</ele>
        <time>2022-06-12T08:40:17Z</time>
      </trkpt>
      <trkpt lat="45.99868" lon="1.31964">
        <ele>428.8</ele>
        <time>2022-06-12T08:40:19Z</time>
      </trkpt>
      <trkpt lat="45.99864" lon="1.31928">
        <ele>427.8</ele>
        <time>2022-06-12T08:40:23Z</time>
      </trkpt>
      <trkpt lat="45.99862" lon="1.31902">
        <ele>427.2</ele>
        <time>2022-06-12T08:40:26Z</time>
      </trkpt>
      <trkpt lat="45.99861" lon="1.31886">
        <ele>426</ele>
        <time>2022-06-12T08:40:28Z</time>
      </trkpt>
      <trkpt lat="45.99857" lon="1.31876">
        <ele>425</ele>
        <time>2022-06-12T08:40:30Z</time>
      </trkpt>
      <trkpt lat="45.99852" lon="1.31869">
        <ele>424</ele>
        <time>2022-06-12T08:40:32Z</time>
      </trkpt>
      <trkpt lat="45.99848" lon="1.31865">
        <ele>423.8</ele>
        <time>2022-06-12T08:40:33Z</time>
      </trkpt>
      <trkpt lat="45.99844" lon="1.31862">
        <ele>423.4</ele>
        <time>2022-06-12T08:40:34Z</time>
      </trkpt>
      <trkpt lat="45.99837" lon="1.31854">
        <ele>422.8</ele>
        <time>2022-06-12T08:40:36Z</time>
      </trkpt>
      <trkpt lat="45.99829" lon="1.31844">
        <ele>422.6</ele>
        <time>2022-06-12T08:40:38Z</time>
      </trkpt>
      <trkpt lat="45.99824" lon="1.3184">
        <ele>422.4</ele>
        <time>2022-06-12T08:40:39Z</time>
      </trkpt>
      <trkpt lat="45.99814" lon="1.31835">
        <ele>421.6</ele>
        <time>2022-06-12T08:40:41Z</time>
      </trkpt>
      <trkpt lat="45.99804" lon="1.31832">
        <ele>420.6</ele>
        <time>2022-06-12T08:40:43Z</time>
      </trkpt>
      <trkpt lat="45.99799" lon="1.31832">
        <ele>420.4</ele>
        <time>2022-06-12T08:40:44Z</time>
      </trkpt>
      <trkpt lat="45.9979" lon="1.3183">
        <ele>419.4</ele>
        <time>2022-06-12T08:40:46Z</time>
      </trkpt>
      <trkpt lat="45.99776" lon="1.31823">
        <ele>418.8</ele>
        <time>2022-06-12T08:40:49Z</time>
      </trkpt>
      <trkpt lat="45.99766" lon="1.31817">
        <ele>418</ele>
        <time>2022-06-12T08:40:51Z</time>
      </trkpt>
      <trkpt lat="45.99756" lon="1.31819">
        <ele>417.6</ele>
        <time>2022-06-12T08:40:53Z</time>
      </trkpt>
      <trkpt lat="45.99742" lon="1.31831">
        <ele>417.2</ele>
        <time>2022-06-12T08:40:58Z</time>
      </trkpt>
      <trkpt lat="45.99737" lon="1.31844">
        <ele>416.8</ele>
        <time>2022-06-12T08:41:01Z</time>
      </trkpt>
      <trkpt lat="45.99733" lon="1.31857">
        <ele>416.6</ele>
        <time>2022-06-12T08:41:04Z</time>
      </trkpt>
      <trkpt lat="45.99726" lon="1.31871">
        <ele>416.2</ele>
        <time>2022-06-12T08:41:07Z</time>
      </trkpt>
      <trkpt lat="45.99723" lon="1.31873">
        <ele>416.2</ele>
        <time>2022-06-12T08:41:08Z</time>
      </trkpt>
      <trkpt lat="45.99719" lon="1.31874">
        <ele>416</ele>
        <time>2022-06-12T08:41:09Z</time>
      </trkpt>
      <trkpt lat="45.99716" lon="1.31871">
        <ele>415.8</ele>
        <time>2022-06-12T08:41:10Z</time>
      </trkpt>
      <trkpt lat="45.99708" lon="1.31867">
        <ele>415.2</ele>
        <time>2022-06-12T08:41:12Z</time>
      </trkpt>
      <trkpt lat="45.99696" lon="1.31864">
        <ele>414.8</ele>
        <time>2022-06-12T08:41:15Z</time>
      </trkpt>
      <trkpt lat="45.99686" lon="1.31862">
        <ele>414.2</ele>
        <time>2022-06-12T08:41:18Z</time>
      </trkpt>
      <trkpt lat="45.99668" lon="1.31865">
        <ele>413.8</ele>
        <time>2022-06-12T08:41:23Z</time>
      </trkpt>
      <trkpt lat="45.99664" lon="1.31865">
        <ele>413.6</ele>
        <time>2022-06-12T08:41:24Z</time>
      </trkpt>
      <trkpt lat="45.99643" lon="1.31866">
        <ele>413</ele>
        <time>2022-06-12T08:41:28Z</time>
      </trkpt>
      <trkpt lat="45.99632" lon="1.31857">
        <ele>412.8</ele>
        <time>2022-06-12T08:41:30Z</time>
      </trkpt>
      <trkpt lat="45.99628" lon="1.31851">
        <ele>412.4</ele>
        <time>2022-06-12T08:41:31Z</time>
      </trkpt>
      <trkpt lat="45.99618" lon="1.31834">
        <ele>411</ele>
        <time>2022-06-12T08:41:34Z</time>
      </trkpt>
      <trkpt lat="45.99615" lon="1.31828">
        <ele>410.6</ele>
        <time>2022-06-12T08:41:35Z</time>
      </trkpt>
      <trkpt lat="45.9961" lon="1.31823">
        <ele>410.2</ele>
        <time>2022-06-12T08:41:36Z</time>
      </trkpt>
      <trkpt lat="45.99604" lon="1.3182">
        <ele>410</ele>
        <time>2022-06-12T08:41:37Z</time>
      </trkpt>
      <trkpt lat="45.9959" lon="1.31816">
        <ele>409.2</ele>
        <time>2022-06-12T08:41:39Z</time>
      </trkpt>
      <trkpt lat="45.99581" lon="1.31813">
        <ele>408.8</ele>
        <time>2022-06-12T08:41:40Z</time>
      </trkpt>
      <trkpt lat="45.99554" lon="1.31803">
        <ele>407.2</ele>
        <time>2022-06-12T08:41:43Z</time>
      </trkpt>
      <trkpt lat="45.99538" lon="1.31798">
        <ele>406.2</ele>
        <time>2022-06-12T08:41:45Z</time>
      </trkpt>
      <trkpt lat="45.99531" lon="1.318">
        <ele>405.8</ele>
        <time>2022-06-12T08:41:46Z</time>
      </trkpt>
      <trkpt lat="45.99526" lon="1.31805">
        <ele>405.6</ele>
        <time>2022-06-12T08:41:47Z</time>
      </trkpt>
      <trkpt lat="45.99523" lon="1.3181">
        <ele>406.2</ele>
        <time>2022-06-12T08:41:48Z</time>
      </trkpt>
      <trkpt lat="45.99519" lon="1.31816">
        <ele>406.6</ele>
        <time>2022-06-12T08:41:50Z</time>
      </trkpt>
      <trkpt lat="45.99511" lon="1.31826">
        <ele>407.2</ele>
        <time>2022-06-12T08:41:54Z</time>
      </trkpt>
      <trkpt lat="45.99499" lon="1.31832">
        <ele>408.6</ele>
        <time>2022-06-12T08:41:58Z</time>
      </trkpt>
      <trkpt lat="45.99495" lon="1.31832">
        <ele>409</ele>
        <time>2022-06-12T08:41:59Z</time>
      </trkpt>
      <trkpt lat="45.9949" lon="1.31831">
        <ele>409.8</ele>
        <time>2022-06-12T08:42:01Z</time>
      </trkpt>
      <trkpt lat="45.99483" lon="1.31827">
        <ele>410.6</ele>
        <time>2022-06-12T08:42:04Z</time>
      </trkpt>
      <trkpt lat="45.99481" lon="1.31825">
        <ele>410.8</ele>
        <time>2022-06-12T08:42:05Z</time>
      </trkpt>
      <trkpt lat="45.99473" lon="1.31818">
        <ele>412</ele>
        <time>2022-06-12T08:42:09Z</time>
      </trkpt>
      <trkpt lat="45.99471" lon="1.31817">
        <ele>412.4</ele>
        <time>2022-06-12T08:42:10Z</time>
      </trkpt>
      <trkpt lat="45.99464" lon="1.3181">
        <ele>413.2</ele>
        <time>2022-06-12T08:42:14Z</time>
      </trkpt>
      <trkpt lat="45.99459" lon="1.31802">
        <ele>414.4</ele>
        <time>2022-06-12T08:42:18Z</time>
      </trkpt>
      <trkpt lat="45.99454" lon="1.31793">
        <ele>415.8</ele>
        <time>2022-06-12T08:42:23Z</time>
      </trkpt>
      <trkpt lat="45.99451" lon="1.31787">
        <ele>416.6</ele>
        <time>2022-06-12T08:42:26Z</time>
      </trkpt>
      <trkpt lat="45.9945" lon="1.31783">
        <ele>417</ele>
        <time>2022-06-12T08:42:28Z</time>
      </trkpt>
      <trkpt lat="45.9945" lon="1.31781">
        <ele>417.2</ele>
        <time>2022-06-12T08:42:29Z</time>
      </trkpt>
      <trkpt lat="45.99446" lon="1.31772">
        <ele>418</ele>
        <time>2022-06-12T08:42:33Z</time>
      </trkpt>
      <trkpt lat="45.99445" lon="1.3177">
        <ele>418.2</ele>
        <time>2022-06-12T08:42:34Z</time>
      </trkpt>
      <trkpt lat="45.99441" lon="1.31755">
        <ele>419.2</ele>
        <time>2022-06-12T08:42:40Z</time>
      </trkpt>
      <trkpt lat="45.99442" lon="1.31753">
        <ele>419.4</ele>
        <time>2022-06-12T08:42:41Z</time>
      </trkpt>
      <trkpt lat="45.99447" lon="1.31737">
        <ele>420</ele>
        <time>2022-06-12T08:42:47Z</time>
      </trkpt>
      <trkpt lat="45.99449" lon="1.31735">
        <ele>420.2</ele>
        <time>2022-06-12T08:42:48Z</time>
      </trkpt>
      <trkpt lat="45.99463" lon="1.31716">
        <ele>420.2</ele>
        <time>2022-06-12T08:42:54Z</time>
      </trkpt>
      <trkpt lat="45.99475" lon="1.31684">
        <ele>419.4</ele>
        <time>2022-06-12T08:42:59Z</time>
      </trkpt>
      <trkpt lat="45.99477" lon="1.31676">
        <ele>418.8</ele>
        <time>2022-06-12T08:43:00Z</time>
      </trkpt>
      <trkpt lat="45.99481" lon="1.31657">
        <ele>417.2</ele>
        <time>2022-06-12T08:43:02Z</time>
      </trkpt>
      <trkpt lat="45.99485" lon="1.31635">
        <ele>416.2</ele>
        <time>2022-06-12T08:43:04Z</time>
      </trkpt>
      <trkpt lat="45.99489" lon="1.31612">
        <ele>414.8</ele>
        <time>2022-06-12T08:43:06Z</time>
      </trkpt>
      <trkpt lat="45.99494" lon="1.31585">
        <ele>413.4</ele>
        <time>2022-06-12T08:43:08Z</time>
      </trkpt>
      <trkpt lat="45.99497" lon="1.31571">
        <ele>412.2</ele>
        <time>2022-06-12T08:43:09Z</time>
      </trkpt>
      <trkpt lat="45.99504" lon="1.31541">
        <ele>411.2</ele>
        <time>2022-06-12T08:43:11Z</time>
      </trkpt>
      <trkpt lat="45.99512" lon="1.31519">
        <ele>410</ele>
        <time>2022-06-12T08:43:13Z</time>
      </trkpt>
      <trkpt lat="45.99522" lon="1.31504">
        <ele>408</ele>
        <time>2022-06-12T08:43:15Z</time>
      </trkpt>
      <trkpt lat="45.99527" lon="1.31499">
        <ele>407.4</ele>
        <time>2022-06-12T08:43:16Z</time>
      </trkpt>
      <trkpt lat="45.99531" lon="1.31495">
        <ele>407</ele>
        <time>2022-06-12T08:43:17Z</time>
      </trkpt>
      <trkpt lat="45.99546" lon="1.31481">
        <ele>406.4</ele>
        <time>2022-06-12T08:43:21Z</time>
      </trkpt>
      <trkpt lat="45.99569" lon="1.31453">
        <ele>407.8</ele>
        <time>2022-06-12T08:43:27Z</time>
      </trkpt>
      <trkpt lat="45.99573" lon="1.3145">
        <ele>408</ele>
        <time>2022-06-12T08:43:28Z</time>
      </trkpt>
      <trkpt lat="45.99592" lon="1.31426">
        <ele>408.6</ele>
        <time>2022-06-12T08:43:34Z</time>
      </trkpt>
      <trkpt lat="45.99601" lon="1.31415">
        <ele>409.2</ele>
        <time>2022-06-12T08:43:37Z</time>
      </trkpt>
      <trkpt lat="45.99609" lon="1.31407">
        <ele>409.2</ele>
        <time>2022-06-12T08:43:39Z</time>
      </trkpt>
      <trkpt lat="45.99616" lon="1.31401">
        <ele>409.4</ele>
        <time>2022-06-12T08:43:41Z</time>
      </trkpt>
      <trkpt lat="45.9963" lon="1.31389">
        <ele>409.4</ele>
        <time>2022-06-12T08:43:45Z</time>
      </trkpt>
      <trkpt lat="45.99633" lon="1.31386">
        <ele>409.4</ele>
        <time>2022-06-12T08:43:46Z</time>
      </trkpt>
      <trkpt lat="45.99642" lon="1.31375">
        <ele>409.6</ele>
        <time>2022-06-12T08:43:49Z</time>
      </trkpt>
      <trkpt lat="45.99655" lon="1.31363">
        <ele>410</ele>
        <time>2022-06-12T08:43:53Z</time>
      </trkpt>
      <trkpt lat="45.9966" lon="1.31356">
        <ele>410.2</ele>
        <time>2022-06-12T08:43:55Z</time>
      </trkpt>
      <trkpt lat="45.99668" lon="1.31341">
        <ele>410.6</ele>
        <time>2022-06-12T08:43:59Z</time>
      </trkpt>
      <trkpt lat="45.99677" lon="1.3132">
        <ele>411.4</ele>
        <time>2022-06-12T08:44:04Z</time>
      </trkpt>
      <trkpt lat="45.99681" lon="1.31313">
        <ele>412</ele>
        <time>2022-06-12T08:44:06Z</time>
      </trkpt>
      <trkpt lat="45.99684" lon="1.31301">
        <ele>412.4</ele>
        <time>2022-06-12T08:44:09Z</time>
      </trkpt>
      <trkpt lat="45.99689" lon="1.31288">
        <ele>412.8</ele>
        <time>2022-06-12T08:44:13Z</time>
      </trkpt>
      <trkpt lat="45.99695" lon="1.31275">
        <ele>413.4</ele>
        <time>2022-06-12T08:44:17Z</time>
      </trkpt>
      <trkpt lat="45.99696" lon="1.3127">
        <ele>413.8</ele>
        <time>2022-06-12T08:44:19Z</time>
      </trkpt>
      <trkpt lat="45.99698" lon="1.31254">
        <ele>414.6</ele>
        <time>2022-06-12T08:44:24Z</time>
      </trkpt>
      <trkpt lat="45.99698" lon="1.31248">
        <ele>414.8</ele>
        <time>2022-06-12T08:44:26Z</time>
      </trkpt>
      <trkpt lat="45.99696" lon="1.31232">
        <ele>415.8</ele>
        <time>2022-06-12T08:44:32Z</time>
      </trkpt>
      <trkpt lat="45.99696" lon="1.31229">
        <ele>416</ele>
        <time>2022-06-12T08:44:33Z</time>
      </trkpt>
      <trkpt lat="45.99694" lon="1.31217">
        <ele>417</ele>
        <time>2022-06-12T08:44:37Z</time>
      </trkpt>
      <trkpt lat="45.99695" lon="1.31209">
        <ele>417.4</ele>
        <time>2022-06-12T08:44:40Z</time>
      </trkpt>
      <trkpt lat="45.99695" lon="1.31193">
        <ele>418</ele>
        <time>2022-06-12T08:44:46Z</time>
      </trkpt>
      <trkpt lat="45.99694" lon="1.31188">
        <ele>418.2</ele>
        <time>2022-06-12T08:44:48Z</time>
      </trkpt>
      <trkpt lat="45.99691" lon="1.31176">
        <ele>419.2</ele>
        <time>2022-06-12T08:44:52Z</time>
      </trkpt>
      <trkpt lat="45.99689" lon="1.31169">
        <ele>419.6</ele>
        <time>2022-06-12T08:44:55Z</time>
      </trkpt>
      <trkpt lat="45.99684" lon="1.3116">
        <ele>420.2</ele>
        <time>2022-06-12T08:44:59Z</time>
      </trkpt>
      <trkpt lat="45.99681" lon="1.31158">
        <ele>420.2</ele>
        <time>2022-06-12T08:45:00Z</time>
      </trkpt>
      <trkpt lat="45.99677" lon="1.31155">
        <ele>420.4</ele>
        <time>2022-06-12T08:45:02Z</time>
      </trkpt>
      <trkpt lat="45.99666" lon="1.31145">
        <ele>421.2</ele>
        <time>2022-06-12T08:45:09Z</time>
      </trkpt>
      <trkpt lat="45.99664" lon="1.31144">
        <ele>421.2</ele>
        <time>2022-06-12T08:45:10Z</time>
      </trkpt>
      <trkpt lat="45.99652" lon="1.31139">
        <ele>422.4</ele>
        <time>2022-06-12T08:45:16Z</time>
      </trkpt>
      <trkpt lat="45.99643" lon="1.31147">
        <ele>422.8</ele>
        <time>2022-06-12T08:45:22Z</time>
      </trkpt>
      <trkpt lat="45.99644" lon="1.31159">
        <ele>423.4</ele>
        <time>2022-06-12T08:45:28Z</time>
      </trkpt>
      <trkpt lat="45.99648" lon="1.31175">
        <ele>424.4</ele>
        <time>2022-06-12T08:45:35Z</time>
      </trkpt>
      <trkpt lat="45.99648" lon="1.31178">
        <ele>424.6</ele>
        <time>2022-06-12T08:45:36Z</time>
      </trkpt>
      <trkpt lat="45.99647" lon="1.31196">
        <ele>424.8</ele>
        <time>2022-06-12T08:45:42Z</time>
      </trkpt>
      <trkpt lat="45.99639" lon="1.3121">
        <ele>425.2</ele>
        <time>2022-06-12T08:45:48Z</time>
      </trkpt>
      <trkpt lat="45.99632" lon="1.31219">
        <ele>425.6</ele>
        <time>2022-06-12T08:45:52Z</time>
      </trkpt>
      <trkpt lat="45.99627" lon="1.31223">
        <ele>425.8</ele>
        <time>2022-06-12T08:45:54Z</time>
      </trkpt>
      <trkpt lat="45.99617" lon="1.31228">
        <ele>426.8</ele>
        <time>2022-06-12T08:45:59Z</time>
      </trkpt>
      <trkpt lat="45.99607" lon="1.31232">
        <ele>427.4</ele>
        <time>2022-06-12T08:46:03Z</time>
      </trkpt>
      <trkpt lat="45.99603" lon="1.31233">
        <ele>427.8</ele>
        <time>2022-06-12T08:46:05Z</time>
      </trkpt>
      <trkpt lat="45.99588" lon="1.31233">
        <ele>428.6</ele>
        <time>2022-06-12T08:46:11Z</time>
      </trkpt>
      <trkpt lat="45.99584" lon="1.31231">
        <ele>429</ele>
        <time>2022-06-12T08:46:13Z</time>
      </trkpt>
      <trkpt lat="45.99572" lon="1.31227">
        <ele>429.4</ele>
        <time>2022-06-12T08:46:18Z</time>
      </trkpt>
      <trkpt lat="45.99562" lon="1.31227">
        <ele>430</ele>
        <time>2022-06-12T08:46:22Z</time>
      </trkpt>
      <trkpt lat="45.99556" lon="1.31229">
        <ele>430.8</ele>
        <time>2022-06-12T08:46:25Z</time>
      </trkpt>
      <trkpt lat="45.99549" lon="1.31234">
        <ele>431.2</ele>
        <time>2022-06-12T08:46:29Z</time>
      </trkpt>
      <trkpt lat="45.99545" lon="1.31237">
        <ele>431.4</ele>
        <time>2022-06-12T08:46:31Z</time>
      </trkpt>
      <trkpt lat="45.99539" lon="1.31243">
        <ele>432.2</ele>
        <time>2022-06-12T08:46:37Z</time>
      </trkpt>
      <trkpt lat="45.99525" lon="1.31258">
        <ele>433.2</ele>
        <time>2022-06-12T08:46:45Z</time>
      </trkpt>
      <trkpt lat="45.99524" lon="1.31261">
        <ele>433.2</ele>
        <time>2022-06-12T08:46:46Z</time>
      </trkpt>
      <trkpt lat="45.99514" lon="1.31276">
        <ele>434</ele>
        <time>2022-06-12T08:46:53Z</time>
      </trkpt>
      <trkpt lat="45.9951" lon="1.31281">
        <ele>434.6</ele>
        <time>2022-06-12T08:46:56Z</time>
      </trkpt>
      <trkpt lat="45.99502" lon="1.3129">
        <ele>435.4</ele>
        <time>2022-06-12T08:47:02Z</time>
      </trkpt>
      <trkpt lat="45.99499" lon="1.31294">
        <ele>435.8</ele>
        <time>2022-06-12T08:47:05Z</time>
      </trkpt>
      <trkpt lat="45.99495" lon="1.31301">
        <ele>436.6</ele>
        <time>2022-06-12T08:47:10Z</time>
      </trkpt>
      <trkpt lat="45.99495" lon="1.31302">
        <ele>436.8</ele>
        <time>2022-06-12T08:47:11Z</time>
      </trkpt>
      <trkpt lat="45.99493" lon="1.31304">
        <ele>436.8</ele>
        <time>2022-06-12T08:47:12Z</time>
      </trkpt>
      <trkpt lat="45.99487" lon="1.31312">
        <ele>437.4</ele>
        <time>2022-06-12T08:47:16Z</time>
      </trkpt>
      <trkpt lat="45.99485" lon="1.31314">
        <ele>437.8</ele>
        <time>2022-06-12T08:47:18Z</time>
      </trkpt>
      <trkpt lat="45.99476" lon="1.31323">
        <ele>438.6</ele>
        <time>2022-06-12T08:47:24Z</time>
      </trkpt>
      <trkpt lat="45.99472" lon="1.31328">
        <ele>438.8</ele>
        <time>2022-06-12T08:47:27Z</time>
      </trkpt>
      <trkpt lat="45.99467" lon="1.31331">
        <ele>439.4</ele>
        <time>2022-06-12T08:47:30Z</time>
      </trkpt>
      <trkpt lat="45.99461" lon="1.31335">
        <ele>440</ele>
        <time>2022-06-12T08:47:34Z</time>
      </trkpt>
      <trkpt lat="45.99456" lon="1.31337">
        <ele>440</ele>
        <time>2022-06-12T08:47:37Z</time>
      </trkpt>
      <trkpt lat="45.9945" lon="1.31337">
        <ele>440.8</ele>
        <time>2022-06-12T08:47:41Z</time>
      </trkpt>
      <trkpt lat="45.99448" lon="1.31337">
        <ele>441.2</ele>
        <time>2022-06-12T08:47:42Z</time>
      </trkpt>
      <trkpt lat="45.99444" lon="1.31337">
        <ele>441.4</ele>
        <time>2022-06-12T08:47:44Z</time>
      </trkpt>
      <trkpt lat="45.99432" lon="1.3134">
        <ele>442.2</ele>
        <time>2022-06-12T08:47:50Z</time>
      </trkpt>
      <trkpt lat="45.99429" lon="1.3134">
        <ele>442.4</ele>
        <time>2022-06-12T08:47:52Z</time>
      </trkpt>
      <trkpt lat="45.99419" lon="1.3134">
        <ele>443.2</ele>
        <time>2022-06-12T08:47:58Z</time>
      </trkpt>
      <trkpt lat="45.99416" lon="1.31339">
        <ele>443.4</ele>
        <time>2022-06-12T08:48:00Z</time>
      </trkpt>
      <trkpt lat="45.99412" lon="1.31337">
        <ele>444.2</ele>
        <time>2022-06-12T08:48:03Z</time>
      </trkpt>
      <trkpt lat="45.99411" lon="1.31336">
        <ele>444.4</ele>
        <time>2022-06-12T08:48:04Z</time>
      </trkpt>
      <trkpt lat="45.99411" lon="1.31332">
        <ele>444.8</ele>
        <time>2022-06-12T08:48:06Z</time>
      </trkpt>
      <trkpt lat="45.9941" lon="1.3133">
        <ele>445</ele>
        <time>2022-06-12T08:48:07Z</time>
      </trkpt>
      <trkpt lat="45.99411" lon="1.31327">
        <ele>445.6</ele>
        <time>2022-06-12T08:48:09Z</time>
      </trkpt>
      <trkpt lat="45.99412" lon="1.31323">
        <ele>446</ele>
        <time>2022-06-12T08:48:12Z</time>
      </trkpt>
      <trkpt lat="45.99418" lon="1.31317">
        <ele>446.6</ele>
        <time>2022-06-12T08:48:18Z</time>
      </trkpt>
      <trkpt lat="45.99421" lon="1.31315">
        <ele>446.6</ele>
        <time>2022-06-12T08:48:20Z</time>
      </trkpt>
      <trkpt lat="45.99427" lon="1.3131">
        <ele>447.6</ele>
        <time>2022-06-12T08:48:26Z</time>
      </trkpt>
      <trkpt lat="45.99435" lon="1.31304">
        <ele>448.6</ele>
        <time>2022-06-12T08:48:33Z</time>
      </trkpt>
      <trkpt lat="45.99436" lon="1.31303">
        <ele>449</ele>
        <time>2022-06-12T08:48:34Z</time>
      </trkpt>
      <trkpt lat="45.99443" lon="1.31295">
        <ele>449.4</ele>
        <time>2022-06-12T08:48:40Z</time>
      </trkpt>
      <trkpt lat="45.99449" lon="1.31289">
        <ele>450</ele>
        <time>2022-06-12T08:48:44Z</time>
      </trkpt>
      <trkpt lat="45.99453" lon="1.31283">
        <ele>450.4</ele>
        <time>2022-06-12T08:48:47Z</time>
      </trkpt>
      <trkpt lat="45.99459" lon="1.31272">
        <ele>451.2</ele>
        <time>2022-06-12T08:48:53Z</time>
      </trkpt>
      <trkpt lat="45.9946" lon="1.3127">
        <ele>451.4</ele>
        <time>2022-06-12T08:48:54Z</time>
      </trkpt>
      <trkpt lat="45.99465" lon="1.31257">
        <ele>452</ele>
        <time>2022-06-12T08:49:01Z</time>
      </trkpt>
      <trkpt lat="45.99465" lon="1.31255">
        <ele>452.2</ele>
        <time>2022-06-12T08:49:02Z</time>
      </trkpt>
      <trkpt lat="45.9947" lon="1.3124">
        <ele>453</ele>
        <time>2022-06-12T08:49:09Z</time>
      </trkpt>
      <trkpt lat="45.99471" lon="1.31233">
        <ele>453.2</ele>
        <time>2022-06-12T08:49:12Z</time>
      </trkpt>
      <trkpt lat="45.99472" lon="1.31221">
        <ele>454.2</ele>
        <time>2022-06-12T08:49:18Z</time>
      </trkpt>
      <trkpt lat="45.99472" lon="1.31218">
        <ele>454.4</ele>
        <time>2022-06-12T08:49:19Z</time>
      </trkpt>
      <trkpt lat="45.99472" lon="1.31204">
        <ele>455.4</ele>
        <time>2022-06-12T08:49:26Z</time>
      </trkpt>
      <trkpt lat="45.99471" lon="1.31201">
        <ele>455.4</ele>
        <time>2022-06-12T08:49:27Z</time>
      </trkpt>
      <trkpt lat="45.99469" lon="1.31185">
        <ele>456.2</ele>
        <time>2022-06-12T08:49:35Z</time>
      </trkpt>
      <trkpt lat="45.99468" lon="1.31183">
        <ele>456.6</ele>
        <time>2022-06-12T08:49:36Z</time>
      </trkpt>
      <trkpt lat="45.99463" lon="1.31172">
        <ele>457.4</ele>
        <time>2022-06-12T08:49:42Z</time>
      </trkpt>
      <trkpt lat="45.99462" lon="1.3117">
        <ele>457.6</ele>
        <time>2022-06-12T08:49:43Z</time>
      </trkpt>
      <trkpt lat="45.99457" lon="1.31162">
        <ele>458.6</ele>
        <time>2022-06-12T08:49:49Z</time>
      </trkpt>
      <trkpt lat="45.99454" lon="1.31158">
        <ele>459</ele>
        <time>2022-06-12T08:49:53Z</time>
      </trkpt>
      <trkpt lat="45.99453" lon="1.31154">
        <ele>459.6</ele>
        <time>2022-06-12T08:49:56Z</time>
      </trkpt>
      <trkpt lat="45.99453" lon="1.31153">
        <ele>459.8</ele>
        <time>2022-06-12T08:49:57Z</time>
      </trkpt>
      <trkpt lat="45.99451" lon="1.3115">
        <ele>460.4</ele>
        <time>2022-06-12T08:49:59Z</time>
      </trkpt>
      <trkpt lat="45.99447" lon="1.31141">
        <ele>460.8</ele>
        <time>2022-06-12T08:50:03Z</time>
      </trkpt>
      <trkpt lat="45.99444" lon="1.31129">
        <ele>461.8</ele>
        <time>2022-06-12T08:50:09Z</time>
      </trkpt>
      <trkpt lat="45.99444" lon="1.31127">
        <ele>461.8</ele>
        <time>2022-06-12T08:50:10Z</time>
      </trkpt>
      <trkpt lat="45.99443" lon="1.31117">
        <ele>462.8</ele>
        <time>2022-06-12T08:50:16Z</time>
      </trkpt>
      <trkpt lat="45.99443" lon="1.31115">
        <ele>463</ele>
        <time>2022-06-12T08:50:17Z</time>
      </trkpt>
      <trkpt lat="45.99443" lon="1.31111">
        <ele>463.4</ele>
        <time>2022-06-12T08:50:19Z</time>
      </trkpt>
      <trkpt lat="45.99446" lon="1.31103">
        <ele>464</ele>
        <time>2022-06-12T08:50:24Z</time>
      </trkpt>
      <trkpt lat="45.99451" lon="1.31093">
        <ele>465</ele>
        <time>2022-06-12T08:50:30Z</time>
      </trkpt>
      <trkpt lat="45.99453" lon="1.31091">
        <ele>465</ele>
        <time>2022-06-12T08:50:31Z</time>
      </trkpt>
      <trkpt lat="45.99461" lon="1.31081">
        <ele>466</ele>
        <time>2022-06-12T08:50:39Z</time>
      </trkpt>
      <trkpt lat="45.99462" lon="1.31079">
        <ele>466</ele>
        <time>2022-06-12T08:50:40Z</time>
      </trkpt>
      <trkpt lat="45.9947" lon="1.31074">
        <ele>466.6</ele>
        <time>2022-06-12T08:50:46Z</time>
      </trkpt>
      <trkpt lat="45.99473" lon="1.3107">
        <ele>467</ele>
        <time>2022-06-12T08:50:50Z</time>
      </trkpt>
      <trkpt lat="45.99477" lon="1.31065">
        <ele>467.6</ele>
        <time>2022-06-12T08:50:54Z</time>
      </trkpt>
      <trkpt lat="45.99478" lon="1.31063">
        <ele>468</ele>
        <time>2022-06-12T08:50:56Z</time>
      </trkpt>
      <trkpt lat="45.9948" lon="1.31058">
        <ele>468.4</ele>
        <time>2022-06-12T08:50:59Z</time>
      </trkpt>
      <trkpt lat="45.99481" lon="1.31057">
        <ele>468.6</ele>
        <time>2022-06-12T08:51:00Z</time>
      </trkpt>
      <trkpt lat="45.99487" lon="1.31048">
        <ele>469.2</ele>
        <time>2022-06-12T08:51:05Z</time>
      </trkpt>
      <trkpt lat="45.99488" lon="1.31046">
        <ele>469.4</ele>
        <time>2022-06-12T08:51:06Z</time>
      </trkpt>
      <trkpt lat="45.9949" lon="1.31036">
        <ele>470.4</ele>
        <time>2022-06-12T08:51:11Z</time>
      </trkpt>
      <trkpt lat="45.99491" lon="1.31034">
        <ele>470.6</ele>
        <time>2022-06-12T08:51:12Z</time>
      </trkpt>
      <trkpt lat="45.99495" lon="1.31021">
        <ele>471.6</ele>
        <time>2022-06-12T08:51:18Z</time>
      </trkpt>
      <trkpt lat="45.995" lon="1.3101">
        <ele>472.6</ele>
        <time>2022-06-12T08:51:25Z</time>
      </trkpt>
      <trkpt lat="45.99507" lon="1.30995">
        <ele>473.6</ele>
        <time>2022-06-12T08:51:33Z</time>
      </trkpt>
      <trkpt lat="45.99514" lon="1.30982">
        <ele>474.4</ele>
        <time>2022-06-12T08:51:40Z</time>
      </trkpt>
      <trkpt lat="45.99521" lon="1.3097">
        <ele>474.4</ele>
        <time>2022-06-12T08:51:46Z</time>
      </trkpt>
      <trkpt lat="45.99528" lon="1.30962">
        <ele>474.4</ele>
        <time>2022-06-12T08:51:51Z</time>
      </trkpt>
      <trkpt lat="45.99541" lon="1.30948">
        <ele>474.4</ele>
        <time>2022-06-12T08:51:57Z</time>
      </trkpt>
      <trkpt lat="45.99564" lon="1.3093">
        <ele>474.4</ele>
        <time>2022-06-12T08:52:04Z</time>
      </trkpt>
      <trkpt lat="45.9959" lon="1.30905">
        <ele>473.2</ele>
        <time>2022-06-12T08:52:10Z</time>
      </trkpt>
      <trkpt lat="45.99599" lon="1.30895">
        <ele>472.6</ele>
        <time>2022-06-12T08:52:12Z</time>
      </trkpt>
      <trkpt lat="45.99602" lon="1.30889">
        <ele>472.2</ele>
        <time>2022-06-12T08:52:13Z</time>
      </trkpt>
      <trkpt lat="45.99607" lon="1.30876">
        <ele>471.4</ele>
        <time>2022-06-12T08:52:15Z</time>
      </trkpt>
      <trkpt lat="45.99609" lon="1.3087">
        <ele>471.2</ele>
        <time>2022-06-12T08:52:16Z</time>
      </trkpt>
      <trkpt lat="45.9961" lon="1.30859">
        <ele>471</ele>
        <time>2022-06-12T08:52:18Z</time>
      </trkpt>
      <trkpt lat="45.9961" lon="1.30854">
        <ele>471</ele>
        <time>2022-06-12T08:52:19Z</time>
      </trkpt>
      <trkpt lat="45.99611" lon="1.30849">
        <ele>471</ele>
        <time>2022-06-12T08:52:20Z</time>
      </trkpt>
      <trkpt lat="45.9961" lon="1.30822">
        <ele>470.6</ele>
        <time>2022-06-12T08:52:25Z</time>
      </trkpt>
      <trkpt lat="45.99609" lon="1.30816">
        <ele>470.8</ele>
        <time>2022-06-12T08:52:26Z</time>
      </trkpt>
      <trkpt lat="45.99604" lon="1.308">
        <ele>470.8</ele>
        <time>2022-06-12T08:52:29Z</time>
      </trkpt>
      <trkpt lat="45.996" lon="1.30787">
        <ele>471</ele>
        <time>2022-06-12T08:52:31Z</time>
      </trkpt>
      <trkpt lat="45.99594" lon="1.30766">
        <ele>471</ele>
        <time>2022-06-12T08:52:35Z</time>
      </trkpt>
      <trkpt lat="45.99591" lon="1.30761">
        <ele>471</ele>
        <time>2022-06-12T08:52:36Z</time>
      </trkpt>
      <trkpt lat="45.99586" lon="1.30751">
        <ele>471</ele>
        <time>2022-06-12T08:52:38Z</time>
      </trkpt>
      <trkpt lat="45.99583" lon="1.30737">
        <ele>470.8</ele>
        <time>2022-06-12T08:52:40Z</time>
      </trkpt>
      <trkpt lat="45.99584" lon="1.30727">
        <ele>470.4</ele>
        <time>2022-06-12T08:52:41Z</time>
      </trkpt>
      <trkpt lat="45.99585" lon="1.30719">
        <ele>470.2</ele>
        <time>2022-06-12T08:52:42Z</time>
      </trkpt>
      <trkpt lat="45.9959" lon="1.30704">
        <ele>469.8</ele>
        <time>2022-06-12T08:52:44Z</time>
      </trkpt>
      <trkpt lat="45.99599" lon="1.30693">
        <ele>469.2</ele>
        <time>2022-06-12T08:52:46Z</time>
      </trkpt>
      <trkpt lat="45.99612" lon="1.3068">
        <ele>468.4</ele>
        <time>2022-06-12T08:52:49Z</time>
      </trkpt>
      <trkpt lat="45.99621" lon="1.30666">
        <ele>468</ele>
        <time>2022-06-12T08:52:51Z</time>
      </trkpt>
      <trkpt lat="45.99634" lon="1.30651">
        <ele>467.2</ele>
        <time>2022-06-12T08:52:54Z</time>
      </trkpt>
      <trkpt lat="45.9964" lon="1.30647">
        <ele>467</ele>
        <time>2022-06-12T08:52:55Z</time>
      </trkpt>
      <trkpt lat="45.99657" lon="1.30637">
        <ele>466.6</ele>
        <time>2022-06-12T08:52:58Z</time>
      </trkpt>
      <trkpt lat="45.99696" lon="1.30608">
        <ele>466</ele>
        <time>2022-06-12T08:53:05Z</time>
      </trkpt>
      <trkpt lat="45.99703" lon="1.30599">
        <ele>465.6</ele>
        <time>2022-06-12T08:53:07Z</time>
      </trkpt>
      <trkpt lat="45.99705" lon="1.30596">
        <ele>465.4</ele>
        <time>2022-06-12T08:53:08Z</time>
      </trkpt>
      <trkpt lat="45.99706" lon="1.30594">
        <ele>465</ele>
        <time>2022-06-12T08:53:10Z</time>
      </trkpt>
      <trkpt lat="45.99705" lon="1.30593">
        <ele>464.8</ele>
        <time>2022-06-12T08:53:11Z</time>
      </trkpt>
      <trkpt lat="45.99704" lon="1.30592">
        <ele>464.8</ele>
        <time>2022-06-12T08:53:12Z</time>
      </trkpt>
      <trkpt lat="45.99692" lon="1.3059">
        <ele>464.8</ele>
        <time>2022-06-12T08:53:19Z</time>
      </trkpt>
      <trkpt lat="45.99679" lon="1.30593">
        <ele>465</ele>
        <time>2022-06-12T08:53:24Z</time>
      </trkpt>
      <trkpt lat="45.99669" lon="1.30592">
        <ele>465.2</ele>
        <time>2022-06-12T08:53:29Z</time>
      </trkpt>
      <trkpt lat="45.99666" lon="1.30587">
        <ele>465</ele>
        <time>2022-06-12T08:53:31Z</time>
      </trkpt>
      <trkpt lat="45.99665" lon="1.30582">
        <ele>464.8</ele>
        <time>2022-06-12T08:53:33Z</time>
      </trkpt>
      <trkpt lat="45.99666" lon="1.30558">
        <ele>464.6</ele>
        <time>2022-06-12T08:53:39Z</time>
      </trkpt>
      <trkpt lat="45.99661" lon="1.30534">
        <ele>464.4</ele>
        <time>2022-06-12T08:53:44Z</time>
      </trkpt>
      <trkpt lat="45.99661" lon="1.30525">
        <ele>464.2</ele>
        <time>2022-06-12T08:53:46Z</time>
      </trkpt>
      <trkpt lat="45.99664" lon="1.30517">
        <ele>464.4</ele>
        <time>2022-06-12T08:53:48Z</time>
      </trkpt>
      <trkpt lat="45.99676" lon="1.30497">
        <ele>464.4</ele>
        <time>2022-06-12T08:53:53Z</time>
      </trkpt>
      <trkpt lat="45.99699" lon="1.30482">
        <ele>464.6</ele>
        <time>2022-06-12T08:53:59Z</time>
      </trkpt>
      <trkpt lat="45.99707" lon="1.30478">
        <ele>464.6</ele>
        <time>2022-06-12T08:54:01Z</time>
      </trkpt>
      <trkpt lat="45.99721" lon="1.30473">
        <ele>464.6</ele>
        <time>2022-06-12T08:54:04Z</time>
      </trkpt>
      <trkpt lat="45.99726" lon="1.30472">
        <ele>464.6</ele>
        <time>2022-06-12T08:54:05Z</time>
      </trkpt>
      <trkpt lat="45.99735" lon="1.3047">
        <ele>463.8</ele>
        <time>2022-06-12T08:54:07Z</time>
      </trkpt>
      <trkpt lat="45.99758" lon="1.30465">
        <ele>463</ele>
        <time>2022-06-12T08:54:11Z</time>
      </trkpt>
      <trkpt lat="45.99764" lon="1.30463">
        <ele>462.2</ele>
        <time>2022-06-12T08:54:12Z</time>
      </trkpt>
      <trkpt lat="45.99776" lon="1.30458">
        <ele>460.4</ele>
        <time>2022-06-12T08:54:14Z</time>
      </trkpt>
      <trkpt lat="45.99789" lon="1.30453">
        <ele>459</ele>
        <time>2022-06-12T08:54:16Z</time>
      </trkpt>
      <trkpt lat="45.99796" lon="1.3045">
        <ele>458.6</ele>
        <time>2022-06-12T08:54:17Z</time>
      </trkpt>
      <trkpt lat="45.99803" lon="1.30446">
        <ele>458</ele>
        <time>2022-06-12T08:54:18Z</time>
      </trkpt>
      <trkpt lat="45.99808" lon="1.30442">
        <ele>457.6</ele>
        <time>2022-06-12T08:54:19Z</time>
      </trkpt>
      <trkpt lat="45.99813" lon="1.30437">
        <ele>457</ele>
        <time>2022-06-12T08:54:20Z</time>
      </trkpt>
      <trkpt lat="45.99815" lon="1.30431">
        <ele>456.2</ele>
        <time>2022-06-12T08:54:21Z</time>
      </trkpt>
      <trkpt lat="45.99816" lon="1.30425">
        <ele>455</ele>
        <time>2022-06-12T08:54:22Z</time>
      </trkpt>
      <trkpt lat="45.99816" lon="1.3042">
        <ele>454.4</ele>
        <time>2022-06-12T08:54:23Z</time>
      </trkpt>
      <trkpt lat="45.99815" lon="1.30414">
        <ele>454</ele>
        <time>2022-06-12T08:54:24Z</time>
      </trkpt>
      <trkpt lat="45.99814" lon="1.30409">
        <ele>453.6</ele>
        <time>2022-06-12T08:54:25Z</time>
      </trkpt>
      <trkpt lat="45.99811" lon="1.304">
        <ele>453</ele>
        <time>2022-06-12T08:54:27Z</time>
      </trkpt>
      <trkpt lat="45.99809" lon="1.30397">
        <ele>452.6</ele>
        <time>2022-06-12T08:54:28Z</time>
      </trkpt>
      <trkpt lat="45.99802" lon="1.30385">
        <ele>452</ele>
        <time>2022-06-12T08:54:31Z</time>
      </trkpt>
      <trkpt lat="45.99796" lon="1.30371">
        <ele>451.6</ele>
        <time>2022-06-12T08:54:34Z</time>
      </trkpt>
      <trkpt lat="45.99795" lon="1.30366">
        <ele>451.6</ele>
        <time>2022-06-12T08:54:35Z</time>
      </trkpt>
      <trkpt lat="45.99794" lon="1.3036">
        <ele>451.4</ele>
        <time>2022-06-12T08:54:36Z</time>
      </trkpt>
      <trkpt lat="45.99791" lon="1.30349">
        <ele>451</ele>
        <time>2022-06-12T08:54:38Z</time>
      </trkpt>
      <trkpt lat="45.99789" lon="1.30344">
        <ele>451</ele>
        <time>2022-06-12T08:54:39Z</time>
      </trkpt>
      <trkpt lat="45.99785" lon="1.30335">
        <ele>450.6</ele>
        <time>2022-06-12T08:54:41Z</time>
      </trkpt>
      <trkpt lat="45.99785" lon="1.30335">
        <ele>450.2</ele>
        <time>2022-06-12T08:54:42Z</time>
      </trkpt>
      <trkpt lat="45.99776" lon="1.30323">
        <ele>450.2</ele>
        <time>2022-06-12T08:54:45Z</time>
      </trkpt>
      <trkpt lat="45.99775" lon="1.30319">
        <ele>450</ele>
        <time>2022-06-12T08:54:46Z</time>
      </trkpt>
      <trkpt lat="45.99774" lon="1.3031">
        <ele>449.2</ele>
        <time>2022-06-12T08:54:48Z</time>
      </trkpt>
      <trkpt lat="45.99776" lon="1.30297">
        <ele>448.6</ele>
        <time>2022-06-12T08:54:50Z</time>
      </trkpt>
      <trkpt lat="45.99779" lon="1.30291">
        <ele>447.2</ele>
        <time>2022-06-12T08:54:51Z</time>
      </trkpt>
      <trkpt lat="45.99781" lon="1.30284">
        <ele>446.4</ele>
        <time>2022-06-12T08:54:52Z</time>
      </trkpt>
      <trkpt lat="45.99783" lon="1.30278">
        <ele>446</ele>
        <time>2022-06-12T08:54:53Z</time>
      </trkpt>
      <trkpt lat="45.99784" lon="1.30272">
        <ele>445.2</ele>
        <time>2022-06-12T08:54:54Z</time>
      </trkpt>
      <trkpt lat="45.99785" lon="1.30267">
        <ele>444.6</ele>
        <time>2022-06-12T08:54:55Z</time>
      </trkpt>
      <trkpt lat="45.99786" lon="1.3026">
        <ele>444</ele>
        <time>2022-06-12T08:54:56Z</time>
      </trkpt>
      <trkpt lat="45.99786" lon="1.30254">
        <ele>443</ele>
        <time>2022-06-12T08:54:57Z</time>
      </trkpt>
      <trkpt lat="45.99786" lon="1.30248">
        <ele>441.8</ele>
        <time>2022-06-12T08:54:58Z</time>
      </trkpt>
      <trkpt lat="45.99786" lon="1.30243">
        <ele>441</ele>
        <time>2022-06-12T08:54:59Z</time>
      </trkpt>
      <trkpt lat="45.99786" lon="1.30238">
        <ele>440.2</ele>
        <time>2022-06-12T08:55:00Z</time>
      </trkpt>
      <trkpt lat="45.99787" lon="1.30229">
        <ele>438.2</ele>
        <time>2022-06-12T08:55:02Z</time>
      </trkpt>
      <trkpt lat="45.99788" lon="1.3022">
        <ele>436.6</ele>
        <time>2022-06-12T08:55:04Z</time>
      </trkpt>
      <trkpt lat="45.99791" lon="1.30207">
        <ele>435.6</ele>
        <time>2022-06-12T08:55:06Z</time>
      </trkpt>
      <trkpt lat="45.99794" lon="1.30202">
        <ele>435.2</ele>
        <time>2022-06-12T08:55:07Z</time>
      </trkpt>
      <trkpt lat="45.99799" lon="1.3019">
        <ele>434.8</ele>
        <time>2022-06-12T08:55:09Z</time>
      </trkpt>
      <trkpt lat="45.99801" lon="1.30183">
        <ele>434.2</ele>
        <time>2022-06-12T08:55:10Z</time>
      </trkpt>
      <trkpt lat="45.99801" lon="1.30176">
        <ele>433.4</ele>
        <time>2022-06-12T08:55:11Z</time>
      </trkpt>
      <trkpt lat="45.998" lon="1.30162">
        <ele>432.4</ele>
        <time>2022-06-12T08:55:13Z</time>
      </trkpt>
      <trkpt lat="45.99798" lon="1.30151">
        <ele>431</ele>
        <time>2022-06-12T08:55:15Z</time>
      </trkpt>
      <trkpt lat="45.99799" lon="1.30146">
        <ele>429.8</ele>
        <time>2022-06-12T08:55:16Z</time>
      </trkpt>
      <trkpt lat="45.998" lon="1.3014">
        <ele>428.6</ele>
        <time>2022-06-12T08:55:17Z</time>
      </trkpt>
      <trkpt lat="45.99805" lon="1.30132">
        <ele>427.4</ele>
        <time>2022-06-12T08:55:19Z</time>
      </trkpt>
      <trkpt lat="45.99807" lon="1.30128">
        <ele>427.2</ele>
        <time>2022-06-12T08:55:20Z</time>
      </trkpt>
      <trkpt lat="45.99809" lon="1.30124">
        <ele>427</ele>
        <time>2022-06-12T08:55:21Z</time>
      </trkpt>
      <trkpt lat="45.99812" lon="1.30118">
        <ele>426</ele>
        <time>2022-06-12T08:55:23Z</time>
      </trkpt>
      <trkpt lat="45.99814" lon="1.30112">
        <ele>425.2</ele>
        <time>2022-06-12T08:55:25Z</time>
      </trkpt>
      <trkpt lat="45.99814" lon="1.3011">
        <ele>424.8</ele>
        <time>2022-06-12T08:55:26Z</time>
      </trkpt>
      <trkpt lat="45.99814" lon="1.30104">
        <ele>423.8</ele>
        <time>2022-06-12T08:55:29Z</time>
      </trkpt>
      <trkpt lat="45.99815" lon="1.30102">
        <ele>423.2</ele>
        <time>2022-06-12T08:55:30Z</time>
      </trkpt>
      <trkpt lat="45.99815" lon="1.301">
        <ele>423</ele>
        <time>2022-06-12T08:55:31Z</time>
      </trkpt>
      <trkpt lat="45.99815" lon="1.30098">
        <ele>422.6</ele>
        <time>2022-06-12T08:55:32Z</time>
      </trkpt>
      <trkpt lat="45.99814" lon="1.30095">
        <ele>422</ele>
        <time>2022-06-12T08:55:33Z</time>
      </trkpt>
      <trkpt lat="45.99812" lon="1.30091">
        <ele>421.4</ele>
        <time>2022-06-12T08:55:35Z</time>
      </trkpt>
      <trkpt lat="45.9981" lon="1.30086">
        <ele>419.8</ele>
        <time>2022-06-12T08:55:37Z</time>
      </trkpt>
      <trkpt lat="45.99805" lon="1.30083">
        <ele>418.2</ele>
        <time>2022-06-12T08:55:40Z</time>
      </trkpt>
      <trkpt lat="45.99802" lon="1.30079">
        <ele>417.6</ele>
        <time>2022-06-12T08:55:43Z</time>
      </trkpt>
      <trkpt lat="45.99802" lon="1.30073">
        <ele>417.6</ele>
        <time>2022-06-12T08:55:45Z</time>
      </trkpt>
      <trkpt lat="45.99806" lon="1.30064">
        <ele>417.2</ele>
        <time>2022-06-12T08:55:47Z</time>
      </trkpt>
      <trkpt lat="45.99811" lon="1.30052">
        <ele>416.6</ele>
        <time>2022-06-12T08:55:49Z</time>
      </trkpt>
      <trkpt lat="45.99813" lon="1.30045">
        <ele>415.8</ele>
        <time>2022-06-12T08:55:50Z</time>
      </trkpt>
      <trkpt lat="45.99814" lon="1.30037">
        <ele>415.4</ele>
        <time>2022-06-12T08:55:51Z</time>
      </trkpt>
      <trkpt lat="45.99816" lon="1.30024">
        <ele>414.8</ele>
        <time>2022-06-12T08:55:53Z</time>
      </trkpt>
      <trkpt lat="45.99823" lon="1.30008">
        <ele>416</ele>
        <time>2022-06-12T08:55:58Z</time>
      </trkpt>
      <trkpt lat="45.99832" lon="1.29997">
        <ele>417</ele>
        <time>2022-06-12T08:56:02Z</time>
      </trkpt>
      <trkpt lat="45.99838" lon="1.29991">
        <ele>418</ele>
        <time>2022-06-12T08:56:04Z</time>
      </trkpt>
      <trkpt lat="45.99844" lon="1.29988">
        <ele>418.2</ele>
        <time>2022-06-12T08:56:06Z</time>
      </trkpt>
      <trkpt lat="45.99851" lon="1.29978">
        <ele>418.8</ele>
        <time>2022-06-12T08:56:10Z</time>
      </trkpt>
      <trkpt lat="45.99854" lon="1.29971">
        <ele>419.4</ele>
        <time>2022-06-12T08:56:13Z</time>
      </trkpt>
      <trkpt lat="45.9986" lon="1.29961">
        <ele>420</ele>
        <time>2022-06-12T08:56:17Z</time>
      </trkpt>
      <trkpt lat="45.99864" lon="1.29955">
        <ele>420.4</ele>
        <time>2022-06-12T08:56:20Z</time>
      </trkpt>
      <trkpt lat="45.99867" lon="1.29944">
        <ele>420.8</ele>
        <time>2022-06-12T08:56:24Z</time>
      </trkpt>
      <trkpt lat="45.99872" lon="1.29937">
        <ele>421.6</ele>
        <time>2022-06-12T08:56:27Z</time>
      </trkpt>
      <trkpt lat="45.99874" lon="1.29933">
        <ele>422</ele>
        <time>2022-06-12T08:56:29Z</time>
      </trkpt>
      <trkpt lat="45.99878" lon="1.29919">
        <ele>421.8</ele>
        <time>2022-06-12T08:56:33Z</time>
      </trkpt>
      <trkpt lat="45.99878" lon="1.29916">
        <ele>421.6</ele>
        <time>2022-06-12T08:56:34Z</time>
      </trkpt>
      <trkpt lat="45.99876" lon="1.29912">
        <ele>421.4</ele>
        <time>2022-06-12T08:56:35Z</time>
      </trkpt>
      <trkpt lat="45.99873" lon="1.299">
        <ele>420.4</ele>
        <time>2022-06-12T08:56:38Z</time>
      </trkpt>
      <trkpt lat="45.99873" lon="1.29897">
        <ele>419.8</ele>
        <time>2022-06-12T08:56:39Z</time>
      </trkpt>
      <trkpt lat="45.99872" lon="1.29894">
        <ele>419</ele>
        <time>2022-06-12T08:56:40Z</time>
      </trkpt>
      <trkpt lat="45.99872" lon="1.29881">
        <ele>418</ele>
        <time>2022-06-12T08:56:44Z</time>
      </trkpt>
      <trkpt lat="45.99873" lon="1.29875">
        <ele>416.6</ele>
        <time>2022-06-12T08:56:46Z</time>
      </trkpt>
      <trkpt lat="45.99873" lon="1.29875">
        <ele>415.6</ele>
        <time>2022-06-12T08:56:47Z</time>
      </trkpt>
      <trkpt lat="45.99879" lon="1.29862">
        <ele>414</ele>
        <time>2022-06-12T08:56:50Z</time>
      </trkpt>
      <trkpt lat="45.9988" lon="1.29859">
        <ele>413.6</ele>
        <time>2022-06-12T08:56:51Z</time>
      </trkpt>
      <trkpt lat="45.9988" lon="1.29854">
        <ele>412.8</ele>
        <time>2022-06-12T08:56:52Z</time>
      </trkpt>
      <trkpt lat="45.9988" lon="1.29847">
        <ele>411.2</ele>
        <time>2022-06-12T08:56:54Z</time>
      </trkpt>
      <trkpt lat="45.99879" lon="1.29844">
        <ele>410</ele>
        <time>2022-06-12T08:56:55Z</time>
      </trkpt>
      <trkpt lat="45.99877" lon="1.2984">
        <ele>408.6</ele>
        <time>2022-06-12T08:56:57Z</time>
      </trkpt>
      <trkpt lat="45.99876" lon="1.29838">
        <ele>408</ele>
        <time>2022-06-12T08:56:58Z</time>
      </trkpt>
      <trkpt lat="45.99876" lon="1.29836">
        <ele>407.4</ele>
        <time>2022-06-12T08:56:59Z</time>
      </trkpt>
      <trkpt lat="45.99875" lon="1.29833">
        <ele>406.2</ele>
        <time>2022-06-12T08:57:01Z</time>
      </trkpt>
      <trkpt lat="45.99874" lon="1.29832">
        <ele>405.4</ele>
        <time>2022-06-12T08:57:02Z</time>
      </trkpt>
      <trkpt lat="45.99873" lon="1.29831">
        <ele>405</ele>
        <time>2022-06-12T08:57:03Z</time>
      </trkpt>
      <trkpt lat="45.99859" lon="1.29819">
        <ele>405</ele>
        <time>2022-06-12T08:57:09Z</time>
      </trkpt>
      <trkpt lat="45.99842" lon="1.29811">
        <ele>405</ele>
        <time>2022-06-12T08:57:13Z</time>
      </trkpt>
      <trkpt lat="45.99835" lon="1.29804">
        <ele>404</ele>
        <time>2022-06-12T08:57:15Z</time>
      </trkpt>
      <trkpt lat="45.9982" lon="1.29793">
        <ele>402.6</ele>
        <time>2022-06-12T08:57:18Z</time>
      </trkpt>
      <trkpt lat="45.99813" lon="1.29789">
        <ele>402</ele>
        <time>2022-06-12T08:57:19Z</time>
      </trkpt>
      <trkpt lat="45.99801" lon="1.29783">
        <ele>401.2</ele>
        <time>2022-06-12T08:57:21Z</time>
      </trkpt>
      <trkpt lat="45.99789" lon="1.29778">
        <ele>400</ele>
        <time>2022-06-12T08:57:23Z</time>
      </trkpt>
      <trkpt lat="45.99783" lon="1.29776">
        <ele>399.4</ele>
        <time>2022-06-12T08:57:24Z</time>
      </trkpt>
      <trkpt lat="45.99777" lon="1.29774">
        <ele>399</ele>
        <time>2022-06-12T08:57:25Z</time>
      </trkpt>
      <trkpt lat="45.9976" lon="1.29766">
        <ele>397.6</ele>
        <time>2022-06-12T08:57:28Z</time>
      </trkpt>
      <trkpt lat="45.99749" lon="1.29757">
        <ele>396.4</ele>
        <time>2022-06-12T08:57:30Z</time>
      </trkpt>
      <trkpt lat="45.99746" lon="1.29754">
        <ele>395.6</ele>
        <time>2022-06-12T08:57:31Z</time>
      </trkpt>
      <trkpt lat="45.99742" lon="1.29752">
        <ele>395</ele>
        <time>2022-06-12T08:57:32Z</time>
      </trkpt>
      <trkpt lat="45.99738" lon="1.2975">
        <ele>394.6</ele>
        <time>2022-06-12T08:57:33Z</time>
      </trkpt>
      <trkpt lat="45.99726" lon="1.29744">
        <ele>392.8</ele>
        <time>2022-06-12T08:57:35Z</time>
      </trkpt>
      <trkpt lat="45.9971" lon="1.29738">
        <ele>391.6</ele>
        <time>2022-06-12T08:57:37Z</time>
      </trkpt>
      <trkpt lat="45.99705" lon="1.29737">
        <ele>390.4</ele>
        <time>2022-06-12T08:57:38Z</time>
      </trkpt>
      <trkpt lat="45.99697" lon="1.29735">
        <ele>389.4</ele>
        <time>2022-06-12T08:57:39Z</time>
      </trkpt>
      <trkpt lat="45.99688" lon="1.29732">
        <ele>388.8</ele>
        <time>2022-06-12T08:57:40Z</time>
      </trkpt>
      <trkpt lat="45.99666" lon="1.29727">
        <ele>387.6</ele>
        <time>2022-06-12T08:57:43Z</time>
      </trkpt>
      <trkpt lat="45.99649" lon="1.29728">
        <ele>387.2</ele>
        <time>2022-06-12T08:57:46Z</time>
      </trkpt>
      <trkpt lat="45.99637" lon="1.29727">
        <ele>386.8</ele>
        <time>2022-06-12T08:57:49Z</time>
      </trkpt>
      <trkpt lat="45.99634" lon="1.29724">
        <ele>386.6</ele>
        <time>2022-06-12T08:57:50Z</time>
      </trkpt>
      <trkpt lat="45.99631" lon="1.29721">
        <ele>386.4</ele>
        <time>2022-06-12T08:57:51Z</time>
      </trkpt>
      <trkpt lat="45.99621" lon="1.29711">
        <ele>385.8</ele>
        <time>2022-06-12T08:57:53Z</time>
      </trkpt>
      <trkpt lat="45.99614" lon="1.29706">
        <ele>385.6</ele>
        <time>2022-06-12T08:57:54Z</time>
      </trkpt>
      <trkpt lat="45.99606" lon="1.29703">
        <ele>385.6</ele>
        <time>2022-06-12T08:57:55Z</time>
      </trkpt>
      <trkpt lat="45.996" lon="1.297">
        <ele>385</ele>
        <time>2022-06-12T08:57:56Z</time>
      </trkpt>
      <trkpt lat="45.99593" lon="1.29697">
        <ele>384.6</ele>
        <time>2022-06-12T08:57:57Z</time>
      </trkpt>
      <trkpt lat="45.99587" lon="1.29694">
        <ele>384.2</ele>
        <time>2022-06-12T08:57:58Z</time>
      </trkpt>
      <trkpt lat="45.99582" lon="1.29691">
        <ele>383.8</ele>
        <time>2022-06-12T08:57:59Z</time>
      </trkpt>
      <trkpt lat="45.99577" lon="1.29682">
        <ele>383.6</ele>
        <time>2022-06-12T08:58:01Z</time>
      </trkpt>
      <trkpt lat="45.99572" lon="1.2967">
        <ele>383.6</ele>
        <time>2022-06-12T08:58:03Z</time>
      </trkpt>
      <trkpt lat="45.99559" lon="1.29648">
        <ele>384.2</ele>
        <time>2022-06-12T08:58:07Z</time>
      </trkpt>
      <trkpt lat="45.99556" lon="1.29643">
        <ele>384.2</ele>
        <time>2022-06-12T08:58:08Z</time>
      </trkpt>
      <trkpt lat="45.99552" lon="1.29637">
        <ele>384.2</ele>
        <time>2022-06-12T08:58:09Z</time>
      </trkpt>
      <trkpt lat="45.99537" lon="1.29622">
        <ele>384.8</ele>
        <time>2022-06-12T08:58:13Z</time>
      </trkpt>
      <trkpt lat="45.99534" lon="1.2962">
        <ele>385</ele>
        <time>2022-06-12T08:58:14Z</time>
      </trkpt>
      <trkpt lat="45.99528" lon="1.29613">
        <ele>385.4</ele>
        <time>2022-06-12T08:58:17Z</time>
      </trkpt>
      <trkpt lat="45.99522" lon="1.29597">
        <ele>386</ele>
        <time>2022-06-12T08:58:22Z</time>
      </trkpt>
      <trkpt lat="45.99517" lon="1.2959">
        <ele>386</ele>
        <time>2022-06-12T08:58:24Z</time>
      </trkpt>
      <trkpt lat="45.99507" lon="1.29565">
        <ele>386.8</ele>
        <time>2022-06-12T08:58:31Z</time>
      </trkpt>
      <trkpt lat="45.99497" lon="1.29546">
        <ele>387</ele>
        <time>2022-06-12T08:58:36Z</time>
      </trkpt>
      <trkpt lat="45.99496" lon="1.29543">
        <ele>387</ele>
        <time>2022-06-12T08:58:37Z</time>
      </trkpt>
      <trkpt lat="45.99491" lon="1.2953">
        <ele>388</ele>
        <time>2022-06-12T08:58:41Z</time>
      </trkpt>
      <trkpt lat="45.99489" lon="1.29523">
        <ele>388.6</ele>
        <time>2022-06-12T08:58:43Z</time>
      </trkpt>
      <trkpt lat="45.9949" lon="1.29513">
        <ele>389</ele>
        <time>2022-06-12T08:58:46Z</time>
      </trkpt>
      <trkpt lat="45.99491" lon="1.29508">
        <ele>389.6</ele>
        <time>2022-06-12T08:58:48Z</time>
      </trkpt>
      <trkpt lat="45.99494" lon="1.295">
        <ele>390.2</ele>
        <time>2022-06-12T08:58:52Z</time>
      </trkpt>
      <trkpt lat="45.99493" lon="1.29493">
        <ele>390.4</ele>
        <time>2022-06-12T08:58:54Z</time>
      </trkpt>
      <trkpt lat="45.99494" lon="1.29479">
        <ele>391.2</ele>
        <time>2022-06-12T08:58:59Z</time>
      </trkpt>
      <trkpt lat="45.99494" lon="1.29477">
        <ele>391.4</ele>
        <time>2022-06-12T08:59:00Z</time>
      </trkpt>
      <trkpt lat="45.99494" lon="1.29475">
        <ele>391.8</ele>
        <time>2022-06-12T08:59:01Z</time>
      </trkpt>
      <trkpt lat="45.99494" lon="1.2947">
        <ele>392.4</ele>
        <time>2022-06-12T08:59:04Z</time>
      </trkpt>
      <trkpt lat="45.99495" lon="1.2946">
        <ele>394.2</ele>
        <time>2022-06-12T08:59:09Z</time>
      </trkpt>
      <trkpt lat="45.99494" lon="1.29454">
        <ele>395.2</ele>
        <time>2022-06-12T08:59:13Z</time>
      </trkpt>
      <trkpt lat="45.99494" lon="1.2945">
        <ele>395.8</ele>
        <time>2022-06-12T08:59:15Z</time>
      </trkpt>
      <trkpt lat="45.99494" lon="1.29446">
        <ele>396.4</ele>
        <time>2022-06-12T08:59:17Z</time>
      </trkpt>
      <trkpt lat="45.99494" lon="1.29445">
        <ele>396.6</ele>
        <time>2022-06-12T08:59:18Z</time>
      </trkpt>
      <trkpt lat="45.99493" lon="1.29429">
        <ele>397.4</ele>
        <time>2022-06-12T08:59:25Z</time>
      </trkpt>
      <trkpt lat="45.99493" lon="1.29427">
        <ele>397.6</ele>
        <time>2022-06-12T08:59:26Z</time>
      </trkpt>
      <trkpt lat="45.99493" lon="1.29426">
        <ele>397.8</ele>
        <time>2022-06-12T08:59:27Z</time>
      </trkpt>
      <trkpt lat="45.99493" lon="1.29417">
        <ele>398.2</ele>
        <time>2022-06-12T08:59:32Z</time>
      </trkpt>
      <trkpt lat="45.99493" lon="1.29413">
        <ele>398.4</ele>
        <time>2022-06-12T08:59:34Z</time>
      </trkpt>
      <trkpt lat="45.99492" lon="1.29404">
        <ele>398.4</ele>
        <time>2022-06-12T08:59:38Z</time>
      </trkpt>
      <trkpt lat="45.99491" lon="1.29399">
        <ele>398.8</ele>
        <time>2022-06-12T08:59:40Z</time>
      </trkpt>
      <trkpt lat="45.99487" lon="1.29387">
        <ele>399.6</ele>
        <time>2022-06-12T08:59:47Z</time>
      </trkpt>
      <trkpt lat="45.99487" lon="1.29385">
        <ele>399.6</ele>
        <time>2022-06-12T08:59:48Z</time>
      </trkpt>
      <trkpt lat="45.9949" lon="1.2937">
        <ele>400.6</ele>
        <time>2022-06-12T08:59:54Z</time>
      </trkpt>
      <trkpt lat="45.99491" lon="1.29368">
        <ele>400.8</ele>
        <time>2022-06-12T08:59:55Z</time>
      </trkpt>
      <trkpt lat="45.99496" lon="1.29357">
        <ele>401.6</ele>
        <time>2022-06-12T09:00:00Z</time>
      </trkpt>
      <trkpt lat="45.995" lon="1.29348">
        <ele>402.4</ele>
        <time>2022-06-12T09:00:04Z</time>
      </trkpt>
      <trkpt lat="45.99501" lon="1.29347">
        <ele>402.6</ele>
        <time>2022-06-12T09:00:05Z</time>
      </trkpt>
      <trkpt lat="45.99505" lon="1.29337">
        <ele>403.8</ele>
        <time>2022-06-12T09:00:10Z</time>
      </trkpt>
      <trkpt lat="45.99506" lon="1.29335">
        <ele>404</ele>
        <time>2022-06-12T09:00:11Z</time>
      </trkpt>
      <trkpt lat="45.99507" lon="1.29323">
        <ele>404.8</ele>
        <time>2022-06-12T09:00:16Z</time>
      </trkpt>
      <trkpt lat="45.99508" lon="1.29313">
        <ele>405.6</ele>
        <time>2022-06-12T09:00:20Z</time>
      </trkpt>
      <trkpt lat="45.99507" lon="1.29309">
        <ele>406</ele>
        <time>2022-06-12T09:00:22Z</time>
      </trkpt>
      <trkpt lat="45.99504" lon="1.29294">
        <ele>406.8</ele>
        <time>2022-06-12T09:00:28Z</time>
      </trkpt>
      <trkpt lat="45.99503" lon="1.29285">
        <ele>407.2</ele>
        <time>2022-06-12T09:00:31Z</time>
      </trkpt>
      <trkpt lat="45.99501" lon="1.29277">
        <ele>407.6</ele>
        <time>2022-06-12T09:00:34Z</time>
      </trkpt>
      <trkpt lat="45.99497" lon="1.29258">
        <ele>408</ele>
        <time>2022-06-12T09:00:41Z</time>
      </trkpt>
      <trkpt lat="45.99497" lon="1.29255">
        <ele>408.2</ele>
        <time>2022-06-12T09:00:42Z</time>
      </trkpt>
      <trkpt lat="45.99497" lon="1.29231">
        <ele>408.6</ele>
        <time>2022-06-12T09:00:49Z</time>
      </trkpt>
      <trkpt lat="45.99495" lon="1.29216">
        <ele>409.2</ele>
        <time>2022-06-12T09:00:55Z</time>
      </trkpt>
      <trkpt lat="45.99496" lon="1.29209">
        <ele>409</ele>
        <time>2022-06-12T09:01:00Z</time>
      </trkpt>
      <trkpt lat="45.99496" lon="1.29206">
        <ele>408.8</ele>
        <time>2022-06-12T09:01:02Z</time>
      </trkpt>
      <trkpt lat="45.99497" lon="1.29203">
        <ele>408.8</ele>
        <time>2022-06-12T09:01:04Z</time>
      </trkpt>
      <trkpt lat="45.99501" lon="1.29192">
        <ele>408.6</ele>
        <time>2022-06-12T09:01:10Z</time>
      </trkpt>
      <trkpt lat="45.995" lon="1.29191">
        <ele>408.6</ele>
        <time>2022-06-12T09:01:11Z</time>
      </trkpt>
      <trkpt lat="45.99498" lon="1.29194">
        <ele>408</ele>
        <time>2022-06-12T09:08:33Z</time>
      </trkpt>
      <trkpt lat="45.99497" lon="1.29194">
        <ele>408</ele>
        <time>2022-06-12T09:08:40Z</time>
      </trkpt>
      <trkpt lat="45.99497" lon="1.29195">
        <ele>408</ele>
        <time>2022-06-12T09:08:55Z</time>
      </trkpt>
      <trkpt lat="45.99497" lon="1.292">
        <ele>408</ele>
        <time>2022-06-12T09:09:09Z</time>
      </trkpt>
      <trkpt lat="45.99489" lon="1.29204">
        <ele>408</ele>
        <time>2022-06-12T09:09:17Z</time>
      </trkpt>
      <trkpt lat="45.99477" lon="1.292">
        <ele>408.4</ele>
        <time>2022-06-12T09:09:23Z</time>
      </trkpt>
      <trkpt lat="45.9946" lon="1.29203">
        <ele>408.4</ele>
        <time>2022-06-12T09:09:29Z</time>
      </trkpt>
      <trkpt lat="45.99445" lon="1.29209">
        <ele>409</ele>
        <time>2022-06-12T09:09:35Z</time>
      </trkpt>
      <trkpt lat="45.9944" lon="1.29212">
        <ele>409.6</ele>
        <time>2022-06-12T09:09:37Z</time>
      </trkpt>
      <trkpt lat="45.99429" lon="1.29225">
        <ele>410.4</ele>
        <time>2022-06-12T09:09:42Z</time>
      </trkpt>
      <trkpt lat="45.99427" lon="1.29227">
        <ele>410.6</ele>
        <time>2022-06-12T09:09:43Z</time>
      </trkpt>
      <trkpt lat="45.99419" lon="1.29233">
        <ele>411.6</ele>
        <time>2022-06-12T09:09:46Z</time>
      </trkpt>
      <trkpt lat="45.99415" lon="1.29233">
        <ele>412.2</ele>
        <time>2022-06-12T09:09:48Z</time>
      </trkpt>
      <trkpt lat="45.9941" lon="1.29232">
        <ele>412.6</ele>
        <time>2022-06-12T09:09:50Z</time>
      </trkpt>
      <trkpt lat="45.99397" lon="1.2923">
        <ele>413.2</ele>
        <time>2022-06-12T09:09:55Z</time>
      </trkpt>
      <trkpt lat="45.9939" lon="1.2923">
        <ele>414</ele>
        <time>2022-06-12T09:09:58Z</time>
      </trkpt>
      <trkpt lat="45.99382" lon="1.29228">
        <ele>415</ele>
        <time>2022-06-12T09:10:02Z</time>
      </trkpt>
      <trkpt lat="45.99381" lon="1.29227">
        <ele>415.4</ele>
        <time>2022-06-12T09:10:03Z</time>
      </trkpt>
      <trkpt lat="45.99372" lon="1.29225">
        <ele>416.6</ele>
        <time>2022-06-12T09:10:08Z</time>
      </trkpt>
      <trkpt lat="45.99369" lon="1.29225">
        <ele>417.4</ele>
        <time>2022-06-12T09:10:10Z</time>
      </trkpt>
      <trkpt lat="45.99368" lon="1.29225">
        <ele>417.8</ele>
        <time>2022-06-12T09:10:11Z</time>
      </trkpt>
      <trkpt lat="45.99362" lon="1.29226">
        <ele>418.8</ele>
        <time>2022-06-12T09:10:15Z</time>
      </trkpt>
      <trkpt lat="45.99356" lon="1.29227">
        <ele>419.6</ele>
        <time>2022-06-12T09:10:19Z</time>
      </trkpt>
      <trkpt lat="45.99354" lon="1.29228">
        <ele>420</ele>
        <time>2022-06-12T09:10:20Z</time>
      </trkpt>
      <trkpt lat="45.99344" lon="1.29231">
        <ele>421.2</ele>
        <time>2022-06-12T09:10:25Z</time>
      </trkpt>
      <trkpt lat="45.99328" lon="1.29235">
        <ele>422.4</ele>
        <time>2022-06-12T09:10:32Z</time>
      </trkpt>
      <trkpt lat="45.99325" lon="1.29235">
        <ele>422.6</ele>
        <time>2022-06-12T09:10:33Z</time>
      </trkpt>
      <trkpt lat="45.99305" lon="1.29238">
        <ele>423</ele>
        <time>2022-06-12T09:10:40Z</time>
      </trkpt>
      <trkpt lat="45.99288" lon="1.29236">
        <ele>423.2</ele>
        <time>2022-06-12T09:10:46Z</time>
      </trkpt>
      <trkpt lat="45.99272" lon="1.29236">
        <ele>423.4</ele>
        <time>2022-06-12T09:10:50Z</time>
      </trkpt>
      <trkpt lat="45.99261" lon="1.29237">
        <ele>423.8</ele>
        <time>2022-06-12T09:10:53Z</time>
      </trkpt>
      <trkpt lat="45.99235" lon="1.29237">
        <ele>424.2</ele>
        <time>2022-06-12T09:10:59Z</time>
      </trkpt>
      <trkpt lat="45.99229" lon="1.29238">
        <ele>424.4</ele>
        <time>2022-06-12T09:11:01Z</time>
      </trkpt>
      <trkpt lat="45.99217" lon="1.29244">
        <ele>425.4</ele>
        <time>2022-06-12T09:11:05Z</time>
      </trkpt>
      <trkpt lat="45.99214" lon="1.29246">
        <ele>425.8</ele>
        <time>2022-06-12T09:11:06Z</time>
      </trkpt>
      <trkpt lat="45.99204" lon="1.29251">
        <ele>426.8</ele>
        <time>2022-06-12T09:11:09Z</time>
      </trkpt>
      <trkpt lat="45.99198" lon="1.29253">
        <ele>427.6</ele>
        <time>2022-06-12T09:11:11Z</time>
      </trkpt>
      <trkpt lat="45.99191" lon="1.29255">
        <ele>428</ele>
        <time>2022-06-12T09:11:13Z</time>
      </trkpt>
      <trkpt lat="45.99173" lon="1.29255">
        <ele>429</ele>
        <time>2022-06-12T09:11:19Z</time>
      </trkpt>
      <trkpt lat="45.9917" lon="1.29255">
        <ele>429.2</ele>
        <time>2022-06-12T09:11:20Z</time>
      </trkpt>
      <trkpt lat="45.99165" lon="1.29253">
        <ele>430.2</ele>
        <time>2022-06-12T09:11:22Z</time>
      </trkpt>
      <trkpt lat="45.99156" lon="1.29249">
        <ele>431.2</ele>
        <time>2022-06-12T09:11:26Z</time>
      </trkpt>
      <trkpt lat="45.99153" lon="1.29248">
        <ele>431.4</ele>
        <time>2022-06-12T09:11:27Z</time>
      </trkpt>
      <trkpt lat="45.99129" lon="1.29244">
        <ele>432</ele>
        <time>2022-06-12T09:11:35Z</time>
      </trkpt>
      <trkpt lat="45.99121" lon="1.29244">
        <ele>432.4</ele>
        <time>2022-06-12T09:11:37Z</time>
      </trkpt>
      <trkpt lat="45.99099" lon="1.29241">
        <ele>432.6</ele>
        <time>2022-06-12T09:11:43Z</time>
      </trkpt>
      <trkpt lat="45.99072" lon="1.29238">
        <ele>432.8</ele>
        <time>2022-06-12T09:11:50Z</time>
      </trkpt>
      <trkpt lat="45.99054" lon="1.29237">
        <ele>433.4</ele>
        <time>2022-06-12T09:11:56Z</time>
      </trkpt>
      <trkpt lat="45.99036" lon="1.29232">
        <ele>434.6</ele>
        <time>2022-06-12T09:12:02Z</time>
      </trkpt>
      <trkpt lat="45.99029" lon="1.2923">
        <ele>434.8</ele>
        <time>2022-06-12T09:12:04Z</time>
      </trkpt>
      <trkpt lat="45.99006" lon="1.2923">
        <ele>435.6</ele>
        <time>2022-06-12T09:12:11Z</time>
      </trkpt>
      <trkpt lat="45.99002" lon="1.2923">
        <ele>435.6</ele>
        <time>2022-06-12T09:12:12Z</time>
      </trkpt>
      <trkpt lat="45.98983" lon="1.29231">
        <ele>436</ele>
        <time>2022-06-12T09:12:16Z</time>
      </trkpt>
      <trkpt lat="45.98978" lon="1.29231">
        <ele>435.8</ele>
        <time>2022-06-12T09:12:17Z</time>
      </trkpt>
      <trkpt lat="45.98938" lon="1.29229">
        <ele>435.2</ele>
        <time>2022-06-12T09:12:25Z</time>
      </trkpt>
      <trkpt lat="45.98933" lon="1.2923">
        <ele>435.2</ele>
        <time>2022-06-12T09:12:26Z</time>
      </trkpt>
      <trkpt lat="45.98908" lon="1.29235">
        <ele>434.4</ele>
        <time>2022-06-12T09:12:31Z</time>
      </trkpt>
      <trkpt lat="45.98904" lon="1.29236">
        <ele>434.2</ele>
        <time>2022-06-12T09:12:32Z</time>
      </trkpt>
      <trkpt lat="45.98882" lon="1.29241">
        <ele>434.6</ele>
        <time>2022-06-12T09:12:37Z</time>
      </trkpt>
      <trkpt lat="45.98847" lon="1.2925">
        <ele>434.2</ele>
        <time>2022-06-12T09:12:44Z</time>
      </trkpt>
      <trkpt lat="45.98833" lon="1.29255">
        <ele>434.4</ele>
        <time>2022-06-12T09:12:47Z</time>
      </trkpt>
      <trkpt lat="45.98826" lon="1.29261">
        <ele>434</ele>
        <time>2022-06-12T09:12:49Z</time>
      </trkpt>
      <trkpt lat="45.988" lon="1.29289">
        <ele>434</ele>
        <time>2022-06-12T09:12:56Z</time>
      </trkpt>
      <trkpt lat="45.98792" lon="1.29295">
        <ele>434.2</ele>
        <time>2022-06-12T09:12:58Z</time>
      </trkpt>
      <trkpt lat="45.98782" lon="1.29304">
        <ele>434.8</ele>
        <time>2022-06-12T09:13:01Z</time>
      </trkpt>
      <trkpt lat="45.98772" lon="1.29309">
        <ele>435.6</ele>
        <time>2022-06-12T09:13:04Z</time>
      </trkpt>
      <trkpt lat="45.98758" lon="1.29316">
        <ele>436.6</ele>
        <time>2022-06-12T09:13:08Z</time>
      </trkpt>
      <trkpt lat="45.98747" lon="1.29324">
        <ele>438</ele>
        <time>2022-06-12T09:13:12Z</time>
      </trkpt>
      <trkpt lat="45.98741" lon="1.29328">
        <ele>438.4</ele>
        <time>2022-06-12T09:13:14Z</time>
      </trkpt>
      <trkpt lat="45.98735" lon="1.29331">
        <ele>439.2</ele>
        <time>2022-06-12T09:13:16Z</time>
      </trkpt>
      <trkpt lat="45.98729" lon="1.29335">
        <ele>440.2</ele>
        <time>2022-06-12T09:13:18Z</time>
      </trkpt>
      <trkpt lat="45.98719" lon="1.2934">
        <ele>441</ele>
        <time>2022-06-12T09:13:21Z</time>
      </trkpt>
      <trkpt lat="45.98712" lon="1.29341">
        <ele>441.4</ele>
        <time>2022-06-12T09:13:23Z</time>
      </trkpt>
      <trkpt lat="45.98705" lon="1.29343">
        <ele>442.4</ele>
        <time>2022-06-12T09:13:25Z</time>
      </trkpt>
      <trkpt lat="45.9869" lon="1.29346">
        <ele>443.4</ele>
        <time>2022-06-12T09:13:29Z</time>
      </trkpt>
      <trkpt lat="45.98687" lon="1.29347">
        <ele>443.6</ele>
        <time>2022-06-12T09:13:30Z</time>
      </trkpt>
      <trkpt lat="45.98663" lon="1.29351">
        <ele>444.6</ele>
        <time>2022-06-12T09:13:37Z</time>
      </trkpt>
      <trkpt lat="45.98659" lon="1.29352">
        <ele>445</ele>
        <time>2022-06-12T09:13:38Z</time>
      </trkpt>
      <trkpt lat="45.98638" lon="1.29359">
        <ele>445.8</ele>
        <time>2022-06-12T09:13:44Z</time>
      </trkpt>
      <trkpt lat="45.98632" lon="1.29361">
        <ele>446</ele>
        <time>2022-06-12T09:13:46Z</time>
      </trkpt>
      <trkpt lat="45.9861" lon="1.29371">
        <ele>446</ele>
        <time>2022-06-12T09:13:53Z</time>
      </trkpt>
      <trkpt lat="45.98599" lon="1.29379">
        <ele>445</ele>
        <time>2022-06-12T09:13:56Z</time>
      </trkpt>
      <trkpt lat="45.98594" lon="1.29384">
        <ele>444.6</ele>
        <time>2022-06-12T09:13:57Z</time>
      </trkpt>
      <trkpt lat="45.9859" lon="1.29389">
        <ele>444.4</ele>
        <time>2022-06-12T09:13:58Z</time>
      </trkpt>
      <trkpt lat="45.98578" lon="1.29411">
        <ele>443.6</ele>
        <time>2022-06-12T09:14:02Z</time>
      </trkpt>
      <trkpt lat="45.98574" lon="1.2942">
        <ele>443.4</ele>
        <time>2022-06-12T09:14:03Z</time>
      </trkpt>
      <trkpt lat="45.98571" lon="1.2943">
        <ele>443.2</ele>
        <time>2022-06-12T09:14:04Z</time>
      </trkpt>
      <trkpt lat="45.98565" lon="1.29448">
        <ele>442.4</ele>
        <time>2022-06-12T09:14:06Z</time>
      </trkpt>
      <trkpt lat="45.98557" lon="1.2946">
        <ele>441</ele>
        <time>2022-06-12T09:14:08Z</time>
      </trkpt>
      <trkpt lat="45.98552" lon="1.29465">
        <ele>440.2</ele>
        <time>2022-06-12T09:14:09Z</time>
      </trkpt>
      <trkpt lat="45.98546" lon="1.2947">
        <ele>439.8</ele>
        <time>2022-06-12T09:14:10Z</time>
      </trkpt>
      <trkpt lat="45.9854" lon="1.29476">
        <ele>439.4</ele>
        <time>2022-06-12T09:14:11Z</time>
      </trkpt>
      <trkpt lat="45.98531" lon="1.29488">
        <ele>438.4</ele>
        <time>2022-06-12T09:14:13Z</time>
      </trkpt>
      <trkpt lat="45.98525" lon="1.29503">
        <ele>437</ele>
        <time>2022-06-12T09:14:16Z</time>
      </trkpt>
      <trkpt lat="45.98523" lon="1.29506">
        <ele>437</ele>
        <time>2022-06-12T09:14:17Z</time>
      </trkpt>
      <trkpt lat="45.98519" lon="1.29527">
        <ele>436.4</ele>
        <time>2022-06-12T09:14:22Z</time>
      </trkpt>
      <trkpt lat="45.98521" lon="1.29538">
        <ele>436.4</ele>
        <time>2022-06-12T09:14:25Z</time>
      </trkpt>
      <trkpt lat="45.98522" lon="1.29541">
        <ele>436.4</ele>
        <time>2022-06-12T09:14:26Z</time>
      </trkpt>
      <trkpt lat="45.98529" lon="1.2955">
        <ele>436</ele>
        <time>2022-06-12T09:14:29Z</time>
      </trkpt>
      <trkpt lat="45.98534" lon="1.29557">
        <ele>435.8</ele>
        <time>2022-06-12T09:14:31Z</time>
      </trkpt>
      <trkpt lat="45.98547" lon="1.29572">
        <ele>435.8</ele>
        <time>2022-06-12T09:14:35Z</time>
      </trkpt>
      <trkpt lat="45.98554" lon="1.2958">
        <ele>436.2</ele>
        <time>2022-06-12T09:14:37Z</time>
      </trkpt>
      <trkpt lat="45.98569" lon="1.29602">
        <ele>437.2</ele>
        <time>2022-06-12T09:14:43Z</time>
      </trkpt>
      <trkpt lat="45.98574" lon="1.29615">
        <ele>438.6</ele>
        <time>2022-06-12T09:14:48Z</time>
      </trkpt>
      <trkpt lat="45.98577" lon="1.29624">
        <ele>439.6</ele>
        <time>2022-06-12T09:14:51Z</time>
      </trkpt>
      <trkpt lat="45.9858" lon="1.29634">
        <ele>440.6</ele>
        <time>2022-06-12T09:14:54Z</time>
      </trkpt>
      <trkpt lat="45.98581" lon="1.29637">
        <ele>441</ele>
        <time>2022-06-12T09:14:55Z</time>
      </trkpt>
      <trkpt lat="45.98584" lon="1.29649">
        <ele>441.8</ele>
        <time>2022-06-12T09:14:59Z</time>
      </trkpt>
      <trkpt lat="45.98585" lon="1.29657">
        <ele>442.8</ele>
        <time>2022-06-12T09:15:02Z</time>
      </trkpt>
      <trkpt lat="45.98586" lon="1.29665">
        <ele>444</ele>
        <time>2022-06-12T09:15:05Z</time>
      </trkpt>
      <trkpt lat="45.98592" lon="1.2968">
        <ele>445.4</ele>
        <time>2022-06-12T09:15:10Z</time>
      </trkpt>
      <trkpt lat="45.98594" lon="1.29685">
        <ele>445.8</ele>
        <time>2022-06-12T09:15:12Z</time>
      </trkpt>
      <trkpt lat="45.98595" lon="1.29691">
        <ele>446.4</ele>
        <time>2022-06-12T09:15:14Z</time>
      </trkpt>
      <trkpt lat="45.98597" lon="1.297">
        <ele>447</ele>
        <time>2022-06-12T09:15:17Z</time>
      </trkpt>
      <trkpt lat="45.98601" lon="1.29722">
        <ele>447.4</ele>
        <time>2022-06-12T09:15:23Z</time>
      </trkpt>
      <trkpt lat="45.98608" lon="1.29749">
        <ele>447.4</ele>
        <time>2022-06-12T09:15:28Z</time>
      </trkpt>
      <trkpt lat="45.98622" lon="1.29798">
        <ele>445.6</ele>
        <time>2022-06-12T09:15:35Z</time>
      </trkpt>
      <trkpt lat="45.98622" lon="1.29804">
        <ele>445.2</ele>
        <time>2022-06-12T09:15:36Z</time>
      </trkpt>
      <trkpt lat="45.98619" lon="1.29809">
        <ele>444.8</ele>
        <time>2022-06-12T09:15:37Z</time>
      </trkpt>
      <trkpt lat="45.98616" lon="1.29812">
        <ele>444.6</ele>
        <time>2022-06-12T09:15:38Z</time>
      </trkpt>
      <trkpt lat="45.9861" lon="1.29817">
        <ele>444</ele>
        <time>2022-06-12T09:15:40Z</time>
      </trkpt>
      <trkpt lat="45.98606" lon="1.29827">
        <ele>442.8</ele>
        <time>2022-06-12T09:15:42Z</time>
      </trkpt>
      <trkpt lat="45.98598" lon="1.29847">
        <ele>442</ele>
        <time>2022-06-12T09:15:45Z</time>
      </trkpt>
      <trkpt lat="45.98593" lon="1.29858">
        <ele>442</ele>
        <time>2022-06-12T09:15:47Z</time>
      </trkpt>
      <trkpt lat="45.98588" lon="1.29868">
        <ele>441.8</ele>
        <time>2022-06-12T09:15:49Z</time>
      </trkpt>
      <trkpt lat="45.98582" lon="1.29874">
        <ele>441.6</ele>
        <time>2022-06-12T09:15:51Z</time>
      </trkpt>
      <trkpt lat="45.98579" lon="1.29878">
        <ele>441.6</ele>
        <time>2022-06-12T09:15:52Z</time>
      </trkpt>
      <trkpt lat="45.98572" lon="1.29894">
        <ele>440.8</ele>
        <time>2022-06-12T09:15:55Z</time>
      </trkpt>
      <trkpt lat="45.98572" lon="1.29901">
        <ele>440.4</ele>
        <time>2022-06-12T09:15:56Z</time>
      </trkpt>
      <trkpt lat="45.98571" lon="1.29908">
        <ele>440.2</ele>
        <time>2022-06-12T09:15:57Z</time>
      </trkpt>
      <trkpt lat="45.98572" lon="1.29922">
        <ele>440</ele>
        <time>2022-06-12T09:15:59Z</time>
      </trkpt>
      <trkpt lat="45.9857" lon="1.29938">
        <ele>440.2</ele>
        <time>2022-06-12T09:16:02Z</time>
      </trkpt>
      <trkpt lat="45.98566" lon="1.29945">
        <ele>441</ele>
        <time>2022-06-12T09:16:04Z</time>
      </trkpt>
      <trkpt lat="45.98562" lon="1.2995">
        <ele>441.4</ele>
        <time>2022-06-12T09:16:06Z</time>
      </trkpt>
      <trkpt lat="45.98559" lon="1.29952">
        <ele>441.6</ele>
        <time>2022-06-12T09:16:07Z</time>
      </trkpt>
      <trkpt lat="45.98539" lon="1.29963">
        <ele>440.4</ele>
        <time>2022-06-12T09:16:12Z</time>
      </trkpt>
      <trkpt lat="45.98536" lon="1.29965">
        <ele>440</ele>
        <time>2022-06-12T09:16:13Z</time>
      </trkpt>
      <trkpt lat="45.98533" lon="1.29968">
        <ele>439</ele>
        <time>2022-06-12T09:16:14Z</time>
      </trkpt>
      <trkpt lat="45.98533" lon="1.29971">
        <ele>438.2</ele>
        <time>2022-06-12T09:16:15Z</time>
      </trkpt>
      <trkpt lat="45.98531" lon="1.29976">
        <ele>437.8</ele>
        <time>2022-06-12T09:16:16Z</time>
      </trkpt>
      <trkpt lat="45.98525" lon="1.29999">
        <ele>436.8</ele>
        <time>2022-06-12T09:16:20Z</time>
      </trkpt>
      <trkpt lat="45.98525" lon="1.30004">
        <ele>436.8</ele>
        <time>2022-06-12T09:16:21Z</time>
      </trkpt>
      <trkpt lat="45.98526" lon="1.30017">
        <ele>438</ele>
        <time>2022-06-12T09:16:25Z</time>
      </trkpt>
      <trkpt lat="45.98526" lon="1.3002">
        <ele>438.2</ele>
        <time>2022-06-12T09:16:26Z</time>
      </trkpt>
      <trkpt lat="45.98523" lon="1.30029">
        <ele>439.4</ele>
        <time>2022-06-12T09:16:29Z</time>
      </trkpt>
      <trkpt lat="45.9852" lon="1.30032">
        <ele>440.2</ele>
        <time>2022-06-12T09:16:31Z</time>
      </trkpt>
      <trkpt lat="45.98518" lon="1.30033">
        <ele>440.6</ele>
        <time>2022-06-12T09:16:32Z</time>
      </trkpt>
      <trkpt lat="45.98512" lon="1.30037">
        <ele>441.6</ele>
        <time>2022-06-12T09:16:36Z</time>
      </trkpt>
      <trkpt lat="45.98509" lon="1.30041">
        <ele>442.4</ele>
        <time>2022-06-12T09:16:39Z</time>
      </trkpt>
      <trkpt lat="45.98508" lon="1.30042">
        <ele>442.6</ele>
        <time>2022-06-12T09:16:40Z</time>
      </trkpt>
      <trkpt lat="45.98504" lon="1.30046">
        <ele>443.8</ele>
        <time>2022-06-12T09:16:43Z</time>
      </trkpt>
      <trkpt lat="45.98499" lon="1.30052">
        <ele>444.8</ele>
        <time>2022-06-12T09:16:47Z</time>
      </trkpt>
      <trkpt lat="45.98498" lon="1.30053">
        <ele>445</ele>
        <time>2022-06-12T09:16:48Z</time>
      </trkpt>
      <trkpt lat="45.98496" lon="1.30059">
        <ele>445.8</ele>
        <time>2022-06-12T09:16:51Z</time>
      </trkpt>
      <trkpt lat="45.98491" lon="1.3007">
        <ele>447</ele>
        <time>2022-06-12T09:16:57Z</time>
      </trkpt>
      <trkpt lat="45.9849" lon="1.30079">
        <ele>448</ele>
        <time>2022-06-12T09:17:01Z</time>
      </trkpt>
      <trkpt lat="45.98489" lon="1.30083">
        <ele>448.2</ele>
        <time>2022-06-12T09:17:03Z</time>
      </trkpt>
      <trkpt lat="45.98489" lon="1.30089">
        <ele>449.2</ele>
        <time>2022-06-12T09:17:06Z</time>
      </trkpt>
      <trkpt lat="45.9849" lon="1.30096">
        <ele>450</ele>
        <time>2022-06-12T09:17:10Z</time>
      </trkpt>
      <trkpt lat="45.9849" lon="1.30098">
        <ele>450.4</ele>
        <time>2022-06-12T09:17:11Z</time>
      </trkpt>
      <trkpt lat="45.9849" lon="1.30105">
        <ele>451.4</ele>
        <time>2022-06-12T09:17:16Z</time>
      </trkpt>
      <trkpt lat="45.9849" lon="1.30106">
        <ele>451.4</ele>
        <time>2022-06-12T09:17:17Z</time>
      </trkpt>
      <trkpt lat="45.9849" lon="1.3011">
        <ele>451.8</ele>
        <time>2022-06-12T09:17:19Z</time>
      </trkpt>
      <trkpt lat="45.98489" lon="1.30112">
        <ele>452.6</ele>
        <time>2022-06-12T09:17:21Z</time>
      </trkpt>
      <trkpt lat="45.98489" lon="1.30113">
        <ele>452.8</ele>
        <time>2022-06-12T09:17:22Z</time>
      </trkpt>
      <trkpt lat="45.98488" lon="1.30115">
        <ele>453.4</ele>
        <time>2022-06-12T09:17:24Z</time>
      </trkpt>
      <trkpt lat="45.98488" lon="1.30116">
        <ele>453.4</ele>
        <time>2022-06-12T09:17:25Z</time>
      </trkpt>
      <trkpt lat="45.98488" lon="1.30117">
        <ele>453.6</ele>
        <time>2022-06-12T09:17:26Z</time>
      </trkpt>
      <trkpt lat="45.98487" lon="1.30119">
        <ele>454</ele>
        <time>2022-06-12T09:17:28Z</time>
      </trkpt>
      <trkpt lat="45.98485" lon="1.30123">
        <ele>454.4</ele>
        <time>2022-06-12T09:17:30Z</time>
      </trkpt>
      <trkpt lat="45.98483" lon="1.30126">
        <ele>454.6</ele>
        <time>2022-06-12T09:17:32Z</time>
      </trkpt>
      <trkpt lat="45.98477" lon="1.30133">
        <ele>455.8</ele>
        <time>2022-06-12T09:17:38Z</time>
      </trkpt>
      <trkpt lat="45.98476" lon="1.30135">
        <ele>456</ele>
        <time>2022-06-12T09:17:39Z</time>
      </trkpt>
      <trkpt lat="45.98473" lon="1.3014">
        <ele>457</ele>
        <time>2022-06-12T09:17:42Z</time>
      </trkpt>
      <trkpt lat="45.9847" lon="1.30147">
        <ele>458.2</ele>
        <time>2022-06-12T09:17:47Z</time>
      </trkpt>
      <trkpt lat="45.98469" lon="1.30148">
        <ele>458.2</ele>
        <time>2022-06-12T09:17:48Z</time>
      </trkpt>
      <trkpt lat="45.98464" lon="1.30159">
        <ele>459.6</ele>
        <time>2022-06-12T09:17:55Z</time>
      </trkpt>
      <trkpt lat="45.98462" lon="1.30163">
        <ele>460.2</ele>
        <time>2022-06-12T09:17:58Z</time>
      </trkpt>
      <trkpt lat="45.98461" lon="1.30163">
        <ele>460.2</ele>
        <time>2022-06-12T09:17:59Z</time>
      </trkpt>
      <trkpt lat="45.98461" lon="1.30164">
        <ele>460.8</ele>
        <time>2022-06-12T09:18:00Z</time>
      </trkpt>
      <trkpt lat="45.98459" lon="1.30168">
        <ele>461.6</ele>
        <time>2022-06-12T09:18:02Z</time>
      </trkpt>
      <trkpt lat="45.98458" lon="1.30171">
        <ele>461.8</ele>
        <time>2022-06-12T09:18:04Z</time>
      </trkpt>
      <trkpt lat="45.98457" lon="1.30172">
        <ele>462</ele>
        <time>2022-06-12T09:18:05Z</time>
      </trkpt>
      <trkpt lat="45.98455" lon="1.30175">
        <ele>462.4</ele>
        <time>2022-06-12T09:18:07Z</time>
      </trkpt>
      <trkpt lat="45.98453" lon="1.30178">
        <ele>463</ele>
        <time>2022-06-12T09:18:09Z</time>
      </trkpt>
      <trkpt lat="45.98453" lon="1.30178">
        <ele>463.2</ele>
        <time>2022-06-12T09:18:10Z</time>
      </trkpt>
      <trkpt lat="45.98451" lon="1.30181">
        <ele>463.4</ele>
        <time>2022-06-12T09:18:12Z</time>
      </trkpt>
      <trkpt lat="45.98448" lon="1.30184">
        <ele>464.2</ele>
        <time>2022-06-12T09:18:15Z</time>
      </trkpt>
      <trkpt lat="45.98448" lon="1.30184">
        <ele>464.4</ele>
        <time>2022-06-12T09:18:16Z</time>
      </trkpt>
      <trkpt lat="45.98446" lon="1.30185">
        <ele>465.2</ele>
        <time>2022-06-12T09:18:18Z</time>
      </trkpt>
      <trkpt lat="45.98445" lon="1.30187">
        <ele>465.8</ele>
        <time>2022-06-12T09:18:20Z</time>
      </trkpt>
      <trkpt lat="45.98444" lon="1.30188">
        <ele>465.8</ele>
        <time>2022-06-12T09:18:21Z</time>
      </trkpt>
      <trkpt lat="45.98443" lon="1.3019">
        <ele>466.4</ele>
        <time>2022-06-12T09:18:23Z</time>
      </trkpt>
      <trkpt lat="45.9844" lon="1.30194">
        <ele>467.2</ele>
        <time>2022-06-12T09:18:27Z</time>
      </trkpt>
      <trkpt lat="45.9844" lon="1.30194">
        <ele>467.6</ele>
        <time>2022-06-12T09:18:28Z</time>
      </trkpt>
      <trkpt lat="45.98436" lon="1.30197">
        <ele>468.2</ele>
        <time>2022-06-12T09:18:32Z</time>
      </trkpt>
      <trkpt lat="45.98435" lon="1.30198">
        <ele>468.6</ele>
        <time>2022-06-12T09:18:33Z</time>
      </trkpt>
      <trkpt lat="45.98434" lon="1.30199">
        <ele>469</ele>
        <time>2022-06-12T09:18:35Z</time>
      </trkpt>
      <trkpt lat="45.98432" lon="1.30199">
        <ele>469.2</ele>
        <time>2022-06-12T09:18:38Z</time>
      </trkpt>
      <trkpt lat="45.98431" lon="1.30199">
        <ele>469.4</ele>
        <time>2022-06-12T09:18:39Z</time>
      </trkpt>
      <trkpt lat="45.98428" lon="1.30199">
        <ele>469.6</ele>
        <time>2022-06-12T09:18:41Z</time>
      </trkpt>
      <trkpt lat="45.98423" lon="1.30198">
        <ele>470.2</ele>
        <time>2022-06-12T09:18:45Z</time>
      </trkpt>
      <trkpt lat="45.98422" lon="1.30198">
        <ele>470.2</ele>
        <time>2022-06-12T09:18:46Z</time>
      </trkpt>
      <trkpt lat="45.98421" lon="1.30197">
        <ele>470.8</ele>
        <time>2022-06-12T09:18:48Z</time>
      </trkpt>
      <trkpt lat="45.98412" lon="1.30197">
        <ele>471.6</ele>
        <time>2022-06-12T09:18:56Z</time>
      </trkpt>
      <trkpt lat="45.98408" lon="1.30198">
        <ele>472</ele>
        <time>2022-06-12T09:18:59Z</time>
      </trkpt>
      <trkpt lat="45.98404" lon="1.30203">
        <ele>473.4</ele>
        <time>2022-06-12T09:19:04Z</time>
      </trkpt>
      <trkpt lat="45.98401" lon="1.30207">
        <ele>473.8</ele>
        <time>2022-06-12T09:19:08Z</time>
      </trkpt>
      <trkpt lat="45.98398" lon="1.30209">
        <ele>474.6</ele>
        <time>2022-06-12T09:19:11Z</time>
      </trkpt>
      <trkpt lat="45.98394" lon="1.30213">
        <ele>475</ele>
        <time>2022-06-12T09:19:14Z</time>
      </trkpt>
      <trkpt lat="45.98389" lon="1.30222">
        <ele>475.8</ele>
        <time>2022-06-12T09:19:19Z</time>
      </trkpt>
      <trkpt lat="45.98389" lon="1.30224">
        <ele>476</ele>
        <time>2022-06-12T09:19:20Z</time>
      </trkpt>
      <trkpt lat="45.98385" lon="1.30239">
        <ele>476.8</ele>
        <time>2022-06-12T09:19:27Z</time>
      </trkpt>
      <trkpt lat="45.98382" lon="1.30251">
        <ele>477.6</ele>
        <time>2022-06-12T09:19:32Z</time>
      </trkpt>
      <trkpt lat="45.98381" lon="1.30254">
        <ele>478</ele>
        <time>2022-06-12T09:19:33Z</time>
      </trkpt>
      <trkpt lat="45.98377" lon="1.30266">
        <ele>478.6</ele>
        <time>2022-06-12T09:19:39Z</time>
      </trkpt>
      <trkpt lat="45.98377" lon="1.3027">
        <ele>479</ele>
        <time>2022-06-12T09:19:41Z</time>
      </trkpt>
      <trkpt lat="45.98376" lon="1.30282">
        <ele>479.6</ele>
        <time>2022-06-12T09:19:48Z</time>
      </trkpt>
      <trkpt lat="45.98376" lon="1.30285">
        <ele>480.2</ele>
        <time>2022-06-12T09:19:50Z</time>
      </trkpt>
      <trkpt lat="45.98375" lon="1.30292">
        <ele>481.2</ele>
        <time>2022-06-12T09:19:54Z</time>
      </trkpt>
      <trkpt lat="45.98375" lon="1.30294">
        <ele>481.4</ele>
        <time>2022-06-12T09:19:55Z</time>
      </trkpt>
      <trkpt lat="45.98374" lon="1.30298">
        <ele>481.6</ele>
        <time>2022-06-12T09:19:57Z</time>
      </trkpt>
      <trkpt lat="45.98375" lon="1.30305">
        <ele>482.4</ele>
        <time>2022-06-12T09:20:00Z</time>
      </trkpt>
      <trkpt lat="45.98376" lon="1.30312">
        <ele>483</ele>
        <time>2022-06-12T09:20:04Z</time>
      </trkpt>
      <trkpt lat="45.98377" lon="1.3032">
        <ele>483.6</ele>
        <time>2022-06-12T09:20:08Z</time>
      </trkpt>
      <trkpt lat="45.98379" lon="1.30328">
        <ele>484</ele>
        <time>2022-06-12T09:20:12Z</time>
      </trkpt>
      <trkpt lat="45.98379" lon="1.30333">
        <ele>484.8</ele>
        <time>2022-06-12T09:20:15Z</time>
      </trkpt>
      <trkpt lat="45.98379" lon="1.30335">
        <ele>485</ele>
        <time>2022-06-12T09:20:16Z</time>
      </trkpt>
      <trkpt lat="45.98378" lon="1.30337">
        <ele>485.2</ele>
        <time>2022-06-12T09:20:17Z</time>
      </trkpt>
      <trkpt lat="45.98376" lon="1.30342">
        <ele>486</ele>
        <time>2022-06-12T09:20:20Z</time>
      </trkpt>
      <trkpt lat="45.98374" lon="1.30359">
        <ele>486.8</ele>
        <time>2022-06-12T09:20:28Z</time>
      </trkpt>
      <trkpt lat="45.98373" lon="1.30363">
        <ele>487</ele>
        <time>2022-06-12T09:20:30Z</time>
      </trkpt>
      <trkpt lat="45.98374" lon="1.30371">
        <ele>487.6</ele>
        <time>2022-06-12T09:20:34Z</time>
      </trkpt>
      <trkpt lat="45.98375" lon="1.30375">
        <ele>488</ele>
        <time>2022-06-12T09:20:36Z</time>
      </trkpt>
      <trkpt lat="45.98376" lon="1.30377">
        <ele>488.2</ele>
        <time>2022-06-12T09:20:37Z</time>
      </trkpt>
      <trkpt lat="45.98379" lon="1.30388">
        <ele>489.2</ele>
        <time>2022-06-12T09:20:42Z</time>
      </trkpt>
      <trkpt lat="45.98379" lon="1.3039">
        <ele>489.4</ele>
        <time>2022-06-12T09:20:43Z</time>
      </trkpt>
      <trkpt lat="45.98385" lon="1.30403">
        <ele>490.4</ele>
        <time>2022-06-12T09:20:50Z</time>
      </trkpt>
      <trkpt lat="45.98394" lon="1.30416">
        <ele>491.4</ele>
        <time>2022-06-12T09:20:58Z</time>
      </trkpt>
      <trkpt lat="45.98395" lon="1.30418">
        <ele>491.4</ele>
        <time>2022-06-12T09:20:59Z</time>
      </trkpt>
      <trkpt lat="45.98401" lon="1.30425">
        <ele>492.4</ele>
        <time>2022-06-12T09:21:04Z</time>
      </trkpt>
      <trkpt lat="45.98406" lon="1.30429">
        <ele>493</ele>
        <time>2022-06-12T09:21:08Z</time>
      </trkpt>
      <trkpt lat="45.98415" lon="1.30438">
        <ele>493.6</ele>
        <time>2022-06-12T09:21:13Z</time>
      </trkpt>
      <trkpt lat="45.98419" lon="1.30443">
        <ele>494</ele>
        <time>2022-06-12T09:21:15Z</time>
      </trkpt>
      <trkpt lat="45.98418" lon="1.30447">
        <ele>494.4</ele>
        <time>2022-06-12T09:21:17Z</time>
      </trkpt>
      <trkpt lat="45.98417" lon="1.30446">
        <ele>494.8</ele>
        <time>2022-06-12T09:21:19Z</time>
      </trkpt>
      <trkpt lat="45.98404" lon="1.30442">
        <ele>495.4</ele>
        <time>2022-06-12T09:21:26Z</time>
      </trkpt>
      <trkpt lat="45.98382" lon="1.30438">
        <ele>495.8</ele>
        <time>2022-06-12T09:21:34Z</time>
      </trkpt>
      <trkpt lat="45.98361" lon="1.30433">
        <ele>497</ele>
        <time>2022-06-12T09:21:40Z</time>
      </trkpt>
      <trkpt lat="45.98354" lon="1.30431">
        <ele>497</ele>
        <time>2022-06-12T09:21:42Z</time>
      </trkpt>
      <trkpt lat="45.98335" lon="1.30428">
        <ele>497</ele>
        <time>2022-06-12T09:21:47Z</time>
      </trkpt>
      <trkpt lat="45.9833" lon="1.30429">
        <ele>496.8</ele>
        <time>2022-06-12T09:21:48Z</time>
      </trkpt>
      <trkpt lat="45.98316" lon="1.30435">
        <ele>496.4</ele>
        <time>2022-06-12T09:21:51Z</time>
      </trkpt>
      <trkpt lat="45.98305" lon="1.30442">
        <ele>496</ele>
        <time>2022-06-12T09:21:53Z</time>
      </trkpt>
      <trkpt lat="45.98298" lon="1.30446">
        <ele>495.8</ele>
        <time>2022-06-12T09:21:54Z</time>
      </trkpt>
      <trkpt lat="45.98292" lon="1.3045">
        <ele>495.8</ele>
        <time>2022-06-12T09:21:55Z</time>
      </trkpt>
      <trkpt lat="45.98278" lon="1.30454">
        <ele>495.2</ele>
        <time>2022-06-12T09:21:57Z</time>
      </trkpt>
      <trkpt lat="45.98272" lon="1.30453">
        <ele>494.8</ele>
        <time>2022-06-12T09:21:58Z</time>
      </trkpt>
      <trkpt lat="45.98259" lon="1.30452">
        <ele>494.6</ele>
        <time>2022-06-12T09:22:01Z</time>
      </trkpt>
      <trkpt lat="45.98255" lon="1.30451">
        <ele>494.8</ele>
        <time>2022-06-12T09:22:02Z</time>
      </trkpt>
      <trkpt lat="45.98241" lon="1.30452">
        <ele>495.6</ele>
        <time>2022-06-12T09:22:06Z</time>
      </trkpt>
      <trkpt lat="45.98239" lon="1.30452">
        <ele>496</ele>
        <time>2022-06-12T09:22:07Z</time>
      </trkpt>
      <trkpt lat="45.98231" lon="1.30458">
        <ele>497</ele>
        <time>2022-06-12T09:22:11Z</time>
      </trkpt>
      <trkpt lat="45.98224" lon="1.30472">
        <ele>498.2</ele>
        <time>2022-06-12T09:22:16Z</time>
      </trkpt>
      <trkpt lat="45.98213" lon="1.30484">
        <ele>498.6</ele>
        <time>2022-06-12T09:22:20Z</time>
      </trkpt>
      <trkpt lat="45.98208" lon="1.30485">
        <ele>498.8</ele>
        <time>2022-06-12T09:22:22Z</time>
      </trkpt>
      <trkpt lat="45.98205" lon="1.30484">
        <ele>499</ele>
        <time>2022-06-12T09:22:24Z</time>
      </trkpt>
      <trkpt lat="45.98203" lon="1.30482">
        <ele>499.4</ele>
        <time>2022-06-12T09:22:26Z</time>
      </trkpt>
      <trkpt lat="45.98201" lon="1.30481">
        <ele>499.6</ele>
        <time>2022-06-12T09:22:28Z</time>
      </trkpt>
      <trkpt lat="45.98193" lon="1.3048">
        <ele>500.4</ele>
        <time>2022-06-12T09:22:32Z</time>
      </trkpt>
      <trkpt lat="45.98176" lon="1.30476">
        <ele>501.6</ele>
        <time>2022-06-12T09:22:38Z</time>
      </trkpt>
      <trkpt lat="45.98163" lon="1.30469">
        <ele>502.4</ele>
        <time>2022-06-12T09:22:44Z</time>
      </trkpt>
      <trkpt lat="45.98162" lon="1.30467">
        <ele>502.8</ele>
        <time>2022-06-12T09:22:45Z</time>
      </trkpt>
      <trkpt lat="45.98152" lon="1.30455">
        <ele>503.4</ele>
        <time>2022-06-12T09:22:50Z</time>
      </trkpt>
      <trkpt lat="45.98146" lon="1.30452">
        <ele>503.8</ele>
        <time>2022-06-12T09:22:52Z</time>
      </trkpt>
      <trkpt lat="45.98143" lon="1.30453">
        <ele>504.4</ele>
        <time>2022-06-12T09:22:54Z</time>
      </trkpt>
      <trkpt lat="45.98141" lon="1.30454">
        <ele>504.4</ele>
        <time>2022-06-12T09:22:55Z</time>
      </trkpt>
      <trkpt lat="45.9814" lon="1.30461">
        <ele>504.6</ele>
        <time>2022-06-12T09:22:59Z</time>
      </trkpt>
      <trkpt lat="45.9814" lon="1.30465">
        <ele>505</ele>
        <time>2022-06-12T09:23:01Z</time>
      </trkpt>
      <trkpt lat="45.98141" lon="1.30472">
        <ele>506</ele>
        <time>2022-06-12T09:23:06Z</time>
      </trkpt>
      <trkpt lat="45.98142" lon="1.30474">
        <ele>506.2</ele>
        <time>2022-06-12T09:23:07Z</time>
      </trkpt>
      <trkpt lat="45.98148" lon="1.30485">
        <ele>506.8</ele>
        <time>2022-06-12T09:23:13Z</time>
      </trkpt>
      <trkpt lat="45.98149" lon="1.30487">
        <ele>507</ele>
        <time>2022-06-12T09:23:14Z</time>
      </trkpt>
      <trkpt lat="45.98159" lon="1.30498">
        <ele>508</ele>
        <time>2022-06-12T09:23:20Z</time>
      </trkpt>
      <trkpt lat="45.98167" lon="1.30516">
        <ele>509.4</ele>
        <time>2022-06-12T09:23:27Z</time>
      </trkpt>
      <trkpt lat="45.98162" lon="1.30537">
        <ele>510.4</ele>
        <time>2022-06-12T09:23:34Z</time>
      </trkpt>
      <trkpt lat="45.98156" lon="1.3056">
        <ele>511.4</ele>
        <time>2022-06-12T09:23:40Z</time>
      </trkpt>
      <trkpt lat="45.98155" lon="1.30567">
        <ele>511.4</ele>
        <time>2022-06-12T09:23:42Z</time>
      </trkpt>
      <trkpt lat="45.98153" lon="1.30578">
        <ele>512</ele>
        <time>2022-06-12T09:23:45Z</time>
      </trkpt>
      <trkpt lat="45.98151" lon="1.30581">
        <ele>512</ele>
        <time>2022-06-12T09:23:46Z</time>
      </trkpt>
      <trkpt lat="45.98149" lon="1.30584">
        <ele>512.2</ele>
        <time>2022-06-12T09:23:47Z</time>
      </trkpt>
      <trkpt lat="45.98143" lon="1.30584">
        <ele>512.4</ele>
        <time>2022-06-12T09:23:50Z</time>
      </trkpt>
      <trkpt lat="45.98141" lon="1.30582">
        <ele>512.6</ele>
        <time>2022-06-12T09:23:51Z</time>
      </trkpt>
      <trkpt lat="45.98134" lon="1.30573">
        <ele>512.6</ele>
        <time>2022-06-12T09:23:55Z</time>
      </trkpt>
      <trkpt lat="45.98123" lon="1.30564">
        <ele>513</ele>
        <time>2022-06-12T09:24:01Z</time>
      </trkpt>
      <trkpt lat="45.98114" lon="1.30558">
        <ele>513.6</ele>
        <time>2022-06-12T09:24:05Z</time>
      </trkpt>
      <trkpt lat="45.98106" lon="1.30553">
        <ele>513.8</ele>
        <time>2022-06-12T09:24:08Z</time>
      </trkpt>
      <trkpt lat="45.98088" lon="1.30541">
        <ele>514</ele>
        <time>2022-06-12T09:24:14Z</time>
      </trkpt>
      <trkpt lat="45.9807" lon="1.30531">
        <ele>514.6</ele>
        <time>2022-06-12T09:24:19Z</time>
      </trkpt>
      <trkpt lat="45.98035" lon="1.30508">
        <ele>515.6</ele>
        <time>2022-06-12T09:24:28Z</time>
      </trkpt>
      <trkpt lat="45.98031" lon="1.30506">
        <ele>515.8</ele>
        <time>2022-06-12T09:24:29Z</time>
      </trkpt>
      <trkpt lat="45.98006" lon="1.30492">
        <ele>516.8</ele>
        <time>2022-06-12T09:24:36Z</time>
      </trkpt>
      <trkpt lat="45.98003" lon="1.30491">
        <ele>517</ele>
        <time>2022-06-12T09:24:37Z</time>
      </trkpt>
      <trkpt lat="45.97977" lon="1.30488">
        <ele>517.6</ele>
        <time>2022-06-12T09:24:45Z</time>
      </trkpt>
      <trkpt lat="45.97977" lon="1.30488">
        <ele>518</ele>
        <time>2022-06-12T09:24:46Z</time>
      </trkpt>
      <trkpt lat="45.97957" lon="1.30488">
        <ele>519.2</ele>
        <time>2022-06-12T09:24:51Z</time>
      </trkpt>
      <trkpt lat="45.9795" lon="1.30488">
        <ele>519.4</ele>
        <time>2022-06-12T09:24:53Z</time>
      </trkpt>
      <trkpt lat="45.97933" lon="1.30483">
        <ele>520.2</ele>
        <time>2022-06-12T09:24:59Z</time>
      </trkpt>
      <trkpt lat="45.97925" lon="1.3048">
        <ele>520.8</ele>
        <time>2022-06-12T09:25:02Z</time>
      </trkpt>
      <trkpt lat="45.97919" lon="1.30478">
        <ele>521.2</ele>
        <time>2022-06-12T09:25:04Z</time>
      </trkpt>
      <trkpt lat="45.97902" lon="1.30477">
        <ele>521.8</ele>
        <time>2022-06-12T09:25:10Z</time>
      </trkpt>
      <trkpt lat="45.9788" lon="1.30478">
        <ele>522.2</ele>
        <time>2022-06-12T09:25:17Z</time>
      </trkpt>
      <trkpt lat="45.97876" lon="1.30479">
        <ele>522.4</ele>
        <time>2022-06-12T09:25:18Z</time>
      </trkpt>
      <trkpt lat="45.97851" lon="1.30486">
        <ele>523.2</ele>
        <time>2022-06-12T09:25:25Z</time>
      </trkpt>
      <trkpt lat="45.9784" lon="1.30489">
        <ele>523.2</ele>
        <time>2022-06-12T09:25:28Z</time>
      </trkpt>
      <trkpt lat="45.97832" lon="1.30493">
        <ele>523.2</ele>
        <time>2022-06-12T09:25:30Z</time>
      </trkpt>
      <trkpt lat="45.97804" lon="1.30503">
        <ele>522.4</ele>
        <time>2022-06-12T09:25:36Z</time>
      </trkpt>
      <trkpt lat="45.97799" lon="1.30505">
        <ele>522.2</ele>
        <time>2022-06-12T09:25:37Z</time>
      </trkpt>
      <trkpt lat="45.97787" lon="1.30511">
        <ele>521.4</ele>
        <time>2022-06-12T09:25:39Z</time>
      </trkpt>
      <trkpt lat="45.97773" lon="1.3052">
        <ele>521</ele>
        <time>2022-06-12T09:25:41Z</time>
      </trkpt>
      <trkpt lat="45.97753" lon="1.30533">
        <ele>519.6</ele>
        <time>2022-06-12T09:25:44Z</time>
      </trkpt>
      <trkpt lat="45.97748" lon="1.30537">
        <ele>519</ele>
        <time>2022-06-12T09:25:45Z</time>
      </trkpt>
      <trkpt lat="45.97744" lon="1.30541">
        <ele>518</ele>
        <time>2022-06-12T09:25:46Z</time>
      </trkpt>
      <trkpt lat="45.97742" lon="1.30544">
        <ele>516.6</ele>
        <time>2022-06-12T09:25:47Z</time>
      </trkpt>
      <trkpt lat="45.9774" lon="1.30549">
        <ele>514.6</ele>
        <time>2022-06-12T09:25:49Z</time>
      </trkpt>
      <trkpt lat="45.97739" lon="1.30549">
        <ele>513.8</ele>
        <time>2022-06-12T09:25:50Z</time>
      </trkpt>
      <trkpt lat="45.97739" lon="1.3055">
        <ele>513.4</ele>
        <time>2022-06-12T09:25:51Z</time>
      </trkpt>
      <trkpt lat="45.97737" lon="1.30553">
        <ele>512.8</ele>
        <time>2022-06-12T09:25:55Z</time>
      </trkpt>
      <trkpt lat="45.97735" lon="1.30554">
        <ele>512.8</ele>
        <time>2022-06-12T09:25:56Z</time>
      </trkpt>
      <trkpt lat="45.97732" lon="1.30558">
        <ele>512.6</ele>
        <time>2022-06-12T09:25:58Z</time>
      </trkpt>
      <trkpt lat="45.97731" lon="1.30563">
        <ele>512.2</ele>
        <time>2022-06-12T09:25:59Z</time>
      </trkpt>
      <trkpt lat="45.97729" lon="1.30568">
        <ele>511.6</ele>
        <time>2022-06-12T09:26:00Z</time>
      </trkpt>
      <trkpt lat="45.97727" lon="1.30577">
        <ele>510.6</ele>
        <time>2022-06-12T09:26:02Z</time>
      </trkpt>
      <trkpt lat="45.97726" lon="1.30579">
        <ele>510</ele>
        <time>2022-06-12T09:26:03Z</time>
      </trkpt>
      <trkpt lat="45.97725" lon="1.3058">
        <ele>509.6</ele>
        <time>2022-06-12T09:26:04Z</time>
      </trkpt>
      <trkpt lat="45.97723" lon="1.30581">
        <ele>509.4</ele>
        <time>2022-06-12T09:26:05Z</time>
      </trkpt>
      <trkpt lat="45.97717" lon="1.30591">
        <ele>508.4</ele>
        <time>2022-06-12T09:26:09Z</time>
      </trkpt>
      <trkpt lat="45.97715" lon="1.30596">
        <ele>508</ele>
        <time>2022-06-12T09:26:10Z</time>
      </trkpt>
      <trkpt lat="45.97704" lon="1.30622">
        <ele>507.2</ele>
        <time>2022-06-12T09:26:14Z</time>
      </trkpt>
      <trkpt lat="45.97701" lon="1.30629">
        <ele>507.2</ele>
        <time>2022-06-12T09:26:15Z</time>
      </trkpt>
      <trkpt lat="45.97697" lon="1.30638">
        <ele>507</ele>
        <time>2022-06-12T09:26:16Z</time>
      </trkpt>
      <trkpt lat="45.97693" lon="1.30643">
        <ele>506.8</ele>
        <time>2022-06-12T09:26:17Z</time>
      </trkpt>
      <trkpt lat="45.97688" lon="1.30648">
        <ele>506.8</ele>
        <time>2022-06-12T09:26:18Z</time>
      </trkpt>
      <trkpt lat="45.97679" lon="1.3066">
        <ele>505.6</ele>
        <time>2022-06-12T09:26:20Z</time>
      </trkpt>
      <trkpt lat="45.97674" lon="1.30672">
        <ele>504.2</ele>
        <time>2022-06-12T09:26:22Z</time>
      </trkpt>
      <trkpt lat="45.97674" lon="1.30678">
        <ele>503.8</ele>
        <time>2022-06-12T09:26:23Z</time>
      </trkpt>
      <trkpt lat="45.97675" lon="1.30685">
        <ele>503.6</ele>
        <time>2022-06-12T09:26:24Z</time>
      </trkpt>
      <trkpt lat="45.9768" lon="1.30699">
        <ele>503</ele>
        <time>2022-06-12T09:26:26Z</time>
      </trkpt>
      <trkpt lat="45.97686" lon="1.3071">
        <ele>502.2</ele>
        <time>2022-06-12T09:26:28Z</time>
      </trkpt>
      <trkpt lat="45.9769" lon="1.30715">
        <ele>501.8</ele>
        <time>2022-06-12T09:26:29Z</time>
      </trkpt>
      <trkpt lat="45.97693" lon="1.30719">
        <ele>501.2</ele>
        <time>2022-06-12T09:26:30Z</time>
      </trkpt>
      <trkpt lat="45.97696" lon="1.30723">
        <ele>500.6</ele>
        <time>2022-06-12T09:26:31Z</time>
      </trkpt>
      <trkpt lat="45.97701" lon="1.30734">
        <ele>499.4</ele>
        <time>2022-06-12T09:26:33Z</time>
      </trkpt>
      <trkpt lat="45.97704" lon="1.30748">
        <ele>498.2</ele>
        <time>2022-06-12T09:26:35Z</time>
      </trkpt>
      <trkpt lat="45.97705" lon="1.30759">
        <ele>496.4</ele>
        <time>2022-06-12T09:26:37Z</time>
      </trkpt>
      <trkpt lat="45.97704" lon="1.30765">
        <ele>494.8</ele>
        <time>2022-06-12T09:26:38Z</time>
      </trkpt>
      <trkpt lat="45.97702" lon="1.30771">
        <ele>493.8</ele>
        <time>2022-06-12T09:26:39Z</time>
      </trkpt>
      <trkpt lat="45.97698" lon="1.30783">
        <ele>492.4</ele>
        <time>2022-06-12T09:26:41Z</time>
      </trkpt>
      <trkpt lat="45.97692" lon="1.30798">
        <ele>491.6</ele>
        <time>2022-06-12T09:26:43Z</time>
      </trkpt>
      <trkpt lat="45.97689" lon="1.30806">
        <ele>490.6</ele>
        <time>2022-06-12T09:26:44Z</time>
      </trkpt>
      <trkpt lat="45.97685" lon="1.30812">
        <ele>490.2</ele>
        <time>2022-06-12T09:26:45Z</time>
      </trkpt>
      <trkpt lat="45.97673" lon="1.30826">
        <ele>489.4</ele>
        <time>2022-06-12T09:26:47Z</time>
      </trkpt>
      <trkpt lat="45.97667" lon="1.30831">
        <ele>488.6</ele>
        <time>2022-06-12T09:26:48Z</time>
      </trkpt>
      <trkpt lat="45.97662" lon="1.30834">
        <ele>488</ele>
        <time>2022-06-12T09:26:49Z</time>
      </trkpt>
      <trkpt lat="45.97649" lon="1.30841">
        <ele>487</ele>
        <time>2022-06-12T09:26:51Z</time>
      </trkpt>
      <trkpt lat="45.97649" lon="1.30841">
        <ele>484.6</ele>
        <time>2022-06-12T09:26:52Z</time>
      </trkpt>
      <trkpt lat="45.97636" lon="1.30845">
        <ele>484.6</ele>
        <time>2022-06-12T09:26:53Z</time>
      </trkpt>
      <trkpt lat="45.97626" lon="1.30846">
        <ele>483.4</ele>
        <time>2022-06-12T09:26:55Z</time>
      </trkpt>
      <trkpt lat="45.97617" lon="1.30849">
        <ele>482.6</ele>
        <time>2022-06-12T09:26:57Z</time>
      </trkpt>
      <trkpt lat="45.97612" lon="1.30851">
        <ele>481.8</ele>
        <time>2022-06-12T09:26:58Z</time>
      </trkpt>
      <trkpt lat="45.97608" lon="1.30853">
        <ele>481.2</ele>
        <time>2022-06-12T09:26:59Z</time>
      </trkpt>
      <trkpt lat="45.976" lon="1.30854">
        <ele>480.2</ele>
        <time>2022-06-12T09:27:01Z</time>
      </trkpt>
      <trkpt lat="45.9759" lon="1.30855">
        <ele>478.8</ele>
        <time>2022-06-12T09:27:03Z</time>
      </trkpt>
      <trkpt lat="45.97575" lon="1.30852">
        <ele>477.4</ele>
        <time>2022-06-12T09:27:06Z</time>
      </trkpt>
      <trkpt lat="45.9757" lon="1.30852">
        <ele>476.4</ele>
        <time>2022-06-12T09:27:07Z</time>
      </trkpt>
      <trkpt lat="45.97558" lon="1.30854">
        <ele>474.6</ele>
        <time>2022-06-12T09:27:09Z</time>
      </trkpt>
      <trkpt lat="45.97549" lon="1.30851">
        <ele>473.4</ele>
        <time>2022-06-12T09:27:11Z</time>
      </trkpt>
      <trkpt lat="45.97546" lon="1.30847">
        <ele>472.8</ele>
        <time>2022-06-12T09:27:12Z</time>
      </trkpt>
      <trkpt lat="45.97543" lon="1.30845">
        <ele>471.6</ele>
        <time>2022-06-12T09:27:13Z</time>
      </trkpt>
      <trkpt lat="45.9754" lon="1.30843">
        <ele>470.6</ele>
        <time>2022-06-12T09:27:14Z</time>
      </trkpt>
      <trkpt lat="45.97538" lon="1.30844">
        <ele>470.2</ele>
        <time>2022-06-12T09:27:15Z</time>
      </trkpt>
      <trkpt lat="45.97537" lon="1.30845">
        <ele>469.8</ele>
        <time>2022-06-12T09:27:16Z</time>
      </trkpt>
      <trkpt lat="45.97537" lon="1.30855">
        <ele>469.4</ele>
        <time>2022-06-12T09:27:19Z</time>
      </trkpt>
      <trkpt lat="45.97538" lon="1.30859">
        <ele>469</ele>
        <time>2022-06-12T09:27:20Z</time>
      </trkpt>
      <trkpt lat="45.97538" lon="1.30863">
        <ele>468.8</ele>
        <time>2022-06-12T09:27:21Z</time>
      </trkpt>
      <trkpt lat="45.97537" lon="1.30871">
        <ele>467.2</ele>
        <time>2022-06-12T09:27:23Z</time>
      </trkpt>
      <trkpt lat="45.97537" lon="1.30876">
        <ele>466.4</ele>
        <time>2022-06-12T09:27:24Z</time>
      </trkpt>
      <trkpt lat="45.97537" lon="1.30882">
        <ele>466</ele>
        <time>2022-06-12T09:27:25Z</time>
      </trkpt>
      <trkpt lat="45.97541" lon="1.30906">
        <ele>464.8</ele>
        <time>2022-06-12T09:27:28Z</time>
      </trkpt>
      <trkpt lat="45.97544" lon="1.30923">
        <ele>462.8</ele>
        <time>2022-06-12T09:27:30Z</time>
      </trkpt>
      <trkpt lat="45.97547" lon="1.30935">
        <ele>461.4</ele>
        <time>2022-06-12T09:27:32Z</time>
      </trkpt>
      <trkpt lat="45.97548" lon="1.3094">
        <ele>460.8</ele>
        <time>2022-06-12T09:27:33Z</time>
      </trkpt>
      <trkpt lat="45.97549" lon="1.30944">
        <ele>460</ele>
        <time>2022-06-12T09:27:34Z</time>
      </trkpt>
      <trkpt lat="45.97552" lon="1.30953">
        <ele>458.6</ele>
        <time>2022-06-12T09:27:36Z</time>
      </trkpt>
      <trkpt lat="45.97554" lon="1.30963">
        <ele>457.4</ele>
        <time>2022-06-12T09:27:38Z</time>
      </trkpt>
      <trkpt lat="45.97554" lon="1.30971">
        <ele>456</ele>
        <time>2022-06-12T09:27:40Z</time>
      </trkpt>
      <trkpt lat="45.9755" lon="1.30973">
        <ele>455</ele>
        <time>2022-06-12T09:27:42Z</time>
      </trkpt>
      <trkpt lat="45.97548" lon="1.30974">
        <ele>454.8</ele>
        <time>2022-06-12T09:27:43Z</time>
      </trkpt>
      <trkpt lat="45.97546" lon="1.30975">
        <ele>454.6</ele>
        <time>2022-06-12T09:27:44Z</time>
      </trkpt>
      <trkpt lat="45.97546" lon="1.30979">
        <ele>454</ele>
        <time>2022-06-12T09:27:46Z</time>
      </trkpt>
      <trkpt lat="45.97547" lon="1.30981">
        <ele>453.8</ele>
        <time>2022-06-12T09:27:47Z</time>
      </trkpt>
      <trkpt lat="45.97548" lon="1.30984">
        <ele>453.6</ele>
        <time>2022-06-12T09:27:48Z</time>
      </trkpt>
      <trkpt lat="45.97554" lon="1.30993">
        <ele>452.2</ele>
        <time>2022-06-12T09:27:52Z</time>
      </trkpt>
      <trkpt lat="45.97557" lon="1.30997">
        <ele>451.8</ele>
        <time>2022-06-12T09:27:53Z</time>
      </trkpt>
      <trkpt lat="45.97559" lon="1.31">
        <ele>450.8</ele>
        <time>2022-06-12T09:27:54Z</time>
      </trkpt>
      <trkpt lat="45.97566" lon="1.31006">
        <ele>449.4</ele>
        <time>2022-06-12T09:27:56Z</time>
      </trkpt>
      <trkpt lat="45.97569" lon="1.31008">
        <ele>449</ele>
        <time>2022-06-12T09:27:57Z</time>
      </trkpt>
      <trkpt lat="45.97572" lon="1.31008">
        <ele>448.8</ele>
        <time>2022-06-12T09:27:58Z</time>
      </trkpt>
      <trkpt lat="45.97575" lon="1.31009">
        <ele>448</ele>
        <time>2022-06-12T09:27:59Z</time>
      </trkpt>
      <trkpt lat="45.97579" lon="1.31009">
        <ele>447.6</ele>
        <time>2022-06-12T09:28:00Z</time>
      </trkpt>
      <trkpt lat="45.97587" lon="1.31012">
        <ele>446.8</ele>
        <time>2022-06-12T09:28:02Z</time>
      </trkpt>
      <trkpt lat="45.97591" lon="1.31014">
        <ele>446.6</ele>
        <time>2022-06-12T09:28:03Z</time>
      </trkpt>
      <trkpt lat="45.97595" lon="1.31015">
        <ele>445.8</ele>
        <time>2022-06-12T09:28:04Z</time>
      </trkpt>
      <trkpt lat="45.97603" lon="1.3102">
        <ele>445</ele>
        <time>2022-06-12T09:28:06Z</time>
      </trkpt>
      <trkpt lat="45.97606" lon="1.31024">
        <ele>444.2</ele>
        <time>2022-06-12T09:28:07Z</time>
      </trkpt>
      <trkpt lat="45.97611" lon="1.31031">
        <ele>443.4</ele>
        <time>2022-06-12T09:28:08Z</time>
      </trkpt>
      <trkpt lat="45.97616" lon="1.31036">
        <ele>442.8</ele>
        <time>2022-06-12T09:28:09Z</time>
      </trkpt>
      <trkpt lat="45.9763" lon="1.31052">
        <ele>441.6</ele>
        <time>2022-06-12T09:28:12Z</time>
      </trkpt>
      <trkpt lat="45.9764" lon="1.31066">
        <ele>440.4</ele>
        <time>2022-06-12T09:28:15Z</time>
      </trkpt>
      <trkpt lat="45.97643" lon="1.31073">
        <ele>438.4</ele>
        <time>2022-06-12T09:28:17Z</time>
      </trkpt>
      <trkpt lat="45.97646" lon="1.31077">
        <ele>436.8</ele>
        <time>2022-06-12T09:28:19Z</time>
      </trkpt>
      <trkpt lat="45.97647" lon="1.31078">
        <ele>435.8</ele>
        <time>2022-06-12T09:28:20Z</time>
      </trkpt>
      <trkpt lat="45.97647" lon="1.3108">
        <ele>434.4</ele>
        <time>2022-06-12T09:28:22Z</time>
      </trkpt>
      <trkpt lat="45.97647" lon="1.31081">
        <ele>433.8</ele>
        <time>2022-06-12T09:28:23Z</time>
      </trkpt>
      <trkpt lat="45.9765" lon="1.31084">
        <ele>433.2</ele>
        <time>2022-06-12T09:28:25Z</time>
      </trkpt>
      <trkpt lat="45.97656" lon="1.31094">
        <ele>432.6</ele>
        <time>2022-06-12T09:28:33Z</time>
      </trkpt>
      <trkpt lat="45.97657" lon="1.31105">
        <ele>433</ele>
        <time>2022-06-12T09:28:40Z</time>
      </trkpt>
      <trkpt lat="45.9766" lon="1.31107">
        <ele>433</ele>
        <time>2022-06-12T09:28:41Z</time>
      </trkpt>
      <trkpt lat="45.97667" lon="1.31112">
        <ele>432.8</ele>
        <time>2022-06-12T09:28:43Z</time>
      </trkpt>
      <trkpt lat="45.97672" lon="1.31114">
        <ele>432.6</ele>
        <time>2022-06-12T09:28:45Z</time>
      </trkpt>
      <trkpt lat="45.97675" lon="1.31115">
        <ele>432.4</ele>
        <time>2022-06-12T09:28:47Z</time>
      </trkpt>
      <trkpt lat="45.97676" lon="1.31116">
        <ele>432.2</ele>
        <time>2022-06-12T09:28:48Z</time>
      </trkpt>
      <trkpt lat="45.97678" lon="1.31117">
        <ele>432</ele>
        <time>2022-06-12T09:28:49Z</time>
      </trkpt>
      <trkpt lat="45.97685" lon="1.31126">
        <ele>431.2</ele>
        <time>2022-06-12T09:28:55Z</time>
      </trkpt>
      <trkpt lat="45.9769" lon="1.31128">
        <ele>430.8</ele>
        <time>2022-06-12T09:28:57Z</time>
      </trkpt>
      <trkpt lat="45.97696" lon="1.31131">
        <ele>430.6</ele>
        <time>2022-06-12T09:29:02Z</time>
      </trkpt>
      <trkpt lat="45.97701" lon="1.31138">
        <ele>431.6</ele>
        <time>2022-06-12T09:29:08Z</time>
      </trkpt>
      <trkpt lat="45.97701" lon="1.31139">
        <ele>431.6</ele>
        <time>2022-06-12T09:29:10Z</time>
      </trkpt>
      <trkpt lat="45.97701" lon="1.31144">
        <ele>431.6</ele>
        <time>2022-06-12T09:29:22Z</time>
      </trkpt>
      <trkpt lat="45.97701" lon="1.31145">
        <ele>431.8</ele>
        <time>2022-06-12T09:29:24Z</time>
      </trkpt>
      <trkpt lat="45.97701" lon="1.31147">
        <ele>432</ele>
        <time>2022-06-12T09:29:25Z</time>
      </trkpt>
      <trkpt lat="45.97702" lon="1.3115">
        <ele>432.2</ele>
        <time>2022-06-12T09:29:27Z</time>
      </trkpt>
      <trkpt lat="45.97705" lon="1.31162">
        <ele>432.8</ele>
        <time>2022-06-12T09:29:31Z</time>
      </trkpt>
      <trkpt lat="45.97706" lon="1.31171">
        <ele>433.4</ele>
        <time>2022-06-12T09:29:36Z</time>
      </trkpt>
      <trkpt lat="45.97707" lon="1.31174">
        <ele>433.6</ele>
        <time>2022-06-12T09:29:37Z</time>
      </trkpt>
      <trkpt lat="45.97708" lon="1.31183">
        <ele>434.6</ele>
        <time>2022-06-12T09:29:41Z</time>
      </trkpt>
      <trkpt lat="45.97708" lon="1.31192">
        <ele>435.2</ele>
        <time>2022-06-12T09:29:44Z</time>
      </trkpt>
      <trkpt lat="45.97714" lon="1.31214">
        <ele>434</ele>
        <time>2022-06-12T09:29:49Z</time>
      </trkpt>
      <trkpt lat="45.97714" lon="1.3122">
        <ele>433.4</ele>
        <time>2022-06-12T09:29:50Z</time>
      </trkpt>
      <trkpt lat="45.97715" lon="1.31225">
        <ele>433</ele>
        <time>2022-06-12T09:29:51Z</time>
      </trkpt>
      <trkpt lat="45.97716" lon="1.31237">
        <ele>432.4</ele>
        <time>2022-06-12T09:29:53Z</time>
      </trkpt>
      <trkpt lat="45.97716" lon="1.3125">
        <ele>432</ele>
        <time>2022-06-12T09:29:55Z</time>
      </trkpt>
      <trkpt lat="45.97715" lon="1.31275">
        <ele>431.4</ele>
        <time>2022-06-12T09:30:00Z</time>
      </trkpt>
      <trkpt lat="45.97715" lon="1.3128">
        <ele>431.4</ele>
        <time>2022-06-12T09:30:01Z</time>
      </trkpt>
      <trkpt lat="45.97714" lon="1.3129">
        <ele>431.4</ele>
        <time>2022-06-12T09:30:03Z</time>
      </trkpt>
      <trkpt lat="45.97715" lon="1.31299">
        <ele>431.2</ele>
        <time>2022-06-12T09:30:05Z</time>
      </trkpt>
      <trkpt lat="45.97715" lon="1.31308">
        <ele>431.4</ele>
        <time>2022-06-12T09:30:07Z</time>
      </trkpt>
      <trkpt lat="45.97718" lon="1.3134">
        <ele>431.2</ele>
        <time>2022-06-12T09:30:13Z</time>
      </trkpt>
      <trkpt lat="45.97718" lon="1.3136">
        <ele>430.8</ele>
        <time>2022-06-12T09:30:16Z</time>
      </trkpt>
      <trkpt lat="45.97719" lon="1.31378">
        <ele>430.2</ele>
        <time>2022-06-12T09:30:18Z</time>
      </trkpt>
      <trkpt lat="45.97722" lon="1.31398">
        <ele>429.6</ele>
        <time>2022-06-12T09:30:20Z</time>
      </trkpt>
      <trkpt lat="45.97723" lon="1.31406">
        <ele>429.2</ele>
        <time>2022-06-12T09:30:21Z</time>
      </trkpt>
      <trkpt lat="45.97726" lon="1.31424">
        <ele>428.4</ele>
        <time>2022-06-12T09:30:23Z</time>
      </trkpt>
      <trkpt lat="45.9773" lon="1.31446">
        <ele>428</ele>
        <time>2022-06-12T09:30:25Z</time>
      </trkpt>
      <trkpt lat="45.97735" lon="1.31475">
        <ele>427.4</ele>
        <time>2022-06-12T09:30:28Z</time>
      </trkpt>
      <trkpt lat="45.97738" lon="1.31482">
        <ele>427.4</ele>
        <time>2022-06-12T09:30:29Z</time>
      </trkpt>
      <trkpt lat="45.9774" lon="1.31486">
        <ele>427.2</ele>
        <time>2022-06-12T09:30:30Z</time>
      </trkpt>
      <trkpt lat="45.97745" lon="1.31489">
        <ele>427.2</ele>
        <time>2022-06-12T09:30:32Z</time>
      </trkpt>
      <trkpt lat="45.97757" lon="1.315">
        <ele>429</ele>
        <time>2022-06-12T09:30:39Z</time>
      </trkpt>
      <trkpt lat="45.97758" lon="1.31502">
        <ele>429.2</ele>
        <time>2022-06-12T09:30:40Z</time>
      </trkpt>
      <trkpt lat="45.9776" lon="1.31504">
        <ele>429.6</ele>
        <time>2022-06-12T09:30:42Z</time>
      </trkpt>
      <trkpt lat="45.97762" lon="1.31506">
        <ele>430.2</ele>
        <time>2022-06-12T09:30:44Z</time>
      </trkpt>
      <trkpt lat="45.97764" lon="1.31507">
        <ele>430.6</ele>
        <time>2022-06-12T09:30:45Z</time>
      </trkpt>
      <trkpt lat="45.97765" lon="1.31507">
        <ele>431</ele>
        <time>2022-06-12T09:30:46Z</time>
      </trkpt>
      <trkpt lat="45.9777" lon="1.31509">
        <ele>431.8</ele>
        <time>2022-06-12T09:30:49Z</time>
      </trkpt>
      <trkpt lat="45.97777" lon="1.3151">
        <ele>433</ele>
        <time>2022-06-12T09:30:54Z</time>
      </trkpt>
      <trkpt lat="45.97789" lon="1.31513">
        <ele>434</ele>
        <time>2022-06-12T09:31:01Z</time>
      </trkpt>
      <trkpt lat="45.97791" lon="1.31513">
        <ele>434</ele>
        <time>2022-06-12T09:31:02Z</time>
      </trkpt>
      <trkpt lat="45.97806" lon="1.3151">
        <ele>433.8</ele>
        <time>2022-06-12T09:31:10Z</time>
      </trkpt>
      <trkpt lat="45.97811" lon="1.31511">
        <ele>433.8</ele>
        <time>2022-06-12T09:31:12Z</time>
      </trkpt>
      <trkpt lat="45.97816" lon="1.31513">
        <ele>434</ele>
        <time>2022-06-12T09:31:15Z</time>
      </trkpt>
      <trkpt lat="45.97827" lon="1.31515">
        <ele>435</ele>
        <time>2022-06-12T09:31:21Z</time>
      </trkpt>
      <trkpt lat="45.97827" lon="1.31515">
        <ele>435.2</ele>
        <time>2022-06-12T09:31:22Z</time>
      </trkpt>
      <trkpt lat="45.97848" lon="1.31515">
        <ele>436</ele>
        <time>2022-06-12T09:31:30Z</time>
      </trkpt>
      <trkpt lat="45.9785" lon="1.31516">
        <ele>436.2</ele>
        <time>2022-06-12T09:31:31Z</time>
      </trkpt>
      <trkpt lat="45.97863" lon="1.31521">
        <ele>436.6</ele>
        <time>2022-06-12T09:31:37Z</time>
      </trkpt>
      <trkpt lat="45.97888" lon="1.31525">
        <ele>437.4</ele>
        <time>2022-06-12T09:31:45Z</time>
      </trkpt>
      <trkpt lat="45.97904" lon="1.31526">
        <ele>438.4</ele>
        <time>2022-06-12T09:31:51Z</time>
      </trkpt>
      <trkpt lat="45.97909" lon="1.31527">
        <ele>438.8</ele>
        <time>2022-06-12T09:31:53Z</time>
      </trkpt>
      <trkpt lat="45.97918" lon="1.3153">
        <ele>439.4</ele>
        <time>2022-06-12T09:31:57Z</time>
      </trkpt>
      <trkpt lat="45.97925" lon="1.31531">
        <ele>440</ele>
        <time>2022-06-12T09:32:00Z</time>
      </trkpt>
      <trkpt lat="45.97938" lon="1.31538">
        <ele>440.6</ele>
        <time>2022-06-12T09:32:05Z</time>
      </trkpt>
      <trkpt lat="45.97945" lon="1.3154">
        <ele>441.4</ele>
        <time>2022-06-12T09:32:08Z</time>
      </trkpt>
      <trkpt lat="45.9795" lon="1.31541">
        <ele>441.8</ele>
        <time>2022-06-12T09:32:11Z</time>
      </trkpt>
      <trkpt lat="45.97957" lon="1.31541">
        <ele>442.8</ele>
        <time>2022-06-12T09:32:14Z</time>
      </trkpt>
      <trkpt lat="45.97959" lon="1.31541">
        <ele>443</ele>
        <time>2022-06-12T09:32:15Z</time>
      </trkpt>
      <trkpt lat="45.97962" lon="1.31542">
        <ele>443.2</ele>
        <time>2022-06-12T09:32:16Z</time>
      </trkpt>
      <trkpt lat="45.97972" lon="1.31547">
        <ele>444</ele>
        <time>2022-06-12T09:32:20Z</time>
      </trkpt>
      <trkpt lat="45.97973" lon="1.31549">
        <ele>444.2</ele>
        <time>2022-06-12T09:32:21Z</time>
      </trkpt>
      <trkpt lat="45.97975" lon="1.31551">
        <ele>444.8</ele>
        <time>2022-06-12T09:32:23Z</time>
      </trkpt>
      <trkpt lat="45.97975" lon="1.31554">
        <ele>445</ele>
        <time>2022-06-12T09:32:25Z</time>
      </trkpt>
      <trkpt lat="45.97977" lon="1.31558">
        <ele>445.2</ele>
        <time>2022-06-12T09:32:27Z</time>
      </trkpt>
      <trkpt lat="45.97978" lon="1.31559">
        <ele>445.2</ele>
        <time>2022-06-12T09:32:28Z</time>
      </trkpt>
      <trkpt lat="45.97978" lon="1.31563">
        <ele>445.8</ele>
        <time>2022-06-12T09:32:30Z</time>
      </trkpt>
      <trkpt lat="45.97982" lon="1.31569">
        <ele>446.8</ele>
        <time>2022-06-12T09:32:35Z</time>
      </trkpt>
      <trkpt lat="45.97983" lon="1.31569">
        <ele>447</ele>
        <time>2022-06-12T09:32:36Z</time>
      </trkpt>
      <trkpt lat="45.97983" lon="1.3157">
        <ele>447.2</ele>
        <time>2022-06-12T09:32:37Z</time>
      </trkpt>
      <trkpt lat="45.97984" lon="1.3157">
        <ele>447.4</ele>
        <time>2022-06-12T09:32:38Z</time>
      </trkpt>
      <trkpt lat="45.97988" lon="1.31573">
        <ele>448</ele>
        <time>2022-06-12T09:32:41Z</time>
      </trkpt>
      <trkpt lat="45.97994" lon="1.31577">
        <ele>448.8</ele>
        <time>2022-06-12T09:32:45Z</time>
      </trkpt>
      <trkpt lat="45.97997" lon="1.31579">
        <ele>448.8</ele>
        <time>2022-06-12T09:32:46Z</time>
      </trkpt>
      <trkpt lat="45.98004" lon="1.31589">
        <ele>448.6</ele>
        <time>2022-06-12T09:32:52Z</time>
      </trkpt>
      <trkpt lat="45.98011" lon="1.31604">
        <ele>448.2</ele>
        <time>2022-06-12T09:32:57Z</time>
      </trkpt>
      <trkpt lat="45.98017" lon="1.31606">
        <ele>448</ele>
        <time>2022-06-12T09:32:58Z</time>
      </trkpt>
      <trkpt lat="45.98027" lon="1.31604">
        <ele>447.4</ele>
        <time>2022-06-12T09:33:00Z</time>
      </trkpt>
      <trkpt lat="45.98032" lon="1.31603">
        <ele>447</ele>
        <time>2022-06-12T09:33:01Z</time>
      </trkpt>
      <trkpt lat="45.98047" lon="1.316">
        <ele>445.8</ele>
        <time>2022-06-12T09:33:04Z</time>
      </trkpt>
      <trkpt lat="45.98052" lon="1.31601">
        <ele>445.6</ele>
        <time>2022-06-12T09:33:05Z</time>
      </trkpt>
      <trkpt lat="45.98063" lon="1.31604">
        <ele>444.8</ele>
        <time>2022-06-12T09:33:07Z</time>
      </trkpt>
      <trkpt lat="45.98069" lon="1.31608">
        <ele>444.8</ele>
        <time>2022-06-12T09:33:08Z</time>
      </trkpt>
      <trkpt lat="45.98079" lon="1.31614">
        <ele>444.6</ele>
        <time>2022-06-12T09:33:10Z</time>
      </trkpt>
      <trkpt lat="45.98096" lon="1.31622">
        <ele>444</ele>
        <time>2022-06-12T09:33:14Z</time>
      </trkpt>
      <trkpt lat="45.98099" lon="1.31624">
        <ele>444</ele>
        <time>2022-06-12T09:33:15Z</time>
      </trkpt>
      <trkpt lat="45.98101" lon="1.31626">
        <ele>444</ele>
        <time>2022-06-12T09:33:16Z</time>
      </trkpt>
      <trkpt lat="45.98114" lon="1.31639">
        <ele>444.4</ele>
        <time>2022-06-12T09:33:20Z</time>
      </trkpt>
      <trkpt lat="45.98122" lon="1.31644">
        <ele>444.6</ele>
        <time>2022-06-12T09:33:22Z</time>
      </trkpt>
      <trkpt lat="45.98132" lon="1.3165">
        <ele>444.6</ele>
        <time>2022-06-12T09:33:24Z</time>
      </trkpt>
      <trkpt lat="45.98138" lon="1.31652">
        <ele>444.6</ele>
        <time>2022-06-12T09:33:25Z</time>
      </trkpt>
      <trkpt lat="45.98142" lon="1.31652">
        <ele>444.8</ele>
        <time>2022-06-12T09:33:26Z</time>
      </trkpt>
      <trkpt lat="45.9816" lon="1.31652">
        <ele>445.4</ele>
        <time>2022-06-12T09:33:30Z</time>
      </trkpt>
      <trkpt lat="45.98174" lon="1.3165">
        <ele>446</ele>
        <time>2022-06-12T09:33:34Z</time>
      </trkpt>
      <trkpt lat="45.98187" lon="1.31644">
        <ele>446.2</ele>
        <time>2022-06-12T09:33:37Z</time>
      </trkpt>
      <trkpt lat="45.98215" lon="1.31644">
        <ele>447</ele>
        <time>2022-06-12T09:33:42Z</time>
      </trkpt>
      <trkpt lat="45.9823" lon="1.3165">
        <ele>447.6</ele>
        <time>2022-06-12T09:33:47Z</time>
      </trkpt>
      <trkpt lat="45.98242" lon="1.31661">
        <ele>448</ele>
        <time>2022-06-12T09:33:52Z</time>
      </trkpt>
      <trkpt lat="45.98245" lon="1.31664">
        <ele>448.2</ele>
        <time>2022-06-12T09:33:53Z</time>
      </trkpt>
      <trkpt lat="45.98255" lon="1.31685">
        <ele>448.2</ele>
        <time>2022-06-12T09:33:59Z</time>
      </trkpt>
      <trkpt lat="45.98259" lon="1.31706">
        <ele>449</ele>
        <time>2022-06-12T09:34:05Z</time>
      </trkpt>
      <trkpt lat="45.9826" lon="1.3173">
        <ele>449.6</ele>
        <time>2022-06-12T09:34:10Z</time>
      </trkpt>
      <trkpt lat="45.98262" lon="1.31738">
        <ele>449.4</ele>
        <time>2022-06-12T09:34:11Z</time>
      </trkpt>
      <trkpt lat="45.98269" lon="1.31763">
        <ele>448.4</ele>
        <time>2022-06-12T09:34:14Z</time>
      </trkpt>
      <trkpt lat="45.98269" lon="1.31771">
        <ele>448</ele>
        <time>2022-06-12T09:34:15Z</time>
      </trkpt>
      <trkpt lat="45.98267" lon="1.3178">
        <ele>447.4</ele>
        <time>2022-06-12T09:34:16Z</time>
      </trkpt>
      <trkpt lat="45.98266" lon="1.31788">
        <ele>446.8</ele>
        <time>2022-06-12T09:34:17Z</time>
      </trkpt>
      <trkpt lat="45.9826" lon="1.31818">
        <ele>445.8</ele>
        <time>2022-06-12T09:34:21Z</time>
      </trkpt>
      <trkpt lat="45.98258" lon="1.31827">
        <ele>445.6</ele>
        <time>2022-06-12T09:34:22Z</time>
      </trkpt>
      <trkpt lat="45.98258" lon="1.31827">
        <ele>444.2</ele>
        <time>2022-06-12T09:34:23Z</time>
      </trkpt>
      <trkpt lat="45.98253" lon="1.31854">
        <ele>443.8</ele>
        <time>2022-06-12T09:34:25Z</time>
      </trkpt>
      <trkpt lat="45.98246" lon="1.31868">
        <ele>442.2</ele>
        <time>2022-06-12T09:34:27Z</time>
      </trkpt>
      <trkpt lat="45.98241" lon="1.31874">
        <ele>441</ele>
        <time>2022-06-12T09:34:28Z</time>
      </trkpt>
      <trkpt lat="45.98238" lon="1.31879">
        <ele>440.2</ele>
        <time>2022-06-12T09:34:29Z</time>
      </trkpt>
      <trkpt lat="45.98235" lon="1.31886">
        <ele>439.6</ele>
        <time>2022-06-12T09:34:30Z</time>
      </trkpt>
      <trkpt lat="45.98234" lon="1.31893">
        <ele>439</ele>
        <time>2022-06-12T09:34:31Z</time>
      </trkpt>
      <trkpt lat="45.98235" lon="1.31901">
        <ele>438.2</ele>
        <time>2022-06-12T09:34:32Z</time>
      </trkpt>
      <trkpt lat="45.98236" lon="1.3191">
        <ele>438</ele>
        <time>2022-06-12T09:34:33Z</time>
      </trkpt>
      <trkpt lat="45.98239" lon="1.31932">
        <ele>437</ele>
        <time>2022-06-12T09:34:35Z</time>
      </trkpt>
      <trkpt lat="45.98242" lon="1.31954">
        <ele>435.2</ele>
        <time>2022-06-12T09:34:37Z</time>
      </trkpt>
      <trkpt lat="45.98243" lon="1.31972">
        <ele>433.8</ele>
        <time>2022-06-12T09:34:39Z</time>
      </trkpt>
      <trkpt lat="45.98244" lon="1.31979">
        <ele>433.2</ele>
        <time>2022-06-12T09:34:40Z</time>
      </trkpt>
      <trkpt lat="45.98245" lon="1.31983">
        <ele>433</ele>
        <time>2022-06-12T09:34:41Z</time>
      </trkpt>
      <trkpt lat="45.98247" lon="1.31986">
        <ele>432.2</ele>
        <time>2022-06-12T09:34:42Z</time>
      </trkpt>
      <trkpt lat="45.98249" lon="1.31988">
        <ele>431.8</ele>
        <time>2022-06-12T09:34:43Z</time>
      </trkpt>
      <trkpt lat="45.98253" lon="1.31993">
        <ele>431</ele>
        <time>2022-06-12T09:34:45Z</time>
      </trkpt>
      <trkpt lat="45.98254" lon="1.31997">
        <ele>429.6</ele>
        <time>2022-06-12T09:34:46Z</time>
      </trkpt>
      <trkpt lat="45.98254" lon="1.32002">
        <ele>428.8</ele>
        <time>2022-06-12T09:34:47Z</time>
      </trkpt>
      <trkpt lat="45.98255" lon="1.32007">
        <ele>428</ele>
        <time>2022-06-12T09:34:48Z</time>
      </trkpt>
      <trkpt lat="45.98254" lon="1.32014">
        <ele>426.8</ele>
        <time>2022-06-12T09:34:49Z</time>
      </trkpt>
      <trkpt lat="45.98254" lon="1.32032">
        <ele>425.2</ele>
        <time>2022-06-12T09:34:51Z</time>
      </trkpt>
      <trkpt lat="45.98254" lon="1.32051">
        <ele>424</ele>
        <time>2022-06-12T09:34:53Z</time>
      </trkpt>
      <trkpt lat="45.98254" lon="1.32072">
        <ele>422.8</ele>
        <time>2022-06-12T09:34:55Z</time>
      </trkpt>
      <trkpt lat="45.98255" lon="1.32081">
        <ele>422.4</ele>
        <time>2022-06-12T09:34:56Z</time>
      </trkpt>
      <trkpt lat="45.98257" lon="1.32088">
        <ele>422</ele>
        <time>2022-06-12T09:34:57Z</time>
      </trkpt>
      <trkpt lat="45.9826" lon="1.32094">
        <ele>421.6</ele>
        <time>2022-06-12T09:34:58Z</time>
      </trkpt>
      <trkpt lat="45.98268" lon="1.32103">
        <ele>421.4</ele>
        <time>2022-06-12T09:35:00Z</time>
      </trkpt>
      <trkpt lat="45.98272" lon="1.32105">
        <ele>421.4</ele>
        <time>2022-06-12T09:35:01Z</time>
      </trkpt>
      <trkpt lat="45.98279" lon="1.32108">
        <ele>421.4</ele>
        <time>2022-06-12T09:35:03Z</time>
      </trkpt>
      <trkpt lat="45.98291" lon="1.32108">
        <ele>421.2</ele>
        <time>2022-06-12T09:35:06Z</time>
      </trkpt>
      <trkpt lat="45.98295" lon="1.32107">
        <ele>421.2</ele>
        <time>2022-06-12T09:35:07Z</time>
      </trkpt>
      <trkpt lat="45.98298" lon="1.32106">
        <ele>420.6</ele>
        <time>2022-06-12T09:35:08Z</time>
      </trkpt>
      <trkpt lat="45.98304" lon="1.32104">
        <ele>419.4</ele>
        <time>2022-06-12T09:35:10Z</time>
      </trkpt>
      <trkpt lat="45.98306" lon="1.32105">
        <ele>418.6</ele>
        <time>2022-06-12T09:35:11Z</time>
      </trkpt>
      <trkpt lat="45.98308" lon="1.32109">
        <ele>417.6</ele>
        <time>2022-06-12T09:35:12Z</time>
      </trkpt>
      <trkpt lat="45.98309" lon="1.32119">
        <ele>416.8</ele>
        <time>2022-06-12T09:35:14Z</time>
      </trkpt>
      <trkpt lat="45.98309" lon="1.32124">
        <ele>416.6</ele>
        <time>2022-06-12T09:35:15Z</time>
      </trkpt>
      <trkpt lat="45.98308" lon="1.32144">
        <ele>416.4</ele>
        <time>2022-06-12T09:35:18Z</time>
      </trkpt>
      <trkpt lat="45.98307" lon="1.32172">
        <ele>416</ele>
        <time>2022-06-12T09:35:22Z</time>
      </trkpt>
      <trkpt lat="45.9831" lon="1.32178">
        <ele>415.8</ele>
        <time>2022-06-12T09:35:23Z</time>
      </trkpt>
      <trkpt lat="45.98312" lon="1.32182">
        <ele>415.8</ele>
        <time>2022-06-12T09:35:24Z</time>
      </trkpt>
      <trkpt lat="45.98314" lon="1.32184">
        <ele>415.4</ele>
        <time>2022-06-12T09:35:25Z</time>
      </trkpt>
      <trkpt lat="45.98317" lon="1.32185">
        <ele>415.4</ele>
        <time>2022-06-12T09:35:26Z</time>
      </trkpt>
      <trkpt lat="45.98326" lon="1.32179">
        <ele>414.4</ele>
        <time>2022-06-12T09:35:29Z</time>
      </trkpt>
      <trkpt lat="45.98332" lon="1.32174">
        <ele>413.6</ele>
        <time>2022-06-12T09:35:32Z</time>
      </trkpt>
      <trkpt lat="45.98334" lon="1.32173">
        <ele>413.4</ele>
        <time>2022-06-12T09:35:33Z</time>
      </trkpt>
      <trkpt lat="45.98343" lon="1.32174">
        <ele>412.2</ele>
        <time>2022-06-12T09:35:39Z</time>
      </trkpt>
      <trkpt lat="45.98352" lon="1.32171">
        <ele>412.2</ele>
        <time>2022-06-12T09:35:50Z</time>
      </trkpt>
      <trkpt lat="45.98358" lon="1.32163">
        <ele>412.2</ele>
        <time>2022-06-12T09:36:05Z</time>
      </trkpt>
      <trkpt lat="45.98366" lon="1.32159">
        <ele>412.4</ele>
        <time>2022-06-12T09:36:17Z</time>
      </trkpt>
      <trkpt lat="45.98367" lon="1.32159">
        <ele>412.6</ele>
        <time>2022-06-12T09:36:19Z</time>
      </trkpt>
      <trkpt lat="45.9837" lon="1.32159">
        <ele>412.8</ele>
        <time>2022-06-12T09:36:22Z</time>
      </trkpt>
      <trkpt lat="45.98381" lon="1.32158">
        <ele>413.2</ele>
        <time>2022-06-12T09:36:27Z</time>
      </trkpt>
      <trkpt lat="45.98384" lon="1.32158">
        <ele>413.4</ele>
        <time>2022-06-12T09:36:29Z</time>
      </trkpt>
      <trkpt lat="45.9839" lon="1.3216">
        <ele>414.4</ele>
        <time>2022-06-12T09:36:32Z</time>
      </trkpt>
      <trkpt lat="45.98401" lon="1.32162">
        <ele>415.2</ele>
        <time>2022-06-12T09:36:38Z</time>
      </trkpt>
      <trkpt lat="45.98402" lon="1.32162">
        <ele>415.4</ele>
        <time>2022-06-12T09:36:39Z</time>
      </trkpt>
      <trkpt lat="45.98409" lon="1.32157">
        <ele>416.2</ele>
        <time>2022-06-12T09:36:44Z</time>
      </trkpt>
      <trkpt lat="45.98419" lon="1.32141">
        <ele>416.2</ele>
        <time>2022-06-12T09:36:49Z</time>
      </trkpt>
      <trkpt lat="45.98427" lon="1.32119">
        <ele>416.2</ele>
        <time>2022-06-12T09:36:55Z</time>
      </trkpt>
      <trkpt lat="45.98435" lon="1.32096">
        <ele>416.6</ele>
        <time>2022-06-12T09:37:02Z</time>
      </trkpt>
      <trkpt lat="45.98438" lon="1.32091">
        <ele>416.6</ele>
        <time>2022-06-12T09:37:03Z</time>
      </trkpt>
      <trkpt lat="45.98446" lon="1.32087">
        <ele>417</ele>
        <time>2022-06-12T09:37:07Z</time>
      </trkpt>
      <trkpt lat="45.98461" lon="1.32086">
        <ele>416.8</ele>
        <time>2022-06-12T09:37:13Z</time>
      </trkpt>
      <trkpt lat="45.98475" lon="1.32083">
        <ele>416.2</ele>
        <time>2022-06-12T09:37:17Z</time>
      </trkpt>
      <trkpt lat="45.98479" lon="1.32082">
        <ele>416.2</ele>
        <time>2022-06-12T09:37:18Z</time>
      </trkpt>
      <trkpt lat="45.985" lon="1.32073">
        <ele>416.6</ele>
        <time>2022-06-12T09:37:25Z</time>
      </trkpt>
      <trkpt lat="45.98513" lon="1.3206">
        <ele>417.6</ele>
        <time>2022-06-12T09:37:32Z</time>
      </trkpt>
      <trkpt lat="45.98514" lon="1.32058">
        <ele>417.6</ele>
        <time>2022-06-12T09:37:33Z</time>
      </trkpt>
      <trkpt lat="45.98527" lon="1.32053">
        <ele>418.8</ele>
        <time>2022-06-12T09:37:39Z</time>
      </trkpt>
      <trkpt lat="45.98535" lon="1.3205">
        <ele>420</ele>
        <time>2022-06-12T09:37:43Z</time>
      </trkpt>
      <trkpt lat="45.98543" lon="1.32042">
        <ele>420.8</ele>
        <time>2022-06-12T09:37:46Z</time>
      </trkpt>
      <trkpt lat="45.98549" lon="1.32036">
        <ele>421</ele>
        <time>2022-06-12T09:37:48Z</time>
      </trkpt>
      <trkpt lat="45.98555" lon="1.32023">
        <ele>421</ele>
        <time>2022-06-12T09:37:51Z</time>
      </trkpt>
      <trkpt lat="45.9856" lon="1.32013">
        <ele>420.4</ele>
        <time>2022-06-12T09:37:53Z</time>
      </trkpt>
      <trkpt lat="45.98562" lon="1.32009">
        <ele>419.8</ele>
        <time>2022-06-12T09:37:54Z</time>
      </trkpt>
      <trkpt lat="45.98565" lon="1.32001">
        <ele>419.4</ele>
        <time>2022-06-12T09:37:56Z</time>
      </trkpt>
      <trkpt lat="45.98567" lon="1.31997">
        <ele>419.2</ele>
        <time>2022-06-12T09:37:57Z</time>
      </trkpt>
      <trkpt lat="45.98574" lon="1.31994">
        <ele>418.8</ele>
        <time>2022-06-12T09:38:00Z</time>
      </trkpt>
      <trkpt lat="45.98576" lon="1.31994">
        <ele>418.8</ele>
        <time>2022-06-12T09:38:01Z</time>
      </trkpt>
      <trkpt lat="45.98578" lon="1.31994">
        <ele>418.6</ele>
        <time>2022-06-12T09:38:02Z</time>
      </trkpt>
      <trkpt lat="45.98588" lon="1.31991">
        <ele>418.6</ele>
        <time>2022-06-12T09:38:08Z</time>
      </trkpt>
      <trkpt lat="45.98596" lon="1.31981">
        <ele>418.8</ele>
        <time>2022-06-12T09:38:14Z</time>
      </trkpt>
      <trkpt lat="45.986" lon="1.31973">
        <ele>419.2</ele>
        <time>2022-06-12T09:38:18Z</time>
      </trkpt>
      <trkpt lat="45.986" lon="1.31973">
        <ele>419</ele>
        <time>2022-06-12T09:38:19Z</time>
      </trkpt>
      <trkpt lat="45.98605" lon="1.31964">
        <ele>419.4</ele>
        <time>2022-06-12T09:38:27Z</time>
      </trkpt>
      <trkpt lat="45.98613" lon="1.31953">
        <ele>419.8</ele>
        <time>2022-06-12T09:38:35Z</time>
      </trkpt>
      <trkpt lat="45.98622" lon="1.31942">
        <ele>420.6</ele>
        <time>2022-06-12T09:38:42Z</time>
      </trkpt>
      <trkpt lat="45.98625" lon="1.3194">
        <ele>421</ele>
        <time>2022-06-12T09:38:45Z</time>
      </trkpt>
      <trkpt lat="45.98631" lon="1.31937">
        <ele>421.8</ele>
        <time>2022-06-12T09:38:49Z</time>
      </trkpt>
      <trkpt lat="45.98633" lon="1.31935">
        <ele>422</ele>
        <time>2022-06-12T09:38:50Z</time>
      </trkpt>
      <trkpt lat="45.98641" lon="1.31928">
        <ele>423.2</ele>
        <time>2022-06-12T09:38:57Z</time>
      </trkpt>
      <trkpt lat="45.98642" lon="1.31927">
        <ele>423.2</ele>
        <time>2022-06-12T09:38:58Z</time>
      </trkpt>
      <trkpt lat="45.98649" lon="1.31917">
        <ele>424.2</ele>
        <time>2022-06-12T09:39:03Z</time>
      </trkpt>
      <trkpt lat="45.98654" lon="1.31912">
        <ele>425.2</ele>
        <time>2022-06-12T09:39:07Z</time>
      </trkpt>
      <trkpt lat="45.98655" lon="1.31911">
        <ele>425.4</ele>
        <time>2022-06-12T09:39:08Z</time>
      </trkpt>
      <trkpt lat="45.98664" lon="1.31906">
        <ele>426.6</ele>
        <time>2022-06-12T09:39:14Z</time>
      </trkpt>
      <trkpt lat="45.98667" lon="1.31903">
        <ele>426.8</ele>
        <time>2022-06-12T09:39:16Z</time>
      </trkpt>
      <trkpt lat="45.98673" lon="1.31896">
        <ele>427.6</ele>
        <time>2022-06-12T09:39:20Z</time>
      </trkpt>
      <trkpt lat="45.98679" lon="1.31889">
        <ele>428.2</ele>
        <time>2022-06-12T09:39:24Z</time>
      </trkpt>
      <trkpt lat="45.98685" lon="1.31883">
        <ele>428.4</ele>
        <time>2022-06-12T09:39:28Z</time>
      </trkpt>
      <trkpt lat="45.98692" lon="1.3188">
        <ele>428.8</ele>
        <time>2022-06-12T09:39:32Z</time>
      </trkpt>
      <trkpt lat="45.98694" lon="1.31879">
        <ele>428.8</ele>
        <time>2022-06-12T09:39:33Z</time>
      </trkpt>
      <trkpt lat="45.98703" lon="1.31875">
        <ele>429.4</ele>
        <time>2022-06-12T09:39:39Z</time>
      </trkpt>
      <trkpt lat="45.98713" lon="1.31872">
        <ele>429.4</ele>
        <time>2022-06-12T09:39:43Z</time>
      </trkpt>
      <trkpt lat="45.98716" lon="1.31872">
        <ele>429.2</ele>
        <time>2022-06-12T09:39:44Z</time>
      </trkpt>
      <trkpt lat="45.98719" lon="1.31874">
        <ele>429.2</ele>
        <time>2022-06-12T09:39:45Z</time>
      </trkpt>
      <trkpt lat="45.98723" lon="1.31881">
        <ele>428.8</ele>
        <time>2022-06-12T09:39:47Z</time>
      </trkpt>
      <trkpt lat="45.98724" lon="1.31884">
        <ele>429</ele>
        <time>2022-06-12T09:39:48Z</time>
      </trkpt>
      <trkpt lat="45.98728" lon="1.31894">
        <ele>429.4</ele>
        <time>2022-06-12T09:39:53Z</time>
      </trkpt>
      <trkpt lat="45.98733" lon="1.31902">
        <ele>429.8</ele>
        <time>2022-06-12T09:39:57Z</time>
      </trkpt>
      <trkpt lat="45.98737" lon="1.31909">
        <ele>430.4</ele>
        <time>2022-06-12T09:40:00Z</time>
      </trkpt>
      <trkpt lat="45.9874" lon="1.31914">
        <ele>431</ele>
        <time>2022-06-12T09:40:03Z</time>
      </trkpt>
      <trkpt lat="45.98745" lon="1.31923">
        <ele>432</ele>
        <time>2022-06-12T09:40:07Z</time>
      </trkpt>
      <trkpt lat="45.98747" lon="1.31928">
        <ele>432.4</ele>
        <time>2022-06-12T09:40:09Z</time>
      </trkpt>
      <trkpt lat="45.98752" lon="1.31934">
        <ele>432.8</ele>
        <time>2022-06-12T09:40:13Z</time>
      </trkpt>
      <trkpt lat="45.98755" lon="1.31934">
        <ele>433.2</ele>
        <time>2022-06-12T09:40:15Z</time>
      </trkpt>
      <trkpt lat="45.98757" lon="1.31934">
        <ele>433.4</ele>
        <time>2022-06-12T09:40:16Z</time>
      </trkpt>
      <trkpt lat="45.98763" lon="1.31933">
        <ele>434.2</ele>
        <time>2022-06-12T09:40:19Z</time>
      </trkpt>
      <trkpt lat="45.98768" lon="1.31929">
        <ele>435</ele>
        <time>2022-06-12T09:40:23Z</time>
      </trkpt>
      <trkpt lat="45.98768" lon="1.31929">
        <ele>435.2</ele>
        <time>2022-06-12T09:40:24Z</time>
      </trkpt>
      <trkpt lat="45.98777" lon="1.31923">
        <ele>436.2</ele>
        <time>2022-06-12T09:40:32Z</time>
      </trkpt>
      <trkpt lat="45.9878" lon="1.31912">
        <ele>437.4</ele>
        <time>2022-06-12T09:40:39Z</time>
      </trkpt>
      <trkpt lat="45.98782" lon="1.31907">
        <ele>437.6</ele>
        <time>2022-06-12T09:40:42Z</time>
      </trkpt>
      <trkpt lat="45.98784" lon="1.31901">
        <ele>438.4</ele>
        <time>2022-06-12T09:40:46Z</time>
      </trkpt>
      <trkpt lat="45.9879" lon="1.31886">
        <ele>439.6</ele>
        <time>2022-06-12T09:40:55Z</time>
      </trkpt>
      <trkpt lat="45.98796" lon="1.31875">
        <ele>440.8</ele>
        <time>2022-06-12T09:41:02Z</time>
      </trkpt>
      <trkpt lat="45.98798" lon="1.31868">
        <ele>441.2</ele>
        <time>2022-06-12T09:41:06Z</time>
      </trkpt>
      <trkpt lat="45.988" lon="1.31863">
        <ele>442</ele>
        <time>2022-06-12T09:41:10Z</time>
      </trkpt>
      <trkpt lat="45.98803" lon="1.31853">
        <ele>443</ele>
        <time>2022-06-12T09:41:16Z</time>
      </trkpt>
      <trkpt lat="45.98804" lon="1.31845">
        <ele>443.8</ele>
        <time>2022-06-12T09:41:21Z</time>
      </trkpt>
      <trkpt lat="45.98805" lon="1.31843">
        <ele>444.2</ele>
        <time>2022-06-12T09:41:22Z</time>
      </trkpt>
      <trkpt lat="45.98803" lon="1.31835">
        <ele>445.4</ele>
        <time>2022-06-12T09:41:27Z</time>
      </trkpt>
      <trkpt lat="45.98803" lon="1.31827">
        <ele>446.2</ele>
        <time>2022-06-12T09:41:32Z</time>
      </trkpt>
      <trkpt lat="45.98803" lon="1.31823">
        <ele>446.6</ele>
        <time>2022-06-12T09:41:34Z</time>
      </trkpt>
      <trkpt lat="45.98803" lon="1.31811">
        <ele>447.8</ele>
        <time>2022-06-12T09:41:41Z</time>
      </trkpt>
      <trkpt lat="45.98801" lon="1.31803">
        <ele>448.4</ele>
        <time>2022-06-12T09:41:46Z</time>
      </trkpt>
      <trkpt lat="45.98801" lon="1.318">
        <ele>448.8</ele>
        <time>2022-06-12T09:41:48Z</time>
      </trkpt>
      <trkpt lat="45.98799" lon="1.3179">
        <ele>449.8</ele>
        <time>2022-06-12T09:41:54Z</time>
      </trkpt>
      <trkpt lat="45.98797" lon="1.31781">
        <ele>450.6</ele>
        <time>2022-06-12T09:42:00Z</time>
      </trkpt>
      <trkpt lat="45.98796" lon="1.3177">
        <ele>450.8</ele>
        <time>2022-06-12T09:42:06Z</time>
      </trkpt>
      <trkpt lat="45.98793" lon="1.31758">
        <ele>451.6</ele>
        <time>2022-06-12T09:42:13Z</time>
      </trkpt>
      <trkpt lat="45.98793" lon="1.31756">
        <ele>451.8</ele>
        <time>2022-06-12T09:42:14Z</time>
      </trkpt>
      <trkpt lat="45.98782" lon="1.31727">
        <ele>452.6</ele>
        <time>2022-06-12T09:42:25Z</time>
      </trkpt>
      <trkpt lat="45.98778" lon="1.3172">
        <ele>453</ele>
        <time>2022-06-12T09:42:28Z</time>
      </trkpt>
      <trkpt lat="45.98769" lon="1.31712">
        <ele>454</ele>
        <time>2022-06-12T09:42:33Z</time>
      </trkpt>
      <trkpt lat="45.98766" lon="1.3171">
        <ele>454.4</ele>
        <time>2022-06-12T09:42:35Z</time>
      </trkpt>
      <trkpt lat="45.98752" lon="1.31701">
        <ele>455.2</ele>
        <time>2022-06-12T09:42:42Z</time>
      </trkpt>
      <trkpt lat="45.98741" lon="1.31694">
        <ele>456</ele>
        <time>2022-06-12T09:42:46Z</time>
      </trkpt>
      <trkpt lat="45.98738" lon="1.31692">
        <ele>456.2</ele>
        <time>2022-06-12T09:42:48Z</time>
      </trkpt>
      <trkpt lat="45.98728" lon="1.31685">
        <ele>457.2</ele>
        <time>2022-06-12T09:42:54Z</time>
      </trkpt>
      <trkpt lat="45.98725" lon="1.31683">
        <ele>457.6</ele>
        <time>2022-06-12T09:42:56Z</time>
      </trkpt>
      <trkpt lat="45.98718" lon="1.31679">
        <ele>458.2</ele>
        <time>2022-06-12T09:43:00Z</time>
      </trkpt>
      <trkpt lat="45.98716" lon="1.31677">
        <ele>458.4</ele>
        <time>2022-06-12T09:43:01Z</time>
      </trkpt>
      <trkpt lat="45.9871" lon="1.31673">
        <ele>459.6</ele>
        <time>2022-06-12T09:43:05Z</time>
      </trkpt>
      <trkpt lat="45.98705" lon="1.31667">
        <ele>460.4</ele>
        <time>2022-06-12T09:43:09Z</time>
      </trkpt>
      <trkpt lat="45.98702" lon="1.31663">
        <ele>460.4</ele>
        <time>2022-06-12T09:43:12Z</time>
      </trkpt>
      <trkpt lat="45.98697" lon="1.31655">
        <ele>460.6</ele>
        <time>2022-06-12T09:43:15Z</time>
      </trkpt>
      <trkpt lat="45.98694" lon="1.3165">
        <ele>461</ele>
        <time>2022-06-12T09:43:17Z</time>
      </trkpt>
      <trkpt lat="45.98687" lon="1.3163">
        <ele>461.4</ele>
        <time>2022-06-12T09:43:25Z</time>
      </trkpt>
      <trkpt lat="45.98678" lon="1.31604">
        <ele>461.2</ele>
        <time>2022-06-12T09:43:33Z</time>
      </trkpt>
      <trkpt lat="45.98677" lon="1.31601">
        <ele>461</ele>
        <time>2022-06-12T09:43:34Z</time>
      </trkpt>
      <trkpt lat="45.98674" lon="1.31582">
        <ele>460.2</ele>
        <time>2022-06-12T09:43:38Z</time>
      </trkpt>
      <trkpt lat="45.98674" lon="1.31576">
        <ele>459.8</ele>
        <time>2022-06-12T09:43:39Z</time>
      </trkpt>
      <trkpt lat="45.98675" lon="1.31573">
        <ele>459.2</ele>
        <time>2022-06-12T09:43:40Z</time>
      </trkpt>
      <trkpt lat="45.98675" lon="1.31568">
        <ele>458.6</ele>
        <time>2022-06-12T09:43:42Z</time>
      </trkpt>
      <trkpt lat="45.98676" lon="1.31566">
        <ele>458.2</ele>
        <time>2022-06-12T09:43:43Z</time>
      </trkpt>
      <trkpt lat="45.98678" lon="1.31561">
        <ele>457.8</ele>
        <time>2022-06-12T09:43:45Z</time>
      </trkpt>
      <trkpt lat="45.98681" lon="1.31557">
        <ele>457.6</ele>
        <time>2022-06-12T09:43:47Z</time>
      </trkpt>
      <trkpt lat="45.98686" lon="1.31555">
        <ele>457</ele>
        <time>2022-06-12T09:43:49Z</time>
      </trkpt>
      <trkpt lat="45.98688" lon="1.31554">
        <ele>457</ele>
        <time>2022-06-12T09:43:50Z</time>
      </trkpt>
      <trkpt lat="45.98697" lon="1.31548">
        <ele>456.8</ele>
        <time>2022-06-12T09:43:53Z</time>
      </trkpt>
      <trkpt lat="45.98712" lon="1.31542">
        <ele>456</ele>
        <time>2022-06-12T09:43:57Z</time>
      </trkpt>
      <trkpt lat="45.98714" lon="1.31541">
        <ele>455.8</ele>
        <time>2022-06-12T09:43:58Z</time>
      </trkpt>
      <trkpt lat="45.98717" lon="1.3154">
        <ele>455.6</ele>
        <time>2022-06-12T09:43:59Z</time>
      </trkpt>
      <trkpt lat="45.98736" lon="1.31545">
        <ele>454.8</ele>
        <time>2022-06-12T09:44:03Z</time>
      </trkpt>
      <trkpt lat="45.98743" lon="1.31545">
        <ele>454.4</ele>
        <time>2022-06-12T09:44:04Z</time>
      </trkpt>
      <trkpt lat="45.98762" lon="1.31549">
        <ele>453.8</ele>
        <time>2022-06-12T09:44:07Z</time>
      </trkpt>
      <trkpt lat="45.98768" lon="1.31549">
        <ele>453.6</ele>
        <time>2022-06-12T09:44:08Z</time>
      </trkpt>
      <trkpt lat="45.98774" lon="1.31549">
        <ele>453.6</ele>
        <time>2022-06-12T09:44:09Z</time>
      </trkpt>
      <trkpt lat="45.98786" lon="1.31551">
        <ele>453.4</ele>
        <time>2022-06-12T09:44:11Z</time>
      </trkpt>
      <trkpt lat="45.98797" lon="1.31554">
        <ele>452.2</ele>
        <time>2022-06-12T09:44:13Z</time>
      </trkpt>
      <trkpt lat="45.98801" lon="1.31556">
        <ele>451.6</ele>
        <time>2022-06-12T09:44:14Z</time>
      </trkpt>
      <trkpt lat="45.98806" lon="1.31558">
        <ele>449.8</ele>
        <time>2022-06-12T09:44:15Z</time>
      </trkpt>
      <trkpt lat="45.9881" lon="1.3156">
        <ele>448.8</ele>
        <time>2022-06-12T09:44:16Z</time>
      </trkpt>
      <trkpt lat="45.98814" lon="1.31561">
        <ele>447.6</ele>
        <time>2022-06-12T09:44:17Z</time>
      </trkpt>
      <trkpt lat="45.98819" lon="1.31561">
        <ele>447</ele>
        <time>2022-06-12T09:44:18Z</time>
      </trkpt>
      <trkpt lat="45.98823" lon="1.3156">
        <ele>446.2</ele>
        <time>2022-06-12T09:44:19Z</time>
      </trkpt>
      <trkpt lat="45.98834" lon="1.31556">
        <ele>444.8</ele>
        <time>2022-06-12T09:44:21Z</time>
      </trkpt>
      <trkpt lat="45.98845" lon="1.31552">
        <ele>443.2</ele>
        <time>2022-06-12T09:44:23Z</time>
      </trkpt>
      <trkpt lat="45.9885" lon="1.31549">
        <ele>442.6</ele>
        <time>2022-06-12T09:44:24Z</time>
      </trkpt>
      <trkpt lat="45.98854" lon="1.31547">
        <ele>442</ele>
        <time>2022-06-12T09:44:25Z</time>
      </trkpt>
      <trkpt lat="45.98863" lon="1.31545">
        <ele>441.2</ele>
        <time>2022-06-12T09:44:27Z</time>
      </trkpt>
      <trkpt lat="45.98869" lon="1.31547">
        <ele>440.4</ele>
        <time>2022-06-12T09:44:28Z</time>
      </trkpt>
      <trkpt lat="45.98885" lon="1.31551">
        <ele>439.2</ele>
        <time>2022-06-12T09:44:31Z</time>
      </trkpt>
      <trkpt lat="45.98892" lon="1.31552">
        <ele>437.8</ele>
        <time>2022-06-12T09:44:32Z</time>
      </trkpt>
      <trkpt lat="45.98899" lon="1.31554">
        <ele>437.2</ele>
        <time>2022-06-12T09:44:33Z</time>
      </trkpt>
      <trkpt lat="45.98906" lon="1.31555">
        <ele>436.4</ele>
        <time>2022-06-12T09:44:34Z</time>
      </trkpt>
      <trkpt lat="45.98918" lon="1.31557">
        <ele>435.2</ele>
        <time>2022-06-12T09:44:36Z</time>
      </trkpt>
      <trkpt lat="45.98924" lon="1.31556">
        <ele>435</ele>
        <time>2022-06-12T09:44:37Z</time>
      </trkpt>
      <trkpt lat="45.98929" lon="1.31554">
        <ele>434.8</ele>
        <time>2022-06-12T09:44:38Z</time>
      </trkpt>
      <trkpt lat="45.98934" lon="1.3155">
        <ele>434.2</ele>
        <time>2022-06-12T09:44:39Z</time>
      </trkpt>
      <trkpt lat="45.98939" lon="1.31546">
        <ele>433</ele>
        <time>2022-06-12T09:44:40Z</time>
      </trkpt>
      <trkpt lat="45.98944" lon="1.31542">
        <ele>432.2</ele>
        <time>2022-06-12T09:44:41Z</time>
      </trkpt>
      <trkpt lat="45.98949" lon="1.31538">
        <ele>431.6</ele>
        <time>2022-06-12T09:44:42Z</time>
      </trkpt>
      <trkpt lat="45.98952" lon="1.31536">
        <ele>431.2</ele>
        <time>2022-06-12T09:44:43Z</time>
      </trkpt>
      <trkpt lat="45.9896" lon="1.31534">
        <ele>431</ele>
        <time>2022-06-12T09:44:45Z</time>
      </trkpt>
      <trkpt lat="45.98972" lon="1.31532">
        <ele>431.6</ele>
        <time>2022-06-12T09:44:50Z</time>
      </trkpt>
      <trkpt lat="45.9898" lon="1.31533">
        <ele>432.6</ele>
        <time>2022-06-12T09:44:53Z</time>
      </trkpt>
      <trkpt lat="45.98993" lon="1.31536">
        <ele>433.2</ele>
        <time>2022-06-12T09:44:58Z</time>
      </trkpt>
      <trkpt lat="45.99002" lon="1.31537">
        <ele>433.4</ele>
        <time>2022-06-12T09:45:00Z</time>
      </trkpt>
      <trkpt lat="45.99014" lon="1.31537">
        <ele>433.6</ele>
        <time>2022-06-12T09:45:03Z</time>
      </trkpt>
      <trkpt lat="45.99032" lon="1.31534">
        <ele>433.6</ele>
        <time>2022-06-12T09:45:09Z</time>
      </trkpt>
      <trkpt lat="45.99036" lon="1.31532">
        <ele>433.6</ele>
        <time>2022-06-12T09:45:10Z</time>
      </trkpt>
      <trkpt lat="45.99046" lon="1.31526">
        <ele>434.8</ele>
        <time>2022-06-12T09:45:14Z</time>
      </trkpt>
      <trkpt lat="45.99053" lon="1.31521">
        <ele>435.8</ele>
        <time>2022-06-12T09:45:18Z</time>
      </trkpt>
      <trkpt lat="45.99059" lon="1.31517">
        <ele>436.4</ele>
        <time>2022-06-12T09:45:21Z</time>
      </trkpt>
      <trkpt lat="45.99071" lon="1.31514">
        <ele>437</ele>
        <time>2022-06-12T09:45:27Z</time>
      </trkpt>
      <trkpt lat="45.99073" lon="1.31513">
        <ele>437.2</ele>
        <time>2022-06-12T09:45:28Z</time>
      </trkpt>
      <trkpt lat="45.99085" lon="1.31509">
        <ele>437.8</ele>
        <time>2022-06-12T09:45:34Z</time>
      </trkpt>
      <trkpt lat="45.99089" lon="1.31508">
        <ele>438</ele>
        <time>2022-06-12T09:45:36Z</time>
      </trkpt>
      <trkpt lat="45.99099" lon="1.31508">
        <ele>438.6</ele>
        <time>2022-06-12T09:45:41Z</time>
      </trkpt>
      <trkpt lat="45.99113" lon="1.3151">
        <ele>439.2</ele>
        <time>2022-06-12T09:45:46Z</time>
      </trkpt>
      <trkpt lat="45.9912" lon="1.31512">
        <ele>439.4</ele>
        <time>2022-06-12T09:45:48Z</time>
      </trkpt>
      <trkpt lat="45.9914" lon="1.31517">
        <ele>439.6</ele>
        <time>2022-06-12T09:45:54Z</time>
      </trkpt>
      <trkpt lat="45.99157" lon="1.31523">
        <ele>439.8</ele>
        <time>2022-06-12T09:46:00Z</time>
      </trkpt>
      <trkpt lat="45.99165" lon="1.31524">
        <ele>440</ele>
        <time>2022-06-12T09:46:03Z</time>
      </trkpt>
      <trkpt lat="45.99168" lon="1.31521">
        <ele>440</ele>
        <time>2022-06-12T09:46:04Z</time>
      </trkpt>
      <trkpt lat="45.99171" lon="1.31512">
        <ele>440</ele>
        <time>2022-06-12T09:46:08Z</time>
      </trkpt>
      <trkpt lat="45.99173" lon="1.31509">
        <ele>440.2</ele>
        <time>2022-06-12T09:46:10Z</time>
      </trkpt>
      <trkpt lat="45.99179" lon="1.31501">
        <ele>440.8</ele>
        <time>2022-06-12T09:46:14Z</time>
      </trkpt>
      <trkpt lat="45.99182" lon="1.31497">
        <ele>441.4</ele>
        <time>2022-06-12T09:46:16Z</time>
      </trkpt>
      <trkpt lat="45.99187" lon="1.31488">
        <ele>442.6</ele>
        <time>2022-06-12T09:46:21Z</time>
      </trkpt>
      <trkpt lat="45.99188" lon="1.31482">
        <ele>443.6</ele>
        <time>2022-06-12T09:46:25Z</time>
      </trkpt>
      <trkpt lat="45.99189" lon="1.31475">
        <ele>444</ele>
        <time>2022-06-12T09:46:28Z</time>
      </trkpt>
      <trkpt lat="45.99188" lon="1.31472">
        <ele>444.4</ele>
        <time>2022-06-12T09:46:30Z</time>
      </trkpt>
      <trkpt lat="45.99188" lon="1.31469">
        <ele>444.6</ele>
        <time>2022-06-12T09:46:32Z</time>
      </trkpt>
      <trkpt lat="45.99187" lon="1.31466">
        <ele>445</ele>
        <time>2022-06-12T09:46:34Z</time>
      </trkpt>
      <trkpt lat="45.99183" lon="1.31462">
        <ele>445.4</ele>
        <time>2022-06-12T09:46:38Z</time>
      </trkpt>
      <trkpt lat="45.99179" lon="1.31458">
        <ele>445.8</ele>
        <time>2022-06-12T09:46:41Z</time>
      </trkpt>
      <trkpt lat="45.99167" lon="1.31447">
        <ele>446.4</ele>
        <time>2022-06-12T09:46:50Z</time>
      </trkpt>
      <trkpt lat="45.99163" lon="1.31443">
        <ele>446.8</ele>
        <time>2022-06-12T09:46:53Z</time>
      </trkpt>
      <trkpt lat="45.99156" lon="1.31435">
        <ele>447</ele>
        <time>2022-06-12T09:46:58Z</time>
      </trkpt>
      <trkpt lat="45.99147" lon="1.31421">
        <ele>447.4</ele>
        <time>2022-06-12T09:47:04Z</time>
      </trkpt>
      <trkpt lat="45.99141" lon="1.31411">
        <ele>448</ele>
        <time>2022-06-12T09:47:07Z</time>
      </trkpt>
      <trkpt lat="45.99136" lon="1.31402">
        <ele>448.6</ele>
        <time>2022-06-12T09:47:10Z</time>
      </trkpt>
      <trkpt lat="45.99129" lon="1.31387">
        <ele>449.2</ele>
        <time>2022-06-12T09:47:15Z</time>
      </trkpt>
      <trkpt lat="45.99126" lon="1.31382">
        <ele>449.4</ele>
        <time>2022-06-12T09:47:17Z</time>
      </trkpt>
      <trkpt lat="45.99121" lon="1.3137">
        <ele>450.2</ele>
        <time>2022-06-12T09:47:21Z</time>
      </trkpt>
      <trkpt lat="45.99118" lon="1.3136">
        <ele>450.6</ele>
        <time>2022-06-12T09:47:23Z</time>
      </trkpt>
      <trkpt lat="45.99115" lon="1.31337">
        <ele>449.6</ele>
        <time>2022-06-12T09:47:27Z</time>
      </trkpt>
      <trkpt lat="45.99115" lon="1.3133">
        <ele>449.2</ele>
        <time>2022-06-12T09:47:28Z</time>
      </trkpt>
      <trkpt lat="45.99115" lon="1.31325">
        <ele>449</ele>
        <time>2022-06-12T09:47:29Z</time>
      </trkpt>
      <trkpt lat="45.99112" lon="1.31315">
        <ele>448.8</ele>
        <time>2022-06-12T09:47:31Z</time>
      </trkpt>
      <trkpt lat="45.99106" lon="1.31308">
        <ele>448.4</ele>
        <time>2022-06-12T09:47:33Z</time>
      </trkpt>
      <trkpt lat="45.991" lon="1.31304">
        <ele>448</ele>
        <time>2022-06-12T09:47:35Z</time>
      </trkpt>
      <trkpt lat="45.99097" lon="1.31303">
        <ele>448</ele>
        <time>2022-06-12T09:47:36Z</time>
      </trkpt>
      <trkpt lat="45.9908" lon="1.31295">
        <ele>448.4</ele>
        <time>2022-06-12T09:47:42Z</time>
      </trkpt>
      <trkpt lat="45.9906" lon="1.3129">
        <ele>448.6</ele>
        <time>2022-06-12T09:47:48Z</time>
      </trkpt>
      <trkpt lat="45.99052" lon="1.31289">
        <ele>449.2</ele>
        <time>2022-06-12T09:47:51Z</time>
      </trkpt>
      <trkpt lat="45.99041" lon="1.31288">
        <ele>449.8</ele>
        <time>2022-06-12T09:47:55Z</time>
      </trkpt>
      <trkpt lat="45.99036" lon="1.31286">
        <ele>450.4</ele>
        <time>2022-06-12T09:47:57Z</time>
      </trkpt>
      <trkpt lat="45.99027" lon="1.31283">
        <ele>451.6</ele>
        <time>2022-06-12T09:48:01Z</time>
      </trkpt>
      <trkpt lat="45.99026" lon="1.31282">
        <ele>451.6</ele>
        <time>2022-06-12T09:48:02Z</time>
      </trkpt>
      <trkpt lat="45.99019" lon="1.31279">
        <ele>452.2</ele>
        <time>2022-06-12T09:48:06Z</time>
      </trkpt>
      <trkpt lat="45.99016" lon="1.31276">
        <ele>452.6</ele>
        <time>2022-06-12T09:48:08Z</time>
      </trkpt>
      <trkpt lat="45.99015" lon="1.31275">
        <ele>452.8</ele>
        <time>2022-06-12T09:48:09Z</time>
      </trkpt>
      <trkpt lat="45.9901" lon="1.31272">
        <ele>453.2</ele>
        <time>2022-06-12T09:48:12Z</time>
      </trkpt>
      <trkpt lat="45.99009" lon="1.31271">
        <ele>453.6</ele>
        <time>2022-06-12T09:48:13Z</time>
      </trkpt>
      <trkpt lat="45.99008" lon="1.31269">
        <ele>454</ele>
        <time>2022-06-12T09:48:14Z</time>
      </trkpt>
      <trkpt lat="45.99004" lon="1.31263">
        <ele>454.6</ele>
        <time>2022-06-12T09:48:17Z</time>
      </trkpt>
      <trkpt lat="45.99003" lon="1.31262">
        <ele>454.6</ele>
        <time>2022-06-12T09:48:18Z</time>
      </trkpt>
      <trkpt lat="45.98999" lon="1.31257">
        <ele>454.8</ele>
        <time>2022-06-12T09:48:21Z</time>
      </trkpt>
      <trkpt lat="45.98996" lon="1.31252">
        <ele>455</ele>
        <time>2022-06-12T09:48:24Z</time>
      </trkpt>
      <trkpt lat="45.98995" lon="1.31251">
        <ele>455.2</ele>
        <time>2022-06-12T09:48:25Z</time>
      </trkpt>
      <trkpt lat="45.98994" lon="1.31248">
        <ele>455.8</ele>
        <time>2022-06-12T09:48:27Z</time>
      </trkpt>
      <trkpt lat="45.9899" lon="1.31235">
        <ele>457</ele>
        <time>2022-06-12T09:48:34Z</time>
      </trkpt>
      <trkpt lat="45.9899" lon="1.31233">
        <ele>457.4</ele>
        <time>2022-06-12T09:48:35Z</time>
      </trkpt>
      <trkpt lat="45.98987" lon="1.31224">
        <ele>458</ele>
        <time>2022-06-12T09:48:40Z</time>
      </trkpt>
      <trkpt lat="45.98985" lon="1.31216">
        <ele>458.4</ele>
        <time>2022-06-12T09:48:44Z</time>
      </trkpt>
      <trkpt lat="45.98975" lon="1.31206">
        <ele>459</ele>
        <time>2022-06-12T09:48:51Z</time>
      </trkpt>
      <trkpt lat="45.9897" lon="1.31202">
        <ele>459.2</ele>
        <time>2022-06-12T09:48:54Z</time>
      </trkpt>
      <trkpt lat="45.98964" lon="1.31198">
        <ele>459.8</ele>
        <time>2022-06-12T09:48:58Z</time>
      </trkpt>
      <trkpt lat="45.98962" lon="1.31197">
        <ele>459.8</ele>
        <time>2022-06-12T09:48:59Z</time>
      </trkpt>
      <trkpt lat="45.98955" lon="1.31194">
        <ele>460.2</ele>
        <time>2022-06-12T09:49:03Z</time>
      </trkpt>
      <trkpt lat="45.98951" lon="1.31194">
        <ele>460.6</ele>
        <time>2022-06-12T09:49:06Z</time>
      </trkpt>
      <trkpt lat="45.98943" lon="1.31199">
        <ele>461.2</ele>
        <time>2022-06-12T09:49:11Z</time>
      </trkpt>
      <trkpt lat="45.98939" lon="1.31202">
        <ele>461.6</ele>
        <time>2022-06-12T09:49:14Z</time>
      </trkpt>
      <trkpt lat="45.98931" lon="1.31207">
        <ele>462.4</ele>
        <time>2022-06-12T09:49:19Z</time>
      </trkpt>
      <trkpt lat="45.98927" lon="1.31209">
        <ele>463</ele>
        <time>2022-06-12T09:49:22Z</time>
      </trkpt>
      <trkpt lat="45.98922" lon="1.31209">
        <ele>463.6</ele>
        <time>2022-06-12T09:49:25Z</time>
      </trkpt>
      <trkpt lat="45.9892" lon="1.31209">
        <ele>463.8</ele>
        <time>2022-06-12T09:49:26Z</time>
      </trkpt>
      <trkpt lat="45.98916" lon="1.31208">
        <ele>464.2</ele>
        <time>2022-06-12T09:49:28Z</time>
      </trkpt>
      <trkpt lat="45.9891" lon="1.31207">
        <ele>464.6</ele>
        <time>2022-06-12T09:49:32Z</time>
      </trkpt>
      <trkpt lat="45.98906" lon="1.31207">
        <ele>465</ele>
        <time>2022-06-12T09:49:35Z</time>
      </trkpt>
      <trkpt lat="45.98901" lon="1.31204">
        <ele>466</ele>
        <time>2022-06-12T09:49:38Z</time>
      </trkpt>
      <trkpt lat="45.98898" lon="1.312">
        <ele>466.4</ele>
        <time>2022-06-12T09:49:41Z</time>
      </trkpt>
      <trkpt lat="45.98885" lon="1.3119">
        <ele>467</ele>
        <time>2022-06-12T09:49:48Z</time>
      </trkpt>
      <trkpt lat="45.98878" lon="1.31184">
        <ele>468.2</ele>
        <time>2022-06-12T09:49:53Z</time>
      </trkpt>
      <trkpt lat="45.98874" lon="1.31181">
        <ele>469</ele>
        <time>2022-06-12T09:49:56Z</time>
      </trkpt>
      <trkpt lat="45.98869" lon="1.31176">
        <ele>469.4</ele>
        <time>2022-06-12T09:49:59Z</time>
      </trkpt>
      <trkpt lat="45.98861" lon="1.31167">
        <ele>470</ele>
        <time>2022-06-12T09:50:05Z</time>
      </trkpt>
      <trkpt lat="45.9886" lon="1.31161">
        <ele>470.4</ele>
        <time>2022-06-12T09:50:08Z</time>
      </trkpt>
      <trkpt lat="45.98858" lon="1.31153">
        <ele>471.2</ele>
        <time>2022-06-12T09:50:13Z</time>
      </trkpt>
      <trkpt lat="45.98858" lon="1.3115">
        <ele>471.6</ele>
        <time>2022-06-12T09:50:15Z</time>
      </trkpt>
      <trkpt lat="45.98858" lon="1.31147">
        <ele>471.8</ele>
        <time>2022-06-12T09:50:17Z</time>
      </trkpt>
      <trkpt lat="45.98858" lon="1.31143">
        <ele>472.4</ele>
        <time>2022-06-12T09:50:20Z</time>
      </trkpt>
      <trkpt lat="45.98858" lon="1.3114">
        <ele>472.6</ele>
        <time>2022-06-12T09:50:22Z</time>
      </trkpt>
      <trkpt lat="45.98856" lon="1.31131">
        <ele>473.4</ele>
        <time>2022-06-12T09:50:28Z</time>
      </trkpt>
      <trkpt lat="45.98855" lon="1.31128">
        <ele>473.6</ele>
        <time>2022-06-12T09:50:30Z</time>
      </trkpt>
      <trkpt lat="45.98854" lon="1.31126">
        <ele>473.8</ele>
        <time>2022-06-12T09:50:31Z</time>
      </trkpt>
      <trkpt lat="45.98851" lon="1.31116">
        <ele>474.8</ele>
        <time>2022-06-12T09:50:36Z</time>
      </trkpt>
      <trkpt lat="45.98848" lon="1.311">
        <ele>475.8</ele>
        <time>2022-06-12T09:50:44Z</time>
      </trkpt>
      <trkpt lat="45.98847" lon="1.31098">
        <ele>476</ele>
        <time>2022-06-12T09:50:45Z</time>
      </trkpt>
      <trkpt lat="45.98842" lon="1.31083">
        <ele>476.8</ele>
        <time>2022-06-12T09:50:52Z</time>
      </trkpt>
      <trkpt lat="45.9884" lon="1.31079">
        <ele>477.2</ele>
        <time>2022-06-12T09:50:54Z</time>
      </trkpt>
      <trkpt lat="45.98834" lon="1.31067">
        <ele>478</ele>
        <time>2022-06-12T09:51:00Z</time>
      </trkpt>
      <trkpt lat="45.98831" lon="1.31063">
        <ele>478.2</ele>
        <time>2022-06-12T09:51:02Z</time>
      </trkpt>
      <trkpt lat="45.98826" lon="1.31053">
        <ele>479</ele>
        <time>2022-06-12T09:51:07Z</time>
      </trkpt>
      <trkpt lat="45.98822" lon="1.31047">
        <ele>479.2</ele>
        <time>2022-06-12T09:51:11Z</time>
      </trkpt>
      <trkpt lat="45.98817" lon="1.31038">
        <ele>479.6</ele>
        <time>2022-06-12T09:51:15Z</time>
      </trkpt>
      <trkpt lat="45.9881" lon="1.31026">
        <ele>479.8</ele>
        <time>2022-06-12T09:51:21Z</time>
      </trkpt>
      <trkpt lat="45.98804" lon="1.31013">
        <ele>480.4</ele>
        <time>2022-06-12T09:51:27Z</time>
      </trkpt>
      <trkpt lat="45.988" lon="1.31007">
        <ele>480.8</ele>
        <time>2022-06-12T09:51:30Z</time>
      </trkpt>
      <trkpt lat="45.98798" lon="1.31001">
        <ele>481.6</ele>
        <time>2022-06-12T09:51:33Z</time>
      </trkpt>
      <trkpt lat="45.98796" lon="1.30993">
        <ele>482.2</ele>
        <time>2022-06-12T09:51:37Z</time>
      </trkpt>
      <trkpt lat="45.98795" lon="1.30988">
        <ele>482.4</ele>
        <time>2022-06-12T09:51:40Z</time>
      </trkpt>
      <trkpt lat="45.98795" lon="1.30987">
        <ele>482.6</ele>
        <time>2022-06-12T09:51:41Z</time>
      </trkpt>
      <trkpt lat="45.98796" lon="1.30981">
        <ele>483.6</ele>
        <time>2022-06-12T09:51:45Z</time>
      </trkpt>
      <trkpt lat="45.98797" lon="1.3098">
        <ele>483.8</ele>
        <time>2022-06-12T09:51:46Z</time>
      </trkpt>
      <trkpt lat="45.98796" lon="1.3097">
        <ele>484.8</ele>
        <time>2022-06-12T09:51:52Z</time>
      </trkpt>
      <trkpt lat="45.98798" lon="1.30962">
        <ele>485.8</ele>
        <time>2022-06-12T09:51:56Z</time>
      </trkpt>
      <trkpt lat="45.98798" lon="1.3096">
        <ele>486</ele>
        <time>2022-06-12T09:51:58Z</time>
      </trkpt>
      <trkpt lat="45.98798" lon="1.30959">
        <ele>486.2</ele>
        <time>2022-06-12T09:51:59Z</time>
      </trkpt>
      <trkpt lat="45.98799" lon="1.30956">
        <ele>486.6</ele>
        <time>2022-06-12T09:52:01Z</time>
      </trkpt>
      <trkpt lat="45.988" lon="1.30953">
        <ele>486.8</ele>
        <time>2022-06-12T09:52:03Z</time>
      </trkpt>
      <trkpt lat="45.988" lon="1.30949">
        <ele>487</ele>
        <time>2022-06-12T09:52:05Z</time>
      </trkpt>
      <trkpt lat="45.98799" lon="1.30939">
        <ele>488</ele>
        <time>2022-06-12T09:52:10Z</time>
      </trkpt>
      <trkpt lat="45.98799" lon="1.30937">
        <ele>488.2</ele>
        <time>2022-06-12T09:52:11Z</time>
      </trkpt>
      <trkpt lat="45.98799" lon="1.30933">
        <ele>489</ele>
        <time>2022-06-12T09:52:14Z</time>
      </trkpt>
      <trkpt lat="45.98798" lon="1.30917">
        <ele>490.2</ele>
        <time>2022-06-12T09:52:23Z</time>
      </trkpt>
      <trkpt lat="45.98798" lon="1.30916">
        <ele>490.2</ele>
        <time>2022-06-12T09:52:24Z</time>
      </trkpt>
      <trkpt lat="45.98797" lon="1.30904">
        <ele>491.2</ele>
        <time>2022-06-12T09:52:31Z</time>
      </trkpt>
      <trkpt lat="45.98797" lon="1.30891">
        <ele>492</ele>
        <time>2022-06-12T09:52:37Z</time>
      </trkpt>
      <trkpt lat="45.98798" lon="1.30889">
        <ele>492.2</ele>
        <time>2022-06-12T09:52:38Z</time>
      </trkpt>
      <trkpt lat="45.98797" lon="1.30872">
        <ele>493.4</ele>
        <time>2022-06-12T09:52:46Z</time>
      </trkpt>
      <trkpt lat="45.98797" lon="1.30861">
        <ele>493.8</ele>
        <time>2022-06-12T09:52:51Z</time>
      </trkpt>
      <trkpt lat="45.98795" lon="1.30848">
        <ele>494.4</ele>
        <time>2022-06-12T09:52:57Z</time>
      </trkpt>
      <trkpt lat="45.98794" lon="1.30832">
        <ele>495.2</ele>
        <time>2022-06-12T09:53:03Z</time>
      </trkpt>
      <trkpt lat="45.98793" lon="1.30817">
        <ele>495.6</ele>
        <time>2022-06-12T09:53:09Z</time>
      </trkpt>
      <trkpt lat="45.98792" lon="1.30809">
        <ele>496</ele>
        <time>2022-06-12T09:53:12Z</time>
      </trkpt>
      <trkpt lat="45.98787" lon="1.3079">
        <ele>496.8</ele>
        <time>2022-06-12T09:53:19Z</time>
      </trkpt>
      <trkpt lat="45.98785" lon="1.30786">
        <ele>497.2</ele>
        <time>2022-06-12T09:53:21Z</time>
      </trkpt>
      <trkpt lat="45.98776" lon="1.30779">
        <ele>497.8</ele>
        <time>2022-06-12T09:53:27Z</time>
      </trkpt>
      <trkpt lat="45.98775" lon="1.30777">
        <ele>498</ele>
        <time>2022-06-12T09:53:28Z</time>
      </trkpt>
      <trkpt lat="45.98758" lon="1.30767">
        <ele>498.6</ele>
        <time>2022-06-12T09:53:36Z</time>
      </trkpt>
      <trkpt lat="45.98749" lon="1.30763">
        <ele>499</ele>
        <time>2022-06-12T09:53:41Z</time>
      </trkpt>
      <trkpt lat="45.98744" lon="1.30761">
        <ele>499.2</ele>
        <time>2022-06-12T09:53:44Z</time>
      </trkpt>
      <trkpt lat="45.98738" lon="1.30758">
        <ele>500.2</ele>
        <time>2022-06-12T09:53:49Z</time>
      </trkpt>
      <trkpt lat="45.98732" lon="1.30754">
        <ele>501</ele>
        <time>2022-06-12T09:53:53Z</time>
      </trkpt>
      <trkpt lat="45.9873" lon="1.30752">
        <ele>501.2</ele>
        <time>2022-06-12T09:53:55Z</time>
      </trkpt>
      <trkpt lat="45.98722" lon="1.30746">
        <ele>502</ele>
        <time>2022-06-12T09:54:02Z</time>
      </trkpt>
      <trkpt lat="45.98721" lon="1.30745">
        <ele>502.2</ele>
        <time>2022-06-12T09:54:03Z</time>
      </trkpt>
      <trkpt lat="45.98715" lon="1.30739">
        <ele>503.4</ele>
        <time>2022-06-12T09:54:08Z</time>
      </trkpt>
      <trkpt lat="45.98712" lon="1.30736">
        <ele>503.8</ele>
        <time>2022-06-12T09:54:11Z</time>
      </trkpt>
      <trkpt lat="45.98708" lon="1.3073">
        <ele>504.4</ele>
        <time>2022-06-12T09:54:15Z</time>
      </trkpt>
      <trkpt lat="45.98706" lon="1.30726">
        <ele>505</ele>
        <time>2022-06-12T09:54:18Z</time>
      </trkpt>
      <trkpt lat="45.98705" lon="1.30721">
        <ele>505.6</ele>
        <time>2022-06-12T09:54:21Z</time>
      </trkpt>
      <trkpt lat="45.98704" lon="1.30716">
        <ele>506</ele>
        <time>2022-06-12T09:54:24Z</time>
      </trkpt>
      <trkpt lat="45.98704" lon="1.30704">
        <ele>506.6</ele>
        <time>2022-06-12T09:54:30Z</time>
      </trkpt>
      <trkpt lat="45.98706" lon="1.30701">
        <ele>507</ele>
        <time>2022-06-12T09:54:32Z</time>
      </trkpt>
      <trkpt lat="45.98706" lon="1.30695">
        <ele>507.4</ele>
        <time>2022-06-12T09:54:35Z</time>
      </trkpt>
      <trkpt lat="45.98706" lon="1.30684">
        <ele>507.6</ele>
        <time>2022-06-12T09:54:40Z</time>
      </trkpt>
      <trkpt lat="45.98705" lon="1.30682">
        <ele>507.8</ele>
        <time>2022-06-12T09:54:41Z</time>
      </trkpt>
      <trkpt lat="45.987" lon="1.30659">
        <ele>508.6</ele>
        <time>2022-06-12T09:54:49Z</time>
      </trkpt>
      <trkpt lat="45.98699" lon="1.30657">
        <ele>508.8</ele>
        <time>2022-06-12T09:54:50Z</time>
      </trkpt>
      <trkpt lat="45.98694" lon="1.3064">
        <ele>508.6</ele>
        <time>2022-06-12T09:54:56Z</time>
      </trkpt>
      <trkpt lat="45.98691" lon="1.30614">
        <ele>508.2</ele>
        <time>2022-06-12T09:55:01Z</time>
      </trkpt>
      <trkpt lat="45.98693" lon="1.30601">
        <ele>508</ele>
        <time>2022-06-12T09:55:03Z</time>
      </trkpt>
      <trkpt lat="45.98695" lon="1.30595">
        <ele>507.8</ele>
        <time>2022-06-12T09:55:04Z</time>
      </trkpt>
      <trkpt lat="45.98698" lon="1.30589">
        <ele>507.6</ele>
        <time>2022-06-12T09:55:05Z</time>
      </trkpt>
      <trkpt lat="45.98711" lon="1.30568">
        <ele>507</ele>
        <time>2022-06-12T09:55:08Z</time>
      </trkpt>
      <trkpt lat="45.98724" lon="1.30546">
        <ele>506.2</ele>
        <time>2022-06-12T09:55:11Z</time>
      </trkpt>
      <trkpt lat="45.98738" lon="1.30524">
        <ele>505.4</ele>
        <time>2022-06-12T09:55:14Z</time>
      </trkpt>
      <trkpt lat="45.98743" lon="1.30516">
        <ele>505.2</ele>
        <time>2022-06-12T09:55:15Z</time>
      </trkpt>
      <trkpt lat="45.98768" lon="1.30484">
        <ele>504.2</ele>
        <time>2022-06-12T09:55:20Z</time>
      </trkpt>
      <trkpt lat="45.98778" lon="1.30478">
        <ele>502.8</ele>
        <time>2022-06-12T09:55:22Z</time>
      </trkpt>
      <trkpt lat="45.98788" lon="1.30474">
        <ele>501.6</ele>
        <time>2022-06-12T09:55:24Z</time>
      </trkpt>
      <trkpt lat="45.98793" lon="1.30474">
        <ele>501</ele>
        <time>2022-06-12T09:55:25Z</time>
      </trkpt>
      <trkpt lat="45.98798" lon="1.30474">
        <ele>500.4</ele>
        <time>2022-06-12T09:55:26Z</time>
      </trkpt>
      <trkpt lat="45.98811" lon="1.30475">
        <ele>499.2</ele>
        <time>2022-06-12T09:55:28Z</time>
      </trkpt>
      <trkpt lat="45.98818" lon="1.30477">
        <ele>498.8</ele>
        <time>2022-06-12T09:55:29Z</time>
      </trkpt>
      <trkpt lat="45.98824" lon="1.3048">
        <ele>498</ele>
        <time>2022-06-12T09:55:30Z</time>
      </trkpt>
      <trkpt lat="45.9883" lon="1.30484">
        <ele>497.4</ele>
        <time>2022-06-12T09:55:31Z</time>
      </trkpt>
      <trkpt lat="45.98835" lon="1.30488">
        <ele>496.6</ele>
        <time>2022-06-12T09:55:32Z</time>
      </trkpt>
      <trkpt lat="45.9884" lon="1.30493">
        <ele>495.6</ele>
        <time>2022-06-12T09:55:33Z</time>
      </trkpt>
      <trkpt lat="45.98844" lon="1.305">
        <ele>495.2</ele>
        <time>2022-06-12T09:55:34Z</time>
      </trkpt>
      <trkpt lat="45.98853" lon="1.30521">
        <ele>494</ele>
        <time>2022-06-12T09:55:37Z</time>
      </trkpt>
      <trkpt lat="45.98862" lon="1.30533">
        <ele>493.4</ele>
        <time>2022-06-12T09:55:39Z</time>
      </trkpt>
      <trkpt lat="45.98868" lon="1.30538">
        <ele>493</ele>
        <time>2022-06-12T09:55:40Z</time>
      </trkpt>
      <trkpt lat="45.98879" lon="1.30549">
        <ele>492.2</ele>
        <time>2022-06-12T09:55:42Z</time>
      </trkpt>
      <trkpt lat="45.98885" lon="1.30553">
        <ele>491.8</ele>
        <time>2022-06-12T09:55:43Z</time>
      </trkpt>
      <trkpt lat="45.98901" lon="1.30556">
        <ele>489.8</ele>
        <time>2022-06-12T09:55:45Z</time>
      </trkpt>
      <trkpt lat="45.98919" lon="1.30553">
        <ele>488.2</ele>
        <time>2022-06-12T09:55:47Z</time>
      </trkpt>
      <trkpt lat="45.98937" lon="1.30549">
        <ele>487</ele>
        <time>2022-06-12T09:55:49Z</time>
      </trkpt>
      <trkpt lat="45.98944" lon="1.30546">
        <ele>486.8</ele>
        <time>2022-06-12T09:55:50Z</time>
      </trkpt>
      <trkpt lat="45.9896" lon="1.30535">
        <ele>485.8</ele>
        <time>2022-06-12T09:55:52Z</time>
      </trkpt>
      <trkpt lat="45.98975" lon="1.30521">
        <ele>485.2</ele>
        <time>2022-06-12T09:55:54Z</time>
      </trkpt>
      <trkpt lat="45.98985" lon="1.30506">
        <ele>484.6</ele>
        <time>2022-06-12T09:55:56Z</time>
      </trkpt>
      <trkpt lat="45.98992" lon="1.30491">
        <ele>484</ele>
        <time>2022-06-12T09:55:58Z</time>
      </trkpt>
      <trkpt lat="45.98996" lon="1.30475">
        <ele>483.8</ele>
        <time>2022-06-12T09:56:00Z</time>
      </trkpt>
      <trkpt lat="45.98999" lon="1.30451">
        <ele>483.6</ele>
        <time>2022-06-12T09:56:03Z</time>
      </trkpt>
      <trkpt lat="45.98999" lon="1.30441">
        <ele>483.4</ele>
        <time>2022-06-12T09:56:05Z</time>
      </trkpt>
      <trkpt lat="45.98998" lon="1.30432">
        <ele>482.6</ele>
        <time>2022-06-12T09:56:08Z</time>
      </trkpt>
      <trkpt lat="45.99" lon="1.30429">
        <ele>482.4</ele>
        <time>2022-06-12T09:56:10Z</time>
      </trkpt>
      <trkpt lat="45.99003" lon="1.30426">
        <ele>482.4</ele>
        <time>2022-06-12T09:56:12Z</time>
      </trkpt>
      <trkpt lat="45.99005" lon="1.30422">
        <ele>482.4</ele>
        <time>2022-06-12T09:56:14Z</time>
      </trkpt>
      <trkpt lat="45.99006" lon="1.3042">
        <ele>482.4</ele>
        <time>2022-06-12T09:56:15Z</time>
      </trkpt>
      <trkpt lat="45.99015" lon="1.30415">
        <ele>482</ele>
        <time>2022-06-12T09:56:20Z</time>
      </trkpt>
      <trkpt lat="45.99023" lon="1.30409">
        <ele>481.4</ele>
        <time>2022-06-12T09:56:25Z</time>
      </trkpt>
      <trkpt lat="45.99025" lon="1.30409">
        <ele>481.4</ele>
        <time>2022-06-12T09:56:26Z</time>
      </trkpt>
      <trkpt lat="45.99035" lon="1.30418">
        <ele>480.8</ele>
        <time>2022-06-12T09:56:32Z</time>
      </trkpt>
      <trkpt lat="45.99045" lon="1.30427">
        <ele>481</ele>
        <time>2022-06-12T09:56:38Z</time>
      </trkpt>
      <trkpt lat="45.99048" lon="1.30438">
        <ele>481.6</ele>
        <time>2022-06-12T09:56:43Z</time>
      </trkpt>
      <trkpt lat="45.99046" lon="1.30456">
        <ele>482.4</ele>
        <time>2022-06-12T09:56:49Z</time>
      </trkpt>
      <trkpt lat="45.99046" lon="1.30458">
        <ele>482.4</ele>
        <time>2022-06-12T09:56:50Z</time>
      </trkpt>
      <trkpt lat="45.99052" lon="1.30468">
        <ele>482.2</ele>
        <time>2022-06-12T09:56:55Z</time>
      </trkpt>
      <trkpt lat="45.99063" lon="1.30476">
        <ele>481.4</ele>
        <time>2022-06-12T09:57:01Z</time>
      </trkpt>
      <trkpt lat="45.99065" lon="1.30477">
        <ele>481.2</ele>
        <time>2022-06-12T09:57:02Z</time>
      </trkpt>
      <trkpt lat="45.99068" lon="1.30478">
        <ele>480.8</ele>
        <time>2022-06-12T09:57:04Z</time>
      </trkpt>
      <trkpt lat="45.99072" lon="1.30476">
        <ele>480.6</ele>
        <time>2022-06-12T09:57:06Z</time>
      </trkpt>
      <trkpt lat="45.9909" lon="1.30466">
        <ele>480</ele>
        <time>2022-06-12T09:57:12Z</time>
      </trkpt>
      <trkpt lat="45.99093" lon="1.30464">
        <ele>479.8</ele>
        <time>2022-06-12T09:57:13Z</time>
      </trkpt>
      <trkpt lat="45.9911" lon="1.30451">
        <ele>479</ele>
        <time>2022-06-12T09:57:18Z</time>
      </trkpt>
      <trkpt lat="45.99119" lon="1.30444">
        <ele>478.8</ele>
        <time>2022-06-12T09:57:20Z</time>
      </trkpt>
      <trkpt lat="45.99133" lon="1.3043">
        <ele>478</ele>
        <time>2022-06-12T09:57:23Z</time>
      </trkpt>
      <trkpt lat="45.99142" lon="1.3042">
        <ele>477.4</ele>
        <time>2022-06-12T09:57:25Z</time>
      </trkpt>
      <trkpt lat="45.99154" lon="1.3041">
        <ele>476.8</ele>
        <time>2022-06-12T09:57:27Z</time>
      </trkpt>
      <trkpt lat="45.99172" lon="1.30393">
        <ele>475.8</ele>
        <time>2022-06-12T09:57:30Z</time>
      </trkpt>
      <trkpt lat="45.99178" lon="1.30387">
        <ele>475.2</ele>
        <time>2022-06-12T09:57:31Z</time>
      </trkpt>
      <trkpt lat="45.99189" lon="1.30378">
        <ele>474.2</ele>
        <time>2022-06-12T09:57:33Z</time>
      </trkpt>
      <trkpt lat="45.99193" lon="1.30375">
        <ele>473.8</ele>
        <time>2022-06-12T09:57:34Z</time>
      </trkpt>
      <trkpt lat="45.99199" lon="1.30371">
        <ele>473.4</ele>
        <time>2022-06-12T09:57:35Z</time>
      </trkpt>
      <trkpt lat="45.99204" lon="1.30369">
        <ele>472.8</ele>
        <time>2022-06-12T09:57:36Z</time>
      </trkpt>
      <trkpt lat="45.99221" lon="1.30359">
        <ele>471.6</ele>
        <time>2022-06-12T09:57:39Z</time>
      </trkpt>
      <trkpt lat="45.99234" lon="1.30352">
        <ele>469.8</ele>
        <time>2022-06-12T09:57:41Z</time>
      </trkpt>
      <trkpt lat="45.99245" lon="1.30345">
        <ele>468</ele>
        <time>2022-06-12T09:57:43Z</time>
      </trkpt>
      <trkpt lat="45.9925" lon="1.30341">
        <ele>467.2</ele>
        <time>2022-06-12T09:57:44Z</time>
      </trkpt>
      <trkpt lat="45.99256" lon="1.30334">
        <ele>466.8</ele>
        <time>2022-06-12T09:57:45Z</time>
      </trkpt>
      <trkpt lat="45.99266" lon="1.30321">
        <ele>464.8</ele>
        <time>2022-06-12T09:57:47Z</time>
      </trkpt>
      <trkpt lat="45.99271" lon="1.30314">
        <ele>463.6</ele>
        <time>2022-06-12T09:57:48Z</time>
      </trkpt>
      <trkpt lat="45.99277" lon="1.30308">
        <ele>463.2</ele>
        <time>2022-06-12T09:57:49Z</time>
      </trkpt>
      <trkpt lat="45.99284" lon="1.30302">
        <ele>462.6</ele>
        <time>2022-06-12T09:57:50Z</time>
      </trkpt>
      <trkpt lat="45.99294" lon="1.30295">
        <ele>461.8</ele>
        <time>2022-06-12T09:57:51Z</time>
      </trkpt>
      <trkpt lat="45.99303" lon="1.3029">
        <ele>461.2</ele>
        <time>2022-06-12T09:57:52Z</time>
      </trkpt>
      <trkpt lat="45.99312" lon="1.30286">
        <ele>460.6</ele>
        <time>2022-06-12T09:57:53Z</time>
      </trkpt>
      <trkpt lat="45.99321" lon="1.30282">
        <ele>459.8</ele>
        <time>2022-06-12T09:57:54Z</time>
      </trkpt>
      <trkpt lat="45.99328" lon="1.30279">
        <ele>459</ele>
        <time>2022-06-12T09:57:55Z</time>
      </trkpt>
      <trkpt lat="45.99336" lon="1.30274">
        <ele>458.6</ele>
        <time>2022-06-12T09:57:56Z</time>
      </trkpt>
      <trkpt lat="45.9935" lon="1.30264">
        <ele>456.8</ele>
        <time>2022-06-12T09:57:58Z</time>
      </trkpt>
      <trkpt lat="45.99357" lon="1.30259">
        <ele>456</ele>
        <time>2022-06-12T09:57:59Z</time>
      </trkpt>
      <trkpt lat="45.99364" lon="1.30254">
        <ele>454.4</ele>
        <time>2022-06-12T09:58:00Z</time>
      </trkpt>
      <trkpt lat="45.99369" lon="1.30248">
        <ele>453</ele>
        <time>2022-06-12T09:58:01Z</time>
      </trkpt>
      <trkpt lat="45.99373" lon="1.30242">
        <ele>451.6</ele>
        <time>2022-06-12T09:58:02Z</time>
      </trkpt>
      <trkpt lat="45.99376" lon="1.30234">
        <ele>450.8</ele>
        <time>2022-06-12T09:58:03Z</time>
      </trkpt>
      <trkpt lat="45.99378" lon="1.30227">
        <ele>450.2</ele>
        <time>2022-06-12T09:58:04Z</time>
      </trkpt>
      <trkpt lat="45.99381" lon="1.30213">
        <ele>449.2</ele>
        <time>2022-06-12T09:58:06Z</time>
      </trkpt>
      <trkpt lat="45.99383" lon="1.30204">
        <ele>449</ele>
        <time>2022-06-12T09:58:07Z</time>
      </trkpt>
      <trkpt lat="45.99385" lon="1.30195">
        <ele>448.4</ele>
        <time>2022-06-12T09:58:08Z</time>
      </trkpt>
      <trkpt lat="45.99386" lon="1.30187">
        <ele>448</ele>
        <time>2022-06-12T09:58:09Z</time>
      </trkpt>
      <trkpt lat="45.99385" lon="1.30172">
        <ele>446.8</ele>
        <time>2022-06-12T09:58:11Z</time>
      </trkpt>
      <trkpt lat="45.99383" lon="1.30167">
        <ele>445.6</ele>
        <time>2022-06-12T09:58:12Z</time>
      </trkpt>
      <trkpt lat="45.99381" lon="1.30163">
        <ele>444.6</ele>
        <time>2022-06-12T09:58:13Z</time>
      </trkpt>
      <trkpt lat="45.99379" lon="1.30161">
        <ele>444</ele>
        <time>2022-06-12T09:58:14Z</time>
      </trkpt>
      <trkpt lat="45.99377" lon="1.30159">
        <ele>443.8</ele>
        <time>2022-06-12T09:58:15Z</time>
      </trkpt>
      <trkpt lat="45.99374" lon="1.30159">
        <ele>443.6</ele>
        <time>2022-06-12T09:58:16Z</time>
      </trkpt>
      <trkpt lat="45.99371" lon="1.30158">
        <ele>443.4</ele>
        <time>2022-06-12T09:58:17Z</time>
      </trkpt>
      <trkpt lat="45.99365" lon="1.30162">
        <ele>444</ele>
        <time>2022-06-12T09:58:21Z</time>
      </trkpt>
      <trkpt lat="45.9936" lon="1.30163">
        <ele>444.4</ele>
        <time>2022-06-12T09:58:24Z</time>
      </trkpt>
      <trkpt lat="45.99356" lon="1.30166">
        <ele>445.2</ele>
        <time>2022-06-12T09:58:27Z</time>
      </trkpt>
      <trkpt lat="45.99356" lon="1.30167">
        <ele>445.4</ele>
        <time>2022-06-12T09:58:28Z</time>
      </trkpt>
      <trkpt lat="45.99349" lon="1.30172">
        <ele>446.4</ele>
        <time>2022-06-12T09:58:33Z</time>
      </trkpt>
      <trkpt lat="45.99346" lon="1.30174">
        <ele>447</ele>
        <time>2022-06-12T09:58:35Z</time>
      </trkpt>
      <trkpt lat="45.99341" lon="1.30176">
        <ele>447.4</ele>
        <time>2022-06-12T09:58:38Z</time>
      </trkpt>
      <trkpt lat="45.99336" lon="1.30178">
        <ele>448.2</ele>
        <time>2022-06-12T09:58:41Z</time>
      </trkpt>
      <trkpt lat="45.99333" lon="1.30179">
        <ele>448.6</ele>
        <time>2022-06-12T09:58:43Z</time>
      </trkpt>
      <trkpt lat="45.99323" lon="1.30179">
        <ele>448.8</ele>
        <time>2022-06-12T09:58:47Z</time>
      </trkpt>
      <trkpt lat="45.99312" lon="1.30177">
        <ele>449.6</ele>
        <time>2022-06-12T09:58:53Z</time>
      </trkpt>
      <trkpt lat="45.9931" lon="1.30177">
        <ele>449.6</ele>
        <time>2022-06-12T09:58:54Z</time>
      </trkpt>
      <trkpt lat="45.99298" lon="1.30169">
        <ele>450</ele>
        <time>2022-06-12T09:59:00Z</time>
      </trkpt>
      <trkpt lat="45.99287" lon="1.30167">
        <ele>450.8</ele>
        <time>2022-06-12T09:59:04Z</time>
      </trkpt>
      <trkpt lat="45.99276" lon="1.30163">
        <ele>450.6</ele>
        <time>2022-06-12T09:59:08Z</time>
      </trkpt>
      <trkpt lat="45.99255" lon="1.3016">
        <ele>450.4</ele>
        <time>2022-06-12T09:59:14Z</time>
      </trkpt>
      <trkpt lat="45.9925" lon="1.30156">
        <ele>450.4</ele>
        <time>2022-06-12T09:59:16Z</time>
      </trkpt>
      <trkpt lat="45.99248" lon="1.30148">
        <ele>450.2</ele>
        <time>2022-06-12T09:59:18Z</time>
      </trkpt>
      <trkpt lat="45.99246" lon="1.30133">
        <ele>449.4</ele>
        <time>2022-06-12T09:59:21Z</time>
      </trkpt>
      <trkpt lat="45.99244" lon="1.3012">
        <ele>448.2</ele>
        <time>2022-06-12T09:59:23Z</time>
      </trkpt>
      <trkpt lat="45.99242" lon="1.30114">
        <ele>447.4</ele>
        <time>2022-06-12T09:59:24Z</time>
      </trkpt>
      <trkpt lat="45.9924" lon="1.30108">
        <ele>446.2</ele>
        <time>2022-06-12T09:59:25Z</time>
      </trkpt>
      <trkpt lat="45.99237" lon="1.30101">
        <ele>445.2</ele>
        <time>2022-06-12T09:59:26Z</time>
      </trkpt>
      <trkpt lat="45.99234" lon="1.30096">
        <ele>444.2</ele>
        <time>2022-06-12T09:59:27Z</time>
      </trkpt>
      <trkpt lat="45.99229" lon="1.30092">
        <ele>442.6</ele>
        <time>2022-06-12T09:59:28Z</time>
      </trkpt>
      <trkpt lat="45.99219" lon="1.30085">
        <ele>441.4</ele>
        <time>2022-06-12T09:59:30Z</time>
      </trkpt>
      <trkpt lat="45.99207" lon="1.30081">
        <ele>440</ele>
        <time>2022-06-12T09:59:33Z</time>
      </trkpt>
      <trkpt lat="45.99198" lon="1.30079">
        <ele>438.8</ele>
        <time>2022-06-12T09:59:35Z</time>
      </trkpt>
      <trkpt lat="45.99194" lon="1.30078">
        <ele>437.8</ele>
        <time>2022-06-12T09:59:36Z</time>
      </trkpt>
      <trkpt lat="45.99191" lon="1.30079">
        <ele>437.4</ele>
        <time>2022-06-12T09:59:37Z</time>
      </trkpt>
      <trkpt lat="45.99183" lon="1.30079">
        <ele>436.4</ele>
        <time>2022-06-12T09:59:39Z</time>
      </trkpt>
      <trkpt lat="45.99171" lon="1.30079">
        <ele>435.6</ele>
        <time>2022-06-12T09:59:42Z</time>
      </trkpt>
      <trkpt lat="45.99167" lon="1.30079">
        <ele>435</ele>
        <time>2022-06-12T09:59:43Z</time>
      </trkpt>
      <trkpt lat="45.99162" lon="1.30079">
        <ele>434.8</ele>
        <time>2022-06-12T09:59:44Z</time>
      </trkpt>
      <trkpt lat="45.99151" lon="1.30079">
        <ele>433.4</ele>
        <time>2022-06-12T09:59:46Z</time>
      </trkpt>
      <trkpt lat="45.99124" lon="1.3008">
        <ele>432.2</ele>
        <time>2022-06-12T09:59:50Z</time>
      </trkpt>
      <trkpt lat="45.99114" lon="1.30083">
        <ele>431</ele>
        <time>2022-06-12T09:59:51Z</time>
      </trkpt>
      <trkpt lat="45.99097" lon="1.30088">
        <ele>430</ele>
        <time>2022-06-12T09:59:53Z</time>
      </trkpt>
      <trkpt lat="45.99089" lon="1.30091">
        <ele>429.2</ele>
        <time>2022-06-12T09:59:54Z</time>
      </trkpt>
      <trkpt lat="45.99082" lon="1.30094">
        <ele>428.4</ele>
        <time>2022-06-12T09:59:55Z</time>
      </trkpt>
      <trkpt lat="45.99069" lon="1.30102">
        <ele>427</ele>
        <time>2022-06-12T09:59:57Z</time>
      </trkpt>
      <trkpt lat="45.99055" lon="1.3011">
        <ele>426.4</ele>
        <time>2022-06-12T09:59:59Z</time>
      </trkpt>
      <trkpt lat="45.9904" lon="1.30117">
        <ele>425.8</ele>
        <time>2022-06-12T10:00:01Z</time>
      </trkpt>
      <trkpt lat="45.99024" lon="1.3013">
        <ele>425.6</ele>
        <time>2022-06-12T10:00:04Z</time>
      </trkpt>
      <trkpt lat="45.99019" lon="1.30133">
        <ele>425.4</ele>
        <time>2022-06-12T10:00:05Z</time>
      </trkpt>
      <trkpt lat="45.99006" lon="1.30141">
        <ele>425.4</ele>
        <time>2022-06-12T10:00:07Z</time>
      </trkpt>
      <trkpt lat="45.98996" lon="1.30143">
        <ele>425.2</ele>
        <time>2022-06-12T10:00:09Z</time>
      </trkpt>
      <trkpt lat="45.98984" lon="1.30143">
        <ele>424.6</ele>
        <time>2022-06-12T10:00:11Z</time>
      </trkpt>
      <trkpt lat="45.98978" lon="1.30143">
        <ele>424.4</ele>
        <time>2022-06-12T10:00:12Z</time>
      </trkpt>
      <trkpt lat="45.98967" lon="1.30148">
        <ele>423.8</ele>
        <time>2022-06-12T10:00:14Z</time>
      </trkpt>
      <trkpt lat="45.98963" lon="1.30151">
        <ele>423.6</ele>
        <time>2022-06-12T10:00:15Z</time>
      </trkpt>
      <trkpt lat="45.98959" lon="1.30154">
        <ele>423.6</ele>
        <time>2022-06-12T10:00:16Z</time>
      </trkpt>
      <trkpt lat="45.98953" lon="1.30158">
        <ele>423.4</ele>
        <time>2022-06-12T10:00:17Z</time>
      </trkpt>
      <trkpt lat="45.98943" lon="1.30162">
        <ele>423.4</ele>
        <time>2022-06-12T10:00:19Z</time>
      </trkpt>
      <trkpt lat="45.98937" lon="1.30162">
        <ele>423.4</ele>
        <time>2022-06-12T10:00:20Z</time>
      </trkpt>
      <trkpt lat="45.98924" lon="1.30161">
        <ele>423.4</ele>
        <time>2022-06-12T10:00:23Z</time>
      </trkpt>
      <trkpt lat="45.9892" lon="1.30156">
        <ele>423.6</ele>
        <time>2022-06-12T10:00:25Z</time>
      </trkpt>
      <trkpt lat="45.98918" lon="1.30151">
        <ele>424</ele>
        <time>2022-06-12T10:00:27Z</time>
      </trkpt>
      <trkpt lat="45.98915" lon="1.30143">
        <ele>424.6</ele>
        <time>2022-06-12T10:00:29Z</time>
      </trkpt>
      <trkpt lat="45.98913" lon="1.3014">
        <ele>424.6</ele>
        <time>2022-06-12T10:00:30Z</time>
      </trkpt>
      <trkpt lat="45.98904" lon="1.3011">
        <ele>424</ele>
        <time>2022-06-12T10:00:35Z</time>
      </trkpt>
      <trkpt lat="45.98902" lon="1.30103">
        <ele>423.4</ele>
        <time>2022-06-12T10:00:36Z</time>
      </trkpt>
      <trkpt lat="45.98887" lon="1.3006">
        <ele>422.8</ele>
        <time>2022-06-12T10:00:41Z</time>
      </trkpt>
      <trkpt lat="45.98883" lon="1.30052">
        <ele>422.6</ele>
        <time>2022-06-12T10:00:42Z</time>
      </trkpt>
      <trkpt lat="45.98865" lon="1.30021">
        <ele>423</ele>
        <time>2022-06-12T10:00:47Z</time>
      </trkpt>
      <trkpt lat="45.98853" lon="1.29997">
        <ele>422.8</ele>
        <time>2022-06-12T10:00:51Z</time>
      </trkpt>
      <trkpt lat="45.98849" lon="1.2999">
        <ele>422.6</ele>
        <time>2022-06-12T10:00:52Z</time>
      </trkpt>
      <trkpt lat="45.98846" lon="1.29983">
        <ele>422.4</ele>
        <time>2022-06-12T10:00:53Z</time>
      </trkpt>
      <trkpt lat="45.98839" lon="1.29961">
        <ele>421.2</ele>
        <time>2022-06-12T10:00:56Z</time>
      </trkpt>
      <trkpt lat="45.98836" lon="1.29948">
        <ele>420.8</ele>
        <time>2022-06-12T10:00:58Z</time>
      </trkpt>
      <trkpt lat="45.98836" lon="1.2994">
        <ele>420.6</ele>
        <time>2022-06-12T10:00:59Z</time>
      </trkpt>
      <trkpt lat="45.98836" lon="1.29931">
        <ele>420</ele>
        <time>2022-06-12T10:01:00Z</time>
      </trkpt>
      <trkpt lat="45.98837" lon="1.29923">
        <ele>419.6</ele>
        <time>2022-06-12T10:01:01Z</time>
      </trkpt>
      <trkpt lat="45.98839" lon="1.29913">
        <ele>419</ele>
        <time>2022-06-12T10:01:02Z</time>
      </trkpt>
      <trkpt lat="45.98841" lon="1.29904">
        <ele>418.4</ele>
        <time>2022-06-12T10:01:03Z</time>
      </trkpt>
      <trkpt lat="45.98844" lon="1.29896">
        <ele>418</ele>
        <time>2022-06-12T10:01:04Z</time>
      </trkpt>
      <trkpt lat="45.98848" lon="1.29889">
        <ele>417.6</ele>
        <time>2022-06-12T10:01:05Z</time>
      </trkpt>
      <trkpt lat="45.98854" lon="1.29876">
        <ele>416.8</ele>
        <time>2022-06-12T10:01:07Z</time>
      </trkpt>
      <trkpt lat="45.98861" lon="1.29855">
        <ele>416.2</ele>
        <time>2022-06-12T10:01:10Z</time>
      </trkpt>
      <trkpt lat="45.98871" lon="1.29834">
        <ele>415.6</ele>
        <time>2022-06-12T10:01:13Z</time>
      </trkpt>
      <trkpt lat="45.98876" lon="1.29821">
        <ele>414.2</ele>
        <time>2022-06-12T10:01:15Z</time>
      </trkpt>
      <trkpt lat="45.98878" lon="1.29817">
        <ele>413.8</ele>
        <time>2022-06-12T10:01:16Z</time>
      </trkpt>
      <trkpt lat="45.9888" lon="1.29813">
        <ele>413.4</ele>
        <time>2022-06-12T10:01:17Z</time>
      </trkpt>
      <trkpt lat="45.9888" lon="1.29808">
        <ele>413</ele>
        <time>2022-06-12T10:01:18Z</time>
      </trkpt>
      <trkpt lat="45.98881" lon="1.29801">
        <ele>412</ele>
        <time>2022-06-12T10:01:20Z</time>
      </trkpt>
      <trkpt lat="45.98879" lon="1.29793">
        <ele>411.6</ele>
        <time>2022-06-12T10:01:21Z</time>
      </trkpt>
      <trkpt lat="45.98875" lon="1.29783">
        <ele>411</ele>
        <time>2022-06-12T10:01:23Z</time>
      </trkpt>
      <trkpt lat="45.98871" lon="1.29776">
        <ele>410.8</ele>
        <time>2022-06-12T10:01:25Z</time>
      </trkpt>
      <trkpt lat="45.9887" lon="1.29773">
        <ele>410.8</ele>
        <time>2022-06-12T10:01:26Z</time>
      </trkpt>
      <trkpt lat="45.98868" lon="1.29767">
        <ele>410.6</ele>
        <time>2022-06-12T10:01:29Z</time>
      </trkpt>
      <trkpt lat="45.98864" lon="1.29754">
        <ele>410.2</ele>
        <time>2022-06-12T10:01:34Z</time>
      </trkpt>
      <trkpt lat="45.98866" lon="1.29732">
        <ele>410.2</ele>
        <time>2022-06-12T10:01:47Z</time>
      </trkpt>
      <trkpt lat="45.98869" lon="1.2972">
        <ele>410.4</ele>
        <time>2022-06-12T10:01:54Z</time>
      </trkpt>
      <trkpt lat="45.98875" lon="1.29718">
        <ele>410.6</ele>
        <time>2022-06-12T10:01:57Z</time>
      </trkpt>
      <trkpt lat="45.98897" lon="1.29718">
        <ele>410.6</ele>
        <time>2022-06-12T10:02:04Z</time>
      </trkpt>
      <trkpt lat="45.98907" lon="1.29716">
        <ele>410.8</ele>
        <time>2022-06-12T10:02:08Z</time>
      </trkpt>
      <trkpt lat="45.98909" lon="1.29713">
        <ele>411</ele>
        <time>2022-06-12T10:02:09Z</time>
      </trkpt>
      <trkpt lat="45.98915" lon="1.29704">
        <ele>411.6</ele>
        <time>2022-06-12T10:02:15Z</time>
      </trkpt>
      <trkpt lat="45.98917" lon="1.29702">
        <ele>411.8</ele>
        <time>2022-06-12T10:02:16Z</time>
      </trkpt>
      <trkpt lat="45.9892" lon="1.29695">
        <ele>412.8</ele>
        <time>2022-06-12T10:02:20Z</time>
      </trkpt>
      <trkpt lat="45.98922" lon="1.29694">
        <ele>413</ele>
        <time>2022-06-12T10:02:21Z</time>
      </trkpt>
      <trkpt lat="45.98924" lon="1.29693">
        <ele>413.2</ele>
        <time>2022-06-12T10:02:22Z</time>
      </trkpt>
      <trkpt lat="45.98929" lon="1.29693">
        <ele>414.2</ele>
        <time>2022-06-12T10:02:25Z</time>
      </trkpt>
      <trkpt lat="45.98934" lon="1.29694">
        <ele>415.2</ele>
        <time>2022-06-12T10:02:29Z</time>
      </trkpt>
      <trkpt lat="45.98938" lon="1.29696">
        <ele>416</ele>
        <time>2022-06-12T10:02:32Z</time>
      </trkpt>
      <trkpt lat="45.98939" lon="1.29697">
        <ele>416.4</ele>
        <time>2022-06-12T10:02:33Z</time>
      </trkpt>
      <trkpt lat="45.98943" lon="1.29699">
        <ele>417.2</ele>
        <time>2022-06-12T10:02:36Z</time>
      </trkpt>
      <trkpt lat="45.98947" lon="1.297">
        <ele>417.8</ele>
        <time>2022-06-12T10:02:39Z</time>
      </trkpt>
      <trkpt lat="45.98952" lon="1.29701">
        <ele>418</ele>
        <time>2022-06-12T10:02:43Z</time>
      </trkpt>
      <trkpt lat="45.98964" lon="1.29703">
        <ele>418.8</ele>
        <time>2022-06-12T10:02:50Z</time>
      </trkpt>
      <trkpt lat="45.98967" lon="1.29703">
        <ele>419</ele>
        <time>2022-06-12T10:02:52Z</time>
      </trkpt>
      <trkpt lat="45.98974" lon="1.29703">
        <ele>420</ele>
        <time>2022-06-12T10:02:57Z</time>
      </trkpt>
      <trkpt lat="45.98979" lon="1.29703">
        <ele>420.4</ele>
        <time>2022-06-12T10:03:00Z</time>
      </trkpt>
      <trkpt lat="45.98988" lon="1.29703">
        <ele>421</ele>
        <time>2022-06-12T10:03:07Z</time>
      </trkpt>
      <trkpt lat="45.98992" lon="1.29702">
        <ele>421.4</ele>
        <time>2022-06-12T10:03:09Z</time>
      </trkpt>
      <trkpt lat="45.98997" lon="1.29702">
        <ele>422.2</ele>
        <time>2022-06-12T10:03:12Z</time>
      </trkpt>
      <trkpt lat="45.99005" lon="1.29701">
        <ele>423</ele>
        <time>2022-06-12T10:03:17Z</time>
      </trkpt>
      <trkpt lat="45.99008" lon="1.29699">
        <ele>423.2</ele>
        <time>2022-06-12T10:03:19Z</time>
      </trkpt>
      <trkpt lat="45.99016" lon="1.29695">
        <ele>424.4</ele>
        <time>2022-06-12T10:03:25Z</time>
      </trkpt>
      <trkpt lat="45.99017" lon="1.29694">
        <ele>424.6</ele>
        <time>2022-06-12T10:03:26Z</time>
      </trkpt>
      <trkpt lat="45.99025" lon="1.29687">
        <ele>424.8</ele>
        <time>2022-06-12T10:03:32Z</time>
      </trkpt>
      <trkpt lat="45.99038" lon="1.29671">
        <ele>424.6</ele>
        <time>2022-06-12T10:03:38Z</time>
      </trkpt>
      <trkpt lat="45.99047" lon="1.29657">
        <ele>424.2</ele>
        <time>2022-06-12T10:03:42Z</time>
      </trkpt>
      <trkpt lat="45.99054" lon="1.29645">
        <ele>424</ele>
        <time>2022-06-12T10:03:45Z</time>
      </trkpt>
      <trkpt lat="45.99068" lon="1.29616">
        <ele>424</ele>
        <time>2022-06-12T10:03:50Z</time>
      </trkpt>
      <trkpt lat="45.99074" lon="1.29598">
        <ele>423.2</ele>
        <time>2022-06-12T10:03:53Z</time>
      </trkpt>
      <trkpt lat="45.99081" lon="1.29578">
        <ele>421.8</ele>
        <time>2022-06-12T10:03:56Z</time>
      </trkpt>
      <trkpt lat="45.99093" lon="1.29554">
        <ele>420.6</ele>
        <time>2022-06-12T10:03:59Z</time>
      </trkpt>
      <trkpt lat="45.99099" lon="1.29541">
        <ele>420</ele>
        <time>2022-06-12T10:04:01Z</time>
      </trkpt>
      <trkpt lat="45.99109" lon="1.29528">
        <ele>419.8</ele>
        <time>2022-06-12T10:04:03Z</time>
      </trkpt>
      <trkpt lat="45.99121" lon="1.29519">
        <ele>419.8</ele>
        <time>2022-06-12T10:04:05Z</time>
      </trkpt>
      <trkpt lat="45.99127" lon="1.29515">
        <ele>419.8</ele>
        <time>2022-06-12T10:04:06Z</time>
      </trkpt>
      <trkpt lat="45.99138" lon="1.29508">
        <ele>420</ele>
        <time>2022-06-12T10:04:08Z</time>
      </trkpt>
      <trkpt lat="45.99158" lon="1.29501">
        <ele>421.2</ele>
        <time>2022-06-12T10:04:12Z</time>
      </trkpt>
      <trkpt lat="45.99172" lon="1.29494">
        <ele>421.4</ele>
        <time>2022-06-12T10:04:15Z</time>
      </trkpt>
      <trkpt lat="45.99183" lon="1.29487">
        <ele>421.8</ele>
        <time>2022-06-12T10:04:18Z</time>
      </trkpt>
      <trkpt lat="45.99212" lon="1.29463">
        <ele>422.6</ele>
        <time>2022-06-12T10:04:26Z</time>
      </trkpt>
      <trkpt lat="45.99218" lon="1.29456">
        <ele>422.8</ele>
        <time>2022-06-12T10:04:28Z</time>
      </trkpt>
      <trkpt lat="45.99231" lon="1.29441">
        <ele>422</ele>
        <time>2022-06-12T10:04:31Z</time>
      </trkpt>
      <trkpt lat="45.99238" lon="1.29426">
        <ele>420.6</ele>
        <time>2022-06-12T10:04:33Z</time>
      </trkpt>
      <trkpt lat="45.99246" lon="1.29411">
        <ele>418.6</ele>
        <time>2022-06-12T10:04:35Z</time>
      </trkpt>
      <trkpt lat="45.9925" lon="1.29404">
        <ele>418</ele>
        <time>2022-06-12T10:04:36Z</time>
      </trkpt>
      <trkpt lat="45.99253" lon="1.29398">
        <ele>417.6</ele>
        <time>2022-06-12T10:04:37Z</time>
      </trkpt>
      <trkpt lat="45.99257" lon="1.29388">
        <ele>416</ele>
        <time>2022-06-12T10:04:39Z</time>
      </trkpt>
      <trkpt lat="45.99258" lon="1.29383">
        <ele>415.6</ele>
        <time>2022-06-12T10:04:40Z</time>
      </trkpt>
      <trkpt lat="45.99264" lon="1.29369">
        <ele>414.6</ele>
        <time>2022-06-12T10:04:42Z</time>
      </trkpt>
      <trkpt lat="45.99272" lon="1.29355">
        <ele>413.4</ele>
        <time>2022-06-12T10:04:44Z</time>
      </trkpt>
      <trkpt lat="45.99283" lon="1.29344">
        <ele>412</ele>
        <time>2022-06-12T10:04:46Z</time>
      </trkpt>
      <trkpt lat="45.99297" lon="1.29336">
        <ele>410.8</ele>
        <time>2022-06-12T10:04:48Z</time>
      </trkpt>
      <trkpt lat="45.99317" lon="1.29324">
        <ele>409.2</ele>
        <time>2022-06-12T10:04:51Z</time>
      </trkpt>
      <trkpt lat="45.99329" lon="1.29317">
        <ele>408.6</ele>
        <time>2022-06-12T10:04:53Z</time>
      </trkpt>
      <trkpt lat="45.99339" lon="1.29309">
        <ele>408.6</ele>
        <time>2022-06-12T10:04:56Z</time>
      </trkpt>
      <trkpt lat="45.99346" lon="1.29296">
        <ele>410.4</ele>
        <time>2022-06-12T10:05:00Z</time>
      </trkpt>
      <trkpt lat="45.9935" lon="1.29292">
        <ele>410.8</ele>
        <time>2022-06-12T10:05:02Z</time>
      </trkpt>
      <trkpt lat="45.9936" lon="1.29287">
        <ele>411.6</ele>
        <time>2022-06-12T10:05:07Z</time>
      </trkpt>
      <trkpt lat="45.99363" lon="1.29286">
        <ele>411.8</ele>
        <time>2022-06-12T10:05:08Z</time>
      </trkpt>
      <trkpt lat="45.99379" lon="1.29281">
        <ele>412.6</ele>
        <time>2022-06-12T10:05:13Z</time>
      </trkpt>
      <trkpt lat="45.99386" lon="1.29279">
        <ele>413</ele>
        <time>2022-06-12T10:05:15Z</time>
      </trkpt>
      <trkpt lat="45.99397" lon="1.29277">
        <ele>413.8</ele>
        <time>2022-06-12T10:05:19Z</time>
      </trkpt>
      <trkpt lat="45.99403" lon="1.29274">
        <ele>414</ele>
        <time>2022-06-12T10:05:22Z</time>
      </trkpt>
      <trkpt lat="45.99411" lon="1.29268">
        <ele>415</ele>
        <time>2022-06-12T10:05:26Z</time>
      </trkpt>
      <trkpt lat="45.99413" lon="1.29266">
        <ele>415.4</ele>
        <time>2022-06-12T10:05:27Z</time>
      </trkpt>
      <trkpt lat="45.99424" lon="1.29261">
        <ele>415.6</ele>
        <time>2022-06-12T10:05:32Z</time>
      </trkpt>
      <trkpt lat="45.99441" lon="1.29268">
        <ele>414.6</ele>
        <time>2022-06-12T10:05:37Z</time>
      </trkpt>
      <trkpt lat="45.99442" lon="1.2927">
        <ele>414.4</ele>
        <time>2022-06-12T10:05:38Z</time>
      </trkpt>
      <trkpt lat="45.99443" lon="1.29271">
        <ele>413.8</ele>
        <time>2022-06-12T10:05:39Z</time>
      </trkpt>
      <trkpt lat="45.99445" lon="1.29269">
        <ele>413.4</ele>
        <time>2022-06-12T10:05:40Z</time>
      </trkpt>
      <trkpt lat="45.99452" lon="1.29265">
        <ele>412.8</ele>
        <time>2022-06-12T10:05:42Z</time>
      </trkpt>
      <trkpt lat="45.9946" lon="1.29264">
        <ele>412.2</ele>
        <time>2022-06-12T10:05:44Z</time>
      </trkpt>
      <trkpt lat="45.99467" lon="1.29265">
        <ele>411.8</ele>
        <time>2022-06-12T10:05:46Z</time>
      </trkpt>
      <trkpt lat="45.99472" lon="1.29265">
        <ele>411.6</ele>
        <time>2022-06-12T10:05:47Z</time>
      </trkpt>
      <trkpt lat="45.9948" lon="1.29263">
        <ele>411.4</ele>
        <time>2022-06-12T10:05:49Z</time>
      </trkpt>
      <trkpt lat="45.99483" lon="1.29261">
        <ele>411.4</ele>
        <time>2022-06-12T10:05:50Z</time>
      </trkpt>
      <trkpt lat="45.99486" lon="1.29255">
        <ele>411.2</ele>
        <time>2022-06-12T10:05:52Z</time>
      </trkpt>
      <trkpt lat="45.9949" lon="1.29233">
        <ele>411.6</ele>
        <time>2022-06-12T10:05:58Z</time>
      </trkpt>
      <trkpt lat="45.99493" lon="1.29213">
        <ele>412</ele>
        <time>2022-06-12T10:06:04Z</time>
      </trkpt>
      <trkpt lat="45.99497" lon="1.29201">
        <ele>411.6</ele>
        <time>2022-06-12T10:06:11Z</time>
      </trkpt>
      <trkpt lat="45.99497" lon="1.29199">
        <ele>410.6</ele>
        <time>2022-06-12T10:06:15Z</time>
      </trkpt>
      <trkpt lat="45.99496" lon="1.29196">
        <ele>410.4</ele>
        <time>2022-06-12T10:06:18Z</time>
      </trkpt>
      <trkpt lat="45.99496" lon="1.29195">
        <ele>410.2</ele>
        <time>2022-06-12T10:06:35Z</time>
      </trkpt>
      <trkpt lat="45.99497" lon="1.29195">
        <ele>410.2</ele>
        <time>2022-06-12T10:06:54Z</time>
      </trkpt>
      <trkpt lat="45.99499" lon="1.29194">
        <ele>410.4</ele>
        <time>2022-06-12T10:07:12Z</time>
      </trkpt>
      <trkpt lat="45.995" lon="1.29193">
        <ele>410</ele>
        <time>2022-06-12T10:07:23Z</time>
      </trkpt>
      <trkpt lat="45.99501" lon="1.29192">
        <ele>410</ele>
        <time>2022-06-12T10:07:31Z</time>
      </trkpt>
      <trkpt lat="45.99502" lon="1.29189">
        <ele>410</ele>
        <time>2022-06-12T10:07:48Z</time>
      </trkpt>
      <trkpt lat="45.99502" lon="1.29188">
        <ele>410</ele>
        <time>2022-06-12T10:08:07Z</time>
      </trkpt>
      <trkpt lat="45.99501" lon="1.29187">
        <ele>410</ele>
        <time>2022-06-12T10:08:27Z</time>
      </trkpt>
      <trkpt lat="45.99497" lon="1.29195">
        <ele>410</ele>
        <time>2022-06-12T10:08:43Z</time>
      </trkpt>
      <trkpt lat="45.99494" lon="1.29197">
        <ele>410</ele>
        <time>2022-06-12T10:09:03Z</time>
      </trkpt>
      <trkpt lat="45.99495" lon="1.29197">
        <ele>410</ele>
        <time>2022-06-12T10:09:22Z</time>
      </trkpt>
      <trkpt lat="45.99496" lon="1.29197">
        <ele>410</ele>
        <time>2022-06-12T10:09:39Z</time>
      </trkpt>
      <trkpt lat="45.99498" lon="1.29198">
        <ele>410</ele>
        <time>2022-06-12T10:09:50Z</time>
      </trkpt>
      <trkpt lat="45.99498" lon="1.29203">
        <ele>410</ele>
        <time>2022-06-12T10:10:04Z</time>
      </trkpt>
      <trkpt lat="45.99495" lon="1.29207">
        <ele>410</ele>
        <time>2022-06-12T10:10:08Z</time>
      </trkpt>
      <trkpt lat="45.99491" lon="1.29205">
        <ele>410</ele>
        <time>2022-06-12T10:10:11Z</time>
      </trkpt>
      <trkpt lat="45.99477" lon="1.29202">
        <ele>410.2</ele>
        <time>2022-06-12T10:10:18Z</time>
      </trkpt>
      <trkpt lat="45.99459" lon="1.29203">
        <ele>410.8</ele>
        <time>2022-06-12T10:10:24Z</time>
      </trkpt>
      <trkpt lat="45.99442" lon="1.29213">
        <ele>411.4</ele>
        <time>2022-06-12T10:10:30Z</time>
      </trkpt>
      <trkpt lat="45.99437" lon="1.29218">
        <ele>412</ele>
        <time>2022-06-12T10:10:32Z</time>
      </trkpt>
      <trkpt lat="45.9943" lon="1.29226">
        <ele>413</ele>
        <time>2022-06-12T10:10:35Z</time>
      </trkpt>
      <trkpt lat="45.99421" lon="1.29233">
        <ele>414</ele>
        <time>2022-06-12T10:10:39Z</time>
      </trkpt>
      <trkpt lat="45.99406" lon="1.29231">
        <ele>415</ele>
        <time>2022-06-12T10:10:45Z</time>
      </trkpt>
      <trkpt lat="45.99404" lon="1.29231">
        <ele>415.2</ele>
        <time>2022-06-12T10:10:46Z</time>
      </trkpt>
      <trkpt lat="45.99393" lon="1.2923">
        <ele>416.2</ele>
        <time>2022-06-12T10:10:52Z</time>
      </trkpt>
      <trkpt lat="45.99391" lon="1.29229">
        <ele>416.2</ele>
        <time>2022-06-12T10:10:53Z</time>
      </trkpt>
      <trkpt lat="45.99383" lon="1.29229">
        <ele>417.4</ele>
        <time>2022-06-12T10:10:59Z</time>
      </trkpt>
      <trkpt lat="45.99381" lon="1.29229">
        <ele>417.6</ele>
        <time>2022-06-12T10:11:00Z</time>
      </trkpt>
      <trkpt lat="45.99377" lon="1.29229">
        <ele>418.6</ele>
        <time>2022-06-12T10:11:03Z</time>
      </trkpt>
      <trkpt lat="45.99373" lon="1.29228">
        <ele>419.6</ele>
        <time>2022-06-12T10:11:07Z</time>
      </trkpt>
      <trkpt lat="45.99372" lon="1.29229">
        <ele>419.8</ele>
        <time>2022-06-12T10:11:08Z</time>
      </trkpt>
      <trkpt lat="45.99366" lon="1.29228">
        <ele>420.6</ele>
        <time>2022-06-12T10:11:12Z</time>
      </trkpt>
      <trkpt lat="45.99361" lon="1.29229">
        <ele>421.8</ele>
        <time>2022-06-12T10:11:16Z</time>
      </trkpt>
      <trkpt lat="45.99355" lon="1.29231">
        <ele>422.8</ele>
        <time>2022-06-12T10:11:21Z</time>
      </trkpt>
      <trkpt lat="45.99351" lon="1.29233">
        <ele>423.2</ele>
        <time>2022-06-12T10:11:24Z</time>
      </trkpt>
      <trkpt lat="45.99339" lon="1.29237">
        <ele>423.8</ele>
        <time>2022-06-12T10:11:31Z</time>
      </trkpt>
      <trkpt lat="45.99337" lon="1.29238">
        <ele>424</ele>
        <time>2022-06-12T10:11:32Z</time>
      </trkpt>
      <trkpt lat="45.99323" lon="1.29241">
        <ele>424.6</ele>
        <time>2022-06-12T10:11:39Z</time>
      </trkpt>
      <trkpt lat="45.9931" lon="1.2924">
        <ele>424.8</ele>
        <time>2022-06-12T10:11:43Z</time>
      </trkpt>
      <trkpt lat="45.99302" lon="1.29238">
        <ele>425</ele>
        <time>2022-06-12T10:11:45Z</time>
      </trkpt>
      <trkpt lat="45.99279" lon="1.29235">
        <ele>425.2</ele>
        <time>2022-06-12T10:11:51Z</time>
      </trkpt>
      <trkpt lat="45.99257" lon="1.29233">
        <ele>425.4</ele>
        <time>2022-06-12T10:11:57Z</time>
      </trkpt>
      <trkpt lat="45.99239" lon="1.29231">
        <ele>426</ele>
        <time>2022-06-12T10:12:02Z</time>
      </trkpt>
      <trkpt lat="45.99234" lon="1.29232">
        <ele>426.2</ele>
        <time>2022-06-12T10:12:04Z</time>
      </trkpt>
      <trkpt lat="45.99226" lon="1.29238">
        <ele>427</ele>
        <time>2022-06-12T10:12:08Z</time>
      </trkpt>
      <trkpt lat="45.99224" lon="1.29241">
        <ele>427.6</ele>
        <time>2022-06-12T10:12:10Z</time>
      </trkpt>
      <trkpt lat="45.99221" lon="1.29244">
        <ele>428.4</ele>
        <time>2022-06-12T10:12:12Z</time>
      </trkpt>
      <trkpt lat="45.99212" lon="1.2925">
        <ele>429</ele>
        <time>2022-06-12T10:12:16Z</time>
      </trkpt>
      <trkpt lat="45.99203" lon="1.29252">
        <ele>429.4</ele>
        <time>2022-06-12T10:12:19Z</time>
      </trkpt>
      <trkpt lat="45.99191" lon="1.29253">
        <ele>430.2</ele>
        <time>2022-06-12T10:12:23Z</time>
      </trkpt>
      <trkpt lat="45.99188" lon="1.29252">
        <ele>430.6</ele>
        <time>2022-06-12T10:12:24Z</time>
      </trkpt>
      <trkpt lat="45.99176" lon="1.29251">
        <ele>431.6</ele>
        <time>2022-06-12T10:12:29Z</time>
      </trkpt>
      <trkpt lat="45.99169" lon="1.29248">
        <ele>432.4</ele>
        <time>2022-06-12T10:12:32Z</time>
      </trkpt>
      <trkpt lat="45.99167" lon="1.29247">
        <ele>432.8</ele>
        <time>2022-06-12T10:12:33Z</time>
      </trkpt>
      <trkpt lat="45.99152" lon="1.29244">
        <ele>433.4</ele>
        <time>2022-06-12T10:12:39Z</time>
      </trkpt>
      <trkpt lat="45.9913" lon="1.29241">
        <ele>433.8</ele>
        <time>2022-06-12T10:12:46Z</time>
      </trkpt>
      <trkpt lat="45.99127" lon="1.2924">
        <ele>433.8</ele>
        <time>2022-06-12T10:12:47Z</time>
      </trkpt>
      <trkpt lat="45.99098" lon="1.29234">
        <ele>434.6</ele>
        <time>2022-06-12T10:12:55Z</time>
      </trkpt>
      <trkpt lat="45.99088" lon="1.29233">
        <ele>434.8</ele>
        <time>2022-06-12T10:12:58Z</time>
      </trkpt>
      <trkpt lat="45.99069" lon="1.29232">
        <ele>435.4</ele>
        <time>2022-06-12T10:13:04Z</time>
      </trkpt>
      <trkpt lat="45.99054" lon="1.29229">
        <ele>435.8</ele>
        <time>2022-06-12T10:13:09Z</time>
      </trkpt>
      <trkpt lat="45.99048" lon="1.29228">
        <ele>436</ele>
        <time>2022-06-12T10:13:11Z</time>
      </trkpt>
      <trkpt lat="45.99029" lon="1.29224">
        <ele>436.4</ele>
        <time>2022-06-12T10:13:16Z</time>
      </trkpt>
      <trkpt lat="45.99009" lon="1.29225">
        <ele>437.2</ele>
        <time>2022-06-12T10:13:21Z</time>
      </trkpt>
      <trkpt lat="45.99" lon="1.29225">
        <ele>437.4</ele>
        <time>2022-06-12T10:13:23Z</time>
      </trkpt>
      <trkpt lat="45.98968" lon="1.29222">
        <ele>437</ele>
        <time>2022-06-12T10:13:29Z</time>
      </trkpt>
      <trkpt lat="45.98964" lon="1.29222">
        <ele>437</ele>
        <time>2022-06-12T10:13:30Z</time>
      </trkpt>
      <trkpt lat="45.98942" lon="1.29224">
        <ele>436.8</ele>
        <time>2022-06-12T10:13:34Z</time>
      </trkpt>
      <trkpt lat="45.9891" lon="1.29233">
        <ele>437</ele>
        <time>2022-06-12T10:13:40Z</time>
      </trkpt>
      <trkpt lat="45.98893" lon="1.29236">
        <ele>436.8</ele>
        <time>2022-06-12T10:13:43Z</time>
      </trkpt>
      <trkpt lat="45.98879" lon="1.29236">
        <ele>436.4</ele>
        <time>2022-06-12T10:13:45Z</time>
      </trkpt>
      <trkpt lat="45.98872" lon="1.29237">
        <ele>435.8</ele>
        <time>2022-06-12T10:13:46Z</time>
      </trkpt>
      <trkpt lat="45.9884" lon="1.29243">
        <ele>435.4</ele>
        <time>2022-06-12T10:13:51Z</time>
      </trkpt>
      <trkpt lat="45.98834" lon="1.29246">
        <ele>435.2</ele>
        <time>2022-06-12T10:13:52Z</time>
      </trkpt>
      <trkpt lat="45.98821" lon="1.29258">
        <ele>435.2</ele>
        <time>2022-06-12T10:13:55Z</time>
      </trkpt>
      <trkpt lat="45.98806" lon="1.29279">
        <ele>435.6</ele>
        <time>2022-06-12T10:14:00Z</time>
      </trkpt>
      <trkpt lat="45.988" lon="1.29285">
        <ele>435.4</ele>
        <time>2022-06-12T10:14:02Z</time>
      </trkpt>
      <trkpt lat="45.98791" lon="1.29292">
        <ele>435.6</ele>
        <time>2022-06-12T10:14:05Z</time>
      </trkpt>
      <trkpt lat="45.98778" lon="1.29302">
        <ele>437.2</ele>
        <time>2022-06-12T10:14:09Z</time>
      </trkpt>
      <trkpt lat="45.98769" lon="1.29309">
        <ele>437.6</ele>
        <time>2022-06-12T10:14:12Z</time>
      </trkpt>
      <trkpt lat="45.9876" lon="1.29316">
        <ele>438.2</ele>
        <time>2022-06-12T10:14:16Z</time>
      </trkpt>
      <trkpt lat="45.98753" lon="1.29321">
        <ele>438.8</ele>
        <time>2022-06-12T10:14:19Z</time>
      </trkpt>
      <trkpt lat="45.98749" lon="1.29324">
        <ele>439.2</ele>
        <time>2022-06-12T10:14:21Z</time>
      </trkpt>
      <trkpt lat="45.98739" lon="1.29333">
        <ele>440</ele>
        <time>2022-06-12T10:14:26Z</time>
      </trkpt>
      <trkpt lat="45.98733" lon="1.29337">
        <ele>440.2</ele>
        <time>2022-06-12T10:14:28Z</time>
      </trkpt>
      <trkpt lat="45.9872" lon="1.29345">
        <ele>441.4</ele>
        <time>2022-06-12T10:14:33Z</time>
      </trkpt>
      <trkpt lat="45.98717" lon="1.29346">
        <ele>441.6</ele>
        <time>2022-06-12T10:14:34Z</time>
      </trkpt>
      <trkpt lat="45.98707" lon="1.2935">
        <ele>442.4</ele>
        <time>2022-06-12T10:14:38Z</time>
      </trkpt>
      <trkpt lat="45.987" lon="1.29353">
        <ele>443</ele>
        <time>2022-06-12T10:14:41Z</time>
      </trkpt>
      <trkpt lat="45.98693" lon="1.29355">
        <ele>443.4</ele>
        <time>2022-06-12T10:14:44Z</time>
      </trkpt>
      <trkpt lat="45.98681" lon="1.29359">
        <ele>444.2</ele>
        <time>2022-06-12T10:14:49Z</time>
      </trkpt>
      <trkpt lat="45.98674" lon="1.29362">
        <ele>444.6</ele>
        <time>2022-06-12T10:14:52Z</time>
      </trkpt>
      <trkpt lat="45.98661" lon="1.29366">
        <ele>445.6</ele>
        <time>2022-06-12T10:14:57Z</time>
      </trkpt>
      <trkpt lat="45.98658" lon="1.29366">
        <ele>445.8</ele>
        <time>2022-06-12T10:14:58Z</time>
      </trkpt>
      <trkpt lat="45.9864" lon="1.29369">
        <ele>446.4</ele>
        <time>2022-06-12T10:15:05Z</time>
      </trkpt>
      <trkpt lat="45.9863" lon="1.2937">
        <ele>446.8</ele>
        <time>2022-06-12T10:15:09Z</time>
      </trkpt>
      <trkpt lat="45.98622" lon="1.29373">
        <ele>447</ele>
        <time>2022-06-12T10:15:12Z</time>
      </trkpt>
      <trkpt lat="45.98603" lon="1.29384">
        <ele>446.6</ele>
        <time>2022-06-12T10:15:17Z</time>
      </trkpt>
      <trkpt lat="45.98599" lon="1.29388">
        <ele>445.8</ele>
        <time>2022-06-12T10:15:18Z</time>
      </trkpt>
      <trkpt lat="45.98595" lon="1.29392">
        <ele>445.2</ele>
        <time>2022-06-12T10:15:19Z</time>
      </trkpt>
      <trkpt lat="45.98582" lon="1.2941">
        <ele>444.2</ele>
        <time>2022-06-12T10:15:22Z</time>
      </trkpt>
      <trkpt lat="45.98578" lon="1.29418">
        <ele>443.8</ele>
        <time>2022-06-12T10:15:23Z</time>
      </trkpt>
      <trkpt lat="45.98572" lon="1.29435">
        <ele>443</ele>
        <time>2022-06-12T10:15:25Z</time>
      </trkpt>
      <trkpt lat="45.98569" lon="1.29443">
        <ele>442.6</ele>
        <time>2022-06-12T10:15:26Z</time>
      </trkpt>
      <trkpt lat="45.98566" lon="1.2945">
        <ele>441.8</ele>
        <time>2022-06-12T10:15:27Z</time>
      </trkpt>
      <trkpt lat="45.98562" lon="1.29456">
        <ele>441.4</ele>
        <time>2022-06-12T10:15:28Z</time>
      </trkpt>
      <trkpt lat="45.98552" lon="1.29465">
        <ele>440.8</ele>
        <time>2022-06-12T10:15:30Z</time>
      </trkpt>
      <trkpt lat="45.98541" lon="1.29473">
        <ele>440</ele>
        <time>2022-06-12T10:15:32Z</time>
      </trkpt>
      <trkpt lat="45.98537" lon="1.29479">
        <ele>439.4</ele>
        <time>2022-06-12T10:15:33Z</time>
      </trkpt>
      <trkpt lat="45.98532" lon="1.29485">
        <ele>439</ele>
        <time>2022-06-12T10:15:34Z</time>
      </trkpt>
      <trkpt lat="45.98529" lon="1.29491">
        <ele>438.4</ele>
        <time>2022-06-12T10:15:35Z</time>
      </trkpt>
      <trkpt lat="45.98528" lon="1.29496">
        <ele>437.8</ele>
        <time>2022-06-12T10:15:36Z</time>
      </trkpt>
      <trkpt lat="45.98526" lon="1.295">
        <ele>437.4</ele>
        <time>2022-06-12T10:15:37Z</time>
      </trkpt>
      <trkpt lat="45.98519" lon="1.29509">
        <ele>436.6</ele>
        <time>2022-06-12T10:15:42Z</time>
      </trkpt>
      <trkpt lat="45.98514" lon="1.29509">
        <ele>436.4</ele>
        <time>2022-06-12T10:15:44Z</time>
      </trkpt>
      <trkpt lat="45.98506" lon="1.29506">
        <ele>435.8</ele>
        <time>2022-06-12T10:15:46Z</time>
      </trkpt>
      <trkpt lat="45.98494" lon="1.29499">
        <ele>435.2</ele>
        <time>2022-06-12T10:15:48Z</time>
      </trkpt>
      <trkpt lat="45.98479" lon="1.29492">
        <ele>434.4</ele>
        <time>2022-06-12T10:15:50Z</time>
      </trkpt>
      <trkpt lat="45.98462" lon="1.29483">
        <ele>433.2</ele>
        <time>2022-06-12T10:15:51Z</time>
      </trkpt>
      <trkpt lat="45.98447" lon="1.29472">
        <ele>430.4</ele>
        <time>2022-06-12T10:15:54Z</time>
      </trkpt>
      <trkpt lat="45.98439" lon="1.29465">
        <ele>427.4</ele>
        <time>2022-06-12T10:15:55Z</time>
      </trkpt>
      <trkpt lat="45.98418" lon="1.2945">
        <ele>425.6</ele>
        <time>2022-06-12T10:15:58Z</time>
      </trkpt>
      <trkpt lat="45.98412" lon="1.29447">
        <ele>424.4</ele>
        <time>2022-06-12T10:15:59Z</time>
      </trkpt>
      <trkpt lat="45.98401" lon="1.29444">
        <ele>422.4</ele>
        <time>2022-06-12T10:16:01Z</time>
      </trkpt>
      <trkpt lat="45.98395" lon="1.29443">
        <ele>421.2</ele>
        <time>2022-06-12T10:16:02Z</time>
      </trkpt>
      <trkpt lat="45.98382" lon="1.29439">
        <ele>420</ele>
        <time>2022-06-12T10:16:04Z</time>
      </trkpt>
      <trkpt lat="45.98369" lon="1.29435">
        <ele>418.2</ele>
        <time>2022-06-12T10:16:06Z</time>
      </trkpt>
      <trkpt lat="45.98353" lon="1.29433">
        <ele>416.8</ele>
        <time>2022-06-12T10:16:08Z</time>
      </trkpt>
      <trkpt lat="45.98346" lon="1.29431">
        <ele>416.2</ele>
        <time>2022-06-12T10:16:09Z</time>
      </trkpt>
      <trkpt lat="45.9834" lon="1.29428">
        <ele>415.6</ele>
        <time>2022-06-12T10:16:10Z</time>
      </trkpt>
      <trkpt lat="45.98329" lon="1.29423">
        <ele>413.8</ele>
        <time>2022-06-12T10:16:12Z</time>
      </trkpt>
      <trkpt lat="45.98324" lon="1.2942">
        <ele>413.2</ele>
        <time>2022-06-12T10:16:13Z</time>
      </trkpt>
      <trkpt lat="45.9832" lon="1.29416">
        <ele>412.6</ele>
        <time>2022-06-12T10:16:14Z</time>
      </trkpt>
      <trkpt lat="45.98315" lon="1.29412">
        <ele>410.6</ele>
        <time>2022-06-12T10:16:15Z</time>
      </trkpt>
      <trkpt lat="45.9831" lon="1.29407">
        <ele>409.4</ele>
        <time>2022-06-12T10:16:16Z</time>
      </trkpt>
      <trkpt lat="45.98299" lon="1.29393">
        <ele>408.2</ele>
        <time>2022-06-12T10:16:18Z</time>
      </trkpt>
      <trkpt lat="45.98294" lon="1.29386">
        <ele>407.8</ele>
        <time>2022-06-12T10:16:19Z</time>
      </trkpt>
      <trkpt lat="45.98287" lon="1.29372">
        <ele>406.6</ele>
        <time>2022-06-12T10:16:21Z</time>
      </trkpt>
      <trkpt lat="45.98281" lon="1.2936">
        <ele>405.4</ele>
        <time>2022-06-12T10:16:23Z</time>
      </trkpt>
      <trkpt lat="45.98272" lon="1.29349">
        <ele>403.8</ele>
        <time>2022-06-12T10:16:25Z</time>
      </trkpt>
      <trkpt lat="45.9826" lon="1.29342">
        <ele>402.6</ele>
        <time>2022-06-12T10:16:27Z</time>
      </trkpt>
      <trkpt lat="45.98246" lon="1.29337">
        <ele>401.4</ele>
        <time>2022-06-12T10:16:29Z</time>
      </trkpt>
      <trkpt lat="45.98233" lon="1.29337">
        <ele>400.6</ele>
        <time>2022-06-12T10:16:31Z</time>
      </trkpt>
      <trkpt lat="45.98228" lon="1.29337">
        <ele>400.4</ele>
        <time>2022-06-12T10:16:32Z</time>
      </trkpt>
      <trkpt lat="45.98223" lon="1.29336">
        <ele>400.4</ele>
        <time>2022-06-12T10:16:33Z</time>
      </trkpt>
      <trkpt lat="45.98219" lon="1.29335">
        <ele>400.2</ele>
        <time>2022-06-12T10:16:34Z</time>
      </trkpt>
      <trkpt lat="45.98214" lon="1.29333">
        <ele>400</ele>
        <time>2022-06-12T10:16:35Z</time>
      </trkpt>
      <trkpt lat="45.982" lon="1.29327">
        <ele>400.2</ele>
        <time>2022-06-12T10:16:40Z</time>
      </trkpt>
      <trkpt lat="45.98189" lon="1.29321">
        <ele>401.4</ele>
        <time>2022-06-12T10:16:44Z</time>
      </trkpt>
      <trkpt lat="45.98182" lon="1.29321">
        <ele>402.4</ele>
        <time>2022-06-12T10:16:47Z</time>
      </trkpt>
      <trkpt lat="45.9818" lon="1.29322">
        <ele>402.4</ele>
        <time>2022-06-12T10:16:48Z</time>
      </trkpt>
      <trkpt lat="45.98174" lon="1.29324">
        <ele>403</ele>
        <time>2022-06-12T10:16:51Z</time>
      </trkpt>
      <trkpt lat="45.98171" lon="1.29326">
        <ele>403.6</ele>
        <time>2022-06-12T10:16:53Z</time>
      </trkpt>
      <trkpt lat="45.9817" lon="1.29327">
        <ele>403.8</ele>
        <time>2022-06-12T10:16:54Z</time>
      </trkpt>
      <trkpt lat="45.98169" lon="1.29328">
        <ele>404</ele>
        <time>2022-06-12T10:16:55Z</time>
      </trkpt>
      <trkpt lat="45.98165" lon="1.29329">
        <ele>404.6</ele>
        <time>2022-06-12T10:16:57Z</time>
      </trkpt>
      <trkpt lat="45.9816" lon="1.29331">
        <ele>405.8</ele>
        <time>2022-06-12T10:17:01Z</time>
      </trkpt>
      <trkpt lat="45.98158" lon="1.29331">
        <ele>406</ele>
        <time>2022-06-12T10:17:02Z</time>
      </trkpt>
      <trkpt lat="45.98153" lon="1.29332">
        <ele>406.8</ele>
        <time>2022-06-12T10:17:06Z</time>
      </trkpt>
      <trkpt lat="45.98149" lon="1.29333">
        <ele>407.2</ele>
        <time>2022-06-12T10:17:09Z</time>
      </trkpt>
      <trkpt lat="45.98147" lon="1.29333">
        <ele>407.8</ele>
        <time>2022-06-12T10:17:11Z</time>
      </trkpt>
      <trkpt lat="45.98137" lon="1.29338">
        <ele>408.8</ele>
        <time>2022-06-12T10:17:18Z</time>
      </trkpt>
      <trkpt lat="45.98135" lon="1.29339">
        <ele>409.2</ele>
        <time>2022-06-12T10:17:19Z</time>
      </trkpt>
      <trkpt lat="45.98132" lon="1.29341">
        <ele>409.6</ele>
        <time>2022-06-12T10:17:22Z</time>
      </trkpt>
      <trkpt lat="45.98131" lon="1.29344">
        <ele>409.8</ele>
        <time>2022-06-12T10:17:24Z</time>
      </trkpt>
      <trkpt lat="45.9813" lon="1.29345">
        <ele>409.8</ele>
        <time>2022-06-12T10:17:25Z</time>
      </trkpt>
      <trkpt lat="45.98127" lon="1.29348">
        <ele>410.2</ele>
        <time>2022-06-12T10:17:28Z</time>
      </trkpt>
      <trkpt lat="45.98126" lon="1.29348">
        <ele>410.6</ele>
        <time>2022-06-12T10:17:29Z</time>
      </trkpt>
      <trkpt lat="45.98121" lon="1.2935">
        <ele>411.4</ele>
        <time>2022-06-12T10:17:32Z</time>
      </trkpt>
      <trkpt lat="45.9812" lon="1.2935">
        <ele>411.6</ele>
        <time>2022-06-12T10:17:33Z</time>
      </trkpt>
      <trkpt lat="45.98113" lon="1.2935">
        <ele>412.4</ele>
        <time>2022-06-12T10:17:38Z</time>
      </trkpt>
      <trkpt lat="45.98107" lon="1.29351">
        <ele>413.2</ele>
        <time>2022-06-12T10:17:42Z</time>
      </trkpt>
      <trkpt lat="45.98104" lon="1.29351">
        <ele>413.6</ele>
        <time>2022-06-12T10:17:44Z</time>
      </trkpt>
      <trkpt lat="45.98096" lon="1.29355">
        <ele>414.6</ele>
        <time>2022-06-12T10:17:49Z</time>
      </trkpt>
      <trkpt lat="45.98089" lon="1.29356">
        <ele>415.8</ele>
        <time>2022-06-12T10:17:55Z</time>
      </trkpt>
      <trkpt lat="45.98086" lon="1.29356">
        <ele>416</ele>
        <time>2022-06-12T10:17:57Z</time>
      </trkpt>
      <trkpt lat="45.98078" lon="1.29362">
        <ele>416.8</ele>
        <time>2022-06-12T10:18:04Z</time>
      </trkpt>
      <trkpt lat="45.98077" lon="1.29363">
        <ele>417</ele>
        <time>2022-06-12T10:18:05Z</time>
      </trkpt>
      <trkpt lat="45.9806" lon="1.29366">
        <ele>417.2</ele>
        <time>2022-06-12T10:18:14Z</time>
      </trkpt>
      <trkpt lat="45.98051" lon="1.29374">
        <ele>417.2</ele>
        <time>2022-06-12T10:18:19Z</time>
      </trkpt>
      <trkpt lat="45.9804" lon="1.29391">
        <ele>417.4</ele>
        <time>2022-06-12T10:18:25Z</time>
      </trkpt>
      <trkpt lat="45.98026" lon="1.29395">
        <ele>416.6</ele>
        <time>2022-06-12T10:18:30Z</time>
      </trkpt>
      <trkpt lat="45.9802" lon="1.29391">
        <ele>415.6</ele>
        <time>2022-06-12T10:18:33Z</time>
      </trkpt>
      <trkpt lat="45.98018" lon="1.29387">
        <ele>415</ele>
        <time>2022-06-12T10:18:35Z</time>
      </trkpt>
      <trkpt lat="45.98016" lon="1.2938">
        <ele>414.4</ele>
        <time>2022-06-12T10:18:38Z</time>
      </trkpt>
      <trkpt lat="45.98014" lon="1.29378">
        <ele>413.8</ele>
        <time>2022-06-12T10:18:40Z</time>
      </trkpt>
      <trkpt lat="45.98006" lon="1.29363">
        <ele>413.8</ele>
        <time>2022-06-12T10:18:45Z</time>
      </trkpt>
      <trkpt lat="45.97992" lon="1.29351">
        <ele>414.8</ele>
        <time>2022-06-12T10:18:50Z</time>
      </trkpt>
      <trkpt lat="45.97985" lon="1.29346">
        <ele>414.8</ele>
        <time>2022-06-12T10:18:52Z</time>
      </trkpt>
      <trkpt lat="45.97976" lon="1.29345">
        <ele>415</ele>
        <time>2022-06-12T10:18:55Z</time>
      </trkpt>
      <trkpt lat="45.97961" lon="1.29344">
        <ele>415.8</ele>
        <time>2022-06-12T10:19:00Z</time>
      </trkpt>
      <trkpt lat="45.97954" lon="1.29344">
        <ele>416.2</ele>
        <time>2022-06-12T10:19:03Z</time>
      </trkpt>
      <trkpt lat="45.97949" lon="1.29344">
        <ele>416.8</ele>
        <time>2022-06-12T10:19:05Z</time>
      </trkpt>
      <trkpt lat="45.9794" lon="1.29345">
        <ele>417.8</ele>
        <time>2022-06-12T10:19:10Z</time>
      </trkpt>
      <trkpt lat="45.97938" lon="1.29345">
        <ele>418</ele>
        <time>2022-06-12T10:19:11Z</time>
      </trkpt>
      <trkpt lat="45.9793" lon="1.29348">
        <ele>419</ele>
        <time>2022-06-12T10:19:17Z</time>
      </trkpt>
      <trkpt lat="45.97929" lon="1.29348">
        <ele>419.4</ele>
        <time>2022-06-12T10:19:18Z</time>
      </trkpt>
      <trkpt lat="45.97923" lon="1.2935">
        <ele>420.2</ele>
        <time>2022-06-12T10:19:22Z</time>
      </trkpt>
      <trkpt lat="45.97918" lon="1.29351">
        <ele>420.8</ele>
        <time>2022-06-12T10:19:25Z</time>
      </trkpt>
      <trkpt lat="45.97913" lon="1.29353">
        <ele>421.2</ele>
        <time>2022-06-12T10:19:28Z</time>
      </trkpt>
      <trkpt lat="45.97907" lon="1.29355">
        <ele>422</ele>
        <time>2022-06-12T10:19:32Z</time>
      </trkpt>
      <trkpt lat="45.97906" lon="1.29355">
        <ele>422.4</ele>
        <time>2022-06-12T10:19:33Z</time>
      </trkpt>
      <trkpt lat="45.97896" lon="1.29356">
        <ele>423.2</ele>
        <time>2022-06-12T10:19:39Z</time>
      </trkpt>
      <trkpt lat="45.97891" lon="1.29356">
        <ele>423.4</ele>
        <time>2022-06-12T10:19:42Z</time>
      </trkpt>
      <trkpt lat="45.97883" lon="1.29357">
        <ele>423.8</ele>
        <time>2022-06-12T10:19:46Z</time>
      </trkpt>
      <trkpt lat="45.97877" lon="1.29357">
        <ele>424.4</ele>
        <time>2022-06-12T10:19:51Z</time>
      </trkpt>
      <trkpt lat="45.97874" lon="1.29358">
        <ele>425</ele>
        <time>2022-06-12T10:19:54Z</time>
      </trkpt>
      <trkpt lat="45.97871" lon="1.29359">
        <ele>425.4</ele>
        <time>2022-06-12T10:19:56Z</time>
      </trkpt>
      <trkpt lat="45.97863" lon="1.29365">
        <ele>426.4</ele>
        <time>2022-06-12T10:20:02Z</time>
      </trkpt>
      <trkpt lat="45.97855" lon="1.29369">
        <ele>427.6</ele>
        <time>2022-06-12T10:20:07Z</time>
      </trkpt>
      <trkpt lat="45.97852" lon="1.2937">
        <ele>427.8</ele>
        <time>2022-06-12T10:20:10Z</time>
      </trkpt>
      <trkpt lat="45.97847" lon="1.29373">
        <ele>428.6</ele>
        <time>2022-06-12T10:20:15Z</time>
      </trkpt>
      <trkpt lat="45.97842" lon="1.29375">
        <ele>428.8</ele>
        <time>2022-06-12T10:20:18Z</time>
      </trkpt>
      <trkpt lat="45.97829" lon="1.2938">
        <ele>429.6</ele>
        <time>2022-06-12T10:20:25Z</time>
      </trkpt>
      <trkpt lat="45.97826" lon="1.2938">
        <ele>429.8</ele>
        <time>2022-06-12T10:20:26Z</time>
      </trkpt>
      <trkpt lat="45.97814" lon="1.29385">
        <ele>430.6</ele>
        <time>2022-06-12T10:20:33Z</time>
      </trkpt>
      <trkpt lat="45.97812" lon="1.29385">
        <ele>430.8</ele>
        <time>2022-06-12T10:20:34Z</time>
      </trkpt>
      <trkpt lat="45.978" lon="1.29386">
        <ele>431.2</ele>
        <time>2022-06-12T10:20:40Z</time>
      </trkpt>
      <trkpt lat="45.97795" lon="1.29387">
        <ele>431.8</ele>
        <time>2022-06-12T10:20:43Z</time>
      </trkpt>
      <trkpt lat="45.97787" lon="1.29388">
        <ele>432</ele>
        <time>2022-06-12T10:20:47Z</time>
      </trkpt>
      <trkpt lat="45.97779" lon="1.2939">
        <ele>432.8</ele>
        <time>2022-06-12T10:20:52Z</time>
      </trkpt>
      <trkpt lat="45.97773" lon="1.29392">
        <ele>433.6</ele>
        <time>2022-06-12T10:20:55Z</time>
      </trkpt>
      <trkpt lat="45.97771" lon="1.29392">
        <ele>433.8</ele>
        <time>2022-06-12T10:20:56Z</time>
      </trkpt>
      <trkpt lat="45.9776" lon="1.29394">
        <ele>435</ele>
        <time>2022-06-12T10:21:03Z</time>
      </trkpt>
      <trkpt lat="45.97756" lon="1.29393">
        <ele>436</ele>
        <time>2022-06-12T10:21:07Z</time>
      </trkpt>
      <trkpt lat="45.97755" lon="1.29393">
        <ele>436.2</ele>
        <time>2022-06-12T10:21:08Z</time>
      </trkpt>
      <trkpt lat="45.97752" lon="1.29393">
        <ele>436.4</ele>
        <time>2022-06-12T10:21:10Z</time>
      </trkpt>
      <trkpt lat="45.97748" lon="1.29392">
        <ele>437.2</ele>
        <time>2022-06-12T10:21:13Z</time>
      </trkpt>
      <trkpt lat="45.97743" lon="1.2939">
        <ele>438.2</ele>
        <time>2022-06-12T10:21:17Z</time>
      </trkpt>
      <trkpt lat="45.97742" lon="1.2939">
        <ele>438.4</ele>
        <time>2022-06-12T10:21:18Z</time>
      </trkpt>
      <trkpt lat="45.97737" lon="1.29387">
        <ele>439.4</ele>
        <time>2022-06-12T10:21:23Z</time>
      </trkpt>
      <trkpt lat="45.97736" lon="1.29387">
        <ele>439.6</ele>
        <time>2022-06-12T10:21:24Z</time>
      </trkpt>
      <trkpt lat="45.97735" lon="1.29384">
        <ele>440.4</ele>
        <time>2022-06-12T10:21:27Z</time>
      </trkpt>
      <trkpt lat="45.97732" lon="1.29382">
        <ele>441.6</ele>
        <time>2022-06-12T10:21:30Z</time>
      </trkpt>
      <trkpt lat="45.97732" lon="1.29381">
        <ele>441.8</ele>
        <time>2022-06-12T10:21:31Z</time>
      </trkpt>
      <trkpt lat="45.97726" lon="1.29378">
        <ele>442.6</ele>
        <time>2022-06-12T10:21:36Z</time>
      </trkpt>
      <trkpt lat="45.97722" lon="1.29375">
        <ele>443</ele>
        <time>2022-06-12T10:21:39Z</time>
      </trkpt>
      <trkpt lat="45.97718" lon="1.29372">
        <ele>443.8</ele>
        <time>2022-06-12T10:21:42Z</time>
      </trkpt>
      <trkpt lat="45.97713" lon="1.29372">
        <ele>444.4</ele>
        <time>2022-06-12T10:21:46Z</time>
      </trkpt>
      <trkpt lat="45.97707" lon="1.2937">
        <ele>444.8</ele>
        <time>2022-06-12T10:21:50Z</time>
      </trkpt>
      <trkpt lat="45.97704" lon="1.29368">
        <ele>445</ele>
        <time>2022-06-12T10:21:53Z</time>
      </trkpt>
      <trkpt lat="45.97692" lon="1.29363">
        <ele>445.4</ele>
        <time>2022-06-12T10:22:01Z</time>
      </trkpt>
      <trkpt lat="45.97686" lon="1.29358">
        <ele>445.8</ele>
        <time>2022-06-12T10:22:06Z</time>
      </trkpt>
      <trkpt lat="45.97683" lon="1.29356">
        <ele>446.2</ele>
        <time>2022-06-12T10:22:08Z</time>
      </trkpt>
      <trkpt lat="45.97673" lon="1.29342">
        <ele>446.8</ele>
        <time>2022-06-12T10:22:14Z</time>
      </trkpt>
      <trkpt lat="45.97672" lon="1.29341">
        <ele>447</ele>
        <time>2022-06-12T10:22:15Z</time>
      </trkpt>
      <trkpt lat="45.97666" lon="1.29333">
        <ele>447.8</ele>
        <time>2022-06-12T10:22:21Z</time>
      </trkpt>
      <trkpt lat="45.97665" lon="1.29332">
        <ele>448</ele>
        <time>2022-06-12T10:22:22Z</time>
      </trkpt>
      <trkpt lat="45.97665" lon="1.29331">
        <ele>448</ele>
        <time>2022-06-12T10:22:23Z</time>
      </trkpt>
      <trkpt lat="45.97659" lon="1.29324">
        <ele>449</ele>
        <time>2022-06-12T10:22:27Z</time>
      </trkpt>
      <trkpt lat="45.97655" lon="1.2932">
        <ele>449.2</ele>
        <time>2022-06-12T10:22:29Z</time>
      </trkpt>
      <trkpt lat="45.97645" lon="1.29309">
        <ele>449.8</ele>
        <time>2022-06-12T10:22:36Z</time>
      </trkpt>
      <trkpt lat="45.97643" lon="1.29307">
        <ele>450.2</ele>
        <time>2022-06-12T10:22:37Z</time>
      </trkpt>
      <trkpt lat="45.97635" lon="1.29299">
        <ele>450.4</ele>
        <time>2022-06-12T10:22:43Z</time>
      </trkpt>
      <trkpt lat="45.97626" lon="1.29292">
        <ele>451.2</ele>
        <time>2022-06-12T10:22:46Z</time>
      </trkpt>
      <trkpt lat="45.97623" lon="1.29288">
        <ele>451.8</ele>
        <time>2022-06-12T10:22:50Z</time>
      </trkpt>
      <trkpt lat="45.97618" lon="1.29283">
        <ele>452.2</ele>
        <time>2022-06-12T10:22:53Z</time>
      </trkpt>
      <trkpt lat="45.97615" lon="1.29278">
        <ele>453</ele>
        <time>2022-06-12T10:22:57Z</time>
      </trkpt>
      <trkpt lat="45.97607" lon="1.29267">
        <ele>453.4</ele>
        <time>2022-06-12T10:23:00Z</time>
      </trkpt>
      <trkpt lat="45.97602" lon="1.29259">
        <ele>454</ele>
        <time>2022-06-12T10:23:03Z</time>
      </trkpt>
      <trkpt lat="45.976" lon="1.29252">
        <ele>454.4</ele>
        <time>2022-06-12T10:23:07Z</time>
      </trkpt>
      <trkpt lat="45.97598" lon="1.29245">
        <ele>455.2</ele>
        <time>2022-06-12T10:23:10Z</time>
      </trkpt>
      <trkpt lat="45.97599" lon="1.29241">
        <ele>455.6</ele>
        <time>2022-06-12T10:23:12Z</time>
      </trkpt>
      <trkpt lat="45.976" lon="1.29238">
        <ele>456</ele>
        <time>2022-06-12T10:23:14Z</time>
      </trkpt>
      <trkpt lat="45.976" lon="1.29232">
        <ele>456.4</ele>
        <time>2022-06-12T10:23:17Z</time>
      </trkpt>
      <trkpt lat="45.97601" lon="1.2923">
        <ele>456.6</ele>
        <time>2022-06-12T10:23:18Z</time>
      </trkpt>
      <trkpt lat="45.97598" lon="1.29219">
        <ele>457.4</ele>
        <time>2022-06-12T10:23:23Z</time>
      </trkpt>
      <trkpt lat="45.97597" lon="1.29217">
        <ele>457.6</ele>
        <time>2022-06-12T10:23:24Z</time>
      </trkpt>
      <trkpt lat="45.97597" lon="1.29215">
        <ele>457.6</ele>
        <time>2022-06-12T10:23:25Z</time>
      </trkpt>
      <trkpt lat="45.97597" lon="1.292">
        <ele>458.6</ele>
        <time>2022-06-12T10:23:31Z</time>
      </trkpt>
      <trkpt lat="45.97596" lon="1.29196">
        <ele>458.8</ele>
        <time>2022-06-12T10:23:32Z</time>
      </trkpt>
      <trkpt lat="45.97593" lon="1.29182">
        <ele>459</ele>
        <time>2022-06-12T10:23:37Z</time>
      </trkpt>
      <trkpt lat="45.97594" lon="1.29175">
        <ele>459.6</ele>
        <time>2022-06-12T10:23:41Z</time>
      </trkpt>
      <trkpt lat="45.97592" lon="1.2917">
        <ele>459.8</ele>
        <time>2022-06-12T10:23:43Z</time>
      </trkpt>
      <trkpt lat="45.97592" lon="1.29168">
        <ele>459.8</ele>
        <time>2022-06-12T10:23:44Z</time>
      </trkpt>
      <trkpt lat="45.97591" lon="1.29153">
        <ele>460.2</ele>
        <time>2022-06-12T10:23:50Z</time>
      </trkpt>
      <trkpt lat="45.97583" lon="1.29132">
        <ele>460.6</ele>
        <time>2022-06-12T10:23:58Z</time>
      </trkpt>
      <trkpt lat="45.97583" lon="1.29121">
        <ele>461</ele>
        <time>2022-06-12T10:24:02Z</time>
      </trkpt>
      <trkpt lat="45.97583" lon="1.29118">
        <ele>461.4</ele>
        <time>2022-06-12T10:24:04Z</time>
      </trkpt>
      <trkpt lat="45.97572" lon="1.291">
        <ele>462</ele>
        <time>2022-06-12T10:24:09Z</time>
      </trkpt>
      <trkpt lat="45.97571" lon="1.29097">
        <ele>462.2</ele>
        <time>2022-06-12T10:24:10Z</time>
      </trkpt>
      <trkpt lat="45.97559" lon="1.29084">
        <ele>463</ele>
        <time>2022-06-12T10:24:16Z</time>
      </trkpt>
      <trkpt lat="45.97547" lon="1.29077">
        <ele>464.2</ele>
        <time>2022-06-12T10:24:21Z</time>
      </trkpt>
      <trkpt lat="45.97543" lon="1.29074">
        <ele>464.4</ele>
        <time>2022-06-12T10:24:23Z</time>
      </trkpt>
      <trkpt lat="45.97532" lon="1.29065">
        <ele>465.2</ele>
        <time>2022-06-12T10:24:29Z</time>
      </trkpt>
      <trkpt lat="45.97528" lon="1.29061">
        <ele>465.2</ele>
        <time>2022-06-12T10:24:31Z</time>
      </trkpt>
      <trkpt lat="45.97516" lon="1.29044">
        <ele>466</ele>
        <time>2022-06-12T10:24:39Z</time>
      </trkpt>
      <trkpt lat="45.97511" lon="1.29035">
        <ele>466.2</ele>
        <time>2022-06-12T10:24:42Z</time>
      </trkpt>
      <trkpt lat="45.97509" lon="1.29024">
        <ele>466.6</ele>
        <time>2022-06-12T10:24:45Z</time>
      </trkpt>
      <trkpt lat="45.9751" lon="1.2902">
        <ele>466.6</ele>
        <time>2022-06-12T10:24:46Z</time>
      </trkpt>
      <trkpt lat="45.97517" lon="1.29003">
        <ele>466.6</ele>
        <time>2022-06-12T10:24:50Z</time>
      </trkpt>
      <trkpt lat="45.9752" lon="1.28998">
        <ele>466.6</ele>
        <time>2022-06-12T10:24:51Z</time>
      </trkpt>
      <trkpt lat="45.97525" lon="1.28986">
        <ele>466.2</ele>
        <time>2022-06-12T10:24:54Z</time>
      </trkpt>
      <trkpt lat="45.97526" lon="1.28983">
        <ele>465.6</ele>
        <time>2022-06-12T10:24:55Z</time>
      </trkpt>
      <trkpt lat="45.97526" lon="1.28979">
        <ele>465</ele>
        <time>2022-06-12T10:24:56Z</time>
      </trkpt>
      <trkpt lat="45.97525" lon="1.28975">
        <ele>464.6</ele>
        <time>2022-06-12T10:24:57Z</time>
      </trkpt>
      <trkpt lat="45.97524" lon="1.28972">
        <ele>464.2</ele>
        <time>2022-06-12T10:24:58Z</time>
      </trkpt>
      <trkpt lat="45.97524" lon="1.28969">
        <ele>463.8</ele>
        <time>2022-06-12T10:24:59Z</time>
      </trkpt>
      <trkpt lat="45.97519" lon="1.2896">
        <ele>463</ele>
        <time>2022-06-12T10:25:03Z</time>
      </trkpt>
      <trkpt lat="45.97517" lon="1.28957">
        <ele>462.8</ele>
        <time>2022-06-12T10:25:04Z</time>
      </trkpt>
      <trkpt lat="45.9751" lon="1.28951">
        <ele>462</ele>
        <time>2022-06-12T10:25:06Z</time>
      </trkpt>
      <trkpt lat="45.97506" lon="1.28949">
        <ele>461.6</ele>
        <time>2022-06-12T10:25:07Z</time>
      </trkpt>
      <trkpt lat="45.97501" lon="1.28946">
        <ele>461.2</ele>
        <time>2022-06-12T10:25:08Z</time>
      </trkpt>
      <trkpt lat="45.97496" lon="1.28944">
        <ele>460.6</ele>
        <time>2022-06-12T10:25:09Z</time>
      </trkpt>
      <trkpt lat="45.9749" lon="1.28942">
        <ele>460.2</ele>
        <time>2022-06-12T10:25:10Z</time>
      </trkpt>
      <trkpt lat="45.97479" lon="1.28942">
        <ele>459.4</ele>
        <time>2022-06-12T10:25:12Z</time>
      </trkpt>
      <trkpt lat="45.97469" lon="1.28944">
        <ele>458.2</ele>
        <time>2022-06-12T10:25:15Z</time>
      </trkpt>
      <trkpt lat="45.97466" lon="1.28944">
        <ele>457.6</ele>
        <time>2022-06-12T10:25:16Z</time>
      </trkpt>
      <trkpt lat="45.97461" lon="1.28945">
        <ele>456.8</ele>
        <time>2022-06-12T10:25:18Z</time>
      </trkpt>
      <trkpt lat="45.97454" lon="1.28947">
        <ele>455.4</ele>
        <time>2022-06-12T10:25:21Z</time>
      </trkpt>
      <trkpt lat="45.97452" lon="1.28949">
        <ele>454.8</ele>
        <time>2022-06-12T10:25:22Z</time>
      </trkpt>
      <trkpt lat="45.97448" lon="1.28953">
        <ele>453.6</ele>
        <time>2022-06-12T10:25:24Z</time>
      </trkpt>
      <trkpt lat="45.97445" lon="1.28955">
        <ele>453.2</ele>
        <time>2022-06-12T10:25:25Z</time>
      </trkpt>
      <trkpt lat="45.97441" lon="1.28955">
        <ele>452.8</ele>
        <time>2022-06-12T10:25:26Z</time>
      </trkpt>
      <trkpt lat="45.97438" lon="1.28953">
        <ele>452.6</ele>
        <time>2022-06-12T10:25:27Z</time>
      </trkpt>
      <trkpt lat="45.97434" lon="1.2895">
        <ele>452.2</ele>
        <time>2022-06-12T10:25:29Z</time>
      </trkpt>
      <trkpt lat="45.97431" lon="1.28946">
        <ele>451.8</ele>
        <time>2022-06-12T10:25:30Z</time>
      </trkpt>
      <trkpt lat="45.97426" lon="1.28943">
        <ele>451.6</ele>
        <time>2022-06-12T10:25:33Z</time>
      </trkpt>
      <trkpt lat="45.97426" lon="1.28943">
        <ele>451.6</ele>
        <time>2022-06-12T10:25:34Z</time>
      </trkpt>
      <trkpt lat="45.97419" lon="1.28936">
        <ele>451.6</ele>
        <time>2022-06-12T10:25:41Z</time>
      </trkpt>
      <trkpt lat="45.97415" lon="1.28931">
        <ele>452.2</ele>
        <time>2022-06-12T10:25:46Z</time>
      </trkpt>
      <trkpt lat="45.97414" lon="1.28929">
        <ele>452.2</ele>
        <time>2022-06-12T10:25:47Z</time>
      </trkpt>
      <trkpt lat="45.97412" lon="1.28928">
        <ele>452.6</ele>
        <time>2022-06-12T10:25:49Z</time>
      </trkpt>
      <trkpt lat="45.97409" lon="1.28921">
        <ele>453.2</ele>
        <time>2022-06-12T10:25:54Z</time>
      </trkpt>
      <trkpt lat="45.97407" lon="1.28917">
        <ele>453.8</ele>
        <time>2022-06-12T10:25:56Z</time>
      </trkpt>
      <trkpt lat="45.97406" lon="1.28912">
        <ele>454</ele>
        <time>2022-06-12T10:25:59Z</time>
      </trkpt>
      <trkpt lat="45.97405" lon="1.28907">
        <ele>454.4</ele>
        <time>2022-06-12T10:26:02Z</time>
      </trkpt>
      <trkpt lat="45.97405" lon="1.28899">
        <ele>454.8</ele>
        <time>2022-06-12T10:26:06Z</time>
      </trkpt>
      <trkpt lat="45.97403" lon="1.28879">
        <ele>454.4</ele>
        <time>2022-06-12T10:26:12Z</time>
      </trkpt>
      <trkpt lat="45.97397" lon="1.28869">
        <ele>454.2</ele>
        <time>2022-06-12T10:26:15Z</time>
      </trkpt>
      <trkpt lat="45.97391" lon="1.28863">
        <ele>453.8</ele>
        <time>2022-06-12T10:26:17Z</time>
      </trkpt>
      <trkpt lat="45.9738" lon="1.28853">
        <ele>453.8</ele>
        <time>2022-06-12T10:26:20Z</time>
      </trkpt>
      <trkpt lat="45.97363" lon="1.28839">
        <ele>453</ele>
        <time>2022-06-12T10:26:24Z</time>
      </trkpt>
      <trkpt lat="45.97345" lon="1.28824">
        <ele>452.8</ele>
        <time>2022-06-12T10:26:30Z</time>
      </trkpt>
      <trkpt lat="45.97332" lon="1.28811">
        <ele>453.2</ele>
        <time>2022-06-12T10:26:36Z</time>
      </trkpt>
      <trkpt lat="45.97323" lon="1.28803">
        <ele>453.2</ele>
        <time>2022-06-12T10:26:40Z</time>
      </trkpt>
      <trkpt lat="45.97316" lon="1.28799">
        <ele>453.2</ele>
        <time>2022-06-12T10:26:42Z</time>
      </trkpt>
      <trkpt lat="45.97304" lon="1.28791">
        <ele>453</ele>
        <time>2022-06-12T10:26:45Z</time>
      </trkpt>
      <trkpt lat="45.97293" lon="1.28785">
        <ele>452.6</ele>
        <time>2022-06-12T10:26:47Z</time>
      </trkpt>
      <trkpt lat="45.97289" lon="1.28782">
        <ele>452.4</ele>
        <time>2022-06-12T10:26:48Z</time>
      </trkpt>
      <trkpt lat="45.97281" lon="1.28776">
        <ele>452.2</ele>
        <time>2022-06-12T10:26:50Z</time>
      </trkpt>
      <trkpt lat="45.97274" lon="1.28773">
        <ele>452</ele>
        <time>2022-06-12T10:26:52Z</time>
      </trkpt>
      <trkpt lat="45.97268" lon="1.28771">
        <ele>451.4</ele>
        <time>2022-06-12T10:26:54Z</time>
      </trkpt>
      <trkpt lat="45.97259" lon="1.28766">
        <ele>451</ele>
        <time>2022-06-12T10:26:56Z</time>
      </trkpt>
      <trkpt lat="45.97252" lon="1.28762">
        <ele>450.8</ele>
        <time>2022-06-12T10:26:58Z</time>
      </trkpt>
      <trkpt lat="45.97252" lon="1.28762">
        <ele>450.2</ele>
        <time>2022-06-12T10:26:59Z</time>
      </trkpt>
      <trkpt lat="45.97239" lon="1.2875">
        <ele>448.6</ele>
        <time>2022-06-12T10:27:03Z</time>
      </trkpt>
      <trkpt lat="45.97238" lon="1.28746">
        <ele>447</ele>
        <time>2022-06-12T10:27:05Z</time>
      </trkpt>
      <trkpt lat="45.97236" lon="1.2874">
        <ele>445.4</ele>
        <time>2022-06-12T10:27:08Z</time>
      </trkpt>
      <trkpt lat="45.97235" lon="1.28738">
        <ele>445</ele>
        <time>2022-06-12T10:27:09Z</time>
      </trkpt>
      <trkpt lat="45.97227" lon="1.28719">
        <ele>444.2</ele>
        <time>2022-06-12T10:27:13Z</time>
      </trkpt>
      <trkpt lat="45.97225" lon="1.28714">
        <ele>444</ele>
        <time>2022-06-12T10:27:14Z</time>
      </trkpt>
      <trkpt lat="45.9722" lon="1.28695">
        <ele>444</ele>
        <time>2022-06-12T10:27:20Z</time>
      </trkpt>
      <trkpt lat="45.97221" lon="1.28688">
        <ele>445.2</ele>
        <time>2022-06-12T10:27:23Z</time>
      </trkpt>
      <trkpt lat="45.97222" lon="1.2868">
        <ele>446.4</ele>
        <time>2022-06-12T10:27:26Z</time>
      </trkpt>
      <trkpt lat="45.97223" lon="1.28678">
        <ele>446.8</ele>
        <time>2022-06-12T10:27:27Z</time>
      </trkpt>
      <trkpt lat="45.97223" lon="1.28676">
        <ele>447.4</ele>
        <time>2022-06-12T10:27:29Z</time>
      </trkpt>
      <trkpt lat="45.97217" lon="1.28672">
        <ele>448</ele>
        <time>2022-06-12T10:27:32Z</time>
      </trkpt>
      <trkpt lat="45.97212" lon="1.28669">
        <ele>448.6</ele>
        <time>2022-06-12T10:27:36Z</time>
      </trkpt>
      <trkpt lat="45.97206" lon="1.28665">
        <ele>450</ele>
        <time>2022-06-12T10:27:41Z</time>
      </trkpt>
      <trkpt lat="45.97203" lon="1.28664">
        <ele>450.4</ele>
        <time>2022-06-12T10:27:43Z</time>
      </trkpt>
      <trkpt lat="45.97198" lon="1.28662">
        <ele>451</ele>
        <time>2022-06-12T10:27:47Z</time>
      </trkpt>
      <trkpt lat="45.97189" lon="1.28662">
        <ele>452</ele>
        <time>2022-06-12T10:27:54Z</time>
      </trkpt>
      <trkpt lat="45.97186" lon="1.28663">
        <ele>452.2</ele>
        <time>2022-06-12T10:27:56Z</time>
      </trkpt>
      <trkpt lat="45.9718" lon="1.28668">
        <ele>453.4</ele>
        <time>2022-06-12T10:28:02Z</time>
      </trkpt>
      <trkpt lat="45.97175" lon="1.28672">
        <ele>454.4</ele>
        <time>2022-06-12T10:28:07Z</time>
      </trkpt>
      <trkpt lat="45.97173" lon="1.28675">
        <ele>455</ele>
        <time>2022-06-12T10:28:10Z</time>
      </trkpt>
      <trkpt lat="45.9717" lon="1.28677">
        <ele>455.4</ele>
        <time>2022-06-12T10:28:13Z</time>
      </trkpt>
      <trkpt lat="45.97168" lon="1.28677">
        <ele>455.6</ele>
        <time>2022-06-12T10:28:15Z</time>
      </trkpt>
      <trkpt lat="45.97166" lon="1.28679">
        <ele>455.8</ele>
        <time>2022-06-12T10:28:17Z</time>
      </trkpt>
      <trkpt lat="45.97164" lon="1.28693">
        <ele>456.2</ele>
        <time>2022-06-12T10:28:21Z</time>
      </trkpt>
      <trkpt lat="45.9716" lon="1.28709">
        <ele>456</ele>
        <time>2022-06-12T10:28:24Z</time>
      </trkpt>
      <trkpt lat="45.97157" lon="1.2872">
        <ele>455.4</ele>
        <time>2022-06-12T10:28:26Z</time>
      </trkpt>
      <trkpt lat="45.97153" lon="1.28735">
        <ele>455</ele>
        <time>2022-06-12T10:28:30Z</time>
      </trkpt>
      <trkpt lat="45.97146" lon="1.28752">
        <ele>455.2</ele>
        <time>2022-06-12T10:28:37Z</time>
      </trkpt>
      <trkpt lat="45.97137" lon="1.28765">
        <ele>456.6</ele>
        <time>2022-06-12T10:28:44Z</time>
      </trkpt>
      <trkpt lat="45.9713" lon="1.2877">
        <ele>457.8</ele>
        <time>2022-06-12T10:28:48Z</time>
      </trkpt>
      <trkpt lat="45.9712" lon="1.28775">
        <ele>458.8</ele>
        <time>2022-06-12T10:28:53Z</time>
      </trkpt>
      <trkpt lat="45.97108" lon="1.28784">
        <ele>459.4</ele>
        <time>2022-06-12T10:28:58Z</time>
      </trkpt>
      <trkpt lat="45.97097" lon="1.28799">
        <ele>459</ele>
        <time>2022-06-12T10:29:04Z</time>
      </trkpt>
      <trkpt lat="45.97098" lon="1.28818">
        <ele>459</ele>
        <time>2022-06-12T10:29:09Z</time>
      </trkpt>
      <trkpt lat="45.97099" lon="1.28824">
        <ele>459</ele>
        <time>2022-06-12T10:29:11Z</time>
      </trkpt>
      <trkpt lat="45.97097" lon="1.28827">
        <ele>459.4</ele>
        <time>2022-06-12T10:29:13Z</time>
      </trkpt>
      <trkpt lat="45.97094" lon="1.28829">
        <ele>460</ele>
        <time>2022-06-12T10:29:15Z</time>
      </trkpt>
      <trkpt lat="45.97089" lon="1.28835">
        <ele>461</ele>
        <time>2022-06-12T10:29:20Z</time>
      </trkpt>
      <trkpt lat="45.97087" lon="1.28836">
        <ele>461.2</ele>
        <time>2022-06-12T10:29:21Z</time>
      </trkpt>
      <trkpt lat="45.97081" lon="1.28842">
        <ele>462.2</ele>
        <time>2022-06-12T10:29:26Z</time>
      </trkpt>
      <trkpt lat="45.97077" lon="1.28845">
        <ele>463</ele>
        <time>2022-06-12T10:29:29Z</time>
      </trkpt>
      <trkpt lat="45.97075" lon="1.28846">
        <ele>463.2</ele>
        <time>2022-06-12T10:29:30Z</time>
      </trkpt>
      <trkpt lat="45.97069" lon="1.2885">
        <ele>464.2</ele>
        <time>2022-06-12T10:29:34Z</time>
      </trkpt>
      <trkpt lat="45.97067" lon="1.28851">
        <ele>464.2</ele>
        <time>2022-06-12T10:29:35Z</time>
      </trkpt>
      <trkpt lat="45.97066" lon="1.28853">
        <ele>464.2</ele>
        <time>2022-06-12T10:29:36Z</time>
      </trkpt>
      <trkpt lat="45.97055" lon="1.28862">
        <ele>464.8</ele>
        <time>2022-06-12T10:29:42Z</time>
      </trkpt>
      <trkpt lat="45.97052" lon="1.2887">
        <ele>465.4</ele>
        <time>2022-06-12T10:29:46Z</time>
      </trkpt>
      <trkpt lat="45.97052" lon="1.28872">
        <ele>465.4</ele>
        <time>2022-06-12T10:29:47Z</time>
      </trkpt>
      <trkpt lat="45.9705" lon="1.28876">
        <ele>465.8</ele>
        <time>2022-06-12T10:29:51Z</time>
      </trkpt>
      <trkpt lat="45.97048" lon="1.28879">
        <ele>466.2</ele>
        <time>2022-06-12T10:29:53Z</time>
      </trkpt>
      <trkpt lat="45.97045" lon="1.28882">
        <ele>466.4</ele>
        <time>2022-06-12T10:29:55Z</time>
      </trkpt>
      <trkpt lat="45.97042" lon="1.28885">
        <ele>466.8</ele>
        <time>2022-06-12T10:29:58Z</time>
      </trkpt>
      <trkpt lat="45.97039" lon="1.28887">
        <ele>467.2</ele>
        <time>2022-06-12T10:30:00Z</time>
      </trkpt>
      <trkpt lat="45.97038" lon="1.28889">
        <ele>467.4</ele>
        <time>2022-06-12T10:30:01Z</time>
      </trkpt>
      <trkpt lat="45.97031" lon="1.28901">
        <ele>468.2</ele>
        <time>2022-06-12T10:30:07Z</time>
      </trkpt>
      <trkpt lat="45.97029" lon="1.28904">
        <ele>468.4</ele>
        <time>2022-06-12T10:30:09Z</time>
      </trkpt>
      <trkpt lat="45.97024" lon="1.28915">
        <ele>469</ele>
        <time>2022-06-12T10:30:14Z</time>
      </trkpt>
      <trkpt lat="45.97019" lon="1.28926">
        <ele>469.4</ele>
        <time>2022-06-12T10:30:18Z</time>
      </trkpt>
      <trkpt lat="45.97015" lon="1.28936">
        <ele>469.6</ele>
        <time>2022-06-12T10:30:21Z</time>
      </trkpt>
      <trkpt lat="45.97009" lon="1.28962">
        <ele>469.6</ele>
        <time>2022-06-12T10:30:28Z</time>
      </trkpt>
      <trkpt lat="45.97003" lon="1.28987">
        <ele>470</ele>
        <time>2022-06-12T10:30:35Z</time>
      </trkpt>
      <trkpt lat="45.96994" lon="1.29007">
        <ele>470.2</ele>
        <time>2022-06-12T10:30:42Z</time>
      </trkpt>
      <trkpt lat="45.96991" lon="1.29014">
        <ele>470.6</ele>
        <time>2022-06-12T10:30:44Z</time>
      </trkpt>
      <trkpt lat="45.96986" lon="1.29028">
        <ele>471.2</ele>
        <time>2022-06-12T10:30:49Z</time>
      </trkpt>
      <trkpt lat="45.96984" lon="1.29033">
        <ele>471.8</ele>
        <time>2022-06-12T10:30:51Z</time>
      </trkpt>
      <trkpt lat="45.9698" lon="1.29044">
        <ele>472.8</ele>
        <time>2022-06-12T10:30:55Z</time>
      </trkpt>
      <trkpt lat="45.96977" lon="1.29048">
        <ele>473</ele>
        <time>2022-06-12T10:30:57Z</time>
      </trkpt>
      <trkpt lat="45.96973" lon="1.29061">
        <ele>473.8</ele>
        <time>2022-06-12T10:31:03Z</time>
      </trkpt>
      <trkpt lat="45.96967" lon="1.29077">
        <ele>474.6</ele>
        <time>2022-06-12T10:31:10Z</time>
      </trkpt>
      <trkpt lat="45.96962" lon="1.29087">
        <ele>474.8</ele>
        <time>2022-06-12T10:31:16Z</time>
      </trkpt>
      <trkpt lat="45.9696" lon="1.29088">
        <ele>475</ele>
        <time>2022-06-12T10:31:17Z</time>
      </trkpt>
      <trkpt lat="45.96957" lon="1.29091">
        <ele>475.2</ele>
        <time>2022-06-12T10:31:24Z</time>
      </trkpt>
      <trkpt lat="45.96957" lon="1.29091">
        <ele>475</ele>
        <time>2022-06-12T10:31:33Z</time>
      </trkpt>
      <trkpt lat="45.96957" lon="1.29088">
        <ele>474.8</ele>
        <time>2022-06-12T10:31:40Z</time>
      </trkpt>
      <trkpt lat="45.96957" lon="1.29084">
        <ele>474.8</ele>
        <time>2022-06-12T10:31:42Z</time>
      </trkpt>
      <trkpt lat="45.96953" lon="1.29076">
        <ele>474.8</ele>
        <time>2022-06-12T10:31:46Z</time>
      </trkpt>
      <trkpt lat="45.96939" lon="1.29065">
        <ele>474.2</ele>
        <time>2022-06-12T10:31:52Z</time>
      </trkpt>
      <trkpt lat="45.96923" lon="1.29054">
        <ele>474</ele>
        <time>2022-06-12T10:31:58Z</time>
      </trkpt>
      <trkpt lat="45.96903" lon="1.2904">
        <ele>474.8</ele>
        <time>2022-06-12T10:32:04Z</time>
      </trkpt>
      <trkpt lat="45.96897" lon="1.2903">
        <ele>475.2</ele>
        <time>2022-06-12T10:32:08Z</time>
      </trkpt>
      <trkpt lat="45.96897" lon="1.29027">
        <ele>475.2</ele>
        <time>2022-06-12T10:32:09Z</time>
      </trkpt>
      <trkpt lat="45.96894" lon="1.28997">
        <ele>475.8</ele>
        <time>2022-06-12T10:32:15Z</time>
      </trkpt>
      <trkpt lat="45.96895" lon="1.28995">
        <ele>476</ele>
        <time>2022-06-12T10:32:16Z</time>
      </trkpt>
      <trkpt lat="45.96901" lon="1.28985">
        <ele>477</ele>
        <time>2022-06-12T10:32:22Z</time>
      </trkpt>
      <trkpt lat="45.96903" lon="1.28983">
        <ele>477.8</ele>
        <time>2022-06-12T10:32:24Z</time>
      </trkpt>
      <trkpt lat="45.96906" lon="1.28981">
        <ele>478.2</ele>
        <time>2022-06-12T10:32:26Z</time>
      </trkpt>
      <trkpt lat="45.96913" lon="1.28973">
        <ele>479.2</ele>
        <time>2022-06-12T10:32:32Z</time>
      </trkpt>
      <trkpt lat="45.96915" lon="1.28971">
        <ele>479.4</ele>
        <time>2022-06-12T10:32:33Z</time>
      </trkpt>
      <trkpt lat="45.96916" lon="1.2897">
        <ele>479.6</ele>
        <time>2022-06-12T10:32:34Z</time>
      </trkpt>
      <trkpt lat="45.96921" lon="1.28965">
        <ele>480.4</ele>
        <time>2022-06-12T10:32:38Z</time>
      </trkpt>
      <trkpt lat="45.96921" lon="1.28963">
        <ele>480.6</ele>
        <time>2022-06-12T10:32:39Z</time>
      </trkpt>
      <trkpt lat="45.96924" lon="1.28952">
        <ele>481.2</ele>
        <time>2022-06-12T10:32:44Z</time>
      </trkpt>
      <trkpt lat="45.96925" lon="1.28947">
        <ele>481.6</ele>
        <time>2022-06-12T10:32:46Z</time>
      </trkpt>
      <trkpt lat="45.96926" lon="1.28929">
        <ele>482</ele>
        <time>2022-06-12T10:32:52Z</time>
      </trkpt>
      <trkpt lat="45.96929" lon="1.28911">
        <ele>482.8</ele>
        <time>2022-06-12T10:32:58Z</time>
      </trkpt>
      <trkpt lat="45.96931" lon="1.28888">
        <ele>483.4</ele>
        <time>2022-06-12T10:33:05Z</time>
      </trkpt>
      <trkpt lat="45.96935" lon="1.2887">
        <ele>483</ele>
        <time>2022-06-12T10:33:10Z</time>
      </trkpt>
      <trkpt lat="45.96942" lon="1.28852">
        <ele>483.6</ele>
        <time>2022-06-12T10:33:17Z</time>
      </trkpt>
      <trkpt lat="45.96943" lon="1.2885">
        <ele>483.8</ele>
        <time>2022-06-12T10:33:18Z</time>
      </trkpt>
      <trkpt lat="45.96945" lon="1.28837">
        <ele>484</ele>
        <time>2022-06-12T10:33:22Z</time>
      </trkpt>
      <trkpt lat="45.96949" lon="1.28815">
        <ele>484.4</ele>
        <time>2022-06-12T10:33:28Z</time>
      </trkpt>
      <trkpt lat="45.96952" lon="1.28804">
        <ele>484.8</ele>
        <time>2022-06-12T10:33:32Z</time>
      </trkpt>
      <trkpt lat="45.96956" lon="1.28795">
        <ele>485.2</ele>
        <time>2022-06-12T10:33:35Z</time>
      </trkpt>
      <trkpt lat="45.96957" lon="1.28782">
        <ele>486</ele>
        <time>2022-06-12T10:33:40Z</time>
      </trkpt>
      <trkpt lat="45.96957" lon="1.2878">
        <ele>486.2</ele>
        <time>2022-06-12T10:33:41Z</time>
      </trkpt>
      <trkpt lat="45.96957" lon="1.28778">
        <ele>486.4</ele>
        <time>2022-06-12T10:33:42Z</time>
      </trkpt>
      <trkpt lat="45.96956" lon="1.28775">
        <ele>487</ele>
        <time>2022-06-12T10:33:44Z</time>
      </trkpt>
      <trkpt lat="45.96955" lon="1.28773">
        <ele>487</ele>
        <time>2022-06-12T10:33:45Z</time>
      </trkpt>
      <trkpt lat="45.96953" lon="1.28768">
        <ele>487.8</ele>
        <time>2022-06-12T10:33:48Z</time>
      </trkpt>
      <trkpt lat="45.96952" lon="1.28767">
        <ele>488.2</ele>
        <time>2022-06-12T10:33:49Z</time>
      </trkpt>
      <trkpt lat="45.96949" lon="1.28761">
        <ele>489.2</ele>
        <time>2022-06-12T10:33:53Z</time>
      </trkpt>
      <trkpt lat="45.96948" lon="1.2876">
        <ele>489.2</ele>
        <time>2022-06-12T10:33:54Z</time>
      </trkpt>
      <trkpt lat="45.96944" lon="1.28753">
        <ele>490.2</ele>
        <time>2022-06-12T10:33:59Z</time>
      </trkpt>
      <trkpt lat="45.96942" lon="1.28751">
        <ele>490.8</ele>
        <time>2022-06-12T10:34:01Z</time>
      </trkpt>
      <trkpt lat="45.96939" lon="1.28747">
        <ele>491.4</ele>
        <time>2022-06-12T10:34:04Z</time>
      </trkpt>
      <trkpt lat="45.96938" lon="1.28745">
        <ele>492.2</ele>
        <time>2022-06-12T10:34:07Z</time>
      </trkpt>
      <trkpt lat="45.96937" lon="1.28743">
        <ele>492.4</ele>
        <time>2022-06-12T10:34:09Z</time>
      </trkpt>
      <trkpt lat="45.96936" lon="1.28742">
        <ele>492.4</ele>
        <time>2022-06-12T10:34:10Z</time>
      </trkpt>
      <trkpt lat="45.96933" lon="1.28741">
        <ele>492.6</ele>
        <time>2022-06-12T10:34:12Z</time>
      </trkpt>
      <trkpt lat="45.9693" lon="1.28739">
        <ele>493</ele>
        <time>2022-06-12T10:34:14Z</time>
      </trkpt>
      <trkpt lat="45.96922" lon="1.28734">
        <ele>493.4</ele>
        <time>2022-06-12T10:34:19Z</time>
      </trkpt>
      <trkpt lat="45.96918" lon="1.28732">
        <ele>493.6</ele>
        <time>2022-06-12T10:34:21Z</time>
      </trkpt>
      <trkpt lat="45.96911" lon="1.28727">
        <ele>494</ele>
        <time>2022-06-12T10:34:26Z</time>
      </trkpt>
      <trkpt lat="45.96905" lon="1.28725">
        <ele>494.4</ele>
        <time>2022-06-12T10:34:31Z</time>
      </trkpt>
      <trkpt lat="45.96902" lon="1.28723">
        <ele>494.6</ele>
        <time>2022-06-12T10:34:33Z</time>
      </trkpt>
      <trkpt lat="45.96894" lon="1.28719">
        <ele>495.6</ele>
        <time>2022-06-12T10:34:40Z</time>
      </trkpt>
      <trkpt lat="45.96892" lon="1.28719">
        <ele>495.8</ele>
        <time>2022-06-12T10:34:41Z</time>
      </trkpt>
      <trkpt lat="45.96881" lon="1.28715">
        <ele>496.6</ele>
        <time>2022-06-12T10:34:48Z</time>
      </trkpt>
      <trkpt lat="45.9688" lon="1.28714">
        <ele>496.6</ele>
        <time>2022-06-12T10:34:49Z</time>
      </trkpt>
      <trkpt lat="45.96867" lon="1.28712">
        <ele>497.2</ele>
        <time>2022-06-12T10:34:57Z</time>
      </trkpt>
      <trkpt lat="45.96863" lon="1.28712">
        <ele>497.6</ele>
        <time>2022-06-12T10:34:59Z</time>
      </trkpt>
      <trkpt lat="45.96856" lon="1.28713">
        <ele>498.2</ele>
        <time>2022-06-12T10:35:04Z</time>
      </trkpt>
      <trkpt lat="45.96855" lon="1.28714">
        <ele>498.4</ele>
        <time>2022-06-12T10:35:05Z</time>
      </trkpt>
      <trkpt lat="45.96849" lon="1.28715">
        <ele>498.6</ele>
        <time>2022-06-12T10:35:09Z</time>
      </trkpt>
      <trkpt lat="45.96848" lon="1.28714">
        <ele>498.8</ele>
        <time>2022-06-12T10:35:10Z</time>
      </trkpt>
      <trkpt lat="45.96842" lon="1.28713">
        <ele>499.2</ele>
        <time>2022-06-12T10:35:13Z</time>
      </trkpt>
      <trkpt lat="45.96831" lon="1.28713">
        <ele>499.6</ele>
        <time>2022-06-12T10:35:20Z</time>
      </trkpt>
      <trkpt lat="45.96827" lon="1.28712">
        <ele>499.8</ele>
        <time>2022-06-12T10:35:22Z</time>
      </trkpt>
      <trkpt lat="45.96815" lon="1.28713">
        <ele>500.4</ele>
        <time>2022-06-12T10:35:28Z</time>
      </trkpt>
      <trkpt lat="45.96801" lon="1.28709">
        <ele>500.8</ele>
        <time>2022-06-12T10:35:35Z</time>
      </trkpt>
      <trkpt lat="45.96798" lon="1.28708">
        <ele>500.8</ele>
        <time>2022-06-12T10:35:36Z</time>
      </trkpt>
      <trkpt lat="45.96783" lon="1.28705">
        <ele>501.2</ele>
        <time>2022-06-12T10:35:43Z</time>
      </trkpt>
      <trkpt lat="45.96776" lon="1.28703">
        <ele>501.8</ele>
        <time>2022-06-12T10:35:47Z</time>
      </trkpt>
      <trkpt lat="45.9677" lon="1.28703">
        <ele>502</ele>
        <time>2022-06-12T10:35:50Z</time>
      </trkpt>
      <trkpt lat="45.96756" lon="1.28704">
        <ele>502.2</ele>
        <time>2022-06-12T10:35:57Z</time>
      </trkpt>
      <trkpt lat="45.96741" lon="1.28689">
        <ele>501.6</ele>
        <time>2022-06-12T10:36:04Z</time>
      </trkpt>
      <trkpt lat="45.96733" lon="1.28675">
        <ele>502.6</ele>
        <time>2022-06-12T10:36:10Z</time>
      </trkpt>
      <trkpt lat="45.96732" lon="1.28673">
        <ele>502.8</ele>
        <time>2022-06-12T10:36:11Z</time>
      </trkpt>
      <trkpt lat="45.96722" lon="1.2865">
        <ele>502.4</ele>
        <time>2022-06-12T10:36:16Z</time>
      </trkpt>
      <trkpt lat="45.96716" lon="1.28641">
        <ele>501.8</ele>
        <time>2022-06-12T10:36:18Z</time>
      </trkpt>
      <trkpt lat="45.96708" lon="1.28634">
        <ele>501</ele>
        <time>2022-06-12T10:36:20Z</time>
      </trkpt>
      <trkpt lat="45.96704" lon="1.2863">
        <ele>500.8</ele>
        <time>2022-06-12T10:36:21Z</time>
      </trkpt>
      <trkpt lat="45.96682" lon="1.28611">
        <ele>499.8</ele>
        <time>2022-06-12T10:36:25Z</time>
      </trkpt>
      <trkpt lat="45.96671" lon="1.28603">
        <ele>499.4</ele>
        <time>2022-06-12T10:36:27Z</time>
      </trkpt>
      <trkpt lat="45.96643" lon="1.2858">
        <ele>498.6</ele>
        <time>2022-06-12T10:36:31Z</time>
      </trkpt>
      <trkpt lat="45.96632" lon="1.28574">
        <ele>498.4</ele>
        <time>2022-06-12T10:36:33Z</time>
      </trkpt>
      <trkpt lat="45.96613" lon="1.2856">
        <ele>497.6</ele>
        <time>2022-06-12T10:36:36Z</time>
      </trkpt>
      <trkpt lat="45.96603" lon="1.28555">
        <ele>497.4</ele>
        <time>2022-06-12T10:36:38Z</time>
      </trkpt>
      <trkpt lat="45.96576" lon="1.28542">
        <ele>496.2</ele>
        <time>2022-06-12T10:36:43Z</time>
      </trkpt>
      <trkpt lat="45.96538" lon="1.28524">
        <ele>495.2</ele>
        <time>2022-06-12T10:36:49Z</time>
      </trkpt>
      <trkpt lat="45.96516" lon="1.28517">
        <ele>494.2</ele>
        <time>2022-06-12T10:36:53Z</time>
      </trkpt>
      <trkpt lat="45.96511" lon="1.28516">
        <ele>493.8</ele>
        <time>2022-06-12T10:36:54Z</time>
      </trkpt>
      <trkpt lat="45.96485" lon="1.28512">
        <ele>493</ele>
        <time>2022-06-12T10:36:58Z</time>
      </trkpt>
      <trkpt lat="45.9648" lon="1.28512">
        <ele>493</ele>
        <time>2022-06-12T10:36:59Z</time>
      </trkpt>
      <trkpt lat="45.96468" lon="1.28514">
        <ele>492.8</ele>
        <time>2022-06-12T10:37:01Z</time>
      </trkpt>
      <trkpt lat="45.96451" lon="1.28515">
        <ele>492.2</ele>
        <time>2022-06-12T10:37:04Z</time>
      </trkpt>
      <trkpt lat="45.96447" lon="1.28515">
        <ele>492</ele>
        <time>2022-06-12T10:37:05Z</time>
      </trkpt>
      <trkpt lat="45.96438" lon="1.28516">
        <ele>491</ele>
        <time>2022-06-12T10:37:07Z</time>
      </trkpt>
      <trkpt lat="45.9643" lon="1.28518">
        <ele>489.8</ele>
        <time>2022-06-12T10:37:09Z</time>
      </trkpt>
      <trkpt lat="45.96423" lon="1.28519">
        <ele>489.2</ele>
        <time>2022-06-12T10:37:11Z</time>
      </trkpt>
      <trkpt lat="45.96418" lon="1.28517">
        <ele>488.8</ele>
        <time>2022-06-12T10:37:12Z</time>
      </trkpt>
      <trkpt lat="45.96412" lon="1.28518">
        <ele>487.8</ele>
        <time>2022-06-12T10:37:13Z</time>
      </trkpt>
      <trkpt lat="45.96389" lon="1.28515">
        <ele>486.6</ele>
        <time>2022-06-12T10:37:17Z</time>
      </trkpt>
      <trkpt lat="45.96374" lon="1.28512">
        <ele>485.8</ele>
        <time>2022-06-12T10:37:19Z</time>
      </trkpt>
      <trkpt lat="45.96366" lon="1.2851">
        <ele>485.6</ele>
        <time>2022-06-12T10:37:20Z</time>
      </trkpt>
      <trkpt lat="45.96349" lon="1.28508">
        <ele>484.4</ele>
        <time>2022-06-12T10:37:22Z</time>
      </trkpt>
      <trkpt lat="45.96334" lon="1.28504">
        <ele>484</ele>
        <time>2022-06-12T10:37:24Z</time>
      </trkpt>
      <trkpt lat="45.96329" lon="1.28502">
        <ele>484</ele>
        <time>2022-06-12T10:37:25Z</time>
      </trkpt>
      <trkpt lat="45.96324" lon="1.28499">
        <ele>484</ele>
        <time>2022-06-12T10:37:26Z</time>
      </trkpt>
      <trkpt lat="45.9631" lon="1.28487">
        <ele>484</ele>
        <time>2022-06-12T10:37:29Z</time>
      </trkpt>
      <trkpt lat="45.96299" lon="1.28471">
        <ele>484.6</ele>
        <time>2022-06-12T10:37:34Z</time>
      </trkpt>
      <trkpt lat="45.96289" lon="1.2846">
        <ele>485.4</ele>
        <time>2022-06-12T10:37:40Z</time>
      </trkpt>
      <trkpt lat="45.96286" lon="1.28457">
        <ele>485.6</ele>
        <time>2022-06-12T10:37:41Z</time>
      </trkpt>
      <trkpt lat="45.96275" lon="1.28452">
        <ele>486.6</ele>
        <time>2022-06-12T10:37:46Z</time>
      </trkpt>
      <trkpt lat="45.96272" lon="1.2845">
        <ele>486.8</ele>
        <time>2022-06-12T10:37:47Z</time>
      </trkpt>
      <trkpt lat="45.96253" lon="1.28442">
        <ele>487.6</ele>
        <time>2022-06-12T10:37:54Z</time>
      </trkpt>
      <trkpt lat="45.9625" lon="1.28442">
        <ele>488</ele>
        <time>2022-06-12T10:37:56Z</time>
      </trkpt>
      <trkpt lat="45.96249" lon="1.28445">
        <ele>488.2</ele>
        <time>2022-06-12T10:37:58Z</time>
      </trkpt>
      <trkpt lat="45.96249" lon="1.28448">
        <ele>488.2</ele>
        <time>2022-06-12T10:37:59Z</time>
      </trkpt>
      <trkpt lat="45.9625" lon="1.28453">
        <ele>488.8</ele>
        <time>2022-06-12T10:38:01Z</time>
      </trkpt>
      <trkpt lat="45.96252" lon="1.28468">
        <ele>489.8</ele>
        <time>2022-06-12T10:38:06Z</time>
      </trkpt>
      <trkpt lat="45.96253" lon="1.2847">
        <ele>490</ele>
        <time>2022-06-12T10:38:07Z</time>
      </trkpt>
      <trkpt lat="45.96257" lon="1.28486">
        <ele>491</ele>
        <time>2022-06-12T10:38:13Z</time>
      </trkpt>
      <trkpt lat="45.96259" lon="1.28489">
        <ele>491.2</ele>
        <time>2022-06-12T10:38:15Z</time>
      </trkpt>
      <trkpt lat="45.96263" lon="1.28486">
        <ele>491.4</ele>
        <time>2022-06-12T10:38:17Z</time>
      </trkpt>
      <trkpt lat="45.96264" lon="1.28469">
        <ele>491.2</ele>
        <time>2022-06-12T10:38:21Z</time>
      </trkpt>
      <trkpt lat="45.96256" lon="1.28448">
        <ele>489.8</ele>
        <time>2022-06-12T10:38:25Z</time>
      </trkpt>
      <trkpt lat="45.96253" lon="1.28443">
        <ele>489.4</ele>
        <time>2022-06-12T10:38:26Z</time>
      </trkpt>
      <trkpt lat="45.9624" lon="1.28416">
        <ele>488.8</ele>
        <time>2022-06-12T10:38:31Z</time>
      </trkpt>
      <trkpt lat="45.96238" lon="1.28411">
        <ele>488.6</ele>
        <time>2022-06-12T10:38:32Z</time>
      </trkpt>
      <trkpt lat="45.96234" lon="1.28396">
        <ele>487.4</ele>
        <time>2022-06-12T10:38:35Z</time>
      </trkpt>
      <trkpt lat="45.9623" lon="1.2838">
        <ele>486.4</ele>
        <time>2022-06-12T10:38:38Z</time>
      </trkpt>
      <trkpt lat="45.96227" lon="1.2837">
        <ele>486</ele>
        <time>2022-06-12T10:38:40Z</time>
      </trkpt>
      <trkpt lat="45.96225" lon="1.28363">
        <ele>485.4</ele>
        <time>2022-06-12T10:38:43Z</time>
      </trkpt>
      <trkpt lat="45.96216" lon="1.28349">
        <ele>484.8</ele>
        <time>2022-06-12T10:38:49Z</time>
      </trkpt>
      <trkpt lat="45.96214" lon="1.2835">
        <ele>484.8</ele>
        <time>2022-06-12T10:38:51Z</time>
      </trkpt>
      <trkpt lat="45.96211" lon="1.28353">
        <ele>485.2</ele>
        <time>2022-06-12T10:38:55Z</time>
      </trkpt>
      <trkpt lat="45.96207" lon="1.28355">
        <ele>486.4</ele>
        <time>2022-06-12T10:38:59Z</time>
      </trkpt>
      <trkpt lat="45.96203" lon="1.28361">
        <ele>487.6</ele>
        <time>2022-06-12T10:39:03Z</time>
      </trkpt>
      <trkpt lat="45.96199" lon="1.28365">
        <ele>488.8</ele>
        <time>2022-06-12T10:39:07Z</time>
      </trkpt>
      <trkpt lat="45.96197" lon="1.28368">
        <ele>489.2</ele>
        <time>2022-06-12T10:39:09Z</time>
      </trkpt>
      <trkpt lat="45.96194" lon="1.2837">
        <ele>490</ele>
        <time>2022-06-12T10:39:12Z</time>
      </trkpt>
      <trkpt lat="45.96189" lon="1.28373">
        <ele>491</ele>
        <time>2022-06-12T10:39:16Z</time>
      </trkpt>
      <trkpt lat="45.96188" lon="1.28373">
        <ele>491.2</ele>
        <time>2022-06-12T10:39:17Z</time>
      </trkpt>
      <trkpt lat="45.96186" lon="1.28374">
        <ele>491.4</ele>
        <time>2022-06-12T10:39:18Z</time>
      </trkpt>
      <trkpt lat="45.96181" lon="1.28377">
        <ele>492.2</ele>
        <time>2022-06-12T10:39:22Z</time>
      </trkpt>
      <trkpt lat="45.96178" lon="1.28378">
        <ele>492.8</ele>
        <time>2022-06-12T10:39:24Z</time>
      </trkpt>
      <trkpt lat="45.96173" lon="1.28378">
        <ele>493.2</ele>
        <time>2022-06-12T10:39:27Z</time>
      </trkpt>
      <trkpt lat="45.9617" lon="1.28379">
        <ele>493.4</ele>
        <time>2022-06-12T10:39:29Z</time>
      </trkpt>
      <trkpt lat="45.96167" lon="1.2838">
        <ele>493.4</ele>
        <time>2022-06-12T10:39:31Z</time>
      </trkpt>
      <trkpt lat="45.96153" lon="1.28385">
        <ele>494.2</ele>
        <time>2022-06-12T10:39:39Z</time>
      </trkpt>
      <trkpt lat="45.9615" lon="1.28385">
        <ele>494.2</ele>
        <time>2022-06-12T10:39:40Z</time>
      </trkpt>
      <trkpt lat="45.96136" lon="1.28387">
        <ele>494.4</ele>
        <time>2022-06-12T10:39:44Z</time>
      </trkpt>
      <trkpt lat="45.96113" lon="1.28392">
        <ele>494</ele>
        <time>2022-06-12T10:39:50Z</time>
      </trkpt>
      <trkpt lat="45.961" lon="1.28392">
        <ele>493.8</ele>
        <time>2022-06-12T10:39:53Z</time>
      </trkpt>
      <trkpt lat="45.96095" lon="1.28393">
        <ele>493.2</ele>
        <time>2022-06-12T10:39:54Z</time>
      </trkpt>
      <trkpt lat="45.96084" lon="1.28394">
        <ele>491.8</ele>
        <time>2022-06-12T10:39:56Z</time>
      </trkpt>
      <trkpt lat="45.96071" lon="1.28394">
        <ele>490</ele>
        <time>2022-06-12T10:39:58Z</time>
      </trkpt>
      <trkpt lat="45.96056" lon="1.28397">
        <ele>488.8</ele>
        <time>2022-06-12T10:40:01Z</time>
      </trkpt>
      <trkpt lat="45.96052" lon="1.28399">
        <ele>488.6</ele>
        <time>2022-06-12T10:40:02Z</time>
      </trkpt>
      <trkpt lat="45.96043" lon="1.28411">
        <ele>489.8</ele>
        <time>2022-06-12T10:40:06Z</time>
      </trkpt>
      <trkpt lat="45.9604" lon="1.28414">
        <ele>490.2</ele>
        <time>2022-06-12T10:40:07Z</time>
      </trkpt>
      <trkpt lat="45.96033" lon="1.28421">
        <ele>490.8</ele>
        <time>2022-06-12T10:40:10Z</time>
      </trkpt>
      <trkpt lat="45.96025" lon="1.28425">
        <ele>491.4</ele>
        <time>2022-06-12T10:40:13Z</time>
      </trkpt>
      <trkpt lat="45.9602" lon="1.28427">
        <ele>492.2</ele>
        <time>2022-06-12T10:40:15Z</time>
      </trkpt>
      <trkpt lat="45.96004" lon="1.28441">
        <ele>492.6</ele>
        <time>2022-06-12T10:40:21Z</time>
      </trkpt>
      <trkpt lat="45.95997" lon="1.28454">
        <ele>493.4</ele>
        <time>2022-06-12T10:40:25Z</time>
      </trkpt>
      <trkpt lat="45.95995" lon="1.28457">
        <ele>493.8</ele>
        <time>2022-06-12T10:40:26Z</time>
      </trkpt>
      <trkpt lat="45.95982" lon="1.2847">
        <ele>494.4</ele>
        <time>2022-06-12T10:40:32Z</time>
      </trkpt>
      <trkpt lat="45.95965" lon="1.28479">
        <ele>494.6</ele>
        <time>2022-06-12T10:40:37Z</time>
      </trkpt>
      <trkpt lat="45.9594" lon="1.28495">
        <ele>494.2</ele>
        <time>2022-06-12T10:40:43Z</time>
      </trkpt>
      <trkpt lat="45.95926" lon="1.28509">
        <ele>494.2</ele>
        <time>2022-06-12T10:40:46Z</time>
      </trkpt>
      <trkpt lat="45.95909" lon="1.2852">
        <ele>494</ele>
        <time>2022-06-12T10:40:49Z</time>
      </trkpt>
      <trkpt lat="45.95879" lon="1.28528">
        <ele>493.6</ele>
        <time>2022-06-12T10:40:54Z</time>
      </trkpt>
      <trkpt lat="45.95873" lon="1.28531">
        <ele>493</ele>
        <time>2022-06-12T10:40:55Z</time>
      </trkpt>
      <trkpt lat="45.95849" lon="1.28539">
        <ele>491.8</ele>
        <time>2022-06-12T10:40:59Z</time>
      </trkpt>
      <trkpt lat="45.95838" lon="1.28541">
        <ele>491.6</ele>
        <time>2022-06-12T10:41:01Z</time>
      </trkpt>
      <trkpt lat="45.95821" lon="1.28539">
        <ele>491.4</ele>
        <time>2022-06-12T10:41:04Z</time>
      </trkpt>
      <trkpt lat="45.95794" lon="1.28535">
        <ele>491.6</ele>
        <time>2022-06-12T10:41:09Z</time>
      </trkpt>
      <trkpt lat="45.95784" lon="1.28531">
        <ele>491.8</ele>
        <time>2022-06-12T10:41:11Z</time>
      </trkpt>
      <trkpt lat="45.95773" lon="1.28527">
        <ele>491.8</ele>
        <time>2022-06-12T10:41:13Z</time>
      </trkpt>
      <trkpt lat="45.95757" lon="1.28525">
        <ele>491.6</ele>
        <time>2022-06-12T10:41:16Z</time>
      </trkpt>
      <trkpt lat="45.95739" lon="1.28523">
        <ele>491.2</ele>
        <time>2022-06-12T10:41:19Z</time>
      </trkpt>
      <trkpt lat="45.95734" lon="1.28521">
        <ele>491.2</ele>
        <time>2022-06-12T10:41:20Z</time>
      </trkpt>
      <trkpt lat="45.95725" lon="1.28516">
        <ele>490.8</ele>
        <time>2022-06-12T10:41:22Z</time>
      </trkpt>
      <trkpt lat="45.95721" lon="1.28514">
        <ele>490.4</ele>
        <time>2022-06-12T10:41:23Z</time>
      </trkpt>
      <trkpt lat="45.95717" lon="1.28512">
        <ele>489.8</ele>
        <time>2022-06-12T10:41:24Z</time>
      </trkpt>
      <trkpt lat="45.95713" lon="1.28509">
        <ele>489.2</ele>
        <time>2022-06-12T10:41:25Z</time>
      </trkpt>
      <trkpt lat="45.95709" lon="1.28505">
        <ele>488.8</ele>
        <time>2022-06-12T10:41:26Z</time>
      </trkpt>
      <trkpt lat="45.95705" lon="1.285">
        <ele>488.2</ele>
        <time>2022-06-12T10:41:27Z</time>
      </trkpt>
      <trkpt lat="45.95696" lon="1.28487">
        <ele>487.2</ele>
        <time>2022-06-12T10:41:29Z</time>
      </trkpt>
      <trkpt lat="45.95691" lon="1.28481">
        <ele>486.8</ele>
        <time>2022-06-12T10:41:30Z</time>
      </trkpt>
      <trkpt lat="45.95682" lon="1.2847">
        <ele>485</ele>
        <time>2022-06-12T10:41:32Z</time>
      </trkpt>
      <trkpt lat="45.95678" lon="1.28466">
        <ele>484.4</ele>
        <time>2022-06-12T10:41:33Z</time>
      </trkpt>
      <trkpt lat="45.95674" lon="1.28463">
        <ele>483</ele>
        <time>2022-06-12T10:41:34Z</time>
      </trkpt>
      <trkpt lat="45.9567" lon="1.2846">
        <ele>481.4</ele>
        <time>2022-06-12T10:41:35Z</time>
      </trkpt>
      <trkpt lat="45.95665" lon="1.28457">
        <ele>480.6</ele>
        <time>2022-06-12T10:41:36Z</time>
      </trkpt>
      <trkpt lat="45.95659" lon="1.28454">
        <ele>479.2</ele>
        <time>2022-06-12T10:41:37Z</time>
      </trkpt>
      <trkpt lat="45.95648" lon="1.28448">
        <ele>477.6</ele>
        <time>2022-06-12T10:41:39Z</time>
      </trkpt>
      <trkpt lat="45.95642" lon="1.28445">
        <ele>477.2</ele>
        <time>2022-06-12T10:41:40Z</time>
      </trkpt>
      <trkpt lat="45.95629" lon="1.28437">
        <ele>475.4</ele>
        <time>2022-06-12T10:41:42Z</time>
      </trkpt>
      <trkpt lat="45.95617" lon="1.28427">
        <ele>473.8</ele>
        <time>2022-06-12T10:41:44Z</time>
      </trkpt>
      <trkpt lat="45.95615" lon="1.28423">
        <ele>473.4</ele>
        <time>2022-06-12T10:41:45Z</time>
      </trkpt>
      <trkpt lat="45.95612" lon="1.28418">
        <ele>473</ele>
        <time>2022-06-12T10:41:46Z</time>
      </trkpt>
      <trkpt lat="45.95609" lon="1.28409">
        <ele>472.8</ele>
        <time>2022-06-12T10:41:48Z</time>
      </trkpt>
      <trkpt lat="45.95607" lon="1.28403">
        <ele>472.6</ele>
        <time>2022-06-12T10:41:49Z</time>
      </trkpt>
      <trkpt lat="45.95604" lon="1.28398">
        <ele>472.2</ele>
        <time>2022-06-12T10:41:50Z</time>
      </trkpt>
      <trkpt lat="45.95599" lon="1.28392">
        <ele>471.4</ele>
        <time>2022-06-12T10:41:51Z</time>
      </trkpt>
      <trkpt lat="45.95594" lon="1.28387">
        <ele>471</ele>
        <time>2022-06-12T10:41:52Z</time>
      </trkpt>
      <trkpt lat="45.95588" lon="1.28382">
        <ele>470</ele>
        <time>2022-06-12T10:41:53Z</time>
      </trkpt>
      <trkpt lat="45.95583" lon="1.28378">
        <ele>468.6</ele>
        <time>2022-06-12T10:41:54Z</time>
      </trkpt>
      <trkpt lat="45.95574" lon="1.2837">
        <ele>466.4</ele>
        <time>2022-06-12T10:41:56Z</time>
      </trkpt>
      <trkpt lat="45.9557" lon="1.28366">
        <ele>465.4</ele>
        <time>2022-06-12T10:41:57Z</time>
      </trkpt>
      <trkpt lat="45.95565" lon="1.28361">
        <ele>464.4</ele>
        <time>2022-06-12T10:41:58Z</time>
      </trkpt>
      <trkpt lat="45.95559" lon="1.28354">
        <ele>462.8</ele>
        <time>2022-06-12T10:42:00Z</time>
      </trkpt>
      <trkpt lat="45.95551" lon="1.28348">
        <ele>462</ele>
        <time>2022-06-12T10:42:02Z</time>
      </trkpt>
      <trkpt lat="45.95547" lon="1.28346">
        <ele>461.6</ele>
        <time>2022-06-12T10:42:03Z</time>
      </trkpt>
      <trkpt lat="45.95544" lon="1.28346">
        <ele>460.6</ele>
        <time>2022-06-12T10:42:04Z</time>
      </trkpt>
      <trkpt lat="45.95534" lon="1.28344">
        <ele>459.4</ele>
        <time>2022-06-12T10:42:06Z</time>
      </trkpt>
      <trkpt lat="45.95528" lon="1.28342">
        <ele>459</ele>
        <time>2022-06-12T10:42:07Z</time>
      </trkpt>
      <trkpt lat="45.95523" lon="1.28342">
        <ele>458.2</ele>
        <time>2022-06-12T10:42:08Z</time>
      </trkpt>
      <trkpt lat="45.95505" lon="1.28339">
        <ele>456.8</ele>
        <time>2022-06-12T10:42:11Z</time>
      </trkpt>
      <trkpt lat="45.95494" lon="1.28337">
        <ele>456.4</ele>
        <time>2022-06-12T10:42:13Z</time>
      </trkpt>
      <trkpt lat="45.95489" lon="1.28337">
        <ele>455.4</ele>
        <time>2022-06-12T10:42:14Z</time>
      </trkpt>
      <trkpt lat="45.95485" lon="1.28337">
        <ele>454</ele>
        <time>2022-06-12T10:42:15Z</time>
      </trkpt>
      <trkpt lat="45.95481" lon="1.28337">
        <ele>452.8</ele>
        <time>2022-06-12T10:42:16Z</time>
      </trkpt>
      <trkpt lat="45.95477" lon="1.28336">
        <ele>452</ele>
        <time>2022-06-12T10:42:17Z</time>
      </trkpt>
      <trkpt lat="45.95472" lon="1.28336">
        <ele>451.2</ele>
        <time>2022-06-12T10:42:18Z</time>
      </trkpt>
      <trkpt lat="45.95459" lon="1.28336">
        <ele>449.8</ele>
        <time>2022-06-12T10:42:20Z</time>
      </trkpt>
      <trkpt lat="45.9545" lon="1.28337">
        <ele>449</ele>
        <time>2022-06-12T10:42:22Z</time>
      </trkpt>
      <trkpt lat="45.95446" lon="1.28338">
        <ele>448.4</ele>
        <time>2022-06-12T10:42:23Z</time>
      </trkpt>
      <trkpt lat="45.95435" lon="1.28338">
        <ele>447.2</ele>
        <time>2022-06-12T10:42:25Z</time>
      </trkpt>
      <trkpt lat="45.95429" lon="1.28338">
        <ele>446</ele>
        <time>2022-06-12T10:42:26Z</time>
      </trkpt>
      <trkpt lat="45.95422" lon="1.28339">
        <ele>445.4</ele>
        <time>2022-06-12T10:42:27Z</time>
      </trkpt>
      <trkpt lat="45.95422" lon="1.28339">
        <ele>444.2</ele>
        <time>2022-06-12T10:42:28Z</time>
      </trkpt>
      <trkpt lat="45.95405" lon="1.28339">
        <ele>443.8</ele>
        <time>2022-06-12T10:42:30Z</time>
      </trkpt>
      <trkpt lat="45.95399" lon="1.28338">
        <ele>443</ele>
        <time>2022-06-12T10:42:31Z</time>
      </trkpt>
      <trkpt lat="45.95395" lon="1.28339">
        <ele>442.4</ele>
        <time>2022-06-12T10:42:32Z</time>
      </trkpt>
      <trkpt lat="45.9539" lon="1.2834">
        <ele>441.4</ele>
        <time>2022-06-12T10:42:33Z</time>
      </trkpt>
      <trkpt lat="45.95381" lon="1.2834">
        <ele>439.6</ele>
        <time>2022-06-12T10:42:35Z</time>
      </trkpt>
      <trkpt lat="45.95371" lon="1.28342">
        <ele>438.4</ele>
        <time>2022-06-12T10:42:37Z</time>
      </trkpt>
      <trkpt lat="45.95362" lon="1.28344">
        <ele>437</ele>
        <time>2022-06-12T10:42:39Z</time>
      </trkpt>
      <trkpt lat="45.95359" lon="1.28346">
        <ele>436.4</ele>
        <time>2022-06-12T10:42:40Z</time>
      </trkpt>
      <trkpt lat="45.95356" lon="1.28347">
        <ele>435</ele>
        <time>2022-06-12T10:42:41Z</time>
      </trkpt>
      <trkpt lat="45.95353" lon="1.2835">
        <ele>434.2</ele>
        <time>2022-06-12T10:42:42Z</time>
      </trkpt>
      <trkpt lat="45.95351" lon="1.28351">
        <ele>433.6</ele>
        <time>2022-06-12T10:42:43Z</time>
      </trkpt>
      <trkpt lat="45.95342" lon="1.28356">
        <ele>432.4</ele>
        <time>2022-06-12T10:42:46Z</time>
      </trkpt>
      <trkpt lat="45.95335" lon="1.28361">
        <ele>431.2</ele>
        <time>2022-06-12T10:42:48Z</time>
      </trkpt>
      <trkpt lat="45.95332" lon="1.28362">
        <ele>430.4</ele>
        <time>2022-06-12T10:42:49Z</time>
      </trkpt>
      <trkpt lat="45.95329" lon="1.28363">
        <ele>429.6</ele>
        <time>2022-06-12T10:42:50Z</time>
      </trkpt>
      <trkpt lat="45.95321" lon="1.28364">
        <ele>428.4</ele>
        <time>2022-06-12T10:42:52Z</time>
      </trkpt>
      <trkpt lat="45.95317" lon="1.28366">
        <ele>427</ele>
        <time>2022-06-12T10:42:54Z</time>
      </trkpt>
      <trkpt lat="45.95308" lon="1.28369">
        <ele>425.8</ele>
        <time>2022-06-12T10:42:58Z</time>
      </trkpt>
      <trkpt lat="45.95302" lon="1.28371">
        <ele>425.4</ele>
        <time>2022-06-12T10:43:00Z</time>
      </trkpt>
      <trkpt lat="45.95292" lon="1.28371">
        <ele>425</ele>
        <time>2022-06-12T10:43:03Z</time>
      </trkpt>
      <trkpt lat="45.95289" lon="1.28372">
        <ele>424.6</ele>
        <time>2022-06-12T10:43:04Z</time>
      </trkpt>
      <trkpt lat="45.95283" lon="1.28371">
        <ele>424.4</ele>
        <time>2022-06-12T10:43:05Z</time>
      </trkpt>
      <trkpt lat="45.95277" lon="1.28369">
        <ele>424</ele>
        <time>2022-06-12T10:43:06Z</time>
      </trkpt>
      <trkpt lat="45.95271" lon="1.28368">
        <ele>423</ele>
        <time>2022-06-12T10:43:07Z</time>
      </trkpt>
      <trkpt lat="45.95263" lon="1.28366">
        <ele>422.2</ele>
        <time>2022-06-12T10:43:08Z</time>
      </trkpt>
      <trkpt lat="45.9525" lon="1.28368">
        <ele>421.8</ele>
        <time>2022-06-12T10:43:10Z</time>
      </trkpt>
      <trkpt lat="45.95227" lon="1.28366">
        <ele>420.4</ele>
        <time>2022-06-12T10:43:14Z</time>
      </trkpt>
      <trkpt lat="45.95221" lon="1.28366">
        <ele>419.8</ele>
        <time>2022-06-12T10:43:15Z</time>
      </trkpt>
      <trkpt lat="45.95215" lon="1.28367">
        <ele>419.4</ele>
        <time>2022-06-12T10:43:16Z</time>
      </trkpt>
      <trkpt lat="45.95197" lon="1.28372">
        <ele>418.4</ele>
        <time>2022-06-12T10:43:19Z</time>
      </trkpt>
      <trkpt lat="45.95191" lon="1.28373">
        <ele>417.8</ele>
        <time>2022-06-12T10:43:20Z</time>
      </trkpt>
      <trkpt lat="45.95185" lon="1.28373">
        <ele>417.2</ele>
        <time>2022-06-12T10:43:21Z</time>
      </trkpt>
      <trkpt lat="45.95179" lon="1.28373">
        <ele>416.8</ele>
        <time>2022-06-12T10:43:22Z</time>
      </trkpt>
      <trkpt lat="45.9517" lon="1.28374">
        <ele>416</ele>
        <time>2022-06-12T10:43:24Z</time>
      </trkpt>
      <trkpt lat="45.95166" lon="1.28375">
        <ele>415.4</ele>
        <time>2022-06-12T10:43:25Z</time>
      </trkpt>
      <trkpt lat="45.95157" lon="1.28376">
        <ele>413.6</ele>
        <time>2022-06-12T10:43:27Z</time>
      </trkpt>
      <trkpt lat="45.95153" lon="1.28378">
        <ele>412.4</ele>
        <time>2022-06-12T10:43:28Z</time>
      </trkpt>
      <trkpt lat="45.95146" lon="1.28382">
        <ele>410.8</ele>
        <time>2022-06-12T10:43:30Z</time>
      </trkpt>
      <trkpt lat="45.95143" lon="1.28386">
        <ele>409.8</ele>
        <time>2022-06-12T10:43:31Z</time>
      </trkpt>
      <trkpt lat="45.95138" lon="1.28394">
        <ele>408.4</ele>
        <time>2022-06-12T10:43:33Z</time>
      </trkpt>
      <trkpt lat="45.95135" lon="1.28397">
        <ele>407.4</ele>
        <time>2022-06-12T10:43:34Z</time>
      </trkpt>
      <trkpt lat="45.95128" lon="1.28402">
        <ele>406.2</ele>
        <time>2022-06-12T10:43:36Z</time>
      </trkpt>
      <trkpt lat="45.95124" lon="1.28405">
        <ele>405.2</ele>
        <time>2022-06-12T10:43:37Z</time>
      </trkpt>
      <trkpt lat="45.95119" lon="1.28408">
        <ele>404.4</ele>
        <time>2022-06-12T10:43:38Z</time>
      </trkpt>
      <trkpt lat="45.95113" lon="1.28408">
        <ele>403.8</ele>
        <time>2022-06-12T10:43:39Z</time>
      </trkpt>
      <trkpt lat="45.95109" lon="1.28409">
        <ele>403.6</ele>
        <time>2022-06-12T10:43:40Z</time>
      </trkpt>
      <trkpt lat="45.951" lon="1.28412">
        <ele>403.2</ele>
        <time>2022-06-12T10:43:42Z</time>
      </trkpt>
      <trkpt lat="45.95082" lon="1.28424">
        <ele>402.8</ele>
        <time>2022-06-12T10:43:45Z</time>
      </trkpt>
      <trkpt lat="45.95074" lon="1.28425">
        <ele>402.4</ele>
        <time>2022-06-12T10:43:46Z</time>
      </trkpt>
      <trkpt lat="45.95063" lon="1.28428">
        <ele>401.6</ele>
        <time>2022-06-12T10:43:48Z</time>
      </trkpt>
      <trkpt lat="45.9505" lon="1.2843">
        <ele>401.2</ele>
        <time>2022-06-12T10:43:50Z</time>
      </trkpt>
      <trkpt lat="45.95036" lon="1.28429">
        <ele>400.6</ele>
        <time>2022-06-12T10:43:52Z</time>
      </trkpt>
      <trkpt lat="45.95029" lon="1.28427">
        <ele>400.4</ele>
        <time>2022-06-12T10:43:53Z</time>
      </trkpt>
      <trkpt lat="45.95009" lon="1.28417">
        <ele>399.2</ele>
        <time>2022-06-12T10:43:56Z</time>
      </trkpt>
      <trkpt lat="45.94992" lon="1.28407">
        <ele>398.8</ele>
        <time>2022-06-12T10:43:59Z</time>
      </trkpt>
      <trkpt lat="45.94984" lon="1.284">
        <ele>398.8</ele>
        <time>2022-06-12T10:44:01Z</time>
      </trkpt>
      <trkpt lat="45.94979" lon="1.28389">
        <ele>398.6</ele>
        <time>2022-06-12T10:44:03Z</time>
      </trkpt>
      <trkpt lat="45.94978" lon="1.28384">
        <ele>398.4</ele>
        <time>2022-06-12T10:44:04Z</time>
      </trkpt>
      <trkpt lat="45.94979" lon="1.2838">
        <ele>398.2</ele>
        <time>2022-06-12T10:44:05Z</time>
      </trkpt>
      <trkpt lat="45.9498" lon="1.28378">
        <ele>398</ele>
        <time>2022-06-12T10:44:06Z</time>
      </trkpt>
      <trkpt lat="45.94982" lon="1.28377">
        <ele>398</ele>
        <time>2022-06-12T10:44:07Z</time>
      </trkpt>
      <trkpt lat="45.95002" lon="1.28368">
        <ele>397.8</ele>
        <time>2022-06-12T10:44:13Z</time>
      </trkpt>
      <trkpt lat="45.95035" lon="1.28351">
        <ele>398.8</ele>
        <time>2022-06-12T10:44:22Z</time>
      </trkpt>
      <trkpt lat="45.95053" lon="1.28342">
        <ele>399.2</ele>
        <time>2022-06-12T10:44:27Z</time>
      </trkpt>
      <trkpt lat="45.9506" lon="1.28336">
        <ele>399.4</ele>
        <time>2022-06-12T10:44:29Z</time>
      </trkpt>
      <trkpt lat="45.95063" lon="1.28332">
        <ele>399.4</ele>
        <time>2022-06-12T10:44:30Z</time>
      </trkpt>
      <trkpt lat="45.95076" lon="1.28311">
        <ele>399.2</ele>
        <time>2022-06-12T10:44:35Z</time>
      </trkpt>
      <trkpt lat="45.95085" lon="1.28286">
        <ele>399.8</ele>
        <time>2022-06-12T10:44:41Z</time>
      </trkpt>
      <trkpt lat="45.95087" lon="1.28255">
        <ele>400.4</ele>
        <time>2022-06-12T10:44:47Z</time>
      </trkpt>
      <trkpt lat="45.95088" lon="1.28242">
        <ele>400.4</ele>
        <time>2022-06-12T10:44:49Z</time>
      </trkpt>
      <trkpt lat="45.95091" lon="1.28231">
        <ele>400.2</ele>
        <time>2022-06-12T10:44:51Z</time>
      </trkpt>
      <trkpt lat="45.95093" lon="1.28226">
        <ele>400</ele>
        <time>2022-06-12T10:44:52Z</time>
      </trkpt>
      <trkpt lat="45.95095" lon="1.28222">
        <ele>399.8</ele>
        <time>2022-06-12T10:44:53Z</time>
      </trkpt>
      <trkpt lat="45.95102" lon="1.28199">
        <ele>399.4</ele>
        <time>2022-06-12T10:44:57Z</time>
      </trkpt>
      <trkpt lat="45.95107" lon="1.28191">
        <ele>399.4</ele>
        <time>2022-06-12T10:44:59Z</time>
      </trkpt>
      <trkpt lat="45.95116" lon="1.2818">
        <ele>399.6</ele>
        <time>2022-06-12T10:45:02Z</time>
      </trkpt>
      <trkpt lat="45.95122" lon="1.28173">
        <ele>399.8</ele>
        <time>2022-06-12T10:45:04Z</time>
      </trkpt>
      <trkpt lat="45.95131" lon="1.2817">
        <ele>400</ele>
        <time>2022-06-12T10:45:06Z</time>
      </trkpt>
      <trkpt lat="45.95135" lon="1.28168">
        <ele>400</ele>
        <time>2022-06-12T10:45:07Z</time>
      </trkpt>
      <trkpt lat="45.95139" lon="1.28167">
        <ele>400</ele>
        <time>2022-06-12T10:45:08Z</time>
      </trkpt>
      <trkpt lat="45.95159" lon="1.28164">
        <ele>400.4</ele>
        <time>2022-06-12T10:45:13Z</time>
      </trkpt>
      <trkpt lat="45.95188" lon="1.28159">
        <ele>400.8</ele>
        <time>2022-06-12T10:45:20Z</time>
      </trkpt>
      <trkpt lat="45.95196" lon="1.28158">
        <ele>400.8</ele>
        <time>2022-06-12T10:45:22Z</time>
      </trkpt>
      <trkpt lat="45.95207" lon="1.28156">
        <ele>401</ele>
        <time>2022-06-12T10:45:25Z</time>
      </trkpt>
      <trkpt lat="45.95229" lon="1.28153">
        <ele>401.4</ele>
        <time>2022-06-12T10:45:31Z</time>
      </trkpt>
      <trkpt lat="45.95233" lon="1.28153">
        <ele>401.4</ele>
        <time>2022-06-12T10:45:32Z</time>
      </trkpt>
      <trkpt lat="45.95245" lon="1.28152">
        <ele>401.6</ele>
        <time>2022-06-12T10:45:35Z</time>
      </trkpt>
      <trkpt lat="45.95251" lon="1.28151">
        <ele>401.8</ele>
        <time>2022-06-12T10:45:37Z</time>
      </trkpt>
      <trkpt lat="45.95255" lon="1.2815">
        <ele>402</ele>
        <time>2022-06-12T10:45:38Z</time>
      </trkpt>
      <trkpt lat="45.95278" lon="1.28148">
        <ele>402.4</ele>
        <time>2022-06-12T10:45:45Z</time>
      </trkpt>
      <trkpt lat="45.95281" lon="1.28149">
        <ele>402.4</ele>
        <time>2022-06-12T10:45:46Z</time>
      </trkpt>
      <trkpt lat="45.95297" lon="1.28156">
        <ele>403.4</ele>
        <time>2022-06-12T10:45:52Z</time>
      </trkpt>
      <trkpt lat="45.95299" lon="1.28157">
        <ele>403.6</ele>
        <time>2022-06-12T10:45:53Z</time>
      </trkpt>
      <trkpt lat="45.95322" lon="1.28163">
        <ele>404</ele>
        <time>2022-06-12T10:46:01Z</time>
      </trkpt>
      <trkpt lat="45.95332" lon="1.28165">
        <ele>404.6</ele>
        <time>2022-06-12T10:46:05Z</time>
      </trkpt>
      <trkpt lat="45.95342" lon="1.28167">
        <ele>404.6</ele>
        <time>2022-06-12T10:46:09Z</time>
      </trkpt>
      <trkpt lat="45.95367" lon="1.28172">
        <ele>405.2</ele>
        <time>2022-06-12T10:46:15Z</time>
      </trkpt>
      <trkpt lat="45.95373" lon="1.28172">
        <ele>405.6</ele>
        <time>2022-06-12T10:46:17Z</time>
      </trkpt>
      <trkpt lat="45.9538" lon="1.28173">
        <ele>406</ele>
        <time>2022-06-12T10:46:20Z</time>
      </trkpt>
      <trkpt lat="45.95389" lon="1.28173">
        <ele>406.6</ele>
        <time>2022-06-12T10:46:24Z</time>
      </trkpt>
      <trkpt lat="45.95397" lon="1.28171">
        <ele>407.2</ele>
        <time>2022-06-12T10:46:28Z</time>
      </trkpt>
      <trkpt lat="45.95404" lon="1.2817">
        <ele>407.8</ele>
        <time>2022-06-12T10:46:32Z</time>
      </trkpt>
      <trkpt lat="45.95412" lon="1.28169">
        <ele>408.6</ele>
        <time>2022-06-12T10:46:35Z</time>
      </trkpt>
      <trkpt lat="45.95415" lon="1.28166">
        <ele>408.8</ele>
        <time>2022-06-12T10:46:38Z</time>
      </trkpt>
      <trkpt lat="45.95419" lon="1.28165">
        <ele>409</ele>
        <time>2022-06-12T10:46:40Z</time>
      </trkpt>
      <trkpt lat="45.95428" lon="1.28163">
        <ele>410</ele>
        <time>2022-06-12T10:46:43Z</time>
      </trkpt>
      <trkpt lat="45.95445" lon="1.2816">
        <ele>411.2</ele>
        <time>2022-06-12T10:46:50Z</time>
      </trkpt>
      <trkpt lat="45.95447" lon="1.28159">
        <ele>411.6</ele>
        <time>2022-06-12T10:46:51Z</time>
      </trkpt>
      <trkpt lat="45.95451" lon="1.28159">
        <ele>412.2</ele>
        <time>2022-06-12T10:46:53Z</time>
      </trkpt>
      <trkpt lat="45.95453" lon="1.28158">
        <ele>412.2</ele>
        <time>2022-06-12T10:46:54Z</time>
      </trkpt>
      <trkpt lat="45.95458" lon="1.28156">
        <ele>413.2</ele>
        <time>2022-06-12T10:46:58Z</time>
      </trkpt>
      <trkpt lat="45.95459" lon="1.28155">
        <ele>413.6</ele>
        <time>2022-06-12T10:46:59Z</time>
      </trkpt>
      <trkpt lat="45.95467" lon="1.28153">
        <ele>414.6</ele>
        <time>2022-06-12T10:47:04Z</time>
      </trkpt>
      <trkpt lat="45.9547" lon="1.28152">
        <ele>414.8</ele>
        <time>2022-06-12T10:47:06Z</time>
      </trkpt>
      <trkpt lat="45.9548" lon="1.28149">
        <ele>415.6</ele>
        <time>2022-06-12T10:47:12Z</time>
      </trkpt>
      <trkpt lat="45.95483" lon="1.28149">
        <ele>416</ele>
        <time>2022-06-12T10:47:14Z</time>
      </trkpt>
      <trkpt lat="45.95494" lon="1.2815">
        <ele>416.6</ele>
        <time>2022-06-12T10:47:21Z</time>
      </trkpt>
      <trkpt lat="45.955" lon="1.28151">
        <ele>417.4</ele>
        <time>2022-06-12T10:47:25Z</time>
      </trkpt>
      <trkpt lat="45.95503" lon="1.28152">
        <ele>417.8</ele>
        <time>2022-06-12T10:47:27Z</time>
      </trkpt>
      <trkpt lat="45.95504" lon="1.28152">
        <ele>418</ele>
        <time>2022-06-12T10:47:28Z</time>
      </trkpt>
      <trkpt lat="45.95517" lon="1.28152">
        <ele>418.8</ele>
        <time>2022-06-12T10:47:36Z</time>
      </trkpt>
      <trkpt lat="45.9553" lon="1.28151">
        <ele>419.4</ele>
        <time>2022-06-12T10:47:42Z</time>
      </trkpt>
      <trkpt lat="45.95539" lon="1.28152">
        <ele>420</ele>
        <time>2022-06-12T10:47:46Z</time>
      </trkpt>
      <trkpt lat="45.95546" lon="1.28153">
        <ele>420.4</ele>
        <time>2022-06-12T10:47:50Z</time>
      </trkpt>
      <trkpt lat="45.95551" lon="1.28152">
        <ele>421</ele>
        <time>2022-06-12T10:47:53Z</time>
      </trkpt>
      <trkpt lat="45.95557" lon="1.28152">
        <ele>421.8</ele>
        <time>2022-06-12T10:47:57Z</time>
      </trkpt>
      <trkpt lat="45.95559" lon="1.28152">
        <ele>422.2</ele>
        <time>2022-06-12T10:47:58Z</time>
      </trkpt>
      <trkpt lat="45.95562" lon="1.28152">
        <ele>422.4</ele>
        <time>2022-06-12T10:48:00Z</time>
      </trkpt>
      <trkpt lat="45.95569" lon="1.28151">
        <ele>423</ele>
        <time>2022-06-12T10:48:04Z</time>
      </trkpt>
      <trkpt lat="45.95571" lon="1.28151">
        <ele>423.2</ele>
        <time>2022-06-12T10:48:05Z</time>
      </trkpt>
      <trkpt lat="45.95581" lon="1.28152">
        <ele>423.8</ele>
        <time>2022-06-12T10:48:11Z</time>
      </trkpt>
      <trkpt lat="45.95589" lon="1.2815">
        <ele>424.2</ele>
        <time>2022-06-12T10:48:15Z</time>
      </trkpt>
      <trkpt lat="45.95592" lon="1.2815">
        <ele>424.4</ele>
        <time>2022-06-12T10:48:17Z</time>
      </trkpt>
      <trkpt lat="45.95605" lon="1.28151">
        <ele>424.6</ele>
        <time>2022-06-12T10:48:24Z</time>
      </trkpt>
      <trkpt lat="45.9562" lon="1.28155">
        <ele>425.2</ele>
        <time>2022-06-12T10:48:30Z</time>
      </trkpt>
      <trkpt lat="45.95623" lon="1.28156">
        <ele>425.2</ele>
        <time>2022-06-12T10:48:31Z</time>
      </trkpt>
      <trkpt lat="45.95643" lon="1.28161">
        <ele>426.4</ele>
        <time>2022-06-12T10:48:38Z</time>
      </trkpt>
      <trkpt lat="45.95662" lon="1.28168">
        <ele>427.2</ele>
        <time>2022-06-12T10:48:45Z</time>
      </trkpt>
      <trkpt lat="45.95664" lon="1.28168">
        <ele>427.4</ele>
        <time>2022-06-12T10:48:46Z</time>
      </trkpt>
      <trkpt lat="45.95671" lon="1.28169">
        <ele>427.6</ele>
        <time>2022-06-12T10:48:49Z</time>
      </trkpt>
      <trkpt lat="45.95674" lon="1.28166">
        <ele>427.4</ele>
        <time>2022-06-12T10:48:51Z</time>
      </trkpt>
      <trkpt lat="45.95679" lon="1.28156">
        <ele>426.4</ele>
        <time>2022-06-12T10:48:56Z</time>
      </trkpt>
      <trkpt lat="45.95682" lon="1.28154">
        <ele>426.2</ele>
        <time>2022-06-12T10:48:57Z</time>
      </trkpt>
      <trkpt lat="45.95692" lon="1.28148">
        <ele>427.2</ele>
        <time>2022-06-12T10:49:04Z</time>
      </trkpt>
      <trkpt lat="45.95693" lon="1.28147">
        <ele>427.4</ele>
        <time>2022-06-12T10:49:05Z</time>
      </trkpt>
      <trkpt lat="45.95695" lon="1.28147">
        <ele>427.4</ele>
        <time>2022-06-12T10:49:06Z</time>
      </trkpt>
      <trkpt lat="45.95698" lon="1.28144">
        <ele>428</ele>
        <time>2022-06-12T10:49:08Z</time>
      </trkpt>
      <trkpt lat="45.95698" lon="1.28142">
        <ele>428.2</ele>
        <time>2022-06-12T10:49:09Z</time>
      </trkpt>
      <trkpt lat="45.95699" lon="1.2814">
        <ele>428.2</ele>
        <time>2022-06-12T10:49:10Z</time>
      </trkpt>
      <trkpt lat="45.95698" lon="1.28138">
        <ele>428.4</ele>
        <time>2022-06-12T10:49:12Z</time>
      </trkpt>
      <trkpt lat="45.95695" lon="1.28133">
        <ele>428.8</ele>
        <time>2022-06-12T10:49:15Z</time>
      </trkpt>
      <trkpt lat="45.95687" lon="1.28124">
        <ele>429</ele>
        <time>2022-06-12T10:49:22Z</time>
      </trkpt>
      <trkpt lat="45.95685" lon="1.28124">
        <ele>429</ele>
        <time>2022-06-12T10:49:23Z</time>
      </trkpt>
      <trkpt lat="45.95678" lon="1.28119">
        <ele>428.8</ele>
        <time>2022-06-12T10:49:27Z</time>
      </trkpt>
      <trkpt lat="45.95666" lon="1.28107">
        <ele>428</ele>
        <time>2022-06-12T10:49:34Z</time>
      </trkpt>
      <trkpt lat="45.95653" lon="1.28098">
        <ele>427.4</ele>
        <time>2022-06-12T10:49:38Z</time>
      </trkpt>
      <trkpt lat="45.95649" lon="1.28097">
        <ele>427.2</ele>
        <time>2022-06-12T10:49:39Z</time>
      </trkpt>
      <trkpt lat="45.95639" lon="1.28094">
        <ele>426.2</ele>
        <time>2022-06-12T10:49:41Z</time>
      </trkpt>
      <trkpt lat="45.95634" lon="1.28091">
        <ele>425.8</ele>
        <time>2022-06-12T10:49:42Z</time>
      </trkpt>
      <trkpt lat="45.95625" lon="1.28085">
        <ele>425</ele>
        <time>2022-06-12T10:49:44Z</time>
      </trkpt>
      <trkpt lat="45.95611" lon="1.28078">
        <ele>423.8</ele>
        <time>2022-06-12T10:49:47Z</time>
      </trkpt>
      <trkpt lat="45.95601" lon="1.28072">
        <ele>423.2</ele>
        <time>2022-06-12T10:49:49Z</time>
      </trkpt>
      <trkpt lat="45.9559" lon="1.28067">
        <ele>423</ele>
        <time>2022-06-12T10:49:51Z</time>
      </trkpt>
      <trkpt lat="45.95578" lon="1.2806">
        <ele>422.6</ele>
        <time>2022-06-12T10:49:53Z</time>
      </trkpt>
      <trkpt lat="45.95557" lon="1.28048">
        <ele>421.6</ele>
        <time>2022-06-12T10:49:56Z</time>
      </trkpt>
      <trkpt lat="45.95531" lon="1.28032">
        <ele>420.4</ele>
        <time>2022-06-12T10:50:00Z</time>
      </trkpt>
      <trkpt lat="45.95526" lon="1.28028">
        <ele>420.2</ele>
        <time>2022-06-12T10:50:01Z</time>
      </trkpt>
      <trkpt lat="45.95509" lon="1.28013">
        <ele>420.2</ele>
        <time>2022-06-12T10:50:05Z</time>
      </trkpt>
      <trkpt lat="45.95494" lon="1.28">
        <ele>421.2</ele>
        <time>2022-06-12T10:50:10Z</time>
      </trkpt>
      <trkpt lat="45.95486" lon="1.27994">
        <ele>421.6</ele>
        <time>2022-06-12T10:50:13Z</time>
      </trkpt>
      <trkpt lat="45.95478" lon="1.2798">
        <ele>422.2</ele>
        <time>2022-06-12T10:50:17Z</time>
      </trkpt>
      <trkpt lat="45.95473" lon="1.27972">
        <ele>422.6</ele>
        <time>2022-06-12T10:50:19Z</time>
      </trkpt>
      <trkpt lat="45.95465" lon="1.27963">
        <ele>423.2</ele>
        <time>2022-06-12T10:50:22Z</time>
      </trkpt>
      <trkpt lat="45.95461" lon="1.27958">
        <ele>423.6</ele>
        <time>2022-06-12T10:50:24Z</time>
      </trkpt>
      <trkpt lat="45.95448" lon="1.27943">
        <ele>424.4</ele>
        <time>2022-06-12T10:50:29Z</time>
      </trkpt>
      <trkpt lat="45.95443" lon="1.27936">
        <ele>424.8</ele>
        <time>2022-06-12T10:50:31Z</time>
      </trkpt>
      <trkpt lat="45.95433" lon="1.27921">
        <ele>425.8</ele>
        <time>2022-06-12T10:50:36Z</time>
      </trkpt>
      <trkpt lat="45.95431" lon="1.27918">
        <ele>426</ele>
        <time>2022-06-12T10:50:37Z</time>
      </trkpt>
      <trkpt lat="45.95421" lon="1.27898">
        <ele>427</ele>
        <time>2022-06-12T10:50:43Z</time>
      </trkpt>
      <trkpt lat="45.95408" lon="1.27877">
        <ele>427.6</ele>
        <time>2022-06-12T10:50:49Z</time>
      </trkpt>
      <trkpt lat="45.95388" lon="1.27851">
        <ele>428</ele>
        <time>2022-06-12T10:50:57Z</time>
      </trkpt>
      <trkpt lat="45.95373" lon="1.2784">
        <ele>428.8</ele>
        <time>2022-06-12T10:51:03Z</time>
      </trkpt>
      <trkpt lat="45.95368" lon="1.27838">
        <ele>429</ele>
        <time>2022-06-12T10:51:05Z</time>
      </trkpt>
      <trkpt lat="45.95361" lon="1.27835">
        <ele>429.2</ele>
        <time>2022-06-12T10:51:09Z</time>
      </trkpt>
      <trkpt lat="45.95344" lon="1.27837">
        <ele>428.8</ele>
        <time>2022-06-12T10:51:13Z</time>
      </trkpt>
      <trkpt lat="45.95326" lon="1.27839">
        <ele>427.4</ele>
        <time>2022-06-12T10:51:16Z</time>
      </trkpt>
      <trkpt lat="45.95321" lon="1.27839">
        <ele>426.4</ele>
        <time>2022-06-12T10:51:17Z</time>
      </trkpt>
      <trkpt lat="45.95308" lon="1.27837">
        <ele>425.2</ele>
        <time>2022-06-12T10:51:19Z</time>
      </trkpt>
      <trkpt lat="45.95295" lon="1.27834">
        <ele>423.8</ele>
        <time>2022-06-12T10:51:21Z</time>
      </trkpt>
      <trkpt lat="45.95285" lon="1.27825">
        <ele>422.8</ele>
        <time>2022-06-12T10:51:23Z</time>
      </trkpt>
      <trkpt lat="45.95281" lon="1.27821">
        <ele>422.6</ele>
        <time>2022-06-12T10:51:24Z</time>
      </trkpt>
      <trkpt lat="45.95276" lon="1.27812">
        <ele>422.4</ele>
        <time>2022-06-12T10:51:26Z</time>
      </trkpt>
      <trkpt lat="45.95271" lon="1.27801">
        <ele>422.2</ele>
        <time>2022-06-12T10:51:30Z</time>
      </trkpt>
      <trkpt lat="45.95262" lon="1.27787">
        <ele>423.8</ele>
        <time>2022-06-12T10:51:35Z</time>
      </trkpt>
      <trkpt lat="45.95259" lon="1.27783">
        <ele>424.2</ele>
        <time>2022-06-12T10:51:36Z</time>
      </trkpt>
      <trkpt lat="45.95243" lon="1.27773">
        <ele>424.2</ele>
        <time>2022-06-12T10:51:41Z</time>
      </trkpt>
      <trkpt lat="45.95239" lon="1.27771">
        <ele>424</ele>
        <time>2022-06-12T10:51:42Z</time>
      </trkpt>
      <trkpt lat="45.95232" lon="1.2777">
        <ele>423.8</ele>
        <time>2022-06-12T10:51:44Z</time>
      </trkpt>
      <trkpt lat="45.95225" lon="1.27768">
        <ele>423.4</ele>
        <time>2022-06-12T10:51:46Z</time>
      </trkpt>
      <trkpt lat="45.95211" lon="1.27769">
        <ele>422.8</ele>
        <time>2022-06-12T10:51:50Z</time>
      </trkpt>
      <trkpt lat="45.95208" lon="1.27769">
        <ele>422.6</ele>
        <time>2022-06-12T10:51:51Z</time>
      </trkpt>
      <trkpt lat="45.95194" lon="1.27776">
        <ele>422.2</ele>
        <time>2022-06-12T10:51:55Z</time>
      </trkpt>
      <trkpt lat="45.95189" lon="1.27776">
        <ele>422</ele>
        <time>2022-06-12T10:51:56Z</time>
      </trkpt>
      <trkpt lat="45.95184" lon="1.27776">
        <ele>421.4</ele>
        <time>2022-06-12T10:51:57Z</time>
      </trkpt>
      <trkpt lat="45.95165" lon="1.27776">
        <ele>420.8</ele>
        <time>2022-06-12T10:52:01Z</time>
      </trkpt>
      <trkpt lat="45.95155" lon="1.27777">
        <ele>420.8</ele>
        <time>2022-06-12T10:52:03Z</time>
      </trkpt>
      <trkpt lat="45.95145" lon="1.27781">
        <ele>420.4</ele>
        <time>2022-06-12T10:52:05Z</time>
      </trkpt>
      <trkpt lat="45.9514" lon="1.27782">
        <ele>420.4</ele>
        <time>2022-06-12T10:52:06Z</time>
      </trkpt>
      <trkpt lat="45.95117" lon="1.27786">
        <ele>420.4</ele>
        <time>2022-06-12T10:52:11Z</time>
      </trkpt>
      <trkpt lat="45.95108" lon="1.27788">
        <ele>420.4</ele>
        <time>2022-06-12T10:52:13Z</time>
      </trkpt>
      <trkpt lat="45.95092" lon="1.27789">
        <ele>420.4</ele>
        <time>2022-06-12T10:52:17Z</time>
      </trkpt>
      <trkpt lat="45.95084" lon="1.27787">
        <ele>420.4</ele>
        <time>2022-06-12T10:52:19Z</time>
      </trkpt>
      <trkpt lat="45.95071" lon="1.27785">
        <ele>420.6</ele>
        <time>2022-06-12T10:52:22Z</time>
      </trkpt>
      <trkpt lat="45.95062" lon="1.27786">
        <ele>420.6</ele>
        <time>2022-06-12T10:52:24Z</time>
      </trkpt>
      <trkpt lat="45.95045" lon="1.27793">
        <ele>420.6</ele>
        <time>2022-06-12T10:52:28Z</time>
      </trkpt>
      <trkpt lat="45.95041" lon="1.27798">
        <ele>420.6</ele>
        <time>2022-06-12T10:52:29Z</time>
      </trkpt>
      <trkpt lat="45.9503" lon="1.27817">
        <ele>420.6</ele>
        <time>2022-06-12T10:52:33Z</time>
      </trkpt>
      <trkpt lat="45.95024" lon="1.27822">
        <ele>420.8</ele>
        <time>2022-06-12T10:52:35Z</time>
      </trkpt>
      <trkpt lat="45.95008" lon="1.27827">
        <ele>421.2</ele>
        <time>2022-06-12T10:52:40Z</time>
      </trkpt>
      <trkpt lat="45.94984" lon="1.27825">
        <ele>420.6</ele>
        <time>2022-06-12T10:52:46Z</time>
      </trkpt>
      <trkpt lat="45.94975" lon="1.27823">
        <ele>420.2</ele>
        <time>2022-06-12T10:52:48Z</time>
      </trkpt>
      <trkpt lat="45.94965" lon="1.27819">
        <ele>420</ele>
        <time>2022-06-12T10:52:50Z</time>
      </trkpt>
      <trkpt lat="45.9496" lon="1.27818">
        <ele>419.8</ele>
        <time>2022-06-12T10:52:51Z</time>
      </trkpt>
      <trkpt lat="45.94949" lon="1.27817">
        <ele>419.6</ele>
        <time>2022-06-12T10:52:53Z</time>
      </trkpt>
      <trkpt lat="45.94937" lon="1.27816">
        <ele>419.2</ele>
        <time>2022-06-12T10:52:55Z</time>
      </trkpt>
      <trkpt lat="45.9493" lon="1.27816">
        <ele>418.6</ele>
        <time>2022-06-12T10:52:56Z</time>
      </trkpt>
      <trkpt lat="45.94922" lon="1.27819">
        <ele>418</ele>
        <time>2022-06-12T10:52:57Z</time>
      </trkpt>
      <trkpt lat="45.94914" lon="1.27822">
        <ele>417.2</ele>
        <time>2022-06-12T10:52:58Z</time>
      </trkpt>
      <trkpt lat="45.94907" lon="1.27829">
        <ele>416.8</ele>
        <time>2022-06-12T10:52:59Z</time>
      </trkpt>
      <trkpt lat="45.94896" lon="1.2784">
        <ele>415.8</ele>
        <time>2022-06-12T10:53:01Z</time>
      </trkpt>
      <trkpt lat="45.94883" lon="1.27848">
        <ele>414.4</ele>
        <time>2022-06-12T10:53:03Z</time>
      </trkpt>
      <trkpt lat="45.94877" lon="1.2785">
        <ele>414</ele>
        <time>2022-06-12T10:53:04Z</time>
      </trkpt>
      <trkpt lat="45.9487" lon="1.27851">
        <ele>413.4</ele>
        <time>2022-06-12T10:53:05Z</time>
      </trkpt>
      <trkpt lat="45.94864" lon="1.27851">
        <ele>412.8</ele>
        <time>2022-06-12T10:53:06Z</time>
      </trkpt>
      <trkpt lat="45.9485" lon="1.27852">
        <ele>411.4</ele>
        <time>2022-06-12T10:53:08Z</time>
      </trkpt>
      <trkpt lat="45.94832" lon="1.27849">
        <ele>410.2</ele>
        <time>2022-06-12T10:53:10Z</time>
      </trkpt>
      <trkpt lat="45.94822" lon="1.27848">
        <ele>409.8</ele>
        <time>2022-06-12T10:53:11Z</time>
      </trkpt>
      <trkpt lat="45.94811" lon="1.27848">
        <ele>409.4</ele>
        <time>2022-06-12T10:53:12Z</time>
      </trkpt>
      <trkpt lat="45.94801" lon="1.27847">
        <ele>408.6</ele>
        <time>2022-06-12T10:53:13Z</time>
      </trkpt>
      <trkpt lat="45.94774" lon="1.27843">
        <ele>407.2</ele>
        <time>2022-06-12T10:53:16Z</time>
      </trkpt>
      <trkpt lat="45.94757" lon="1.27842">
        <ele>406</ele>
        <time>2022-06-12T10:53:18Z</time>
      </trkpt>
      <trkpt lat="45.94735" lon="1.27839">
        <ele>405.4</ele>
        <time>2022-06-12T10:53:21Z</time>
      </trkpt>
      <trkpt lat="45.94718" lon="1.27832">
        <ele>405.2</ele>
        <time>2022-06-12T10:53:24Z</time>
      </trkpt>
      <trkpt lat="45.94713" lon="1.27829">
        <ele>405</ele>
        <time>2022-06-12T10:53:25Z</time>
      </trkpt>
      <trkpt lat="45.94708" lon="1.27825">
        <ele>404.8</ele>
        <time>2022-06-12T10:53:26Z</time>
      </trkpt>
      <trkpt lat="45.94694" lon="1.27816">
        <ele>404.4</ele>
        <time>2022-06-12T10:53:29Z</time>
      </trkpt>
      <trkpt lat="45.94685" lon="1.27814">
        <ele>404.2</ele>
        <time>2022-06-12T10:53:31Z</time>
      </trkpt>
      <trkpt lat="45.94679" lon="1.27814">
        <ele>404</ele>
        <time>2022-06-12T10:53:32Z</time>
      </trkpt>
      <trkpt lat="45.9467" lon="1.27816">
        <ele>403.8</ele>
        <time>2022-06-12T10:53:34Z</time>
      </trkpt>
      <trkpt lat="45.94646" lon="1.27821">
        <ele>403.6</ele>
        <time>2022-06-12T10:53:39Z</time>
      </trkpt>
      <trkpt lat="45.94619" lon="1.27829">
        <ele>403.4</ele>
        <time>2022-06-12T10:53:45Z</time>
      </trkpt>
      <trkpt lat="45.94608" lon="1.27832">
        <ele>403.6</ele>
        <time>2022-06-12T10:53:48Z</time>
      </trkpt>
      <trkpt lat="45.94596" lon="1.27834">
        <ele>403.8</ele>
        <time>2022-06-12T10:53:51Z</time>
      </trkpt>
      <trkpt lat="45.94588" lon="1.2784">
        <ele>403.8</ele>
        <time>2022-06-12T10:53:54Z</time>
      </trkpt>
      <trkpt lat="45.94587" lon="1.27844">
        <ele>403.8</ele>
        <time>2022-06-12T10:53:55Z</time>
      </trkpt>
      <trkpt lat="45.94585" lon="1.27859">
        <ele>404</ele>
        <time>2022-06-12T10:54:00Z</time>
      </trkpt>
      <trkpt lat="45.9458" lon="1.27865">
        <ele>405.2</ele>
        <time>2022-06-12T10:54:03Z</time>
      </trkpt>
      <trkpt lat="45.94572" lon="1.2787">
        <ele>405.6</ele>
        <time>2022-06-12T10:54:06Z</time>
      </trkpt>
      <trkpt lat="45.94556" lon="1.27879">
        <ele>405.4</ele>
        <time>2022-06-12T10:54:12Z</time>
      </trkpt>
      <trkpt lat="45.94554" lon="1.27883">
        <ele>405.6</ele>
        <time>2022-06-12T10:54:14Z</time>
      </trkpt>
      <trkpt lat="45.94554" lon="1.27887">
        <ele>405.6</ele>
        <time>2022-06-12T10:54:16Z</time>
      </trkpt>
      <trkpt lat="45.94555" lon="1.27889">
        <ele>405.8</ele>
        <time>2022-06-12T10:54:17Z</time>
      </trkpt>
      <trkpt lat="45.9456" lon="1.27894">
        <ele>406.2</ele>
        <time>2022-06-12T10:54:21Z</time>
      </trkpt>
      <trkpt lat="45.94561" lon="1.27895">
        <ele>406.6</ele>
        <time>2022-06-12T10:54:22Z</time>
      </trkpt>
      <trkpt lat="45.94565" lon="1.27897">
        <ele>407.4</ele>
        <time>2022-06-12T10:54:24Z</time>
      </trkpt>
      <trkpt lat="45.94572" lon="1.279">
        <ele>408.8</ele>
        <time>2022-06-12T10:54:29Z</time>
      </trkpt>
      <trkpt lat="45.94574" lon="1.27901">
        <ele>409.2</ele>
        <time>2022-06-12T10:54:31Z</time>
      </trkpt>
      <trkpt lat="45.94577" lon="1.27902">
        <ele>409.8</ele>
        <time>2022-06-12T10:54:34Z</time>
      </trkpt>
      <trkpt lat="45.94583" lon="1.27906">
        <ele>410.4</ele>
        <time>2022-06-12T10:54:38Z</time>
      </trkpt>
      <trkpt lat="45.94588" lon="1.2791">
        <ele>411</ele>
        <time>2022-06-12T10:54:41Z</time>
      </trkpt>
      <trkpt lat="45.94592" lon="1.27915">
        <ele>411.4</ele>
        <time>2022-06-12T10:54:44Z</time>
      </trkpt>
      <trkpt lat="45.94599" lon="1.27923">
        <ele>412</ele>
        <time>2022-06-12T10:54:49Z</time>
      </trkpt>
      <trkpt lat="45.94603" lon="1.2793">
        <ele>412.4</ele>
        <time>2022-06-12T10:54:53Z</time>
      </trkpt>
      <trkpt lat="45.94609" lon="1.27938">
        <ele>413.2</ele>
        <time>2022-06-12T10:54:59Z</time>
      </trkpt>
      <trkpt lat="45.9461" lon="1.2794">
        <ele>413.4</ele>
        <time>2022-06-12T10:55:00Z</time>
      </trkpt>
      <trkpt lat="45.94616" lon="1.27949">
        <ele>414.2</ele>
        <time>2022-06-12T10:55:05Z</time>
      </trkpt>
      <trkpt lat="45.94618" lon="1.27952">
        <ele>414.2</ele>
        <time>2022-06-12T10:55:06Z</time>
      </trkpt>
      <trkpt lat="45.94626" lon="1.27966">
        <ele>414.2</ele>
        <time>2022-06-12T10:55:11Z</time>
      </trkpt>
      <trkpt lat="45.94635" lon="1.27974">
        <ele>413.6</ele>
        <time>2022-06-12T10:55:15Z</time>
      </trkpt>
      <trkpt lat="45.9464" lon="1.27973">
        <ele>413</ele>
        <time>2022-06-12T10:55:17Z</time>
      </trkpt>
      <trkpt lat="45.94644" lon="1.27973">
        <ele>412.6</ele>
        <time>2022-06-12T10:55:19Z</time>
      </trkpt>
      <trkpt lat="45.9465" lon="1.27979">
        <ele>411.8</ele>
        <time>2022-06-12T10:55:21Z</time>
      </trkpt>
      <trkpt lat="45.94656" lon="1.27987">
        <ele>410.8</ele>
        <time>2022-06-12T10:55:23Z</time>
      </trkpt>
      <trkpt lat="45.94659" lon="1.27992">
        <ele>410</ele>
        <time>2022-06-12T10:55:24Z</time>
      </trkpt>
      <trkpt lat="45.94661" lon="1.27999">
        <ele>409.4</ele>
        <time>2022-06-12T10:55:25Z</time>
      </trkpt>
      <trkpt lat="45.94662" lon="1.28004">
        <ele>408</ele>
        <time>2022-06-12T10:55:26Z</time>
      </trkpt>
      <trkpt lat="45.94662" lon="1.28009">
        <ele>407.2</ele>
        <time>2022-06-12T10:55:27Z</time>
      </trkpt>
      <trkpt lat="45.94661" lon="1.28013">
        <ele>406.8</ele>
        <time>2022-06-12T10:55:28Z</time>
      </trkpt>
      <trkpt lat="45.94658" lon="1.28022">
        <ele>405.8</ele>
        <time>2022-06-12T10:55:31Z</time>
      </trkpt>
      <trkpt lat="45.94659" lon="1.28036">
        <ele>405.8</ele>
        <time>2022-06-12T10:55:37Z</time>
      </trkpt>
      <trkpt lat="45.94665" lon="1.28054">
        <ele>405.8</ele>
        <time>2022-06-12T10:55:40Z</time>
      </trkpt>
      <trkpt lat="45.94667" lon="1.2806">
        <ele>405.2</ele>
        <time>2022-06-12T10:55:41Z</time>
      </trkpt>
      <trkpt lat="45.94667" lon="1.28067">
        <ele>404.6</ele>
        <time>2022-06-12T10:55:42Z</time>
      </trkpt>
      <trkpt lat="45.94666" lon="1.28074">
        <ele>404.2</ele>
        <time>2022-06-12T10:55:44Z</time>
      </trkpt>
      <trkpt lat="45.94661" lon="1.28083">
        <ele>404.2</ele>
        <time>2022-06-12T10:55:48Z</time>
      </trkpt>
      <trkpt lat="45.94662" lon="1.28089">
        <ele>404.4</ele>
        <time>2022-06-12T10:55:50Z</time>
      </trkpt>
      <trkpt lat="45.94667" lon="1.28105">
        <ele>405.2</ele>
        <time>2022-06-12T10:55:56Z</time>
      </trkpt>
      <trkpt lat="45.94673" lon="1.28121">
        <ele>405.6</ele>
        <time>2022-06-12T10:56:02Z</time>
      </trkpt>
      <trkpt lat="45.94673" lon="1.28123">
        <ele>405.8</ele>
        <time>2022-06-12T10:56:03Z</time>
      </trkpt>
      <trkpt lat="45.94675" lon="1.28142">
        <ele>406.4</ele>
        <time>2022-06-12T10:56:10Z</time>
      </trkpt>
      <trkpt lat="45.94678" lon="1.28155">
        <ele>406.8</ele>
        <time>2022-06-12T10:56:15Z</time>
      </trkpt>
      <trkpt lat="45.94679" lon="1.28162">
        <ele>407.2</ele>
        <time>2022-06-12T10:56:18Z</time>
      </trkpt>
      <trkpt lat="45.94679" lon="1.28164">
        <ele>407.2</ele>
        <time>2022-06-12T10:56:22Z</time>
      </trkpt>
      <trkpt lat="45.94679" lon="1.28164">
        <ele>406.2</ele>
        <time>2022-06-12T10:56:37Z</time>
      </trkpt>
      <trkpt lat="45.94679" lon="1.28164">
        <ele>406</ele>
        <time>2022-06-12T10:57:39Z</time>
      </trkpt>
      <trkpt lat="45.94679" lon="1.28164">
        <ele>406</ele>
        <time>2022-06-12T10:58:45Z</time>
      </trkpt>
      <trkpt lat="45.94676" lon="1.28157">
        <ele>406</ele>
        <time>2022-06-12T10:58:51Z</time>
      </trkpt>
      <trkpt lat="45.94672" lon="1.28158">
        <ele>406</ele>
        <time>2022-06-12T10:58:54Z</time>
      </trkpt>
      <trkpt lat="45.94672" lon="1.2816">
        <ele>406</ele>
        <time>2022-06-12T10:58:55Z</time>
      </trkpt>
      <trkpt lat="45.94672" lon="1.28162">
        <ele>406</ele>
        <time>2022-06-12T10:58:56Z</time>
      </trkpt>
      <trkpt lat="45.94676" lon="1.28168">
        <ele>406.2</ele>
        <time>2022-06-12T10:58:59Z</time>
      </trkpt>
      <trkpt lat="45.94683" lon="1.28183">
        <ele>406.4</ele>
        <time>2022-06-12T10:59:04Z</time>
      </trkpt>
      <trkpt lat="45.94687" lon="1.28198">
        <ele>406.8</ele>
        <time>2022-06-12T10:59:09Z</time>
      </trkpt>
      <trkpt lat="45.9469" lon="1.28215">
        <ele>406.4</ele>
        <time>2022-06-12T10:59:13Z</time>
      </trkpt>
      <trkpt lat="45.9469" lon="1.28232">
        <ele>406.2</ele>
        <time>2022-06-12T10:59:18Z</time>
      </trkpt>
      <trkpt lat="45.94691" lon="1.28234">
        <ele>406.2</ele>
        <time>2022-06-12T10:59:19Z</time>
      </trkpt>
      <trkpt lat="45.94694" lon="1.28235">
        <ele>405.6</ele>
        <time>2022-06-12T10:59:21Z</time>
      </trkpt>
      <trkpt lat="45.94697" lon="1.28235">
        <ele>405.4</ele>
        <time>2022-06-12T10:59:22Z</time>
      </trkpt>
      <trkpt lat="45.94707" lon="1.28238">
        <ele>404.6</ele>
        <time>2022-06-12T10:59:25Z</time>
      </trkpt>
      <trkpt lat="45.94712" lon="1.28244">
        <ele>403.6</ele>
        <time>2022-06-12T10:59:27Z</time>
      </trkpt>
      <trkpt lat="45.94713" lon="1.28252">
        <ele>402.6</ele>
        <time>2022-06-12T10:59:29Z</time>
      </trkpt>
      <trkpt lat="45.94712" lon="1.28256">
        <ele>402</ele>
        <time>2022-06-12T10:59:30Z</time>
      </trkpt>
      <trkpt lat="45.94713" lon="1.28261">
        <ele>401.6</ele>
        <time>2022-06-12T10:59:31Z</time>
      </trkpt>
      <trkpt lat="45.94716" lon="1.28271">
        <ele>401</ele>
        <time>2022-06-12T10:59:33Z</time>
      </trkpt>
      <trkpt lat="45.94717" lon="1.28276">
        <ele>400.8</ele>
        <time>2022-06-12T10:59:34Z</time>
      </trkpt>
      <trkpt lat="45.94718" lon="1.28279">
        <ele>400.4</ele>
        <time>2022-06-12T10:59:35Z</time>
      </trkpt>
      <trkpt lat="45.94717" lon="1.28282">
        <ele>399.4</ele>
        <time>2022-06-12T10:59:36Z</time>
      </trkpt>
      <trkpt lat="45.94715" lon="1.28284">
        <ele>398.4</ele>
        <time>2022-06-12T10:59:38Z</time>
      </trkpt>
      <trkpt lat="45.94704" lon="1.28291">
        <ele>398</ele>
        <time>2022-06-12T10:59:44Z</time>
      </trkpt>
      <trkpt lat="45.947" lon="1.28295">
        <ele>397.8</ele>
        <time>2022-06-12T10:59:45Z</time>
      </trkpt>
      <trkpt lat="45.94694" lon="1.28304">
        <ele>397.4</ele>
        <time>2022-06-12T10:59:47Z</time>
      </trkpt>
      <trkpt lat="45.94692" lon="1.28308">
        <ele>397.2</ele>
        <time>2022-06-12T10:59:48Z</time>
      </trkpt>
      <trkpt lat="45.9469" lon="1.28311">
        <ele>397</ele>
        <time>2022-06-12T10:59:49Z</time>
      </trkpt>
      <trkpt lat="45.94688" lon="1.28311">
        <ele>396.8</ele>
        <time>2022-06-12T10:59:51Z</time>
      </trkpt>
      <trkpt lat="45.94678" lon="1.2831">
        <ele>397</ele>
        <time>2022-06-12T10:59:58Z</time>
      </trkpt>
      <trkpt lat="45.94674" lon="1.28311">
        <ele>397.4</ele>
        <time>2022-06-12T11:00:00Z</time>
      </trkpt>
      <trkpt lat="45.94669" lon="1.28315">
        <ele>398.2</ele>
        <time>2022-06-12T11:00:03Z</time>
      </trkpt>
      <trkpt lat="45.94667" lon="1.28316">
        <ele>398.4</ele>
        <time>2022-06-12T11:00:04Z</time>
      </trkpt>
      <trkpt lat="45.94658" lon="1.28323">
        <ele>398.6</ele>
        <time>2022-06-12T11:00:08Z</time>
      </trkpt>
      <trkpt lat="45.94655" lon="1.28323">
        <ele>398.6</ele>
        <time>2022-06-12T11:00:10Z</time>
      </trkpt>
      <trkpt lat="45.94652" lon="1.28321">
        <ele>399.4</ele>
        <time>2022-06-12T11:00:13Z</time>
      </trkpt>
      <trkpt lat="45.94645" lon="1.28318">
        <ele>400.6</ele>
        <time>2022-06-12T11:00:17Z</time>
      </trkpt>
      <trkpt lat="45.94644" lon="1.28319">
        <ele>401.2</ele>
        <time>2022-06-12T11:00:19Z</time>
      </trkpt>
      <trkpt lat="45.94641" lon="1.28317">
        <ele>401.8</ele>
        <time>2022-06-12T11:00:21Z</time>
      </trkpt>
      <trkpt lat="45.94634" lon="1.28315">
        <ele>403</ele>
        <time>2022-06-12T11:00:25Z</time>
      </trkpt>
      <trkpt lat="45.94632" lon="1.28315">
        <ele>403.2</ele>
        <time>2022-06-12T11:00:26Z</time>
      </trkpt>
      <trkpt lat="45.94624" lon="1.28308">
        <ele>404</ele>
        <time>2022-06-12T11:00:31Z</time>
      </trkpt>
      <trkpt lat="45.94622" lon="1.28307">
        <ele>404.2</ele>
        <time>2022-06-12T11:00:32Z</time>
      </trkpt>
      <trkpt lat="45.94608" lon="1.28295">
        <ele>405</ele>
        <time>2022-06-12T11:00:39Z</time>
      </trkpt>
      <trkpt lat="45.94606" lon="1.28293">
        <ele>405.2</ele>
        <time>2022-06-12T11:00:40Z</time>
      </trkpt>
      <trkpt lat="45.94592" lon="1.28282">
        <ele>406</ele>
        <time>2022-06-12T11:00:47Z</time>
      </trkpt>
      <trkpt lat="45.94583" lon="1.28273">
        <ele>406.2</ele>
        <time>2022-06-12T11:00:52Z</time>
      </trkpt>
      <trkpt lat="45.94565" lon="1.28259">
        <ele>406.4</ele>
        <time>2022-06-12T11:00:59Z</time>
      </trkpt>
      <trkpt lat="45.94555" lon="1.28246">
        <ele>406.2</ele>
        <time>2022-06-12T11:01:04Z</time>
      </trkpt>
      <trkpt lat="45.94541" lon="1.28229">
        <ele>406.8</ele>
        <time>2022-06-12T11:01:10Z</time>
      </trkpt>
      <trkpt lat="45.94532" lon="1.28218">
        <ele>407</ele>
        <time>2022-06-12T11:01:14Z</time>
      </trkpt>
      <trkpt lat="45.94529" lon="1.28218">
        <ele>407</ele>
        <time>2022-06-12T11:01:15Z</time>
      </trkpt>
      <trkpt lat="45.94514" lon="1.28215">
        <ele>406.8</ele>
        <time>2022-06-12T11:01:20Z</time>
      </trkpt>
      <trkpt lat="45.94498" lon="1.28217">
        <ele>405.6</ele>
        <time>2022-06-12T11:01:26Z</time>
      </trkpt>
      <trkpt lat="45.94493" lon="1.2822">
        <ele>405</ele>
        <time>2022-06-12T11:01:29Z</time>
      </trkpt>
      <trkpt lat="45.94493" lon="1.28221">
        <ele>405</ele>
        <time>2022-06-12T11:01:31Z</time>
      </trkpt>
    </trkseg>
  </trk>
</gpx>